<?xml version="1.0" encoding="UTF-8" standalone="no" ?>
<gpx xmlns="http://www.topografix.com/GPX/1/1" xmlns:xsi="http://www.w3.org/2001/XMLSchema-instance" xsi:schemaLocation="http://www.topografix.com/GPX/1/1 http://www.topografix.com/GPX/1/1/gpx.xsd" version="1.1" creator="VisuGPX - https://www.visugpx.com">
  <metadata>
    <name>Mtp Val de la Combe 10102020</name>
  </metadata>
  <trk>
    <name><![CDATA[Move]]></name>
    <trkseg>
      <trkpt lat="43.61166" lon="3.87749">
        <ele>63.099998474121</ele>
        <time>2020-10-10T06:42:06.000Z</time>
      </trkpt>
      <trkpt lat="43.61178" lon="3.87746">
        <ele>46.2</ele>
        <time>2020-10-10T06:42:42.000Z</time>
      </trkpt>
      <trkpt lat="43.61177" lon="3.87747">
        <ele>46.3</ele>
        <time>2020-10-10T06:42:45.000Z</time>
      </trkpt>
      <trkpt lat="43.61176" lon="3.87748">
        <ele>57.077209577017</ele>
        <time>2020-10-10T06:42:50.000Z</time>
      </trkpt>
      <trkpt lat="43.61178" lon="3.87747">
        <ele>58</ele>
        <time>2020-10-10T06:43:00.000Z</time>
      </trkpt>
      <trkpt lat="43.61179" lon="3.87748">
        <ele>58.581941316986</ele>
        <time>2020-10-10T06:43:08.000Z</time>
      </trkpt>
      <trkpt lat="43.61182" lon="3.8775">
        <ele>59.817800438015</ele>
        <time>2020-10-10T06:43:11.000Z</time>
      </trkpt>
      <trkpt lat="43.61178" lon="3.87747">
        <ele>58.561256356438</ele>
        <time>2020-10-10T06:43:17.000Z</time>
      </trkpt>
      <trkpt lat="43.61178" lon="3.87744">
        <ele>58</ele>
        <time>2020-10-10T06:43:23.000Z</time>
      </trkpt>
      <trkpt lat="43.61178" lon="3.87744">
        <ele>57.87134502924</ele>
        <time>2020-10-10T06:43:24.000Z</time>
      </trkpt>
      <trkpt lat="43.61173" lon="3.87743">
        <ele>57</ele>
        <time>2020-10-10T06:43:30.000Z</time>
      </trkpt>
      <trkpt lat="43.61172" lon="3.87743">
        <ele>57</ele>
        <time>2020-10-10T06:43:31.000Z</time>
      </trkpt>
      <trkpt lat="43.61172" lon="3.87741">
        <ele>57</ele>
        <time>2020-10-10T06:43:35.000Z</time>
      </trkpt>
      <trkpt lat="43.61174" lon="3.87751">
        <ele>59</ele>
        <time>2020-10-10T06:45:22.000Z</time>
      </trkpt>
      <trkpt lat="43.61174" lon="3.87751">
        <ele>59</ele>
        <time>2020-10-10T06:45:26.000Z</time>
      </trkpt>
      <trkpt lat="43.61174" lon="3.87753">
        <ele>59.007179813028</ele>
        <time>2020-10-10T06:45:44.000Z</time>
      </trkpt>
      <trkpt lat="43.61169" lon="3.87758">
        <ele>59.520000157538</ele>
        <time>2020-10-10T06:45:49.000Z</time>
      </trkpt>
      <trkpt lat="43.61179" lon="3.87759">
        <ele>61.811468007454</ele>
        <time>2020-10-10T06:46:03.000Z</time>
      </trkpt>
      <trkpt lat="43.61182" lon="3.8776">
        <ele>62.144866770243</ele>
        <time>2020-10-10T06:46:05.000Z</time>
      </trkpt>
      <trkpt lat="43.61184" lon="3.8776">
        <ele>62.426160595821</ele>
        <time>2020-10-10T06:46:07.000Z</time>
      </trkpt>
      <trkpt lat="43.61184" lon="3.8776">
        <ele>63</ele>
        <time>2020-10-10T06:46:12.000Z</time>
      </trkpt>
      <trkpt lat="43.61186" lon="3.87759">
        <ele>63</ele>
        <time>2020-10-10T06:46:18.000Z</time>
      </trkpt>
      <trkpt lat="43.61186" lon="3.87758">
        <ele>63</ele>
        <time>2020-10-10T06:46:21.000Z</time>
      </trkpt>
      <trkpt lat="43.61177" lon="3.87754">
        <ele>65</ele>
        <time>2020-10-10T06:47:00.000Z</time>
      </trkpt>
      <trkpt lat="43.61172" lon="3.87756">
        <ele>64.968190875107</ele>
        <time>2020-10-10T06:47:10.000Z</time>
      </trkpt>
      <trkpt lat="43.61167" lon="3.87745">
        <ele>63.996913251029</ele>
        <time>2020-10-10T06:47:30.000Z</time>
      </trkpt>
      <trkpt lat="43.61167" lon="3.87731">
        <ele>63.276748641975</ele>
        <time>2020-10-10T06:47:37.000Z</time>
      </trkpt>
      <trkpt lat="43.61155" lon="3.87752">
        <ele>64</ele>
        <time>2020-10-10T06:47:58.000Z</time>
      </trkpt>
      <trkpt lat="43.61145" lon="3.87748">
        <ele>64.27900288</ele>
        <time>2020-10-10T06:48:00.000Z</time>
      </trkpt>
      <trkpt lat="43.61141" lon="3.87736">
        <ele>69.67900288</ele>
        <time>2020-10-10T06:48:06.000Z</time>
      </trkpt>
      <trkpt lat="43.61144" lon="3.87728">
        <ele>94.092630438247</ele>
        <time>2020-10-10T06:48:40.000Z</time>
      </trkpt>
      <trkpt lat="43.61144" lon="3.87726">
        <ele>96.184263904383</ele>
        <time>2020-10-10T06:48:47.000Z</time>
      </trkpt>
      <trkpt lat="43.61145" lon="3.87725">
        <ele>96.012875536481</ele>
        <time>2020-10-10T06:48:52.000Z</time>
      </trkpt>
      <trkpt lat="43.61141" lon="3.87725">
        <ele>96.978540772532</ele>
        <time>2020-10-10T06:49:01.000Z</time>
      </trkpt>
      <trkpt lat="43.61141" lon="3.87725">
        <ele>98</ele>
        <time>2020-10-10T06:49:06.000Z</time>
      </trkpt>
      <trkpt lat="43.61136" lon="3.87726">
        <ele>103</ele>
        <time>2020-10-10T06:49:57.000Z</time>
      </trkpt>
      <trkpt lat="43.61136" lon="3.87727">
        <ele>103.00754086489</ele>
        <time>2020-10-10T06:50:01.000Z</time>
      </trkpt>
      <trkpt lat="43.61136" lon="3.87738">
        <ele>104.00308992689</ele>
        <time>2020-10-10T06:50:55.000Z</time>
      </trkpt>
      <trkpt lat="43.61138" lon="3.87736">
        <ele>104.10607650469</ele>
        <time>2020-10-10T06:50:56.000Z</time>
      </trkpt>
      <trkpt lat="43.61139" lon="3.87734">
        <ele>104.20906308249</ele>
        <time>2020-10-10T06:50:57.000Z</time>
      </trkpt>
      <trkpt lat="43.6114" lon="3.87731">
        <ele>104.41503623809</ele>
        <time>2020-10-10T06:50:59.000Z</time>
      </trkpt>
      <trkpt lat="43.6114" lon="3.8773">
        <ele>105.01142857143</ele>
        <time>2020-10-10T06:51:06.000Z</time>
      </trkpt>
      <trkpt lat="43.61138" lon="3.87727">
        <ele>105.99025025939</ele>
        <time>2020-10-10T06:51:13.000Z</time>
      </trkpt>
      <trkpt lat="43.61139" lon="3.87725">
        <ele>105.15459640816</ele>
        <time>2020-10-10T06:51:19.000Z</time>
      </trkpt>
      <trkpt lat="43.61139" lon="3.87725">
        <ele>105.01532076629</ele>
        <time>2020-10-10T06:51:20.000Z</time>
      </trkpt>
      <trkpt lat="43.61138" lon="3.8773">
        <ele>107.98939588803</ele>
        <time>2020-10-10T06:52:25.000Z</time>
      </trkpt>
      <trkpt lat="43.61138" lon="3.8773">
        <ele>108</ele>
        <time>2020-10-10T06:52:29.000Z</time>
      </trkpt>
      <trkpt lat="43.61137" lon="3.87729">
        <ele>108.04260899192</ele>
        <time>2020-10-10T06:52:31.000Z</time>
      </trkpt>
      <trkpt lat="43.61138" lon="3.87726">
        <ele>108.98947921969</ele>
        <time>2020-10-10T06:52:49.000Z</time>
      </trkpt>
      <trkpt lat="43.61138" lon="3.87726">
        <ele>109.02614379085</ele>
        <time>2020-10-10T06:52:53.000Z</time>
      </trkpt>
      <trkpt lat="43.61131" lon="3.87725">
        <ele>109.94262032787</ele>
        <time>2020-10-10T06:53:05.000Z</time>
      </trkpt>
      <trkpt lat="43.6113" lon="3.87725">
        <ele>109.12294819672</ele>
        <time>2020-10-10T06:53:06.000Z</time>
      </trkpt>
      <trkpt lat="43.61128" lon="3.87726">
        <ele>108.30327606557</ele>
        <time>2020-10-10T06:53:07.000Z</time>
      </trkpt>
      <trkpt lat="43.61125" lon="3.87724">
        <ele>106.66393180328</ele>
        <time>2020-10-10T06:53:09.000Z</time>
      </trkpt>
      <trkpt lat="43.61124" lon="3.87721">
        <ele>105.02458754098</ele>
        <time>2020-10-10T06:53:11.000Z</time>
      </trkpt>
      <trkpt lat="43.61123" lon="3.87718">
        <ele>104.20491540984</ele>
        <time>2020-10-10T06:53:12.000Z</time>
      </trkpt>
      <trkpt lat="43.61122" lon="3.87715">
        <ele>103.38524327869</ele>
        <time>2020-10-10T06:53:13.000Z</time>
      </trkpt>
      <trkpt lat="43.61121" lon="3.87713">
        <ele>102.56557114754</ele>
        <time>2020-10-10T06:53:14.000Z</time>
      </trkpt>
      <trkpt lat="43.61119" lon="3.8771">
        <ele>101.48784683781</ele>
        <time>2020-10-10T06:53:15.000Z</time>
      </trkpt>
      <trkpt lat="43.61117" lon="3.87709">
        <ele>99.835756916853</ele>
        <time>2020-10-10T06:53:16.000Z</time>
      </trkpt>
      <trkpt lat="43.61109" lon="3.87728">
        <ele>94.879487153971</ele>
        <time>2020-10-10T06:53:19.000Z</time>
      </trkpt>
      <trkpt lat="43.61102" lon="3.87726">
        <ele>86.619037549166</ele>
        <time>2020-10-10T06:53:24.000Z</time>
      </trkpt>
      <trkpt lat="43.61099" lon="3.87725">
        <ele>84.983550766486</ele>
        <time>2020-10-10T06:53:25.000Z</time>
      </trkpt>
      <trkpt lat="43.61095" lon="3.87724">
        <ele>84.161352194349</ele>
        <time>2020-10-10T06:53:26.000Z</time>
      </trkpt>
      <trkpt lat="43.61092" lon="3.87722">
        <ele>83.339153622212</ele>
        <time>2020-10-10T06:53:27.000Z</time>
      </trkpt>
      <trkpt lat="43.61088" lon="3.87721">
        <ele>82.516955050075</ele>
        <time>2020-10-10T06:53:28.000Z</time>
      </trkpt>
      <trkpt lat="43.61083" lon="3.8772">
        <ele>81.694756477938</ele>
        <time>2020-10-10T06:53:29.000Z</time>
      </trkpt>
      <trkpt lat="43.61075" lon="3.87711">
        <ele>80.050359333664</ele>
        <time>2020-10-10T06:53:31.000Z</time>
      </trkpt>
      <trkpt lat="43.61075" lon="3.87701">
        <ele>79.228160761527</ele>
        <time>2020-10-10T06:53:32.000Z</time>
      </trkpt>
      <trkpt lat="43.61075" lon="3.87692">
        <ele>78.40596218939</ele>
        <time>2020-10-10T06:53:33.000Z</time>
      </trkpt>
      <trkpt lat="43.61075" lon="3.87686">
        <ele>77.583763617253</ele>
        <time>2020-10-10T06:53:34.000Z</time>
      </trkpt>
      <trkpt lat="43.61075" lon="3.87679">
        <ele>76.912826557324</ele>
        <time>2020-10-10T06:53:35.000Z</time>
      </trkpt>
      <trkpt lat="43.61075" lon="3.8767">
        <ele>76.612225162148</ele>
        <time>2020-10-10T06:53:36.000Z</time>
      </trkpt>
      <trkpt lat="43.61076" lon="3.87662">
        <ele>76.311623766973</ele>
        <time>2020-10-10T06:53:37.000Z</time>
      </trkpt>
      <trkpt lat="43.61077" lon="3.87654">
        <ele>76.011022371798</ele>
        <time>2020-10-10T06:53:38.000Z</time>
      </trkpt>
      <trkpt lat="43.61078" lon="3.87648">
        <ele>75.710420976623</ele>
        <time>2020-10-10T06:53:39.000Z</time>
      </trkpt>
      <trkpt lat="43.61079" lon="3.87642">
        <ele>75.409819581447</ele>
        <time>2020-10-10T06:53:40.000Z</time>
      </trkpt>
      <trkpt lat="43.61079" lon="3.87635">
        <ele>75.109218186272</ele>
        <time>2020-10-10T06:53:41.000Z</time>
      </trkpt>
      <trkpt lat="43.61079" lon="3.8763">
        <ele>74.808616791097</ele>
        <time>2020-10-10T06:53:42.000Z</time>
      </trkpt>
      <trkpt lat="43.61078" lon="3.87625">
        <ele>74.508015395922</ele>
        <time>2020-10-10T06:53:43.000Z</time>
      </trkpt>
      <trkpt lat="43.61077" lon="3.87621">
        <ele>74.207414000746</ele>
        <time>2020-10-10T06:53:44.000Z</time>
      </trkpt>
      <trkpt lat="43.61076" lon="3.87616">
        <ele>73.81399808</ele>
        <time>2020-10-10T06:53:45.000Z</time>
      </trkpt>
      <trkpt lat="43.61075" lon="3.87611">
        <ele>73.21399808</ele>
        <time>2020-10-10T06:53:46.000Z</time>
      </trkpt>
      <trkpt lat="43.61074" lon="3.87606">
        <ele>72.61399808</ele>
        <time>2020-10-10T06:53:47.000Z</time>
      </trkpt>
      <trkpt lat="43.61074" lon="3.87602">
        <ele>72.01399808</ele>
        <time>2020-10-10T06:53:48.000Z</time>
      </trkpt>
      <trkpt lat="43.61074" lon="3.87597">
        <ele>71.41399808</ele>
        <time>2020-10-10T06:53:49.000Z</time>
      </trkpt>
      <trkpt lat="43.61075" lon="3.87592">
        <ele>70.81399808</ele>
        <time>2020-10-10T06:53:50.000Z</time>
      </trkpt>
      <trkpt lat="43.61075" lon="3.87587">
        <ele>70.21399808</ele>
        <time>2020-10-10T06:53:51.000Z</time>
      </trkpt>
      <trkpt lat="43.61076" lon="3.87582">
        <ele>69.61399808</ele>
        <time>2020-10-10T06:53:52.000Z</time>
      </trkpt>
      <trkpt lat="43.61076" lon="3.87577">
        <ele>69.01399808</ele>
        <time>2020-10-10T06:53:53.000Z</time>
      </trkpt>
      <trkpt lat="43.61076" lon="3.87571">
        <ele>68.41399808</ele>
        <time>2020-10-10T06:53:54.000Z</time>
      </trkpt>
      <trkpt lat="43.61077" lon="3.87565">
        <ele>67.90699904</ele>
        <time>2020-10-10T06:53:55.000Z</time>
      </trkpt>
      <trkpt lat="43.61077" lon="3.87559">
        <ele>67.60699904</ele>
        <time>2020-10-10T06:53:56.000Z</time>
      </trkpt>
      <trkpt lat="43.61078" lon="3.87553">
        <ele>67.30699904</ele>
        <time>2020-10-10T06:53:57.000Z</time>
      </trkpt>
      <trkpt lat="43.61079" lon="3.87548">
        <ele>67.00699904</ele>
        <time>2020-10-10T06:53:58.000Z</time>
      </trkpt>
      <trkpt lat="43.6108" lon="3.87542">
        <ele>66.70699904</ele>
        <time>2020-10-10T06:53:59.000Z</time>
      </trkpt>
      <trkpt lat="43.61081" lon="3.87536">
        <ele>66.40699904</ele>
        <time>2020-10-10T06:54:00.000Z</time>
      </trkpt>
      <trkpt lat="43.61081" lon="3.8753">
        <ele>66.10699904</ele>
        <time>2020-10-10T06:54:01.000Z</time>
      </trkpt>
      <trkpt lat="43.61082" lon="3.87525">
        <ele>65.80699904</ele>
        <time>2020-10-10T06:54:02.000Z</time>
      </trkpt>
      <trkpt lat="43.61083" lon="3.87519">
        <ele>65.50699904</ele>
        <time>2020-10-10T06:54:03.000Z</time>
      </trkpt>
      <trkpt lat="43.61083" lon="3.87513">
        <ele>65.20699904</ele>
        <time>2020-10-10T06:54:04.000Z</time>
      </trkpt>
      <trkpt lat="43.61084" lon="3.87508">
        <ele>65</ele>
        <time>2020-10-10T06:54:05.000Z</time>
      </trkpt>
      <trkpt lat="43.61084" lon="3.87502">
        <ele>65</ele>
        <time>2020-10-10T06:54:06.000Z</time>
      </trkpt>
      <trkpt lat="43.61084" lon="3.87498">
        <ele>65</ele>
        <time>2020-10-10T06:54:07.000Z</time>
      </trkpt>
      <trkpt lat="43.61084" lon="3.87493">
        <ele>65</ele>
        <time>2020-10-10T06:54:08.000Z</time>
      </trkpt>
      <trkpt lat="43.61084" lon="3.87489">
        <ele>65</ele>
        <time>2020-10-10T06:54:09.000Z</time>
      </trkpt>
      <trkpt lat="43.61085" lon="3.87484">
        <ele>65</ele>
        <time>2020-10-10T06:54:10.000Z</time>
      </trkpt>
      <trkpt lat="43.61087" lon="3.8748">
        <ele>65</ele>
        <time>2020-10-10T06:54:11.000Z</time>
      </trkpt>
      <trkpt lat="43.61088" lon="3.87475">
        <ele>65</ele>
        <time>2020-10-10T06:54:12.000Z</time>
      </trkpt>
      <trkpt lat="43.61089" lon="3.87469">
        <ele>65</ele>
        <time>2020-10-10T06:54:13.000Z</time>
      </trkpt>
      <trkpt lat="43.6109" lon="3.87464">
        <ele>65</ele>
        <time>2020-10-10T06:54:14.000Z</time>
      </trkpt>
      <trkpt lat="43.6109" lon="3.87458">
        <ele>64.96899968</ele>
        <time>2020-10-10T06:54:15.000Z</time>
      </trkpt>
      <trkpt lat="43.61091" lon="3.87453">
        <ele>64.86899968</ele>
        <time>2020-10-10T06:54:16.000Z</time>
      </trkpt>
      <trkpt lat="43.61091" lon="3.87447">
        <ele>64.76899968</ele>
        <time>2020-10-10T06:54:17.000Z</time>
      </trkpt>
      <trkpt lat="43.61092" lon="3.87441">
        <ele>64.66899968</ele>
        <time>2020-10-10T06:54:18.000Z</time>
      </trkpt>
      <trkpt lat="43.61093" lon="3.87435">
        <ele>64.56899968</ele>
        <time>2020-10-10T06:54:19.000Z</time>
      </trkpt>
      <trkpt lat="43.61094" lon="3.87429">
        <ele>64.46899968</ele>
        <time>2020-10-10T06:54:20.000Z</time>
      </trkpt>
      <trkpt lat="43.61094" lon="3.87423">
        <ele>64.36899968</ele>
        <time>2020-10-10T06:54:21.000Z</time>
      </trkpt>
      <trkpt lat="43.61095" lon="3.87417">
        <ele>64.26899968</ele>
        <time>2020-10-10T06:54:22.000Z</time>
      </trkpt>
      <trkpt lat="43.61096" lon="3.87411">
        <ele>64.16899968</ele>
        <time>2020-10-10T06:54:23.000Z</time>
      </trkpt>
      <trkpt lat="43.61096" lon="3.87405">
        <ele>64.06899968</ele>
        <time>2020-10-10T06:54:24.000Z</time>
      </trkpt>
      <trkpt lat="43.61097" lon="3.87399">
        <ele>63.96899968</ele>
        <time>2020-10-10T06:54:25.000Z</time>
      </trkpt>
      <trkpt lat="43.61097" lon="3.87393">
        <ele>63.86899968</ele>
        <time>2020-10-10T06:54:26.000Z</time>
      </trkpt>
      <trkpt lat="43.61097" lon="3.87387">
        <ele>63.76899968</ele>
        <time>2020-10-10T06:54:27.000Z</time>
      </trkpt>
      <trkpt lat="43.61097" lon="3.8738">
        <ele>63.66899968</ele>
        <time>2020-10-10T06:54:28.000Z</time>
      </trkpt>
      <trkpt lat="43.61098" lon="3.87374">
        <ele>63.56899968</ele>
        <time>2020-10-10T06:54:29.000Z</time>
      </trkpt>
      <trkpt lat="43.61098" lon="3.87368">
        <ele>63.46899968</ele>
        <time>2020-10-10T06:54:30.000Z</time>
      </trkpt>
      <trkpt lat="43.61098" lon="3.87362">
        <ele>63.36899968</ele>
        <time>2020-10-10T06:54:31.000Z</time>
      </trkpt>
      <trkpt lat="43.61099" lon="3.87356">
        <ele>63.26899968</ele>
        <time>2020-10-10T06:54:32.000Z</time>
      </trkpt>
      <trkpt lat="43.61099" lon="3.8735">
        <ele>63.16899968</ele>
        <time>2020-10-10T06:54:33.000Z</time>
      </trkpt>
      <trkpt lat="43.61099" lon="3.87344">
        <ele>63.06899968</ele>
        <time>2020-10-10T06:54:34.000Z</time>
      </trkpt>
      <trkpt lat="43.611" lon="3.87338">
        <ele>62.938061358103</ele>
        <time>2020-10-10T06:54:35.000Z</time>
      </trkpt>
      <trkpt lat="43.61101" lon="3.87331">
        <ele>62.738261349919</ele>
        <time>2020-10-10T06:54:36.000Z</time>
      </trkpt>
      <trkpt lat="43.61102" lon="3.87325">
        <ele>62.538461341735</ele>
        <time>2020-10-10T06:54:37.000Z</time>
      </trkpt>
      <trkpt lat="43.61103" lon="3.87319">
        <ele>62.338661333552</ele>
        <time>2020-10-10T06:54:38.000Z</time>
      </trkpt>
      <trkpt lat="43.61104" lon="3.87313">
        <ele>62.138861325368</ele>
        <time>2020-10-10T06:54:39.000Z</time>
      </trkpt>
      <trkpt lat="43.61105" lon="3.87307">
        <ele>61.939061317184</ele>
        <time>2020-10-10T06:54:40.000Z</time>
      </trkpt>
      <trkpt lat="43.61106" lon="3.873">
        <ele>61.739261309</ele>
        <time>2020-10-10T06:54:41.000Z</time>
      </trkpt>
      <trkpt lat="43.61107" lon="3.87294">
        <ele>61.539461300816</ele>
        <time>2020-10-10T06:54:42.000Z</time>
      </trkpt>
      <trkpt lat="43.61108" lon="3.87288">
        <ele>61.339661292632</ele>
        <time>2020-10-10T06:54:43.000Z</time>
      </trkpt>
      <trkpt lat="43.61108" lon="3.87282">
        <ele>61.139861284449</ele>
        <time>2020-10-10T06:54:44.000Z</time>
      </trkpt>
      <trkpt lat="43.61109" lon="3.87275">
        <ele>60.941692187893</ele>
        <time>2020-10-10T06:54:45.000Z</time>
      </trkpt>
      <trkpt lat="43.61109" lon="3.8727">
        <ele>60.74732866778</ele>
        <time>2020-10-10T06:54:46.000Z</time>
      </trkpt>
      <trkpt lat="43.6111" lon="3.87264">
        <ele>60.552965147666</ele>
        <time>2020-10-10T06:54:47.000Z</time>
      </trkpt>
      <trkpt lat="43.61111" lon="3.87258">
        <ele>60.358601627553</ele>
        <time>2020-10-10T06:54:48.000Z</time>
      </trkpt>
      <trkpt lat="43.61111" lon="3.87252">
        <ele>60.16423810744</ele>
        <time>2020-10-10T06:54:49.000Z</time>
      </trkpt>
      <trkpt lat="43.61112" lon="3.87247">
        <ele>59.969874587327</ele>
        <time>2020-10-10T06:54:50.000Z</time>
      </trkpt>
      <trkpt lat="43.61112" lon="3.87242">
        <ele>59.775511067214</ele>
        <time>2020-10-10T06:54:51.000Z</time>
      </trkpt>
      <trkpt lat="43.61112" lon="3.87237">
        <ele>59.581147547101</ele>
        <time>2020-10-10T06:54:52.000Z</time>
      </trkpt>
      <trkpt lat="43.61113" lon="3.87232">
        <ele>59.386784026988</ele>
        <time>2020-10-10T06:54:53.000Z</time>
      </trkpt>
      <trkpt lat="43.61114" lon="3.87227">
        <ele>59.192420506875</ele>
        <time>2020-10-10T06:54:54.000Z</time>
      </trkpt>
      <trkpt lat="43.61115" lon="3.87222">
        <ele>58.998969401382</ele>
        <time>2020-10-10T06:54:55.000Z</time>
      </trkpt>
      <trkpt lat="43.61117" lon="3.87217">
        <ele>58.895876549857</ele>
        <time>2020-10-10T06:54:56.000Z</time>
      </trkpt>
      <trkpt lat="43.61118" lon="3.87212">
        <ele>58.792783698331</ele>
        <time>2020-10-10T06:54:57.000Z</time>
      </trkpt>
      <trkpt lat="43.6112" lon="3.87208">
        <ele>58.689690846806</ele>
        <time>2020-10-10T06:54:58.000Z</time>
      </trkpt>
      <trkpt lat="43.61123" lon="3.87205">
        <ele>58.586597995281</ele>
        <time>2020-10-10T06:54:59.000Z</time>
      </trkpt>
      <trkpt lat="43.61125" lon="3.87202">
        <ele>58.483505143756</ele>
        <time>2020-10-10T06:55:00.000Z</time>
      </trkpt>
      <trkpt lat="43.61129" lon="3.872">
        <ele>58.380412292231</ele>
        <time>2020-10-10T06:55:01.000Z</time>
      </trkpt>
      <trkpt lat="43.61132" lon="3.87198">
        <ele>58.277319440706</ele>
        <time>2020-10-10T06:55:02.000Z</time>
      </trkpt>
      <trkpt lat="43.61137" lon="3.87198">
        <ele>58.17422658918</ele>
        <time>2020-10-10T06:55:03.000Z</time>
      </trkpt>
      <trkpt lat="43.61141" lon="3.87198">
        <ele>58.071133737655</ele>
        <time>2020-10-10T06:55:04.000Z</time>
      </trkpt>
      <trkpt lat="43.61145" lon="3.87199">
        <ele>57.90699904</ele>
        <time>2020-10-10T06:55:05.000Z</time>
      </trkpt>
      <trkpt lat="43.61149" lon="3.87199">
        <ele>57.60699904</ele>
        <time>2020-10-10T06:55:06.000Z</time>
      </trkpt>
      <trkpt lat="43.61153" lon="3.87199">
        <ele>57.30699904</ele>
        <time>2020-10-10T06:55:07.000Z</time>
      </trkpt>
      <trkpt lat="43.61157" lon="3.872">
        <ele>57.00699904</ele>
        <time>2020-10-10T06:55:08.000Z</time>
      </trkpt>
      <trkpt lat="43.6116" lon="3.87199">
        <ele>56.70699904</ele>
        <time>2020-10-10T06:55:09.000Z</time>
      </trkpt>
      <trkpt lat="43.61164" lon="3.87199">
        <ele>56.40699904</ele>
        <time>2020-10-10T06:55:10.000Z</time>
      </trkpt>
      <trkpt lat="43.61168" lon="3.87198">
        <ele>56.10699904</ele>
        <time>2020-10-10T06:55:11.000Z</time>
      </trkpt>
      <trkpt lat="43.61172" lon="3.87197">
        <ele>55.80699904</ele>
        <time>2020-10-10T06:55:12.000Z</time>
      </trkpt>
      <trkpt lat="43.61175" lon="3.87197">
        <ele>55.50699904</ele>
        <time>2020-10-10T06:55:13.000Z</time>
      </trkpt>
      <trkpt lat="43.61179" lon="3.87196">
        <ele>55.20699904</ele>
        <time>2020-10-10T06:55:14.000Z</time>
      </trkpt>
      <trkpt lat="43.61182" lon="3.87196">
        <ele>54.90699904</ele>
        <time>2020-10-10T06:55:15.000Z</time>
      </trkpt>
      <trkpt lat="43.61185" lon="3.87195">
        <ele>54.60699904</ele>
        <time>2020-10-10T06:55:16.000Z</time>
      </trkpt>
      <trkpt lat="43.61187" lon="3.87193">
        <ele>54.30699904</ele>
        <time>2020-10-10T06:55:17.000Z</time>
      </trkpt>
      <trkpt lat="43.61189" lon="3.87191">
        <ele>54.00699904</ele>
        <time>2020-10-10T06:55:18.000Z</time>
      </trkpt>
      <trkpt lat="43.61191" lon="3.87187">
        <ele>53.70699904</ele>
        <time>2020-10-10T06:55:19.000Z</time>
      </trkpt>
      <trkpt lat="43.61192" lon="3.87182">
        <ele>53.40699904</ele>
        <time>2020-10-10T06:55:20.000Z</time>
      </trkpt>
      <trkpt lat="43.61193" lon="3.87177">
        <ele>53.10699904</ele>
        <time>2020-10-10T06:55:21.000Z</time>
      </trkpt>
      <trkpt lat="43.61194" lon="3.87171">
        <ele>52.80699904</ele>
        <time>2020-10-10T06:55:22.000Z</time>
      </trkpt>
      <trkpt lat="43.61195" lon="3.87166">
        <ele>52.50699904</ele>
        <time>2020-10-10T06:55:23.000Z</time>
      </trkpt>
      <trkpt lat="43.61195" lon="3.8716">
        <ele>52.20699904</ele>
        <time>2020-10-10T06:55:24.000Z</time>
      </trkpt>
      <trkpt lat="43.61195" lon="3.87154">
        <ele>51.96899968</ele>
        <time>2020-10-10T06:55:25.000Z</time>
      </trkpt>
      <trkpt lat="43.61196" lon="3.87148">
        <ele>51.86899968</ele>
        <time>2020-10-10T06:55:26.000Z</time>
      </trkpt>
      <trkpt lat="43.61196" lon="3.87141">
        <ele>51.76899968</ele>
        <time>2020-10-10T06:55:27.000Z</time>
      </trkpt>
      <trkpt lat="43.61196" lon="3.87134">
        <ele>51.66899968</ele>
        <time>2020-10-10T06:55:28.000Z</time>
      </trkpt>
      <trkpt lat="43.61197" lon="3.87127">
        <ele>51.56899968</ele>
        <time>2020-10-10T06:55:29.000Z</time>
      </trkpt>
      <trkpt lat="43.61197" lon="3.8712">
        <ele>51.46899968</ele>
        <time>2020-10-10T06:55:30.000Z</time>
      </trkpt>
      <trkpt lat="43.61198" lon="3.87113">
        <ele>51.36899968</ele>
        <time>2020-10-10T06:55:31.000Z</time>
      </trkpt>
      <trkpt lat="43.61198" lon="3.87105">
        <ele>51.26899968</ele>
        <time>2020-10-10T06:55:32.000Z</time>
      </trkpt>
      <trkpt lat="43.61199" lon="3.87098">
        <ele>51.16899968</ele>
        <time>2020-10-10T06:55:33.000Z</time>
      </trkpt>
      <trkpt lat="43.61199" lon="3.87091">
        <ele>51.06899968</ele>
        <time>2020-10-10T06:55:34.000Z</time>
      </trkpt>
      <trkpt lat="43.612" lon="3.87083">
        <ele>50.93903580976</ele>
        <time>2020-10-10T06:55:35.000Z</time>
      </trkpt>
      <trkpt lat="43.612" lon="3.87076">
        <ele>50.742379161569</ele>
        <time>2020-10-10T06:55:36.000Z</time>
      </trkpt>
      <trkpt lat="43.61201" lon="3.87069">
        <ele>50.545722513379</ele>
        <time>2020-10-10T06:55:37.000Z</time>
      </trkpt>
      <trkpt lat="43.61201" lon="3.87061">
        <ele>50.349065865189</ele>
        <time>2020-10-10T06:55:38.000Z</time>
      </trkpt>
      <trkpt lat="43.61202" lon="3.87054">
        <ele>50.152409216998</ele>
        <time>2020-10-10T06:55:39.000Z</time>
      </trkpt>
      <trkpt lat="43.61203" lon="3.87047">
        <ele>49.955752568808</ele>
        <time>2020-10-10T06:55:40.000Z</time>
      </trkpt>
      <trkpt lat="43.61203" lon="3.87039">
        <ele>49.759095920617</ele>
        <time>2020-10-10T06:55:41.000Z</time>
      </trkpt>
      <trkpt lat="43.61204" lon="3.87032">
        <ele>49.562439272427</ele>
        <time>2020-10-10T06:55:42.000Z</time>
      </trkpt>
      <trkpt lat="43.61205" lon="3.87025">
        <ele>49.365782624237</ele>
        <time>2020-10-10T06:55:43.000Z</time>
      </trkpt>
      <trkpt lat="43.61205" lon="3.87018">
        <ele>49.169125976046</ele>
        <time>2020-10-10T06:55:44.000Z</time>
      </trkpt>
      <trkpt lat="43.61206" lon="3.87011">
        <ele>49</ele>
        <time>2020-10-10T06:55:45.000Z</time>
      </trkpt>
      <trkpt lat="43.61207" lon="3.87003">
        <ele>49</ele>
        <time>2020-10-10T06:55:46.000Z</time>
      </trkpt>
      <trkpt lat="43.61207" lon="3.86996">
        <ele>49</ele>
        <time>2020-10-10T06:55:47.000Z</time>
      </trkpt>
      <trkpt lat="43.61208" lon="3.86989">
        <ele>49</ele>
        <time>2020-10-10T06:55:48.000Z</time>
      </trkpt>
      <trkpt lat="43.61208" lon="3.86982">
        <ele>49</ele>
        <time>2020-10-10T06:55:49.000Z</time>
      </trkpt>
      <trkpt lat="43.61209" lon="3.86974">
        <ele>49</ele>
        <time>2020-10-10T06:55:50.000Z</time>
      </trkpt>
      <trkpt lat="43.61209" lon="3.86967">
        <ele>49</ele>
        <time>2020-10-10T06:55:51.000Z</time>
      </trkpt>
      <trkpt lat="43.6121" lon="3.86961">
        <ele>49</ele>
        <time>2020-10-10T06:55:52.000Z</time>
      </trkpt>
      <trkpt lat="43.6121" lon="3.86954">
        <ele>49</ele>
        <time>2020-10-10T06:55:53.000Z</time>
      </trkpt>
      <trkpt lat="43.61211" lon="3.86948">
        <ele>49</ele>
        <time>2020-10-10T06:55:54.000Z</time>
      </trkpt>
      <trkpt lat="43.61211" lon="3.86941">
        <ele>48.96899968</ele>
        <time>2020-10-10T06:55:55.000Z</time>
      </trkpt>
      <trkpt lat="43.61212" lon="3.86935">
        <ele>48.86899968</ele>
        <time>2020-10-10T06:55:56.000Z</time>
      </trkpt>
      <trkpt lat="43.61212" lon="3.86928">
        <ele>48.76899968</ele>
        <time>2020-10-10T06:55:57.000Z</time>
      </trkpt>
      <trkpt lat="43.61213" lon="3.86921">
        <ele>48.66899968</ele>
        <time>2020-10-10T06:55:58.000Z</time>
      </trkpt>
      <trkpt lat="43.61213" lon="3.86914">
        <ele>48.56899968</ele>
        <time>2020-10-10T06:55:59.000Z</time>
      </trkpt>
      <trkpt lat="43.61213" lon="3.86907">
        <ele>48.46899968</ele>
        <time>2020-10-10T06:56:00.000Z</time>
      </trkpt>
      <trkpt lat="43.61214" lon="3.869">
        <ele>48.36899968</ele>
        <time>2020-10-10T06:56:01.000Z</time>
      </trkpt>
      <trkpt lat="43.61215" lon="3.86892">
        <ele>48.26899968</ele>
        <time>2020-10-10T06:56:02.000Z</time>
      </trkpt>
      <trkpt lat="43.61215" lon="3.86885">
        <ele>48.16899968</ele>
        <time>2020-10-10T06:56:03.000Z</time>
      </trkpt>
      <trkpt lat="43.61216" lon="3.86877">
        <ele>48.06899968</ele>
        <time>2020-10-10T06:56:04.000Z</time>
      </trkpt>
      <trkpt lat="43.61217" lon="3.86869">
        <ele>47.96899968</ele>
        <time>2020-10-10T06:56:05.000Z</time>
      </trkpt>
      <trkpt lat="43.61217" lon="3.86862">
        <ele>47.86899968</ele>
        <time>2020-10-10T06:56:06.000Z</time>
      </trkpt>
      <trkpt lat="43.61217" lon="3.86855">
        <ele>47.76899968</ele>
        <time>2020-10-10T06:56:07.000Z</time>
      </trkpt>
      <trkpt lat="43.61218" lon="3.86849">
        <ele>47.66899968</ele>
        <time>2020-10-10T06:56:08.000Z</time>
      </trkpt>
      <trkpt lat="43.61218" lon="3.86843">
        <ele>47.56899968</ele>
        <time>2020-10-10T06:56:09.000Z</time>
      </trkpt>
      <trkpt lat="43.61218" lon="3.86838">
        <ele>47.46899968</ele>
        <time>2020-10-10T06:56:10.000Z</time>
      </trkpt>
      <trkpt lat="43.61219" lon="3.86833">
        <ele>47.36899968</ele>
        <time>2020-10-10T06:56:11.000Z</time>
      </trkpt>
      <trkpt lat="43.6122" lon="3.86829">
        <ele>47.26899968</ele>
        <time>2020-10-10T06:56:12.000Z</time>
      </trkpt>
      <trkpt lat="43.61222" lon="3.86824">
        <ele>47.16899968</ele>
        <time>2020-10-10T06:56:13.000Z</time>
      </trkpt>
      <trkpt lat="43.61222" lon="3.86818">
        <ele>47.06899968</ele>
        <time>2020-10-10T06:56:14.000Z</time>
      </trkpt>
      <trkpt lat="43.61221" lon="3.86812">
        <ele>46.90699904</ele>
        <time>2020-10-10T06:56:15.000Z</time>
      </trkpt>
      <trkpt lat="43.61219" lon="3.86806">
        <ele>46.60699904</ele>
        <time>2020-10-10T06:56:16.000Z</time>
      </trkpt>
      <trkpt lat="43.61216" lon="3.86801">
        <ele>46.30699904</ele>
        <time>2020-10-10T06:56:17.000Z</time>
      </trkpt>
      <trkpt lat="43.61214" lon="3.86796">
        <ele>46.00699904</ele>
        <time>2020-10-10T06:56:18.000Z</time>
      </trkpt>
      <trkpt lat="43.61211" lon="3.8679">
        <ele>45.70699904</ele>
        <time>2020-10-10T06:56:19.000Z</time>
      </trkpt>
      <trkpt lat="43.61208" lon="3.86784">
        <ele>45.40699904</ele>
        <time>2020-10-10T06:56:20.000Z</time>
      </trkpt>
      <trkpt lat="43.61206" lon="3.86777">
        <ele>45.10699904</ele>
        <time>2020-10-10T06:56:21.000Z</time>
      </trkpt>
      <trkpt lat="43.61205" lon="3.86769">
        <ele>44.80699904</ele>
        <time>2020-10-10T06:56:22.000Z</time>
      </trkpt>
      <trkpt lat="43.61204" lon="3.8676">
        <ele>44.50699904</ele>
        <time>2020-10-10T06:56:23.000Z</time>
      </trkpt>
      <trkpt lat="43.61204" lon="3.86752">
        <ele>44.20699904</ele>
        <time>2020-10-10T06:56:24.000Z</time>
      </trkpt>
      <trkpt lat="43.61204" lon="3.86743">
        <ele>43.96981469295</ele>
        <time>2020-10-10T06:56:25.000Z</time>
      </trkpt>
      <trkpt lat="43.61204" lon="3.86735">
        <ele>43.872443739842</ele>
        <time>2020-10-10T06:56:26.000Z</time>
      </trkpt>
      <trkpt lat="43.61204" lon="3.86726">
        <ele>43.775072786735</ele>
        <time>2020-10-10T06:56:27.000Z</time>
      </trkpt>
      <trkpt lat="43.61205" lon="3.86718">
        <ele>43.677701833628</ele>
        <time>2020-10-10T06:56:28.000Z</time>
      </trkpt>
      <trkpt lat="43.61206" lon="3.8671">
        <ele>43.58033088052</ele>
        <time>2020-10-10T06:56:29.000Z</time>
      </trkpt>
      <trkpt lat="43.61206" lon="3.86702">
        <ele>43.482959927413</ele>
        <time>2020-10-10T06:56:30.000Z</time>
      </trkpt>
      <trkpt lat="43.61206" lon="3.86695">
        <ele>43.385588974305</ele>
        <time>2020-10-10T06:56:31.000Z</time>
      </trkpt>
      <trkpt lat="43.61207" lon="3.86689">
        <ele>43.288218021198</ele>
        <time>2020-10-10T06:56:32.000Z</time>
      </trkpt>
      <trkpt lat="43.61207" lon="3.86684">
        <ele>43.19084706809</ele>
        <time>2020-10-10T06:56:33.000Z</time>
      </trkpt>
      <trkpt lat="43.61207" lon="3.86679">
        <ele>43.093476114983</ele>
        <time>2020-10-10T06:56:34.000Z</time>
      </trkpt>
      <trkpt lat="43.61207" lon="3.86675">
        <ele>42.991778003462</ele>
        <time>2020-10-10T06:56:35.000Z</time>
      </trkpt>
      <trkpt lat="43.61206" lon="3.86671">
        <ele>42.786228090024</ele>
        <time>2020-10-10T06:56:36.000Z</time>
      </trkpt>
      <trkpt lat="43.61205" lon="3.86668">
        <ele>42.580678176585</ele>
        <time>2020-10-10T06:56:37.000Z</time>
      </trkpt>
      <trkpt lat="43.61204" lon="3.86666">
        <ele>42.375128263146</ele>
        <time>2020-10-10T06:56:38.000Z</time>
      </trkpt>
      <trkpt lat="43.61202" lon="3.86663">
        <ele>42.169578349707</ele>
        <time>2020-10-10T06:56:39.000Z</time>
      </trkpt>
      <trkpt lat="43.61201" lon="3.86661">
        <ele>41.964028436268</ele>
        <time>2020-10-10T06:56:40.000Z</time>
      </trkpt>
      <trkpt lat="43.61201" lon="3.86658">
        <ele>41.758478522829</ele>
        <time>2020-10-10T06:56:41.000Z</time>
      </trkpt>
      <trkpt lat="43.612" lon="3.86653">
        <ele>41.347378695952</ele>
        <time>2020-10-10T06:56:43.000Z</time>
      </trkpt>
      <trkpt lat="43.61203" lon="3.86651">
        <ele>40.938184825305</ele>
        <time>2020-10-10T06:56:45.000Z</time>
      </trkpt>
      <trkpt lat="43.61205" lon="3.86651">
        <ele>40.738783094306</ele>
        <time>2020-10-10T06:56:46.000Z</time>
      </trkpt>
      <trkpt lat="43.61209" lon="3.86651">
        <ele>40.33997963231</ele>
        <time>2020-10-10T06:56:48.000Z</time>
      </trkpt>
      <trkpt lat="43.6121" lon="3.8665">
        <ele>40.140577901311</ele>
        <time>2020-10-10T06:56:49.000Z</time>
      </trkpt>
      <trkpt lat="43.61211" lon="3.86647">
        <ele>39.941176170313</ele>
        <time>2020-10-10T06:56:50.000Z</time>
      </trkpt>
      <trkpt lat="43.6121" lon="3.86643">
        <ele>39.741774439314</ele>
        <time>2020-10-10T06:56:51.000Z</time>
      </trkpt>
      <trkpt lat="43.6121" lon="3.86639">
        <ele>39.542372708316</ele>
        <time>2020-10-10T06:56:52.000Z</time>
      </trkpt>
      <trkpt lat="43.61209" lon="3.86635">
        <ele>39.342970977317</ele>
        <time>2020-10-10T06:56:53.000Z</time>
      </trkpt>
      <trkpt lat="43.61209" lon="3.8663">
        <ele>39.143569246319</ele>
        <time>2020-10-10T06:56:54.000Z</time>
      </trkpt>
      <trkpt lat="43.61209" lon="3.86626">
        <ele>39.02726386687</ele>
        <time>2020-10-10T06:56:55.000Z</time>
      </trkpt>
      <trkpt lat="43.61208" lon="3.86621">
        <ele>39.124634819978</ele>
        <time>2020-10-10T06:56:56.000Z</time>
      </trkpt>
      <trkpt lat="43.61207" lon="3.86616">
        <ele>39.222005773085</ele>
        <time>2020-10-10T06:56:57.000Z</time>
      </trkpt>
      <trkpt lat="43.61206" lon="3.86611">
        <ele>39.319376726192</ele>
        <time>2020-10-10T06:56:58.000Z</time>
      </trkpt>
      <trkpt lat="43.61205" lon="3.86605">
        <ele>39.4167476793</ele>
        <time>2020-10-10T06:56:59.000Z</time>
      </trkpt>
      <trkpt lat="43.61203" lon="3.866">
        <ele>39.514118632407</ele>
        <time>2020-10-10T06:57:00.000Z</time>
      </trkpt>
      <trkpt lat="43.61202" lon="3.86594">
        <ele>39.611489585514</ele>
        <time>2020-10-10T06:57:01.000Z</time>
      </trkpt>
      <trkpt lat="43.61201" lon="3.86588">
        <ele>39.708860538622</ele>
        <time>2020-10-10T06:57:02.000Z</time>
      </trkpt>
      <trkpt lat="43.61199" lon="3.86583">
        <ele>39.806231491729</ele>
        <time>2020-10-10T06:57:03.000Z</time>
      </trkpt>
      <trkpt lat="43.61198" lon="3.86577">
        <ele>39.903602444837</ele>
        <time>2020-10-10T06:57:04.000Z</time>
      </trkpt>
      <trkpt lat="43.61196" lon="3.86572">
        <ele>40</ele>
        <time>2020-10-10T06:57:05.000Z</time>
      </trkpt>
      <trkpt lat="43.61194" lon="3.86567">
        <ele>40</ele>
        <time>2020-10-10T06:57:06.000Z</time>
      </trkpt>
      <trkpt lat="43.61191" lon="3.86563">
        <ele>40</ele>
        <time>2020-10-10T06:57:07.000Z</time>
      </trkpt>
      <trkpt lat="43.61189" lon="3.86558">
        <ele>40</ele>
        <time>2020-10-10T06:57:08.000Z</time>
      </trkpt>
      <trkpt lat="43.61187" lon="3.86553">
        <ele>40</ele>
        <time>2020-10-10T06:57:09.000Z</time>
      </trkpt>
      <trkpt lat="43.61185" lon="3.86548">
        <ele>40</ele>
        <time>2020-10-10T06:57:10.000Z</time>
      </trkpt>
      <trkpt lat="43.61184" lon="3.86541">
        <ele>40</ele>
        <time>2020-10-10T06:57:11.000Z</time>
      </trkpt>
      <trkpt lat="43.61184" lon="3.86535">
        <ele>40</ele>
        <time>2020-10-10T06:57:12.000Z</time>
      </trkpt>
      <trkpt lat="43.61184" lon="3.86529">
        <ele>40</ele>
        <time>2020-10-10T06:57:13.000Z</time>
      </trkpt>
      <trkpt lat="43.61185" lon="3.86522">
        <ele>40</ele>
        <time>2020-10-10T06:57:14.000Z</time>
      </trkpt>
      <trkpt lat="43.61186" lon="3.86516">
        <ele>40.06200064</ele>
        <time>2020-10-10T06:57:15.000Z</time>
      </trkpt>
      <trkpt lat="43.61186" lon="3.8651">
        <ele>40.26200064</ele>
        <time>2020-10-10T06:57:16.000Z</time>
      </trkpt>
      <trkpt lat="43.61186" lon="3.86503">
        <ele>40.46200064</ele>
        <time>2020-10-10T06:57:17.000Z</time>
      </trkpt>
      <trkpt lat="43.61186" lon="3.86496">
        <ele>40.66200064</ele>
        <time>2020-10-10T06:57:18.000Z</time>
      </trkpt>
      <trkpt lat="43.61187" lon="3.8649">
        <ele>40.86200064</ele>
        <time>2020-10-10T06:57:19.000Z</time>
      </trkpt>
      <trkpt lat="43.61187" lon="3.86483">
        <ele>41.06200064</ele>
        <time>2020-10-10T06:57:20.000Z</time>
      </trkpt>
      <trkpt lat="43.61188" lon="3.86477">
        <ele>41.26200064</ele>
        <time>2020-10-10T06:57:21.000Z</time>
      </trkpt>
      <trkpt lat="43.61187" lon="3.8647">
        <ele>41.46200064</ele>
        <time>2020-10-10T06:57:22.000Z</time>
      </trkpt>
      <trkpt lat="43.61187" lon="3.86463">
        <ele>41.66200064</ele>
        <time>2020-10-10T06:57:23.000Z</time>
      </trkpt>
      <trkpt lat="43.61187" lon="3.86457">
        <ele>41.86200064</ele>
        <time>2020-10-10T06:57:24.000Z</time>
      </trkpt>
      <trkpt lat="43.61187" lon="3.8645">
        <ele>42.06200064</ele>
        <time>2020-10-10T06:57:25.000Z</time>
      </trkpt>
      <trkpt lat="43.61188" lon="3.86444">
        <ele>42.26200064</ele>
        <time>2020-10-10T06:57:26.000Z</time>
      </trkpt>
      <trkpt lat="43.61188" lon="3.86437">
        <ele>42.46200064</ele>
        <time>2020-10-10T06:57:27.000Z</time>
      </trkpt>
      <trkpt lat="43.61189" lon="3.8643">
        <ele>42.66200064</ele>
        <time>2020-10-10T06:57:28.000Z</time>
      </trkpt>
      <trkpt lat="43.61189" lon="3.86424">
        <ele>42.86200064</ele>
        <time>2020-10-10T06:57:29.000Z</time>
      </trkpt>
      <trkpt lat="43.61189" lon="3.86417">
        <ele>43.06200064</ele>
        <time>2020-10-10T06:57:30.000Z</time>
      </trkpt>
      <trkpt lat="43.61189" lon="3.8641">
        <ele>43.26200064</ele>
        <time>2020-10-10T06:57:31.000Z</time>
      </trkpt>
      <trkpt lat="43.6119" lon="3.86402">
        <ele>43.46200064</ele>
        <time>2020-10-10T06:57:32.000Z</time>
      </trkpt>
      <trkpt lat="43.6119" lon="3.86395">
        <ele>43.66200064</ele>
        <time>2020-10-10T06:57:33.000Z</time>
      </trkpt>
      <trkpt lat="43.6119" lon="3.86389">
        <ele>43.86200064</ele>
        <time>2020-10-10T06:57:34.000Z</time>
      </trkpt>
      <trkpt lat="43.61191" lon="3.86382">
        <ele>44.09300096</ele>
        <time>2020-10-10T06:57:35.000Z</time>
      </trkpt>
      <trkpt lat="43.61192" lon="3.86375">
        <ele>44.39300096</ele>
        <time>2020-10-10T06:57:36.000Z</time>
      </trkpt>
      <trkpt lat="43.61192" lon="3.86367">
        <ele>44.69300096</ele>
        <time>2020-10-10T06:57:37.000Z</time>
      </trkpt>
      <trkpt lat="43.61193" lon="3.8636">
        <ele>44.99300096</ele>
        <time>2020-10-10T06:57:38.000Z</time>
      </trkpt>
      <trkpt lat="43.61193" lon="3.86353">
        <ele>45.29300096</ele>
        <time>2020-10-10T06:57:39.000Z</time>
      </trkpt>
      <trkpt lat="43.61194" lon="3.86346">
        <ele>45.59300096</ele>
        <time>2020-10-10T06:57:40.000Z</time>
      </trkpt>
      <trkpt lat="43.61194" lon="3.86338">
        <ele>45.89300096</ele>
        <time>2020-10-10T06:57:41.000Z</time>
      </trkpt>
      <trkpt lat="43.61195" lon="3.86331">
        <ele>46.19300096</ele>
        <time>2020-10-10T06:57:42.000Z</time>
      </trkpt>
      <trkpt lat="43.61195" lon="3.86324">
        <ele>46.49300096</ele>
        <time>2020-10-10T06:57:43.000Z</time>
      </trkpt>
      <trkpt lat="43.61196" lon="3.86317">
        <ele>46.79300096</ele>
        <time>2020-10-10T06:57:44.000Z</time>
      </trkpt>
      <trkpt lat="43.61196" lon="3.8631">
        <ele>47.09300096</ele>
        <time>2020-10-10T06:57:45.000Z</time>
      </trkpt>
      <trkpt lat="43.61197" lon="3.86302">
        <ele>47.39300096</ele>
        <time>2020-10-10T06:57:46.000Z</time>
      </trkpt>
      <trkpt lat="43.61197" lon="3.86295">
        <ele>47.69300096</ele>
        <time>2020-10-10T06:57:47.000Z</time>
      </trkpt>
      <trkpt lat="43.61198" lon="3.86288">
        <ele>47.99300096</ele>
        <time>2020-10-10T06:57:48.000Z</time>
      </trkpt>
      <trkpt lat="43.61198" lon="3.86281">
        <ele>48.29300096</ele>
        <time>2020-10-10T06:57:49.000Z</time>
      </trkpt>
      <trkpt lat="43.61198" lon="3.86274">
        <ele>48.59300096</ele>
        <time>2020-10-10T06:57:50.000Z</time>
      </trkpt>
      <trkpt lat="43.61198" lon="3.86266">
        <ele>48.89300096</ele>
        <time>2020-10-10T06:57:51.000Z</time>
      </trkpt>
      <trkpt lat="43.61199" lon="3.86259">
        <ele>49.19300096</ele>
        <time>2020-10-10T06:57:52.000Z</time>
      </trkpt>
      <trkpt lat="43.61199" lon="3.86252">
        <ele>49.49300096</ele>
        <time>2020-10-10T06:57:53.000Z</time>
      </trkpt>
      <trkpt lat="43.61199" lon="3.86244">
        <ele>49.79300096</ele>
        <time>2020-10-10T06:57:54.000Z</time>
      </trkpt>
      <trkpt lat="43.61199" lon="3.86237">
        <ele>50</ele>
        <time>2020-10-10T06:57:55.000Z</time>
      </trkpt>
      <trkpt lat="43.612" lon="3.8623">
        <ele>50</ele>
        <time>2020-10-10T06:57:56.000Z</time>
      </trkpt>
      <trkpt lat="43.61201" lon="3.86223">
        <ele>50</ele>
        <time>2020-10-10T06:57:57.000Z</time>
      </trkpt>
      <trkpt lat="43.61201" lon="3.86216">
        <ele>50</ele>
        <time>2020-10-10T06:57:58.000Z</time>
      </trkpt>
      <trkpt lat="43.61202" lon="3.86209">
        <ele>50</ele>
        <time>2020-10-10T06:57:59.000Z</time>
      </trkpt>
      <trkpt lat="43.61203" lon="3.86202">
        <ele>50</ele>
        <time>2020-10-10T06:58:00.000Z</time>
      </trkpt>
      <trkpt lat="43.61204" lon="3.86196">
        <ele>50</ele>
        <time>2020-10-10T06:58:01.000Z</time>
      </trkpt>
      <trkpt lat="43.61205" lon="3.86191">
        <ele>50</ele>
        <time>2020-10-10T06:58:02.000Z</time>
      </trkpt>
      <trkpt lat="43.61205" lon="3.86184">
        <ele>50</ele>
        <time>2020-10-10T06:58:03.000Z</time>
      </trkpt>
      <trkpt lat="43.61205" lon="3.86178">
        <ele>50</ele>
        <time>2020-10-10T06:58:04.000Z</time>
      </trkpt>
      <trkpt lat="43.61206" lon="3.86172">
        <ele>50</ele>
        <time>2020-10-10T06:58:05.000Z</time>
      </trkpt>
      <trkpt lat="43.61206" lon="3.86167">
        <ele>50</ele>
        <time>2020-10-10T06:58:06.000Z</time>
      </trkpt>
      <trkpt lat="43.61207" lon="3.86162">
        <ele>50</ele>
        <time>2020-10-10T06:58:07.000Z</time>
      </trkpt>
      <trkpt lat="43.61208" lon="3.86155">
        <ele>50</ele>
        <time>2020-10-10T06:58:08.000Z</time>
      </trkpt>
      <trkpt lat="43.61208" lon="3.86141">
        <ele>50</ele>
        <time>2020-10-10T06:58:10.000Z</time>
      </trkpt>
      <trkpt lat="43.6121" lon="3.86127">
        <ele>50</ele>
        <time>2020-10-10T06:58:12.000Z</time>
      </trkpt>
      <trkpt lat="43.61212" lon="3.86113">
        <ele>50</ele>
        <time>2020-10-10T06:58:14.000Z</time>
      </trkpt>
      <trkpt lat="43.61213" lon="3.86107">
        <ele>50</ele>
        <time>2020-10-10T06:58:15.000Z</time>
      </trkpt>
      <trkpt lat="43.61215" lon="3.861">
        <ele>50</ele>
        <time>2020-10-10T06:58:16.000Z</time>
      </trkpt>
      <trkpt lat="43.61216" lon="3.86093">
        <ele>50</ele>
        <time>2020-10-10T06:58:17.000Z</time>
      </trkpt>
      <trkpt lat="43.61218" lon="3.86086">
        <ele>50</ele>
        <time>2020-10-10T06:58:18.000Z</time>
      </trkpt>
      <trkpt lat="43.6122" lon="3.8608">
        <ele>50</ele>
        <time>2020-10-10T06:58:19.000Z</time>
      </trkpt>
      <trkpt lat="43.61222" lon="3.86074">
        <ele>50</ele>
        <time>2020-10-10T06:58:20.000Z</time>
      </trkpt>
      <trkpt lat="43.61224" lon="3.86067">
        <ele>50</ele>
        <time>2020-10-10T06:58:21.000Z</time>
      </trkpt>
      <trkpt lat="43.61226" lon="3.86061">
        <ele>50</ele>
        <time>2020-10-10T06:58:22.000Z</time>
      </trkpt>
      <trkpt lat="43.61229" lon="3.86055">
        <ele>50</ele>
        <time>2020-10-10T06:58:23.000Z</time>
      </trkpt>
      <trkpt lat="43.6123" lon="3.86048">
        <ele>50</ele>
        <time>2020-10-10T06:58:24.000Z</time>
      </trkpt>
      <trkpt lat="43.61233" lon="3.86041">
        <ele>50.03100032</ele>
        <time>2020-10-10T06:58:25.000Z</time>
      </trkpt>
      <trkpt lat="43.61235" lon="3.86035">
        <ele>50.13100032</ele>
        <time>2020-10-10T06:58:26.000Z</time>
      </trkpt>
      <trkpt lat="43.61238" lon="3.86028">
        <ele>50.23100032</ele>
        <time>2020-10-10T06:58:27.000Z</time>
      </trkpt>
      <trkpt lat="43.6124" lon="3.86022">
        <ele>50.33100032</ele>
        <time>2020-10-10T06:58:28.000Z</time>
      </trkpt>
      <trkpt lat="43.61243" lon="3.86016">
        <ele>50.43100032</ele>
        <time>2020-10-10T06:58:29.000Z</time>
      </trkpt>
      <trkpt lat="43.61246" lon="3.8601">
        <ele>50.53100032</ele>
        <time>2020-10-10T06:58:30.000Z</time>
      </trkpt>
      <trkpt lat="43.61249" lon="3.86004">
        <ele>50.63100032</ele>
        <time>2020-10-10T06:58:31.000Z</time>
      </trkpt>
      <trkpt lat="43.61251" lon="3.85998">
        <ele>50.73100032</ele>
        <time>2020-10-10T06:58:32.000Z</time>
      </trkpt>
      <trkpt lat="43.61254" lon="3.85992">
        <ele>50.83100032</ele>
        <time>2020-10-10T06:58:33.000Z</time>
      </trkpt>
      <trkpt lat="43.61257" lon="3.85987">
        <ele>50.93100032</ele>
        <time>2020-10-10T06:58:34.000Z</time>
      </trkpt>
      <trkpt lat="43.61261" lon="3.85982">
        <ele>51.060194758714</ele>
        <time>2020-10-10T06:58:35.000Z</time>
      </trkpt>
      <trkpt lat="43.61264" lon="3.85976">
        <ele>51.254369395343</ele>
        <time>2020-10-10T06:58:36.000Z</time>
      </trkpt>
      <trkpt lat="43.61267" lon="3.85971">
        <ele>51.448544031973</ele>
        <time>2020-10-10T06:58:37.000Z</time>
      </trkpt>
      <trkpt lat="43.61271" lon="3.85966">
        <ele>51.642718668602</ele>
        <time>2020-10-10T06:58:38.000Z</time>
      </trkpt>
      <trkpt lat="43.61274" lon="3.85961">
        <ele>51.836893305231</ele>
        <time>2020-10-10T06:58:39.000Z</time>
      </trkpt>
      <trkpt lat="43.61277" lon="3.85956">
        <ele>52.031067941861</ele>
        <time>2020-10-10T06:58:40.000Z</time>
      </trkpt>
      <trkpt lat="43.6128" lon="3.85951">
        <ele>52.22524257849</ele>
        <time>2020-10-10T06:58:41.000Z</time>
      </trkpt>
      <trkpt lat="43.61284" lon="3.85946">
        <ele>52.419417215119</ele>
        <time>2020-10-10T06:58:42.000Z</time>
      </trkpt>
      <trkpt lat="43.61287" lon="3.85941">
        <ele>52.613591851749</ele>
        <time>2020-10-10T06:58:43.000Z</time>
      </trkpt>
      <trkpt lat="43.61291" lon="3.85934">
        <ele>52.807766488378</ele>
        <time>2020-10-10T06:58:44.000Z</time>
      </trkpt>
      <trkpt lat="43.61295" lon="3.85928">
        <ele>53.000998681638</ele>
        <time>2020-10-10T06:58:45.000Z</time>
      </trkpt>
      <trkpt lat="43.61299" lon="3.85923">
        <ele>53.100898813474</ele>
        <time>2020-10-10T06:58:46.000Z</time>
      </trkpt>
      <trkpt lat="43.61302" lon="3.85918">
        <ele>53.20079894531</ele>
        <time>2020-10-10T06:58:47.000Z</time>
      </trkpt>
      <trkpt lat="43.61306" lon="3.85913">
        <ele>53.300699077147</ele>
        <time>2020-10-10T06:58:48.000Z</time>
      </trkpt>
      <trkpt lat="43.6131" lon="3.85909">
        <ele>53.400599208983</ele>
        <time>2020-10-10T06:58:49.000Z</time>
      </trkpt>
      <trkpt lat="43.61314" lon="3.85904">
        <ele>53.500499340819</ele>
        <time>2020-10-10T06:58:50.000Z</time>
      </trkpt>
      <trkpt lat="43.61317" lon="3.859">
        <ele>53.600399472655</ele>
        <time>2020-10-10T06:58:51.000Z</time>
      </trkpt>
      <trkpt lat="43.61321" lon="3.85895">
        <ele>53.700299604491</ele>
        <time>2020-10-10T06:58:52.000Z</time>
      </trkpt>
      <trkpt lat="43.61325" lon="3.85891">
        <ele>53.800199736328</ele>
        <time>2020-10-10T06:58:53.000Z</time>
      </trkpt>
      <trkpt lat="43.61329" lon="3.85886">
        <ele>53.900099868164</ele>
        <time>2020-10-10T06:58:54.000Z</time>
      </trkpt>
      <trkpt lat="43.61333" lon="3.85881">
        <ele>54</ele>
        <time>2020-10-10T06:58:55.000Z</time>
      </trkpt>
      <trkpt lat="43.61337" lon="3.85877">
        <ele>54</ele>
        <time>2020-10-10T06:58:56.000Z</time>
      </trkpt>
      <trkpt lat="43.61341" lon="3.85872">
        <ele>54</ele>
        <time>2020-10-10T06:58:57.000Z</time>
      </trkpt>
      <trkpt lat="43.61344" lon="3.85868">
        <ele>54</ele>
        <time>2020-10-10T06:58:58.000Z</time>
      </trkpt>
      <trkpt lat="43.61348" lon="3.85864">
        <ele>54</ele>
        <time>2020-10-10T06:58:59.000Z</time>
      </trkpt>
      <trkpt lat="43.61351" lon="3.8586">
        <ele>54</ele>
        <time>2020-10-10T06:59:00.000Z</time>
      </trkpt>
      <trkpt lat="43.61355" lon="3.85855">
        <ele>54</ele>
        <time>2020-10-10T06:59:01.000Z</time>
      </trkpt>
      <trkpt lat="43.61359" lon="3.8585">
        <ele>54</ele>
        <time>2020-10-10T06:59:02.000Z</time>
      </trkpt>
      <trkpt lat="43.61363" lon="3.85845">
        <ele>54</ele>
        <time>2020-10-10T06:59:03.000Z</time>
      </trkpt>
      <trkpt lat="43.61367" lon="3.8584">
        <ele>54</ele>
        <time>2020-10-10T06:59:04.000Z</time>
      </trkpt>
      <trkpt lat="43.6137" lon="3.85836">
        <ele>54.002991345008</ele>
        <time>2020-10-10T06:59:05.000Z</time>
      </trkpt>
      <trkpt lat="43.61374" lon="3.85831">
        <ele>54.102692210507</ele>
        <time>2020-10-10T06:59:06.000Z</time>
      </trkpt>
      <trkpt lat="43.61378" lon="3.85827">
        <ele>54.202393076006</ele>
        <time>2020-10-10T06:59:07.000Z</time>
      </trkpt>
      <trkpt lat="43.61382" lon="3.85822">
        <ele>54.302093941505</ele>
        <time>2020-10-10T06:59:08.000Z</time>
      </trkpt>
      <trkpt lat="43.61386" lon="3.85817">
        <ele>54.401794807005</ele>
        <time>2020-10-10T06:59:09.000Z</time>
      </trkpt>
      <trkpt lat="43.6139" lon="3.85813">
        <ele>54.501495672504</ele>
        <time>2020-10-10T06:59:10.000Z</time>
      </trkpt>
      <trkpt lat="43.61393" lon="3.85808">
        <ele>54.601196538003</ele>
        <time>2020-10-10T06:59:11.000Z</time>
      </trkpt>
      <trkpt lat="43.61397" lon="3.85804">
        <ele>54.700897403502</ele>
        <time>2020-10-10T06:59:12.000Z</time>
      </trkpt>
      <trkpt lat="43.61401" lon="3.858">
        <ele>54.800598269001</ele>
        <time>2020-10-10T06:59:13.000Z</time>
      </trkpt>
      <trkpt lat="43.61405" lon="3.85795">
        <ele>54.900299134501</ele>
        <time>2020-10-10T06:59:14.000Z</time>
      </trkpt>
      <trkpt lat="43.61409" lon="3.85791">
        <ele>55</ele>
        <time>2020-10-10T06:59:15.000Z</time>
      </trkpt>
      <trkpt lat="43.61413" lon="3.85787">
        <ele>55.200400930117</ele>
        <time>2020-10-10T06:59:16.000Z</time>
      </trkpt>
      <trkpt lat="43.61416" lon="3.85782">
        <ele>55.400801860234</ele>
        <time>2020-10-10T06:59:17.000Z</time>
      </trkpt>
      <trkpt lat="43.6142" lon="3.85778">
        <ele>55.60120279035</ele>
        <time>2020-10-10T06:59:18.000Z</time>
      </trkpt>
      <trkpt lat="43.61423" lon="3.85773">
        <ele>55.801603720467</ele>
        <time>2020-10-10T06:59:19.000Z</time>
      </trkpt>
      <trkpt lat="43.61427" lon="3.85768">
        <ele>56.002004650584</ele>
        <time>2020-10-10T06:59:20.000Z</time>
      </trkpt>
      <trkpt lat="43.61431" lon="3.85764">
        <ele>56.202405580701</ele>
        <time>2020-10-10T06:59:21.000Z</time>
      </trkpt>
      <trkpt lat="43.61434" lon="3.85759">
        <ele>56.402806510818</ele>
        <time>2020-10-10T06:59:22.000Z</time>
      </trkpt>
      <trkpt lat="43.61438" lon="3.85754">
        <ele>56.603207440935</ele>
        <time>2020-10-10T06:59:23.000Z</time>
      </trkpt>
      <trkpt lat="43.61442" lon="3.8575">
        <ele>56.803608371052</ele>
        <time>2020-10-10T06:59:24.000Z</time>
      </trkpt>
      <trkpt lat="43.61445" lon="3.85746">
        <ele>57.002051937788</ele>
        <time>2020-10-10T06:59:25.000Z</time>
      </trkpt>
      <trkpt lat="43.61449" lon="3.85741">
        <ele>57.10461600669</ele>
        <time>2020-10-10T06:59:26.000Z</time>
      </trkpt>
      <trkpt lat="43.61453" lon="3.85737">
        <ele>57.207180075592</ele>
        <time>2020-10-10T06:59:27.000Z</time>
      </trkpt>
      <trkpt lat="43.61457" lon="3.85732">
        <ele>57.309744144494</ele>
        <time>2020-10-10T06:59:28.000Z</time>
      </trkpt>
      <trkpt lat="43.6146" lon="3.85728">
        <ele>57.412308213396</ele>
        <time>2020-10-10T06:59:29.000Z</time>
      </trkpt>
      <trkpt lat="43.61464" lon="3.85724">
        <ele>57.514872282298</ele>
        <time>2020-10-10T06:59:30.000Z</time>
      </trkpt>
      <trkpt lat="43.61468" lon="3.85719">
        <ele>57.6174363512</ele>
        <time>2020-10-10T06:59:31.000Z</time>
      </trkpt>
      <trkpt lat="43.61472" lon="3.85715">
        <ele>57.720000420102</ele>
        <time>2020-10-10T06:59:32.000Z</time>
      </trkpt>
      <trkpt lat="43.61475" lon="3.8571">
        <ele>57.822564489004</ele>
        <time>2020-10-10T06:59:33.000Z</time>
      </trkpt>
      <trkpt lat="43.61479" lon="3.85706">
        <ele>57.925128557906</ele>
        <time>2020-10-10T06:59:34.000Z</time>
      </trkpt>
      <trkpt lat="43.61483" lon="3.85702">
        <ele>58</ele>
        <time>2020-10-10T06:59:35.000Z</time>
      </trkpt>
      <trkpt lat="43.61486" lon="3.85698">
        <ele>58</ele>
        <time>2020-10-10T06:59:36.000Z</time>
      </trkpt>
      <trkpt lat="43.61489" lon="3.85693">
        <ele>58</ele>
        <time>2020-10-10T06:59:37.000Z</time>
      </trkpt>
      <trkpt lat="43.61493" lon="3.85689">
        <ele>58</ele>
        <time>2020-10-10T06:59:38.000Z</time>
      </trkpt>
      <trkpt lat="43.61496" lon="3.85686">
        <ele>58</ele>
        <time>2020-10-10T06:59:39.000Z</time>
      </trkpt>
      <trkpt lat="43.61499" lon="3.85681">
        <ele>58</ele>
        <time>2020-10-10T06:59:40.000Z</time>
      </trkpt>
      <trkpt lat="43.61503" lon="3.85676">
        <ele>58</ele>
        <time>2020-10-10T06:59:41.000Z</time>
      </trkpt>
      <trkpt lat="43.61506" lon="3.85672">
        <ele>58</ele>
        <time>2020-10-10T06:59:42.000Z</time>
      </trkpt>
      <trkpt lat="43.61509" lon="3.85667">
        <ele>58</ele>
        <time>2020-10-10T06:59:43.000Z</time>
      </trkpt>
      <trkpt lat="43.61512" lon="3.85663">
        <ele>58</ele>
        <time>2020-10-10T06:59:44.000Z</time>
      </trkpt>
      <trkpt lat="43.61515" lon="3.8566">
        <ele>58</ele>
        <time>2020-10-10T06:59:45.000Z</time>
      </trkpt>
      <trkpt lat="43.61518" lon="3.85656">
        <ele>58.096673328348</ele>
        <time>2020-10-10T06:59:46.000Z</time>
      </trkpt>
      <trkpt lat="43.61521" lon="3.85652">
        <ele>58.200623501454</ele>
        <time>2020-10-10T06:59:47.000Z</time>
      </trkpt>
      <trkpt lat="43.61524" lon="3.85648">
        <ele>58.304573674561</ele>
        <time>2020-10-10T06:59:48.000Z</time>
      </trkpt>
      <trkpt lat="43.61528" lon="3.85644">
        <ele>58.408523847667</ele>
        <time>2020-10-10T06:59:49.000Z</time>
      </trkpt>
      <trkpt lat="43.61532" lon="3.8564">
        <ele>58.512474020773</ele>
        <time>2020-10-10T06:59:50.000Z</time>
      </trkpt>
      <trkpt lat="43.61535" lon="3.85637">
        <ele>58.616424193879</ele>
        <time>2020-10-10T06:59:51.000Z</time>
      </trkpt>
      <trkpt lat="43.61538" lon="3.85635">
        <ele>58.720374366985</ele>
        <time>2020-10-10T06:59:52.000Z</time>
      </trkpt>
      <trkpt lat="43.61541" lon="3.85632">
        <ele>58.824324540091</ele>
        <time>2020-10-10T06:59:53.000Z</time>
      </trkpt>
      <trkpt lat="43.61543" lon="3.85629">
        <ele>58.928274713197</ele>
        <time>2020-10-10T06:59:54.000Z</time>
      </trkpt>
      <trkpt lat="43.61546" lon="3.85627">
        <ele>59.03100032</ele>
        <time>2020-10-10T06:59:55.000Z</time>
      </trkpt>
      <trkpt lat="43.61548" lon="3.85625">
        <ele>59.13100032</ele>
        <time>2020-10-10T06:59:56.000Z</time>
      </trkpt>
      <trkpt lat="43.61549" lon="3.85623">
        <ele>59.23100032</ele>
        <time>2020-10-10T06:59:57.000Z</time>
      </trkpt>
      <trkpt lat="43.61551" lon="3.85621">
        <ele>59.33100032</ele>
        <time>2020-10-10T06:59:58.000Z</time>
      </trkpt>
      <trkpt lat="43.61553" lon="3.8562">
        <ele>59.43100032</ele>
        <time>2020-10-10T06:59:59.000Z</time>
      </trkpt>
      <trkpt lat="43.61555" lon="3.85617">
        <ele>59.53100032</ele>
        <time>2020-10-10T07:00:00.000Z</time>
      </trkpt>
      <trkpt lat="43.61557" lon="3.85614">
        <ele>59.63100032</ele>
        <time>2020-10-10T07:00:01.000Z</time>
      </trkpt>
      <trkpt lat="43.61558" lon="3.85611">
        <ele>59.73100032</ele>
        <time>2020-10-10T07:00:02.000Z</time>
      </trkpt>
      <trkpt lat="43.6156" lon="3.85607">
        <ele>59.83100032</ele>
        <time>2020-10-10T07:00:03.000Z</time>
      </trkpt>
      <trkpt lat="43.61563" lon="3.85604">
        <ele>59.93100032</ele>
        <time>2020-10-10T07:00:04.000Z</time>
      </trkpt>
      <trkpt lat="43.61565" lon="3.85602">
        <ele>60.03100032</ele>
        <time>2020-10-10T07:00:05.000Z</time>
      </trkpt>
      <trkpt lat="43.61569" lon="3.85598">
        <ele>60.13100032</ele>
        <time>2020-10-10T07:00:06.000Z</time>
      </trkpt>
      <trkpt lat="43.61572" lon="3.85595">
        <ele>60.23100032</ele>
        <time>2020-10-10T07:00:07.000Z</time>
      </trkpt>
      <trkpt lat="43.61574" lon="3.85592">
        <ele>60.33100032</ele>
        <time>2020-10-10T07:00:08.000Z</time>
      </trkpt>
      <trkpt lat="43.61576" lon="3.85588">
        <ele>60.43100032</ele>
        <time>2020-10-10T07:00:09.000Z</time>
      </trkpt>
      <trkpt lat="43.61579" lon="3.85585">
        <ele>60.53100032</ele>
        <time>2020-10-10T07:00:10.000Z</time>
      </trkpt>
      <trkpt lat="43.61582" lon="3.85581">
        <ele>60.63100032</ele>
        <time>2020-10-10T07:00:11.000Z</time>
      </trkpt>
      <trkpt lat="43.61586" lon="3.85578">
        <ele>60.73100032</ele>
        <time>2020-10-10T07:00:12.000Z</time>
      </trkpt>
      <trkpt lat="43.61589" lon="3.85574">
        <ele>60.83100032</ele>
        <time>2020-10-10T07:00:13.000Z</time>
      </trkpt>
      <trkpt lat="43.61592" lon="3.8557">
        <ele>60.93100032</ele>
        <time>2020-10-10T07:00:14.000Z</time>
      </trkpt>
      <trkpt lat="43.61596" lon="3.85567">
        <ele>61.06200064</ele>
        <time>2020-10-10T07:00:15.000Z</time>
      </trkpt>
      <trkpt lat="43.61599" lon="3.85563">
        <ele>61.26200064</ele>
        <time>2020-10-10T07:00:16.000Z</time>
      </trkpt>
      <trkpt lat="43.61603" lon="3.85559">
        <ele>61.46200064</ele>
        <time>2020-10-10T07:00:17.000Z</time>
      </trkpt>
      <trkpt lat="43.61606" lon="3.85555">
        <ele>61.66200064</ele>
        <time>2020-10-10T07:00:18.000Z</time>
      </trkpt>
      <trkpt lat="43.61609" lon="3.85551">
        <ele>61.86200064</ele>
        <time>2020-10-10T07:00:19.000Z</time>
      </trkpt>
      <trkpt lat="43.61613" lon="3.85547">
        <ele>62.06200064</ele>
        <time>2020-10-10T07:00:20.000Z</time>
      </trkpt>
      <trkpt lat="43.61617" lon="3.85544">
        <ele>62.26200064</ele>
        <time>2020-10-10T07:00:21.000Z</time>
      </trkpt>
      <trkpt lat="43.6162" lon="3.8554">
        <ele>62.46200064</ele>
        <time>2020-10-10T07:00:22.000Z</time>
      </trkpt>
      <trkpt lat="43.61624" lon="3.85536">
        <ele>62.66200064</ele>
        <time>2020-10-10T07:00:23.000Z</time>
      </trkpt>
      <trkpt lat="43.61627" lon="3.85531">
        <ele>62.86200064</ele>
        <time>2020-10-10T07:00:24.000Z</time>
      </trkpt>
      <trkpt lat="43.6163" lon="3.85526">
        <ele>63</ele>
        <time>2020-10-10T07:00:25.000Z</time>
      </trkpt>
      <trkpt lat="43.61633" lon="3.85522">
        <ele>63</ele>
        <time>2020-10-10T07:00:26.000Z</time>
      </trkpt>
      <trkpt lat="43.61636" lon="3.85518">
        <ele>63</ele>
        <time>2020-10-10T07:00:27.000Z</time>
      </trkpt>
      <trkpt lat="43.6164" lon="3.85514">
        <ele>63</ele>
        <time>2020-10-10T07:00:28.000Z</time>
      </trkpt>
      <trkpt lat="43.61643" lon="3.8551">
        <ele>63</ele>
        <time>2020-10-10T07:00:29.000Z</time>
      </trkpt>
      <trkpt lat="43.61647" lon="3.85505">
        <ele>63</ele>
        <time>2020-10-10T07:00:30.000Z</time>
      </trkpt>
      <trkpt lat="43.6165" lon="3.85501">
        <ele>63</ele>
        <time>2020-10-10T07:00:31.000Z</time>
      </trkpt>
      <trkpt lat="43.61654" lon="3.85497">
        <ele>63</ele>
        <time>2020-10-10T07:00:32.000Z</time>
      </trkpt>
      <trkpt lat="43.61658" lon="3.85493">
        <ele>63</ele>
        <time>2020-10-10T07:00:33.000Z</time>
      </trkpt>
      <trkpt lat="43.61662" lon="3.85489">
        <ele>63</ele>
        <time>2020-10-10T07:00:34.000Z</time>
      </trkpt>
      <trkpt lat="43.61665" lon="3.85485">
        <ele>63.09300096</ele>
        <time>2020-10-10T07:00:35.000Z</time>
      </trkpt>
      <trkpt lat="43.61668" lon="3.8548">
        <ele>63.39300096</ele>
        <time>2020-10-10T07:00:36.000Z</time>
      </trkpt>
      <trkpt lat="43.61672" lon="3.85476">
        <ele>63.69300096</ele>
        <time>2020-10-10T07:00:37.000Z</time>
      </trkpt>
      <trkpt lat="43.61676" lon="3.85472">
        <ele>63.99300096</ele>
        <time>2020-10-10T07:00:38.000Z</time>
      </trkpt>
      <trkpt lat="43.61679" lon="3.85467">
        <ele>64.29300096</ele>
        <time>2020-10-10T07:00:39.000Z</time>
      </trkpt>
      <trkpt lat="43.61683" lon="3.85463">
        <ele>64.59300096</ele>
        <time>2020-10-10T07:00:40.000Z</time>
      </trkpt>
      <trkpt lat="43.61686" lon="3.85458">
        <ele>64.89300096</ele>
        <time>2020-10-10T07:00:41.000Z</time>
      </trkpt>
      <trkpt lat="43.6169" lon="3.85454">
        <ele>65.19300096</ele>
        <time>2020-10-10T07:00:42.000Z</time>
      </trkpt>
      <trkpt lat="43.61694" lon="3.8545">
        <ele>65.49300096</ele>
        <time>2020-10-10T07:00:43.000Z</time>
      </trkpt>
      <trkpt lat="43.61697" lon="3.85445">
        <ele>65.79300096</ele>
        <time>2020-10-10T07:00:44.000Z</time>
      </trkpt>
      <trkpt lat="43.61701" lon="3.85441">
        <ele>66.06200064</ele>
        <time>2020-10-10T07:00:45.000Z</time>
      </trkpt>
      <trkpt lat="43.61704" lon="3.85436">
        <ele>66.26200064</ele>
        <time>2020-10-10T07:00:46.000Z</time>
      </trkpt>
      <trkpt lat="43.61707" lon="3.85431">
        <ele>66.46200064</ele>
        <time>2020-10-10T07:00:47.000Z</time>
      </trkpt>
      <trkpt lat="43.6171" lon="3.85425">
        <ele>66.66200064</ele>
        <time>2020-10-10T07:00:48.000Z</time>
      </trkpt>
      <trkpt lat="43.61713" lon="3.85421">
        <ele>66.86200064</ele>
        <time>2020-10-10T07:00:49.000Z</time>
      </trkpt>
      <trkpt lat="43.61717" lon="3.85416">
        <ele>67.06200064</ele>
        <time>2020-10-10T07:00:50.000Z</time>
      </trkpt>
      <trkpt lat="43.61721" lon="3.85412">
        <ele>67.26200064</ele>
        <time>2020-10-10T07:00:51.000Z</time>
      </trkpt>
      <trkpt lat="43.61725" lon="3.85408">
        <ele>67.46200064</ele>
        <time>2020-10-10T07:00:52.000Z</time>
      </trkpt>
      <trkpt lat="43.61729" lon="3.85404">
        <ele>67.66200064</ele>
        <time>2020-10-10T07:00:53.000Z</time>
      </trkpt>
      <trkpt lat="43.61732" lon="3.854">
        <ele>67.86200064</ele>
        <time>2020-10-10T07:00:54.000Z</time>
      </trkpt>
      <trkpt lat="43.61736" lon="3.85395">
        <ele>68.030938423353</ele>
        <time>2020-10-10T07:00:55.000Z</time>
      </trkpt>
      <trkpt lat="43.61739" lon="3.8539">
        <ele>68.13073875881</ele>
        <time>2020-10-10T07:00:56.000Z</time>
      </trkpt>
      <trkpt lat="43.61742" lon="3.85385">
        <ele>68.230539094266</ele>
        <time>2020-10-10T07:00:57.000Z</time>
      </trkpt>
      <trkpt lat="43.61745" lon="3.8538">
        <ele>68.330339429723</ele>
        <time>2020-10-10T07:00:58.000Z</time>
      </trkpt>
      <trkpt lat="43.61748" lon="3.85375">
        <ele>68.43013976518</ele>
        <time>2020-10-10T07:00:59.000Z</time>
      </trkpt>
      <trkpt lat="43.61751" lon="3.85369">
        <ele>68.529940100637</ele>
        <time>2020-10-10T07:01:00.000Z</time>
      </trkpt>
      <trkpt lat="43.61754" lon="3.85364">
        <ele>68.629740436094</ele>
        <time>2020-10-10T07:01:01.000Z</time>
      </trkpt>
      <trkpt lat="43.61757" lon="3.85358">
        <ele>68.729540771551</ele>
        <time>2020-10-10T07:01:02.000Z</time>
      </trkpt>
      <trkpt lat="43.6176" lon="3.85353">
        <ele>68.829341107008</ele>
        <time>2020-10-10T07:01:03.000Z</time>
      </trkpt>
      <trkpt lat="43.61764" lon="3.85348">
        <ele>68.929141442464</ele>
        <time>2020-10-10T07:01:04.000Z</time>
      </trkpt>
      <trkpt lat="43.61769" lon="3.85345">
        <ele>69.029057814225</ele>
        <time>2020-10-10T07:01:05.000Z</time>
      </trkpt>
      <trkpt lat="43.61774" lon="3.85342">
        <ele>69.129258279284</ele>
        <time>2020-10-10T07:01:06.000Z</time>
      </trkpt>
      <trkpt lat="43.61779" lon="3.8534">
        <ele>69.229458744342</ele>
        <time>2020-10-10T07:01:07.000Z</time>
      </trkpt>
      <trkpt lat="43.61785" lon="3.85337">
        <ele>69.329659209401</ele>
        <time>2020-10-10T07:01:08.000Z</time>
      </trkpt>
      <trkpt lat="43.6179" lon="3.85334">
        <ele>69.429859674459</ele>
        <time>2020-10-10T07:01:09.000Z</time>
      </trkpt>
      <trkpt lat="43.61795" lon="3.8533">
        <ele>69.530060139518</ele>
        <time>2020-10-10T07:01:10.000Z</time>
      </trkpt>
      <trkpt lat="43.61801" lon="3.85326">
        <ele>69.630260604576</ele>
        <time>2020-10-10T07:01:11.000Z</time>
      </trkpt>
      <trkpt lat="43.61806" lon="3.85322">
        <ele>69.730461069634</ele>
        <time>2020-10-10T07:01:12.000Z</time>
      </trkpt>
      <trkpt lat="43.61811" lon="3.85318">
        <ele>69.830661534693</ele>
        <time>2020-10-10T07:01:13.000Z</time>
      </trkpt>
      <trkpt lat="43.61816" lon="3.85314">
        <ele>69.930861999751</ele>
        <time>2020-10-10T07:01:14.000Z</time>
      </trkpt>
      <trkpt lat="43.61822" lon="3.8531">
        <ele>69.939863607414</ele>
        <time>2020-10-10T07:01:15.000Z</time>
      </trkpt>
      <trkpt lat="43.61827" lon="3.85306">
        <ele>69.745877246672</ele>
        <time>2020-10-10T07:01:16.000Z</time>
      </trkpt>
      <trkpt lat="43.61832" lon="3.85302">
        <ele>69.551890885931</ele>
        <time>2020-10-10T07:01:17.000Z</time>
      </trkpt>
      <trkpt lat="43.61837" lon="3.85297">
        <ele>69.35790452519</ele>
        <time>2020-10-10T07:01:18.000Z</time>
      </trkpt>
      <trkpt lat="43.61842" lon="3.85293">
        <ele>69.163918164448</ele>
        <time>2020-10-10T07:01:19.000Z</time>
      </trkpt>
      <trkpt lat="43.61847" lon="3.85288">
        <ele>68.969931803707</ele>
        <time>2020-10-10T07:01:20.000Z</time>
      </trkpt>
      <trkpt lat="43.61852" lon="3.85283">
        <ele>68.775945442965</ele>
        <time>2020-10-10T07:01:21.000Z</time>
      </trkpt>
      <trkpt lat="43.61856" lon="3.85278">
        <ele>68.581959082224</ele>
        <time>2020-10-10T07:01:22.000Z</time>
      </trkpt>
      <trkpt lat="43.61861" lon="3.85272">
        <ele>68.387972721483</ele>
        <time>2020-10-10T07:01:23.000Z</time>
      </trkpt>
      <trkpt lat="43.61865" lon="3.85267">
        <ele>68.193986360741</ele>
        <time>2020-10-10T07:01:24.000Z</time>
      </trkpt>
      <trkpt lat="43.6187" lon="3.85261">
        <ele>68</ele>
        <time>2020-10-10T07:01:25.000Z</time>
      </trkpt>
      <trkpt lat="43.61874" lon="3.85255">
        <ele>67.69040237454</ele>
        <time>2020-10-10T07:01:26.000Z</time>
      </trkpt>
      <trkpt lat="43.61878" lon="3.85249">
        <ele>67.380804749079</ele>
        <time>2020-10-10T07:01:27.000Z</time>
      </trkpt>
      <trkpt lat="43.61883" lon="3.85243">
        <ele>67.071207123618</ele>
        <time>2020-10-10T07:01:28.000Z</time>
      </trkpt>
      <trkpt lat="43.61887" lon="3.85237">
        <ele>66.761609498158</ele>
        <time>2020-10-10T07:01:29.000Z</time>
      </trkpt>
      <trkpt lat="43.61891" lon="3.85231">
        <ele>66.452011872697</ele>
        <time>2020-10-10T07:01:30.000Z</time>
      </trkpt>
      <trkpt lat="43.61896" lon="3.85225">
        <ele>66.142414247237</ele>
        <time>2020-10-10T07:01:31.000Z</time>
      </trkpt>
      <trkpt lat="43.619" lon="3.85219">
        <ele>65.832816621776</ele>
        <time>2020-10-10T07:01:32.000Z</time>
      </trkpt>
      <trkpt lat="43.61904" lon="3.85213">
        <ele>65.523218996316</ele>
        <time>2020-10-10T07:01:33.000Z</time>
      </trkpt>
      <trkpt lat="43.61908" lon="3.85207">
        <ele>65.213621370855</ele>
        <time>2020-10-10T07:01:34.000Z</time>
      </trkpt>
      <trkpt lat="43.61913" lon="3.85201">
        <ele>64.90699904</ele>
        <time>2020-10-10T07:01:35.000Z</time>
      </trkpt>
      <trkpt lat="43.61917" lon="3.85194">
        <ele>64.60699904</ele>
        <time>2020-10-10T07:01:36.000Z</time>
      </trkpt>
      <trkpt lat="43.61921" lon="3.85188">
        <ele>64.30699904</ele>
        <time>2020-10-10T07:01:37.000Z</time>
      </trkpt>
      <trkpt lat="43.61925" lon="3.85182">
        <ele>64.00699904</ele>
        <time>2020-10-10T07:01:38.000Z</time>
      </trkpt>
      <trkpt lat="43.61929" lon="3.85175">
        <ele>63.70699904</ele>
        <time>2020-10-10T07:01:39.000Z</time>
      </trkpt>
      <trkpt lat="43.61933" lon="3.85169">
        <ele>63.40699904</ele>
        <time>2020-10-10T07:01:40.000Z</time>
      </trkpt>
      <trkpt lat="43.61938" lon="3.85163">
        <ele>63.10699904</ele>
        <time>2020-10-10T07:01:41.000Z</time>
      </trkpt>
      <trkpt lat="43.61942" lon="3.85157">
        <ele>62.80699904</ele>
        <time>2020-10-10T07:01:42.000Z</time>
      </trkpt>
      <trkpt lat="43.61947" lon="3.85152">
        <ele>62.50699904</ele>
        <time>2020-10-10T07:01:43.000Z</time>
      </trkpt>
      <trkpt lat="43.61952" lon="3.85147">
        <ele>62.20699904</ele>
        <time>2020-10-10T07:01:44.000Z</time>
      </trkpt>
      <trkpt lat="43.61956" lon="3.85141">
        <ele>61.93799936</ele>
        <time>2020-10-10T07:01:45.000Z</time>
      </trkpt>
      <trkpt lat="43.6196" lon="3.85136">
        <ele>61.73799936</ele>
        <time>2020-10-10T07:01:46.000Z</time>
      </trkpt>
      <trkpt lat="43.61964" lon="3.85131">
        <ele>61.53799936</ele>
        <time>2020-10-10T07:01:47.000Z</time>
      </trkpt>
      <trkpt lat="43.61968" lon="3.85126">
        <ele>61.33799936</ele>
        <time>2020-10-10T07:01:48.000Z</time>
      </trkpt>
      <trkpt lat="43.61972" lon="3.85122">
        <ele>61.13799936</ele>
        <time>2020-10-10T07:01:49.000Z</time>
      </trkpt>
      <trkpt lat="43.61975" lon="3.85118">
        <ele>60.93799936</ele>
        <time>2020-10-10T07:01:50.000Z</time>
      </trkpt>
      <trkpt lat="43.61979" lon="3.85113">
        <ele>60.73799936</ele>
        <time>2020-10-10T07:01:51.000Z</time>
      </trkpt>
      <trkpt lat="43.61982" lon="3.85108">
        <ele>60.53799936</ele>
        <time>2020-10-10T07:01:52.000Z</time>
      </trkpt>
      <trkpt lat="43.61985" lon="3.85105">
        <ele>60.33799936</ele>
        <time>2020-10-10T07:01:53.000Z</time>
      </trkpt>
      <trkpt lat="43.61988" lon="3.85102">
        <ele>60.13799936</ele>
        <time>2020-10-10T07:01:54.000Z</time>
      </trkpt>
      <trkpt lat="43.61991" lon="3.851">
        <ele>59.93799936</ele>
        <time>2020-10-10T07:01:55.000Z</time>
      </trkpt>
      <trkpt lat="43.61995" lon="3.85097">
        <ele>59.73799936</ele>
        <time>2020-10-10T07:01:56.000Z</time>
      </trkpt>
      <trkpt lat="43.61997" lon="3.85093">
        <ele>59.53799936</ele>
        <time>2020-10-10T07:01:57.000Z</time>
      </trkpt>
      <trkpt lat="43.62" lon="3.85088">
        <ele>59.33799936</ele>
        <time>2020-10-10T07:01:58.000Z</time>
      </trkpt>
      <trkpt lat="43.62001" lon="3.85083">
        <ele>59.13799936</ele>
        <time>2020-10-10T07:01:59.000Z</time>
      </trkpt>
      <trkpt lat="43.62001" lon="3.85078">
        <ele>58.93799936</ele>
        <time>2020-10-10T07:02:00.000Z</time>
      </trkpt>
      <trkpt lat="43.62002" lon="3.85072">
        <ele>58.73799936</ele>
        <time>2020-10-10T07:02:01.000Z</time>
      </trkpt>
      <trkpt lat="43.62002" lon="3.85067">
        <ele>58.53799936</ele>
        <time>2020-10-10T07:02:02.000Z</time>
      </trkpt>
      <trkpt lat="43.62002" lon="3.85062">
        <ele>58.33799936</ele>
        <time>2020-10-10T07:02:03.000Z</time>
      </trkpt>
      <trkpt lat="43.62003" lon="3.85056">
        <ele>58.13799936</ele>
        <time>2020-10-10T07:02:04.000Z</time>
      </trkpt>
      <trkpt lat="43.62003" lon="3.85051">
        <ele>57.96899968</ele>
        <time>2020-10-10T07:02:05.000Z</time>
      </trkpt>
      <trkpt lat="43.62004" lon="3.85045">
        <ele>57.86899968</ele>
        <time>2020-10-10T07:02:06.000Z</time>
      </trkpt>
      <trkpt lat="43.62006" lon="3.8504">
        <ele>57.76899968</ele>
        <time>2020-10-10T07:02:07.000Z</time>
      </trkpt>
      <trkpt lat="43.62009" lon="3.85035">
        <ele>57.66899968</ele>
        <time>2020-10-10T07:02:08.000Z</time>
      </trkpt>
      <trkpt lat="43.62012" lon="3.8503">
        <ele>57.56899968</ele>
        <time>2020-10-10T07:02:09.000Z</time>
      </trkpt>
      <trkpt lat="43.62015" lon="3.85025">
        <ele>57.46899968</ele>
        <time>2020-10-10T07:02:10.000Z</time>
      </trkpt>
      <trkpt lat="43.62018" lon="3.85019">
        <ele>57.36899968</ele>
        <time>2020-10-10T07:02:11.000Z</time>
      </trkpt>
      <trkpt lat="43.62021" lon="3.85014">
        <ele>57.26899968</ele>
        <time>2020-10-10T07:02:12.000Z</time>
      </trkpt>
      <trkpt lat="43.62024" lon="3.85008">
        <ele>57.16899968</ele>
        <time>2020-10-10T07:02:13.000Z</time>
      </trkpt>
      <trkpt lat="43.62028" lon="3.85002">
        <ele>57.06899968</ele>
        <time>2020-10-10T07:02:14.000Z</time>
      </trkpt>
      <trkpt lat="43.62031" lon="3.84997">
        <ele>57</ele>
        <time>2020-10-10T07:02:15.000Z</time>
      </trkpt>
      <trkpt lat="43.62034" lon="3.84991">
        <ele>57</ele>
        <time>2020-10-10T07:02:16.000Z</time>
      </trkpt>
      <trkpt lat="43.62038" lon="3.84985">
        <ele>57</ele>
        <time>2020-10-10T07:02:17.000Z</time>
      </trkpt>
      <trkpt lat="43.62041" lon="3.84979">
        <ele>57</ele>
        <time>2020-10-10T07:02:18.000Z</time>
      </trkpt>
      <trkpt lat="43.62044" lon="3.84973">
        <ele>57</ele>
        <time>2020-10-10T07:02:19.000Z</time>
      </trkpt>
      <trkpt lat="43.62047" lon="3.84966">
        <ele>57</ele>
        <time>2020-10-10T07:02:20.000Z</time>
      </trkpt>
      <trkpt lat="43.6205" lon="3.8496">
        <ele>57</ele>
        <time>2020-10-10T07:02:21.000Z</time>
      </trkpt>
      <trkpt lat="43.62053" lon="3.84954">
        <ele>57</ele>
        <time>2020-10-10T07:02:22.000Z</time>
      </trkpt>
      <trkpt lat="43.62057" lon="3.84948">
        <ele>57</ele>
        <time>2020-10-10T07:02:23.000Z</time>
      </trkpt>
      <trkpt lat="43.6206" lon="3.84942">
        <ele>57</ele>
        <time>2020-10-10T07:02:24.000Z</time>
      </trkpt>
      <trkpt lat="43.62064" lon="3.84936">
        <ele>56.93799936</ele>
        <time>2020-10-10T07:02:25.000Z</time>
      </trkpt>
      <trkpt lat="43.62068" lon="3.84929">
        <ele>56.73799936</ele>
        <time>2020-10-10T07:02:26.000Z</time>
      </trkpt>
      <trkpt lat="43.62072" lon="3.84923">
        <ele>56.53799936</ele>
        <time>2020-10-10T07:02:27.000Z</time>
      </trkpt>
      <trkpt lat="43.62075" lon="3.84917">
        <ele>56.33799936</ele>
        <time>2020-10-10T07:02:28.000Z</time>
      </trkpt>
      <trkpt lat="43.62079" lon="3.84911">
        <ele>56.13799936</ele>
        <time>2020-10-10T07:02:29.000Z</time>
      </trkpt>
      <trkpt lat="43.62083" lon="3.84904">
        <ele>55.93799936</ele>
        <time>2020-10-10T07:02:30.000Z</time>
      </trkpt>
      <trkpt lat="43.62086" lon="3.84898">
        <ele>55.73799936</ele>
        <time>2020-10-10T07:02:31.000Z</time>
      </trkpt>
      <trkpt lat="43.6209" lon="3.84891">
        <ele>55.53799936</ele>
        <time>2020-10-10T07:02:32.000Z</time>
      </trkpt>
      <trkpt lat="43.62094" lon="3.84884">
        <ele>55.33799936</ele>
        <time>2020-10-10T07:02:33.000Z</time>
      </trkpt>
      <trkpt lat="43.62098" lon="3.84878">
        <ele>55.13799936</ele>
        <time>2020-10-10T07:02:34.000Z</time>
      </trkpt>
      <trkpt lat="43.62102" lon="3.84871">
        <ele>55</ele>
        <time>2020-10-10T07:02:35.000Z</time>
      </trkpt>
      <trkpt lat="43.62105" lon="3.84865">
        <ele>55</ele>
        <time>2020-10-10T07:02:36.000Z</time>
      </trkpt>
      <trkpt lat="43.62109" lon="3.84858">
        <ele>55</ele>
        <time>2020-10-10T07:02:37.000Z</time>
      </trkpt>
      <trkpt lat="43.62113" lon="3.84852">
        <ele>55</ele>
        <time>2020-10-10T07:02:38.000Z</time>
      </trkpt>
      <trkpt lat="43.62117" lon="3.84845">
        <ele>55</ele>
        <time>2020-10-10T07:02:39.000Z</time>
      </trkpt>
      <trkpt lat="43.62121" lon="3.84838">
        <ele>55</ele>
        <time>2020-10-10T07:02:40.000Z</time>
      </trkpt>
      <trkpt lat="43.62125" lon="3.84831">
        <ele>55</ele>
        <time>2020-10-10T07:02:41.000Z</time>
      </trkpt>
      <trkpt lat="43.62128" lon="3.84825">
        <ele>55</ele>
        <time>2020-10-10T07:02:42.000Z</time>
      </trkpt>
      <trkpt lat="43.62131" lon="3.84819">
        <ele>55</ele>
        <time>2020-10-10T07:02:43.000Z</time>
      </trkpt>
      <trkpt lat="43.62135" lon="3.84814">
        <ele>55</ele>
        <time>2020-10-10T07:02:44.000Z</time>
      </trkpt>
      <trkpt lat="43.62138" lon="3.84808">
        <ele>54.939688093385</ele>
        <time>2020-10-10T07:02:45.000Z</time>
      </trkpt>
      <trkpt lat="43.62141" lon="3.84803">
        <ele>54.745135564202</ele>
        <time>2020-10-10T07:02:46.000Z</time>
      </trkpt>
      <trkpt lat="43.62144" lon="3.84798">
        <ele>54.550583035019</ele>
        <time>2020-10-10T07:02:47.000Z</time>
      </trkpt>
      <trkpt lat="43.62148" lon="3.84792">
        <ele>54.356030505837</ele>
        <time>2020-10-10T07:02:48.000Z</time>
      </trkpt>
      <trkpt lat="43.62151" lon="3.84786">
        <ele>54.161477976654</ele>
        <time>2020-10-10T07:02:49.000Z</time>
      </trkpt>
      <trkpt lat="43.62155" lon="3.8478">
        <ele>53.966925447471</ele>
        <time>2020-10-10T07:02:50.000Z</time>
      </trkpt>
      <trkpt lat="43.62158" lon="3.84774">
        <ele>53.772372918288</ele>
        <time>2020-10-10T07:02:51.000Z</time>
      </trkpt>
      <trkpt lat="43.62161" lon="3.84767">
        <ele>53.577820389105</ele>
        <time>2020-10-10T07:02:52.000Z</time>
      </trkpt>
      <trkpt lat="43.62164" lon="3.8476">
        <ele>53.383267859922</ele>
        <time>2020-10-10T07:02:53.000Z</time>
      </trkpt>
      <trkpt lat="43.62166" lon="3.84753">
        <ele>53.188715330739</ele>
        <time>2020-10-10T07:02:54.000Z</time>
      </trkpt>
      <trkpt lat="43.62169" lon="3.84747">
        <ele>52.996913251029</ele>
        <time>2020-10-10T07:02:55.000Z</time>
      </trkpt>
      <trkpt lat="43.62171" lon="3.8474">
        <ele>52.894032592593</ele>
        <time>2020-10-10T07:02:56.000Z</time>
      </trkpt>
      <trkpt lat="43.62173" lon="3.84732">
        <ele>52.791151934156</ele>
        <time>2020-10-10T07:02:57.000Z</time>
      </trkpt>
      <trkpt lat="43.62175" lon="3.84725">
        <ele>52.68827127572</ele>
        <time>2020-10-10T07:02:58.000Z</time>
      </trkpt>
      <trkpt lat="43.62176" lon="3.84718">
        <ele>52.585390617284</ele>
        <time>2020-10-10T07:02:59.000Z</time>
      </trkpt>
      <trkpt lat="43.62178" lon="3.84711">
        <ele>52.482509958848</ele>
        <time>2020-10-10T07:03:00.000Z</time>
      </trkpt>
      <trkpt lat="43.6218" lon="3.84705">
        <ele>52.379629300412</ele>
        <time>2020-10-10T07:03:01.000Z</time>
      </trkpt>
      <trkpt lat="43.62182" lon="3.84698">
        <ele>52.276748641975</ele>
        <time>2020-10-10T07:03:02.000Z</time>
      </trkpt>
      <trkpt lat="43.62184" lon="3.84691">
        <ele>52.173867983539</ele>
        <time>2020-10-10T07:03:03.000Z</time>
      </trkpt>
      <trkpt lat="43.62186" lon="3.84685">
        <ele>52.070987325103</ele>
        <time>2020-10-10T07:03:04.000Z</time>
      </trkpt>
      <trkpt lat="43.62188" lon="3.84678">
        <ele>52.03100032</ele>
        <time>2020-10-10T07:03:05.000Z</time>
      </trkpt>
      <trkpt lat="43.62189" lon="3.84672">
        <ele>52.13100032</ele>
        <time>2020-10-10T07:03:06.000Z</time>
      </trkpt>
      <trkpt lat="43.62191" lon="3.84666">
        <ele>52.23100032</ele>
        <time>2020-10-10T07:03:07.000Z</time>
      </trkpt>
      <trkpt lat="43.62192" lon="3.8466">
        <ele>52.33100032</ele>
        <time>2020-10-10T07:03:08.000Z</time>
      </trkpt>
      <trkpt lat="43.62193" lon="3.84653">
        <ele>52.43100032</ele>
        <time>2020-10-10T07:03:09.000Z</time>
      </trkpt>
      <trkpt lat="43.62195" lon="3.84648">
        <ele>52.53100032</ele>
        <time>2020-10-10T07:03:10.000Z</time>
      </trkpt>
      <trkpt lat="43.62197" lon="3.84642">
        <ele>52.63100032</ele>
        <time>2020-10-10T07:03:11.000Z</time>
      </trkpt>
      <trkpt lat="43.62199" lon="3.84637">
        <ele>52.73100032</ele>
        <time>2020-10-10T07:03:12.000Z</time>
      </trkpt>
      <trkpt lat="43.622" lon="3.84631">
        <ele>52.83100032</ele>
        <time>2020-10-10T07:03:13.000Z</time>
      </trkpt>
      <trkpt lat="43.62201" lon="3.84626">
        <ele>52.93100032</ele>
        <time>2020-10-10T07:03:14.000Z</time>
      </trkpt>
      <trkpt lat="43.62202" lon="3.84621">
        <ele>53</ele>
        <time>2020-10-10T07:03:15.000Z</time>
      </trkpt>
      <trkpt lat="43.62203" lon="3.84616">
        <ele>53</ele>
        <time>2020-10-10T07:03:16.000Z</time>
      </trkpt>
      <trkpt lat="43.62205" lon="3.84612">
        <ele>53</ele>
        <time>2020-10-10T07:03:17.000Z</time>
      </trkpt>
      <trkpt lat="43.62206" lon="3.84607">
        <ele>53</ele>
        <time>2020-10-10T07:03:18.000Z</time>
      </trkpt>
      <trkpt lat="43.62207" lon="3.84602">
        <ele>53</ele>
        <time>2020-10-10T07:03:19.000Z</time>
      </trkpt>
      <trkpt lat="43.62208" lon="3.84598">
        <ele>53</ele>
        <time>2020-10-10T07:03:20.000Z</time>
      </trkpt>
      <trkpt lat="43.62209" lon="3.84593">
        <ele>53</ele>
        <time>2020-10-10T07:03:21.000Z</time>
      </trkpt>
      <trkpt lat="43.62211" lon="3.84588">
        <ele>53</ele>
        <time>2020-10-10T07:03:22.000Z</time>
      </trkpt>
      <trkpt lat="43.62213" lon="3.84583">
        <ele>53</ele>
        <time>2020-10-10T07:03:23.000Z</time>
      </trkpt>
      <trkpt lat="43.62215" lon="3.84579">
        <ele>53</ele>
        <time>2020-10-10T07:03:24.000Z</time>
      </trkpt>
      <trkpt lat="43.62218" lon="3.84574">
        <ele>53.032</ele>
        <time>2020-10-10T07:03:25.000Z</time>
      </trkpt>
      <trkpt lat="43.6222" lon="3.8457">
        <ele>53.132</ele>
        <time>2020-10-10T07:03:26.000Z</time>
      </trkpt>
      <trkpt lat="43.62223" lon="3.84565">
        <ele>53.232</ele>
        <time>2020-10-10T07:03:27.000Z</time>
      </trkpt>
      <trkpt lat="43.62227" lon="3.84561">
        <ele>53.332</ele>
        <time>2020-10-10T07:03:28.000Z</time>
      </trkpt>
      <trkpt lat="43.6223" lon="3.84557">
        <ele>53.432</ele>
        <time>2020-10-10T07:03:29.000Z</time>
      </trkpt>
      <trkpt lat="43.62233" lon="3.84552">
        <ele>53.532</ele>
        <time>2020-10-10T07:03:30.000Z</time>
      </trkpt>
      <trkpt lat="43.62236" lon="3.84548">
        <ele>53.632</ele>
        <time>2020-10-10T07:03:31.000Z</time>
      </trkpt>
      <trkpt lat="43.62239" lon="3.84542">
        <ele>53.732</ele>
        <time>2020-10-10T07:03:32.000Z</time>
      </trkpt>
      <trkpt lat="43.62242" lon="3.84538">
        <ele>53.832</ele>
        <time>2020-10-10T07:03:33.000Z</time>
      </trkpt>
      <trkpt lat="43.62245" lon="3.84532">
        <ele>53.932</ele>
        <time>2020-10-10T07:03:34.000Z</time>
      </trkpt>
      <trkpt lat="43.62248" lon="3.84527">
        <ele>54.095904126563</ele>
        <time>2020-10-10T07:03:35.000Z</time>
      </trkpt>
      <trkpt lat="43.6225" lon="3.84522">
        <ele>54.395604522071</ele>
        <time>2020-10-10T07:03:36.000Z</time>
      </trkpt>
      <trkpt lat="43.62253" lon="3.84517">
        <ele>54.69530491758</ele>
        <time>2020-10-10T07:03:37.000Z</time>
      </trkpt>
      <trkpt lat="43.62257" lon="3.84512">
        <ele>54.995005313089</ele>
        <time>2020-10-10T07:03:38.000Z</time>
      </trkpt>
      <trkpt lat="43.6226" lon="3.84507">
        <ele>55.294705708597</ele>
        <time>2020-10-10T07:03:39.000Z</time>
      </trkpt>
      <trkpt lat="43.62263" lon="3.84502">
        <ele>55.594406104106</ele>
        <time>2020-10-10T07:03:40.000Z</time>
      </trkpt>
      <trkpt lat="43.62267" lon="3.84496">
        <ele>55.894106499615</ele>
        <time>2020-10-10T07:03:41.000Z</time>
      </trkpt>
      <trkpt lat="43.62269" lon="3.84491">
        <ele>56.193806895123</ele>
        <time>2020-10-10T07:03:42.000Z</time>
      </trkpt>
      <trkpt lat="43.62272" lon="3.84485">
        <ele>56.493507290632</ele>
        <time>2020-10-10T07:03:43.000Z</time>
      </trkpt>
      <trkpt lat="43.62274" lon="3.84479">
        <ele>56.79320768614</ele>
        <time>2020-10-10T07:03:44.000Z</time>
      </trkpt>
      <trkpt lat="43.62277" lon="3.84473">
        <ele>57.030969320949</ele>
        <time>2020-10-10T07:03:45.000Z</time>
      </trkpt>
      <trkpt lat="43.62279" lon="3.84467">
        <ele>57.13086932504</ele>
        <time>2020-10-10T07:03:46.000Z</time>
      </trkpt>
      <trkpt lat="43.62282" lon="3.84463">
        <ele>57.230769329132</ele>
        <time>2020-10-10T07:03:47.000Z</time>
      </trkpt>
      <trkpt lat="43.62285" lon="3.84458">
        <ele>57.330669333224</ele>
        <time>2020-10-10T07:03:48.000Z</time>
      </trkpt>
      <trkpt lat="43.62287" lon="3.84454">
        <ele>57.430569337316</ele>
        <time>2020-10-10T07:03:49.000Z</time>
      </trkpt>
      <trkpt lat="43.62289" lon="3.8445">
        <ele>57.530469341408</ele>
        <time>2020-10-10T07:03:50.000Z</time>
      </trkpt>
      <trkpt lat="43.62291" lon="3.84447">
        <ele>57.6303693455</ele>
        <time>2020-10-10T07:03:51.000Z</time>
      </trkpt>
      <trkpt lat="43.62294" lon="3.84443">
        <ele>57.730269349592</ele>
        <time>2020-10-10T07:03:52.000Z</time>
      </trkpt>
      <trkpt lat="43.62297" lon="3.8444">
        <ele>57.830169353684</ele>
        <time>2020-10-10T07:03:53.000Z</time>
      </trkpt>
      <trkpt lat="43.62299" lon="3.84437">
        <ele>57.930069357776</ele>
        <time>2020-10-10T07:03:54.000Z</time>
      </trkpt>
      <trkpt lat="43.62302" lon="3.84433">
        <ele>57.970874389669</ele>
        <time>2020-10-10T07:03:55.000Z</time>
      </trkpt>
      <trkpt lat="43.62304" lon="3.84429">
        <ele>57.873786950703</ele>
        <time>2020-10-10T07:03:56.000Z</time>
      </trkpt>
      <trkpt lat="43.62307" lon="3.84425">
        <ele>57.776699511736</ele>
        <time>2020-10-10T07:03:57.000Z</time>
      </trkpt>
      <trkpt lat="43.6231" lon="3.84421">
        <ele>57.679612072769</ele>
        <time>2020-10-10T07:03:58.000Z</time>
      </trkpt>
      <trkpt lat="43.62313" lon="3.84417">
        <ele>57.582524633802</ele>
        <time>2020-10-10T07:03:59.000Z</time>
      </trkpt>
      <trkpt lat="43.62316" lon="3.84413">
        <ele>57.485437194835</ele>
        <time>2020-10-10T07:04:00.000Z</time>
      </trkpt>
      <trkpt lat="43.62319" lon="3.84409">
        <ele>57.388349755868</ele>
        <time>2020-10-10T07:04:01.000Z</time>
      </trkpt>
      <trkpt lat="43.62322" lon="3.84405">
        <ele>57.291262316901</ele>
        <time>2020-10-10T07:04:02.000Z</time>
      </trkpt>
      <trkpt lat="43.62325" lon="3.84401">
        <ele>57.194174877934</ele>
        <time>2020-10-10T07:04:03.000Z</time>
      </trkpt>
      <trkpt lat="43.62328" lon="3.84397">
        <ele>57.097087438967</ele>
        <time>2020-10-10T07:04:04.000Z</time>
      </trkpt>
      <trkpt lat="43.62331" lon="3.84393">
        <ele>57</ele>
        <time>2020-10-10T07:04:05.000Z</time>
      </trkpt>
      <trkpt lat="43.62334" lon="3.8439">
        <ele>57</ele>
        <time>2020-10-10T07:04:06.000Z</time>
      </trkpt>
      <trkpt lat="43.62337" lon="3.84386">
        <ele>57</ele>
        <time>2020-10-10T07:04:07.000Z</time>
      </trkpt>
      <trkpt lat="43.6234" lon="3.84383">
        <ele>57</ele>
        <time>2020-10-10T07:04:08.000Z</time>
      </trkpt>
      <trkpt lat="43.62343" lon="3.84379">
        <ele>57</ele>
        <time>2020-10-10T07:04:09.000Z</time>
      </trkpt>
      <trkpt lat="43.62345" lon="3.84375">
        <ele>57</ele>
        <time>2020-10-10T07:04:10.000Z</time>
      </trkpt>
      <trkpt lat="43.62348" lon="3.84372">
        <ele>57</ele>
        <time>2020-10-10T07:04:11.000Z</time>
      </trkpt>
      <trkpt lat="43.62351" lon="3.84368">
        <ele>57</ele>
        <time>2020-10-10T07:04:12.000Z</time>
      </trkpt>
      <trkpt lat="43.62353" lon="3.84364">
        <ele>57</ele>
        <time>2020-10-10T07:04:13.000Z</time>
      </trkpt>
      <trkpt lat="43.62355" lon="3.84361">
        <ele>57</ele>
        <time>2020-10-10T07:04:14.000Z</time>
      </trkpt>
      <trkpt lat="43.62357" lon="3.84357">
        <ele>57</ele>
        <time>2020-10-10T07:04:15.000Z</time>
      </trkpt>
      <trkpt lat="43.62358" lon="3.84354">
        <ele>57</ele>
        <time>2020-10-10T07:04:16.000Z</time>
      </trkpt>
      <trkpt lat="43.62359" lon="3.8435">
        <ele>57</ele>
        <time>2020-10-10T07:04:17.000Z</time>
      </trkpt>
      <trkpt lat="43.6236" lon="3.84347">
        <ele>57</ele>
        <time>2020-10-10T07:04:18.000Z</time>
      </trkpt>
      <trkpt lat="43.6236" lon="3.84343">
        <ele>57</ele>
        <time>2020-10-10T07:04:19.000Z</time>
      </trkpt>
      <trkpt lat="43.6236" lon="3.8434">
        <ele>57</ele>
        <time>2020-10-10T07:04:20.000Z</time>
      </trkpt>
      <trkpt lat="43.6236" lon="3.84338">
        <ele>57</ele>
        <time>2020-10-10T07:04:21.000Z</time>
      </trkpt>
      <trkpt lat="43.6236" lon="3.84335">
        <ele>57</ele>
        <time>2020-10-10T07:04:22.000Z</time>
      </trkpt>
      <trkpt lat="43.62359" lon="3.84332">
        <ele>57</ele>
        <time>2020-10-10T07:04:23.000Z</time>
      </trkpt>
      <trkpt lat="43.6236" lon="3.84328">
        <ele>57</ele>
        <time>2020-10-10T07:04:24.000Z</time>
      </trkpt>
      <trkpt lat="43.62361" lon="3.84324">
        <ele>57.024193548387</ele>
        <time>2020-10-10T07:04:25.000Z</time>
      </trkpt>
      <trkpt lat="43.62362" lon="3.84322">
        <ele>57.125</ele>
        <time>2020-10-10T07:04:26.000Z</time>
      </trkpt>
      <trkpt lat="43.62364" lon="3.84319">
        <ele>57.225806451613</ele>
        <time>2020-10-10T07:04:27.000Z</time>
      </trkpt>
      <trkpt lat="43.62366" lon="3.84315">
        <ele>57.326612903226</ele>
        <time>2020-10-10T07:04:28.000Z</time>
      </trkpt>
      <trkpt lat="43.62368" lon="3.84312">
        <ele>57.427419354839</ele>
        <time>2020-10-10T07:04:29.000Z</time>
      </trkpt>
      <trkpt lat="43.62369" lon="3.84308">
        <ele>57.528225806452</ele>
        <time>2020-10-10T07:04:30.000Z</time>
      </trkpt>
      <trkpt lat="43.62371" lon="3.84304">
        <ele>57.629032258064</ele>
        <time>2020-10-10T07:04:31.000Z</time>
      </trkpt>
      <trkpt lat="43.62373" lon="3.84301">
        <ele>57.729838709677</ele>
        <time>2020-10-10T07:04:32.000Z</time>
      </trkpt>
      <trkpt lat="43.62375" lon="3.84297">
        <ele>57.83064516129</ele>
        <time>2020-10-10T07:04:33.000Z</time>
      </trkpt>
      <trkpt lat="43.62377" lon="3.84294">
        <ele>57.931451612903</ele>
        <time>2020-10-10T07:04:34.000Z</time>
      </trkpt>
      <trkpt lat="43.62379" lon="3.8429">
        <ele>58</ele>
        <time>2020-10-10T07:04:35.000Z</time>
      </trkpt>
      <trkpt lat="43.62381" lon="3.84287">
        <ele>58</ele>
        <time>2020-10-10T07:04:36.000Z</time>
      </trkpt>
      <trkpt lat="43.62383" lon="3.84284">
        <ele>58</ele>
        <time>2020-10-10T07:04:37.000Z</time>
      </trkpt>
      <trkpt lat="43.62385" lon="3.84281">
        <ele>58</ele>
        <time>2020-10-10T07:04:38.000Z</time>
      </trkpt>
      <trkpt lat="43.62385" lon="3.84277">
        <ele>58</ele>
        <time>2020-10-10T07:04:39.000Z</time>
      </trkpt>
      <trkpt lat="43.62384" lon="3.84273">
        <ele>58</ele>
        <time>2020-10-10T07:04:40.000Z</time>
      </trkpt>
      <trkpt lat="43.62383" lon="3.8427">
        <ele>58</ele>
        <time>2020-10-10T07:04:41.000Z</time>
      </trkpt>
      <trkpt lat="43.62382" lon="3.84267">
        <ele>58</ele>
        <time>2020-10-10T07:04:42.000Z</time>
      </trkpt>
      <trkpt lat="43.6238" lon="3.84263">
        <ele>58</ele>
        <time>2020-10-10T07:04:43.000Z</time>
      </trkpt>
      <trkpt lat="43.62378" lon="3.8426">
        <ele>58</ele>
        <time>2020-10-10T07:04:44.000Z</time>
      </trkpt>
      <trkpt lat="43.62376" lon="3.84256">
        <ele>58</ele>
        <time>2020-10-10T07:04:45.000Z</time>
      </trkpt>
      <trkpt lat="43.62374" lon="3.84252">
        <ele>58</ele>
        <time>2020-10-10T07:04:46.000Z</time>
      </trkpt>
      <trkpt lat="43.62372" lon="3.84248">
        <ele>58</ele>
        <time>2020-10-10T07:04:47.000Z</time>
      </trkpt>
      <trkpt lat="43.6237" lon="3.84244">
        <ele>58</ele>
        <time>2020-10-10T07:04:48.000Z</time>
      </trkpt>
      <trkpt lat="43.62369" lon="3.84239">
        <ele>58</ele>
        <time>2020-10-10T07:04:49.000Z</time>
      </trkpt>
      <trkpt lat="43.62369" lon="3.84234">
        <ele>58</ele>
        <time>2020-10-10T07:04:50.000Z</time>
      </trkpt>
      <trkpt lat="43.6237" lon="3.8423">
        <ele>58</ele>
        <time>2020-10-10T07:04:51.000Z</time>
      </trkpt>
      <trkpt lat="43.62372" lon="3.84229">
        <ele>58</ele>
        <time>2020-10-10T07:04:52.000Z</time>
      </trkpt>
      <trkpt lat="43.62375" lon="3.84228">
        <ele>58</ele>
        <time>2020-10-10T07:04:53.000Z</time>
      </trkpt>
      <trkpt lat="43.62378" lon="3.84227">
        <ele>58</ele>
        <time>2020-10-10T07:04:54.000Z</time>
      </trkpt>
      <trkpt lat="43.62381" lon="3.84225">
        <ele>58.032</ele>
        <time>2020-10-10T07:04:55.000Z</time>
      </trkpt>
      <trkpt lat="43.62384" lon="3.84223">
        <ele>58.132</ele>
        <time>2020-10-10T07:04:56.000Z</time>
      </trkpt>
      <trkpt lat="43.62387" lon="3.84222">
        <ele>58.232</ele>
        <time>2020-10-10T07:04:57.000Z</time>
      </trkpt>
      <trkpt lat="43.62388" lon="3.84221">
        <ele>58.332</ele>
        <time>2020-10-10T07:04:58.000Z</time>
      </trkpt>
      <trkpt lat="43.62391" lon="3.84218">
        <ele>58.532</ele>
        <time>2020-10-10T07:05:00.000Z</time>
      </trkpt>
      <trkpt lat="43.62391" lon="3.84212">
        <ele>58.732</ele>
        <time>2020-10-10T07:05:02.000Z</time>
      </trkpt>
      <trkpt lat="43.6239" lon="3.84209">
        <ele>58.832</ele>
        <time>2020-10-10T07:05:03.000Z</time>
      </trkpt>
      <trkpt lat="43.62389" lon="3.84205">
        <ele>58.932</ele>
        <time>2020-10-10T07:05:04.000Z</time>
      </trkpt>
      <trkpt lat="43.62389" lon="3.84201">
        <ele>59</ele>
        <time>2020-10-10T07:05:05.000Z</time>
      </trkpt>
      <trkpt lat="43.62388" lon="3.84197">
        <ele>59</ele>
        <time>2020-10-10T07:05:06.000Z</time>
      </trkpt>
      <trkpt lat="43.62387" lon="3.84192">
        <ele>59</ele>
        <time>2020-10-10T07:05:07.000Z</time>
      </trkpt>
      <trkpt lat="43.62387" lon="3.84188">
        <ele>59</ele>
        <time>2020-10-10T07:05:08.000Z</time>
      </trkpt>
      <trkpt lat="43.62386" lon="3.84183">
        <ele>59</ele>
        <time>2020-10-10T07:05:09.000Z</time>
      </trkpt>
      <trkpt lat="43.62385" lon="3.84179">
        <ele>59</ele>
        <time>2020-10-10T07:05:10.000Z</time>
      </trkpt>
      <trkpt lat="43.62384" lon="3.84175">
        <ele>59</ele>
        <time>2020-10-10T07:05:11.000Z</time>
      </trkpt>
      <trkpt lat="43.62383" lon="3.84171">
        <ele>59</ele>
        <time>2020-10-10T07:05:12.000Z</time>
      </trkpt>
      <trkpt lat="43.62383" lon="3.84167">
        <ele>59</ele>
        <time>2020-10-10T07:05:13.000Z</time>
      </trkpt>
      <trkpt lat="43.62383" lon="3.84163">
        <ele>59</ele>
        <time>2020-10-10T07:05:14.000Z</time>
      </trkpt>
      <trkpt lat="43.62384" lon="3.8416">
        <ele>59</ele>
        <time>2020-10-10T07:05:15.000Z</time>
      </trkpt>
      <trkpt lat="43.62385" lon="3.84157">
        <ele>59</ele>
        <time>2020-10-10T07:05:16.000Z</time>
      </trkpt>
      <trkpt lat="43.62386" lon="3.84154">
        <ele>59</ele>
        <time>2020-10-10T07:05:17.000Z</time>
      </trkpt>
      <trkpt lat="43.62387" lon="3.84152">
        <ele>59</ele>
        <time>2020-10-10T07:05:18.000Z</time>
      </trkpt>
      <trkpt lat="43.62386" lon="3.84149">
        <ele>59</ele>
        <time>2020-10-10T07:05:19.000Z</time>
      </trkpt>
      <trkpt lat="43.62385" lon="3.84147">
        <ele>59</ele>
        <time>2020-10-10T07:05:20.000Z</time>
      </trkpt>
      <trkpt lat="43.62382" lon="3.84145">
        <ele>59</ele>
        <time>2020-10-10T07:05:21.000Z</time>
      </trkpt>
      <trkpt lat="43.6238" lon="3.84145">
        <ele>59</ele>
        <time>2020-10-10T07:05:22.000Z</time>
      </trkpt>
      <trkpt lat="43.62377" lon="3.84147">
        <ele>59</ele>
        <time>2020-10-10T07:05:23.000Z</time>
      </trkpt>
      <trkpt lat="43.62376" lon="3.84149">
        <ele>59</ele>
        <time>2020-10-10T07:05:24.000Z</time>
      </trkpt>
      <trkpt lat="43.62374" lon="3.84152">
        <ele>59</ele>
        <time>2020-10-10T07:05:25.000Z</time>
      </trkpt>
      <trkpt lat="43.62372" lon="3.84155">
        <ele>59</ele>
        <time>2020-10-10T07:05:26.000Z</time>
      </trkpt>
      <trkpt lat="43.62369" lon="3.84157">
        <ele>59</ele>
        <time>2020-10-10T07:05:27.000Z</time>
      </trkpt>
      <trkpt lat="43.62367" lon="3.84159">
        <ele>59</ele>
        <time>2020-10-10T07:05:28.000Z</time>
      </trkpt>
      <trkpt lat="43.62366" lon="3.84161">
        <ele>59</ele>
        <time>2020-10-10T07:05:29.000Z</time>
      </trkpt>
      <trkpt lat="43.62365" lon="3.84165">
        <ele>59</ele>
        <time>2020-10-10T07:05:31.000Z</time>
      </trkpt>
      <trkpt lat="43.62365" lon="3.84166">
        <ele>59.002393776182</ele>
        <time>2020-10-10T07:05:36.000Z</time>
      </trkpt>
      <trkpt lat="43.62372" lon="3.84159">
        <ele>66.992842213273</ele>
        <time>2020-10-10T07:12:17.000Z</time>
      </trkpt>
      <trkpt lat="43.62374" lon="3.84159">
        <ele>66.890592791432</ele>
        <time>2020-10-10T07:12:18.000Z</time>
      </trkpt>
      <trkpt lat="43.62376" lon="3.8416">
        <ele>66.788343369591</ele>
        <time>2020-10-10T07:12:19.000Z</time>
      </trkpt>
      <trkpt lat="43.62378" lon="3.84161">
        <ele>66.68609394775</ele>
        <time>2020-10-10T07:12:20.000Z</time>
      </trkpt>
      <trkpt lat="43.62381" lon="3.84162">
        <ele>66.583844525909</ele>
        <time>2020-10-10T07:12:21.000Z</time>
      </trkpt>
      <trkpt lat="43.62384" lon="3.84162">
        <ele>66.481595104069</ele>
        <time>2020-10-10T07:12:22.000Z</time>
      </trkpt>
      <trkpt lat="43.62388" lon="3.8416">
        <ele>66.379345682228</ele>
        <time>2020-10-10T07:12:23.000Z</time>
      </trkpt>
      <trkpt lat="43.62392" lon="3.84156">
        <ele>66.277096260387</ele>
        <time>2020-10-10T07:12:24.000Z</time>
      </trkpt>
      <trkpt lat="43.62396" lon="3.84153">
        <ele>66.174846838546</ele>
        <time>2020-10-10T07:12:25.000Z</time>
      </trkpt>
      <trkpt lat="43.624" lon="3.8415">
        <ele>66.072597416705</ele>
        <time>2020-10-10T07:12:26.000Z</time>
      </trkpt>
      <trkpt lat="43.62405" lon="3.84148">
        <ele>66.058115628451</ele>
        <time>2020-10-10T07:12:27.000Z</time>
      </trkpt>
      <trkpt lat="43.6241" lon="3.84146">
        <ele>66.258516558568</ele>
        <time>2020-10-10T07:12:28.000Z</time>
      </trkpt>
      <trkpt lat="43.62415" lon="3.84144">
        <ele>66.458917488685</ele>
        <time>2020-10-10T07:12:29.000Z</time>
      </trkpt>
      <trkpt lat="43.62419" lon="3.84142">
        <ele>66.659318418801</ele>
        <time>2020-10-10T07:12:30.000Z</time>
      </trkpt>
      <trkpt lat="43.62424" lon="3.8414">
        <ele>66.859719348918</ele>
        <time>2020-10-10T07:12:31.000Z</time>
      </trkpt>
      <trkpt lat="43.62429" lon="3.84138">
        <ele>67.060120279035</ele>
        <time>2020-10-10T07:12:32.000Z</time>
      </trkpt>
      <trkpt lat="43.62434" lon="3.84136">
        <ele>67.260521209152</ele>
        <time>2020-10-10T07:12:33.000Z</time>
      </trkpt>
      <trkpt lat="43.62439" lon="3.84134">
        <ele>67.460922139269</ele>
        <time>2020-10-10T07:12:34.000Z</time>
      </trkpt>
      <trkpt lat="43.62444" lon="3.84132">
        <ele>67.661323069386</ele>
        <time>2020-10-10T07:12:35.000Z</time>
      </trkpt>
      <trkpt lat="43.62449" lon="3.8413">
        <ele>67.861723999502</ele>
        <time>2020-10-10T07:12:36.000Z</time>
      </trkpt>
      <trkpt lat="43.62454" lon="3.84128">
        <ele>68</ele>
        <time>2020-10-10T07:12:37.000Z</time>
      </trkpt>
      <trkpt lat="43.62459" lon="3.84126">
        <ele>68</ele>
        <time>2020-10-10T07:12:38.000Z</time>
      </trkpt>
      <trkpt lat="43.62463" lon="3.84123">
        <ele>68</ele>
        <time>2020-10-10T07:12:39.000Z</time>
      </trkpt>
      <trkpt lat="43.62468" lon="3.84119">
        <ele>68</ele>
        <time>2020-10-10T07:12:40.000Z</time>
      </trkpt>
      <trkpt lat="43.62472" lon="3.84115">
        <ele>68</ele>
        <time>2020-10-10T07:12:41.000Z</time>
      </trkpt>
      <trkpt lat="43.62475" lon="3.84109">
        <ele>68</ele>
        <time>2020-10-10T07:12:42.000Z</time>
      </trkpt>
      <trkpt lat="43.62478" lon="3.84103">
        <ele>68</ele>
        <time>2020-10-10T07:12:43.000Z</time>
      </trkpt>
      <trkpt lat="43.62481" lon="3.84097">
        <ele>68</ele>
        <time>2020-10-10T07:12:44.000Z</time>
      </trkpt>
      <trkpt lat="43.62483" lon="3.8409">
        <ele>68</ele>
        <time>2020-10-10T07:12:45.000Z</time>
      </trkpt>
      <trkpt lat="43.62486" lon="3.84083">
        <ele>68</ele>
        <time>2020-10-10T07:12:46.000Z</time>
      </trkpt>
      <trkpt lat="43.62488" lon="3.84077">
        <ele>68.03100032</ele>
        <time>2020-10-10T07:12:47.000Z</time>
      </trkpt>
      <trkpt lat="43.62491" lon="3.8407">
        <ele>68.13100032</ele>
        <time>2020-10-10T07:12:48.000Z</time>
      </trkpt>
      <trkpt lat="43.62493" lon="3.84064">
        <ele>68.23100032</ele>
        <time>2020-10-10T07:12:49.000Z</time>
      </trkpt>
      <trkpt lat="43.62495" lon="3.84058">
        <ele>68.33100032</ele>
        <time>2020-10-10T07:12:50.000Z</time>
      </trkpt>
      <trkpt lat="43.62498" lon="3.84051">
        <ele>68.43100032</ele>
        <time>2020-10-10T07:12:51.000Z</time>
      </trkpt>
      <trkpt lat="43.625" lon="3.84044">
        <ele>68.53100032</ele>
        <time>2020-10-10T07:12:52.000Z</time>
      </trkpt>
      <trkpt lat="43.62502" lon="3.84038">
        <ele>68.63100032</ele>
        <time>2020-10-10T07:12:53.000Z</time>
      </trkpt>
      <trkpt lat="43.62505" lon="3.84032">
        <ele>68.73100032</ele>
        <time>2020-10-10T07:12:54.000Z</time>
      </trkpt>
      <trkpt lat="43.62508" lon="3.84026">
        <ele>68.83100032</ele>
        <time>2020-10-10T07:12:55.000Z</time>
      </trkpt>
      <trkpt lat="43.62511" lon="3.84021">
        <ele>68.93100032</ele>
        <time>2020-10-10T07:12:56.000Z</time>
      </trkpt>
      <trkpt lat="43.62514" lon="3.84015">
        <ele>69.03000996243</ele>
        <time>2020-10-10T07:12:57.000Z</time>
      </trkpt>
      <trkpt lat="43.62517" lon="3.8401">
        <ele>69.12681529357</ele>
        <time>2020-10-10T07:12:58.000Z</time>
      </trkpt>
      <trkpt lat="43.62518" lon="3.84005">
        <ele>69.223620624709</ele>
        <time>2020-10-10T07:12:59.000Z</time>
      </trkpt>
      <trkpt lat="43.6252" lon="3.84">
        <ele>69.320425955848</ele>
        <time>2020-10-10T07:13:00.000Z</time>
      </trkpt>
      <trkpt lat="43.62522" lon="3.83995">
        <ele>69.417231286987</ele>
        <time>2020-10-10T07:13:01.000Z</time>
      </trkpt>
      <trkpt lat="43.62524" lon="3.83991">
        <ele>69.514036618127</ele>
        <time>2020-10-10T07:13:02.000Z</time>
      </trkpt>
      <trkpt lat="43.62526" lon="3.83987">
        <ele>69.610841949266</ele>
        <time>2020-10-10T07:13:03.000Z</time>
      </trkpt>
      <trkpt lat="43.62528" lon="3.83983">
        <ele>69.707647280405</ele>
        <time>2020-10-10T07:13:04.000Z</time>
      </trkpt>
      <trkpt lat="43.6253" lon="3.83979">
        <ele>69.804452611545</ele>
        <time>2020-10-10T07:13:05.000Z</time>
      </trkpt>
      <trkpt lat="43.62532" lon="3.83974">
        <ele>69.901257942684</ele>
        <time>2020-10-10T07:13:06.000Z</time>
      </trkpt>
      <trkpt lat="43.62534" lon="3.8397">
        <ele>69.998063273823</ele>
        <time>2020-10-10T07:13:07.000Z</time>
      </trkpt>
      <trkpt lat="43.62536" lon="3.83965">
        <ele>70.101239008264</ele>
        <time>2020-10-10T07:13:08.000Z</time>
      </trkpt>
      <trkpt lat="43.62538" lon="3.8396">
        <ele>70.204544793388</ele>
        <time>2020-10-10T07:13:09.000Z</time>
      </trkpt>
      <trkpt lat="43.62539" lon="3.83955">
        <ele>70.307850578512</ele>
        <time>2020-10-10T07:13:10.000Z</time>
      </trkpt>
      <trkpt lat="43.6254" lon="3.8395">
        <ele>70.411156363636</ele>
        <time>2020-10-10T07:13:11.000Z</time>
      </trkpt>
      <trkpt lat="43.6254" lon="3.83944">
        <ele>70.51446214876</ele>
        <time>2020-10-10T07:13:12.000Z</time>
      </trkpt>
      <trkpt lat="43.6254" lon="3.83939">
        <ele>70.617767933884</ele>
        <time>2020-10-10T07:13:13.000Z</time>
      </trkpt>
      <trkpt lat="43.6254" lon="3.83934">
        <ele>70.721073719008</ele>
        <time>2020-10-10T07:13:14.000Z</time>
      </trkpt>
      <trkpt lat="43.62539" lon="3.83929">
        <ele>70.824379504132</ele>
        <time>2020-10-10T07:13:15.000Z</time>
      </trkpt>
      <trkpt lat="43.62538" lon="3.83924">
        <ele>70.927685289256</ele>
        <time>2020-10-10T07:13:16.000Z</time>
      </trkpt>
      <trkpt lat="43.62537" lon="3.83919">
        <ele>71.030029418246</ele>
        <time>2020-10-10T07:13:17.000Z</time>
      </trkpt>
      <trkpt lat="43.62537" lon="3.83914">
        <ele>71.130129614539</ele>
        <time>2020-10-10T07:13:18.000Z</time>
      </trkpt>
      <trkpt lat="43.62537" lon="3.83909">
        <ele>71.230229810831</ele>
        <time>2020-10-10T07:13:19.000Z</time>
      </trkpt>
      <trkpt lat="43.62536" lon="3.83905">
        <ele>71.330330007124</ele>
        <time>2020-10-10T07:13:20.000Z</time>
      </trkpt>
      <trkpt lat="43.62536" lon="3.839">
        <ele>71.430430203416</ele>
        <time>2020-10-10T07:13:21.000Z</time>
      </trkpt>
      <trkpt lat="43.62535" lon="3.83896">
        <ele>71.530530399709</ele>
        <time>2020-10-10T07:13:22.000Z</time>
      </trkpt>
      <trkpt lat="43.62533" lon="3.83892">
        <ele>71.630630596001</ele>
        <time>2020-10-10T07:13:23.000Z</time>
      </trkpt>
      <trkpt lat="43.62532" lon="3.83887">
        <ele>71.730730792294</ele>
        <time>2020-10-10T07:13:24.000Z</time>
      </trkpt>
      <trkpt lat="43.6253" lon="3.83884">
        <ele>71.830830988586</ele>
        <time>2020-10-10T07:13:25.000Z</time>
      </trkpt>
      <trkpt lat="43.62528" lon="3.8388">
        <ele>71.930931184879</ele>
        <time>2020-10-10T07:13:26.000Z</time>
      </trkpt>
      <trkpt lat="43.62527" lon="3.83876">
        <ele>72.06200064</ele>
        <time>2020-10-10T07:13:27.000Z</time>
      </trkpt>
      <trkpt lat="43.62526" lon="3.83871">
        <ele>72.26200064</ele>
        <time>2020-10-10T07:13:28.000Z</time>
      </trkpt>
      <trkpt lat="43.62525" lon="3.83866">
        <ele>72.46200064</ele>
        <time>2020-10-10T07:13:29.000Z</time>
      </trkpt>
      <trkpt lat="43.62525" lon="3.83862">
        <ele>72.66200064</ele>
        <time>2020-10-10T07:13:30.000Z</time>
      </trkpt>
      <trkpt lat="43.62524" lon="3.83857">
        <ele>72.86200064</ele>
        <time>2020-10-10T07:13:31.000Z</time>
      </trkpt>
      <trkpt lat="43.62523" lon="3.83852">
        <ele>73.06200064</ele>
        <time>2020-10-10T07:13:32.000Z</time>
      </trkpt>
      <trkpt lat="43.62522" lon="3.83848">
        <ele>73.26200064</ele>
        <time>2020-10-10T07:13:33.000Z</time>
      </trkpt>
      <trkpt lat="43.6252" lon="3.83843">
        <ele>73.46200064</ele>
        <time>2020-10-10T07:13:34.000Z</time>
      </trkpt>
      <trkpt lat="43.62518" lon="3.83839">
        <ele>73.66200064</ele>
        <time>2020-10-10T07:13:35.000Z</time>
      </trkpt>
      <trkpt lat="43.62515" lon="3.83836">
        <ele>73.86200064</ele>
        <time>2020-10-10T07:13:36.000Z</time>
      </trkpt>
      <trkpt lat="43.62512" lon="3.83834">
        <ele>74.030969320949</ele>
        <time>2020-10-10T07:13:37.000Z</time>
      </trkpt>
      <trkpt lat="43.62508" lon="3.83831">
        <ele>74.13086932504</ele>
        <time>2020-10-10T07:13:38.000Z</time>
      </trkpt>
      <trkpt lat="43.62505" lon="3.83828">
        <ele>74.230769329132</ele>
        <time>2020-10-10T07:13:39.000Z</time>
      </trkpt>
      <trkpt lat="43.62502" lon="3.83826">
        <ele>74.330669333224</ele>
        <time>2020-10-10T07:13:40.000Z</time>
      </trkpt>
      <trkpt lat="43.62499" lon="3.83823">
        <ele>74.430569337316</ele>
        <time>2020-10-10T07:13:41.000Z</time>
      </trkpt>
      <trkpt lat="43.62496" lon="3.83821">
        <ele>74.530469341408</ele>
        <time>2020-10-10T07:13:42.000Z</time>
      </trkpt>
      <trkpt lat="43.62492" lon="3.83818">
        <ele>74.6303693455</ele>
        <time>2020-10-10T07:13:43.000Z</time>
      </trkpt>
      <trkpt lat="43.62489" lon="3.83815">
        <ele>74.730269349592</ele>
        <time>2020-10-10T07:13:44.000Z</time>
      </trkpt>
      <trkpt lat="43.62486" lon="3.83813">
        <ele>74.830169353684</ele>
        <time>2020-10-10T07:13:45.000Z</time>
      </trkpt>
      <trkpt lat="43.62482" lon="3.83811">
        <ele>74.930069357776</ele>
        <time>2020-10-10T07:13:46.000Z</time>
      </trkpt>
      <trkpt lat="43.62479" lon="3.83808">
        <ele>75.030029418246</ele>
        <time>2020-10-10T07:13:47.000Z</time>
      </trkpt>
      <trkpt lat="43.62476" lon="3.83806">
        <ele>75.130129614539</ele>
        <time>2020-10-10T07:13:48.000Z</time>
      </trkpt>
      <trkpt lat="43.62472" lon="3.83804">
        <ele>75.230229810831</ele>
        <time>2020-10-10T07:13:49.000Z</time>
      </trkpt>
      <trkpt lat="43.62469" lon="3.83801">
        <ele>75.330330007124</ele>
        <time>2020-10-10T07:13:50.000Z</time>
      </trkpt>
      <trkpt lat="43.62466" lon="3.83798">
        <ele>75.430430203416</ele>
        <time>2020-10-10T07:13:51.000Z</time>
      </trkpt>
      <trkpt lat="43.62462" lon="3.83796">
        <ele>75.530530399709</ele>
        <time>2020-10-10T07:13:52.000Z</time>
      </trkpt>
      <trkpt lat="43.62459" lon="3.83793">
        <ele>75.630630596001</ele>
        <time>2020-10-10T07:13:53.000Z</time>
      </trkpt>
      <trkpt lat="43.62456" lon="3.8379">
        <ele>75.730730792294</ele>
        <time>2020-10-10T07:13:54.000Z</time>
      </trkpt>
      <trkpt lat="43.62452" lon="3.83787">
        <ele>75.830830988586</ele>
        <time>2020-10-10T07:13:55.000Z</time>
      </trkpt>
      <trkpt lat="43.62449" lon="3.83783">
        <ele>75.930931184879</ele>
        <time>2020-10-10T07:13:56.000Z</time>
      </trkpt>
      <trkpt lat="43.62447" lon="3.83779">
        <ele>76</ele>
        <time>2020-10-10T07:13:57.000Z</time>
      </trkpt>
      <trkpt lat="43.62444" lon="3.83774">
        <ele>76</ele>
        <time>2020-10-10T07:13:58.000Z</time>
      </trkpt>
      <trkpt lat="43.62442" lon="3.8377">
        <ele>76</ele>
        <time>2020-10-10T07:13:59.000Z</time>
      </trkpt>
      <trkpt lat="43.6244" lon="3.83764">
        <ele>76</ele>
        <time>2020-10-10T07:14:00.000Z</time>
      </trkpt>
      <trkpt lat="43.62439" lon="3.83759">
        <ele>76</ele>
        <time>2020-10-10T07:14:01.000Z</time>
      </trkpt>
      <trkpt lat="43.62437" lon="3.83753">
        <ele>76</ele>
        <time>2020-10-10T07:14:02.000Z</time>
      </trkpt>
      <trkpt lat="43.62436" lon="3.83747">
        <ele>76</ele>
        <time>2020-10-10T07:14:03.000Z</time>
      </trkpt>
      <trkpt lat="43.62435" lon="3.8374">
        <ele>76</ele>
        <time>2020-10-10T07:14:04.000Z</time>
      </trkpt>
      <trkpt lat="43.62433" lon="3.83734">
        <ele>76</ele>
        <time>2020-10-10T07:14:05.000Z</time>
      </trkpt>
      <trkpt lat="43.62432" lon="3.83728">
        <ele>76</ele>
        <time>2020-10-10T07:14:06.000Z</time>
      </trkpt>
      <trkpt lat="43.6243" lon="3.83721">
        <ele>76.001030598618</ele>
        <time>2020-10-10T07:14:07.000Z</time>
      </trkpt>
      <trkpt lat="43.62429" lon="3.83715">
        <ele>76.104123450143</ele>
        <time>2020-10-10T07:14:08.000Z</time>
      </trkpt>
      <trkpt lat="43.62428" lon="3.83709">
        <ele>76.207216301668</ele>
        <time>2020-10-10T07:14:09.000Z</time>
      </trkpt>
      <trkpt lat="43.62427" lon="3.83704">
        <ele>76.310309153194</ele>
        <time>2020-10-10T07:14:10.000Z</time>
      </trkpt>
      <trkpt lat="43.62426" lon="3.837">
        <ele>76.413402004719</ele>
        <time>2020-10-10T07:14:11.000Z</time>
      </trkpt>
      <trkpt lat="43.62424" lon="3.83697">
        <ele>76.516494856244</ele>
        <time>2020-10-10T07:14:12.000Z</time>
      </trkpt>
      <trkpt lat="43.62422" lon="3.83695">
        <ele>76.619587707769</ele>
        <time>2020-10-10T07:14:13.000Z</time>
      </trkpt>
      <trkpt lat="43.62419" lon="3.83693">
        <ele>76.722680559294</ele>
        <time>2020-10-10T07:14:14.000Z</time>
      </trkpt>
      <trkpt lat="43.62417" lon="3.83691">
        <ele>76.82577341082</ele>
        <time>2020-10-10T07:14:15.000Z</time>
      </trkpt>
      <trkpt lat="43.62417" lon="3.83688">
        <ele>76.928866262345</ele>
        <time>2020-10-10T07:14:16.000Z</time>
      </trkpt>
      <trkpt lat="43.62417" lon="3.83685">
        <ele>76.96899968</ele>
        <time>2020-10-10T07:14:17.000Z</time>
      </trkpt>
      <trkpt lat="43.62418" lon="3.83682">
        <ele>76.86899968</ele>
        <time>2020-10-10T07:14:18.000Z</time>
      </trkpt>
      <trkpt lat="43.62417" lon="3.83679">
        <ele>76.76899968</ele>
        <time>2020-10-10T07:14:19.000Z</time>
      </trkpt>
      <trkpt lat="43.62416" lon="3.83677">
        <ele>76.56899968</ele>
        <time>2020-10-10T07:14:21.000Z</time>
      </trkpt>
      <trkpt lat="43.62413" lon="3.83677">
        <ele>76.36899968</ele>
        <time>2020-10-10T07:14:23.000Z</time>
      </trkpt>
      <trkpt lat="43.62412" lon="3.83679">
        <ele>76.26899968</ele>
        <time>2020-10-10T07:14:24.000Z</time>
      </trkpt>
      <trkpt lat="43.62412" lon="3.83682">
        <ele>76.16899968</ele>
        <time>2020-10-10T07:14:25.000Z</time>
      </trkpt>
      <trkpt lat="43.62412" lon="3.83686">
        <ele>76.06899968</ele>
        <time>2020-10-10T07:14:26.000Z</time>
      </trkpt>
      <trkpt lat="43.62413" lon="3.83689">
        <ele>76.03100032</ele>
        <time>2020-10-10T07:14:27.000Z</time>
      </trkpt>
      <trkpt lat="43.62415" lon="3.83692">
        <ele>76.13100032</ele>
        <time>2020-10-10T07:14:28.000Z</time>
      </trkpt>
      <trkpt lat="43.62417" lon="3.83695">
        <ele>76.23100032</ele>
        <time>2020-10-10T07:14:29.000Z</time>
      </trkpt>
      <trkpt lat="43.6242" lon="3.83697">
        <ele>76.33100032</ele>
        <time>2020-10-10T07:14:30.000Z</time>
      </trkpt>
      <trkpt lat="43.62422" lon="3.83701">
        <ele>76.43100032</ele>
        <time>2020-10-10T07:14:31.000Z</time>
      </trkpt>
      <trkpt lat="43.62424" lon="3.83706">
        <ele>76.53100032</ele>
        <time>2020-10-10T07:14:32.000Z</time>
      </trkpt>
      <trkpt lat="43.62425" lon="3.83712">
        <ele>76.63100032</ele>
        <time>2020-10-10T07:14:33.000Z</time>
      </trkpt>
      <trkpt lat="43.62426" lon="3.83718">
        <ele>76.73100032</ele>
        <time>2020-10-10T07:14:34.000Z</time>
      </trkpt>
      <trkpt lat="43.62427" lon="3.83725">
        <ele>76.83100032</ele>
        <time>2020-10-10T07:14:35.000Z</time>
      </trkpt>
      <trkpt lat="43.62428" lon="3.83731">
        <ele>76.93100032</ele>
        <time>2020-10-10T07:14:36.000Z</time>
      </trkpt>
      <trkpt lat="43.62429" lon="3.83738">
        <ele>77</ele>
        <time>2020-10-10T07:14:37.000Z</time>
      </trkpt>
      <trkpt lat="43.6243" lon="3.83744">
        <ele>77</ele>
        <time>2020-10-10T07:14:38.000Z</time>
      </trkpt>
      <trkpt lat="43.62431" lon="3.83749">
        <ele>77</ele>
        <time>2020-10-10T07:14:39.000Z</time>
      </trkpt>
      <trkpt lat="43.62432" lon="3.83753">
        <ele>77</ele>
        <time>2020-10-10T07:14:40.000Z</time>
      </trkpt>
      <trkpt lat="43.62433" lon="3.83757">
        <ele>77</ele>
        <time>2020-10-10T07:14:41.000Z</time>
      </trkpt>
      <trkpt lat="43.62435" lon="3.83759">
        <ele>77</ele>
        <time>2020-10-10T07:14:42.000Z</time>
      </trkpt>
      <trkpt lat="43.62437" lon="3.83763">
        <ele>77</ele>
        <time>2020-10-10T07:14:43.000Z</time>
      </trkpt>
      <trkpt lat="43.62439" lon="3.83768">
        <ele>77</ele>
        <time>2020-10-10T07:14:44.000Z</time>
      </trkpt>
      <trkpt lat="43.62441" lon="3.83773">
        <ele>77</ele>
        <time>2020-10-10T07:14:45.000Z</time>
      </trkpt>
      <trkpt lat="43.62443" lon="3.83778">
        <ele>77</ele>
        <time>2020-10-10T07:14:46.000Z</time>
      </trkpt>
      <trkpt lat="43.62446" lon="3.83782">
        <ele>77.03100032</ele>
        <time>2020-10-10T07:14:47.000Z</time>
      </trkpt>
      <trkpt lat="43.62449" lon="3.83787">
        <ele>77.13100032</ele>
        <time>2020-10-10T07:14:48.000Z</time>
      </trkpt>
      <trkpt lat="43.62452" lon="3.83791">
        <ele>77.23100032</ele>
        <time>2020-10-10T07:14:49.000Z</time>
      </trkpt>
      <trkpt lat="43.62455" lon="3.83794">
        <ele>77.33100032</ele>
        <time>2020-10-10T07:14:50.000Z</time>
      </trkpt>
      <trkpt lat="43.62459" lon="3.83797">
        <ele>77.43100032</ele>
        <time>2020-10-10T07:14:51.000Z</time>
      </trkpt>
      <trkpt lat="43.62463" lon="3.838">
        <ele>77.53100032</ele>
        <time>2020-10-10T07:14:52.000Z</time>
      </trkpt>
      <trkpt lat="43.62466" lon="3.83803">
        <ele>77.63100032</ele>
        <time>2020-10-10T07:14:53.000Z</time>
      </trkpt>
      <trkpt lat="43.6247" lon="3.83806">
        <ele>77.73100032</ele>
        <time>2020-10-10T07:14:54.000Z</time>
      </trkpt>
      <trkpt lat="43.62474" lon="3.83809">
        <ele>77.83100032</ele>
        <time>2020-10-10T07:14:55.000Z</time>
      </trkpt>
      <trkpt lat="43.62478" lon="3.83812">
        <ele>77.93100032</ele>
        <time>2020-10-10T07:14:56.000Z</time>
      </trkpt>
      <trkpt lat="43.62481" lon="3.83815">
        <ele>77.93799936</ele>
        <time>2020-10-10T07:14:57.000Z</time>
      </trkpt>
      <trkpt lat="43.62485" lon="3.83818">
        <ele>77.73799936</ele>
        <time>2020-10-10T07:14:58.000Z</time>
      </trkpt>
      <trkpt lat="43.62489" lon="3.83821">
        <ele>77.53799936</ele>
        <time>2020-10-10T07:14:59.000Z</time>
      </trkpt>
      <trkpt lat="43.62492" lon="3.83824">
        <ele>77.33799936</ele>
        <time>2020-10-10T07:15:00.000Z</time>
      </trkpt>
      <trkpt lat="43.62496" lon="3.83827">
        <ele>77.13799936</ele>
        <time>2020-10-10T07:15:01.000Z</time>
      </trkpt>
      <trkpt lat="43.625" lon="3.8383">
        <ele>76.93799936</ele>
        <time>2020-10-10T07:15:02.000Z</time>
      </trkpt>
      <trkpt lat="43.62505" lon="3.83833">
        <ele>76.73799936</ele>
        <time>2020-10-10T07:15:03.000Z</time>
      </trkpt>
      <trkpt lat="43.62509" lon="3.83837">
        <ele>76.53799936</ele>
        <time>2020-10-10T07:15:04.000Z</time>
      </trkpt>
      <trkpt lat="43.62513" lon="3.83841">
        <ele>76.33799936</ele>
        <time>2020-10-10T07:15:05.000Z</time>
      </trkpt>
      <trkpt lat="43.62516" lon="3.83846">
        <ele>76.13799936</ele>
        <time>2020-10-10T07:15:06.000Z</time>
      </trkpt>
      <trkpt lat="43.62519" lon="3.83852">
        <ele>75.96899968</ele>
        <time>2020-10-10T07:15:07.000Z</time>
      </trkpt>
      <trkpt lat="43.62521" lon="3.83858">
        <ele>75.86899968</ele>
        <time>2020-10-10T07:15:08.000Z</time>
      </trkpt>
      <trkpt lat="43.62523" lon="3.83866">
        <ele>75.76899968</ele>
        <time>2020-10-10T07:15:09.000Z</time>
      </trkpt>
      <trkpt lat="43.62525" lon="3.83873">
        <ele>75.66899968</ele>
        <time>2020-10-10T07:15:10.000Z</time>
      </trkpt>
      <trkpt lat="43.62526" lon="3.83881">
        <ele>75.56899968</ele>
        <time>2020-10-10T07:15:11.000Z</time>
      </trkpt>
      <trkpt lat="43.62528" lon="3.83888">
        <ele>75.46899968</ele>
        <time>2020-10-10T07:15:12.000Z</time>
      </trkpt>
      <trkpt lat="43.62529" lon="3.83896">
        <ele>75.36899968</ele>
        <time>2020-10-10T07:15:13.000Z</time>
      </trkpt>
      <trkpt lat="43.6253" lon="3.83904">
        <ele>75.26899968</ele>
        <time>2020-10-10T07:15:14.000Z</time>
      </trkpt>
      <trkpt lat="43.62532" lon="3.83911">
        <ele>75.16899968</ele>
        <time>2020-10-10T07:15:15.000Z</time>
      </trkpt>
      <trkpt lat="43.62533" lon="3.83918">
        <ele>75.06899968</ele>
        <time>2020-10-10T07:15:16.000Z</time>
      </trkpt>
      <trkpt lat="43.62535" lon="3.83926">
        <ele>74.90699904</ele>
        <time>2020-10-10T07:15:17.000Z</time>
      </trkpt>
      <trkpt lat="43.62536" lon="3.83934">
        <ele>74.60699904</ele>
        <time>2020-10-10T07:15:18.000Z</time>
      </trkpt>
      <trkpt lat="43.62537" lon="3.83942">
        <ele>74.30699904</ele>
        <time>2020-10-10T07:15:19.000Z</time>
      </trkpt>
      <trkpt lat="43.62537" lon="3.83951">
        <ele>74.00699904</ele>
        <time>2020-10-10T07:15:20.000Z</time>
      </trkpt>
      <trkpt lat="43.62536" lon="3.8396">
        <ele>73.70699904</ele>
        <time>2020-10-10T07:15:21.000Z</time>
      </trkpt>
      <trkpt lat="43.62533" lon="3.83968">
        <ele>73.40699904</ele>
        <time>2020-10-10T07:15:22.000Z</time>
      </trkpt>
      <trkpt lat="43.62529" lon="3.83975">
        <ele>73.10699904</ele>
        <time>2020-10-10T07:15:23.000Z</time>
      </trkpt>
      <trkpt lat="43.62525" lon="3.83982">
        <ele>72.80699904</ele>
        <time>2020-10-10T07:15:24.000Z</time>
      </trkpt>
      <trkpt lat="43.62522" lon="3.8399">
        <ele>72.50699904</ele>
        <time>2020-10-10T07:15:25.000Z</time>
      </trkpt>
      <trkpt lat="43.62518" lon="3.83998">
        <ele>72.20699904</ele>
        <time>2020-10-10T07:15:26.000Z</time>
      </trkpt>
      <trkpt lat="43.62515" lon="3.84007">
        <ele>71.938061358103</ele>
        <time>2020-10-10T07:15:27.000Z</time>
      </trkpt>
      <trkpt lat="43.62511" lon="3.84016">
        <ele>71.738261349919</ele>
        <time>2020-10-10T07:15:28.000Z</time>
      </trkpt>
      <trkpt lat="43.62507" lon="3.84026">
        <ele>71.538461341735</ele>
        <time>2020-10-10T07:15:29.000Z</time>
      </trkpt>
      <trkpt lat="43.62503" lon="3.84035">
        <ele>71.338661333552</ele>
        <time>2020-10-10T07:15:30.000Z</time>
      </trkpt>
      <trkpt lat="43.62499" lon="3.84045">
        <ele>71.138861325368</ele>
        <time>2020-10-10T07:15:31.000Z</time>
      </trkpt>
      <trkpt lat="43.62495" lon="3.84055">
        <ele>70.939061317184</ele>
        <time>2020-10-10T07:15:32.000Z</time>
      </trkpt>
      <trkpt lat="43.62491" lon="3.84064">
        <ele>70.739261309</ele>
        <time>2020-10-10T07:15:33.000Z</time>
      </trkpt>
      <trkpt lat="43.62488" lon="3.84074">
        <ele>70.539461300816</ele>
        <time>2020-10-10T07:15:34.000Z</time>
      </trkpt>
      <trkpt lat="43.62484" lon="3.84083">
        <ele>70.339661292632</ele>
        <time>2020-10-10T07:15:35.000Z</time>
      </trkpt>
      <trkpt lat="43.6248" lon="3.84092">
        <ele>70.139861284449</ele>
        <time>2020-10-10T07:15:36.000Z</time>
      </trkpt>
      <trkpt lat="43.62476" lon="3.84102">
        <ele>69.883157203341</ele>
        <time>2020-10-10T07:15:37.000Z</time>
      </trkpt>
      <trkpt lat="43.62472" lon="3.84111">
        <ele>69.493672905478</ele>
        <time>2020-10-10T07:15:38.000Z</time>
      </trkpt>
      <trkpt lat="43.62468" lon="3.8412">
        <ele>69.104188607615</ele>
        <time>2020-10-10T07:15:39.000Z</time>
      </trkpt>
      <trkpt lat="43.62461" lon="3.84126">
        <ele>68.714704309753</ele>
        <time>2020-10-10T07:15:40.000Z</time>
      </trkpt>
      <trkpt lat="43.62455" lon="3.8413">
        <ele>68.32522001189</ele>
        <time>2020-10-10T07:15:41.000Z</time>
      </trkpt>
      <trkpt lat="43.62448" lon="3.84133">
        <ele>67.935735714028</ele>
        <time>2020-10-10T07:15:42.000Z</time>
      </trkpt>
      <trkpt lat="43.62441" lon="3.84135">
        <ele>67.546251416165</ele>
        <time>2020-10-10T07:15:43.000Z</time>
      </trkpt>
      <trkpt lat="43.62434" lon="3.84137">
        <ele>67.156767118302</ele>
        <time>2020-10-10T07:15:44.000Z</time>
      </trkpt>
      <trkpt lat="43.62426" lon="3.84139">
        <ele>66.76728282044</ele>
        <time>2020-10-10T07:15:45.000Z</time>
      </trkpt>
      <trkpt lat="43.62419" lon="3.84142">
        <ele>66.377798522577</ele>
        <time>2020-10-10T07:15:46.000Z</time>
      </trkpt>
      <trkpt lat="43.62412" lon="3.84145">
        <ele>65.993826502058</ele>
        <time>2020-10-10T07:15:47.000Z</time>
      </trkpt>
      <trkpt lat="43.62404" lon="3.84148">
        <ele>65.788065185185</ele>
        <time>2020-10-10T07:15:48.000Z</time>
      </trkpt>
      <trkpt lat="43.62397" lon="3.84151">
        <ele>65.582303868313</ele>
        <time>2020-10-10T07:15:49.000Z</time>
      </trkpt>
      <trkpt lat="43.6239" lon="3.84152">
        <ele>65.37654255144</ele>
        <time>2020-10-10T07:15:50.000Z</time>
      </trkpt>
      <trkpt lat="43.62383" lon="3.84151">
        <ele>65.170781234568</ele>
        <time>2020-10-10T07:15:51.000Z</time>
      </trkpt>
      <trkpt lat="43.62378" lon="3.84151">
        <ele>64.965019917695</ele>
        <time>2020-10-10T07:15:52.000Z</time>
      </trkpt>
      <trkpt lat="43.62374" lon="3.84151">
        <ele>64.759258600823</ele>
        <time>2020-10-10T07:15:53.000Z</time>
      </trkpt>
      <trkpt lat="43.62372" lon="3.84153">
        <ele>64.553497283951</ele>
        <time>2020-10-10T07:15:54.000Z</time>
      </trkpt>
      <trkpt lat="43.62371" lon="3.84155">
        <ele>64.347735967078</ele>
        <time>2020-10-10T07:15:55.000Z</time>
      </trkpt>
      <trkpt lat="43.6237" lon="3.84158">
        <ele>64.141974650206</ele>
        <time>2020-10-10T07:15:56.000Z</time>
      </trkpt>
      <trkpt lat="43.62371" lon="3.84161">
        <ele>63.96899968</ele>
        <time>2020-10-10T07:15:57.000Z</time>
      </trkpt>
      <trkpt lat="43.62373" lon="3.84164">
        <ele>63.86899968</ele>
        <time>2020-10-10T07:15:58.000Z</time>
      </trkpt>
      <trkpt lat="43.62375" lon="3.84165">
        <ele>63.76899968</ele>
        <time>2020-10-10T07:15:59.000Z</time>
      </trkpt>
      <trkpt lat="43.62378" lon="3.84165">
        <ele>63.66899968</ele>
        <time>2020-10-10T07:16:00.000Z</time>
      </trkpt>
      <trkpt lat="43.62381" lon="3.84163">
        <ele>63.56899968</ele>
        <time>2020-10-10T07:16:01.000Z</time>
      </trkpt>
      <trkpt lat="43.62383" lon="3.8416">
        <ele>63.46899968</ele>
        <time>2020-10-10T07:16:02.000Z</time>
      </trkpt>
      <trkpt lat="43.62384" lon="3.84156">
        <ele>63.36899968</ele>
        <time>2020-10-10T07:16:03.000Z</time>
      </trkpt>
      <trkpt lat="43.62384" lon="3.84152">
        <ele>63.26899968</ele>
        <time>2020-10-10T07:16:04.000Z</time>
      </trkpt>
      <trkpt lat="43.62383" lon="3.84149">
        <ele>63.16899968</ele>
        <time>2020-10-10T07:16:05.000Z</time>
      </trkpt>
      <trkpt lat="43.62381" lon="3.84147">
        <ele>63.06899968</ele>
        <time>2020-10-10T07:16:06.000Z</time>
      </trkpt>
      <trkpt lat="43.62378" lon="3.84147">
        <ele>63</ele>
        <time>2020-10-10T07:16:07.000Z</time>
      </trkpt>
      <trkpt lat="43.62375" lon="3.84147">
        <ele>63</ele>
        <time>2020-10-10T07:16:08.000Z</time>
      </trkpt>
      <trkpt lat="43.62372" lon="3.84146">
        <ele>63</ele>
        <time>2020-10-10T07:16:09.000Z</time>
      </trkpt>
      <trkpt lat="43.62371" lon="3.84144">
        <ele>63</ele>
        <time>2020-10-10T07:16:10.000Z</time>
      </trkpt>
      <trkpt lat="43.62371" lon="3.84144">
        <ele>63.001774098167</ele>
        <time>2020-10-10T07:16:16.000Z</time>
      </trkpt>
      <trkpt lat="43.62372" lon="3.84143">
        <ele>65.995564754583</ele>
        <time>2020-10-10T07:18:31.000Z</time>
      </trkpt>
      <trkpt lat="43.62372" lon="3.84143">
        <ele>66.00042408821</ele>
        <time>2020-10-10T07:18:38.000Z</time>
      </trkpt>
      <trkpt lat="43.62373" lon="3.84129">
        <ele>67.998939779474</ele>
        <time>2020-10-10T07:24:55.000Z</time>
      </trkpt>
      <trkpt lat="43.62375" lon="3.84127">
        <ele>67.916578359762</ele>
        <time>2020-10-10T07:24:56.000Z</time>
      </trkpt>
      <trkpt lat="43.62377" lon="3.84128">
        <ele>67.810981774536</ele>
        <time>2020-10-10T07:24:57.000Z</time>
      </trkpt>
      <trkpt lat="43.62378" lon="3.8413">
        <ele>67.70538518931</ele>
        <time>2020-10-10T07:24:58.000Z</time>
      </trkpt>
      <trkpt lat="43.62378" lon="3.84132">
        <ele>67.599788604084</ele>
        <time>2020-10-10T07:24:59.000Z</time>
      </trkpt>
      <trkpt lat="43.62376" lon="3.84135">
        <ele>67.494192018858</ele>
        <time>2020-10-10T07:25:00.000Z</time>
      </trkpt>
      <trkpt lat="43.62374" lon="3.84134">
        <ele>67.282998848406</ele>
        <time>2020-10-10T07:25:02.000Z</time>
      </trkpt>
      <trkpt lat="43.62374" lon="3.84129">
        <ele>67.071805677954</ele>
        <time>2020-10-10T07:25:04.000Z</time>
      </trkpt>
      <trkpt lat="43.62377" lon="3.84129">
        <ele>67</ele>
        <time>2020-10-10T07:25:06.000Z</time>
      </trkpt>
      <trkpt lat="43.62377" lon="3.84133">
        <ele>67</ele>
        <time>2020-10-10T07:25:08.000Z</time>
      </trkpt>
      <trkpt lat="43.62375" lon="3.84136">
        <ele>67</ele>
        <time>2020-10-10T07:25:10.000Z</time>
      </trkpt>
      <trkpt lat="43.62373" lon="3.84138">
        <ele>67</ele>
        <time>2020-10-10T07:25:12.000Z</time>
      </trkpt>
      <trkpt lat="43.62371" lon="3.84139">
        <ele>67</ele>
        <time>2020-10-10T07:25:14.000Z</time>
      </trkpt>
      <trkpt lat="43.62372" lon="3.84135">
        <ele>67</ele>
        <time>2020-10-10T07:25:17.000Z</time>
      </trkpt>
      <trkpt lat="43.62375" lon="3.84133">
        <ele>67</ele>
        <time>2020-10-10T07:25:19.000Z</time>
      </trkpt>
      <trkpt lat="43.62376" lon="3.84132">
        <ele>67</ele>
        <time>2020-10-10T07:25:20.000Z</time>
      </trkpt>
      <trkpt lat="43.62378" lon="3.84132">
        <ele>67</ele>
        <time>2020-10-10T07:25:21.000Z</time>
      </trkpt>
      <trkpt lat="43.6238" lon="3.84136">
        <ele>67</ele>
        <time>2020-10-10T07:25:23.000Z</time>
      </trkpt>
      <trkpt lat="43.62379" lon="3.84138">
        <ele>67</ele>
        <time>2020-10-10T07:25:24.000Z</time>
      </trkpt>
      <trkpt lat="43.62377" lon="3.84139">
        <ele>67</ele>
        <time>2020-10-10T07:25:25.000Z</time>
      </trkpt>
      <trkpt lat="43.62374" lon="3.84138">
        <ele>67</ele>
        <time>2020-10-10T07:25:27.000Z</time>
      </trkpt>
      <trkpt lat="43.62372" lon="3.8414">
        <ele>67</ele>
        <time>2020-10-10T07:25:29.000Z</time>
      </trkpt>
      <trkpt lat="43.62372" lon="3.8414">
        <ele>67</ele>
        <time>2020-10-10T07:25:34.000Z</time>
      </trkpt>
      <trkpt lat="43.62378" lon="3.84152">
        <ele>69.988226059655</ele>
        <time>2020-10-10T07:26:25.000Z</time>
      </trkpt>
      <trkpt lat="43.62381" lon="3.84153">
        <ele>69.810981774536</ele>
        <time>2020-10-10T07:26:27.000Z</time>
      </trkpt>
      <trkpt lat="43.62383" lon="3.84153">
        <ele>69.70538518931</ele>
        <time>2020-10-10T07:26:28.000Z</time>
      </trkpt>
      <trkpt lat="43.62386" lon="3.84153">
        <ele>69.599788604084</ele>
        <time>2020-10-10T07:26:29.000Z</time>
      </trkpt>
      <trkpt lat="43.62388" lon="3.84154">
        <ele>69.494192018858</ele>
        <time>2020-10-10T07:26:30.000Z</time>
      </trkpt>
      <trkpt lat="43.62392" lon="3.84155">
        <ele>69.388595433632</ele>
        <time>2020-10-10T07:26:31.000Z</time>
      </trkpt>
      <trkpt lat="43.62395" lon="3.84155">
        <ele>69.282998848406</ele>
        <time>2020-10-10T07:26:32.000Z</time>
      </trkpt>
      <trkpt lat="43.62399" lon="3.84155">
        <ele>69.17740226318</ele>
        <time>2020-10-10T07:26:33.000Z</time>
      </trkpt>
      <trkpt lat="43.62403" lon="3.84154">
        <ele>69.071805677954</ele>
        <time>2020-10-10T07:26:34.000Z</time>
      </trkpt>
      <trkpt lat="43.62407" lon="3.84153">
        <ele>68.968565835086</ele>
        <time>2020-10-10T07:26:35.000Z</time>
      </trkpt>
      <trkpt lat="43.6241" lon="3.84152">
        <ele>68.870334069731</ele>
        <time>2020-10-10T07:26:36.000Z</time>
      </trkpt>
      <trkpt lat="43.62414" lon="3.84151">
        <ele>68.772102304376</ele>
        <time>2020-10-10T07:26:37.000Z</time>
      </trkpt>
      <trkpt lat="43.62418" lon="3.8415">
        <ele>68.67387053902</ele>
        <time>2020-10-10T07:26:38.000Z</time>
      </trkpt>
      <trkpt lat="43.62422" lon="3.84149">
        <ele>68.575638773665</ele>
        <time>2020-10-10T07:26:39.000Z</time>
      </trkpt>
      <trkpt lat="43.62425" lon="3.84147">
        <ele>68.47740700831</ele>
        <time>2020-10-10T07:26:40.000Z</time>
      </trkpt>
      <trkpt lat="43.62429" lon="3.84145">
        <ele>68.379175242955</ele>
        <time>2020-10-10T07:26:41.000Z</time>
      </trkpt>
      <trkpt lat="43.62432" lon="3.84144">
        <ele>68.280943477599</ele>
        <time>2020-10-10T07:26:42.000Z</time>
      </trkpt>
      <trkpt lat="43.62436" lon="3.84142">
        <ele>68.182711712244</ele>
        <time>2020-10-10T07:26:43.000Z</time>
      </trkpt>
      <trkpt lat="43.62439" lon="3.84141">
        <ele>68.084479946889</ele>
        <time>2020-10-10T07:26:44.000Z</time>
      </trkpt>
      <trkpt lat="43.62441" lon="3.8414">
        <ele>67.971517042377</ele>
        <time>2020-10-10T07:26:45.000Z</time>
      </trkpt>
      <trkpt lat="43.62443" lon="3.84139">
        <ele>67.768058044085</ele>
        <time>2020-10-10T07:26:46.000Z</time>
      </trkpt>
      <trkpt lat="43.62445" lon="3.84137">
        <ele>67.564599045794</ele>
        <time>2020-10-10T07:26:47.000Z</time>
      </trkpt>
      <trkpt lat="43.62447" lon="3.84136">
        <ele>67.361140047502</ele>
        <time>2020-10-10T07:26:48.000Z</time>
      </trkpt>
      <trkpt lat="43.62449" lon="3.84135">
        <ele>67.15768104921</ele>
        <time>2020-10-10T07:26:49.000Z</time>
      </trkpt>
      <trkpt lat="43.62451" lon="3.84135">
        <ele>66.954222050919</ele>
        <time>2020-10-10T07:26:50.000Z</time>
      </trkpt>
      <trkpt lat="43.62454" lon="3.84134">
        <ele>66.750763052627</ele>
        <time>2020-10-10T07:26:51.000Z</time>
      </trkpt>
      <trkpt lat="43.62456" lon="3.84134">
        <ele>66.547304054336</ele>
        <time>2020-10-10T07:26:52.000Z</time>
      </trkpt>
      <trkpt lat="43.62458" lon="3.84133">
        <ele>66.343845056044</ele>
        <time>2020-10-10T07:26:53.000Z</time>
      </trkpt>
      <trkpt lat="43.6246" lon="3.84132">
        <ele>66.140386057752</ele>
        <time>2020-10-10T07:26:54.000Z</time>
      </trkpt>
      <trkpt lat="43.62463" lon="3.8413">
        <ele>66</ele>
        <time>2020-10-10T07:26:55.000Z</time>
      </trkpt>
      <trkpt lat="43.62465" lon="3.84127">
        <ele>66</ele>
        <time>2020-10-10T07:26:56.000Z</time>
      </trkpt>
      <trkpt lat="43.62467" lon="3.84124">
        <ele>66</ele>
        <time>2020-10-10T07:26:57.000Z</time>
      </trkpt>
      <trkpt lat="43.62469" lon="3.84121">
        <ele>66</ele>
        <time>2020-10-10T07:26:58.000Z</time>
      </trkpt>
      <trkpt lat="43.62471" lon="3.84117">
        <ele>66</ele>
        <time>2020-10-10T07:26:59.000Z</time>
      </trkpt>
      <trkpt lat="43.62473" lon="3.84114">
        <ele>66</ele>
        <time>2020-10-10T07:27:00.000Z</time>
      </trkpt>
      <trkpt lat="43.62474" lon="3.8411">
        <ele>66</ele>
        <time>2020-10-10T07:27:01.000Z</time>
      </trkpt>
      <trkpt lat="43.62476" lon="3.84106">
        <ele>66</ele>
        <time>2020-10-10T07:27:02.000Z</time>
      </trkpt>
      <trkpt lat="43.62477" lon="3.84103">
        <ele>66</ele>
        <time>2020-10-10T07:27:03.000Z</time>
      </trkpt>
      <trkpt lat="43.62479" lon="3.84099">
        <ele>66</ele>
        <time>2020-10-10T07:27:04.000Z</time>
      </trkpt>
      <trkpt lat="43.6248" lon="3.84096">
        <ele>66.030938423353</ele>
        <time>2020-10-10T07:27:05.000Z</time>
      </trkpt>
      <trkpt lat="43.62482" lon="3.84093">
        <ele>66.13073875881</ele>
        <time>2020-10-10T07:27:06.000Z</time>
      </trkpt>
      <trkpt lat="43.62483" lon="3.8409">
        <ele>66.230539094266</ele>
        <time>2020-10-10T07:27:07.000Z</time>
      </trkpt>
      <trkpt lat="43.62484" lon="3.84086">
        <ele>66.330339429723</ele>
        <time>2020-10-10T07:27:08.000Z</time>
      </trkpt>
      <trkpt lat="43.62486" lon="3.84083">
        <ele>66.43013976518</ele>
        <time>2020-10-10T07:27:09.000Z</time>
      </trkpt>
      <trkpt lat="43.62487" lon="3.8408">
        <ele>66.529940100637</ele>
        <time>2020-10-10T07:27:10.000Z</time>
      </trkpt>
      <trkpt lat="43.62489" lon="3.84077">
        <ele>66.629740436094</ele>
        <time>2020-10-10T07:27:11.000Z</time>
      </trkpt>
      <trkpt lat="43.6249" lon="3.84074">
        <ele>66.729540771551</ele>
        <time>2020-10-10T07:27:12.000Z</time>
      </trkpt>
      <trkpt lat="43.62492" lon="3.84071">
        <ele>66.829341107008</ele>
        <time>2020-10-10T07:27:13.000Z</time>
      </trkpt>
      <trkpt lat="43.62493" lon="3.84068">
        <ele>66.929141442464</ele>
        <time>2020-10-10T07:27:14.000Z</time>
      </trkpt>
      <trkpt lat="43.62494" lon="3.84065">
        <ele>67</ele>
        <time>2020-10-10T07:27:15.000Z</time>
      </trkpt>
      <trkpt lat="43.62496" lon="3.84062">
        <ele>67</ele>
        <time>2020-10-10T07:27:16.000Z</time>
      </trkpt>
      <trkpt lat="43.62497" lon="3.84058">
        <ele>67</ele>
        <time>2020-10-10T07:27:17.000Z</time>
      </trkpt>
      <trkpt lat="43.62498" lon="3.84055">
        <ele>67</ele>
        <time>2020-10-10T07:27:18.000Z</time>
      </trkpt>
      <trkpt lat="43.62499" lon="3.84051">
        <ele>67</ele>
        <time>2020-10-10T07:27:19.000Z</time>
      </trkpt>
      <trkpt lat="43.625" lon="3.84048">
        <ele>67</ele>
        <time>2020-10-10T07:27:20.000Z</time>
      </trkpt>
      <trkpt lat="43.625" lon="3.84044">
        <ele>67</ele>
        <time>2020-10-10T07:27:21.000Z</time>
      </trkpt>
      <trkpt lat="43.62502" lon="3.8404">
        <ele>67</ele>
        <time>2020-10-10T07:27:22.000Z</time>
      </trkpt>
      <trkpt lat="43.62503" lon="3.84036">
        <ele>67</ele>
        <time>2020-10-10T07:27:23.000Z</time>
      </trkpt>
      <trkpt lat="43.62505" lon="3.84033">
        <ele>67</ele>
        <time>2020-10-10T07:27:24.000Z</time>
      </trkpt>
      <trkpt lat="43.62507" lon="3.84029">
        <ele>67.032</ele>
        <time>2020-10-10T07:27:25.000Z</time>
      </trkpt>
      <trkpt lat="43.62508" lon="3.84026">
        <ele>67.132</ele>
        <time>2020-10-10T07:27:26.000Z</time>
      </trkpt>
      <trkpt lat="43.6251" lon="3.84022">
        <ele>67.232</ele>
        <time>2020-10-10T07:27:27.000Z</time>
      </trkpt>
      <trkpt lat="43.62511" lon="3.84019">
        <ele>67.332</ele>
        <time>2020-10-10T07:27:28.000Z</time>
      </trkpt>
      <trkpt lat="43.62513" lon="3.84016">
        <ele>67.432</ele>
        <time>2020-10-10T07:27:29.000Z</time>
      </trkpt>
      <trkpt lat="43.62515" lon="3.84013">
        <ele>67.532</ele>
        <time>2020-10-10T07:27:30.000Z</time>
      </trkpt>
      <trkpt lat="43.62516" lon="3.8401">
        <ele>67.632</ele>
        <time>2020-10-10T07:27:31.000Z</time>
      </trkpt>
      <trkpt lat="43.62517" lon="3.84007">
        <ele>67.732</ele>
        <time>2020-10-10T07:27:32.000Z</time>
      </trkpt>
      <trkpt lat="43.62518" lon="3.84005">
        <ele>67.832</ele>
        <time>2020-10-10T07:27:33.000Z</time>
      </trkpt>
      <trkpt lat="43.62519" lon="3.84002">
        <ele>67.932</ele>
        <time>2020-10-10T07:27:34.000Z</time>
      </trkpt>
      <trkpt lat="43.6252" lon="3.84">
        <ele>68</ele>
        <time>2020-10-10T07:27:35.000Z</time>
      </trkpt>
      <trkpt lat="43.6252" lon="3.83997">
        <ele>68</ele>
        <time>2020-10-10T07:27:36.000Z</time>
      </trkpt>
      <trkpt lat="43.62521" lon="3.83995">
        <ele>68</ele>
        <time>2020-10-10T07:27:37.000Z</time>
      </trkpt>
      <trkpt lat="43.62523" lon="3.83992">
        <ele>68</ele>
        <time>2020-10-10T07:27:38.000Z</time>
      </trkpt>
      <trkpt lat="43.62524" lon="3.8399">
        <ele>68</ele>
        <time>2020-10-10T07:27:39.000Z</time>
      </trkpt>
      <trkpt lat="43.62525" lon="3.83987">
        <ele>68</ele>
        <time>2020-10-10T07:27:40.000Z</time>
      </trkpt>
      <trkpt lat="43.62526" lon="3.83985">
        <ele>68</ele>
        <time>2020-10-10T07:27:41.000Z</time>
      </trkpt>
      <trkpt lat="43.62527" lon="3.83982">
        <ele>68</ele>
        <time>2020-10-10T07:27:42.000Z</time>
      </trkpt>
      <trkpt lat="43.62528" lon="3.8398">
        <ele>68</ele>
        <time>2020-10-10T07:27:43.000Z</time>
      </trkpt>
      <trkpt lat="43.6253" lon="3.83977">
        <ele>68</ele>
        <time>2020-10-10T07:27:44.000Z</time>
      </trkpt>
      <trkpt lat="43.62531" lon="3.83975">
        <ele>68.060118996469</ele>
        <time>2020-10-10T07:27:45.000Z</time>
      </trkpt>
      <trkpt lat="43.62533" lon="3.83973">
        <ele>68.260519926586</ele>
        <time>2020-10-10T07:27:46.000Z</time>
      </trkpt>
      <trkpt lat="43.62535" lon="3.8397">
        <ele>68.460920856703</ele>
        <time>2020-10-10T07:27:47.000Z</time>
      </trkpt>
      <trkpt lat="43.62536" lon="3.83968">
        <ele>68.66132178682</ele>
        <time>2020-10-10T07:27:48.000Z</time>
      </trkpt>
      <trkpt lat="43.62537" lon="3.83965">
        <ele>68.861722716936</ele>
        <time>2020-10-10T07:27:49.000Z</time>
      </trkpt>
      <trkpt lat="43.62539" lon="3.83961">
        <ele>69.062123647053</ele>
        <time>2020-10-10T07:27:50.000Z</time>
      </trkpt>
      <trkpt lat="43.6254" lon="3.83957">
        <ele>69.26252457717</ele>
        <time>2020-10-10T07:27:51.000Z</time>
      </trkpt>
      <trkpt lat="43.6254" lon="3.83954">
        <ele>69.462925507287</ele>
        <time>2020-10-10T07:27:52.000Z</time>
      </trkpt>
      <trkpt lat="43.62541" lon="3.8395">
        <ele>69.663326437404</ele>
        <time>2020-10-10T07:27:53.000Z</time>
      </trkpt>
      <trkpt lat="43.62541" lon="3.83946">
        <ele>69.863727367521</ele>
        <time>2020-10-10T07:27:54.000Z</time>
      </trkpt>
      <trkpt lat="43.62541" lon="3.83942">
        <ele>70.062196326436</ele>
        <time>2020-10-10T07:27:55.000Z</time>
      </trkpt>
      <trkpt lat="43.6254" lon="3.83939">
        <ele>70.256559846549</ele>
        <time>2020-10-10T07:27:56.000Z</time>
      </trkpt>
      <trkpt lat="43.6254" lon="3.83935">
        <ele>70.450923366662</ele>
        <time>2020-10-10T07:27:57.000Z</time>
      </trkpt>
      <trkpt lat="43.62539" lon="3.83931">
        <ele>70.645286886775</ele>
        <time>2020-10-10T07:27:58.000Z</time>
      </trkpt>
      <trkpt lat="43.62538" lon="3.83928">
        <ele>70.839650406888</ele>
        <time>2020-10-10T07:27:59.000Z</time>
      </trkpt>
      <trkpt lat="43.62538" lon="3.83925">
        <ele>71.034013927001</ele>
        <time>2020-10-10T07:28:00.000Z</time>
      </trkpt>
      <trkpt lat="43.62537" lon="3.83922">
        <ele>71.228377447114</ele>
        <time>2020-10-10T07:28:01.000Z</time>
      </trkpt>
      <trkpt lat="43.62536" lon="3.83919">
        <ele>71.422740967227</ele>
        <time>2020-10-10T07:28:02.000Z</time>
      </trkpt>
      <trkpt lat="43.62536" lon="3.83915">
        <ele>71.617104487341</ele>
        <time>2020-10-10T07:28:03.000Z</time>
      </trkpt>
      <trkpt lat="43.62536" lon="3.83911">
        <ele>71.811468007454</ele>
        <time>2020-10-10T07:28:04.000Z</time>
      </trkpt>
      <trkpt lat="43.62536" lon="3.83908">
        <ele>72.006173497942</ele>
        <time>2020-10-10T07:28:05.000Z</time>
      </trkpt>
      <trkpt lat="43.62536" lon="3.83904">
        <ele>72.211934814815</ele>
        <time>2020-10-10T07:28:06.000Z</time>
      </trkpt>
      <trkpt lat="43.62536" lon="3.839">
        <ele>72.417696131687</ele>
        <time>2020-10-10T07:28:07.000Z</time>
      </trkpt>
      <trkpt lat="43.62535" lon="3.83897">
        <ele>72.62345744856</ele>
        <time>2020-10-10T07:28:08.000Z</time>
      </trkpt>
      <trkpt lat="43.62534" lon="3.83894">
        <ele>72.829218765432</ele>
        <time>2020-10-10T07:28:09.000Z</time>
      </trkpt>
      <trkpt lat="43.62533" lon="3.83891">
        <ele>73.034980082305</ele>
        <time>2020-10-10T07:28:10.000Z</time>
      </trkpt>
      <trkpt lat="43.62531" lon="3.83888">
        <ele>73.240741399177</ele>
        <time>2020-10-10T07:28:11.000Z</time>
      </trkpt>
      <trkpt lat="43.6253" lon="3.83885">
        <ele>73.446502716049</ele>
        <time>2020-10-10T07:28:12.000Z</time>
      </trkpt>
      <trkpt lat="43.62529" lon="3.83882">
        <ele>73.652264032922</ele>
        <time>2020-10-10T07:28:13.000Z</time>
      </trkpt>
      <trkpt lat="43.62528" lon="3.83879">
        <ele>73.858025349794</ele>
        <time>2020-10-10T07:28:14.000Z</time>
      </trkpt>
      <trkpt lat="43.62527" lon="3.83876">
        <ele>74</ele>
        <time>2020-10-10T07:28:15.000Z</time>
      </trkpt>
      <trkpt lat="43.62526" lon="3.83873">
        <ele>74</ele>
        <time>2020-10-10T07:28:16.000Z</time>
      </trkpt>
      <trkpt lat="43.62525" lon="3.83869">
        <ele>74</ele>
        <time>2020-10-10T07:28:17.000Z</time>
      </trkpt>
      <trkpt lat="43.62524" lon="3.83866">
        <ele>74</ele>
        <time>2020-10-10T07:28:18.000Z</time>
      </trkpt>
      <trkpt lat="43.62524" lon="3.83863">
        <ele>74</ele>
        <time>2020-10-10T07:28:19.000Z</time>
      </trkpt>
      <trkpt lat="43.62523" lon="3.83859">
        <ele>74</ele>
        <time>2020-10-10T07:28:20.000Z</time>
      </trkpt>
      <trkpt lat="43.62523" lon="3.83856">
        <ele>74</ele>
        <time>2020-10-10T07:28:21.000Z</time>
      </trkpt>
      <trkpt lat="43.62522" lon="3.83853">
        <ele>74</ele>
        <time>2020-10-10T07:28:22.000Z</time>
      </trkpt>
      <trkpt lat="43.62521" lon="3.83849">
        <ele>74</ele>
        <time>2020-10-10T07:28:23.000Z</time>
      </trkpt>
      <trkpt lat="43.6252" lon="3.83846">
        <ele>74</ele>
        <time>2020-10-10T07:28:24.000Z</time>
      </trkpt>
      <trkpt lat="43.62519" lon="3.83843">
        <ele>74.003086748971</ele>
        <time>2020-10-10T07:28:25.000Z</time>
      </trkpt>
      <trkpt lat="43.62518" lon="3.83841">
        <ele>74.105967407407</ele>
        <time>2020-10-10T07:28:26.000Z</time>
      </trkpt>
      <trkpt lat="43.62516" lon="3.83838">
        <ele>74.208848065844</ele>
        <time>2020-10-10T07:28:27.000Z</time>
      </trkpt>
      <trkpt lat="43.62514" lon="3.83836">
        <ele>74.31172872428</ele>
        <time>2020-10-10T07:28:28.000Z</time>
      </trkpt>
      <trkpt lat="43.62511" lon="3.83834">
        <ele>74.414609382716</ele>
        <time>2020-10-10T07:28:29.000Z</time>
      </trkpt>
      <trkpt lat="43.62509" lon="3.83832">
        <ele>74.517490041152</ele>
        <time>2020-10-10T07:28:30.000Z</time>
      </trkpt>
      <trkpt lat="43.62507" lon="3.8383">
        <ele>74.620370699589</ele>
        <time>2020-10-10T07:28:31.000Z</time>
      </trkpt>
      <trkpt lat="43.62505" lon="3.83828">
        <ele>74.723251358025</ele>
        <time>2020-10-10T07:28:32.000Z</time>
      </trkpt>
      <trkpt lat="43.62503" lon="3.83826">
        <ele>74.826132016461</ele>
        <time>2020-10-10T07:28:33.000Z</time>
      </trkpt>
      <trkpt lat="43.625" lon="3.83825">
        <ele>74.929012674897</ele>
        <time>2020-10-10T07:28:34.000Z</time>
      </trkpt>
      <trkpt lat="43.62498" lon="3.83823">
        <ele>75.03100032</ele>
        <time>2020-10-10T07:28:35.000Z</time>
      </trkpt>
      <trkpt lat="43.62496" lon="3.83821">
        <ele>75.13100032</ele>
        <time>2020-10-10T07:28:36.000Z</time>
      </trkpt>
      <trkpt lat="43.62494" lon="3.8382">
        <ele>75.23100032</ele>
        <time>2020-10-10T07:28:37.000Z</time>
      </trkpt>
      <trkpt lat="43.62492" lon="3.83818">
        <ele>75.33100032</ele>
        <time>2020-10-10T07:28:38.000Z</time>
      </trkpt>
      <trkpt lat="43.6249" lon="3.83817">
        <ele>75.43100032</ele>
        <time>2020-10-10T07:28:39.000Z</time>
      </trkpt>
      <trkpt lat="43.62487" lon="3.83815">
        <ele>75.53100032</ele>
        <time>2020-10-10T07:28:40.000Z</time>
      </trkpt>
      <trkpt lat="43.62485" lon="3.83813">
        <ele>75.63100032</ele>
        <time>2020-10-10T07:28:41.000Z</time>
      </trkpt>
      <trkpt lat="43.62483" lon="3.83812">
        <ele>75.73100032</ele>
        <time>2020-10-10T07:28:42.000Z</time>
      </trkpt>
      <trkpt lat="43.62481" lon="3.8381">
        <ele>75.83100032</ele>
        <time>2020-10-10T07:28:43.000Z</time>
      </trkpt>
      <trkpt lat="43.62478" lon="3.83808">
        <ele>75.93100032</ele>
        <time>2020-10-10T07:28:44.000Z</time>
      </trkpt>
      <trkpt lat="43.62476" lon="3.83806">
        <ele>76</ele>
        <time>2020-10-10T07:28:45.000Z</time>
      </trkpt>
      <trkpt lat="43.62474" lon="3.83805">
        <ele>76</ele>
        <time>2020-10-10T07:28:46.000Z</time>
      </trkpt>
      <trkpt lat="43.62472" lon="3.83803">
        <ele>76</ele>
        <time>2020-10-10T07:28:47.000Z</time>
      </trkpt>
      <trkpt lat="43.62469" lon="3.83802">
        <ele>76</ele>
        <time>2020-10-10T07:28:48.000Z</time>
      </trkpt>
      <trkpt lat="43.62467" lon="3.838">
        <ele>76</ele>
        <time>2020-10-10T07:28:49.000Z</time>
      </trkpt>
      <trkpt lat="43.62465" lon="3.83798">
        <ele>76</ele>
        <time>2020-10-10T07:28:50.000Z</time>
      </trkpt>
      <trkpt lat="43.62462" lon="3.83796">
        <ele>76</ele>
        <time>2020-10-10T07:28:51.000Z</time>
      </trkpt>
      <trkpt lat="43.6246" lon="3.83794">
        <ele>76</ele>
        <time>2020-10-10T07:28:52.000Z</time>
      </trkpt>
      <trkpt lat="43.62458" lon="3.83793">
        <ele>76</ele>
        <time>2020-10-10T07:28:53.000Z</time>
      </trkpt>
      <trkpt lat="43.62456" lon="3.83791">
        <ele>76</ele>
        <time>2020-10-10T07:28:54.000Z</time>
      </trkpt>
      <trkpt lat="43.62454" lon="3.83789">
        <ele>76</ele>
        <time>2020-10-10T07:28:55.000Z</time>
      </trkpt>
      <trkpt lat="43.62452" lon="3.83787">
        <ele>76</ele>
        <time>2020-10-10T07:28:56.000Z</time>
      </trkpt>
      <trkpt lat="43.6245" lon="3.83784">
        <ele>76</ele>
        <time>2020-10-10T07:28:57.000Z</time>
      </trkpt>
      <trkpt lat="43.62448" lon="3.83782">
        <ele>76</ele>
        <time>2020-10-10T07:28:58.000Z</time>
      </trkpt>
      <trkpt lat="43.62446" lon="3.83779">
        <ele>76</ele>
        <time>2020-10-10T07:28:59.000Z</time>
      </trkpt>
      <trkpt lat="43.62445" lon="3.83776">
        <ele>76</ele>
        <time>2020-10-10T07:29:00.000Z</time>
      </trkpt>
      <trkpt lat="43.62443" lon="3.83773">
        <ele>76</ele>
        <time>2020-10-10T07:29:01.000Z</time>
      </trkpt>
      <trkpt lat="43.62442" lon="3.83769">
        <ele>76</ele>
        <time>2020-10-10T07:29:02.000Z</time>
      </trkpt>
      <trkpt lat="43.62441" lon="3.83766">
        <ele>76</ele>
        <time>2020-10-10T07:29:03.000Z</time>
      </trkpt>
      <trkpt lat="43.6244" lon="3.83762">
        <ele>76</ele>
        <time>2020-10-10T07:29:04.000Z</time>
      </trkpt>
      <trkpt lat="43.6244" lon="3.83759">
        <ele>76.031031341411</ele>
        <time>2020-10-10T07:29:05.000Z</time>
      </trkpt>
      <trkpt lat="43.62439" lon="3.83755">
        <ele>76.131131409447</ele>
        <time>2020-10-10T07:29:06.000Z</time>
      </trkpt>
      <trkpt lat="43.62438" lon="3.83751">
        <ele>76.231231477483</ele>
        <time>2020-10-10T07:29:07.000Z</time>
      </trkpt>
      <trkpt lat="43.62437" lon="3.83746">
        <ele>76.331331545519</ele>
        <time>2020-10-10T07:29:08.000Z</time>
      </trkpt>
      <trkpt lat="43.62436" lon="3.83742">
        <ele>76.431431613555</ele>
        <time>2020-10-10T07:29:09.000Z</time>
      </trkpt>
      <trkpt lat="43.62436" lon="3.83738">
        <ele>76.531531681592</ele>
        <time>2020-10-10T07:29:10.000Z</time>
      </trkpt>
      <trkpt lat="43.62435" lon="3.83733">
        <ele>76.631631749628</ele>
        <time>2020-10-10T07:29:11.000Z</time>
      </trkpt>
      <trkpt lat="43.62434" lon="3.83729">
        <ele>76.731731817664</ele>
        <time>2020-10-10T07:29:12.000Z</time>
      </trkpt>
      <trkpt lat="43.62433" lon="3.83724">
        <ele>76.8318318857</ele>
        <time>2020-10-10T07:29:13.000Z</time>
      </trkpt>
      <trkpt lat="43.62433" lon="3.83719">
        <ele>76.931931953735</ele>
        <time>2020-10-10T07:29:14.000Z</time>
      </trkpt>
      <trkpt lat="43.62432" lon="3.83715">
        <ele>77.032</ele>
        <time>2020-10-10T07:29:15.000Z</time>
      </trkpt>
      <trkpt lat="43.62431" lon="3.83711">
        <ele>77.132</ele>
        <time>2020-10-10T07:29:16.000Z</time>
      </trkpt>
      <trkpt lat="43.6243" lon="3.83707">
        <ele>77.232</ele>
        <time>2020-10-10T07:29:17.000Z</time>
      </trkpt>
      <trkpt lat="43.62429" lon="3.83703">
        <ele>77.332</ele>
        <time>2020-10-10T07:29:18.000Z</time>
      </trkpt>
      <trkpt lat="43.62428" lon="3.83699">
        <ele>77.432</ele>
        <time>2020-10-10T07:29:19.000Z</time>
      </trkpt>
      <trkpt lat="43.62425" lon="3.83696">
        <ele>77.532</ele>
        <time>2020-10-10T07:29:20.000Z</time>
      </trkpt>
      <trkpt lat="43.62423" lon="3.83694">
        <ele>77.632</ele>
        <time>2020-10-10T07:29:21.000Z</time>
      </trkpt>
      <trkpt lat="43.62421" lon="3.83692">
        <ele>77.732</ele>
        <time>2020-10-10T07:29:22.000Z</time>
      </trkpt>
      <trkpt lat="43.62419" lon="3.83689">
        <ele>77.832</ele>
        <time>2020-10-10T07:29:23.000Z</time>
      </trkpt>
      <trkpt lat="43.62419" lon="3.83685">
        <ele>78</ele>
        <time>2020-10-10T07:29:25.000Z</time>
      </trkpt>
      <trkpt lat="43.62418" lon="3.83681">
        <ele>78</ele>
        <time>2020-10-10T07:29:27.000Z</time>
      </trkpt>
      <trkpt lat="43.62417" lon="3.83678">
        <ele>78</ele>
        <time>2020-10-10T07:29:28.000Z</time>
      </trkpt>
      <trkpt lat="43.62415" lon="3.83675">
        <ele>78</ele>
        <time>2020-10-10T07:29:29.000Z</time>
      </trkpt>
      <trkpt lat="43.62415" lon="3.83672">
        <ele>78</ele>
        <time>2020-10-10T07:29:30.000Z</time>
      </trkpt>
      <trkpt lat="43.62416" lon="3.83669">
        <ele>78</ele>
        <time>2020-10-10T07:29:31.000Z</time>
      </trkpt>
      <trkpt lat="43.62418" lon="3.83667">
        <ele>78</ele>
        <time>2020-10-10T07:29:32.000Z</time>
      </trkpt>
      <trkpt lat="43.6242" lon="3.83667">
        <ele>78</ele>
        <time>2020-10-10T07:29:33.000Z</time>
      </trkpt>
      <trkpt lat="43.62423" lon="3.83667">
        <ele>78</ele>
        <time>2020-10-10T07:29:34.000Z</time>
      </trkpt>
      <trkpt lat="43.62425" lon="3.83667">
        <ele>78</ele>
        <time>2020-10-10T07:29:35.000Z</time>
      </trkpt>
      <trkpt lat="43.62428" lon="3.83666">
        <ele>78</ele>
        <time>2020-10-10T07:29:36.000Z</time>
      </trkpt>
      <trkpt lat="43.62431" lon="3.83664">
        <ele>78</ele>
        <time>2020-10-10T07:29:37.000Z</time>
      </trkpt>
      <trkpt lat="43.62434" lon="3.83663">
        <ele>78</ele>
        <time>2020-10-10T07:29:38.000Z</time>
      </trkpt>
      <trkpt lat="43.62437" lon="3.83662">
        <ele>78</ele>
        <time>2020-10-10T07:29:39.000Z</time>
      </trkpt>
      <trkpt lat="43.6244" lon="3.83661">
        <ele>78</ele>
        <time>2020-10-10T07:29:40.000Z</time>
      </trkpt>
      <trkpt lat="43.62442" lon="3.83659">
        <ele>78</ele>
        <time>2020-10-10T07:29:41.000Z</time>
      </trkpt>
      <trkpt lat="43.62445" lon="3.83658">
        <ele>78</ele>
        <time>2020-10-10T07:29:42.000Z</time>
      </trkpt>
      <trkpt lat="43.62448" lon="3.83657">
        <ele>78</ele>
        <time>2020-10-10T07:29:43.000Z</time>
      </trkpt>
      <trkpt lat="43.6245" lon="3.83656">
        <ele>78</ele>
        <time>2020-10-10T07:29:44.000Z</time>
      </trkpt>
      <trkpt lat="43.62453" lon="3.83655">
        <ele>78.031098163218</ele>
        <time>2020-10-10T07:29:45.000Z</time>
      </trkpt>
      <trkpt lat="43.62455" lon="3.83654">
        <ele>78.128279923275</ele>
        <time>2020-10-10T07:29:46.000Z</time>
      </trkpt>
      <trkpt lat="43.62457" lon="3.83654">
        <ele>78.225461683331</ele>
        <time>2020-10-10T07:29:47.000Z</time>
      </trkpt>
      <trkpt lat="43.6246" lon="3.83653">
        <ele>78.322643443388</ele>
        <time>2020-10-10T07:29:48.000Z</time>
      </trkpt>
      <trkpt lat="43.62462" lon="3.83652">
        <ele>78.419825203444</ele>
        <time>2020-10-10T07:29:49.000Z</time>
      </trkpt>
      <trkpt lat="43.62465" lon="3.83651">
        <ele>78.517006963501</ele>
        <time>2020-10-10T07:29:50.000Z</time>
      </trkpt>
      <trkpt lat="43.62467" lon="3.8365">
        <ele>78.614188723557</ele>
        <time>2020-10-10T07:29:51.000Z</time>
      </trkpt>
      <trkpt lat="43.6247" lon="3.83649">
        <ele>78.711370483614</ele>
        <time>2020-10-10T07:29:52.000Z</time>
      </trkpt>
      <trkpt lat="43.62473" lon="3.83648">
        <ele>78.80855224367</ele>
        <time>2020-10-10T07:29:53.000Z</time>
      </trkpt>
      <trkpt lat="43.62475" lon="3.83647">
        <ele>78.905734003727</ele>
        <time>2020-10-10T07:29:54.000Z</time>
      </trkpt>
      <trkpt lat="43.62478" lon="3.83646">
        <ele>78.996960163093</ele>
        <time>2020-10-10T07:29:55.000Z</time>
      </trkpt>
      <trkpt lat="43.6248" lon="3.83645">
        <ele>78.895643073348</ele>
        <time>2020-10-10T07:29:56.000Z</time>
      </trkpt>
      <trkpt lat="43.62483" lon="3.83644">
        <ele>78.794325983603</ele>
        <time>2020-10-10T07:29:57.000Z</time>
      </trkpt>
      <trkpt lat="43.62485" lon="3.83643">
        <ele>78.693008893857</ele>
        <time>2020-10-10T07:29:58.000Z</time>
      </trkpt>
      <trkpt lat="43.62488" lon="3.83642">
        <ele>78.591691804112</ele>
        <time>2020-10-10T07:29:59.000Z</time>
      </trkpt>
      <trkpt lat="43.62489" lon="3.83639">
        <ele>78.490374714367</ele>
        <time>2020-10-10T07:30:00.000Z</time>
      </trkpt>
      <trkpt lat="43.62491" lon="3.83635">
        <ele>78.389057624622</ele>
        <time>2020-10-10T07:30:01.000Z</time>
      </trkpt>
      <trkpt lat="43.62492" lon="3.83632">
        <ele>78.287740534876</ele>
        <time>2020-10-10T07:30:02.000Z</time>
      </trkpt>
      <trkpt lat="43.62494" lon="3.83629">
        <ele>78.186423445131</ele>
        <time>2020-10-10T07:30:03.000Z</time>
      </trkpt>
      <trkpt lat="43.62494" lon="3.83625">
        <ele>78.085106355386</ele>
        <time>2020-10-10T07:30:04.000Z</time>
      </trkpt>
      <trkpt lat="43.62495" lon="3.83623">
        <ele>78</ele>
        <time>2020-10-10T07:30:05.000Z</time>
      </trkpt>
      <trkpt lat="43.62496" lon="3.8362">
        <ele>78</ele>
        <time>2020-10-10T07:30:06.000Z</time>
      </trkpt>
      <trkpt lat="43.62497" lon="3.83617">
        <ele>78</ele>
        <time>2020-10-10T07:30:07.000Z</time>
      </trkpt>
      <trkpt lat="43.62499" lon="3.83614">
        <ele>78</ele>
        <time>2020-10-10T07:30:08.000Z</time>
      </trkpt>
      <trkpt lat="43.625" lon="3.83611">
        <ele>78</ele>
        <time>2020-10-10T07:30:09.000Z</time>
      </trkpt>
      <trkpt lat="43.62502" lon="3.83608">
        <ele>78</ele>
        <time>2020-10-10T07:30:10.000Z</time>
      </trkpt>
      <trkpt lat="43.62504" lon="3.83606">
        <ele>78</ele>
        <time>2020-10-10T07:30:11.000Z</time>
      </trkpt>
      <trkpt lat="43.62507" lon="3.83604">
        <ele>78</ele>
        <time>2020-10-10T07:30:12.000Z</time>
      </trkpt>
      <trkpt lat="43.62511" lon="3.83602">
        <ele>78</ele>
        <time>2020-10-10T07:30:13.000Z</time>
      </trkpt>
      <trkpt lat="43.62514" lon="3.83601">
        <ele>78</ele>
        <time>2020-10-10T07:30:14.000Z</time>
      </trkpt>
      <trkpt lat="43.62518" lon="3.836">
        <ele>77.96899968</ele>
        <time>2020-10-10T07:30:15.000Z</time>
      </trkpt>
      <trkpt lat="43.62521" lon="3.83601">
        <ele>77.86899968</ele>
        <time>2020-10-10T07:30:16.000Z</time>
      </trkpt>
      <trkpt lat="43.62525" lon="3.83602">
        <ele>77.76899968</ele>
        <time>2020-10-10T07:30:17.000Z</time>
      </trkpt>
      <trkpt lat="43.62528" lon="3.83604">
        <ele>77.66899968</ele>
        <time>2020-10-10T07:30:18.000Z</time>
      </trkpt>
      <trkpt lat="43.62531" lon="3.83606">
        <ele>77.56899968</ele>
        <time>2020-10-10T07:30:19.000Z</time>
      </trkpt>
      <trkpt lat="43.62534" lon="3.83609">
        <ele>77.46899968</ele>
        <time>2020-10-10T07:30:20.000Z</time>
      </trkpt>
      <trkpt lat="43.62536" lon="3.83611">
        <ele>77.36899968</ele>
        <time>2020-10-10T07:30:21.000Z</time>
      </trkpt>
      <trkpt lat="43.62539" lon="3.83613">
        <ele>77.26899968</ele>
        <time>2020-10-10T07:30:22.000Z</time>
      </trkpt>
      <trkpt lat="43.62542" lon="3.83616">
        <ele>77.16899968</ele>
        <time>2020-10-10T07:30:23.000Z</time>
      </trkpt>
      <trkpt lat="43.62545" lon="3.83618">
        <ele>77.06899968</ele>
        <time>2020-10-10T07:30:24.000Z</time>
      </trkpt>
      <trkpt lat="43.62547" lon="3.8362">
        <ele>77.03100032</ele>
        <time>2020-10-10T07:30:25.000Z</time>
      </trkpt>
      <trkpt lat="43.6255" lon="3.8362">
        <ele>77.13100032</ele>
        <time>2020-10-10T07:30:26.000Z</time>
      </trkpt>
      <trkpt lat="43.62553" lon="3.83619">
        <ele>77.23100032</ele>
        <time>2020-10-10T07:30:27.000Z</time>
      </trkpt>
      <trkpt lat="43.62556" lon="3.83618">
        <ele>77.33100032</ele>
        <time>2020-10-10T07:30:28.000Z</time>
      </trkpt>
      <trkpt lat="43.62559" lon="3.83617">
        <ele>77.43100032</ele>
        <time>2020-10-10T07:30:29.000Z</time>
      </trkpt>
      <trkpt lat="43.62563" lon="3.83615">
        <ele>77.53100032</ele>
        <time>2020-10-10T07:30:30.000Z</time>
      </trkpt>
      <trkpt lat="43.62566" lon="3.83614">
        <ele>77.63100032</ele>
        <time>2020-10-10T07:30:31.000Z</time>
      </trkpt>
      <trkpt lat="43.62569" lon="3.83612">
        <ele>77.73100032</ele>
        <time>2020-10-10T07:30:32.000Z</time>
      </trkpt>
      <trkpt lat="43.62572" lon="3.83611">
        <ele>77.83100032</ele>
        <time>2020-10-10T07:30:33.000Z</time>
      </trkpt>
      <trkpt lat="43.62574" lon="3.83608">
        <ele>77.93100032</ele>
        <time>2020-10-10T07:30:34.000Z</time>
      </trkpt>
      <trkpt lat="43.62575" lon="3.83605">
        <ele>77.969123187251</ele>
        <time>2020-10-10T07:30:35.000Z</time>
      </trkpt>
      <trkpt lat="43.62574" lon="3.83602">
        <ele>77.869521593626</ele>
        <time>2020-10-10T07:30:36.000Z</time>
      </trkpt>
      <trkpt lat="43.62573" lon="3.83599">
        <ele>77.76992</ele>
        <time>2020-10-10T07:30:37.000Z</time>
      </trkpt>
      <trkpt lat="43.62571" lon="3.83596">
        <ele>77.670318406375</ele>
        <time>2020-10-10T07:30:38.000Z</time>
      </trkpt>
      <trkpt lat="43.6257" lon="3.83593">
        <ele>77.570716812749</ele>
        <time>2020-10-10T07:30:39.000Z</time>
      </trkpt>
      <trkpt lat="43.62568" lon="3.8359">
        <ele>77.471115219124</ele>
        <time>2020-10-10T07:30:40.000Z</time>
      </trkpt>
      <trkpt lat="43.62566" lon="3.83588">
        <ele>77.371513625498</ele>
        <time>2020-10-10T07:30:41.000Z</time>
      </trkpt>
      <trkpt lat="43.62564" lon="3.83585">
        <ele>77.271912031873</ele>
        <time>2020-10-10T07:30:42.000Z</time>
      </trkpt>
      <trkpt lat="43.62562" lon="3.83582">
        <ele>77.172310438247</ele>
        <time>2020-10-10T07:30:43.000Z</time>
      </trkpt>
      <trkpt lat="43.62561" lon="3.83579">
        <ele>77.072708844622</ele>
        <time>2020-10-10T07:30:44.000Z</time>
      </trkpt>
      <trkpt lat="43.6256" lon="3.83575">
        <ele>77</ele>
        <time>2020-10-10T07:30:45.000Z</time>
      </trkpt>
      <trkpt lat="43.62558" lon="3.83572">
        <ele>77</ele>
        <time>2020-10-10T07:30:46.000Z</time>
      </trkpt>
      <trkpt lat="43.62556" lon="3.8357">
        <ele>77</ele>
        <time>2020-10-10T07:30:47.000Z</time>
      </trkpt>
      <trkpt lat="43.62552" lon="3.83567">
        <ele>77</ele>
        <time>2020-10-10T07:30:48.000Z</time>
      </trkpt>
      <trkpt lat="43.62549" lon="3.83564">
        <ele>77</ele>
        <time>2020-10-10T07:30:49.000Z</time>
      </trkpt>
      <trkpt lat="43.62546" lon="3.83562">
        <ele>77</ele>
        <time>2020-10-10T07:30:50.000Z</time>
      </trkpt>
      <trkpt lat="43.62542" lon="3.83559">
        <ele>77</ele>
        <time>2020-10-10T07:30:51.000Z</time>
      </trkpt>
      <trkpt lat="43.62539" lon="3.83556">
        <ele>77</ele>
        <time>2020-10-10T07:30:52.000Z</time>
      </trkpt>
      <trkpt lat="43.62536" lon="3.83552">
        <ele>77</ele>
        <time>2020-10-10T07:30:53.000Z</time>
      </trkpt>
      <trkpt lat="43.62534" lon="3.83549">
        <ele>77</ele>
        <time>2020-10-10T07:30:54.000Z</time>
      </trkpt>
      <trkpt lat="43.62531" lon="3.83545">
        <ele>76.977527443505</ele>
        <time>2020-10-10T07:30:55.000Z</time>
      </trkpt>
      <trkpt lat="43.62529" lon="3.8354">
        <ele>76.773237418349</ele>
        <time>2020-10-10T07:30:56.000Z</time>
      </trkpt>
      <trkpt lat="43.62526" lon="3.83535">
        <ele>76.568947393194</ele>
        <time>2020-10-10T07:30:57.000Z</time>
      </trkpt>
      <trkpt lat="43.62524" lon="3.8353">
        <ele>76.364657368038</ele>
        <time>2020-10-10T07:30:58.000Z</time>
      </trkpt>
      <trkpt lat="43.62521" lon="3.83524">
        <ele>76.160367342883</ele>
        <time>2020-10-10T07:30:59.000Z</time>
      </trkpt>
      <trkpt lat="43.62518" lon="3.83519">
        <ele>75.956077317728</ele>
        <time>2020-10-10T07:31:00.000Z</time>
      </trkpt>
      <trkpt lat="43.62516" lon="3.83513">
        <ele>75.751787292572</ele>
        <time>2020-10-10T07:31:01.000Z</time>
      </trkpt>
      <trkpt lat="43.62513" lon="3.83507">
        <ele>75.547497267417</ele>
        <time>2020-10-10T07:31:02.000Z</time>
      </trkpt>
      <trkpt lat="43.6251" lon="3.83502">
        <ele>75.343207242261</ele>
        <time>2020-10-10T07:31:03.000Z</time>
      </trkpt>
      <trkpt lat="43.62508" lon="3.83497">
        <ele>75.138917217106</ele>
        <time>2020-10-10T07:31:04.000Z</time>
      </trkpt>
      <trkpt lat="43.62505" lon="3.83492">
        <ele>75.031968042188</ele>
        <time>2020-10-10T07:31:05.000Z</time>
      </trkpt>
      <trkpt lat="43.62503" lon="3.83486">
        <ele>75.131868174024</ele>
        <time>2020-10-10T07:31:06.000Z</time>
      </trkpt>
      <trkpt lat="43.62501" lon="3.83481">
        <ele>75.23176830586</ele>
        <time>2020-10-10T07:31:07.000Z</time>
      </trkpt>
      <trkpt lat="43.62498" lon="3.83476">
        <ele>75.331668437696</ele>
        <time>2020-10-10T07:31:08.000Z</time>
      </trkpt>
      <trkpt lat="43.62497" lon="3.83471">
        <ele>75.431568569532</ele>
        <time>2020-10-10T07:31:09.000Z</time>
      </trkpt>
      <trkpt lat="43.62497" lon="3.83466">
        <ele>75.531468701369</ele>
        <time>2020-10-10T07:31:10.000Z</time>
      </trkpt>
      <trkpt lat="43.62498" lon="3.83461">
        <ele>75.631368833205</ele>
        <time>2020-10-10T07:31:11.000Z</time>
      </trkpt>
      <trkpt lat="43.62499" lon="3.83457">
        <ele>75.731268965041</ele>
        <time>2020-10-10T07:31:12.000Z</time>
      </trkpt>
      <trkpt lat="43.62499" lon="3.83453">
        <ele>75.831169096877</ele>
        <time>2020-10-10T07:31:13.000Z</time>
      </trkpt>
      <trkpt lat="43.625" lon="3.83449">
        <ele>75.931069228713</ele>
        <time>2020-10-10T07:31:14.000Z</time>
      </trkpt>
      <trkpt lat="43.62501" lon="3.83445">
        <ele>75.968968658589</ele>
        <time>2020-10-10T07:31:15.000Z</time>
      </trkpt>
      <trkpt lat="43.62502" lon="3.8344">
        <ele>75.868868590553</ele>
        <time>2020-10-10T07:31:16.000Z</time>
      </trkpt>
      <trkpt lat="43.62504" lon="3.83437">
        <ele>75.768768522517</ele>
        <time>2020-10-10T07:31:17.000Z</time>
      </trkpt>
      <trkpt lat="43.62505" lon="3.83433">
        <ele>75.668668454481</ele>
        <time>2020-10-10T07:31:18.000Z</time>
      </trkpt>
      <trkpt lat="43.62506" lon="3.8343">
        <ele>75.568568386445</ele>
        <time>2020-10-10T07:31:19.000Z</time>
      </trkpt>
      <trkpt lat="43.62506" lon="3.83428">
        <ele>75.468468318408</ele>
        <time>2020-10-10T07:31:20.000Z</time>
      </trkpt>
      <trkpt lat="43.62503" lon="3.83424">
        <ele>75.268268182336</ele>
        <time>2020-10-10T07:31:22.000Z</time>
      </trkpt>
      <trkpt lat="43.625" lon="3.83423">
        <ele>75.1681681143</ele>
        <time>2020-10-10T07:31:23.000Z</time>
      </trkpt>
      <trkpt lat="43.62497" lon="3.83422">
        <ele>75.068068046265</ele>
        <time>2020-10-10T07:31:24.000Z</time>
      </trkpt>
      <trkpt lat="43.62494" lon="3.83422">
        <ele>75.031968042188</ele>
        <time>2020-10-10T07:31:25.000Z</time>
      </trkpt>
      <trkpt lat="43.62492" lon="3.83425">
        <ele>75.131868174024</ele>
        <time>2020-10-10T07:31:26.000Z</time>
      </trkpt>
      <trkpt lat="43.62489" lon="3.83428">
        <ele>75.23176830586</ele>
        <time>2020-10-10T07:31:27.000Z</time>
      </trkpt>
      <trkpt lat="43.62485" lon="3.8343">
        <ele>75.331668437696</ele>
        <time>2020-10-10T07:31:28.000Z</time>
      </trkpt>
      <trkpt lat="43.62481" lon="3.83429">
        <ele>75.431568569532</ele>
        <time>2020-10-10T07:31:29.000Z</time>
      </trkpt>
      <trkpt lat="43.62477" lon="3.83427">
        <ele>75.531468701369</ele>
        <time>2020-10-10T07:31:30.000Z</time>
      </trkpt>
      <trkpt lat="43.62474" lon="3.83425">
        <ele>75.631368833205</ele>
        <time>2020-10-10T07:31:31.000Z</time>
      </trkpt>
      <trkpt lat="43.6247" lon="3.83423">
        <ele>75.731268965041</ele>
        <time>2020-10-10T07:31:32.000Z</time>
      </trkpt>
      <trkpt lat="43.62467" lon="3.83421">
        <ele>75.831169096877</ele>
        <time>2020-10-10T07:31:33.000Z</time>
      </trkpt>
      <trkpt lat="43.62464" lon="3.83419">
        <ele>75.931069228713</ele>
        <time>2020-10-10T07:31:34.000Z</time>
      </trkpt>
      <trkpt lat="43.62461" lon="3.83417">
        <ele>76.030155953307</ele>
        <time>2020-10-10T07:31:35.000Z</time>
      </trkpt>
      <trkpt lat="43.62459" lon="3.83415">
        <ele>76.127432217899</ele>
        <time>2020-10-10T07:31:36.000Z</time>
      </trkpt>
      <trkpt lat="43.62456" lon="3.83414">
        <ele>76.22470848249</ele>
        <time>2020-10-10T07:31:37.000Z</time>
      </trkpt>
      <trkpt lat="43.62454" lon="3.83413">
        <ele>76.321984747082</ele>
        <time>2020-10-10T07:31:38.000Z</time>
      </trkpt>
      <trkpt lat="43.62451" lon="3.83412">
        <ele>76.419261011673</ele>
        <time>2020-10-10T07:31:39.000Z</time>
      </trkpt>
      <trkpt lat="43.62449" lon="3.83414">
        <ele>76.516537276265</ele>
        <time>2020-10-10T07:31:40.000Z</time>
      </trkpt>
      <trkpt lat="43.62446" lon="3.83416">
        <ele>76.613813540856</ele>
        <time>2020-10-10T07:31:41.000Z</time>
      </trkpt>
      <trkpt lat="43.62444" lon="3.83419">
        <ele>76.711089805448</ele>
        <time>2020-10-10T07:31:42.000Z</time>
      </trkpt>
      <trkpt lat="43.62442" lon="3.83422">
        <ele>76.808366070039</ele>
        <time>2020-10-10T07:31:43.000Z</time>
      </trkpt>
      <trkpt lat="43.6244" lon="3.83425">
        <ele>76.90564233463</ele>
        <time>2020-10-10T07:31:44.000Z</time>
      </trkpt>
      <trkpt lat="43.62438" lon="3.83429">
        <ele>77</ele>
        <time>2020-10-10T07:31:45.000Z</time>
      </trkpt>
      <trkpt lat="43.62435" lon="3.83432">
        <ele>77</ele>
        <time>2020-10-10T07:31:46.000Z</time>
      </trkpt>
      <trkpt lat="43.62433" lon="3.83436">
        <ele>77</ele>
        <time>2020-10-10T07:31:47.000Z</time>
      </trkpt>
      <trkpt lat="43.62431" lon="3.83439">
        <ele>77</ele>
        <time>2020-10-10T07:31:48.000Z</time>
      </trkpt>
      <trkpt lat="43.62428" lon="3.83443">
        <ele>77</ele>
        <time>2020-10-10T07:31:49.000Z</time>
      </trkpt>
      <trkpt lat="43.62426" lon="3.83446">
        <ele>77</ele>
        <time>2020-10-10T07:31:50.000Z</time>
      </trkpt>
      <trkpt lat="43.62424" lon="3.8345">
        <ele>77</ele>
        <time>2020-10-10T07:31:51.000Z</time>
      </trkpt>
      <trkpt lat="43.62422" lon="3.83454">
        <ele>77</ele>
        <time>2020-10-10T07:31:52.000Z</time>
      </trkpt>
      <trkpt lat="43.62419" lon="3.83458">
        <ele>77</ele>
        <time>2020-10-10T07:31:53.000Z</time>
      </trkpt>
      <trkpt lat="43.62416" lon="3.83461">
        <ele>77</ele>
        <time>2020-10-10T07:31:54.000Z</time>
      </trkpt>
      <trkpt lat="43.62412" lon="3.83462">
        <ele>77</ele>
        <time>2020-10-10T07:31:55.000Z</time>
      </trkpt>
      <trkpt lat="43.62408" lon="3.83461">
        <ele>77</ele>
        <time>2020-10-10T07:31:56.000Z</time>
      </trkpt>
      <trkpt lat="43.62405" lon="3.8346">
        <ele>77</ele>
        <time>2020-10-10T07:31:57.000Z</time>
      </trkpt>
      <trkpt lat="43.62401" lon="3.83458">
        <ele>77</ele>
        <time>2020-10-10T07:31:58.000Z</time>
      </trkpt>
      <trkpt lat="43.62397" lon="3.83456">
        <ele>77</ele>
        <time>2020-10-10T07:31:59.000Z</time>
      </trkpt>
      <trkpt lat="43.62394" lon="3.83454">
        <ele>77</ele>
        <time>2020-10-10T07:32:00.000Z</time>
      </trkpt>
      <trkpt lat="43.6239" lon="3.83452">
        <ele>77</ele>
        <time>2020-10-10T07:32:01.000Z</time>
      </trkpt>
      <trkpt lat="43.62387" lon="3.8345">
        <ele>77</ele>
        <time>2020-10-10T07:32:02.000Z</time>
      </trkpt>
      <trkpt lat="43.62383" lon="3.83448">
        <ele>77</ele>
        <time>2020-10-10T07:32:03.000Z</time>
      </trkpt>
      <trkpt lat="43.62379" lon="3.83447">
        <ele>77</ele>
        <time>2020-10-10T07:32:04.000Z</time>
      </trkpt>
      <trkpt lat="43.62376" lon="3.83445">
        <ele>77.032</ele>
        <time>2020-10-10T07:32:05.000Z</time>
      </trkpt>
      <trkpt lat="43.62372" lon="3.83443">
        <ele>77.132</ele>
        <time>2020-10-10T07:32:06.000Z</time>
      </trkpt>
      <trkpt lat="43.62368" lon="3.83442">
        <ele>77.232</ele>
        <time>2020-10-10T07:32:07.000Z</time>
      </trkpt>
      <trkpt lat="43.62364" lon="3.83441">
        <ele>77.332</ele>
        <time>2020-10-10T07:32:08.000Z</time>
      </trkpt>
      <trkpt lat="43.62359" lon="3.83441">
        <ele>77.432</ele>
        <time>2020-10-10T07:32:09.000Z</time>
      </trkpt>
      <trkpt lat="43.62355" lon="3.83441">
        <ele>77.532</ele>
        <time>2020-10-10T07:32:10.000Z</time>
      </trkpt>
      <trkpt lat="43.62351" lon="3.83441">
        <ele>77.632</ele>
        <time>2020-10-10T07:32:11.000Z</time>
      </trkpt>
      <trkpt lat="43.62347" lon="3.83441">
        <ele>77.732</ele>
        <time>2020-10-10T07:32:12.000Z</time>
      </trkpt>
      <trkpt lat="43.62343" lon="3.83442">
        <ele>77.832</ele>
        <time>2020-10-10T07:32:13.000Z</time>
      </trkpt>
      <trkpt lat="43.62339" lon="3.83443">
        <ele>77.932</ele>
        <time>2020-10-10T07:32:14.000Z</time>
      </trkpt>
      <trkpt lat="43.62336" lon="3.83445">
        <ele>78</ele>
        <time>2020-10-10T07:32:15.000Z</time>
      </trkpt>
      <trkpt lat="43.62332" lon="3.83447">
        <ele>78</ele>
        <time>2020-10-10T07:32:16.000Z</time>
      </trkpt>
      <trkpt lat="43.62328" lon="3.83448">
        <ele>78</ele>
        <time>2020-10-10T07:32:17.000Z</time>
      </trkpt>
      <trkpt lat="43.62324" lon="3.8345">
        <ele>78</ele>
        <time>2020-10-10T07:32:18.000Z</time>
      </trkpt>
      <trkpt lat="43.62321" lon="3.83453">
        <ele>78</ele>
        <time>2020-10-10T07:32:19.000Z</time>
      </trkpt>
      <trkpt lat="43.62318" lon="3.83455">
        <ele>78</ele>
        <time>2020-10-10T07:32:20.000Z</time>
      </trkpt>
      <trkpt lat="43.62314" lon="3.83458">
        <ele>78</ele>
        <time>2020-10-10T07:32:21.000Z</time>
      </trkpt>
      <trkpt lat="43.62311" lon="3.83461">
        <ele>78</ele>
        <time>2020-10-10T07:32:22.000Z</time>
      </trkpt>
      <trkpt lat="43.62308" lon="3.83465">
        <ele>78</ele>
        <time>2020-10-10T07:32:23.000Z</time>
      </trkpt>
      <trkpt lat="43.62306" lon="3.83468">
        <ele>78</ele>
        <time>2020-10-10T07:32:24.000Z</time>
      </trkpt>
      <trkpt lat="43.62303" lon="3.83472">
        <ele>78</ele>
        <time>2020-10-10T07:32:25.000Z</time>
      </trkpt>
      <trkpt lat="43.62301" lon="3.83476">
        <ele>78</ele>
        <time>2020-10-10T07:32:26.000Z</time>
      </trkpt>
      <trkpt lat="43.62298" lon="3.8348">
        <ele>78</ele>
        <time>2020-10-10T07:32:27.000Z</time>
      </trkpt>
      <trkpt lat="43.62296" lon="3.83484">
        <ele>78</ele>
        <time>2020-10-10T07:32:28.000Z</time>
      </trkpt>
      <trkpt lat="43.62294" lon="3.83489">
        <ele>78</ele>
        <time>2020-10-10T07:32:29.000Z</time>
      </trkpt>
      <trkpt lat="43.62292" lon="3.83493">
        <ele>78</ele>
        <time>2020-10-10T07:32:30.000Z</time>
      </trkpt>
      <trkpt lat="43.62291" lon="3.83498">
        <ele>78</ele>
        <time>2020-10-10T07:32:31.000Z</time>
      </trkpt>
      <trkpt lat="43.62289" lon="3.83502">
        <ele>78</ele>
        <time>2020-10-10T07:32:32.000Z</time>
      </trkpt>
      <trkpt lat="43.62287" lon="3.83507">
        <ele>78</ele>
        <time>2020-10-10T07:32:33.000Z</time>
      </trkpt>
      <trkpt lat="43.62285" lon="3.83511">
        <ele>78</ele>
        <time>2020-10-10T07:32:34.000Z</time>
      </trkpt>
      <trkpt lat="43.62283" lon="3.83515">
        <ele>77.96899968</ele>
        <time>2020-10-10T07:32:35.000Z</time>
      </trkpt>
      <trkpt lat="43.6228" lon="3.83519">
        <ele>77.86899968</ele>
        <time>2020-10-10T07:32:36.000Z</time>
      </trkpt>
      <trkpt lat="43.62277" lon="3.83522">
        <ele>77.76899968</ele>
        <time>2020-10-10T07:32:37.000Z</time>
      </trkpt>
      <trkpt lat="43.62275" lon="3.83526">
        <ele>77.66899968</ele>
        <time>2020-10-10T07:32:38.000Z</time>
      </trkpt>
      <trkpt lat="43.62272" lon="3.8353">
        <ele>77.56899968</ele>
        <time>2020-10-10T07:32:39.000Z</time>
      </trkpt>
      <trkpt lat="43.6227" lon="3.83533">
        <ele>77.46899968</ele>
        <time>2020-10-10T07:32:40.000Z</time>
      </trkpt>
      <trkpt lat="43.62267" lon="3.83534">
        <ele>77.36899968</ele>
        <time>2020-10-10T07:32:41.000Z</time>
      </trkpt>
      <trkpt lat="43.62264" lon="3.83532">
        <ele>77.26899968</ele>
        <time>2020-10-10T07:32:42.000Z</time>
      </trkpt>
      <trkpt lat="43.62262" lon="3.83529">
        <ele>77.16899968</ele>
        <time>2020-10-10T07:32:43.000Z</time>
      </trkpt>
      <trkpt lat="43.62261" lon="3.83526">
        <ele>77.06899968</ele>
        <time>2020-10-10T07:32:44.000Z</time>
      </trkpt>
      <trkpt lat="43.6226" lon="3.83524">
        <ele>77.030155953307</ele>
        <time>2020-10-10T07:32:45.000Z</time>
      </trkpt>
      <trkpt lat="43.62258" lon="3.83521">
        <ele>77.127432217899</ele>
        <time>2020-10-10T07:32:46.000Z</time>
      </trkpt>
      <trkpt lat="43.62255" lon="3.83518">
        <ele>77.22470848249</ele>
        <time>2020-10-10T07:32:47.000Z</time>
      </trkpt>
      <trkpt lat="43.62253" lon="3.83516">
        <ele>77.321984747082</ele>
        <time>2020-10-10T07:32:48.000Z</time>
      </trkpt>
      <trkpt lat="43.6225" lon="3.83513">
        <ele>77.419261011673</ele>
        <time>2020-10-10T07:32:49.000Z</time>
      </trkpt>
      <trkpt lat="43.62248" lon="3.83511">
        <ele>77.516537276265</ele>
        <time>2020-10-10T07:32:50.000Z</time>
      </trkpt>
      <trkpt lat="43.62245" lon="3.8351">
        <ele>77.613813540856</ele>
        <time>2020-10-10T07:32:51.000Z</time>
      </trkpt>
      <trkpt lat="43.62242" lon="3.83511">
        <ele>77.711089805448</ele>
        <time>2020-10-10T07:32:52.000Z</time>
      </trkpt>
      <trkpt lat="43.6224" lon="3.83512">
        <ele>77.808366070039</ele>
        <time>2020-10-10T07:32:53.000Z</time>
      </trkpt>
      <trkpt lat="43.62238" lon="3.83514">
        <ele>77.90564233463</ele>
        <time>2020-10-10T07:32:54.000Z</time>
      </trkpt>
      <trkpt lat="43.62235" lon="3.83514">
        <ele>78</ele>
        <time>2020-10-10T07:32:55.000Z</time>
      </trkpt>
      <trkpt lat="43.62233" lon="3.83512">
        <ele>78</ele>
        <time>2020-10-10T07:32:56.000Z</time>
      </trkpt>
      <trkpt lat="43.6223" lon="3.8351">
        <ele>78</ele>
        <time>2020-10-10T07:32:57.000Z</time>
      </trkpt>
      <trkpt lat="43.62228" lon="3.83507">
        <ele>78</ele>
        <time>2020-10-10T07:32:58.000Z</time>
      </trkpt>
      <trkpt lat="43.62226" lon="3.83504">
        <ele>78</ele>
        <time>2020-10-10T07:32:59.000Z</time>
      </trkpt>
      <trkpt lat="43.62223" lon="3.83501">
        <ele>78</ele>
        <time>2020-10-10T07:33:00.000Z</time>
      </trkpt>
      <trkpt lat="43.6222" lon="3.83498">
        <ele>78</ele>
        <time>2020-10-10T07:33:01.000Z</time>
      </trkpt>
      <trkpt lat="43.62217" lon="3.83494">
        <ele>78</ele>
        <time>2020-10-10T07:33:02.000Z</time>
      </trkpt>
      <trkpt lat="43.62214" lon="3.8349">
        <ele>78</ele>
        <time>2020-10-10T07:33:03.000Z</time>
      </trkpt>
      <trkpt lat="43.62211" lon="3.83486">
        <ele>78</ele>
        <time>2020-10-10T07:33:04.000Z</time>
      </trkpt>
      <trkpt lat="43.62208" lon="3.83482">
        <ele>78.003086748971</ele>
        <time>2020-10-10T07:33:05.000Z</time>
      </trkpt>
      <trkpt lat="43.62205" lon="3.83479">
        <ele>78.105967407407</ele>
        <time>2020-10-10T07:33:06.000Z</time>
      </trkpt>
      <trkpt lat="43.62201" lon="3.83475">
        <ele>78.208848065844</ele>
        <time>2020-10-10T07:33:07.000Z</time>
      </trkpt>
      <trkpt lat="43.62198" lon="3.83471">
        <ele>78.31172872428</ele>
        <time>2020-10-10T07:33:08.000Z</time>
      </trkpt>
      <trkpt lat="43.62196" lon="3.83467">
        <ele>78.414609382716</ele>
        <time>2020-10-10T07:33:09.000Z</time>
      </trkpt>
      <trkpt lat="43.62193" lon="3.83464">
        <ele>78.517490041152</ele>
        <time>2020-10-10T07:33:10.000Z</time>
      </trkpt>
      <trkpt lat="43.6219" lon="3.8346">
        <ele>78.620370699589</ele>
        <time>2020-10-10T07:33:11.000Z</time>
      </trkpt>
      <trkpt lat="43.62187" lon="3.83456">
        <ele>78.723251358025</ele>
        <time>2020-10-10T07:33:12.000Z</time>
      </trkpt>
      <trkpt lat="43.62185" lon="3.83454">
        <ele>78.826132016461</ele>
        <time>2020-10-10T07:33:13.000Z</time>
      </trkpt>
      <trkpt lat="43.62182" lon="3.83451">
        <ele>78.929012674897</ele>
        <time>2020-10-10T07:33:14.000Z</time>
      </trkpt>
      <trkpt lat="43.62179" lon="3.8345">
        <ele>78.968968658589</ele>
        <time>2020-10-10T07:33:15.000Z</time>
      </trkpt>
      <trkpt lat="43.62174" lon="3.83447">
        <ele>78.868868590553</ele>
        <time>2020-10-10T07:33:16.000Z</time>
      </trkpt>
      <trkpt lat="43.62169" lon="3.83445">
        <ele>78.768768522517</ele>
        <time>2020-10-10T07:33:17.000Z</time>
      </trkpt>
      <trkpt lat="43.62165" lon="3.83442">
        <ele>78.668668454481</ele>
        <time>2020-10-10T07:33:18.000Z</time>
      </trkpt>
      <trkpt lat="43.6216" lon="3.83439">
        <ele>78.568568386445</ele>
        <time>2020-10-10T07:33:19.000Z</time>
      </trkpt>
      <trkpt lat="43.62156" lon="3.83436">
        <ele>78.468468318408</ele>
        <time>2020-10-10T07:33:20.000Z</time>
      </trkpt>
      <trkpt lat="43.62152" lon="3.83434">
        <ele>78.368368250372</ele>
        <time>2020-10-10T07:33:21.000Z</time>
      </trkpt>
      <trkpt lat="43.62148" lon="3.83432">
        <ele>78.268268182336</ele>
        <time>2020-10-10T07:33:22.000Z</time>
      </trkpt>
      <trkpt lat="43.62144" lon="3.83429">
        <ele>78.1681681143</ele>
        <time>2020-10-10T07:33:23.000Z</time>
      </trkpt>
      <trkpt lat="43.62141" lon="3.83425">
        <ele>78.068068046265</ele>
        <time>2020-10-10T07:33:24.000Z</time>
      </trkpt>
      <trkpt lat="43.62137" lon="3.83421">
        <ele>78.031968042188</ele>
        <time>2020-10-10T07:33:25.000Z</time>
      </trkpt>
      <trkpt lat="43.62133" lon="3.83417">
        <ele>78.131868174024</ele>
        <time>2020-10-10T07:33:26.000Z</time>
      </trkpt>
      <trkpt lat="43.62129" lon="3.83413">
        <ele>78.23176830586</ele>
        <time>2020-10-10T07:33:27.000Z</time>
      </trkpt>
      <trkpt lat="43.62125" lon="3.83408">
        <ele>78.331668437696</ele>
        <time>2020-10-10T07:33:28.000Z</time>
      </trkpt>
      <trkpt lat="43.62121" lon="3.83403">
        <ele>78.431568569532</ele>
        <time>2020-10-10T07:33:29.000Z</time>
      </trkpt>
      <trkpt lat="43.62117" lon="3.83398">
        <ele>78.531468701369</ele>
        <time>2020-10-10T07:33:30.000Z</time>
      </trkpt>
      <trkpt lat="43.62113" lon="3.83393">
        <ele>78.631368833205</ele>
        <time>2020-10-10T07:33:31.000Z</time>
      </trkpt>
      <trkpt lat="43.62109" lon="3.83388">
        <ele>78.731268965041</ele>
        <time>2020-10-10T07:33:32.000Z</time>
      </trkpt>
      <trkpt lat="43.62105" lon="3.83384">
        <ele>78.831169096877</ele>
        <time>2020-10-10T07:33:33.000Z</time>
      </trkpt>
      <trkpt lat="43.62101" lon="3.83379">
        <ele>78.931069228713</ele>
        <time>2020-10-10T07:33:34.000Z</time>
      </trkpt>
      <trkpt lat="43.62097" lon="3.83374">
        <ele>78.969123187251</ele>
        <time>2020-10-10T07:33:35.000Z</time>
      </trkpt>
      <trkpt lat="43.62094" lon="3.83369">
        <ele>78.869521593626</ele>
        <time>2020-10-10T07:33:36.000Z</time>
      </trkpt>
      <trkpt lat="43.6209" lon="3.83365">
        <ele>78.76992</ele>
        <time>2020-10-10T07:33:37.000Z</time>
      </trkpt>
      <trkpt lat="43.62086" lon="3.8336">
        <ele>78.670318406375</ele>
        <time>2020-10-10T07:33:38.000Z</time>
      </trkpt>
      <trkpt lat="43.62082" lon="3.83356">
        <ele>78.570716812749</ele>
        <time>2020-10-10T07:33:39.000Z</time>
      </trkpt>
      <trkpt lat="43.62079" lon="3.83352">
        <ele>78.471115219124</ele>
        <time>2020-10-10T07:33:40.000Z</time>
      </trkpt>
      <trkpt lat="43.62075" lon="3.83348">
        <ele>78.371513625498</ele>
        <time>2020-10-10T07:33:41.000Z</time>
      </trkpt>
      <trkpt lat="43.62072" lon="3.83344">
        <ele>78.271912031873</ele>
        <time>2020-10-10T07:33:42.000Z</time>
      </trkpt>
      <trkpt lat="43.62068" lon="3.83339">
        <ele>78.172310438247</ele>
        <time>2020-10-10T07:33:43.000Z</time>
      </trkpt>
      <trkpt lat="43.62064" lon="3.83335">
        <ele>78.072708844622</ele>
        <time>2020-10-10T07:33:44.000Z</time>
      </trkpt>
      <trkpt lat="43.6206" lon="3.83332">
        <ele>78</ele>
        <time>2020-10-10T07:33:45.000Z</time>
      </trkpt>
      <trkpt lat="43.62056" lon="3.83328">
        <ele>78</ele>
        <time>2020-10-10T07:33:46.000Z</time>
      </trkpt>
      <trkpt lat="43.62051" lon="3.83324">
        <ele>78</ele>
        <time>2020-10-10T07:33:47.000Z</time>
      </trkpt>
      <trkpt lat="43.62047" lon="3.8332">
        <ele>78</ele>
        <time>2020-10-10T07:33:48.000Z</time>
      </trkpt>
      <trkpt lat="43.62043" lon="3.83315">
        <ele>78</ele>
        <time>2020-10-10T07:33:49.000Z</time>
      </trkpt>
      <trkpt lat="43.62039" lon="3.8331">
        <ele>78</ele>
        <time>2020-10-10T07:33:50.000Z</time>
      </trkpt>
      <trkpt lat="43.62036" lon="3.83304">
        <ele>78</ele>
        <time>2020-10-10T07:33:51.000Z</time>
      </trkpt>
      <trkpt lat="43.62032" lon="3.83298">
        <ele>78</ele>
        <time>2020-10-10T07:33:52.000Z</time>
      </trkpt>
      <trkpt lat="43.62028" lon="3.83293">
        <ele>78</ele>
        <time>2020-10-10T07:33:53.000Z</time>
      </trkpt>
      <trkpt lat="43.62025" lon="3.83288">
        <ele>78</ele>
        <time>2020-10-10T07:33:54.000Z</time>
      </trkpt>
      <trkpt lat="43.62021" lon="3.83283">
        <ele>78</ele>
        <time>2020-10-10T07:33:55.000Z</time>
      </trkpt>
      <trkpt lat="43.62018" lon="3.83279">
        <ele>78</ele>
        <time>2020-10-10T07:33:56.000Z</time>
      </trkpt>
      <trkpt lat="43.62014" lon="3.83274">
        <ele>78</ele>
        <time>2020-10-10T07:33:57.000Z</time>
      </trkpt>
      <trkpt lat="43.62011" lon="3.8327">
        <ele>78</ele>
        <time>2020-10-10T07:33:58.000Z</time>
      </trkpt>
      <trkpt lat="43.62008" lon="3.83265">
        <ele>78</ele>
        <time>2020-10-10T07:33:59.000Z</time>
      </trkpt>
      <trkpt lat="43.62005" lon="3.8326">
        <ele>78</ele>
        <time>2020-10-10T07:34:00.000Z</time>
      </trkpt>
      <trkpt lat="43.62004" lon="3.83254">
        <ele>78</ele>
        <time>2020-10-10T07:34:01.000Z</time>
      </trkpt>
      <trkpt lat="43.62002" lon="3.83248">
        <ele>78</ele>
        <time>2020-10-10T07:34:02.000Z</time>
      </trkpt>
      <trkpt lat="43.62" lon="3.83243">
        <ele>78</ele>
        <time>2020-10-10T07:34:03.000Z</time>
      </trkpt>
      <trkpt lat="43.61996" lon="3.83239">
        <ele>78</ele>
        <time>2020-10-10T07:34:04.000Z</time>
      </trkpt>
      <trkpt lat="43.61992" lon="3.83236">
        <ele>78</ele>
        <time>2020-10-10T07:34:05.000Z</time>
      </trkpt>
      <trkpt lat="43.61988" lon="3.83233">
        <ele>78</ele>
        <time>2020-10-10T07:34:06.000Z</time>
      </trkpt>
      <trkpt lat="43.61984" lon="3.83229">
        <ele>78</ele>
        <time>2020-10-10T07:34:07.000Z</time>
      </trkpt>
      <trkpt lat="43.61981" lon="3.83225">
        <ele>78</ele>
        <time>2020-10-10T07:34:08.000Z</time>
      </trkpt>
      <trkpt lat="43.61978" lon="3.8322">
        <ele>78</ele>
        <time>2020-10-10T07:34:09.000Z</time>
      </trkpt>
      <trkpt lat="43.61975" lon="3.83215">
        <ele>78</ele>
        <time>2020-10-10T07:34:10.000Z</time>
      </trkpt>
      <trkpt lat="43.61971" lon="3.8321">
        <ele>78</ele>
        <time>2020-10-10T07:34:11.000Z</time>
      </trkpt>
      <trkpt lat="43.61968" lon="3.83205">
        <ele>78</ele>
        <time>2020-10-10T07:34:12.000Z</time>
      </trkpt>
      <trkpt lat="43.61965" lon="3.832">
        <ele>78</ele>
        <time>2020-10-10T07:34:13.000Z</time>
      </trkpt>
      <trkpt lat="43.61962" lon="3.83195">
        <ele>78</ele>
        <time>2020-10-10T07:34:14.000Z</time>
      </trkpt>
      <trkpt lat="43.61959" lon="3.8319">
        <ele>77.96899968</ele>
        <time>2020-10-10T07:34:15.000Z</time>
      </trkpt>
      <trkpt lat="43.61956" lon="3.83184">
        <ele>77.86899968</ele>
        <time>2020-10-10T07:34:16.000Z</time>
      </trkpt>
      <trkpt lat="43.61953" lon="3.83179">
        <ele>77.76899968</ele>
        <time>2020-10-10T07:34:17.000Z</time>
      </trkpt>
      <trkpt lat="43.61949" lon="3.83173">
        <ele>77.66899968</ele>
        <time>2020-10-10T07:34:18.000Z</time>
      </trkpt>
      <trkpt lat="43.61946" lon="3.83168">
        <ele>77.56899968</ele>
        <time>2020-10-10T07:34:19.000Z</time>
      </trkpt>
      <trkpt lat="43.61942" lon="3.83162">
        <ele>77.46899968</ele>
        <time>2020-10-10T07:34:20.000Z</time>
      </trkpt>
      <trkpt lat="43.61938" lon="3.83157">
        <ele>77.36899968</ele>
        <time>2020-10-10T07:34:21.000Z</time>
      </trkpt>
      <trkpt lat="43.61934" lon="3.83151">
        <ele>77.26899968</ele>
        <time>2020-10-10T07:34:22.000Z</time>
      </trkpt>
      <trkpt lat="43.61929" lon="3.83145">
        <ele>77.16899968</ele>
        <time>2020-10-10T07:34:23.000Z</time>
      </trkpt>
      <trkpt lat="43.61925" lon="3.83139">
        <ele>77.06899968</ele>
        <time>2020-10-10T07:34:24.000Z</time>
      </trkpt>
      <trkpt lat="43.61921" lon="3.83132">
        <ele>76.96899968</ele>
        <time>2020-10-10T07:34:25.000Z</time>
      </trkpt>
      <trkpt lat="43.61917" lon="3.83126">
        <ele>76.86899968</ele>
        <time>2020-10-10T07:34:26.000Z</time>
      </trkpt>
      <trkpt lat="43.61913" lon="3.83119">
        <ele>76.76899968</ele>
        <time>2020-10-10T07:34:27.000Z</time>
      </trkpt>
      <trkpt lat="43.61909" lon="3.83112">
        <ele>76.66899968</ele>
        <time>2020-10-10T07:34:28.000Z</time>
      </trkpt>
      <trkpt lat="43.61906" lon="3.83105">
        <ele>76.56899968</ele>
        <time>2020-10-10T07:34:29.000Z</time>
      </trkpt>
      <trkpt lat="43.61902" lon="3.83098">
        <ele>76.46899968</ele>
        <time>2020-10-10T07:34:30.000Z</time>
      </trkpt>
      <trkpt lat="43.61899" lon="3.83092">
        <ele>76.36899968</ele>
        <time>2020-10-10T07:34:31.000Z</time>
      </trkpt>
      <trkpt lat="43.61895" lon="3.83085">
        <ele>76.26899968</ele>
        <time>2020-10-10T07:34:32.000Z</time>
      </trkpt>
      <trkpt lat="43.61892" lon="3.83078">
        <ele>76.16899968</ele>
        <time>2020-10-10T07:34:33.000Z</time>
      </trkpt>
      <trkpt lat="43.61888" lon="3.83071">
        <ele>76.06899968</ele>
        <time>2020-10-10T07:34:34.000Z</time>
      </trkpt>
      <trkpt lat="43.61885" lon="3.83064">
        <ele>75.96899968</ele>
        <time>2020-10-10T07:34:35.000Z</time>
      </trkpt>
      <trkpt lat="43.61881" lon="3.83057">
        <ele>75.86899968</ele>
        <time>2020-10-10T07:34:36.000Z</time>
      </trkpt>
      <trkpt lat="43.61878" lon="3.8305">
        <ele>75.76899968</ele>
        <time>2020-10-10T07:34:37.000Z</time>
      </trkpt>
      <trkpt lat="43.61874" lon="3.83044">
        <ele>75.66899968</ele>
        <time>2020-10-10T07:34:38.000Z</time>
      </trkpt>
      <trkpt lat="43.61871" lon="3.83037">
        <ele>75.56899968</ele>
        <time>2020-10-10T07:34:39.000Z</time>
      </trkpt>
      <trkpt lat="43.61868" lon="3.83031">
        <ele>75.46899968</ele>
        <time>2020-10-10T07:34:40.000Z</time>
      </trkpt>
      <trkpt lat="43.61865" lon="3.83025">
        <ele>75.36899968</ele>
        <time>2020-10-10T07:34:41.000Z</time>
      </trkpt>
      <trkpt lat="43.61862" lon="3.83018">
        <ele>75.26899968</ele>
        <time>2020-10-10T07:34:42.000Z</time>
      </trkpt>
      <trkpt lat="43.61859" lon="3.83012">
        <ele>75.16899968</ele>
        <time>2020-10-10T07:34:43.000Z</time>
      </trkpt>
      <trkpt lat="43.61856" lon="3.83005">
        <ele>75.06899968</ele>
        <time>2020-10-10T07:34:44.000Z</time>
      </trkpt>
      <trkpt lat="43.61853" lon="3.82999">
        <ele>74.96999003757</ele>
        <time>2020-10-10T07:34:45.000Z</time>
      </trkpt>
      <trkpt lat="43.6185" lon="3.82992">
        <ele>74.87318470643</ele>
        <time>2020-10-10T07:34:46.000Z</time>
      </trkpt>
      <trkpt lat="43.61847" lon="3.82985">
        <ele>74.776379375291</ele>
        <time>2020-10-10T07:34:47.000Z</time>
      </trkpt>
      <trkpt lat="43.61845" lon="3.82978">
        <ele>74.679574044152</ele>
        <time>2020-10-10T07:34:48.000Z</time>
      </trkpt>
      <trkpt lat="43.61842" lon="3.82971">
        <ele>74.582768713013</ele>
        <time>2020-10-10T07:34:49.000Z</time>
      </trkpt>
      <trkpt lat="43.61839" lon="3.82964">
        <ele>74.485963381873</ele>
        <time>2020-10-10T07:34:50.000Z</time>
      </trkpt>
      <trkpt lat="43.61837" lon="3.82957">
        <ele>74.389158050734</ele>
        <time>2020-10-10T07:34:51.000Z</time>
      </trkpt>
      <trkpt lat="43.61834" lon="3.82949">
        <ele>74.292352719595</ele>
        <time>2020-10-10T07:34:52.000Z</time>
      </trkpt>
      <trkpt lat="43.61832" lon="3.82942">
        <ele>74.195547388455</ele>
        <time>2020-10-10T07:34:53.000Z</time>
      </trkpt>
      <trkpt lat="43.6183" lon="3.82935">
        <ele>74.098742057316</ele>
        <time>2020-10-10T07:34:54.000Z</time>
      </trkpt>
      <trkpt lat="43.61827" lon="3.82927">
        <ele>74.001936726177</ele>
        <time>2020-10-10T07:34:55.000Z</time>
      </trkpt>
      <trkpt lat="43.61825" lon="3.8292">
        <ele>73.797312394436</ele>
        <time>2020-10-10T07:34:56.000Z</time>
      </trkpt>
      <trkpt lat="43.61822" lon="3.82913">
        <ele>73.59048695643</ele>
        <time>2020-10-10T07:34:57.000Z</time>
      </trkpt>
      <trkpt lat="43.6182" lon="3.82906">
        <ele>73.383661518423</ele>
        <time>2020-10-10T07:34:58.000Z</time>
      </trkpt>
      <trkpt lat="43.61817" lon="3.82899">
        <ele>73.176836080416</ele>
        <time>2020-10-10T07:34:59.000Z</time>
      </trkpt>
      <trkpt lat="43.61814" lon="3.82892">
        <ele>72.97001064241</ele>
        <time>2020-10-10T07:35:00.000Z</time>
      </trkpt>
      <trkpt lat="43.61812" lon="3.82885">
        <ele>72.763185204403</ele>
        <time>2020-10-10T07:35:01.000Z</time>
      </trkpt>
      <trkpt lat="43.61809" lon="3.82878">
        <ele>72.556359766396</ele>
        <time>2020-10-10T07:35:02.000Z</time>
      </trkpt>
      <trkpt lat="43.61807" lon="3.8287">
        <ele>72.34953432839</ele>
        <time>2020-10-10T07:35:03.000Z</time>
      </trkpt>
      <trkpt lat="43.61806" lon="3.82862">
        <ele>72.142708890383</ele>
        <time>2020-10-10T07:35:04.000Z</time>
      </trkpt>
      <trkpt lat="43.61805" lon="3.82855">
        <ele>71.96899968</ele>
        <time>2020-10-10T07:35:05.000Z</time>
      </trkpt>
      <trkpt lat="43.61803" lon="3.82848">
        <ele>71.86899968</ele>
        <time>2020-10-10T07:35:06.000Z</time>
      </trkpt>
      <trkpt lat="43.618" lon="3.82841">
        <ele>71.76899968</ele>
        <time>2020-10-10T07:35:07.000Z</time>
      </trkpt>
      <trkpt lat="43.61798" lon="3.82834">
        <ele>71.66899968</ele>
        <time>2020-10-10T07:35:08.000Z</time>
      </trkpt>
      <trkpt lat="43.61796" lon="3.82828">
        <ele>71.56899968</ele>
        <time>2020-10-10T07:35:09.000Z</time>
      </trkpt>
      <trkpt lat="43.61794" lon="3.8282">
        <ele>71.46899968</ele>
        <time>2020-10-10T07:35:10.000Z</time>
      </trkpt>
      <trkpt lat="43.61791" lon="3.82813">
        <ele>71.36899968</ele>
        <time>2020-10-10T07:35:11.000Z</time>
      </trkpt>
      <trkpt lat="43.61789" lon="3.82806">
        <ele>71.26899968</ele>
        <time>2020-10-10T07:35:12.000Z</time>
      </trkpt>
      <trkpt lat="43.61786" lon="3.82798">
        <ele>71.16899968</ele>
        <time>2020-10-10T07:35:13.000Z</time>
      </trkpt>
      <trkpt lat="43.61784" lon="3.8279">
        <ele>71.06899968</ele>
        <time>2020-10-10T07:35:14.000Z</time>
      </trkpt>
      <trkpt lat="43.61781" lon="3.82782">
        <ele>70.96899968</ele>
        <time>2020-10-10T07:35:15.000Z</time>
      </trkpt>
      <trkpt lat="43.61779" lon="3.82774">
        <ele>70.86899968</ele>
        <time>2020-10-10T07:35:16.000Z</time>
      </trkpt>
      <trkpt lat="43.61776" lon="3.82767">
        <ele>70.76899968</ele>
        <time>2020-10-10T07:35:17.000Z</time>
      </trkpt>
      <trkpt lat="43.61773" lon="3.82759">
        <ele>70.66899968</ele>
        <time>2020-10-10T07:35:18.000Z</time>
      </trkpt>
      <trkpt lat="43.61771" lon="3.82752">
        <ele>70.56899968</ele>
        <time>2020-10-10T07:35:19.000Z</time>
      </trkpt>
      <trkpt lat="43.61769" lon="3.82744">
        <ele>70.46899968</ele>
        <time>2020-10-10T07:35:20.000Z</time>
      </trkpt>
      <trkpt lat="43.61767" lon="3.82737">
        <ele>70.36899968</ele>
        <time>2020-10-10T07:35:21.000Z</time>
      </trkpt>
      <trkpt lat="43.61764" lon="3.8273">
        <ele>70.26899968</ele>
        <time>2020-10-10T07:35:22.000Z</time>
      </trkpt>
      <trkpt lat="43.61761" lon="3.82724">
        <ele>70.16899968</ele>
        <time>2020-10-10T07:35:23.000Z</time>
      </trkpt>
      <trkpt lat="43.61758" lon="3.82717">
        <ele>70.06899968</ele>
        <time>2020-10-10T07:35:24.000Z</time>
      </trkpt>
      <trkpt lat="43.61756" lon="3.82709">
        <ele>69.96899968</ele>
        <time>2020-10-10T07:35:25.000Z</time>
      </trkpt>
      <trkpt lat="43.61753" lon="3.82702">
        <ele>69.86899968</ele>
        <time>2020-10-10T07:35:26.000Z</time>
      </trkpt>
      <trkpt lat="43.61751" lon="3.82695">
        <ele>69.76899968</ele>
        <time>2020-10-10T07:35:27.000Z</time>
      </trkpt>
      <trkpt lat="43.61749" lon="3.82687">
        <ele>69.66899968</ele>
        <time>2020-10-10T07:35:28.000Z</time>
      </trkpt>
      <trkpt lat="43.61747" lon="3.8268">
        <ele>69.56899968</ele>
        <time>2020-10-10T07:35:29.000Z</time>
      </trkpt>
      <trkpt lat="43.61745" lon="3.82673">
        <ele>69.46899968</ele>
        <time>2020-10-10T07:35:30.000Z</time>
      </trkpt>
      <trkpt lat="43.61743" lon="3.82666">
        <ele>69.36899968</ele>
        <time>2020-10-10T07:35:31.000Z</time>
      </trkpt>
      <trkpt lat="43.61741" lon="3.82659">
        <ele>69.26899968</ele>
        <time>2020-10-10T07:35:32.000Z</time>
      </trkpt>
      <trkpt lat="43.61739" lon="3.82652">
        <ele>69.16899968</ele>
        <time>2020-10-10T07:35:33.000Z</time>
      </trkpt>
      <trkpt lat="43.61738" lon="3.82645">
        <ele>69.06899968</ele>
        <time>2020-10-10T07:35:34.000Z</time>
      </trkpt>
      <trkpt lat="43.61737" lon="3.82638">
        <ele>68.96899968</ele>
        <time>2020-10-10T07:35:35.000Z</time>
      </trkpt>
      <trkpt lat="43.61735" lon="3.82631">
        <ele>68.86899968</ele>
        <time>2020-10-10T07:35:36.000Z</time>
      </trkpt>
      <trkpt lat="43.61733" lon="3.82625">
        <ele>68.76899968</ele>
        <time>2020-10-10T07:35:37.000Z</time>
      </trkpt>
      <trkpt lat="43.61732" lon="3.82619">
        <ele>68.66899968</ele>
        <time>2020-10-10T07:35:38.000Z</time>
      </trkpt>
      <trkpt lat="43.61732" lon="3.82614">
        <ele>68.56899968</ele>
        <time>2020-10-10T07:35:39.000Z</time>
      </trkpt>
      <trkpt lat="43.61732" lon="3.82612">
        <ele>68.46899968</ele>
        <time>2020-10-10T07:35:40.000Z</time>
      </trkpt>
      <trkpt lat="43.61733" lon="3.82609">
        <ele>68.26899968</ele>
        <time>2020-10-10T07:35:42.000Z</time>
      </trkpt>
      <trkpt lat="43.61732" lon="3.82605">
        <ele>68.06899968</ele>
        <time>2020-10-10T07:35:44.000Z</time>
      </trkpt>
      <trkpt lat="43.6173" lon="3.82602">
        <ele>68</ele>
        <time>2020-10-10T07:35:45.000Z</time>
      </trkpt>
      <trkpt lat="43.61727" lon="3.82599">
        <ele>68</ele>
        <time>2020-10-10T07:35:46.000Z</time>
      </trkpt>
      <trkpt lat="43.61723" lon="3.82597">
        <ele>68</ele>
        <time>2020-10-10T07:35:47.000Z</time>
      </trkpt>
      <trkpt lat="43.6172" lon="3.82593">
        <ele>68</ele>
        <time>2020-10-10T07:35:48.000Z</time>
      </trkpt>
      <trkpt lat="43.61716" lon="3.82589">
        <ele>68</ele>
        <time>2020-10-10T07:35:49.000Z</time>
      </trkpt>
      <trkpt lat="43.61712" lon="3.82585">
        <ele>68</ele>
        <time>2020-10-10T07:35:50.000Z</time>
      </trkpt>
      <trkpt lat="43.61708" lon="3.82582">
        <ele>68</ele>
        <time>2020-10-10T07:35:51.000Z</time>
      </trkpt>
      <trkpt lat="43.61704" lon="3.82579">
        <ele>68</ele>
        <time>2020-10-10T07:35:52.000Z</time>
      </trkpt>
      <trkpt lat="43.617" lon="3.82576">
        <ele>68</ele>
        <time>2020-10-10T07:35:53.000Z</time>
      </trkpt>
      <trkpt lat="43.61697" lon="3.82571">
        <ele>68</ele>
        <time>2020-10-10T07:35:54.000Z</time>
      </trkpt>
      <trkpt lat="43.61695" lon="3.82566">
        <ele>68</ele>
        <time>2020-10-10T07:35:55.000Z</time>
      </trkpt>
      <trkpt lat="43.61693" lon="3.8256">
        <ele>68</ele>
        <time>2020-10-10T07:35:56.000Z</time>
      </trkpt>
      <trkpt lat="43.61692" lon="3.82554">
        <ele>68</ele>
        <time>2020-10-10T07:35:57.000Z</time>
      </trkpt>
      <trkpt lat="43.6169" lon="3.82548">
        <ele>68</ele>
        <time>2020-10-10T07:35:58.000Z</time>
      </trkpt>
      <trkpt lat="43.61688" lon="3.82542">
        <ele>68</ele>
        <time>2020-10-10T07:35:59.000Z</time>
      </trkpt>
      <trkpt lat="43.61685" lon="3.82536">
        <ele>68</ele>
        <time>2020-10-10T07:36:00.000Z</time>
      </trkpt>
      <trkpt lat="43.61683" lon="3.82529">
        <ele>68</ele>
        <time>2020-10-10T07:36:01.000Z</time>
      </trkpt>
      <trkpt lat="43.61682" lon="3.82523">
        <ele>68</ele>
        <time>2020-10-10T07:36:02.000Z</time>
      </trkpt>
      <trkpt lat="43.6168" lon="3.82516">
        <ele>68</ele>
        <time>2020-10-10T07:36:03.000Z</time>
      </trkpt>
      <trkpt lat="43.61677" lon="3.82509">
        <ele>68</ele>
        <time>2020-10-10T07:36:04.000Z</time>
      </trkpt>
      <trkpt lat="43.61675" lon="3.82501">
        <ele>68</ele>
        <time>2020-10-10T07:36:05.000Z</time>
      </trkpt>
      <trkpt lat="43.61674" lon="3.82494">
        <ele>67.723683238866</ele>
        <time>2020-10-10T07:36:06.000Z</time>
      </trkpt>
      <trkpt lat="43.61672" lon="3.82487">
        <ele>67.42003951417</ele>
        <time>2020-10-10T07:36:07.000Z</time>
      </trkpt>
      <trkpt lat="43.6167" lon="3.82479">
        <ele>67.116395789474</ele>
        <time>2020-10-10T07:36:08.000Z</time>
      </trkpt>
      <trkpt lat="43.61668" lon="3.82472">
        <ele>66.812752064777</ele>
        <time>2020-10-10T07:36:09.000Z</time>
      </trkpt>
      <trkpt lat="43.61666" lon="3.82465">
        <ele>66.509108340081</ele>
        <time>2020-10-10T07:36:10.000Z</time>
      </trkpt>
      <trkpt lat="43.61664" lon="3.82458">
        <ele>66.205464615385</ele>
        <time>2020-10-10T07:36:11.000Z</time>
      </trkpt>
      <trkpt lat="43.61662" lon="3.8245">
        <ele>65.901820890688</ele>
        <time>2020-10-10T07:36:12.000Z</time>
      </trkpt>
      <trkpt lat="43.6166" lon="3.82443">
        <ele>65.598177165992</ele>
        <time>2020-10-10T07:36:13.000Z</time>
      </trkpt>
      <trkpt lat="43.61657" lon="3.82435">
        <ele>65.294533441295</ele>
        <time>2020-10-10T07:36:14.000Z</time>
      </trkpt>
      <trkpt lat="43.61655" lon="3.82426">
        <ele>64.990739753086</ele>
        <time>2020-10-10T07:36:15.000Z</time>
      </trkpt>
      <trkpt lat="43.61653" lon="3.82418">
        <ele>64.682097777778</ele>
        <time>2020-10-10T07:36:16.000Z</time>
      </trkpt>
      <trkpt lat="43.6165" lon="3.82409">
        <ele>64.373455802469</ele>
        <time>2020-10-10T07:36:17.000Z</time>
      </trkpt>
      <trkpt lat="43.61648" lon="3.824">
        <ele>64.064813827161</ele>
        <time>2020-10-10T07:36:18.000Z</time>
      </trkpt>
      <trkpt lat="43.61645" lon="3.82392">
        <ele>63.756171851852</ele>
        <time>2020-10-10T07:36:19.000Z</time>
      </trkpt>
      <trkpt lat="43.61643" lon="3.82384">
        <ele>63.447529876543</ele>
        <time>2020-10-10T07:36:20.000Z</time>
      </trkpt>
      <trkpt lat="43.61641" lon="3.82377">
        <ele>63.138887901235</ele>
        <time>2020-10-10T07:36:21.000Z</time>
      </trkpt>
      <trkpt lat="43.61639" lon="3.82369">
        <ele>62.830245925926</ele>
        <time>2020-10-10T07:36:22.000Z</time>
      </trkpt>
      <trkpt lat="43.61636" lon="3.82363">
        <ele>62.521603950617</ele>
        <time>2020-10-10T07:36:23.000Z</time>
      </trkpt>
      <trkpt lat="43.61633" lon="3.82357">
        <ele>62.212961975309</ele>
        <time>2020-10-10T07:36:24.000Z</time>
      </trkpt>
      <trkpt lat="43.6163" lon="3.8235">
        <ele>61.90699904</ele>
        <time>2020-10-10T07:36:25.000Z</time>
      </trkpt>
      <trkpt lat="43.61628" lon="3.82343">
        <ele>61.60699904</ele>
        <time>2020-10-10T07:36:26.000Z</time>
      </trkpt>
      <trkpt lat="43.61626" lon="3.82335">
        <ele>61.30699904</ele>
        <time>2020-10-10T07:36:27.000Z</time>
      </trkpt>
      <trkpt lat="43.61623" lon="3.82327">
        <ele>61.00699904</ele>
        <time>2020-10-10T07:36:28.000Z</time>
      </trkpt>
      <trkpt lat="43.61621" lon="3.8232">
        <ele>60.70699904</ele>
        <time>2020-10-10T07:36:29.000Z</time>
      </trkpt>
      <trkpt lat="43.61619" lon="3.82314">
        <ele>60.40699904</ele>
        <time>2020-10-10T07:36:30.000Z</time>
      </trkpt>
      <trkpt lat="43.61616" lon="3.82307">
        <ele>60.10699904</ele>
        <time>2020-10-10T07:36:31.000Z</time>
      </trkpt>
      <trkpt lat="43.61614" lon="3.82299">
        <ele>59.80699904</ele>
        <time>2020-10-10T07:36:32.000Z</time>
      </trkpt>
      <trkpt lat="43.61612" lon="3.82292">
        <ele>59.50699904</ele>
        <time>2020-10-10T07:36:33.000Z</time>
      </trkpt>
      <trkpt lat="43.61609" lon="3.82284">
        <ele>59.20699904</ele>
        <time>2020-10-10T07:36:34.000Z</time>
      </trkpt>
      <trkpt lat="43.61607" lon="3.82276">
        <ele>58.93799936</ele>
        <time>2020-10-10T07:36:35.000Z</time>
      </trkpt>
      <trkpt lat="43.61605" lon="3.82268">
        <ele>58.73799936</ele>
        <time>2020-10-10T07:36:36.000Z</time>
      </trkpt>
      <trkpt lat="43.61603" lon="3.82261">
        <ele>58.53799936</ele>
        <time>2020-10-10T07:36:37.000Z</time>
      </trkpt>
      <trkpt lat="43.61601" lon="3.82253">
        <ele>58.33799936</ele>
        <time>2020-10-10T07:36:38.000Z</time>
      </trkpt>
      <trkpt lat="43.61598" lon="3.82246">
        <ele>58.13799936</ele>
        <time>2020-10-10T07:36:39.000Z</time>
      </trkpt>
      <trkpt lat="43.61596" lon="3.82239">
        <ele>57.93799936</ele>
        <time>2020-10-10T07:36:40.000Z</time>
      </trkpt>
      <trkpt lat="43.61593" lon="3.82232">
        <ele>57.73799936</ele>
        <time>2020-10-10T07:36:41.000Z</time>
      </trkpt>
      <trkpt lat="43.61591" lon="3.82226">
        <ele>57.53799936</ele>
        <time>2020-10-10T07:36:42.000Z</time>
      </trkpt>
      <trkpt lat="43.61589" lon="3.8222">
        <ele>57.33799936</ele>
        <time>2020-10-10T07:36:43.000Z</time>
      </trkpt>
      <trkpt lat="43.61587" lon="3.82214">
        <ele>57.13799936</ele>
        <time>2020-10-10T07:36:44.000Z</time>
      </trkpt>
      <trkpt lat="43.61585" lon="3.82208">
        <ele>56.938123153295</ele>
        <time>2020-10-10T07:36:45.000Z</time>
      </trkpt>
      <trkpt lat="43.61583" lon="3.82202">
        <ele>56.738522482381</ele>
        <time>2020-10-10T07:36:46.000Z</time>
      </trkpt>
      <trkpt lat="43.61581" lon="3.82197">
        <ele>56.538921811467</ele>
        <time>2020-10-10T07:36:47.000Z</time>
      </trkpt>
      <trkpt lat="43.6158" lon="3.82192">
        <ele>56.339321140553</ele>
        <time>2020-10-10T07:36:48.000Z</time>
      </trkpt>
      <trkpt lat="43.61578" lon="3.82188">
        <ele>56.13972046964</ele>
        <time>2020-10-10T07:36:49.000Z</time>
      </trkpt>
      <trkpt lat="43.61577" lon="3.82183">
        <ele>55.940119798726</ele>
        <time>2020-10-10T07:36:50.000Z</time>
      </trkpt>
      <trkpt lat="43.61576" lon="3.82179">
        <ele>55.740519127812</ele>
        <time>2020-10-10T07:36:51.000Z</time>
      </trkpt>
      <trkpt lat="43.61575" lon="3.82174">
        <ele>55.540918456898</ele>
        <time>2020-10-10T07:36:52.000Z</time>
      </trkpt>
      <trkpt lat="43.61574" lon="3.82171">
        <ele>55.341317785985</ele>
        <time>2020-10-10T07:36:53.000Z</time>
      </trkpt>
      <trkpt lat="43.61574" lon="3.82168">
        <ele>54.941826099683</ele>
        <time>2020-10-10T07:36:55.000Z</time>
      </trkpt>
      <trkpt lat="43.61571" lon="3.82167">
        <ele>53.938816750673</ele>
        <time>2020-10-10T07:37:00.000Z</time>
      </trkpt>
      <trkpt lat="43.61568" lon="3.82166">
        <ele>53.537613011069</ele>
        <time>2020-10-10T07:37:02.000Z</time>
      </trkpt>
      <trkpt lat="43.61566" lon="3.82165">
        <ele>53.337011141267</ele>
        <time>2020-10-10T07:37:03.000Z</time>
      </trkpt>
      <trkpt lat="43.61565" lon="3.82163">
        <ele>53.136409271465</ele>
        <time>2020-10-10T07:37:04.000Z</time>
      </trkpt>
      <trkpt lat="43.61565" lon="3.82163">
        <ele>52.9904</ele>
        <time>2020-10-10T07:37:10.000Z</time>
      </trkpt>
      <trkpt lat="43.61556" lon="3.82154">
        <ele>49.985757237597</ele>
        <time>2020-10-10T07:37:35.000Z</time>
      </trkpt>
      <trkpt lat="43.61555" lon="3.82152">
        <ele>49.782298504237</ele>
        <time>2020-10-10T07:37:36.000Z</time>
      </trkpt>
      <trkpt lat="43.61552" lon="3.82153">
        <ele>48.968463570795</ele>
        <time>2020-10-10T07:37:40.000Z</time>
      </trkpt>
      <trkpt lat="43.61548" lon="3.82152">
        <ele>48.561546104075</ele>
        <time>2020-10-10T07:37:42.000Z</time>
      </trkpt>
      <trkpt lat="43.61547" lon="3.82149">
        <ele>48.358087370714</ele>
        <time>2020-10-10T07:37:43.000Z</time>
      </trkpt>
      <trkpt lat="43.61546" lon="3.82147">
        <ele>48.154628637354</ele>
        <time>2020-10-10T07:37:44.000Z</time>
      </trkpt>
      <trkpt lat="43.61545" lon="3.82144">
        <ele>47.976493626325</ele>
        <time>2020-10-10T07:37:45.000Z</time>
      </trkpt>
      <trkpt lat="43.61545" lon="3.82141">
        <ele>47.87855040268</ele>
        <time>2020-10-10T07:37:46.000Z</time>
      </trkpt>
      <trkpt lat="43.61546" lon="3.82137">
        <ele>47.780607179035</ele>
        <time>2020-10-10T07:37:47.000Z</time>
      </trkpt>
      <trkpt lat="43.61547" lon="3.82133">
        <ele>47.682663955389</ele>
        <time>2020-10-10T07:37:48.000Z</time>
      </trkpt>
      <trkpt lat="43.61548" lon="3.82128">
        <ele>47.584720731744</ele>
        <time>2020-10-10T07:37:49.000Z</time>
      </trkpt>
      <trkpt lat="43.61549" lon="3.82123">
        <ele>47.486777508099</ele>
        <time>2020-10-10T07:37:50.000Z</time>
      </trkpt>
      <trkpt lat="43.6155" lon="3.82118">
        <ele>47.388834284454</ele>
        <time>2020-10-10T07:37:51.000Z</time>
      </trkpt>
      <trkpt lat="43.6155" lon="3.82112">
        <ele>47.290891060808</ele>
        <time>2020-10-10T07:37:52.000Z</time>
      </trkpt>
      <trkpt lat="43.6155" lon="3.82107">
        <ele>47.192947837163</ele>
        <time>2020-10-10T07:37:53.000Z</time>
      </trkpt>
      <trkpt lat="43.6155" lon="3.82102">
        <ele>47.095004613518</ele>
        <time>2020-10-10T07:37:54.000Z</time>
      </trkpt>
      <trkpt lat="43.6155" lon="3.82096">
        <ele>46.996913251029</ele>
        <time>2020-10-10T07:37:55.000Z</time>
      </trkpt>
      <trkpt lat="43.6155" lon="3.8209">
        <ele>46.894032592593</ele>
        <time>2020-10-10T07:37:56.000Z</time>
      </trkpt>
      <trkpt lat="43.6155" lon="3.82084">
        <ele>46.791151934156</ele>
        <time>2020-10-10T07:37:57.000Z</time>
      </trkpt>
      <trkpt lat="43.61549" lon="3.82078">
        <ele>46.68827127572</ele>
        <time>2020-10-10T07:37:58.000Z</time>
      </trkpt>
      <trkpt lat="43.61549" lon="3.8207">
        <ele>46.585390617284</ele>
        <time>2020-10-10T07:37:59.000Z</time>
      </trkpt>
      <trkpt lat="43.6155" lon="3.82062">
        <ele>46.482509958848</ele>
        <time>2020-10-10T07:38:00.000Z</time>
      </trkpt>
      <trkpt lat="43.61552" lon="3.82055">
        <ele>46.379629300412</ele>
        <time>2020-10-10T07:38:01.000Z</time>
      </trkpt>
      <trkpt lat="43.61553" lon="3.82048">
        <ele>46.276748641975</ele>
        <time>2020-10-10T07:38:02.000Z</time>
      </trkpt>
      <trkpt lat="43.61553" lon="3.82042">
        <ele>46.173867983539</ele>
        <time>2020-10-10T07:38:03.000Z</time>
      </trkpt>
      <trkpt lat="43.61552" lon="3.82037">
        <ele>46.070987325103</ele>
        <time>2020-10-10T07:38:04.000Z</time>
      </trkpt>
      <trkpt lat="43.61551" lon="3.82032">
        <ele>45.937937317177</ele>
        <time>2020-10-10T07:38:05.000Z</time>
      </trkpt>
      <trkpt lat="43.61549" lon="3.82028">
        <ele>45.737737181105</ele>
        <time>2020-10-10T07:38:06.000Z</time>
      </trkpt>
      <trkpt lat="43.61548" lon="3.82022">
        <ele>45.537537045033</ele>
        <time>2020-10-10T07:38:07.000Z</time>
      </trkpt>
      <trkpt lat="43.61548" lon="3.82017">
        <ele>45.337336908961</ele>
        <time>2020-10-10T07:38:08.000Z</time>
      </trkpt>
      <trkpt lat="43.6155" lon="3.82012">
        <ele>45.137136772889</ele>
        <time>2020-10-10T07:38:09.000Z</time>
      </trkpt>
      <trkpt lat="43.61551" lon="3.82007">
        <ele>44.936936636817</ele>
        <time>2020-10-10T07:38:10.000Z</time>
      </trkpt>
      <trkpt lat="43.61553" lon="3.82002">
        <ele>44.736736500745</ele>
        <time>2020-10-10T07:38:11.000Z</time>
      </trkpt>
      <trkpt lat="43.61554" lon="3.81997">
        <ele>44.536536364673</ele>
        <time>2020-10-10T07:38:12.000Z</time>
      </trkpt>
      <trkpt lat="43.61555" lon="3.81991">
        <ele>44.336336228601</ele>
        <time>2020-10-10T07:38:13.000Z</time>
      </trkpt>
      <trkpt lat="43.61557" lon="3.81986">
        <ele>44.136136092529</ele>
        <time>2020-10-10T07:38:14.000Z</time>
      </trkpt>
      <trkpt lat="43.6156" lon="3.81982">
        <ele>43.968031957812</ele>
        <time>2020-10-10T07:38:15.000Z</time>
      </trkpt>
      <trkpt lat="43.61563" lon="3.81979">
        <ele>43.868131825976</ele>
        <time>2020-10-10T07:38:16.000Z</time>
      </trkpt>
      <trkpt lat="43.61567" lon="3.81978">
        <ele>43.76823169414</ele>
        <time>2020-10-10T07:38:17.000Z</time>
      </trkpt>
      <trkpt lat="43.61571" lon="3.81977">
        <ele>43.668331562304</ele>
        <time>2020-10-10T07:38:18.000Z</time>
      </trkpt>
      <trkpt lat="43.61575" lon="3.81975">
        <ele>43.568431430468</ele>
        <time>2020-10-10T07:38:19.000Z</time>
      </trkpt>
      <trkpt lat="43.61578" lon="3.81973">
        <ele>43.468531298631</ele>
        <time>2020-10-10T07:38:20.000Z</time>
      </trkpt>
      <trkpt lat="43.61582" lon="3.81971">
        <ele>43.368631166795</ele>
        <time>2020-10-10T07:38:21.000Z</time>
      </trkpt>
      <trkpt lat="43.61585" lon="3.8197">
        <ele>43.268731034959</ele>
        <time>2020-10-10T07:38:22.000Z</time>
      </trkpt>
      <trkpt lat="43.61589" lon="3.81968">
        <ele>43.168830903123</ele>
        <time>2020-10-10T07:38:23.000Z</time>
      </trkpt>
      <trkpt lat="43.61591" lon="3.81965">
        <ele>43.068930771287</ele>
        <time>2020-10-10T07:38:24.000Z</time>
      </trkpt>
      <trkpt lat="43.61593" lon="3.81961">
        <ele>43</ele>
        <time>2020-10-10T07:38:25.000Z</time>
      </trkpt>
      <trkpt lat="43.61593" lon="3.81957">
        <ele>43</ele>
        <time>2020-10-10T07:38:26.000Z</time>
      </trkpt>
      <trkpt lat="43.61593" lon="3.81952">
        <ele>43</ele>
        <time>2020-10-10T07:38:27.000Z</time>
      </trkpt>
      <trkpt lat="43.61591" lon="3.81948">
        <ele>43</ele>
        <time>2020-10-10T07:38:28.000Z</time>
      </trkpt>
      <trkpt lat="43.61589" lon="3.81944">
        <ele>43</ele>
        <time>2020-10-10T07:38:29.000Z</time>
      </trkpt>
      <trkpt lat="43.61588" lon="3.81939">
        <ele>43</ele>
        <time>2020-10-10T07:38:30.000Z</time>
      </trkpt>
      <trkpt lat="43.61586" lon="3.81934">
        <ele>43</ele>
        <time>2020-10-10T07:38:31.000Z</time>
      </trkpt>
      <trkpt lat="43.61585" lon="3.81929">
        <ele>43</ele>
        <time>2020-10-10T07:38:32.000Z</time>
      </trkpt>
      <trkpt lat="43.61583" lon="3.81924">
        <ele>43</ele>
        <time>2020-10-10T07:38:33.000Z</time>
      </trkpt>
      <trkpt lat="43.61582" lon="3.81918">
        <ele>43</ele>
        <time>2020-10-10T07:38:34.000Z</time>
      </trkpt>
      <trkpt lat="43.61581" lon="3.81913">
        <ele>42.93619144608</ele>
        <time>2020-10-10T07:38:35.000Z</time>
      </trkpt>
      <trkpt lat="43.6158" lon="3.81908">
        <ele>42.736789715082</ele>
        <time>2020-10-10T07:38:36.000Z</time>
      </trkpt>
      <trkpt lat="43.61578" lon="3.81904">
        <ele>42.537387984084</ele>
        <time>2020-10-10T07:38:37.000Z</time>
      </trkpt>
      <trkpt lat="43.61577" lon="3.81899">
        <ele>42.337986253085</ele>
        <time>2020-10-10T07:38:38.000Z</time>
      </trkpt>
      <trkpt lat="43.61576" lon="3.81895">
        <ele>42.138584522087</ele>
        <time>2020-10-10T07:38:39.000Z</time>
      </trkpt>
      <trkpt lat="43.61576" lon="3.8189">
        <ele>41.939182791088</ele>
        <time>2020-10-10T07:38:40.000Z</time>
      </trkpt>
      <trkpt lat="43.61574" lon="3.81886">
        <ele>41.73978106009</ele>
        <time>2020-10-10T07:38:41.000Z</time>
      </trkpt>
      <trkpt lat="43.61573" lon="3.81881">
        <ele>41.540379329091</ele>
        <time>2020-10-10T07:38:42.000Z</time>
      </trkpt>
      <trkpt lat="43.61572" lon="3.81876">
        <ele>41.340977598093</ele>
        <time>2020-10-10T07:38:43.000Z</time>
      </trkpt>
      <trkpt lat="43.6157" lon="3.81872">
        <ele>41.141575867094</ele>
        <time>2020-10-10T07:38:44.000Z</time>
      </trkpt>
      <trkpt lat="43.61569" lon="3.81868">
        <ele>41</ele>
        <time>2020-10-10T07:38:45.000Z</time>
      </trkpt>
      <trkpt lat="43.61568" lon="3.81863">
        <ele>41</ele>
        <time>2020-10-10T07:38:46.000Z</time>
      </trkpt>
      <trkpt lat="43.61567" lon="3.81857">
        <ele>41</ele>
        <time>2020-10-10T07:38:47.000Z</time>
      </trkpt>
      <trkpt lat="43.61566" lon="3.8185">
        <ele>41</ele>
        <time>2020-10-10T07:38:48.000Z</time>
      </trkpt>
      <trkpt lat="43.61566" lon="3.81843">
        <ele>41</ele>
        <time>2020-10-10T07:38:49.000Z</time>
      </trkpt>
      <trkpt lat="43.61565" lon="3.81837">
        <ele>41</ele>
        <time>2020-10-10T07:38:50.000Z</time>
      </trkpt>
      <trkpt lat="43.61564" lon="3.8183">
        <ele>41</ele>
        <time>2020-10-10T07:38:51.000Z</time>
      </trkpt>
      <trkpt lat="43.61563" lon="3.81825">
        <ele>41</ele>
        <time>2020-10-10T07:38:52.000Z</time>
      </trkpt>
      <trkpt lat="43.61561" lon="3.81819">
        <ele>41</ele>
        <time>2020-10-10T07:38:53.000Z</time>
      </trkpt>
      <trkpt lat="43.61558" lon="3.81814">
        <ele>41</ele>
        <time>2020-10-10T07:38:54.000Z</time>
      </trkpt>
      <trkpt lat="43.61557" lon="3.81809">
        <ele>41</ele>
        <time>2020-10-10T07:38:55.000Z</time>
      </trkpt>
      <trkpt lat="43.61555" lon="3.81804">
        <ele>41</ele>
        <time>2020-10-10T07:38:56.000Z</time>
      </trkpt>
      <trkpt lat="43.61553" lon="3.818">
        <ele>41</ele>
        <time>2020-10-10T07:38:57.000Z</time>
      </trkpt>
      <trkpt lat="43.61552" lon="3.81795">
        <ele>41</ele>
        <time>2020-10-10T07:38:58.000Z</time>
      </trkpt>
      <trkpt lat="43.61551" lon="3.81791">
        <ele>41</ele>
        <time>2020-10-10T07:38:59.000Z</time>
      </trkpt>
      <trkpt lat="43.61549" lon="3.81786">
        <ele>41</ele>
        <time>2020-10-10T07:39:00.000Z</time>
      </trkpt>
      <trkpt lat="43.61548" lon="3.81783">
        <ele>41</ele>
        <time>2020-10-10T07:39:01.000Z</time>
      </trkpt>
      <trkpt lat="43.61546" lon="3.81779">
        <ele>41</ele>
        <time>2020-10-10T07:39:02.000Z</time>
      </trkpt>
      <trkpt lat="43.61545" lon="3.81776">
        <ele>41</ele>
        <time>2020-10-10T07:39:03.000Z</time>
      </trkpt>
      <trkpt lat="43.61544" lon="3.81772">
        <ele>41</ele>
        <time>2020-10-10T07:39:04.000Z</time>
      </trkpt>
      <trkpt lat="43.61543" lon="3.81767">
        <ele>41.031031341411</ele>
        <time>2020-10-10T07:39:05.000Z</time>
      </trkpt>
      <trkpt lat="43.61542" lon="3.81763">
        <ele>41.131131409447</ele>
        <time>2020-10-10T07:39:06.000Z</time>
      </trkpt>
      <trkpt lat="43.61541" lon="3.81759">
        <ele>41.231231477483</ele>
        <time>2020-10-10T07:39:07.000Z</time>
      </trkpt>
      <trkpt lat="43.6154" lon="3.81755">
        <ele>41.331331545519</ele>
        <time>2020-10-10T07:39:08.000Z</time>
      </trkpt>
      <trkpt lat="43.61539" lon="3.8175">
        <ele>41.431431613555</ele>
        <time>2020-10-10T07:39:09.000Z</time>
      </trkpt>
      <trkpt lat="43.61537" lon="3.81746">
        <ele>41.531531681592</ele>
        <time>2020-10-10T07:39:10.000Z</time>
      </trkpt>
      <trkpt lat="43.61536" lon="3.81741">
        <ele>41.631631749628</ele>
        <time>2020-10-10T07:39:11.000Z</time>
      </trkpt>
      <trkpt lat="43.61535" lon="3.81735">
        <ele>41.731731817664</ele>
        <time>2020-10-10T07:39:12.000Z</time>
      </trkpt>
      <trkpt lat="43.61533" lon="3.8173">
        <ele>41.8318318857</ele>
        <time>2020-10-10T07:39:13.000Z</time>
      </trkpt>
      <trkpt lat="43.61532" lon="3.81725">
        <ele>41.931931953735</ele>
        <time>2020-10-10T07:39:14.000Z</time>
      </trkpt>
      <trkpt lat="43.61531" lon="3.8172">
        <ele>42</ele>
        <time>2020-10-10T07:39:15.000Z</time>
      </trkpt>
      <trkpt lat="43.61529" lon="3.81715">
        <ele>42</ele>
        <time>2020-10-10T07:39:16.000Z</time>
      </trkpt>
      <trkpt lat="43.61528" lon="3.81709">
        <ele>42</ele>
        <time>2020-10-10T07:39:17.000Z</time>
      </trkpt>
      <trkpt lat="43.61526" lon="3.81704">
        <ele>42</ele>
        <time>2020-10-10T07:39:18.000Z</time>
      </trkpt>
      <trkpt lat="43.61525" lon="3.81698">
        <ele>42</ele>
        <time>2020-10-10T07:39:19.000Z</time>
      </trkpt>
      <trkpt lat="43.61523" lon="3.81692">
        <ele>42</ele>
        <time>2020-10-10T07:39:20.000Z</time>
      </trkpt>
      <trkpt lat="43.61522" lon="3.81687">
        <ele>42</ele>
        <time>2020-10-10T07:39:21.000Z</time>
      </trkpt>
      <trkpt lat="43.6152" lon="3.81681">
        <ele>42</ele>
        <time>2020-10-10T07:39:22.000Z</time>
      </trkpt>
      <trkpt lat="43.61519" lon="3.81675">
        <ele>42</ele>
        <time>2020-10-10T07:39:23.000Z</time>
      </trkpt>
      <trkpt lat="43.61517" lon="3.81669">
        <ele>42</ele>
        <time>2020-10-10T07:39:24.000Z</time>
      </trkpt>
      <trkpt lat="43.61515" lon="3.81663">
        <ele>41.96899968</ele>
        <time>2020-10-10T07:39:25.000Z</time>
      </trkpt>
      <trkpt lat="43.61513" lon="3.81657">
        <ele>41.86899968</ele>
        <time>2020-10-10T07:39:26.000Z</time>
      </trkpt>
      <trkpt lat="43.61512" lon="3.81651">
        <ele>41.76899968</ele>
        <time>2020-10-10T07:39:27.000Z</time>
      </trkpt>
      <trkpt lat="43.6151" lon="3.81645">
        <ele>41.66899968</ele>
        <time>2020-10-10T07:39:28.000Z</time>
      </trkpt>
      <trkpt lat="43.61508" lon="3.8164">
        <ele>41.56899968</ele>
        <time>2020-10-10T07:39:29.000Z</time>
      </trkpt>
      <trkpt lat="43.61507" lon="3.81635">
        <ele>41.46899968</ele>
        <time>2020-10-10T07:39:30.000Z</time>
      </trkpt>
      <trkpt lat="43.61506" lon="3.8163">
        <ele>41.36899968</ele>
        <time>2020-10-10T07:39:31.000Z</time>
      </trkpt>
      <trkpt lat="43.61504" lon="3.81626">
        <ele>41.26899968</ele>
        <time>2020-10-10T07:39:32.000Z</time>
      </trkpt>
      <trkpt lat="43.61503" lon="3.81623">
        <ele>41.16899968</ele>
        <time>2020-10-10T07:39:33.000Z</time>
      </trkpt>
      <trkpt lat="43.61501" lon="3.81621">
        <ele>41.06899968</ele>
        <time>2020-10-10T07:39:34.000Z</time>
      </trkpt>
      <trkpt lat="43.61498" lon="3.81621">
        <ele>41</ele>
        <time>2020-10-10T07:39:35.000Z</time>
      </trkpt>
      <trkpt lat="43.61496" lon="3.81622">
        <ele>41</ele>
        <time>2020-10-10T07:39:36.000Z</time>
      </trkpt>
      <trkpt lat="43.61494" lon="3.81625">
        <ele>41</ele>
        <time>2020-10-10T07:39:37.000Z</time>
      </trkpt>
      <trkpt lat="43.61492" lon="3.81628">
        <ele>41</ele>
        <time>2020-10-10T07:39:38.000Z</time>
      </trkpt>
      <trkpt lat="43.6149" lon="3.8163">
        <ele>41</ele>
        <time>2020-10-10T07:39:39.000Z</time>
      </trkpt>
      <trkpt lat="43.61488" lon="3.81629">
        <ele>41</ele>
        <time>2020-10-10T07:39:40.000Z</time>
      </trkpt>
      <trkpt lat="43.61486" lon="3.81626">
        <ele>41</ele>
        <time>2020-10-10T07:39:41.000Z</time>
      </trkpt>
      <trkpt lat="43.61485" lon="3.81622">
        <ele>41</ele>
        <time>2020-10-10T07:39:42.000Z</time>
      </trkpt>
      <trkpt lat="43.61484" lon="3.81617">
        <ele>41</ele>
        <time>2020-10-10T07:39:43.000Z</time>
      </trkpt>
      <trkpt lat="43.61483" lon="3.81612">
        <ele>41</ele>
        <time>2020-10-10T07:39:44.000Z</time>
      </trkpt>
      <trkpt lat="43.61482" lon="3.81607">
        <ele>41.031031341411</ele>
        <time>2020-10-10T07:39:45.000Z</time>
      </trkpt>
      <trkpt lat="43.6148" lon="3.81602">
        <ele>41.131131409447</ele>
        <time>2020-10-10T07:39:46.000Z</time>
      </trkpt>
      <trkpt lat="43.61479" lon="3.81597">
        <ele>41.231231477483</ele>
        <time>2020-10-10T07:39:47.000Z</time>
      </trkpt>
      <trkpt lat="43.61477" lon="3.81593">
        <ele>41.331331545519</ele>
        <time>2020-10-10T07:39:48.000Z</time>
      </trkpt>
      <trkpt lat="43.61476" lon="3.81588">
        <ele>41.431431613555</ele>
        <time>2020-10-10T07:39:49.000Z</time>
      </trkpt>
      <trkpt lat="43.61475" lon="3.81584">
        <ele>41.531531681592</ele>
        <time>2020-10-10T07:39:50.000Z</time>
      </trkpt>
      <trkpt lat="43.61473" lon="3.8158">
        <ele>41.631631749628</ele>
        <time>2020-10-10T07:39:51.000Z</time>
      </trkpt>
      <trkpt lat="43.61472" lon="3.81576">
        <ele>41.731731817664</ele>
        <time>2020-10-10T07:39:52.000Z</time>
      </trkpt>
      <trkpt lat="43.61471" lon="3.81572">
        <ele>41.8318318857</ele>
        <time>2020-10-10T07:39:53.000Z</time>
      </trkpt>
      <trkpt lat="43.61471" lon="3.8157">
        <ele>41.931931953735</ele>
        <time>2020-10-10T07:39:54.000Z</time>
      </trkpt>
      <trkpt lat="43.6147" lon="3.81566">
        <ele>41.736</ele>
        <time>2020-10-10T07:39:56.000Z</time>
      </trkpt>
      <trkpt lat="43.61467" lon="3.81565">
        <ele>41.336</ele>
        <time>2020-10-10T07:39:58.000Z</time>
      </trkpt>
      <trkpt lat="43.61464" lon="3.81566">
        <ele>41.136</ele>
        <time>2020-10-10T07:39:59.000Z</time>
      </trkpt>
      <trkpt lat="43.61462" lon="3.8157">
        <ele>40.936</ele>
        <time>2020-10-10T07:40:00.000Z</time>
      </trkpt>
      <trkpt lat="43.61461" lon="3.81575">
        <ele>40.736</ele>
        <time>2020-10-10T07:40:01.000Z</time>
      </trkpt>
      <trkpt lat="43.6146" lon="3.81581">
        <ele>40.536</ele>
        <time>2020-10-10T07:40:02.000Z</time>
      </trkpt>
      <trkpt lat="43.61459" lon="3.81586">
        <ele>40.336</ele>
        <time>2020-10-10T07:40:03.000Z</time>
      </trkpt>
      <trkpt lat="43.61458" lon="3.8159">
        <ele>40.136</ele>
        <time>2020-10-10T07:40:04.000Z</time>
      </trkpt>
      <trkpt lat="43.61457" lon="3.81595">
        <ele>40</ele>
        <time>2020-10-10T07:40:05.000Z</time>
      </trkpt>
      <trkpt lat="43.61457" lon="3.81599">
        <ele>40</ele>
        <time>2020-10-10T07:40:06.000Z</time>
      </trkpt>
      <trkpt lat="43.61456" lon="3.81603">
        <ele>40</ele>
        <time>2020-10-10T07:40:07.000Z</time>
      </trkpt>
      <trkpt lat="43.61455" lon="3.81608">
        <ele>40</ele>
        <time>2020-10-10T07:40:08.000Z</time>
      </trkpt>
      <trkpt lat="43.61455" lon="3.81613">
        <ele>40</ele>
        <time>2020-10-10T07:40:09.000Z</time>
      </trkpt>
      <trkpt lat="43.61454" lon="3.81617">
        <ele>40</ele>
        <time>2020-10-10T07:40:10.000Z</time>
      </trkpt>
      <trkpt lat="43.61454" lon="3.8162">
        <ele>40</ele>
        <time>2020-10-10T07:40:11.000Z</time>
      </trkpt>
      <trkpt lat="43.61454" lon="3.81623">
        <ele>40</ele>
        <time>2020-10-10T07:40:12.000Z</time>
      </trkpt>
      <trkpt lat="43.61454" lon="3.81628">
        <ele>40</ele>
        <time>2020-10-10T07:40:14.000Z</time>
      </trkpt>
      <trkpt lat="43.61453" lon="3.81631">
        <ele>39.868131825976</ele>
        <time>2020-10-10T07:40:16.000Z</time>
      </trkpt>
      <trkpt lat="43.61452" lon="3.81636">
        <ele>39.668331562304</ele>
        <time>2020-10-10T07:40:18.000Z</time>
      </trkpt>
      <trkpt lat="43.61451" lon="3.81639">
        <ele>39.568431430468</ele>
        <time>2020-10-10T07:40:19.000Z</time>
      </trkpt>
      <trkpt lat="43.6145" lon="3.81643">
        <ele>39.468531298631</ele>
        <time>2020-10-10T07:40:20.000Z</time>
      </trkpt>
      <trkpt lat="43.61449" lon="3.81647">
        <ele>39.368631166795</ele>
        <time>2020-10-10T07:40:21.000Z</time>
      </trkpt>
      <trkpt lat="43.61448" lon="3.81652">
        <ele>39.268731034959</ele>
        <time>2020-10-10T07:40:22.000Z</time>
      </trkpt>
      <trkpt lat="43.61448" lon="3.81657">
        <ele>39.168830903123</ele>
        <time>2020-10-10T07:40:23.000Z</time>
      </trkpt>
      <trkpt lat="43.61449" lon="3.81661">
        <ele>39.068930771287</ele>
        <time>2020-10-10T07:40:24.000Z</time>
      </trkpt>
      <trkpt lat="43.6145" lon="3.81666">
        <ele>38.96899968</ele>
        <time>2020-10-10T07:40:25.000Z</time>
      </trkpt>
      <trkpt lat="43.6145" lon="3.81671">
        <ele>38.86899968</ele>
        <time>2020-10-10T07:40:26.000Z</time>
      </trkpt>
      <trkpt lat="43.61452" lon="3.81675">
        <ele>38.76899968</ele>
        <time>2020-10-10T07:40:27.000Z</time>
      </trkpt>
      <trkpt lat="43.61452" lon="3.81679">
        <ele>38.66899968</ele>
        <time>2020-10-10T07:40:28.000Z</time>
      </trkpt>
      <trkpt lat="43.61451" lon="3.81684">
        <ele>38.56899968</ele>
        <time>2020-10-10T07:40:29.000Z</time>
      </trkpt>
      <trkpt lat="43.61449" lon="3.81687">
        <ele>38.46899968</ele>
        <time>2020-10-10T07:40:30.000Z</time>
      </trkpt>
      <trkpt lat="43.61446" lon="3.8169">
        <ele>38.36899968</ele>
        <time>2020-10-10T07:40:31.000Z</time>
      </trkpt>
      <trkpt lat="43.61442" lon="3.81691">
        <ele>38.26899968</ele>
        <time>2020-10-10T07:40:32.000Z</time>
      </trkpt>
      <trkpt lat="43.61439" lon="3.81692">
        <ele>38.16899968</ele>
        <time>2020-10-10T07:40:33.000Z</time>
      </trkpt>
      <trkpt lat="43.61436" lon="3.81692">
        <ele>38.06899968</ele>
        <time>2020-10-10T07:40:34.000Z</time>
      </trkpt>
      <trkpt lat="43.61432" lon="3.81692">
        <ele>37.968968658589</ele>
        <time>2020-10-10T07:40:35.000Z</time>
      </trkpt>
      <trkpt lat="43.61429" lon="3.81692">
        <ele>37.868868590553</ele>
        <time>2020-10-10T07:40:36.000Z</time>
      </trkpt>
      <trkpt lat="43.61426" lon="3.81693">
        <ele>37.768768522517</ele>
        <time>2020-10-10T07:40:37.000Z</time>
      </trkpt>
      <trkpt lat="43.61422" lon="3.81694">
        <ele>37.668668454481</ele>
        <time>2020-10-10T07:40:38.000Z</time>
      </trkpt>
      <trkpt lat="43.6142" lon="3.81695">
        <ele>37.568568386445</ele>
        <time>2020-10-10T07:40:39.000Z</time>
      </trkpt>
      <trkpt lat="43.61417" lon="3.81696">
        <ele>37.468468318408</ele>
        <time>2020-10-10T07:40:40.000Z</time>
      </trkpt>
      <trkpt lat="43.61416" lon="3.81699">
        <ele>37.368368250372</ele>
        <time>2020-10-10T07:40:41.000Z</time>
      </trkpt>
      <trkpt lat="43.61416" lon="3.81702">
        <ele>37.268268182336</ele>
        <time>2020-10-10T07:40:42.000Z</time>
      </trkpt>
      <trkpt lat="43.61416" lon="3.81706">
        <ele>37.1681681143</ele>
        <time>2020-10-10T07:40:43.000Z</time>
      </trkpt>
      <trkpt lat="43.61415" lon="3.8171">
        <ele>37.068068046265</ele>
        <time>2020-10-10T07:40:44.000Z</time>
      </trkpt>
      <trkpt lat="43.61413" lon="3.81714">
        <ele>36.968031957812</ele>
        <time>2020-10-10T07:40:45.000Z</time>
      </trkpt>
      <trkpt lat="43.61412" lon="3.81718">
        <ele>36.868131825976</ele>
        <time>2020-10-10T07:40:46.000Z</time>
      </trkpt>
      <trkpt lat="43.6141" lon="3.81722">
        <ele>36.76823169414</ele>
        <time>2020-10-10T07:40:47.000Z</time>
      </trkpt>
      <trkpt lat="43.61407" lon="3.81726">
        <ele>36.668331562304</ele>
        <time>2020-10-10T07:40:48.000Z</time>
      </trkpt>
      <trkpt lat="43.61405" lon="3.8173">
        <ele>36.568431430468</ele>
        <time>2020-10-10T07:40:49.000Z</time>
      </trkpt>
      <trkpt lat="43.61404" lon="3.81732">
        <ele>36.468531298631</ele>
        <time>2020-10-10T07:40:50.000Z</time>
      </trkpt>
      <trkpt lat="43.61401" lon="3.81733">
        <ele>36.268731034959</ele>
        <time>2020-10-10T07:40:52.000Z</time>
      </trkpt>
      <trkpt lat="43.614" lon="3.81734">
        <ele>36.068930771287</ele>
        <time>2020-10-10T07:40:54.000Z</time>
      </trkpt>
      <trkpt lat="43.61397" lon="3.81735">
        <ele>36</ele>
        <time>2020-10-10T07:40:56.000Z</time>
      </trkpt>
      <trkpt lat="43.61394" lon="3.81737">
        <ele>36</ele>
        <time>2020-10-10T07:40:58.000Z</time>
      </trkpt>
      <trkpt lat="43.61392" lon="3.81737">
        <ele>36</ele>
        <time>2020-10-10T07:40:59.000Z</time>
      </trkpt>
      <trkpt lat="43.6139" lon="3.81738">
        <ele>36</ele>
        <time>2020-10-10T07:41:01.000Z</time>
      </trkpt>
      <trkpt lat="43.61388" lon="3.81739">
        <ele>36</ele>
        <time>2020-10-10T07:41:03.000Z</time>
      </trkpt>
      <trkpt lat="43.61385" lon="3.8174">
        <ele>36.131131409447</ele>
        <time>2020-10-10T07:41:06.000Z</time>
      </trkpt>
      <trkpt lat="43.61382" lon="3.81742">
        <ele>36.331331545519</ele>
        <time>2020-10-10T07:41:08.000Z</time>
      </trkpt>
      <trkpt lat="43.61379" lon="3.81744">
        <ele>36.431431613555</ele>
        <time>2020-10-10T07:41:09.000Z</time>
      </trkpt>
      <trkpt lat="43.61376" lon="3.81747">
        <ele>36.531531681592</ele>
        <time>2020-10-10T07:41:10.000Z</time>
      </trkpt>
      <trkpt lat="43.61373" lon="3.81748">
        <ele>36.631631749628</ele>
        <time>2020-10-10T07:41:11.000Z</time>
      </trkpt>
      <trkpt lat="43.61368" lon="3.8175">
        <ele>36.731731817664</ele>
        <time>2020-10-10T07:41:12.000Z</time>
      </trkpt>
      <trkpt lat="43.61364" lon="3.8175">
        <ele>36.8318318857</ele>
        <time>2020-10-10T07:41:13.000Z</time>
      </trkpt>
      <trkpt lat="43.6136" lon="3.81751">
        <ele>36.931931953735</ele>
        <time>2020-10-10T07:41:14.000Z</time>
      </trkpt>
      <trkpt lat="43.61356" lon="3.81752">
        <ele>37</ele>
        <time>2020-10-10T07:41:15.000Z</time>
      </trkpt>
      <trkpt lat="43.61351" lon="3.81753">
        <ele>37</ele>
        <time>2020-10-10T07:41:16.000Z</time>
      </trkpt>
      <trkpt lat="43.61347" lon="3.81754">
        <ele>37</ele>
        <time>2020-10-10T07:41:17.000Z</time>
      </trkpt>
      <trkpt lat="43.61343" lon="3.81755">
        <ele>37</ele>
        <time>2020-10-10T07:41:18.000Z</time>
      </trkpt>
      <trkpt lat="43.61339" lon="3.81755">
        <ele>37</ele>
        <time>2020-10-10T07:41:19.000Z</time>
      </trkpt>
      <trkpt lat="43.61335" lon="3.81755">
        <ele>37</ele>
        <time>2020-10-10T07:41:20.000Z</time>
      </trkpt>
      <trkpt lat="43.61331" lon="3.81756">
        <ele>37</ele>
        <time>2020-10-10T07:41:21.000Z</time>
      </trkpt>
      <trkpt lat="43.61327" lon="3.81756">
        <ele>37</ele>
        <time>2020-10-10T07:41:22.000Z</time>
      </trkpt>
      <trkpt lat="43.61324" lon="3.81756">
        <ele>37</ele>
        <time>2020-10-10T07:41:23.000Z</time>
      </trkpt>
      <trkpt lat="43.6132" lon="3.81756">
        <ele>37</ele>
        <time>2020-10-10T07:41:24.000Z</time>
      </trkpt>
      <trkpt lat="43.61316" lon="3.81757">
        <ele>37.032</ele>
        <time>2020-10-10T07:41:25.000Z</time>
      </trkpt>
      <trkpt lat="43.61312" lon="3.81757">
        <ele>37.132</ele>
        <time>2020-10-10T07:41:26.000Z</time>
      </trkpt>
      <trkpt lat="43.61309" lon="3.81758">
        <ele>37.232</ele>
        <time>2020-10-10T07:41:27.000Z</time>
      </trkpt>
      <trkpt lat="43.61305" lon="3.81758">
        <ele>37.332</ele>
        <time>2020-10-10T07:41:28.000Z</time>
      </trkpt>
      <trkpt lat="43.61301" lon="3.81758">
        <ele>37.432</ele>
        <time>2020-10-10T07:41:29.000Z</time>
      </trkpt>
      <trkpt lat="43.61297" lon="3.81758">
        <ele>37.532</ele>
        <time>2020-10-10T07:41:30.000Z</time>
      </trkpt>
      <trkpt lat="43.61293" lon="3.81758">
        <ele>37.632</ele>
        <time>2020-10-10T07:41:31.000Z</time>
      </trkpt>
      <trkpt lat="43.61289" lon="3.81759">
        <ele>37.732</ele>
        <time>2020-10-10T07:41:32.000Z</time>
      </trkpt>
      <trkpt lat="43.61285" lon="3.8176">
        <ele>37.832</ele>
        <time>2020-10-10T07:41:33.000Z</time>
      </trkpt>
      <trkpt lat="43.61281" lon="3.81761">
        <ele>37.932</ele>
        <time>2020-10-10T07:41:34.000Z</time>
      </trkpt>
      <trkpt lat="43.61277" lon="3.81761">
        <ele>38.031651819853</ele>
        <time>2020-10-10T07:41:35.000Z</time>
      </trkpt>
      <trkpt lat="43.61273" lon="3.81762">
        <ele>38.130563756894</ele>
        <time>2020-10-10T07:41:36.000Z</time>
      </trkpt>
      <trkpt lat="43.61269" lon="3.81763">
        <ele>38.229475693935</ele>
        <time>2020-10-10T07:41:37.000Z</time>
      </trkpt>
      <trkpt lat="43.61265" lon="3.81764">
        <ele>38.328387630975</ele>
        <time>2020-10-10T07:41:38.000Z</time>
      </trkpt>
      <trkpt lat="43.6126" lon="3.81765">
        <ele>38.427299568016</ele>
        <time>2020-10-10T07:41:39.000Z</time>
      </trkpt>
      <trkpt lat="43.61256" lon="3.81768">
        <ele>38.526211505057</ele>
        <time>2020-10-10T07:41:40.000Z</time>
      </trkpt>
      <trkpt lat="43.61252" lon="3.81771">
        <ele>38.625123442097</ele>
        <time>2020-10-10T07:41:41.000Z</time>
      </trkpt>
      <trkpt lat="43.61248" lon="3.81774">
        <ele>38.724035379138</ele>
        <time>2020-10-10T07:41:42.000Z</time>
      </trkpt>
      <trkpt lat="43.61243" lon="3.81777">
        <ele>38.822947316179</ele>
        <time>2020-10-10T07:41:43.000Z</time>
      </trkpt>
      <trkpt lat="43.61239" lon="3.8178">
        <ele>38.92185925322</ele>
        <time>2020-10-10T07:41:44.000Z</time>
      </trkpt>
      <trkpt lat="43.61235" lon="3.81783">
        <ele>39</ele>
        <time>2020-10-10T07:41:45.000Z</time>
      </trkpt>
      <trkpt lat="43.61231" lon="3.81786">
        <ele>39</ele>
        <time>2020-10-10T07:41:46.000Z</time>
      </trkpt>
      <trkpt lat="43.61226" lon="3.81789">
        <ele>39</ele>
        <time>2020-10-10T07:41:47.000Z</time>
      </trkpt>
      <trkpt lat="43.61222" lon="3.81792">
        <ele>39</ele>
        <time>2020-10-10T07:41:48.000Z</time>
      </trkpt>
      <trkpt lat="43.61218" lon="3.81795">
        <ele>39</ele>
        <time>2020-10-10T07:41:49.000Z</time>
      </trkpt>
      <trkpt lat="43.61214" lon="3.81798">
        <ele>39</ele>
        <time>2020-10-10T07:41:50.000Z</time>
      </trkpt>
      <trkpt lat="43.6121" lon="3.81801">
        <ele>39</ele>
        <time>2020-10-10T07:41:51.000Z</time>
      </trkpt>
      <trkpt lat="43.61206" lon="3.81805">
        <ele>39</ele>
        <time>2020-10-10T07:41:52.000Z</time>
      </trkpt>
      <trkpt lat="43.61203" lon="3.81808">
        <ele>39</ele>
        <time>2020-10-10T07:41:53.000Z</time>
      </trkpt>
      <trkpt lat="43.61199" lon="3.81811">
        <ele>39</ele>
        <time>2020-10-10T07:41:54.000Z</time>
      </trkpt>
      <trkpt lat="43.61195" lon="3.81814">
        <ele>39</ele>
        <time>2020-10-10T07:41:55.000Z</time>
      </trkpt>
      <trkpt lat="43.61191" lon="3.81817">
        <ele>39</ele>
        <time>2020-10-10T07:41:56.000Z</time>
      </trkpt>
      <trkpt lat="43.61188" lon="3.8182">
        <ele>39</ele>
        <time>2020-10-10T07:41:57.000Z</time>
      </trkpt>
      <trkpt lat="43.61184" lon="3.81823">
        <ele>39</ele>
        <time>2020-10-10T07:41:58.000Z</time>
      </trkpt>
      <trkpt lat="43.6118" lon="3.81826">
        <ele>39</ele>
        <time>2020-10-10T07:41:59.000Z</time>
      </trkpt>
      <trkpt lat="43.61177" lon="3.81828">
        <ele>39</ele>
        <time>2020-10-10T07:42:00.000Z</time>
      </trkpt>
      <trkpt lat="43.61173" lon="3.81831">
        <ele>39</ele>
        <time>2020-10-10T07:42:01.000Z</time>
      </trkpt>
      <trkpt lat="43.6117" lon="3.81834">
        <ele>39</ele>
        <time>2020-10-10T07:42:02.000Z</time>
      </trkpt>
      <trkpt lat="43.61167" lon="3.81837">
        <ele>39</ele>
        <time>2020-10-10T07:42:03.000Z</time>
      </trkpt>
      <trkpt lat="43.61163" lon="3.81839">
        <ele>39</ele>
        <time>2020-10-10T07:42:04.000Z</time>
      </trkpt>
      <trkpt lat="43.61159" lon="3.81841">
        <ele>38.993826502058</ele>
        <time>2020-10-10T07:42:05.000Z</time>
      </trkpt>
      <trkpt lat="43.61155" lon="3.81844">
        <ele>38.788065185185</ele>
        <time>2020-10-10T07:42:06.000Z</time>
      </trkpt>
      <trkpt lat="43.61151" lon="3.81846">
        <ele>38.582303868313</ele>
        <time>2020-10-10T07:42:07.000Z</time>
      </trkpt>
      <trkpt lat="43.61147" lon="3.81849">
        <ele>38.37654255144</ele>
        <time>2020-10-10T07:42:08.000Z</time>
      </trkpt>
      <trkpt lat="43.61143" lon="3.81852">
        <ele>38.170781234568</ele>
        <time>2020-10-10T07:42:09.000Z</time>
      </trkpt>
      <trkpt lat="43.6114" lon="3.81855">
        <ele>37.965019917695</ele>
        <time>2020-10-10T07:42:10.000Z</time>
      </trkpt>
      <trkpt lat="43.61136" lon="3.81858">
        <ele>37.759258600823</ele>
        <time>2020-10-10T07:42:11.000Z</time>
      </trkpt>
      <trkpt lat="43.61132" lon="3.81861">
        <ele>37.553497283951</ele>
        <time>2020-10-10T07:42:12.000Z</time>
      </trkpt>
      <trkpt lat="43.61128" lon="3.81863">
        <ele>37.347735967078</ele>
        <time>2020-10-10T07:42:13.000Z</time>
      </trkpt>
      <trkpt lat="43.61125" lon="3.81866">
        <ele>37.141974650206</ele>
        <time>2020-10-10T07:42:14.000Z</time>
      </trkpt>
      <trkpt lat="43.61122" lon="3.81868">
        <ele>37</ele>
        <time>2020-10-10T07:42:15.000Z</time>
      </trkpt>
      <trkpt lat="43.61119" lon="3.8187">
        <ele>37</ele>
        <time>2020-10-10T07:42:16.000Z</time>
      </trkpt>
      <trkpt lat="43.61115" lon="3.81871">
        <ele>37</ele>
        <time>2020-10-10T07:42:17.000Z</time>
      </trkpt>
      <trkpt lat="43.61112" lon="3.81872">
        <ele>37</ele>
        <time>2020-10-10T07:42:18.000Z</time>
      </trkpt>
      <trkpt lat="43.61108" lon="3.81874">
        <ele>37</ele>
        <time>2020-10-10T07:42:19.000Z</time>
      </trkpt>
      <trkpt lat="43.61104" lon="3.81875">
        <ele>37</ele>
        <time>2020-10-10T07:42:20.000Z</time>
      </trkpt>
      <trkpt lat="43.61101" lon="3.81877">
        <ele>37</ele>
        <time>2020-10-10T07:42:21.000Z</time>
      </trkpt>
      <trkpt lat="43.61097" lon="3.81879">
        <ele>37</ele>
        <time>2020-10-10T07:42:22.000Z</time>
      </trkpt>
      <trkpt lat="43.61093" lon="3.8188">
        <ele>37</ele>
        <time>2020-10-10T07:42:23.000Z</time>
      </trkpt>
      <trkpt lat="43.61089" lon="3.81882">
        <ele>37</ele>
        <time>2020-10-10T07:42:24.000Z</time>
      </trkpt>
      <trkpt lat="43.61085" lon="3.81883">
        <ele>36.96899968</ele>
        <time>2020-10-10T07:42:25.000Z</time>
      </trkpt>
      <trkpt lat="43.61082" lon="3.81884">
        <ele>36.86899968</ele>
        <time>2020-10-10T07:42:26.000Z</time>
      </trkpt>
      <trkpt lat="43.61078" lon="3.81885">
        <ele>36.76899968</ele>
        <time>2020-10-10T07:42:27.000Z</time>
      </trkpt>
      <trkpt lat="43.61074" lon="3.81885">
        <ele>36.66899968</ele>
        <time>2020-10-10T07:42:28.000Z</time>
      </trkpt>
      <trkpt lat="43.6107" lon="3.81887">
        <ele>36.56899968</ele>
        <time>2020-10-10T07:42:29.000Z</time>
      </trkpt>
      <trkpt lat="43.61066" lon="3.81888">
        <ele>36.46899968</ele>
        <time>2020-10-10T07:42:30.000Z</time>
      </trkpt>
      <trkpt lat="43.61062" lon="3.8189">
        <ele>36.36899968</ele>
        <time>2020-10-10T07:42:31.000Z</time>
      </trkpt>
      <trkpt lat="43.61058" lon="3.81892">
        <ele>36.26899968</ele>
        <time>2020-10-10T07:42:32.000Z</time>
      </trkpt>
      <trkpt lat="43.61055" lon="3.81894">
        <ele>36.16899968</ele>
        <time>2020-10-10T07:42:33.000Z</time>
      </trkpt>
      <trkpt lat="43.61051" lon="3.81896">
        <ele>36.06899968</ele>
        <time>2020-10-10T07:42:34.000Z</time>
      </trkpt>
      <trkpt lat="43.61047" lon="3.81898">
        <ele>36</ele>
        <time>2020-10-10T07:42:35.000Z</time>
      </trkpt>
      <trkpt lat="43.61043" lon="3.81899">
        <ele>36</ele>
        <time>2020-10-10T07:42:36.000Z</time>
      </trkpt>
      <trkpt lat="43.6104" lon="3.819">
        <ele>36</ele>
        <time>2020-10-10T07:42:37.000Z</time>
      </trkpt>
      <trkpt lat="43.61036" lon="3.81902">
        <ele>36</ele>
        <time>2020-10-10T07:42:38.000Z</time>
      </trkpt>
      <trkpt lat="43.61033" lon="3.81903">
        <ele>36</ele>
        <time>2020-10-10T07:42:39.000Z</time>
      </trkpt>
      <trkpt lat="43.61029" lon="3.81905">
        <ele>36</ele>
        <time>2020-10-10T07:42:40.000Z</time>
      </trkpt>
      <trkpt lat="43.61026" lon="3.81908">
        <ele>36</ele>
        <time>2020-10-10T07:42:41.000Z</time>
      </trkpt>
      <trkpt lat="43.61022" lon="3.8191">
        <ele>36</ele>
        <time>2020-10-10T07:42:42.000Z</time>
      </trkpt>
      <trkpt lat="43.61018" lon="3.81912">
        <ele>36</ele>
        <time>2020-10-10T07:42:43.000Z</time>
      </trkpt>
      <trkpt lat="43.61014" lon="3.81914">
        <ele>36</ele>
        <time>2020-10-10T07:42:44.000Z</time>
      </trkpt>
      <trkpt lat="43.6101" lon="3.81916">
        <ele>35.968031957812</ele>
        <time>2020-10-10T07:42:45.000Z</time>
      </trkpt>
      <trkpt lat="43.61007" lon="3.81917">
        <ele>35.868131825976</ele>
        <time>2020-10-10T07:42:46.000Z</time>
      </trkpt>
      <trkpt lat="43.61005" lon="3.81918">
        <ele>35.76823169414</ele>
        <time>2020-10-10T07:42:47.000Z</time>
      </trkpt>
      <trkpt lat="43.61003" lon="3.81918">
        <ele>35.668331562304</ele>
        <time>2020-10-10T07:42:48.000Z</time>
      </trkpt>
      <trkpt lat="43.61" lon="3.81918">
        <ele>35.468531298631</ele>
        <time>2020-10-10T07:42:50.000Z</time>
      </trkpt>
      <trkpt lat="43.60999" lon="3.81921">
        <ele>35.268731034959</ele>
        <time>2020-10-10T07:42:52.000Z</time>
      </trkpt>
      <trkpt lat="43.60998" lon="3.81925">
        <ele>35.068930771287</ele>
        <time>2020-10-10T07:42:54.000Z</time>
      </trkpt>
      <trkpt lat="43.60997" lon="3.81927">
        <ele>35</ele>
        <time>2020-10-10T07:42:55.000Z</time>
      </trkpt>
      <trkpt lat="43.60995" lon="3.81929">
        <ele>35</ele>
        <time>2020-10-10T07:42:56.000Z</time>
      </trkpt>
      <trkpt lat="43.60992" lon="3.8193">
        <ele>35</ele>
        <time>2020-10-10T07:42:57.000Z</time>
      </trkpt>
      <trkpt lat="43.6099" lon="3.81931">
        <ele>35</ele>
        <time>2020-10-10T07:42:58.000Z</time>
      </trkpt>
      <trkpt lat="43.60988" lon="3.81931">
        <ele>35</ele>
        <time>2020-10-10T07:42:59.000Z</time>
      </trkpt>
      <trkpt lat="43.60986" lon="3.81932">
        <ele>35</ele>
        <time>2020-10-10T07:43:00.000Z</time>
      </trkpt>
      <trkpt lat="43.60984" lon="3.81932">
        <ele>35</ele>
        <time>2020-10-10T07:43:01.000Z</time>
      </trkpt>
      <trkpt lat="43.60981" lon="3.81933">
        <ele>35</ele>
        <time>2020-10-10T07:43:02.000Z</time>
      </trkpt>
      <trkpt lat="43.60979" lon="3.81933">
        <ele>35</ele>
        <time>2020-10-10T07:43:03.000Z</time>
      </trkpt>
      <trkpt lat="43.60976" lon="3.81934">
        <ele>35</ele>
        <time>2020-10-10T07:43:04.000Z</time>
      </trkpt>
      <trkpt lat="43.60973" lon="3.81936">
        <ele>35</ele>
        <time>2020-10-10T07:43:05.000Z</time>
      </trkpt>
      <trkpt lat="43.6097" lon="3.81936">
        <ele>35</ele>
        <time>2020-10-10T07:43:06.000Z</time>
      </trkpt>
      <trkpt lat="43.60968" lon="3.81937">
        <ele>35</ele>
        <time>2020-10-10T07:43:07.000Z</time>
      </trkpt>
      <trkpt lat="43.60966" lon="3.81938">
        <ele>35</ele>
        <time>2020-10-10T07:43:08.000Z</time>
      </trkpt>
      <trkpt lat="43.60963" lon="3.81939">
        <ele>35</ele>
        <time>2020-10-10T07:43:09.000Z</time>
      </trkpt>
      <trkpt lat="43.60961" lon="3.81939">
        <ele>35</ele>
        <time>2020-10-10T07:43:10.000Z</time>
      </trkpt>
      <trkpt lat="43.60958" lon="3.8194">
        <ele>35</ele>
        <time>2020-10-10T07:43:11.000Z</time>
      </trkpt>
      <trkpt lat="43.60956" lon="3.8194">
        <ele>35</ele>
        <time>2020-10-10T07:43:12.000Z</time>
      </trkpt>
      <trkpt lat="43.60953" lon="3.81941">
        <ele>35</ele>
        <time>2020-10-10T07:43:13.000Z</time>
      </trkpt>
      <trkpt lat="43.6095" lon="3.81941">
        <ele>35</ele>
        <time>2020-10-10T07:43:14.000Z</time>
      </trkpt>
      <trkpt lat="43.60948" lon="3.81941">
        <ele>34.969940501765</ele>
        <time>2020-10-10T07:43:15.000Z</time>
      </trkpt>
      <trkpt lat="43.60946" lon="3.81941">
        <ele>34.869740036707</ele>
        <time>2020-10-10T07:43:16.000Z</time>
      </trkpt>
      <trkpt lat="43.60943" lon="3.8194">
        <ele>34.66933910659</ele>
        <time>2020-10-10T07:43:18.000Z</time>
      </trkpt>
      <trkpt lat="43.6094" lon="3.8194">
        <ele>34.468938176473</ele>
        <time>2020-10-10T07:43:20.000Z</time>
      </trkpt>
      <trkpt lat="43.60937" lon="3.81944">
        <ele>34.268537246357</ele>
        <time>2020-10-10T07:43:22.000Z</time>
      </trkpt>
      <trkpt lat="43.60935" lon="3.81946">
        <ele>34.168336781298</ele>
        <time>2020-10-10T07:43:23.000Z</time>
      </trkpt>
      <trkpt lat="43.60932" lon="3.81948">
        <ele>34.06813631624</ele>
        <time>2020-10-10T07:43:24.000Z</time>
      </trkpt>
      <trkpt lat="43.60929" lon="3.81949">
        <ele>34</ele>
        <time>2020-10-10T07:43:25.000Z</time>
      </trkpt>
      <trkpt lat="43.60927" lon="3.8195">
        <ele>34</ele>
        <time>2020-10-10T07:43:26.000Z</time>
      </trkpt>
      <trkpt lat="43.60925" lon="3.8195">
        <ele>34</ele>
        <time>2020-10-10T07:43:27.000Z</time>
      </trkpt>
      <trkpt lat="43.60922" lon="3.81951">
        <ele>34</ele>
        <time>2020-10-10T07:43:29.000Z</time>
      </trkpt>
      <trkpt lat="43.60919" lon="3.81951">
        <ele>34</ele>
        <time>2020-10-10T07:43:31.000Z</time>
      </trkpt>
      <trkpt lat="43.60917" lon="3.81952">
        <ele>34</ele>
        <time>2020-10-10T07:43:33.000Z</time>
      </trkpt>
      <trkpt lat="43.60915" lon="3.81951">
        <ele>34</ele>
        <time>2020-10-10T07:43:36.000Z</time>
      </trkpt>
      <trkpt lat="43.60912" lon="3.81953">
        <ele>34</ele>
        <time>2020-10-10T07:43:39.000Z</time>
      </trkpt>
      <trkpt lat="43.60909" lon="3.81954">
        <ele>34</ele>
        <time>2020-10-10T07:43:41.000Z</time>
      </trkpt>
      <trkpt lat="43.60907" lon="3.81955">
        <ele>34</ele>
        <time>2020-10-10T07:43:42.000Z</time>
      </trkpt>
      <trkpt lat="43.60905" lon="3.81955">
        <ele>34</ele>
        <time>2020-10-10T07:43:43.000Z</time>
      </trkpt>
      <trkpt lat="43.60902" lon="3.81956">
        <ele>34</ele>
        <time>2020-10-10T07:43:44.000Z</time>
      </trkpt>
      <trkpt lat="43.609" lon="3.81957">
        <ele>34</ele>
        <time>2020-10-10T07:43:45.000Z</time>
      </trkpt>
      <trkpt lat="43.60897" lon="3.81958">
        <ele>34</ele>
        <time>2020-10-10T07:43:46.000Z</time>
      </trkpt>
      <trkpt lat="43.60895" lon="3.81959">
        <ele>34</ele>
        <time>2020-10-10T07:43:47.000Z</time>
      </trkpt>
      <trkpt lat="43.60892" lon="3.8196">
        <ele>34</ele>
        <time>2020-10-10T07:43:48.000Z</time>
      </trkpt>
      <trkpt lat="43.6089" lon="3.81962">
        <ele>34</ele>
        <time>2020-10-10T07:43:49.000Z</time>
      </trkpt>
      <trkpt lat="43.60888" lon="3.81962">
        <ele>34</ele>
        <time>2020-10-10T07:43:50.000Z</time>
      </trkpt>
      <trkpt lat="43.60886" lon="3.81962">
        <ele>34</ele>
        <time>2020-10-10T07:43:51.000Z</time>
      </trkpt>
      <trkpt lat="43.60884" lon="3.81962">
        <ele>34</ele>
        <time>2020-10-10T07:43:53.000Z</time>
      </trkpt>
      <trkpt lat="43.60882" lon="3.81962">
        <ele>34</ele>
        <time>2020-10-10T07:43:55.000Z</time>
      </trkpt>
      <trkpt lat="43.60879" lon="3.81962">
        <ele>34</ele>
        <time>2020-10-10T07:43:58.000Z</time>
      </trkpt>
      <trkpt lat="43.60878" lon="3.8196">
        <ele>34</ele>
        <time>2020-10-10T07:44:00.000Z</time>
      </trkpt>
      <trkpt lat="43.60877" lon="3.81957">
        <ele>34</ele>
        <time>2020-10-10T07:44:03.000Z</time>
      </trkpt>
      <trkpt lat="43.60876" lon="3.81956">
        <ele>34</ele>
        <time>2020-10-10T07:44:08.000Z</time>
      </trkpt>
      <trkpt lat="43.6087" lon="3.81942">
        <ele>33.007977911012</ele>
        <time>2020-10-10T07:44:37.000Z</time>
      </trkpt>
      <trkpt lat="43.60868" lon="3.81942">
        <ele>33</ele>
        <time>2020-10-10T07:44:38.000Z</time>
      </trkpt>
      <trkpt lat="43.60865" lon="3.81942">
        <ele>33</ele>
        <time>2020-10-10T07:44:39.000Z</time>
      </trkpt>
      <trkpt lat="43.60863" lon="3.81942">
        <ele>33</ele>
        <time>2020-10-10T07:44:40.000Z</time>
      </trkpt>
      <trkpt lat="43.6086" lon="3.81943">
        <ele>33</ele>
        <time>2020-10-10T07:44:41.000Z</time>
      </trkpt>
      <trkpt lat="43.60858" lon="3.81943">
        <ele>33</ele>
        <time>2020-10-10T07:44:42.000Z</time>
      </trkpt>
      <trkpt lat="43.60854" lon="3.81944">
        <ele>33</ele>
        <time>2020-10-10T07:44:43.000Z</time>
      </trkpt>
      <trkpt lat="43.6085" lon="3.81944">
        <ele>33</ele>
        <time>2020-10-10T07:44:44.000Z</time>
      </trkpt>
      <trkpt lat="43.60846" lon="3.81945">
        <ele>33</ele>
        <time>2020-10-10T07:44:45.000Z</time>
      </trkpt>
      <trkpt lat="43.60842" lon="3.81945">
        <ele>33</ele>
        <time>2020-10-10T07:44:46.000Z</time>
      </trkpt>
      <trkpt lat="43.60838" lon="3.81944">
        <ele>32.96981469295</ele>
        <time>2020-10-10T07:44:47.000Z</time>
      </trkpt>
      <trkpt lat="43.60834" lon="3.81944">
        <ele>32.872443739842</ele>
        <time>2020-10-10T07:44:48.000Z</time>
      </trkpt>
      <trkpt lat="43.60829" lon="3.81943">
        <ele>32.775072786735</ele>
        <time>2020-10-10T07:44:49.000Z</time>
      </trkpt>
      <trkpt lat="43.60825" lon="3.81943">
        <ele>32.677701833628</ele>
        <time>2020-10-10T07:44:50.000Z</time>
      </trkpt>
      <trkpt lat="43.60821" lon="3.81943">
        <ele>32.58033088052</ele>
        <time>2020-10-10T07:44:51.000Z</time>
      </trkpt>
      <trkpt lat="43.60818" lon="3.81942">
        <ele>32.482959927413</ele>
        <time>2020-10-10T07:44:52.000Z</time>
      </trkpt>
      <trkpt lat="43.60815" lon="3.81941">
        <ele>32.385588974305</ele>
        <time>2020-10-10T07:44:53.000Z</time>
      </trkpt>
      <trkpt lat="43.60812" lon="3.81941">
        <ele>32.288218021198</ele>
        <time>2020-10-10T07:44:54.000Z</time>
      </trkpt>
      <trkpt lat="43.60808" lon="3.8194">
        <ele>32.19084706809</ele>
        <time>2020-10-10T07:44:55.000Z</time>
      </trkpt>
      <trkpt lat="43.60805" lon="3.81939">
        <ele>32.093476114983</ele>
        <time>2020-10-10T07:44:56.000Z</time>
      </trkpt>
      <trkpt lat="43.60803" lon="3.81939">
        <ele>32</ele>
        <time>2020-10-10T07:44:57.000Z</time>
      </trkpt>
      <trkpt lat="43.608" lon="3.81939">
        <ele>32</ele>
        <time>2020-10-10T07:44:58.000Z</time>
      </trkpt>
      <trkpt lat="43.60798" lon="3.81938">
        <ele>32</ele>
        <time>2020-10-10T07:44:59.000Z</time>
      </trkpt>
      <trkpt lat="43.60796" lon="3.81937">
        <ele>32</ele>
        <time>2020-10-10T07:45:00.000Z</time>
      </trkpt>
      <trkpt lat="43.60794" lon="3.81935">
        <ele>32</ele>
        <time>2020-10-10T07:45:01.000Z</time>
      </trkpt>
      <trkpt lat="43.60791" lon="3.81934">
        <ele>32</ele>
        <time>2020-10-10T07:45:02.000Z</time>
      </trkpt>
      <trkpt lat="43.60789" lon="3.81932">
        <ele>32</ele>
        <time>2020-10-10T07:45:03.000Z</time>
      </trkpt>
      <trkpt lat="43.60787" lon="3.8193">
        <ele>32</ele>
        <time>2020-10-10T07:45:04.000Z</time>
      </trkpt>
      <trkpt lat="43.60784" lon="3.81928">
        <ele>32</ele>
        <time>2020-10-10T07:45:05.000Z</time>
      </trkpt>
      <trkpt lat="43.60781" lon="3.81926">
        <ele>32</ele>
        <time>2020-10-10T07:45:06.000Z</time>
      </trkpt>
      <trkpt lat="43.60778" lon="3.81924">
        <ele>32.016243660099</ele>
        <time>2020-10-10T07:45:07.000Z</time>
      </trkpt>
      <trkpt lat="43.60776" lon="3.81922">
        <ele>32.117766535721</ele>
        <time>2020-10-10T07:45:08.000Z</time>
      </trkpt>
      <trkpt lat="43.60773" lon="3.8192">
        <ele>32.219289411343</ele>
        <time>2020-10-10T07:45:09.000Z</time>
      </trkpt>
      <trkpt lat="43.60771" lon="3.81918">
        <ele>32.320812286964</ele>
        <time>2020-10-10T07:45:10.000Z</time>
      </trkpt>
      <trkpt lat="43.60769" lon="3.81916">
        <ele>32.422335162586</ele>
        <time>2020-10-10T07:45:11.000Z</time>
      </trkpt>
      <trkpt lat="43.60767" lon="3.81914">
        <ele>32.523858038208</ele>
        <time>2020-10-10T07:45:12.000Z</time>
      </trkpt>
      <trkpt lat="43.60764" lon="3.81912">
        <ele>32.625380913829</ele>
        <time>2020-10-10T07:45:13.000Z</time>
      </trkpt>
      <trkpt lat="43.60762" lon="3.8191">
        <ele>32.726903789451</ele>
        <time>2020-10-10T07:45:14.000Z</time>
      </trkpt>
      <trkpt lat="43.6076" lon="3.81907">
        <ele>32.828426665073</ele>
        <time>2020-10-10T07:45:15.000Z</time>
      </trkpt>
      <trkpt lat="43.60757" lon="3.81904">
        <ele>32.929949540694</ele>
        <time>2020-10-10T07:45:16.000Z</time>
      </trkpt>
      <trkpt lat="43.60755" lon="3.81902">
        <ele>33</ele>
        <time>2020-10-10T07:45:17.000Z</time>
      </trkpt>
      <trkpt lat="43.60752" lon="3.81899">
        <ele>33</ele>
        <time>2020-10-10T07:45:18.000Z</time>
      </trkpt>
      <trkpt lat="43.6075" lon="3.81897">
        <ele>33</ele>
        <time>2020-10-10T07:45:19.000Z</time>
      </trkpt>
      <trkpt lat="43.60748" lon="3.81894">
        <ele>33</ele>
        <time>2020-10-10T07:45:20.000Z</time>
      </trkpt>
      <trkpt lat="43.60746" lon="3.8189">
        <ele>33</ele>
        <time>2020-10-10T07:45:21.000Z</time>
      </trkpt>
      <trkpt lat="43.60744" lon="3.81887">
        <ele>33</ele>
        <time>2020-10-10T07:45:22.000Z</time>
      </trkpt>
      <trkpt lat="43.60742" lon="3.81884">
        <ele>33</ele>
        <time>2020-10-10T07:45:23.000Z</time>
      </trkpt>
      <trkpt lat="43.6074" lon="3.81881">
        <ele>33</ele>
        <time>2020-10-10T07:45:24.000Z</time>
      </trkpt>
      <trkpt lat="43.60739" lon="3.81878">
        <ele>33</ele>
        <time>2020-10-10T07:45:25.000Z</time>
      </trkpt>
      <trkpt lat="43.60737" lon="3.81875">
        <ele>33</ele>
        <time>2020-10-10T07:45:26.000Z</time>
      </trkpt>
      <trkpt lat="43.60735" lon="3.81872">
        <ele>33</ele>
        <time>2020-10-10T07:45:27.000Z</time>
      </trkpt>
      <trkpt lat="43.60734" lon="3.81869">
        <ele>33</ele>
        <time>2020-10-10T07:45:28.000Z</time>
      </trkpt>
      <trkpt lat="43.60733" lon="3.81867">
        <ele>33</ele>
        <time>2020-10-10T07:45:29.000Z</time>
      </trkpt>
      <trkpt lat="43.60731" lon="3.81864">
        <ele>33</ele>
        <time>2020-10-10T07:45:30.000Z</time>
      </trkpt>
      <trkpt lat="43.60729" lon="3.81861">
        <ele>33</ele>
        <time>2020-10-10T07:45:31.000Z</time>
      </trkpt>
      <trkpt lat="43.60728" lon="3.81859">
        <ele>33</ele>
        <time>2020-10-10T07:45:32.000Z</time>
      </trkpt>
      <trkpt lat="43.60726" lon="3.81856">
        <ele>33</ele>
        <time>2020-10-10T07:45:33.000Z</time>
      </trkpt>
      <trkpt lat="43.60724" lon="3.81853">
        <ele>33</ele>
        <time>2020-10-10T07:45:34.000Z</time>
      </trkpt>
      <trkpt lat="43.60722" lon="3.81849">
        <ele>33</ele>
        <time>2020-10-10T07:45:35.000Z</time>
      </trkpt>
      <trkpt lat="43.6072" lon="3.81847">
        <ele>33</ele>
        <time>2020-10-10T07:45:36.000Z</time>
      </trkpt>
      <trkpt lat="43.60719" lon="3.81844">
        <ele>33</ele>
        <time>2020-10-10T07:45:37.000Z</time>
      </trkpt>
      <trkpt lat="43.60717" lon="3.81841">
        <ele>33</ele>
        <time>2020-10-10T07:45:38.000Z</time>
      </trkpt>
      <trkpt lat="43.60715" lon="3.81838">
        <ele>33</ele>
        <time>2020-10-10T07:45:39.000Z</time>
      </trkpt>
      <trkpt lat="43.60713" lon="3.81834">
        <ele>33</ele>
        <time>2020-10-10T07:45:40.000Z</time>
      </trkpt>
      <trkpt lat="43.60711" lon="3.81831">
        <ele>33</ele>
        <time>2020-10-10T07:45:41.000Z</time>
      </trkpt>
      <trkpt lat="43.60709" lon="3.81828">
        <ele>33</ele>
        <time>2020-10-10T07:45:42.000Z</time>
      </trkpt>
      <trkpt lat="43.60707" lon="3.81825">
        <ele>33</ele>
        <time>2020-10-10T07:45:43.000Z</time>
      </trkpt>
      <trkpt lat="43.60705" lon="3.81821">
        <ele>33</ele>
        <time>2020-10-10T07:45:44.000Z</time>
      </trkpt>
      <trkpt lat="43.60703" lon="3.81818">
        <ele>33</ele>
        <time>2020-10-10T07:45:45.000Z</time>
      </trkpt>
      <trkpt lat="43.60701" lon="3.81815">
        <ele>33</ele>
        <time>2020-10-10T07:45:46.000Z</time>
      </trkpt>
      <trkpt lat="43.60699" lon="3.81811">
        <ele>33</ele>
        <time>2020-10-10T07:45:47.000Z</time>
      </trkpt>
      <trkpt lat="43.60698" lon="3.81808">
        <ele>33</ele>
        <time>2020-10-10T07:45:48.000Z</time>
      </trkpt>
      <trkpt lat="43.60696" lon="3.81806">
        <ele>33</ele>
        <time>2020-10-10T07:45:49.000Z</time>
      </trkpt>
      <trkpt lat="43.60695" lon="3.81803">
        <ele>33</ele>
        <time>2020-10-10T07:45:50.000Z</time>
      </trkpt>
      <trkpt lat="43.60694" lon="3.81801">
        <ele>33</ele>
        <time>2020-10-10T07:45:51.000Z</time>
      </trkpt>
      <trkpt lat="43.60692" lon="3.81798">
        <ele>33</ele>
        <time>2020-10-10T07:45:52.000Z</time>
      </trkpt>
      <trkpt lat="43.60691" lon="3.81796">
        <ele>33</ele>
        <time>2020-10-10T07:45:53.000Z</time>
      </trkpt>
      <trkpt lat="43.6069" lon="3.81793">
        <ele>33</ele>
        <time>2020-10-10T07:45:54.000Z</time>
      </trkpt>
      <trkpt lat="43.60688" lon="3.81791">
        <ele>33</ele>
        <time>2020-10-10T07:45:55.000Z</time>
      </trkpt>
      <trkpt lat="43.60686" lon="3.81789">
        <ele>33</ele>
        <time>2020-10-10T07:45:56.000Z</time>
      </trkpt>
      <trkpt lat="43.60685" lon="3.81787">
        <ele>33</ele>
        <time>2020-10-10T07:45:57.000Z</time>
      </trkpt>
      <trkpt lat="43.60682" lon="3.81787">
        <ele>33</ele>
        <time>2020-10-10T07:45:58.000Z</time>
      </trkpt>
      <trkpt lat="43.6068" lon="3.81788">
        <ele>33</ele>
        <time>2020-10-10T07:45:59.000Z</time>
      </trkpt>
      <trkpt lat="43.60677" lon="3.81791">
        <ele>33</ele>
        <time>2020-10-10T07:46:00.000Z</time>
      </trkpt>
      <trkpt lat="43.60675" lon="3.81793">
        <ele>33</ele>
        <time>2020-10-10T07:46:01.000Z</time>
      </trkpt>
      <trkpt lat="43.60672" lon="3.81797">
        <ele>33</ele>
        <time>2020-10-10T07:46:02.000Z</time>
      </trkpt>
      <trkpt lat="43.6067" lon="3.81801">
        <ele>33</ele>
        <time>2020-10-10T07:46:03.000Z</time>
      </trkpt>
      <trkpt lat="43.60668" lon="3.81804">
        <ele>33</ele>
        <time>2020-10-10T07:46:04.000Z</time>
      </trkpt>
      <trkpt lat="43.60658" lon="3.8184">
        <ele>33.864</ele>
        <time>2020-10-10T07:46:11.000Z</time>
      </trkpt>
      <trkpt lat="43.60647" lon="3.81843">
        <ele>34.064</ele>
        <time>2020-10-10T07:46:12.000Z</time>
      </trkpt>
      <trkpt lat="43.60639" lon="3.8185">
        <ele>34.664</ele>
        <time>2020-10-10T07:46:15.000Z</time>
      </trkpt>
      <trkpt lat="43.60639" lon="3.81855">
        <ele>35.287268670374</ele>
        <time>2020-10-10T07:46:18.000Z</time>
      </trkpt>
      <trkpt lat="43.60638" lon="3.81857">
        <ele>36.157779792721</ele>
        <time>2020-10-10T07:46:22.000Z</time>
      </trkpt>
      <trkpt lat="43.60638" lon="3.81857">
        <ele>36.988571428571</ele>
        <time>2020-10-10T07:46:26.000Z</time>
      </trkpt>
      <trkpt lat="43.60633" lon="3.81861">
        <ele>35.978482622951</ele>
        <time>2020-10-10T07:46:33.000Z</time>
      </trkpt>
      <trkpt lat="43.60631" lon="3.81863">
        <ele>35.67110557377</ele>
        <time>2020-10-10T07:46:34.000Z</time>
      </trkpt>
      <trkpt lat="43.60628" lon="3.81865">
        <ele>35.05635147541</ele>
        <time>2020-10-10T07:46:36.000Z</time>
      </trkpt>
      <trkpt lat="43.60626" lon="3.81867">
        <ele>34.441597377049</ele>
        <time>2020-10-10T07:46:38.000Z</time>
      </trkpt>
      <trkpt lat="43.60625" lon="3.81869">
        <ele>33.826843278689</ele>
        <time>2020-10-10T07:46:40.000Z</time>
      </trkpt>
      <trkpt lat="43.60624" lon="3.81871">
        <ele>33.519466229508</ele>
        <time>2020-10-10T07:46:41.000Z</time>
      </trkpt>
      <trkpt lat="43.60622" lon="3.81873">
        <ele>33.212089180328</ele>
        <time>2020-10-10T07:46:42.000Z</time>
      </trkpt>
      <trkpt lat="43.60621" lon="3.81876">
        <ele>32.969577713185</ele>
        <time>2020-10-10T07:46:43.000Z</time>
      </trkpt>
      <trkpt lat="43.60619" lon="3.81878">
        <ele>32.871442317113</ele>
        <time>2020-10-10T07:46:44.000Z</time>
      </trkpt>
      <trkpt lat="43.60618" lon="3.81881">
        <ele>32.773306921042</ele>
        <time>2020-10-10T07:46:45.000Z</time>
      </trkpt>
      <trkpt lat="43.60616" lon="3.81885">
        <ele>32.675171524971</ele>
        <time>2020-10-10T07:46:46.000Z</time>
      </trkpt>
      <trkpt lat="43.60615" lon="3.81888">
        <ele>32.577036128899</ele>
        <time>2020-10-10T07:46:47.000Z</time>
      </trkpt>
      <trkpt lat="43.60613" lon="3.81891">
        <ele>32.478900732828</ele>
        <time>2020-10-10T07:46:48.000Z</time>
      </trkpt>
      <trkpt lat="43.60611" lon="3.81895">
        <ele>32.380765336757</ele>
        <time>2020-10-10T07:46:49.000Z</time>
      </trkpt>
      <trkpt lat="43.60609" lon="3.81898">
        <ele>32.282629940685</ele>
        <time>2020-10-10T07:46:50.000Z</time>
      </trkpt>
      <trkpt lat="43.60607" lon="3.81901">
        <ele>32.184494544614</ele>
        <time>2020-10-10T07:46:51.000Z</time>
      </trkpt>
      <trkpt lat="43.60606" lon="3.81904">
        <ele>32.086359148543</ele>
        <time>2020-10-10T07:46:52.000Z</time>
      </trkpt>
      <trkpt lat="43.60604" lon="3.81907">
        <ele>31.987767580108</ele>
        <time>2020-10-10T07:46:53.000Z</time>
      </trkpt>
      <trkpt lat="43.60603" lon="3.8191">
        <ele>31.885830747672</ele>
        <time>2020-10-10T07:46:54.000Z</time>
      </trkpt>
      <trkpt lat="43.60601" lon="3.81914">
        <ele>31.783893915235</ele>
        <time>2020-10-10T07:46:55.000Z</time>
      </trkpt>
      <trkpt lat="43.60599" lon="3.81918">
        <ele>31.681957082799</ele>
        <time>2020-10-10T07:46:56.000Z</time>
      </trkpt>
      <trkpt lat="43.60597" lon="3.81922">
        <ele>31.580020250363</ele>
        <time>2020-10-10T07:46:57.000Z</time>
      </trkpt>
      <trkpt lat="43.60594" lon="3.81926">
        <ele>31.478083417927</ele>
        <time>2020-10-10T07:46:58.000Z</time>
      </trkpt>
      <trkpt lat="43.60592" lon="3.81929">
        <ele>31.376146585491</ele>
        <time>2020-10-10T07:46:59.000Z</time>
      </trkpt>
      <trkpt lat="43.60589" lon="3.81933">
        <ele>31.274209753055</ele>
        <time>2020-10-10T07:47:00.000Z</time>
      </trkpt>
      <trkpt lat="43.60586" lon="3.81935">
        <ele>31.172272920619</ele>
        <time>2020-10-10T07:47:01.000Z</time>
      </trkpt>
      <trkpt lat="43.60582" lon="3.81937">
        <ele>31.070336088183</ele>
        <time>2020-10-10T07:47:02.000Z</time>
      </trkpt>
      <trkpt lat="43.60579" lon="3.81937">
        <ele>30.96899968</ele>
        <time>2020-10-10T07:47:03.000Z</time>
      </trkpt>
      <trkpt lat="43.60575" lon="3.81937">
        <ele>30.86899968</ele>
        <time>2020-10-10T07:47:04.000Z</time>
      </trkpt>
      <trkpt lat="43.60571" lon="3.81935">
        <ele>30.76899968</ele>
        <time>2020-10-10T07:47:05.000Z</time>
      </trkpt>
      <trkpt lat="43.60568" lon="3.81933">
        <ele>30.66899968</ele>
        <time>2020-10-10T07:47:06.000Z</time>
      </trkpt>
      <trkpt lat="43.60565" lon="3.8193">
        <ele>30.56899968</ele>
        <time>2020-10-10T07:47:07.000Z</time>
      </trkpt>
      <trkpt lat="43.60562" lon="3.81928">
        <ele>30.46899968</ele>
        <time>2020-10-10T07:47:08.000Z</time>
      </trkpt>
      <trkpt lat="43.60559" lon="3.81925">
        <ele>30.36899968</ele>
        <time>2020-10-10T07:47:09.000Z</time>
      </trkpt>
      <trkpt lat="43.60556" lon="3.81922">
        <ele>30.26899968</ele>
        <time>2020-10-10T07:47:10.000Z</time>
      </trkpt>
      <trkpt lat="43.60553" lon="3.81919">
        <ele>30.16899968</ele>
        <time>2020-10-10T07:47:11.000Z</time>
      </trkpt>
      <trkpt lat="43.6055" lon="3.81916">
        <ele>30.06899968</ele>
        <time>2020-10-10T07:47:12.000Z</time>
      </trkpt>
      <trkpt lat="43.60547" lon="3.81912">
        <ele>30</ele>
        <time>2020-10-10T07:47:13.000Z</time>
      </trkpt>
      <trkpt lat="43.60544" lon="3.81909">
        <ele>30</ele>
        <time>2020-10-10T07:47:14.000Z</time>
      </trkpt>
      <trkpt lat="43.6054" lon="3.81905">
        <ele>30</ele>
        <time>2020-10-10T07:47:15.000Z</time>
      </trkpt>
      <trkpt lat="43.60537" lon="3.819">
        <ele>30</ele>
        <time>2020-10-10T07:47:16.000Z</time>
      </trkpt>
      <trkpt lat="43.60533" lon="3.81896">
        <ele>30</ele>
        <time>2020-10-10T07:47:17.000Z</time>
      </trkpt>
      <trkpt lat="43.60529" lon="3.81891">
        <ele>30</ele>
        <time>2020-10-10T07:47:18.000Z</time>
      </trkpt>
      <trkpt lat="43.60525" lon="3.81887">
        <ele>30</ele>
        <time>2020-10-10T07:47:19.000Z</time>
      </trkpt>
      <trkpt lat="43.60521" lon="3.81882">
        <ele>30</ele>
        <time>2020-10-10T07:47:20.000Z</time>
      </trkpt>
      <trkpt lat="43.60517" lon="3.81877">
        <ele>30</ele>
        <time>2020-10-10T07:47:21.000Z</time>
      </trkpt>
      <trkpt lat="43.60513" lon="3.81872">
        <ele>30</ele>
        <time>2020-10-10T07:47:22.000Z</time>
      </trkpt>
      <trkpt lat="43.60508" lon="3.81867">
        <ele>30</ele>
        <time>2020-10-10T07:47:23.000Z</time>
      </trkpt>
      <trkpt lat="43.60504" lon="3.81864">
        <ele>30</ele>
        <time>2020-10-10T07:47:24.000Z</time>
      </trkpt>
      <trkpt lat="43.60499" lon="3.81861">
        <ele>30</ele>
        <time>2020-10-10T07:47:25.000Z</time>
      </trkpt>
      <trkpt lat="43.60493" lon="3.81859">
        <ele>30</ele>
        <time>2020-10-10T07:47:26.000Z</time>
      </trkpt>
      <trkpt lat="43.60488" lon="3.81857">
        <ele>30</ele>
        <time>2020-10-10T07:47:27.000Z</time>
      </trkpt>
      <trkpt lat="43.60483" lon="3.81855">
        <ele>30</ele>
        <time>2020-10-10T07:47:28.000Z</time>
      </trkpt>
      <trkpt lat="43.60477" lon="3.81853">
        <ele>30</ele>
        <time>2020-10-10T07:47:29.000Z</time>
      </trkpt>
      <trkpt lat="43.60472" lon="3.81851">
        <ele>30</ele>
        <time>2020-10-10T07:47:30.000Z</time>
      </trkpt>
      <trkpt lat="43.60467" lon="3.81849">
        <ele>30</ele>
        <time>2020-10-10T07:47:31.000Z</time>
      </trkpt>
      <trkpt lat="43.60461" lon="3.81847">
        <ele>30</ele>
        <time>2020-10-10T07:47:32.000Z</time>
      </trkpt>
      <trkpt lat="43.60456" lon="3.81844">
        <ele>30</ele>
        <time>2020-10-10T07:47:33.000Z</time>
      </trkpt>
      <trkpt lat="43.60451" lon="3.81842">
        <ele>30</ele>
        <time>2020-10-10T07:47:34.000Z</time>
      </trkpt>
      <trkpt lat="43.60445" lon="3.8184">
        <ele>30</ele>
        <time>2020-10-10T07:47:35.000Z</time>
      </trkpt>
      <trkpt lat="43.6044" lon="3.81838">
        <ele>30</ele>
        <time>2020-10-10T07:47:36.000Z</time>
      </trkpt>
      <trkpt lat="43.60435" lon="3.81836">
        <ele>30</ele>
        <time>2020-10-10T07:47:37.000Z</time>
      </trkpt>
      <trkpt lat="43.6043" lon="3.81834">
        <ele>30</ele>
        <time>2020-10-10T07:47:38.000Z</time>
      </trkpt>
      <trkpt lat="43.60424" lon="3.81833">
        <ele>30</ele>
        <time>2020-10-10T07:47:39.000Z</time>
      </trkpt>
      <trkpt lat="43.60419" lon="3.81832">
        <ele>30</ele>
        <time>2020-10-10T07:47:40.000Z</time>
      </trkpt>
      <trkpt lat="43.60414" lon="3.8183">
        <ele>30</ele>
        <time>2020-10-10T07:47:41.000Z</time>
      </trkpt>
      <trkpt lat="43.60409" lon="3.81829">
        <ele>30</ele>
        <time>2020-10-10T07:47:42.000Z</time>
      </trkpt>
      <trkpt lat="43.60403" lon="3.81827">
        <ele>30</ele>
        <time>2020-10-10T07:47:43.000Z</time>
      </trkpt>
      <trkpt lat="43.60399" lon="3.81826">
        <ele>30</ele>
        <time>2020-10-10T07:47:44.000Z</time>
      </trkpt>
      <trkpt lat="43.60394" lon="3.81826">
        <ele>30</ele>
        <time>2020-10-10T07:47:45.000Z</time>
      </trkpt>
      <trkpt lat="43.60389" lon="3.81825">
        <ele>30</ele>
        <time>2020-10-10T07:47:46.000Z</time>
      </trkpt>
      <trkpt lat="43.60385" lon="3.81823">
        <ele>30</ele>
        <time>2020-10-10T07:47:47.000Z</time>
      </trkpt>
      <trkpt lat="43.60381" lon="3.81821">
        <ele>30</ele>
        <time>2020-10-10T07:47:48.000Z</time>
      </trkpt>
      <trkpt lat="43.60377" lon="3.8182">
        <ele>30</ele>
        <time>2020-10-10T07:47:49.000Z</time>
      </trkpt>
      <trkpt lat="43.60374" lon="3.81818">
        <ele>30</ele>
        <time>2020-10-10T07:47:50.000Z</time>
      </trkpt>
      <trkpt lat="43.6037" lon="3.81816">
        <ele>30</ele>
        <time>2020-10-10T07:47:51.000Z</time>
      </trkpt>
      <trkpt lat="43.60368" lon="3.81813">
        <ele>30</ele>
        <time>2020-10-10T07:47:52.000Z</time>
      </trkpt>
      <trkpt lat="43.60366" lon="3.8181">
        <ele>30.030969320949</ele>
        <time>2020-10-10T07:47:53.000Z</time>
      </trkpt>
      <trkpt lat="43.60363" lon="3.81807">
        <ele>30.13086932504</ele>
        <time>2020-10-10T07:47:54.000Z</time>
      </trkpt>
      <trkpt lat="43.6036" lon="3.81803">
        <ele>30.230769329132</ele>
        <time>2020-10-10T07:47:55.000Z</time>
      </trkpt>
      <trkpt lat="43.60358" lon="3.818">
        <ele>30.330669333224</ele>
        <time>2020-10-10T07:47:56.000Z</time>
      </trkpt>
      <trkpt lat="43.60354" lon="3.81796">
        <ele>30.430569337316</ele>
        <time>2020-10-10T07:47:57.000Z</time>
      </trkpt>
      <trkpt lat="43.60351" lon="3.81792">
        <ele>30.530469341408</ele>
        <time>2020-10-10T07:47:58.000Z</time>
      </trkpt>
      <trkpt lat="43.60348" lon="3.81788">
        <ele>30.6303693455</ele>
        <time>2020-10-10T07:47:59.000Z</time>
      </trkpt>
      <trkpt lat="43.60345" lon="3.81784">
        <ele>30.730269349592</ele>
        <time>2020-10-10T07:48:00.000Z</time>
      </trkpt>
      <trkpt lat="43.60342" lon="3.8178">
        <ele>30.830169353684</ele>
        <time>2020-10-10T07:48:01.000Z</time>
      </trkpt>
      <trkpt lat="43.60338" lon="3.81776">
        <ele>30.930069357776</ele>
        <time>2020-10-10T07:48:02.000Z</time>
      </trkpt>
      <trkpt lat="43.60334" lon="3.81772">
        <ele>31</ele>
        <time>2020-10-10T07:48:03.000Z</time>
      </trkpt>
      <trkpt lat="43.60331" lon="3.81768">
        <ele>31</ele>
        <time>2020-10-10T07:48:04.000Z</time>
      </trkpt>
      <trkpt lat="43.60328" lon="3.81764">
        <ele>31</ele>
        <time>2020-10-10T07:48:05.000Z</time>
      </trkpt>
      <trkpt lat="43.60324" lon="3.8176">
        <ele>31</ele>
        <time>2020-10-10T07:48:06.000Z</time>
      </trkpt>
      <trkpt lat="43.60321" lon="3.81755">
        <ele>31</ele>
        <time>2020-10-10T07:48:07.000Z</time>
      </trkpt>
      <trkpt lat="43.60319" lon="3.81749">
        <ele>31</ele>
        <time>2020-10-10T07:48:08.000Z</time>
      </trkpt>
      <trkpt lat="43.60317" lon="3.81743">
        <ele>31</ele>
        <time>2020-10-10T07:48:09.000Z</time>
      </trkpt>
      <trkpt lat="43.60316" lon="3.81737">
        <ele>31</ele>
        <time>2020-10-10T07:48:10.000Z</time>
      </trkpt>
      <trkpt lat="43.60316" lon="3.8173">
        <ele>31</ele>
        <time>2020-10-10T07:48:11.000Z</time>
      </trkpt>
      <trkpt lat="43.60317" lon="3.81723">
        <ele>31</ele>
        <time>2020-10-10T07:48:12.000Z</time>
      </trkpt>
      <trkpt lat="43.60317" lon="3.81717">
        <ele>31.030938423353</ele>
        <time>2020-10-10T07:48:13.000Z</time>
      </trkpt>
      <trkpt lat="43.60318" lon="3.8171">
        <ele>31.13073875881</ele>
        <time>2020-10-10T07:48:14.000Z</time>
      </trkpt>
      <trkpt lat="43.60319" lon="3.81703">
        <ele>31.230539094266</ele>
        <time>2020-10-10T07:48:15.000Z</time>
      </trkpt>
      <trkpt lat="43.6032" lon="3.81697">
        <ele>31.330339429723</ele>
        <time>2020-10-10T07:48:16.000Z</time>
      </trkpt>
      <trkpt lat="43.60321" lon="3.81691">
        <ele>31.43013976518</ele>
        <time>2020-10-10T07:48:17.000Z</time>
      </trkpt>
      <trkpt lat="43.60321" lon="3.81684">
        <ele>31.529940100637</ele>
        <time>2020-10-10T07:48:18.000Z</time>
      </trkpt>
      <trkpt lat="43.6032" lon="3.81678">
        <ele>31.629740436094</ele>
        <time>2020-10-10T07:48:19.000Z</time>
      </trkpt>
      <trkpt lat="43.6032" lon="3.81673">
        <ele>31.729540771551</ele>
        <time>2020-10-10T07:48:20.000Z</time>
      </trkpt>
      <trkpt lat="43.60319" lon="3.81668">
        <ele>31.829341107008</ele>
        <time>2020-10-10T07:48:21.000Z</time>
      </trkpt>
      <trkpt lat="43.60318" lon="3.81664">
        <ele>31.929141442464</ele>
        <time>2020-10-10T07:48:22.000Z</time>
      </trkpt>
      <trkpt lat="43.60315" lon="3.81655">
        <ele>31.870741720716</ele>
        <time>2020-10-10T07:48:24.000Z</time>
      </trkpt>
      <trkpt lat="43.60311" lon="3.8165">
        <ele>31.770541255658</ele>
        <time>2020-10-10T07:48:25.000Z</time>
      </trkpt>
      <trkpt lat="43.60306" lon="3.8164">
        <ele>31.469939860483</ele>
        <time>2020-10-10T07:48:28.000Z</time>
      </trkpt>
      <trkpt lat="43.60297" lon="3.81634">
        <ele>31.069138000249</ele>
        <time>2020-10-10T07:48:32.000Z</time>
      </trkpt>
      <trkpt lat="43.60287" lon="3.81631">
        <ele>31.33100032</ele>
        <time>2020-10-10T07:48:36.000Z</time>
      </trkpt>
      <trkpt lat="43.60283" lon="3.81632">
        <ele>31.43100032</ele>
        <time>2020-10-10T07:48:37.000Z</time>
      </trkpt>
      <trkpt lat="43.60279" lon="3.81632">
        <ele>31.53100032</ele>
        <time>2020-10-10T07:48:38.000Z</time>
      </trkpt>
      <trkpt lat="43.60275" lon="3.8163">
        <ele>31.63100032</ele>
        <time>2020-10-10T07:48:39.000Z</time>
      </trkpt>
      <trkpt lat="43.60272" lon="3.81628">
        <ele>31.73100032</ele>
        <time>2020-10-10T07:48:40.000Z</time>
      </trkpt>
      <trkpt lat="43.60268" lon="3.81626">
        <ele>31.83100032</ele>
        <time>2020-10-10T07:48:41.000Z</time>
      </trkpt>
      <trkpt lat="43.60265" lon="3.81622">
        <ele>31.93100032</ele>
        <time>2020-10-10T07:48:42.000Z</time>
      </trkpt>
      <trkpt lat="43.60263" lon="3.81616">
        <ele>32</ele>
        <time>2020-10-10T07:48:43.000Z</time>
      </trkpt>
      <trkpt lat="43.60261" lon="3.81611">
        <ele>32</ele>
        <time>2020-10-10T07:48:44.000Z</time>
      </trkpt>
      <trkpt lat="43.60261" lon="3.81606">
        <ele>32</ele>
        <time>2020-10-10T07:48:45.000Z</time>
      </trkpt>
      <trkpt lat="43.60262" lon="3.81601">
        <ele>32</ele>
        <time>2020-10-10T07:48:46.000Z</time>
      </trkpt>
      <trkpt lat="43.60263" lon="3.81596">
        <ele>32</ele>
        <time>2020-10-10T07:48:47.000Z</time>
      </trkpt>
      <trkpt lat="43.60265" lon="3.81591">
        <ele>32</ele>
        <time>2020-10-10T07:48:48.000Z</time>
      </trkpt>
      <trkpt lat="43.60266" lon="3.81586">
        <ele>32</ele>
        <time>2020-10-10T07:48:49.000Z</time>
      </trkpt>
      <trkpt lat="43.60267" lon="3.81581">
        <ele>32</ele>
        <time>2020-10-10T07:48:50.000Z</time>
      </trkpt>
      <trkpt lat="43.60268" lon="3.81575">
        <ele>32</ele>
        <time>2020-10-10T07:48:51.000Z</time>
      </trkpt>
      <trkpt lat="43.60269" lon="3.8157">
        <ele>32</ele>
        <time>2020-10-10T07:48:52.000Z</time>
      </trkpt>
      <trkpt lat="43.6027" lon="3.81565">
        <ele>31.96899968</ele>
        <time>2020-10-10T07:48:53.000Z</time>
      </trkpt>
      <trkpt lat="43.60271" lon="3.8156">
        <ele>31.86899968</ele>
        <time>2020-10-10T07:48:54.000Z</time>
      </trkpt>
      <trkpt lat="43.60272" lon="3.81555">
        <ele>31.76899968</ele>
        <time>2020-10-10T07:48:55.000Z</time>
      </trkpt>
      <trkpt lat="43.60273" lon="3.81551">
        <ele>31.66899968</ele>
        <time>2020-10-10T07:48:56.000Z</time>
      </trkpt>
      <trkpt lat="43.60275" lon="3.81546">
        <ele>31.56899968</ele>
        <time>2020-10-10T07:48:57.000Z</time>
      </trkpt>
      <trkpt lat="43.60277" lon="3.81542">
        <ele>31.46899968</ele>
        <time>2020-10-10T07:48:58.000Z</time>
      </trkpt>
      <trkpt lat="43.6028" lon="3.81539">
        <ele>31.36899968</ele>
        <time>2020-10-10T07:48:59.000Z</time>
      </trkpt>
      <trkpt lat="43.60284" lon="3.81536">
        <ele>31.26899968</ele>
        <time>2020-10-10T07:49:00.000Z</time>
      </trkpt>
      <trkpt lat="43.60287" lon="3.81534">
        <ele>31.16899968</ele>
        <time>2020-10-10T07:49:01.000Z</time>
      </trkpt>
      <trkpt lat="43.6029" lon="3.81532">
        <ele>31.06899968</ele>
        <time>2020-10-10T07:49:02.000Z</time>
      </trkpt>
      <trkpt lat="43.60292" lon="3.81529">
        <ele>31</ele>
        <time>2020-10-10T07:49:03.000Z</time>
      </trkpt>
      <trkpt lat="43.60293" lon="3.81525">
        <ele>31</ele>
        <time>2020-10-10T07:49:04.000Z</time>
      </trkpt>
      <trkpt lat="43.60292" lon="3.81522">
        <ele>31.112008951138</ele>
        <time>2020-10-10T07:49:05.000Z</time>
      </trkpt>
      <trkpt lat="43.6029" lon="3.81521">
        <ele>31.227482477585</ele>
        <time>2020-10-10T07:49:06.000Z</time>
      </trkpt>
      <trkpt lat="43.60287" lon="3.8152">
        <ele>31.342956004032</ele>
        <time>2020-10-10T07:49:07.000Z</time>
      </trkpt>
      <trkpt lat="43.60284" lon="3.81519">
        <ele>31.458429530479</ele>
        <time>2020-10-10T07:49:08.000Z</time>
      </trkpt>
      <trkpt lat="43.60282" lon="3.81518">
        <ele>31.573903056926</ele>
        <time>2020-10-10T07:49:09.000Z</time>
      </trkpt>
      <trkpt lat="43.60279" lon="3.81517">
        <ele>31.689376583373</ele>
        <time>2020-10-10T07:49:10.000Z</time>
      </trkpt>
      <trkpt lat="43.60276" lon="3.81515">
        <ele>31.80485010982</ele>
        <time>2020-10-10T07:49:11.000Z</time>
      </trkpt>
      <trkpt lat="43.60273" lon="3.81515">
        <ele>31.920323636267</ele>
        <time>2020-10-10T07:49:12.000Z</time>
      </trkpt>
      <trkpt lat="43.60271" lon="3.81514">
        <ele>32.061692198748</ele>
        <time>2020-10-10T07:49:13.000Z</time>
      </trkpt>
      <trkpt lat="43.60268" lon="3.81513">
        <ele>32.260697237237</ele>
        <time>2020-10-10T07:49:14.000Z</time>
      </trkpt>
      <trkpt lat="43.60265" lon="3.81511">
        <ele>32.459702275726</ele>
        <time>2020-10-10T07:49:15.000Z</time>
      </trkpt>
      <trkpt lat="43.60262" lon="3.8151">
        <ele>32.658707314215</ele>
        <time>2020-10-10T07:49:16.000Z</time>
      </trkpt>
      <trkpt lat="43.6026" lon="3.81508">
        <ele>32.857712352704</ele>
        <time>2020-10-10T07:49:17.000Z</time>
      </trkpt>
      <trkpt lat="43.60257" lon="3.81505">
        <ele>33.056717391194</ele>
        <time>2020-10-10T07:49:18.000Z</time>
      </trkpt>
      <trkpt lat="43.60255" lon="3.81503">
        <ele>33.255722429683</ele>
        <time>2020-10-10T07:49:19.000Z</time>
      </trkpt>
      <trkpt lat="43.60253" lon="3.81501">
        <ele>33.454727468172</ele>
        <time>2020-10-10T07:49:20.000Z</time>
      </trkpt>
      <trkpt lat="43.60251" lon="3.815">
        <ele>33.653732506661</ele>
        <time>2020-10-10T07:49:21.000Z</time>
      </trkpt>
      <trkpt lat="43.60248" lon="3.81498">
        <ele>33.85273754515</ele>
        <time>2020-10-10T07:49:22.000Z</time>
      </trkpt>
      <trkpt lat="43.60245" lon="3.81497">
        <ele>34</ele>
        <time>2020-10-10T07:49:23.000Z</time>
      </trkpt>
      <trkpt lat="43.60243" lon="3.81496">
        <ele>34</ele>
        <time>2020-10-10T07:49:24.000Z</time>
      </trkpt>
      <trkpt lat="43.6024" lon="3.81495">
        <ele>34</ele>
        <time>2020-10-10T07:49:25.000Z</time>
      </trkpt>
      <trkpt lat="43.60238" lon="3.81494">
        <ele>34</ele>
        <time>2020-10-10T07:49:26.000Z</time>
      </trkpt>
      <trkpt lat="43.60236" lon="3.81493">
        <ele>34</ele>
        <time>2020-10-10T07:49:27.000Z</time>
      </trkpt>
      <trkpt lat="43.60233" lon="3.81492">
        <ele>34</ele>
        <time>2020-10-10T07:49:28.000Z</time>
      </trkpt>
      <trkpt lat="43.6023" lon="3.8149">
        <ele>34</ele>
        <time>2020-10-10T07:49:29.000Z</time>
      </trkpt>
      <trkpt lat="43.60227" lon="3.81489">
        <ele>34</ele>
        <time>2020-10-10T07:49:30.000Z</time>
      </trkpt>
      <trkpt lat="43.60223" lon="3.81488">
        <ele>34</ele>
        <time>2020-10-10T07:49:31.000Z</time>
      </trkpt>
      <trkpt lat="43.6022" lon="3.81486">
        <ele>34</ele>
        <time>2020-10-10T07:49:32.000Z</time>
      </trkpt>
      <trkpt lat="43.60216" lon="3.81485">
        <ele>33.970942185774</ele>
        <time>2020-10-10T07:49:33.000Z</time>
      </trkpt>
      <trkpt lat="43.60213" lon="3.81485">
        <ele>33.870741720716</ele>
        <time>2020-10-10T07:49:34.000Z</time>
      </trkpt>
      <trkpt lat="43.60209" lon="3.81486">
        <ele>33.770541255658</ele>
        <time>2020-10-10T07:49:35.000Z</time>
      </trkpt>
      <trkpt lat="43.60205" lon="3.81487">
        <ele>33.670340790599</ele>
        <time>2020-10-10T07:49:36.000Z</time>
      </trkpt>
      <trkpt lat="43.60202" lon="3.8149">
        <ele>33.570140325541</ele>
        <time>2020-10-10T07:49:37.000Z</time>
      </trkpt>
      <trkpt lat="43.60198" lon="3.81493">
        <ele>33.469939860482</ele>
        <time>2020-10-10T07:49:38.000Z</time>
      </trkpt>
      <trkpt lat="43.60194" lon="3.81497">
        <ele>33.369739395424</ele>
        <time>2020-10-10T07:49:39.000Z</time>
      </trkpt>
      <trkpt lat="43.60189" lon="3.81499">
        <ele>33.269538930366</ele>
        <time>2020-10-10T07:49:40.000Z</time>
      </trkpt>
      <trkpt lat="43.60183" lon="3.815">
        <ele>33.169338465307</ele>
        <time>2020-10-10T07:49:41.000Z</time>
      </trkpt>
      <trkpt lat="43.60178" lon="3.81501">
        <ele>33.069138000249</ele>
        <time>2020-10-10T07:49:42.000Z</time>
      </trkpt>
      <trkpt lat="43.60173" lon="3.81502">
        <ele>32.96899968</ele>
        <time>2020-10-10T07:49:43.000Z</time>
      </trkpt>
      <trkpt lat="43.60168" lon="3.81503">
        <ele>32.86899968</ele>
        <time>2020-10-10T07:49:44.000Z</time>
      </trkpt>
      <trkpt lat="43.60163" lon="3.81504">
        <ele>32.76899968</ele>
        <time>2020-10-10T07:49:45.000Z</time>
      </trkpt>
      <trkpt lat="43.60158" lon="3.81504">
        <ele>32.66899968</ele>
        <time>2020-10-10T07:49:46.000Z</time>
      </trkpt>
      <trkpt lat="43.60154" lon="3.81505">
        <ele>32.56899968</ele>
        <time>2020-10-10T07:49:47.000Z</time>
      </trkpt>
      <trkpt lat="43.60149" lon="3.81506">
        <ele>32.46899968</ele>
        <time>2020-10-10T07:49:48.000Z</time>
      </trkpt>
      <trkpt lat="43.60145" lon="3.81506">
        <ele>32.36899968</ele>
        <time>2020-10-10T07:49:49.000Z</time>
      </trkpt>
      <trkpt lat="43.6014" lon="3.81507">
        <ele>32.26899968</ele>
        <time>2020-10-10T07:49:50.000Z</time>
      </trkpt>
      <trkpt lat="43.60136" lon="3.81507">
        <ele>32.16899968</ele>
        <time>2020-10-10T07:49:51.000Z</time>
      </trkpt>
      <trkpt lat="43.60131" lon="3.81508">
        <ele>32.06899968</ele>
        <time>2020-10-10T07:49:52.000Z</time>
      </trkpt>
      <trkpt lat="43.60126" lon="3.81508">
        <ele>31.969844046693</ele>
        <time>2020-10-10T07:49:53.000Z</time>
      </trkpt>
      <trkpt lat="43.60122" lon="3.81508">
        <ele>31.872567782101</ele>
        <time>2020-10-10T07:49:54.000Z</time>
      </trkpt>
      <trkpt lat="43.60117" lon="3.81507">
        <ele>31.77529151751</ele>
        <time>2020-10-10T07:49:55.000Z</time>
      </trkpt>
      <trkpt lat="43.60112" lon="3.81507">
        <ele>31.678015252918</ele>
        <time>2020-10-10T07:49:56.000Z</time>
      </trkpt>
      <trkpt lat="43.60107" lon="3.81506">
        <ele>31.580738988327</ele>
        <time>2020-10-10T07:49:57.000Z</time>
      </trkpt>
      <trkpt lat="43.60102" lon="3.81505">
        <ele>31.483462723735</ele>
        <time>2020-10-10T07:49:58.000Z</time>
      </trkpt>
      <trkpt lat="43.60098" lon="3.81504">
        <ele>31.386186459144</ele>
        <time>2020-10-10T07:49:59.000Z</time>
      </trkpt>
      <trkpt lat="43.60092" lon="3.81503">
        <ele>31.288910194552</ele>
        <time>2020-10-10T07:50:00.000Z</time>
      </trkpt>
      <trkpt lat="43.60087" lon="3.81503">
        <ele>31.191633929961</ele>
        <time>2020-10-10T07:50:01.000Z</time>
      </trkpt>
      <trkpt lat="43.60083" lon="3.81502">
        <ele>31.09435766537</ele>
        <time>2020-10-10T07:50:02.000Z</time>
      </trkpt>
      <trkpt lat="43.60078" lon="3.81502">
        <ele>31</ele>
        <time>2020-10-10T07:50:03.000Z</time>
      </trkpt>
      <trkpt lat="43.60073" lon="3.81502">
        <ele>31</ele>
        <time>2020-10-10T07:50:04.000Z</time>
      </trkpt>
      <trkpt lat="43.60069" lon="3.81502">
        <ele>31</ele>
        <time>2020-10-10T07:50:05.000Z</time>
      </trkpt>
      <trkpt lat="43.60065" lon="3.81502">
        <ele>31</ele>
        <time>2020-10-10T07:50:06.000Z</time>
      </trkpt>
      <trkpt lat="43.6006" lon="3.81503">
        <ele>31</ele>
        <time>2020-10-10T07:50:07.000Z</time>
      </trkpt>
      <trkpt lat="43.60056" lon="3.81503">
        <ele>31</ele>
        <time>2020-10-10T07:50:08.000Z</time>
      </trkpt>
      <trkpt lat="43.60052" lon="3.81503">
        <ele>31</ele>
        <time>2020-10-10T07:50:09.000Z</time>
      </trkpt>
      <trkpt lat="43.60048" lon="3.81504">
        <ele>31</ele>
        <time>2020-10-10T07:50:10.000Z</time>
      </trkpt>
      <trkpt lat="43.60044" lon="3.81504">
        <ele>31</ele>
        <time>2020-10-10T07:50:11.000Z</time>
      </trkpt>
      <trkpt lat="43.6004" lon="3.81505">
        <ele>31</ele>
        <time>2020-10-10T07:50:12.000Z</time>
      </trkpt>
      <trkpt lat="43.60037" lon="3.81506">
        <ele>30.994861581044</ele>
        <time>2020-10-10T07:50:13.000Z</time>
      </trkpt>
      <trkpt lat="43.60033" lon="3.81506">
        <ele>30.892086624324</ele>
        <time>2020-10-10T07:50:14.000Z</time>
      </trkpt>
      <trkpt lat="43.60029" lon="3.81506">
        <ele>30.789311667605</ele>
        <time>2020-10-10T07:50:15.000Z</time>
      </trkpt>
      <trkpt lat="43.60026" lon="3.81506">
        <ele>30.686536710886</ele>
        <time>2020-10-10T07:50:16.000Z</time>
      </trkpt>
      <trkpt lat="43.60022" lon="3.81506">
        <ele>30.583761754166</ele>
        <time>2020-10-10T07:50:17.000Z</time>
      </trkpt>
      <trkpt lat="43.60018" lon="3.81505">
        <ele>30.480986797447</ele>
        <time>2020-10-10T07:50:18.000Z</time>
      </trkpt>
      <trkpt lat="43.60015" lon="3.81503">
        <ele>30.378211840727</ele>
        <time>2020-10-10T07:50:19.000Z</time>
      </trkpt>
      <trkpt lat="43.60011" lon="3.815">
        <ele>30.275436884008</ele>
        <time>2020-10-10T07:50:20.000Z</time>
      </trkpt>
      <trkpt lat="43.60008" lon="3.81497">
        <ele>30.172661927289</ele>
        <time>2020-10-10T07:50:21.000Z</time>
      </trkpt>
      <trkpt lat="43.60006" lon="3.81493">
        <ele>30.069886970569</ele>
        <time>2020-10-10T07:50:22.000Z</time>
      </trkpt>
      <trkpt lat="43.60005" lon="3.81489">
        <ele>30.032</ele>
        <time>2020-10-10T07:50:23.000Z</time>
      </trkpt>
      <trkpt lat="43.60005" lon="3.81484">
        <ele>30.132</ele>
        <time>2020-10-10T07:50:24.000Z</time>
      </trkpt>
      <trkpt lat="43.60006" lon="3.8148">
        <ele>30.232</ele>
        <time>2020-10-10T07:50:25.000Z</time>
      </trkpt>
      <trkpt lat="43.60008" lon="3.81476">
        <ele>30.332</ele>
        <time>2020-10-10T07:50:26.000Z</time>
      </trkpt>
      <trkpt lat="43.6001" lon="3.81472">
        <ele>30.432</ele>
        <time>2020-10-10T07:50:27.000Z</time>
      </trkpt>
      <trkpt lat="43.60012" lon="3.81467">
        <ele>30.532</ele>
        <time>2020-10-10T07:50:28.000Z</time>
      </trkpt>
      <trkpt lat="43.60014" lon="3.81461">
        <ele>30.632</ele>
        <time>2020-10-10T07:50:29.000Z</time>
      </trkpt>
      <trkpt lat="43.60016" lon="3.81456">
        <ele>30.732</ele>
        <time>2020-10-10T07:50:30.000Z</time>
      </trkpt>
      <trkpt lat="43.60018" lon="3.8145">
        <ele>30.832</ele>
        <time>2020-10-10T07:50:31.000Z</time>
      </trkpt>
      <trkpt lat="43.6002" lon="3.81444">
        <ele>30.932</ele>
        <time>2020-10-10T07:50:32.000Z</time>
      </trkpt>
      <trkpt lat="43.60022" lon="3.81438">
        <ele>31</ele>
        <time>2020-10-10T07:50:33.000Z</time>
      </trkpt>
      <trkpt lat="43.60023" lon="3.81432">
        <ele>31</ele>
        <time>2020-10-10T07:50:34.000Z</time>
      </trkpt>
      <trkpt lat="43.60025" lon="3.81426">
        <ele>31</ele>
        <time>2020-10-10T07:50:35.000Z</time>
      </trkpt>
      <trkpt lat="43.60027" lon="3.8142">
        <ele>31</ele>
        <time>2020-10-10T07:50:36.000Z</time>
      </trkpt>
      <trkpt lat="43.60029" lon="3.81415">
        <ele>31</ele>
        <time>2020-10-10T07:50:37.000Z</time>
      </trkpt>
      <trkpt lat="43.6003" lon="3.8141">
        <ele>31</ele>
        <time>2020-10-10T07:50:38.000Z</time>
      </trkpt>
      <trkpt lat="43.60032" lon="3.81406">
        <ele>31</ele>
        <time>2020-10-10T07:50:39.000Z</time>
      </trkpt>
      <trkpt lat="43.60032" lon="3.81401">
        <ele>31</ele>
        <time>2020-10-10T07:50:40.000Z</time>
      </trkpt>
      <trkpt lat="43.60033" lon="3.81396">
        <ele>31</ele>
        <time>2020-10-10T07:50:41.000Z</time>
      </trkpt>
      <trkpt lat="43.60034" lon="3.81391">
        <ele>31</ele>
        <time>2020-10-10T07:50:42.000Z</time>
      </trkpt>
      <trkpt lat="43.60035" lon="3.81386">
        <ele>30.998968338153</ele>
        <time>2020-10-10T07:50:43.000Z</time>
      </trkpt>
      <trkpt lat="43.60035" lon="3.81381">
        <ele>30.895769129666</ele>
        <time>2020-10-10T07:50:44.000Z</time>
      </trkpt>
      <trkpt lat="43.60035" lon="3.81378">
        <ele>30.792569921179</ele>
        <time>2020-10-10T07:50:45.000Z</time>
      </trkpt>
      <trkpt lat="43.60034" lon="3.81375">
        <ele>30.689370712692</ele>
        <time>2020-10-10T07:50:46.000Z</time>
      </trkpt>
      <trkpt lat="43.60032" lon="3.81373">
        <ele>30.482972295718</ele>
        <time>2020-10-10T07:50:48.000Z</time>
      </trkpt>
      <trkpt lat="43.60028" lon="3.8137">
        <ele>30.276573878745</ele>
        <time>2020-10-10T07:50:50.000Z</time>
      </trkpt>
      <trkpt lat="43.60027" lon="3.81368">
        <ele>30.173374670258</ele>
        <time>2020-10-10T07:50:51.000Z</time>
      </trkpt>
      <trkpt lat="43.60025" lon="3.81366">
        <ele>30.070175461771</ele>
        <time>2020-10-10T07:50:52.000Z</time>
      </trkpt>
      <trkpt lat="43.60023" lon="3.81362">
        <ele>30.064</ele>
        <time>2020-10-10T07:50:53.000Z</time>
      </trkpt>
      <trkpt lat="43.60021" lon="3.81359">
        <ele>30.264</ele>
        <time>2020-10-10T07:50:54.000Z</time>
      </trkpt>
      <trkpt lat="43.60019" lon="3.81356">
        <ele>30.464</ele>
        <time>2020-10-10T07:50:55.000Z</time>
      </trkpt>
      <trkpt lat="43.60017" lon="3.81352">
        <ele>30.664</ele>
        <time>2020-10-10T07:50:56.000Z</time>
      </trkpt>
      <trkpt lat="43.60015" lon="3.81349">
        <ele>30.864</ele>
        <time>2020-10-10T07:50:57.000Z</time>
      </trkpt>
      <trkpt lat="43.60012" lon="3.81346">
        <ele>31.064</ele>
        <time>2020-10-10T07:50:58.000Z</time>
      </trkpt>
      <trkpt lat="43.6001" lon="3.81343">
        <ele>31.264</ele>
        <time>2020-10-10T07:50:59.000Z</time>
      </trkpt>
      <trkpt lat="43.60008" lon="3.81339">
        <ele>31.464</ele>
        <time>2020-10-10T07:51:00.000Z</time>
      </trkpt>
      <trkpt lat="43.60005" lon="3.81336">
        <ele>31.664</ele>
        <time>2020-10-10T07:51:01.000Z</time>
      </trkpt>
      <trkpt lat="43.60003" lon="3.81333">
        <ele>31.864</ele>
        <time>2020-10-10T07:51:02.000Z</time>
      </trkpt>
      <trkpt lat="43.60001" lon="3.81329">
        <ele>32.032</ele>
        <time>2020-10-10T07:51:03.000Z</time>
      </trkpt>
      <trkpt lat="43.59998" lon="3.81326">
        <ele>32.132</ele>
        <time>2020-10-10T07:51:04.000Z</time>
      </trkpt>
      <trkpt lat="43.59996" lon="3.81323">
        <ele>32.232</ele>
        <time>2020-10-10T07:51:05.000Z</time>
      </trkpt>
      <trkpt lat="43.59994" lon="3.8132">
        <ele>32.332</ele>
        <time>2020-10-10T07:51:06.000Z</time>
      </trkpt>
      <trkpt lat="43.59992" lon="3.81317">
        <ele>32.432</ele>
        <time>2020-10-10T07:51:07.000Z</time>
      </trkpt>
      <trkpt lat="43.5999" lon="3.81314">
        <ele>32.532</ele>
        <time>2020-10-10T07:51:08.000Z</time>
      </trkpt>
      <trkpt lat="43.59988" lon="3.81311">
        <ele>32.632</ele>
        <time>2020-10-10T07:51:09.000Z</time>
      </trkpt>
      <trkpt lat="43.59986" lon="3.81309">
        <ele>32.732</ele>
        <time>2020-10-10T07:51:10.000Z</time>
      </trkpt>
      <trkpt lat="43.59984" lon="3.81306">
        <ele>32.832</ele>
        <time>2020-10-10T07:51:11.000Z</time>
      </trkpt>
      <trkpt lat="43.59982" lon="3.81304">
        <ele>32.932</ele>
        <time>2020-10-10T07:51:12.000Z</time>
      </trkpt>
      <trkpt lat="43.59979" lon="3.81302">
        <ele>33.032</ele>
        <time>2020-10-10T07:51:13.000Z</time>
      </trkpt>
      <trkpt lat="43.59977" lon="3.81299">
        <ele>33.132</ele>
        <time>2020-10-10T07:51:14.000Z</time>
      </trkpt>
      <trkpt lat="43.59975" lon="3.81296">
        <ele>33.232</ele>
        <time>2020-10-10T07:51:15.000Z</time>
      </trkpt>
      <trkpt lat="43.59973" lon="3.81294">
        <ele>33.332</ele>
        <time>2020-10-10T07:51:16.000Z</time>
      </trkpt>
      <trkpt lat="43.59971" lon="3.81291">
        <ele>33.432</ele>
        <time>2020-10-10T07:51:17.000Z</time>
      </trkpt>
      <trkpt lat="43.59969" lon="3.81288">
        <ele>33.532</ele>
        <time>2020-10-10T07:51:18.000Z</time>
      </trkpt>
      <trkpt lat="43.59967" lon="3.81285">
        <ele>33.632</ele>
        <time>2020-10-10T07:51:19.000Z</time>
      </trkpt>
      <trkpt lat="43.59965" lon="3.81282">
        <ele>33.732</ele>
        <time>2020-10-10T07:51:20.000Z</time>
      </trkpt>
      <trkpt lat="43.59963" lon="3.8128">
        <ele>33.832</ele>
        <time>2020-10-10T07:51:21.000Z</time>
      </trkpt>
      <trkpt lat="43.59961" lon="3.81278">
        <ele>33.932</ele>
        <time>2020-10-10T07:51:22.000Z</time>
      </trkpt>
      <trkpt lat="43.59959" lon="3.81275">
        <ele>34</ele>
        <time>2020-10-10T07:51:23.000Z</time>
      </trkpt>
      <trkpt lat="43.59957" lon="3.81273">
        <ele>34</ele>
        <time>2020-10-10T07:51:24.000Z</time>
      </trkpt>
      <trkpt lat="43.59955" lon="3.8127">
        <ele>34</ele>
        <time>2020-10-10T07:51:25.000Z</time>
      </trkpt>
      <trkpt lat="43.59953" lon="3.81268">
        <ele>34</ele>
        <time>2020-10-10T07:51:26.000Z</time>
      </trkpt>
      <trkpt lat="43.59951" lon="3.81266">
        <ele>34</ele>
        <time>2020-10-10T07:51:27.000Z</time>
      </trkpt>
      <trkpt lat="43.59949" lon="3.81264">
        <ele>34</ele>
        <time>2020-10-10T07:51:28.000Z</time>
      </trkpt>
      <trkpt lat="43.59947" lon="3.81262">
        <ele>34</ele>
        <time>2020-10-10T07:51:29.000Z</time>
      </trkpt>
      <trkpt lat="43.59944" lon="3.8126">
        <ele>34</ele>
        <time>2020-10-10T07:51:30.000Z</time>
      </trkpt>
      <trkpt lat="43.59942" lon="3.81259">
        <ele>34</ele>
        <time>2020-10-10T07:51:31.000Z</time>
      </trkpt>
      <trkpt lat="43.5994" lon="3.81257">
        <ele>34</ele>
        <time>2020-10-10T07:51:32.000Z</time>
      </trkpt>
      <trkpt lat="43.59938" lon="3.81255">
        <ele>34.063942462015</ele>
        <time>2020-10-10T07:51:33.000Z</time>
      </trkpt>
      <trkpt lat="43.59936" lon="3.81253">
        <ele>34.263762655812</ele>
        <time>2020-10-10T07:51:34.000Z</time>
      </trkpt>
      <trkpt lat="43.59934" lon="3.81252">
        <ele>34.463582849609</ele>
        <time>2020-10-10T07:51:35.000Z</time>
      </trkpt>
      <trkpt lat="43.59932" lon="3.8125">
        <ele>34.663403043405</ele>
        <time>2020-10-10T07:51:36.000Z</time>
      </trkpt>
      <trkpt lat="43.5993" lon="3.81248">
        <ele>34.863223237202</ele>
        <time>2020-10-10T07:51:37.000Z</time>
      </trkpt>
      <trkpt lat="43.59928" lon="3.81247">
        <ele>35.063043430999</ele>
        <time>2020-10-10T07:51:38.000Z</time>
      </trkpt>
      <trkpt lat="43.59926" lon="3.81246">
        <ele>35.262863624796</ele>
        <time>2020-10-10T07:51:39.000Z</time>
      </trkpt>
      <trkpt lat="43.59924" lon="3.81245">
        <ele>35.462683818593</ele>
        <time>2020-10-10T07:51:40.000Z</time>
      </trkpt>
      <trkpt lat="43.59922" lon="3.81243">
        <ele>35.662504012389</ele>
        <time>2020-10-10T07:51:41.000Z</time>
      </trkpt>
      <trkpt lat="43.5992" lon="3.81242">
        <ele>35.862324206186</ele>
        <time>2020-10-10T07:51:42.000Z</time>
      </trkpt>
      <trkpt lat="43.59919" lon="3.81241">
        <ele>36.06220032</ele>
        <time>2020-10-10T07:51:43.000Z</time>
      </trkpt>
      <trkpt lat="43.59917" lon="3.81239">
        <ele>36.26220032</ele>
        <time>2020-10-10T07:51:44.000Z</time>
      </trkpt>
      <trkpt lat="43.59915" lon="3.81238">
        <ele>36.46220032</ele>
        <time>2020-10-10T07:51:45.000Z</time>
      </trkpt>
      <trkpt lat="43.59913" lon="3.81236">
        <ele>36.66220032</ele>
        <time>2020-10-10T07:51:46.000Z</time>
      </trkpt>
      <trkpt lat="43.59911" lon="3.81234">
        <ele>36.86220032</ele>
        <time>2020-10-10T07:51:47.000Z</time>
      </trkpt>
      <trkpt lat="43.59909" lon="3.81233">
        <ele>37.06220032</ele>
        <time>2020-10-10T07:51:48.000Z</time>
      </trkpt>
      <trkpt lat="43.59907" lon="3.81231">
        <ele>37.26220032</ele>
        <time>2020-10-10T07:51:49.000Z</time>
      </trkpt>
      <trkpt lat="43.59905" lon="3.8123">
        <ele>37.46220032</ele>
        <time>2020-10-10T07:51:50.000Z</time>
      </trkpt>
      <trkpt lat="43.59902" lon="3.81228">
        <ele>37.66220032</ele>
        <time>2020-10-10T07:51:51.000Z</time>
      </trkpt>
      <trkpt lat="43.599" lon="3.81226">
        <ele>37.86220032</ele>
        <time>2020-10-10T07:51:52.000Z</time>
      </trkpt>
      <trkpt lat="43.59898" lon="3.81224">
        <ele>38.061884737543</ele>
        <time>2020-10-10T07:51:53.000Z</time>
      </trkpt>
      <trkpt lat="43.59896" lon="3.81223">
        <ele>38.260870008176</ele>
        <time>2020-10-10T07:51:54.000Z</time>
      </trkpt>
      <trkpt lat="43.59893" lon="3.81221">
        <ele>38.459855278809</ele>
        <time>2020-10-10T07:51:55.000Z</time>
      </trkpt>
      <trkpt lat="43.59891" lon="3.81219">
        <ele>38.658840549441</ele>
        <time>2020-10-10T07:51:56.000Z</time>
      </trkpt>
      <trkpt lat="43.59889" lon="3.81217">
        <ele>38.857825820074</ele>
        <time>2020-10-10T07:51:57.000Z</time>
      </trkpt>
      <trkpt lat="43.59887" lon="3.81215">
        <ele>39.056811090707</ele>
        <time>2020-10-10T07:51:58.000Z</time>
      </trkpt>
      <trkpt lat="43.59885" lon="3.81213">
        <ele>39.255796361339</ele>
        <time>2020-10-10T07:51:59.000Z</time>
      </trkpt>
      <trkpt lat="43.59883" lon="3.81211">
        <ele>39.454781631972</ele>
        <time>2020-10-10T07:52:00.000Z</time>
      </trkpt>
      <trkpt lat="43.59881" lon="3.81209">
        <ele>39.653766902605</ele>
        <time>2020-10-10T07:52:01.000Z</time>
      </trkpt>
      <trkpt lat="43.59879" lon="3.81207">
        <ele>39.852752173237</ele>
        <time>2020-10-10T07:52:02.000Z</time>
      </trkpt>
      <trkpt lat="43.59877" lon="3.81205">
        <ele>40.052315137342</ele>
        <time>2020-10-10T07:52:03.000Z</time>
      </trkpt>
      <trkpt lat="43.59875" lon="3.81203">
        <ele>40.253522251253</ele>
        <time>2020-10-10T07:52:04.000Z</time>
      </trkpt>
      <trkpt lat="43.59873" lon="3.81201">
        <ele>40.454729365164</ele>
        <time>2020-10-10T07:52:05.000Z</time>
      </trkpt>
      <trkpt lat="43.59871" lon="3.81199">
        <ele>40.655936479075</ele>
        <time>2020-10-10T07:52:06.000Z</time>
      </trkpt>
      <trkpt lat="43.5987" lon="3.81197">
        <ele>40.857143592986</ele>
        <time>2020-10-10T07:52:07.000Z</time>
      </trkpt>
      <trkpt lat="43.59868" lon="3.81195">
        <ele>41.058350706897</ele>
        <time>2020-10-10T07:52:08.000Z</time>
      </trkpt>
      <trkpt lat="43.59866" lon="3.81192">
        <ele>41.259557820808</ele>
        <time>2020-10-10T07:52:09.000Z</time>
      </trkpt>
      <trkpt lat="43.59864" lon="3.8119">
        <ele>41.460764934719</ele>
        <time>2020-10-10T07:52:10.000Z</time>
      </trkpt>
      <trkpt lat="43.59862" lon="3.81188">
        <ele>41.66197204863</ele>
        <time>2020-10-10T07:52:11.000Z</time>
      </trkpt>
      <trkpt lat="43.59861" lon="3.81186">
        <ele>41.863179162541</ele>
        <time>2020-10-10T07:52:12.000Z</time>
      </trkpt>
      <trkpt lat="43.59859" lon="3.81184">
        <ele>42.032</ele>
        <time>2020-10-10T07:52:13.000Z</time>
      </trkpt>
      <trkpt lat="43.59857" lon="3.81181">
        <ele>42.132</ele>
        <time>2020-10-10T07:52:14.000Z</time>
      </trkpt>
      <trkpt lat="43.59855" lon="3.81179">
        <ele>42.232</ele>
        <time>2020-10-10T07:52:15.000Z</time>
      </trkpt>
      <trkpt lat="43.59854" lon="3.81177">
        <ele>42.332</ele>
        <time>2020-10-10T07:52:16.000Z</time>
      </trkpt>
      <trkpt lat="43.59852" lon="3.81174">
        <ele>42.432</ele>
        <time>2020-10-10T07:52:17.000Z</time>
      </trkpt>
      <trkpt lat="43.5985" lon="3.81171">
        <ele>42.532</ele>
        <time>2020-10-10T07:52:18.000Z</time>
      </trkpt>
      <trkpt lat="43.59849" lon="3.81168">
        <ele>42.632</ele>
        <time>2020-10-10T07:52:19.000Z</time>
      </trkpt>
      <trkpt lat="43.59847" lon="3.81166">
        <ele>42.732</ele>
        <time>2020-10-10T07:52:20.000Z</time>
      </trkpt>
      <trkpt lat="43.59846" lon="3.81163">
        <ele>42.832</ele>
        <time>2020-10-10T07:52:21.000Z</time>
      </trkpt>
      <trkpt lat="43.59844" lon="3.8116">
        <ele>42.932</ele>
        <time>2020-10-10T07:52:22.000Z</time>
      </trkpt>
      <trkpt lat="43.59843" lon="3.81158">
        <ele>43.031558205323</ele>
        <time>2020-10-10T07:52:23.000Z</time>
      </trkpt>
      <trkpt lat="43.59841" lon="3.81155">
        <ele>43.130177596956</ele>
        <time>2020-10-10T07:52:24.000Z</time>
      </trkpt>
      <trkpt lat="43.5984" lon="3.81152">
        <ele>43.22879698859</ele>
        <time>2020-10-10T07:52:25.000Z</time>
      </trkpt>
      <trkpt lat="43.59838" lon="3.81149">
        <ele>43.327416380223</ele>
        <time>2020-10-10T07:52:26.000Z</time>
      </trkpt>
      <trkpt lat="43.59837" lon="3.81146">
        <ele>43.426035771857</ele>
        <time>2020-10-10T07:52:27.000Z</time>
      </trkpt>
      <trkpt lat="43.59835" lon="3.81143">
        <ele>43.52465516349</ele>
        <time>2020-10-10T07:52:28.000Z</time>
      </trkpt>
      <trkpt lat="43.59834" lon="3.81141">
        <ele>43.623274555124</ele>
        <time>2020-10-10T07:52:29.000Z</time>
      </trkpt>
      <trkpt lat="43.59832" lon="3.8114">
        <ele>43.721893946757</ele>
        <time>2020-10-10T07:52:30.000Z</time>
      </trkpt>
      <trkpt lat="43.5983" lon="3.81141">
        <ele>43.820513338391</ele>
        <time>2020-10-10T07:52:31.000Z</time>
      </trkpt>
      <trkpt lat="43.59828" lon="3.81142">
        <ele>43.919132730025</ele>
        <time>2020-10-10T07:52:32.000Z</time>
      </trkpt>
      <trkpt lat="43.59826" lon="3.81144">
        <ele>43.981743784669</ele>
        <time>2020-10-10T07:52:33.000Z</time>
      </trkpt>
      <trkpt lat="43.59825" lon="3.81146">
        <ele>43.880323972203</ele>
        <time>2020-10-10T07:52:34.000Z</time>
      </trkpt>
      <trkpt lat="43.59824" lon="3.81149">
        <ele>43.778904159738</ele>
        <time>2020-10-10T07:52:35.000Z</time>
      </trkpt>
      <trkpt lat="43.59822" lon="3.81152">
        <ele>43.677484347272</ele>
        <time>2020-10-10T07:52:36.000Z</time>
      </trkpt>
      <trkpt lat="43.5982" lon="3.81156">
        <ele>43.576064534806</ele>
        <time>2020-10-10T07:52:37.000Z</time>
      </trkpt>
      <trkpt lat="43.59819" lon="3.8116">
        <ele>43.47464472234</ele>
        <time>2020-10-10T07:52:38.000Z</time>
      </trkpt>
      <trkpt lat="43.59817" lon="3.81164">
        <ele>43.373224909874</ele>
        <time>2020-10-10T07:52:39.000Z</time>
      </trkpt>
      <trkpt lat="43.59816" lon="3.81168">
        <ele>43.271805097409</ele>
        <time>2020-10-10T07:52:40.000Z</time>
      </trkpt>
      <trkpt lat="43.59814" lon="3.81172">
        <ele>43.170385284943</ele>
        <time>2020-10-10T07:52:41.000Z</time>
      </trkpt>
      <trkpt lat="43.59813" lon="3.81176">
        <ele>43.068965472477</ele>
        <time>2020-10-10T07:52:42.000Z</time>
      </trkpt>
      <trkpt lat="43.59812" lon="3.81181">
        <ele>42.968</ele>
        <time>2020-10-10T07:52:43.000Z</time>
      </trkpt>
      <trkpt lat="43.59811" lon="3.81186">
        <ele>42.868</ele>
        <time>2020-10-10T07:52:44.000Z</time>
      </trkpt>
      <trkpt lat="43.5981" lon="3.81192">
        <ele>42.768</ele>
        <time>2020-10-10T07:52:45.000Z</time>
      </trkpt>
      <trkpt lat="43.59808" lon="3.81198">
        <ele>42.668</ele>
        <time>2020-10-10T07:52:46.000Z</time>
      </trkpt>
      <trkpt lat="43.59805" lon="3.81204">
        <ele>42.568</ele>
        <time>2020-10-10T07:52:47.000Z</time>
      </trkpt>
      <trkpt lat="43.59802" lon="3.81209">
        <ele>42.468</ele>
        <time>2020-10-10T07:52:48.000Z</time>
      </trkpt>
      <trkpt lat="43.59799" lon="3.81215">
        <ele>42.368</ele>
        <time>2020-10-10T07:52:49.000Z</time>
      </trkpt>
      <trkpt lat="43.59795" lon="3.8122">
        <ele>42.268</ele>
        <time>2020-10-10T07:52:50.000Z</time>
      </trkpt>
      <trkpt lat="43.59792" lon="3.81225">
        <ele>42.168</ele>
        <time>2020-10-10T07:52:51.000Z</time>
      </trkpt>
      <trkpt lat="43.59789" lon="3.8123">
        <ele>42.068</ele>
        <time>2020-10-10T07:52:52.000Z</time>
      </trkpt>
      <trkpt lat="43.59785" lon="3.81235">
        <ele>41.936</ele>
        <time>2020-10-10T07:52:53.000Z</time>
      </trkpt>
      <trkpt lat="43.59782" lon="3.81241">
        <ele>41.736</ele>
        <time>2020-10-10T07:52:54.000Z</time>
      </trkpt>
      <trkpt lat="43.59779" lon="3.81246">
        <ele>41.536</ele>
        <time>2020-10-10T07:52:55.000Z</time>
      </trkpt>
      <trkpt lat="43.59777" lon="3.81251">
        <ele>41.336</ele>
        <time>2020-10-10T07:52:56.000Z</time>
      </trkpt>
      <trkpt lat="43.59774" lon="3.81257">
        <ele>41.136</ele>
        <time>2020-10-10T07:52:57.000Z</time>
      </trkpt>
      <trkpt lat="43.59771" lon="3.81262">
        <ele>40.936</ele>
        <time>2020-10-10T07:52:58.000Z</time>
      </trkpt>
      <trkpt lat="43.59768" lon="3.81268">
        <ele>40.736</ele>
        <time>2020-10-10T07:52:59.000Z</time>
      </trkpt>
      <trkpt lat="43.59765" lon="3.81274">
        <ele>40.536</ele>
        <time>2020-10-10T07:53:00.000Z</time>
      </trkpt>
      <trkpt lat="43.59762" lon="3.8128">
        <ele>40.336</ele>
        <time>2020-10-10T07:53:01.000Z</time>
      </trkpt>
      <trkpt lat="43.59759" lon="3.81286">
        <ele>40.136</ele>
        <time>2020-10-10T07:53:02.000Z</time>
      </trkpt>
      <trkpt lat="43.59756" lon="3.81292">
        <ele>39.968901836782</ele>
        <time>2020-10-10T07:53:03.000Z</time>
      </trkpt>
      <trkpt lat="43.59753" lon="3.81298">
        <ele>39.871720076725</ele>
        <time>2020-10-10T07:53:04.000Z</time>
      </trkpt>
      <trkpt lat="43.5975" lon="3.81304">
        <ele>39.774538316669</ele>
        <time>2020-10-10T07:53:05.000Z</time>
      </trkpt>
      <trkpt lat="43.59747" lon="3.8131">
        <ele>39.677356556612</ele>
        <time>2020-10-10T07:53:06.000Z</time>
      </trkpt>
      <trkpt lat="43.59743" lon="3.81316">
        <ele>39.580174796556</ele>
        <time>2020-10-10T07:53:07.000Z</time>
      </trkpt>
      <trkpt lat="43.5974" lon="3.81322">
        <ele>39.482993036499</ele>
        <time>2020-10-10T07:53:08.000Z</time>
      </trkpt>
      <trkpt lat="43.59737" lon="3.81328">
        <ele>39.385811276443</ele>
        <time>2020-10-10T07:53:09.000Z</time>
      </trkpt>
      <trkpt lat="43.59734" lon="3.81334">
        <ele>39.288629516386</ele>
        <time>2020-10-10T07:53:10.000Z</time>
      </trkpt>
      <trkpt lat="43.59731" lon="3.8134">
        <ele>39.19144775633</ele>
        <time>2020-10-10T07:53:11.000Z</time>
      </trkpt>
      <trkpt lat="43.59727" lon="3.81346">
        <ele>39.094265996273</ele>
        <time>2020-10-10T07:53:12.000Z</time>
      </trkpt>
      <trkpt lat="43.59724" lon="3.81352">
        <ele>38.990730219327</ele>
        <time>2020-10-10T07:53:13.000Z</time>
      </trkpt>
      <trkpt lat="43.59721" lon="3.81358">
        <ele>38.681770485925</ele>
        <time>2020-10-10T07:53:14.000Z</time>
      </trkpt>
      <trkpt lat="43.59717" lon="3.81364">
        <ele>38.372810752524</ele>
        <time>2020-10-10T07:53:15.000Z</time>
      </trkpt>
      <trkpt lat="43.59714" lon="3.8137">
        <ele>38.063851019122</ele>
        <time>2020-10-10T07:53:16.000Z</time>
      </trkpt>
      <trkpt lat="43.59711" lon="3.81376">
        <ele>37.754891285721</ele>
        <time>2020-10-10T07:53:17.000Z</time>
      </trkpt>
      <trkpt lat="43.59708" lon="3.81382">
        <ele>37.445931552319</ele>
        <time>2020-10-10T07:53:18.000Z</time>
      </trkpt>
      <trkpt lat="43.59705" lon="3.81389">
        <ele>37.136971818918</ele>
        <time>2020-10-10T07:53:19.000Z</time>
      </trkpt>
      <trkpt lat="43.59702" lon="3.81396">
        <ele>36.828012085516</ele>
        <time>2020-10-10T07:53:20.000Z</time>
      </trkpt>
      <trkpt lat="43.59699" lon="3.81403">
        <ele>36.519052352115</ele>
        <time>2020-10-10T07:53:21.000Z</time>
      </trkpt>
      <trkpt lat="43.59695" lon="3.8141">
        <ele>36.210092618713</ele>
        <time>2020-10-10T07:53:22.000Z</time>
      </trkpt>
      <trkpt lat="43.59692" lon="3.81416">
        <ele>36</ele>
        <time>2020-10-10T07:53:23.000Z</time>
      </trkpt>
      <trkpt lat="43.59689" lon="3.81421">
        <ele>36</ele>
        <time>2020-10-10T07:53:24.000Z</time>
      </trkpt>
      <trkpt lat="43.59686" lon="3.81426">
        <ele>36</ele>
        <time>2020-10-10T07:53:25.000Z</time>
      </trkpt>
      <trkpt lat="43.59683" lon="3.81431">
        <ele>36</ele>
        <time>2020-10-10T07:53:26.000Z</time>
      </trkpt>
      <trkpt lat="43.5968" lon="3.81435">
        <ele>36</ele>
        <time>2020-10-10T07:53:27.000Z</time>
      </trkpt>
      <trkpt lat="43.59675" lon="3.81438">
        <ele>36</ele>
        <time>2020-10-10T07:53:28.000Z</time>
      </trkpt>
      <trkpt lat="43.59671" lon="3.8144">
        <ele>36</ele>
        <time>2020-10-10T07:53:29.000Z</time>
      </trkpt>
      <trkpt lat="43.59666" lon="3.81439">
        <ele>36</ele>
        <time>2020-10-10T07:53:30.000Z</time>
      </trkpt>
      <trkpt lat="43.59661" lon="3.81435">
        <ele>36</ele>
        <time>2020-10-10T07:53:31.000Z</time>
      </trkpt>
      <trkpt lat="43.59656" lon="3.81432">
        <ele>36</ele>
        <time>2020-10-10T07:53:32.000Z</time>
      </trkpt>
      <trkpt lat="43.59651" lon="3.81429">
        <ele>35.969940501765</ele>
        <time>2020-10-10T07:53:33.000Z</time>
      </trkpt>
      <trkpt lat="43.59646" lon="3.81427">
        <ele>35.869740036707</ele>
        <time>2020-10-10T07:53:34.000Z</time>
      </trkpt>
      <trkpt lat="43.5964" lon="3.81425">
        <ele>35.769539571649</ele>
        <time>2020-10-10T07:53:35.000Z</time>
      </trkpt>
      <trkpt lat="43.59635" lon="3.81424">
        <ele>35.66933910659</ele>
        <time>2020-10-10T07:53:36.000Z</time>
      </trkpt>
      <trkpt lat="43.59629" lon="3.81423">
        <ele>35.569138641532</ele>
        <time>2020-10-10T07:53:37.000Z</time>
      </trkpt>
      <trkpt lat="43.59623" lon="3.81422">
        <ele>35.468938176473</ele>
        <time>2020-10-10T07:53:38.000Z</time>
      </trkpt>
      <trkpt lat="43.59617" lon="3.81421">
        <ele>35.368737711415</ele>
        <time>2020-10-10T07:53:39.000Z</time>
      </trkpt>
      <trkpt lat="43.59611" lon="3.81421">
        <ele>35.268537246357</ele>
        <time>2020-10-10T07:53:40.000Z</time>
      </trkpt>
      <trkpt lat="43.59605" lon="3.8142">
        <ele>35.168336781298</ele>
        <time>2020-10-10T07:53:41.000Z</time>
      </trkpt>
      <trkpt lat="43.59599" lon="3.8142">
        <ele>35.06813631624</ele>
        <time>2020-10-10T07:53:42.000Z</time>
      </trkpt>
      <trkpt lat="43.59593" lon="3.8142">
        <ele>34.937316336867</ele>
        <time>2020-10-10T07:53:43.000Z</time>
      </trkpt>
      <trkpt lat="43.59588" lon="3.81419">
        <ele>34.741429889577</ele>
        <time>2020-10-10T07:53:44.000Z</time>
      </trkpt>
      <trkpt lat="43.59583" lon="3.8142">
        <ele>34.545543442286</ele>
        <time>2020-10-10T07:53:45.000Z</time>
      </trkpt>
      <trkpt lat="43.59578" lon="3.8142">
        <ele>34.349656994995</ele>
        <time>2020-10-10T07:53:46.000Z</time>
      </trkpt>
      <trkpt lat="43.59573" lon="3.8142">
        <ele>34.153770547705</ele>
        <time>2020-10-10T07:53:47.000Z</time>
      </trkpt>
      <trkpt lat="43.59567" lon="3.8142">
        <ele>33.957884100414</ele>
        <time>2020-10-10T07:53:48.000Z</time>
      </trkpt>
      <trkpt lat="43.59562" lon="3.81419">
        <ele>33.761997653124</ele>
        <time>2020-10-10T07:53:49.000Z</time>
      </trkpt>
      <trkpt lat="43.59556" lon="3.81419">
        <ele>33.566111205833</ele>
        <time>2020-10-10T07:53:50.000Z</time>
      </trkpt>
      <trkpt lat="43.59551" lon="3.81418">
        <ele>33.370224758542</ele>
        <time>2020-10-10T07:53:51.000Z</time>
      </trkpt>
      <trkpt lat="43.59546" lon="3.81417">
        <ele>33.174338311252</ele>
        <time>2020-10-10T07:53:52.000Z</time>
      </trkpt>
      <trkpt lat="43.59541" lon="3.81416">
        <ele>32.977527443505</ele>
        <time>2020-10-10T07:53:53.000Z</time>
      </trkpt>
      <trkpt lat="43.59536" lon="3.81416">
        <ele>32.773237418349</ele>
        <time>2020-10-10T07:53:54.000Z</time>
      </trkpt>
      <trkpt lat="43.59531" lon="3.81415">
        <ele>32.568947393194</ele>
        <time>2020-10-10T07:53:55.000Z</time>
      </trkpt>
      <trkpt lat="43.59526" lon="3.81415">
        <ele>32.364657368039</ele>
        <time>2020-10-10T07:53:56.000Z</time>
      </trkpt>
      <trkpt lat="43.59521" lon="3.81415">
        <ele>32.160367342883</ele>
        <time>2020-10-10T07:53:57.000Z</time>
      </trkpt>
      <trkpt lat="43.59516" lon="3.81415">
        <ele>31.956077317728</ele>
        <time>2020-10-10T07:53:58.000Z</time>
      </trkpt>
      <trkpt lat="43.59511" lon="3.81414">
        <ele>31.751787292572</ele>
        <time>2020-10-10T07:53:59.000Z</time>
      </trkpt>
      <trkpt lat="43.59506" lon="3.81414">
        <ele>31.547497267417</ele>
        <time>2020-10-10T07:54:00.000Z</time>
      </trkpt>
      <trkpt lat="43.59501" lon="3.81413">
        <ele>31.343207242261</ele>
        <time>2020-10-10T07:54:01.000Z</time>
      </trkpt>
      <trkpt lat="43.59496" lon="3.81412">
        <ele>31.138917217106</ele>
        <time>2020-10-10T07:54:02.000Z</time>
      </trkpt>
      <trkpt lat="43.59491" lon="3.81411">
        <ele>31</ele>
        <time>2020-10-10T07:54:03.000Z</time>
      </trkpt>
      <trkpt lat="43.59485" lon="3.8141">
        <ele>31</ele>
        <time>2020-10-10T07:54:04.000Z</time>
      </trkpt>
      <trkpt lat="43.5948" lon="3.8141">
        <ele>31</ele>
        <time>2020-10-10T07:54:05.000Z</time>
      </trkpt>
      <trkpt lat="43.59475" lon="3.81409">
        <ele>31</ele>
        <time>2020-10-10T07:54:06.000Z</time>
      </trkpt>
      <trkpt lat="43.5947" lon="3.81408">
        <ele>31</ele>
        <time>2020-10-10T07:54:07.000Z</time>
      </trkpt>
      <trkpt lat="43.59465" lon="3.81406">
        <ele>31</ele>
        <time>2020-10-10T07:54:08.000Z</time>
      </trkpt>
      <trkpt lat="43.59459" lon="3.81405">
        <ele>31</ele>
        <time>2020-10-10T07:54:09.000Z</time>
      </trkpt>
      <trkpt lat="43.59454" lon="3.81404">
        <ele>31</ele>
        <time>2020-10-10T07:54:10.000Z</time>
      </trkpt>
      <trkpt lat="43.59449" lon="3.81402">
        <ele>31</ele>
        <time>2020-10-10T07:54:11.000Z</time>
      </trkpt>
      <trkpt lat="43.59444" lon="3.814">
        <ele>31</ele>
        <time>2020-10-10T07:54:12.000Z</time>
      </trkpt>
      <trkpt lat="43.59439" lon="3.81397">
        <ele>31</ele>
        <time>2020-10-10T07:54:13.000Z</time>
      </trkpt>
      <trkpt lat="43.59434" lon="3.81395">
        <ele>31</ele>
        <time>2020-10-10T07:54:14.000Z</time>
      </trkpt>
      <trkpt lat="43.59429" lon="3.81392">
        <ele>31</ele>
        <time>2020-10-10T07:54:15.000Z</time>
      </trkpt>
      <trkpt lat="43.59424" lon="3.8139">
        <ele>31</ele>
        <time>2020-10-10T07:54:16.000Z</time>
      </trkpt>
      <trkpt lat="43.59418" lon="3.81387">
        <ele>31</ele>
        <time>2020-10-10T07:54:17.000Z</time>
      </trkpt>
      <trkpt lat="43.59413" lon="3.81385">
        <ele>31</ele>
        <time>2020-10-10T07:54:18.000Z</time>
      </trkpt>
      <trkpt lat="43.59408" lon="3.81382">
        <ele>31</ele>
        <time>2020-10-10T07:54:19.000Z</time>
      </trkpt>
      <trkpt lat="43.59403" lon="3.8138">
        <ele>31</ele>
        <time>2020-10-10T07:54:20.000Z</time>
      </trkpt>
      <trkpt lat="43.59398" lon="3.81377">
        <ele>31</ele>
        <time>2020-10-10T07:54:21.000Z</time>
      </trkpt>
      <trkpt lat="43.59393" lon="3.81375">
        <ele>31</ele>
        <time>2020-10-10T07:54:22.000Z</time>
      </trkpt>
      <trkpt lat="43.59388" lon="3.81372">
        <ele>30.968</ele>
        <time>2020-10-10T07:54:23.000Z</time>
      </trkpt>
      <trkpt lat="43.59383" lon="3.8137">
        <ele>30.868</ele>
        <time>2020-10-10T07:54:24.000Z</time>
      </trkpt>
      <trkpt lat="43.59378" lon="3.81368">
        <ele>30.768</ele>
        <time>2020-10-10T07:54:25.000Z</time>
      </trkpt>
      <trkpt lat="43.59373" lon="3.81366">
        <ele>30.668</ele>
        <time>2020-10-10T07:54:26.000Z</time>
      </trkpt>
      <trkpt lat="43.59368" lon="3.81363">
        <ele>30.568</ele>
        <time>2020-10-10T07:54:27.000Z</time>
      </trkpt>
      <trkpt lat="43.59363" lon="3.81361">
        <ele>30.468</ele>
        <time>2020-10-10T07:54:28.000Z</time>
      </trkpt>
      <trkpt lat="43.59359" lon="3.81358">
        <ele>30.368</ele>
        <time>2020-10-10T07:54:29.000Z</time>
      </trkpt>
      <trkpt lat="43.59354" lon="3.81356">
        <ele>30.268</ele>
        <time>2020-10-10T07:54:30.000Z</time>
      </trkpt>
      <trkpt lat="43.59349" lon="3.81353">
        <ele>30.168</ele>
        <time>2020-10-10T07:54:31.000Z</time>
      </trkpt>
      <trkpt lat="43.59344" lon="3.8135">
        <ele>30.068</ele>
        <time>2020-10-10T07:54:32.000Z</time>
      </trkpt>
      <trkpt lat="43.59339" lon="3.81348">
        <ele>30</ele>
        <time>2020-10-10T07:54:33.000Z</time>
      </trkpt>
      <trkpt lat="43.59335" lon="3.81346">
        <ele>30</ele>
        <time>2020-10-10T07:54:34.000Z</time>
      </trkpt>
      <trkpt lat="43.5933" lon="3.81343">
        <ele>30</ele>
        <time>2020-10-10T07:54:35.000Z</time>
      </trkpt>
      <trkpt lat="43.59325" lon="3.81341">
        <ele>30</ele>
        <time>2020-10-10T07:54:36.000Z</time>
      </trkpt>
      <trkpt lat="43.59321" lon="3.81338">
        <ele>30</ele>
        <time>2020-10-10T07:54:37.000Z</time>
      </trkpt>
      <trkpt lat="43.59316" lon="3.81336">
        <ele>30</ele>
        <time>2020-10-10T07:54:38.000Z</time>
      </trkpt>
      <trkpt lat="43.59312" lon="3.81334">
        <ele>30</ele>
        <time>2020-10-10T07:54:39.000Z</time>
      </trkpt>
      <trkpt lat="43.59308" lon="3.81331">
        <ele>30</ele>
        <time>2020-10-10T07:54:40.000Z</time>
      </trkpt>
      <trkpt lat="43.59303" lon="3.81329">
        <ele>30</ele>
        <time>2020-10-10T07:54:41.000Z</time>
      </trkpt>
      <trkpt lat="43.59299" lon="3.81327">
        <ele>30</ele>
        <time>2020-10-10T07:54:42.000Z</time>
      </trkpt>
      <trkpt lat="43.59294" lon="3.81325">
        <ele>30</ele>
        <time>2020-10-10T07:54:43.000Z</time>
      </trkpt>
      <trkpt lat="43.5929" lon="3.81323">
        <ele>30</ele>
        <time>2020-10-10T07:54:44.000Z</time>
      </trkpt>
      <trkpt lat="43.59285" lon="3.81322">
        <ele>30</ele>
        <time>2020-10-10T07:54:45.000Z</time>
      </trkpt>
      <trkpt lat="43.59281" lon="3.81321">
        <ele>30</ele>
        <time>2020-10-10T07:54:46.000Z</time>
      </trkpt>
      <trkpt lat="43.59276" lon="3.8132">
        <ele>30</ele>
        <time>2020-10-10T07:54:47.000Z</time>
      </trkpt>
      <trkpt lat="43.59272" lon="3.81319">
        <ele>30</ele>
        <time>2020-10-10T07:54:48.000Z</time>
      </trkpt>
      <trkpt lat="43.59268" lon="3.81319">
        <ele>30</ele>
        <time>2020-10-10T07:54:49.000Z</time>
      </trkpt>
      <trkpt lat="43.59264" lon="3.81321">
        <ele>30</ele>
        <time>2020-10-10T07:54:50.000Z</time>
      </trkpt>
      <trkpt lat="43.59261" lon="3.81325">
        <ele>30</ele>
        <time>2020-10-10T07:54:51.000Z</time>
      </trkpt>
      <trkpt lat="43.59258" lon="3.8133">
        <ele>30</ele>
        <time>2020-10-10T07:54:52.000Z</time>
      </trkpt>
      <trkpt lat="43.59255" lon="3.81334">
        <ele>29.968</ele>
        <time>2020-10-10T07:54:53.000Z</time>
      </trkpt>
      <trkpt lat="43.59252" lon="3.81339">
        <ele>29.868</ele>
        <time>2020-10-10T07:54:54.000Z</time>
      </trkpt>
      <trkpt lat="43.59249" lon="3.81343">
        <ele>29.768</ele>
        <time>2020-10-10T07:54:55.000Z</time>
      </trkpt>
      <trkpt lat="43.59246" lon="3.81348">
        <ele>29.668</ele>
        <time>2020-10-10T07:54:56.000Z</time>
      </trkpt>
      <trkpt lat="43.59243" lon="3.81354">
        <ele>29.568</ele>
        <time>2020-10-10T07:54:57.000Z</time>
      </trkpt>
      <trkpt lat="43.5924" lon="3.81359">
        <ele>29.468</ele>
        <time>2020-10-10T07:54:58.000Z</time>
      </trkpt>
      <trkpt lat="43.59237" lon="3.81363">
        <ele>29.368</ele>
        <time>2020-10-10T07:54:59.000Z</time>
      </trkpt>
      <trkpt lat="43.59234" lon="3.81369">
        <ele>29.268</ele>
        <time>2020-10-10T07:55:00.000Z</time>
      </trkpt>
      <trkpt lat="43.59232" lon="3.81374">
        <ele>29.168</ele>
        <time>2020-10-10T07:55:01.000Z</time>
      </trkpt>
      <trkpt lat="43.59229" lon="3.81379">
        <ele>29.068</ele>
        <time>2020-10-10T07:55:02.000Z</time>
      </trkpt>
      <trkpt lat="43.59226" lon="3.81384">
        <ele>28.968031957812</ele>
        <time>2020-10-10T07:55:03.000Z</time>
      </trkpt>
      <trkpt lat="43.59224" lon="3.81389">
        <ele>28.868131825976</ele>
        <time>2020-10-10T07:55:04.000Z</time>
      </trkpt>
      <trkpt lat="43.59221" lon="3.81394">
        <ele>28.76823169414</ele>
        <time>2020-10-10T07:55:05.000Z</time>
      </trkpt>
      <trkpt lat="43.59219" lon="3.81398">
        <ele>28.668331562304</ele>
        <time>2020-10-10T07:55:06.000Z</time>
      </trkpt>
      <trkpt lat="43.59216" lon="3.81403">
        <ele>28.568431430468</ele>
        <time>2020-10-10T07:55:07.000Z</time>
      </trkpt>
      <trkpt lat="43.59212" lon="3.81408">
        <ele>28.468531298631</ele>
        <time>2020-10-10T07:55:08.000Z</time>
      </trkpt>
      <trkpt lat="43.59209" lon="3.81413">
        <ele>28.368631166795</ele>
        <time>2020-10-10T07:55:09.000Z</time>
      </trkpt>
      <trkpt lat="43.59206" lon="3.81418">
        <ele>28.268731034959</ele>
        <time>2020-10-10T07:55:10.000Z</time>
      </trkpt>
      <trkpt lat="43.59203" lon="3.81423">
        <ele>28.168830903123</ele>
        <time>2020-10-10T07:55:11.000Z</time>
      </trkpt>
      <trkpt lat="43.592" lon="3.81429">
        <ele>28.068930771287</ele>
        <time>2020-10-10T07:55:12.000Z</time>
      </trkpt>
      <trkpt lat="43.59197" lon="3.81435">
        <ele>27.969607529412</ele>
        <time>2020-10-10T07:55:13.000Z</time>
      </trkpt>
      <trkpt lat="43.59194" lon="3.81441">
        <ele>27.871568313726</ele>
        <time>2020-10-10T07:55:14.000Z</time>
      </trkpt>
      <trkpt lat="43.5919" lon="3.81446">
        <ele>27.773529098039</ele>
        <time>2020-10-10T07:55:15.000Z</time>
      </trkpt>
      <trkpt lat="43.59187" lon="3.81452">
        <ele>27.675489882353</ele>
        <time>2020-10-10T07:55:16.000Z</time>
      </trkpt>
      <trkpt lat="43.59185" lon="3.81458">
        <ele>27.577450666667</ele>
        <time>2020-10-10T07:55:17.000Z</time>
      </trkpt>
      <trkpt lat="43.59182" lon="3.81463">
        <ele>27.47941145098</ele>
        <time>2020-10-10T07:55:18.000Z</time>
      </trkpt>
      <trkpt lat="43.59179" lon="3.81468">
        <ele>27.381372235294</ele>
        <time>2020-10-10T07:55:19.000Z</time>
      </trkpt>
      <trkpt lat="43.59176" lon="3.81472">
        <ele>27.283333019608</ele>
        <time>2020-10-10T07:55:20.000Z</time>
      </trkpt>
      <trkpt lat="43.59173" lon="3.81477">
        <ele>27.185293803922</ele>
        <time>2020-10-10T07:55:21.000Z</time>
      </trkpt>
      <trkpt lat="43.59171" lon="3.81481">
        <ele>27.087254588235</ele>
        <time>2020-10-10T07:55:22.000Z</time>
      </trkpt>
      <trkpt lat="43.59168" lon="3.81485">
        <ele>26.988763721752</ele>
        <time>2020-10-10T07:55:23.000Z</time>
      </trkpt>
      <trkpt lat="43.59166" lon="3.8149">
        <ele>26.886618709175</ele>
        <time>2020-10-10T07:55:24.000Z</time>
      </trkpt>
      <trkpt lat="43.59163" lon="3.81495">
        <ele>26.784473696597</ele>
        <time>2020-10-10T07:55:25.000Z</time>
      </trkpt>
      <trkpt lat="43.59161" lon="3.81499">
        <ele>26.682328684019</ele>
        <time>2020-10-10T07:55:26.000Z</time>
      </trkpt>
      <trkpt lat="43.59159" lon="3.81504">
        <ele>26.580183671441</ele>
        <time>2020-10-10T07:55:27.000Z</time>
      </trkpt>
      <trkpt lat="43.59159" lon="3.81508">
        <ele>26.478038658864</ele>
        <time>2020-10-10T07:55:28.000Z</time>
      </trkpt>
      <trkpt lat="43.59158" lon="3.81512">
        <ele>26.375893646286</ele>
        <time>2020-10-10T07:55:29.000Z</time>
      </trkpt>
      <trkpt lat="43.59158" lon="3.81517">
        <ele>26.273748633708</ele>
        <time>2020-10-10T07:55:30.000Z</time>
      </trkpt>
      <trkpt lat="43.59158" lon="3.81521">
        <ele>26.171603621131</ele>
        <time>2020-10-10T07:55:31.000Z</time>
      </trkpt>
      <trkpt lat="43.5916" lon="3.81526">
        <ele>26.069458608553</ele>
        <time>2020-10-10T07:55:32.000Z</time>
      </trkpt>
      <trkpt lat="43.59161" lon="3.8153">
        <ele>26</ele>
        <time>2020-10-10T07:55:33.000Z</time>
      </trkpt>
      <trkpt lat="43.59163" lon="3.81535">
        <ele>26</ele>
        <time>2020-10-10T07:55:34.000Z</time>
      </trkpt>
      <trkpt lat="43.59165" lon="3.8154">
        <ele>26</ele>
        <time>2020-10-10T07:55:35.000Z</time>
      </trkpt>
      <trkpt lat="43.59166" lon="3.81545">
        <ele>26</ele>
        <time>2020-10-10T07:55:36.000Z</time>
      </trkpt>
      <trkpt lat="43.59168" lon="3.81551">
        <ele>26</ele>
        <time>2020-10-10T07:55:37.000Z</time>
      </trkpt>
      <trkpt lat="43.5917" lon="3.81556">
        <ele>26</ele>
        <time>2020-10-10T07:55:38.000Z</time>
      </trkpt>
      <trkpt lat="43.59172" lon="3.81562">
        <ele>26</ele>
        <time>2020-10-10T07:55:39.000Z</time>
      </trkpt>
      <trkpt lat="43.59174" lon="3.81568">
        <ele>26</ele>
        <time>2020-10-10T07:55:40.000Z</time>
      </trkpt>
      <trkpt lat="43.59175" lon="3.81574">
        <ele>26</ele>
        <time>2020-10-10T07:55:41.000Z</time>
      </trkpt>
      <trkpt lat="43.59177" lon="3.8158">
        <ele>26</ele>
        <time>2020-10-10T07:55:42.000Z</time>
      </trkpt>
      <trkpt lat="43.59178" lon="3.81586">
        <ele>26</ele>
        <time>2020-10-10T07:55:43.000Z</time>
      </trkpt>
      <trkpt lat="43.59178" lon="3.81592">
        <ele>26</ele>
        <time>2020-10-10T07:55:44.000Z</time>
      </trkpt>
      <trkpt lat="43.59175" lon="3.81597">
        <ele>26</ele>
        <time>2020-10-10T07:55:45.000Z</time>
      </trkpt>
      <trkpt lat="43.59171" lon="3.816">
        <ele>26</ele>
        <time>2020-10-10T07:55:46.000Z</time>
      </trkpt>
      <trkpt lat="43.59167" lon="3.81603">
        <ele>26</ele>
        <time>2020-10-10T07:55:47.000Z</time>
      </trkpt>
      <trkpt lat="43.59163" lon="3.81605">
        <ele>26</ele>
        <time>2020-10-10T07:55:48.000Z</time>
      </trkpt>
      <trkpt lat="43.5916" lon="3.81607">
        <ele>26</ele>
        <time>2020-10-10T07:55:49.000Z</time>
      </trkpt>
      <trkpt lat="43.59157" lon="3.81609">
        <ele>26</ele>
        <time>2020-10-10T07:55:50.000Z</time>
      </trkpt>
      <trkpt lat="43.59154" lon="3.81612">
        <ele>26</ele>
        <time>2020-10-10T07:55:51.000Z</time>
      </trkpt>
      <trkpt lat="43.59151" lon="3.81615">
        <ele>26</ele>
        <time>2020-10-10T07:55:52.000Z</time>
      </trkpt>
      <trkpt lat="43.59146" lon="3.81617">
        <ele>26</ele>
        <time>2020-10-10T07:55:53.000Z</time>
      </trkpt>
      <trkpt lat="43.5914" lon="3.81614">
        <ele>26</ele>
        <time>2020-10-10T07:55:54.000Z</time>
      </trkpt>
      <trkpt lat="43.59135" lon="3.81612">
        <ele>26</ele>
        <time>2020-10-10T07:55:55.000Z</time>
      </trkpt>
      <trkpt lat="43.5913" lon="3.81611">
        <ele>26</ele>
        <time>2020-10-10T07:55:56.000Z</time>
      </trkpt>
      <trkpt lat="43.59125" lon="3.8161">
        <ele>26</ele>
        <time>2020-10-10T07:55:57.000Z</time>
      </trkpt>
      <trkpt lat="43.59121" lon="3.8161">
        <ele>26</ele>
        <time>2020-10-10T07:55:58.000Z</time>
      </trkpt>
      <trkpt lat="43.59117" lon="3.81608">
        <ele>26</ele>
        <time>2020-10-10T07:55:59.000Z</time>
      </trkpt>
      <trkpt lat="43.59113" lon="3.81605">
        <ele>26</ele>
        <time>2020-10-10T07:56:00.000Z</time>
      </trkpt>
      <trkpt lat="43.59111" lon="3.81601">
        <ele>26</ele>
        <time>2020-10-10T07:56:01.000Z</time>
      </trkpt>
      <trkpt lat="43.59108" lon="3.81597">
        <ele>26</ele>
        <time>2020-10-10T07:56:02.000Z</time>
      </trkpt>
      <trkpt lat="43.59105" lon="3.81592">
        <ele>26</ele>
        <time>2020-10-10T07:56:03.000Z</time>
      </trkpt>
      <trkpt lat="43.59103" lon="3.81588">
        <ele>26</ele>
        <time>2020-10-10T07:56:04.000Z</time>
      </trkpt>
      <trkpt lat="43.59101" lon="3.81583">
        <ele>26</ele>
        <time>2020-10-10T07:56:05.000Z</time>
      </trkpt>
      <trkpt lat="43.59099" lon="3.8158">
        <ele>26</ele>
        <time>2020-10-10T07:56:06.000Z</time>
      </trkpt>
      <trkpt lat="43.59096" lon="3.81577">
        <ele>26</ele>
        <time>2020-10-10T07:56:07.000Z</time>
      </trkpt>
      <trkpt lat="43.59094" lon="3.81573">
        <ele>26</ele>
        <time>2020-10-10T07:56:08.000Z</time>
      </trkpt>
      <trkpt lat="43.59092" lon="3.81569">
        <ele>26</ele>
        <time>2020-10-10T07:56:09.000Z</time>
      </trkpt>
      <trkpt lat="43.59089" lon="3.81565">
        <ele>26</ele>
        <time>2020-10-10T07:56:10.000Z</time>
      </trkpt>
      <trkpt lat="43.59086" lon="3.81561">
        <ele>26</ele>
        <time>2020-10-10T07:56:11.000Z</time>
      </trkpt>
      <trkpt lat="43.59082" lon="3.81557">
        <ele>26</ele>
        <time>2020-10-10T07:56:12.000Z</time>
      </trkpt>
      <trkpt lat="43.59079" lon="3.81553">
        <ele>26</ele>
        <time>2020-10-10T07:56:13.000Z</time>
      </trkpt>
      <trkpt lat="43.59076" lon="3.81549">
        <ele>26</ele>
        <time>2020-10-10T07:56:14.000Z</time>
      </trkpt>
      <trkpt lat="43.59072" lon="3.81544">
        <ele>26</ele>
        <time>2020-10-10T07:56:15.000Z</time>
      </trkpt>
      <trkpt lat="43.59069" lon="3.8154">
        <ele>26</ele>
        <time>2020-10-10T07:56:16.000Z</time>
      </trkpt>
      <trkpt lat="43.59067" lon="3.81536">
        <ele>26</ele>
        <time>2020-10-10T07:56:17.000Z</time>
      </trkpt>
      <trkpt lat="43.59063" lon="3.81531">
        <ele>26</ele>
        <time>2020-10-10T07:56:18.000Z</time>
      </trkpt>
      <trkpt lat="43.5906" lon="3.81526">
        <ele>26</ele>
        <time>2020-10-10T07:56:19.000Z</time>
      </trkpt>
      <trkpt lat="43.59056" lon="3.81521">
        <ele>26</ele>
        <time>2020-10-10T07:56:20.000Z</time>
      </trkpt>
      <trkpt lat="43.59052" lon="3.81517">
        <ele>26</ele>
        <time>2020-10-10T07:56:21.000Z</time>
      </trkpt>
      <trkpt lat="43.59049" lon="3.81512">
        <ele>26</ele>
        <time>2020-10-10T07:56:22.000Z</time>
      </trkpt>
      <trkpt lat="43.59046" lon="3.81507">
        <ele>26</ele>
        <time>2020-10-10T07:56:23.000Z</time>
      </trkpt>
      <trkpt lat="43.59043" lon="3.81503">
        <ele>26</ele>
        <time>2020-10-10T07:56:24.000Z</time>
      </trkpt>
      <trkpt lat="43.59039" lon="3.81499">
        <ele>26</ele>
        <time>2020-10-10T07:56:25.000Z</time>
      </trkpt>
      <trkpt lat="43.59037" lon="3.81494">
        <ele>26</ele>
        <time>2020-10-10T07:56:26.000Z</time>
      </trkpt>
      <trkpt lat="43.59034" lon="3.81491">
        <ele>26</ele>
        <time>2020-10-10T07:56:27.000Z</time>
      </trkpt>
      <trkpt lat="43.59031" lon="3.81488">
        <ele>26</ele>
        <time>2020-10-10T07:56:28.000Z</time>
      </trkpt>
      <trkpt lat="43.59028" lon="3.81485">
        <ele>26</ele>
        <time>2020-10-10T07:56:29.000Z</time>
      </trkpt>
      <trkpt lat="43.59025" lon="3.8148">
        <ele>26</ele>
        <time>2020-10-10T07:56:30.000Z</time>
      </trkpt>
      <trkpt lat="43.59023" lon="3.81476">
        <ele>26</ele>
        <time>2020-10-10T07:56:31.000Z</time>
      </trkpt>
      <trkpt lat="43.59019" lon="3.81472">
        <ele>26</ele>
        <time>2020-10-10T07:56:32.000Z</time>
      </trkpt>
      <trkpt lat="43.59016" lon="3.81467">
        <ele>26</ele>
        <time>2020-10-10T07:56:33.000Z</time>
      </trkpt>
      <trkpt lat="43.59012" lon="3.81462">
        <ele>26</ele>
        <time>2020-10-10T07:56:34.000Z</time>
      </trkpt>
      <trkpt lat="43.59009" lon="3.81457">
        <ele>26</ele>
        <time>2020-10-10T07:56:35.000Z</time>
      </trkpt>
      <trkpt lat="43.59005" lon="3.81452">
        <ele>26</ele>
        <time>2020-10-10T07:56:36.000Z</time>
      </trkpt>
      <trkpt lat="43.59002" lon="3.81447">
        <ele>26</ele>
        <time>2020-10-10T07:56:37.000Z</time>
      </trkpt>
      <trkpt lat="43.58998" lon="3.81442">
        <ele>26</ele>
        <time>2020-10-10T07:56:38.000Z</time>
      </trkpt>
      <trkpt lat="43.58994" lon="3.81437">
        <ele>26</ele>
        <time>2020-10-10T07:56:39.000Z</time>
      </trkpt>
      <trkpt lat="43.5899" lon="3.81432">
        <ele>26</ele>
        <time>2020-10-10T07:56:40.000Z</time>
      </trkpt>
      <trkpt lat="43.58987" lon="3.81427">
        <ele>26</ele>
        <time>2020-10-10T07:56:41.000Z</time>
      </trkpt>
      <trkpt lat="43.58983" lon="3.81422">
        <ele>26</ele>
        <time>2020-10-10T07:56:42.000Z</time>
      </trkpt>
      <trkpt lat="43.5898" lon="3.81417">
        <ele>26</ele>
        <time>2020-10-10T07:56:43.000Z</time>
      </trkpt>
      <trkpt lat="43.58976" lon="3.81412">
        <ele>26</ele>
        <time>2020-10-10T07:56:44.000Z</time>
      </trkpt>
      <trkpt lat="43.58973" lon="3.81407">
        <ele>26</ele>
        <time>2020-10-10T07:56:45.000Z</time>
      </trkpt>
      <trkpt lat="43.58969" lon="3.81403">
        <ele>26</ele>
        <time>2020-10-10T07:56:46.000Z</time>
      </trkpt>
      <trkpt lat="43.58966" lon="3.81398">
        <ele>26</ele>
        <time>2020-10-10T07:56:47.000Z</time>
      </trkpt>
      <trkpt lat="43.58963" lon="3.81393">
        <ele>26</ele>
        <time>2020-10-10T07:56:48.000Z</time>
      </trkpt>
      <trkpt lat="43.58959" lon="3.81389">
        <ele>26</ele>
        <time>2020-10-10T07:56:49.000Z</time>
      </trkpt>
      <trkpt lat="43.58956" lon="3.81384">
        <ele>26</ele>
        <time>2020-10-10T07:56:50.000Z</time>
      </trkpt>
      <trkpt lat="43.58952" lon="3.8138">
        <ele>26</ele>
        <time>2020-10-10T07:56:51.000Z</time>
      </trkpt>
      <trkpt lat="43.58949" lon="3.81376">
        <ele>26</ele>
        <time>2020-10-10T07:56:52.000Z</time>
      </trkpt>
      <trkpt lat="43.58946" lon="3.81372">
        <ele>26.001031661847</ele>
        <time>2020-10-10T07:56:53.000Z</time>
      </trkpt>
      <trkpt lat="43.58943" lon="3.81368">
        <ele>26.104230870334</ele>
        <time>2020-10-10T07:56:54.000Z</time>
      </trkpt>
      <trkpt lat="43.5894" lon="3.81364">
        <ele>26.207430078821</ele>
        <time>2020-10-10T07:56:55.000Z</time>
      </trkpt>
      <trkpt lat="43.58937" lon="3.81359">
        <ele>26.310629287308</ele>
        <time>2020-10-10T07:56:56.000Z</time>
      </trkpt>
      <trkpt lat="43.58934" lon="3.81355">
        <ele>26.413828495795</ele>
        <time>2020-10-10T07:56:57.000Z</time>
      </trkpt>
      <trkpt lat="43.58931" lon="3.81351">
        <ele>26.517027704282</ele>
        <time>2020-10-10T07:56:58.000Z</time>
      </trkpt>
      <trkpt lat="43.58928" lon="3.81347">
        <ele>26.620226912768</ele>
        <time>2020-10-10T07:56:59.000Z</time>
      </trkpt>
      <trkpt lat="43.58925" lon="3.81342">
        <ele>26.723426121255</ele>
        <time>2020-10-10T07:57:00.000Z</time>
      </trkpt>
      <trkpt lat="43.58922" lon="3.81338">
        <ele>26.826625329742</ele>
        <time>2020-10-10T07:57:01.000Z</time>
      </trkpt>
      <trkpt lat="43.58919" lon="3.81334">
        <ele>26.929824538229</ele>
        <time>2020-10-10T07:57:02.000Z</time>
      </trkpt>
      <trkpt lat="43.58916" lon="3.81329">
        <ele>27</ele>
        <time>2020-10-10T07:57:03.000Z</time>
      </trkpt>
      <trkpt lat="43.58913" lon="3.81325">
        <ele>27</ele>
        <time>2020-10-10T07:57:04.000Z</time>
      </trkpt>
      <trkpt lat="43.5891" lon="3.81321">
        <ele>27</ele>
        <time>2020-10-10T07:57:05.000Z</time>
      </trkpt>
      <trkpt lat="43.58908" lon="3.81317">
        <ele>27</ele>
        <time>2020-10-10T07:57:06.000Z</time>
      </trkpt>
      <trkpt lat="43.58905" lon="3.81313">
        <ele>27</ele>
        <time>2020-10-10T07:57:07.000Z</time>
      </trkpt>
      <trkpt lat="43.58901" lon="3.81309">
        <ele>27</ele>
        <time>2020-10-10T07:57:08.000Z</time>
      </trkpt>
      <trkpt lat="43.58898" lon="3.81305">
        <ele>27</ele>
        <time>2020-10-10T07:57:09.000Z</time>
      </trkpt>
      <trkpt lat="43.58895" lon="3.81301">
        <ele>27</ele>
        <time>2020-10-10T07:57:10.000Z</time>
      </trkpt>
      <trkpt lat="43.58892" lon="3.81297">
        <ele>27</ele>
        <time>2020-10-10T07:57:11.000Z</time>
      </trkpt>
      <trkpt lat="43.58888" lon="3.81293">
        <ele>27</ele>
        <time>2020-10-10T07:57:12.000Z</time>
      </trkpt>
      <trkpt lat="43.58885" lon="3.81289">
        <ele>27</ele>
        <time>2020-10-10T07:57:13.000Z</time>
      </trkpt>
      <trkpt lat="43.58882" lon="3.81284">
        <ele>27</ele>
        <time>2020-10-10T07:57:14.000Z</time>
      </trkpt>
      <trkpt lat="43.58879" lon="3.8128">
        <ele>27</ele>
        <time>2020-10-10T07:57:15.000Z</time>
      </trkpt>
      <trkpt lat="43.58876" lon="3.81276">
        <ele>27</ele>
        <time>2020-10-10T07:57:16.000Z</time>
      </trkpt>
      <trkpt lat="43.58873" lon="3.81272">
        <ele>27</ele>
        <time>2020-10-10T07:57:17.000Z</time>
      </trkpt>
      <trkpt lat="43.5887" lon="3.81268">
        <ele>27</ele>
        <time>2020-10-10T07:57:18.000Z</time>
      </trkpt>
      <trkpt lat="43.58867" lon="3.81264">
        <ele>27</ele>
        <time>2020-10-10T07:57:19.000Z</time>
      </trkpt>
      <trkpt lat="43.58864" lon="3.81259">
        <ele>27</ele>
        <time>2020-10-10T07:57:20.000Z</time>
      </trkpt>
      <trkpt lat="43.58861" lon="3.81255">
        <ele>27</ele>
        <time>2020-10-10T07:57:21.000Z</time>
      </trkpt>
      <trkpt lat="43.58858" lon="3.8125">
        <ele>27</ele>
        <time>2020-10-10T07:57:22.000Z</time>
      </trkpt>
      <trkpt lat="43.58854" lon="3.81246">
        <ele>27</ele>
        <time>2020-10-10T07:57:23.000Z</time>
      </trkpt>
      <trkpt lat="43.58851" lon="3.81242">
        <ele>27</ele>
        <time>2020-10-10T07:57:24.000Z</time>
      </trkpt>
      <trkpt lat="43.58848" lon="3.81237">
        <ele>27</ele>
        <time>2020-10-10T07:57:25.000Z</time>
      </trkpt>
      <trkpt lat="43.58845" lon="3.81233">
        <ele>27</ele>
        <time>2020-10-10T07:57:26.000Z</time>
      </trkpt>
      <trkpt lat="43.58842" lon="3.81228">
        <ele>27</ele>
        <time>2020-10-10T07:57:27.000Z</time>
      </trkpt>
      <trkpt lat="43.58839" lon="3.81223">
        <ele>27</ele>
        <time>2020-10-10T07:57:28.000Z</time>
      </trkpt>
      <trkpt lat="43.58836" lon="3.81219">
        <ele>27</ele>
        <time>2020-10-10T07:57:29.000Z</time>
      </trkpt>
      <trkpt lat="43.58832" lon="3.81215">
        <ele>27</ele>
        <time>2020-10-10T07:57:30.000Z</time>
      </trkpt>
      <trkpt lat="43.58829" lon="3.8121">
        <ele>27</ele>
        <time>2020-10-10T07:57:31.000Z</time>
      </trkpt>
      <trkpt lat="43.58826" lon="3.81206">
        <ele>27</ele>
        <time>2020-10-10T07:57:32.000Z</time>
      </trkpt>
      <trkpt lat="43.58823" lon="3.81201">
        <ele>27</ele>
        <time>2020-10-10T07:57:33.000Z</time>
      </trkpt>
      <trkpt lat="43.58819" lon="3.81197">
        <ele>27</ele>
        <time>2020-10-10T07:57:34.000Z</time>
      </trkpt>
      <trkpt lat="43.58816" lon="3.81192">
        <ele>27</ele>
        <time>2020-10-10T07:57:35.000Z</time>
      </trkpt>
      <trkpt lat="43.58813" lon="3.81188">
        <ele>27</ele>
        <time>2020-10-10T07:57:36.000Z</time>
      </trkpt>
      <trkpt lat="43.5881" lon="3.81183">
        <ele>27</ele>
        <time>2020-10-10T07:57:37.000Z</time>
      </trkpt>
      <trkpt lat="43.58806" lon="3.81179">
        <ele>27</ele>
        <time>2020-10-10T07:57:38.000Z</time>
      </trkpt>
      <trkpt lat="43.58803" lon="3.81174">
        <ele>27</ele>
        <time>2020-10-10T07:57:39.000Z</time>
      </trkpt>
      <trkpt lat="43.588" lon="3.8117">
        <ele>27</ele>
        <time>2020-10-10T07:57:40.000Z</time>
      </trkpt>
      <trkpt lat="43.58798" lon="3.81165">
        <ele>27</ele>
        <time>2020-10-10T07:57:41.000Z</time>
      </trkpt>
      <trkpt lat="43.58795" lon="3.8116">
        <ele>27</ele>
        <time>2020-10-10T07:57:42.000Z</time>
      </trkpt>
      <trkpt lat="43.58792" lon="3.81156">
        <ele>27</ele>
        <time>2020-10-10T07:57:43.000Z</time>
      </trkpt>
      <trkpt lat="43.58789" lon="3.81152">
        <ele>27</ele>
        <time>2020-10-10T07:57:44.000Z</time>
      </trkpt>
      <trkpt lat="43.58786" lon="3.81147">
        <ele>27</ele>
        <time>2020-10-10T07:57:45.000Z</time>
      </trkpt>
      <trkpt lat="43.58783" lon="3.81143">
        <ele>27</ele>
        <time>2020-10-10T07:57:46.000Z</time>
      </trkpt>
      <trkpt lat="43.5878" lon="3.81138">
        <ele>27</ele>
        <time>2020-10-10T07:57:47.000Z</time>
      </trkpt>
      <trkpt lat="43.58778" lon="3.81134">
        <ele>27</ele>
        <time>2020-10-10T07:57:48.000Z</time>
      </trkpt>
      <trkpt lat="43.58775" lon="3.81129">
        <ele>27</ele>
        <time>2020-10-10T07:57:49.000Z</time>
      </trkpt>
      <trkpt lat="43.58771" lon="3.81128">
        <ele>27</ele>
        <time>2020-10-10T07:57:50.000Z</time>
      </trkpt>
      <trkpt lat="43.58767" lon="3.81128">
        <ele>27</ele>
        <time>2020-10-10T07:57:51.000Z</time>
      </trkpt>
      <trkpt lat="43.58762" lon="3.81127">
        <ele>27</ele>
        <time>2020-10-10T07:57:52.000Z</time>
      </trkpt>
      <trkpt lat="43.58758" lon="3.81126">
        <ele>27</ele>
        <time>2020-10-10T07:57:53.000Z</time>
      </trkpt>
      <trkpt lat="43.58754" lon="3.81123">
        <ele>27</ele>
        <time>2020-10-10T07:57:54.000Z</time>
      </trkpt>
      <trkpt lat="43.58751" lon="3.8112">
        <ele>27</ele>
        <time>2020-10-10T07:57:55.000Z</time>
      </trkpt>
      <trkpt lat="43.58747" lon="3.81117">
        <ele>27</ele>
        <time>2020-10-10T07:57:56.000Z</time>
      </trkpt>
      <trkpt lat="43.58744" lon="3.81116">
        <ele>27</ele>
        <time>2020-10-10T07:57:57.000Z</time>
      </trkpt>
      <trkpt lat="43.5874" lon="3.81117">
        <ele>27</ele>
        <time>2020-10-10T07:57:58.000Z</time>
      </trkpt>
      <trkpt lat="43.58737" lon="3.8112">
        <ele>27</ele>
        <time>2020-10-10T07:57:59.000Z</time>
      </trkpt>
      <trkpt lat="43.58735" lon="3.81124">
        <ele>27</ele>
        <time>2020-10-10T07:58:00.000Z</time>
      </trkpt>
      <trkpt lat="43.58733" lon="3.81129">
        <ele>27</ele>
        <time>2020-10-10T07:58:01.000Z</time>
      </trkpt>
      <trkpt lat="43.58731" lon="3.81134">
        <ele>27</ele>
        <time>2020-10-10T07:58:02.000Z</time>
      </trkpt>
      <trkpt lat="43.58729" lon="3.81139">
        <ele>27</ele>
        <time>2020-10-10T07:58:03.000Z</time>
      </trkpt>
      <trkpt lat="43.58727" lon="3.81144">
        <ele>26.897621212783</ele>
        <time>2020-10-10T07:58:04.000Z</time>
      </trkpt>
      <trkpt lat="43.58726" lon="3.81148">
        <ele>26.794208630665</ele>
        <time>2020-10-10T07:58:05.000Z</time>
      </trkpt>
      <trkpt lat="43.58724" lon="3.81153">
        <ele>26.690796048547</ele>
        <time>2020-10-10T07:58:06.000Z</time>
      </trkpt>
      <trkpt lat="43.58722" lon="3.81158">
        <ele>26.58738346643</ele>
        <time>2020-10-10T07:58:07.000Z</time>
      </trkpt>
      <trkpt lat="43.5872" lon="3.81163">
        <ele>26.483970884312</ele>
        <time>2020-10-10T07:58:08.000Z</time>
      </trkpt>
      <trkpt lat="43.58717" lon="3.81169">
        <ele>26.380558302194</ele>
        <time>2020-10-10T07:58:09.000Z</time>
      </trkpt>
      <trkpt lat="43.58715" lon="3.81175">
        <ele>26.277145720076</ele>
        <time>2020-10-10T07:58:10.000Z</time>
      </trkpt>
      <trkpt lat="43.58714" lon="3.81181">
        <ele>26.173733137958</ele>
        <time>2020-10-10T07:58:11.000Z</time>
      </trkpt>
      <trkpt lat="43.58712" lon="3.81187">
        <ele>26.07032055584</ele>
        <time>2020-10-10T07:58:12.000Z</time>
      </trkpt>
      <trkpt lat="43.5871" lon="3.81192">
        <ele>25.968</ele>
        <time>2020-10-10T07:58:13.000Z</time>
      </trkpt>
      <trkpt lat="43.58708" lon="3.81197">
        <ele>25.868</ele>
        <time>2020-10-10T07:58:14.000Z</time>
      </trkpt>
      <trkpt lat="43.58706" lon="3.81202">
        <ele>25.768</ele>
        <time>2020-10-10T07:58:15.000Z</time>
      </trkpt>
      <trkpt lat="43.58704" lon="3.81207">
        <ele>25.668</ele>
        <time>2020-10-10T07:58:16.000Z</time>
      </trkpt>
      <trkpt lat="43.58702" lon="3.81212">
        <ele>25.568</ele>
        <time>2020-10-10T07:58:17.000Z</time>
      </trkpt>
      <trkpt lat="43.58701" lon="3.81218">
        <ele>25.468</ele>
        <time>2020-10-10T07:58:18.000Z</time>
      </trkpt>
      <trkpt lat="43.58699" lon="3.81223">
        <ele>25.368</ele>
        <time>2020-10-10T07:58:19.000Z</time>
      </trkpt>
      <trkpt lat="43.58696" lon="3.81229">
        <ele>25.268</ele>
        <time>2020-10-10T07:58:20.000Z</time>
      </trkpt>
      <trkpt lat="43.58694" lon="3.81235">
        <ele>25.168</ele>
        <time>2020-10-10T07:58:21.000Z</time>
      </trkpt>
      <trkpt lat="43.58692" lon="3.81241">
        <ele>25.068</ele>
        <time>2020-10-10T07:58:22.000Z</time>
      </trkpt>
      <trkpt lat="43.5869" lon="3.81247">
        <ele>25</ele>
        <time>2020-10-10T07:58:23.000Z</time>
      </trkpt>
      <trkpt lat="43.58687" lon="3.81253">
        <ele>25</ele>
        <time>2020-10-10T07:58:24.000Z</time>
      </trkpt>
      <trkpt lat="43.58685" lon="3.8126">
        <ele>25</ele>
        <time>2020-10-10T07:58:25.000Z</time>
      </trkpt>
      <trkpt lat="43.58684" lon="3.81267">
        <ele>25</ele>
        <time>2020-10-10T07:58:26.000Z</time>
      </trkpt>
      <trkpt lat="43.58682" lon="3.81273">
        <ele>25</ele>
        <time>2020-10-10T07:58:27.000Z</time>
      </trkpt>
      <trkpt lat="43.5868" lon="3.8128">
        <ele>25</ele>
        <time>2020-10-10T07:58:28.000Z</time>
      </trkpt>
      <trkpt lat="43.58678" lon="3.81286">
        <ele>25</ele>
        <time>2020-10-10T07:58:29.000Z</time>
      </trkpt>
      <trkpt lat="43.58676" lon="3.81292">
        <ele>25</ele>
        <time>2020-10-10T07:58:30.000Z</time>
      </trkpt>
      <trkpt lat="43.58675" lon="3.81297">
        <ele>25</ele>
        <time>2020-10-10T07:58:31.000Z</time>
      </trkpt>
      <trkpt lat="43.58673" lon="3.81302">
        <ele>25</ele>
        <time>2020-10-10T07:58:32.000Z</time>
      </trkpt>
      <trkpt lat="43.58671" lon="3.81306">
        <ele>24.968</ele>
        <time>2020-10-10T07:58:33.000Z</time>
      </trkpt>
      <trkpt lat="43.58669" lon="3.81309">
        <ele>24.868</ele>
        <time>2020-10-10T07:58:34.000Z</time>
      </trkpt>
      <trkpt lat="43.58666" lon="3.81311">
        <ele>24.768</ele>
        <time>2020-10-10T07:58:35.000Z</time>
      </trkpt>
      <trkpt lat="43.58663" lon="3.81312">
        <ele>24.668</ele>
        <time>2020-10-10T07:58:36.000Z</time>
      </trkpt>
      <trkpt lat="43.58659" lon="3.81311">
        <ele>24.568</ele>
        <time>2020-10-10T07:58:37.000Z</time>
      </trkpt>
      <trkpt lat="43.58656" lon="3.81309">
        <ele>24.468</ele>
        <time>2020-10-10T07:58:38.000Z</time>
      </trkpt>
      <trkpt lat="43.58652" lon="3.81306">
        <ele>24.368</ele>
        <time>2020-10-10T07:58:39.000Z</time>
      </trkpt>
      <trkpt lat="43.58649" lon="3.81303">
        <ele>24.268</ele>
        <time>2020-10-10T07:58:40.000Z</time>
      </trkpt>
      <trkpt lat="43.58645" lon="3.813">
        <ele>24.168</ele>
        <time>2020-10-10T07:58:41.000Z</time>
      </trkpt>
      <trkpt lat="43.58642" lon="3.81297">
        <ele>24.068</ele>
        <time>2020-10-10T07:58:42.000Z</time>
      </trkpt>
      <trkpt lat="43.58639" lon="3.81294">
        <ele>24</ele>
        <time>2020-10-10T07:58:43.000Z</time>
      </trkpt>
      <trkpt lat="43.58635" lon="3.81291">
        <ele>24</ele>
        <time>2020-10-10T07:58:44.000Z</time>
      </trkpt>
      <trkpt lat="43.58632" lon="3.81287">
        <ele>24</ele>
        <time>2020-10-10T07:58:45.000Z</time>
      </trkpt>
      <trkpt lat="43.5863" lon="3.81284">
        <ele>24</ele>
        <time>2020-10-10T07:58:46.000Z</time>
      </trkpt>
      <trkpt lat="43.58628" lon="3.81282">
        <ele>24</ele>
        <time>2020-10-10T07:58:47.000Z</time>
      </trkpt>
      <trkpt lat="43.58625" lon="3.8128">
        <ele>24</ele>
        <time>2020-10-10T07:58:48.000Z</time>
      </trkpt>
      <trkpt lat="43.58623" lon="3.8128">
        <ele>24</ele>
        <time>2020-10-10T07:58:49.000Z</time>
      </trkpt>
      <trkpt lat="43.58621" lon="3.8128">
        <ele>24</ele>
        <time>2020-10-10T07:58:50.000Z</time>
      </trkpt>
      <trkpt lat="43.58619" lon="3.8128">
        <ele>24</ele>
        <time>2020-10-10T07:58:51.000Z</time>
      </trkpt>
      <trkpt lat="43.58616" lon="3.8128">
        <ele>24</ele>
        <time>2020-10-10T07:58:53.000Z</time>
      </trkpt>
      <trkpt lat="43.58614" lon="3.81281">
        <ele>24</ele>
        <time>2020-10-10T07:58:55.000Z</time>
      </trkpt>
      <trkpt lat="43.58614" lon="3.81285">
        <ele>24</ele>
        <time>2020-10-10T07:58:57.000Z</time>
      </trkpt>
      <trkpt lat="43.58614" lon="3.81288">
        <ele>24</ele>
        <time>2020-10-10T07:58:58.000Z</time>
      </trkpt>
      <trkpt lat="43.58614" lon="3.81291">
        <ele>24</ele>
        <time>2020-10-10T07:58:59.000Z</time>
      </trkpt>
      <trkpt lat="43.58614" lon="3.81289">
        <ele>24</ele>
        <time>2020-10-10T07:59:04.000Z</time>
      </trkpt>
      <trkpt lat="43.58614" lon="3.81285">
        <ele>24</ele>
        <time>2020-10-10T07:59:06.000Z</time>
      </trkpt>
      <trkpt lat="43.58614" lon="3.81282">
        <ele>24</ele>
        <time>2020-10-10T07:59:08.000Z</time>
      </trkpt>
      <trkpt lat="43.58613" lon="3.8128">
        <ele>24</ele>
        <time>2020-10-10T07:59:12.000Z</time>
      </trkpt>
      <trkpt lat="43.58613" lon="3.8128">
        <ele>24</ele>
        <time>2020-10-10T07:59:15.000Z</time>
      </trkpt>
      <trkpt lat="43.58613" lon="3.81282">
        <ele>24</ele>
        <time>2020-10-10T07:59:18.000Z</time>
      </trkpt>
      <trkpt lat="43.58613" lon="3.81282">
        <ele>24</ele>
        <time>2020-10-10T07:59:22.000Z</time>
      </trkpt>
      <trkpt lat="43.58613" lon="3.81282">
        <ele>24</ele>
        <time>2020-10-10T07:59:23.000Z</time>
      </trkpt>
      <trkpt lat="43.58615" lon="3.81289">
        <ele>24</ele>
        <time>2020-10-10T07:59:30.000Z</time>
      </trkpt>
      <trkpt lat="43.58616" lon="3.8129">
        <ele>24</ele>
        <time>2020-10-10T07:59:31.000Z</time>
      </trkpt>
      <trkpt lat="43.58616" lon="3.81292">
        <ele>24</ele>
        <time>2020-10-10T07:59:37.000Z</time>
      </trkpt>
      <trkpt lat="43.58618" lon="3.813">
        <ele>24</ele>
        <time>2020-10-10T07:59:50.000Z</time>
      </trkpt>
      <trkpt lat="43.58618" lon="3.81302">
        <ele>24</ele>
        <time>2020-10-10T07:59:51.000Z</time>
      </trkpt>
      <trkpt lat="43.58617" lon="3.81305">
        <ele>24</ele>
        <time>2020-10-10T07:59:52.000Z</time>
      </trkpt>
      <trkpt lat="43.58616" lon="3.81308">
        <ele>24</ele>
        <time>2020-10-10T07:59:53.000Z</time>
      </trkpt>
      <trkpt lat="43.58615" lon="3.8131">
        <ele>24</ele>
        <time>2020-10-10T07:59:54.000Z</time>
      </trkpt>
      <trkpt lat="43.58614" lon="3.81314">
        <ele>24</ele>
        <time>2020-10-10T07:59:55.000Z</time>
      </trkpt>
      <trkpt lat="43.58613" lon="3.81318">
        <ele>24</ele>
        <time>2020-10-10T07:59:56.000Z</time>
      </trkpt>
      <trkpt lat="43.58612" lon="3.81321">
        <ele>24</ele>
        <time>2020-10-10T07:59:57.000Z</time>
      </trkpt>
      <trkpt lat="43.58611" lon="3.81325">
        <ele>24</ele>
        <time>2020-10-10T07:59:58.000Z</time>
      </trkpt>
      <trkpt lat="43.58611" lon="3.81329">
        <ele>24</ele>
        <time>2020-10-10T07:59:59.000Z</time>
      </trkpt>
      <trkpt lat="43.5861" lon="3.81333">
        <ele>24</ele>
        <time>2020-10-10T08:00:00.000Z</time>
      </trkpt>
      <trkpt lat="43.58609" lon="3.81337">
        <ele>24</ele>
        <time>2020-10-10T08:00:01.000Z</time>
      </trkpt>
      <trkpt lat="43.58608" lon="3.81341">
        <ele>24</ele>
        <time>2020-10-10T08:00:02.000Z</time>
      </trkpt>
      <trkpt lat="43.58607" lon="3.81345">
        <ele>24</ele>
        <time>2020-10-10T08:00:03.000Z</time>
      </trkpt>
      <trkpt lat="43.58606" lon="3.81349">
        <ele>24</ele>
        <time>2020-10-10T08:00:04.000Z</time>
      </trkpt>
      <trkpt lat="43.58605" lon="3.81352">
        <ele>24</ele>
        <time>2020-10-10T08:00:05.000Z</time>
      </trkpt>
      <trkpt lat="43.58605" lon="3.81356">
        <ele>24</ele>
        <time>2020-10-10T08:00:06.000Z</time>
      </trkpt>
      <trkpt lat="43.58604" lon="3.8136">
        <ele>24</ele>
        <time>2020-10-10T08:00:07.000Z</time>
      </trkpt>
      <trkpt lat="43.58603" lon="3.81364">
        <ele>24</ele>
        <time>2020-10-10T08:00:08.000Z</time>
      </trkpt>
      <trkpt lat="43.58602" lon="3.81369">
        <ele>24</ele>
        <time>2020-10-10T08:00:09.000Z</time>
      </trkpt>
      <trkpt lat="43.58601" lon="3.81373">
        <ele>24.032</ele>
        <time>2020-10-10T08:00:10.000Z</time>
      </trkpt>
      <trkpt lat="43.586" lon="3.81378">
        <ele>24.132</ele>
        <time>2020-10-10T08:00:11.000Z</time>
      </trkpt>
      <trkpt lat="43.58599" lon="3.81382">
        <ele>24.232</ele>
        <time>2020-10-10T08:00:12.000Z</time>
      </trkpt>
      <trkpt lat="43.58598" lon="3.81387">
        <ele>24.332</ele>
        <time>2020-10-10T08:00:13.000Z</time>
      </trkpt>
      <trkpt lat="43.58597" lon="3.81391">
        <ele>24.432</ele>
        <time>2020-10-10T08:00:14.000Z</time>
      </trkpt>
      <trkpt lat="43.58595" lon="3.81396">
        <ele>24.532</ele>
        <time>2020-10-10T08:00:15.000Z</time>
      </trkpt>
      <trkpt lat="43.58594" lon="3.814">
        <ele>24.632</ele>
        <time>2020-10-10T08:00:16.000Z</time>
      </trkpt>
      <trkpt lat="43.58592" lon="3.81405">
        <ele>24.732</ele>
        <time>2020-10-10T08:00:17.000Z</time>
      </trkpt>
      <trkpt lat="43.58592" lon="3.81408">
        <ele>24.832</ele>
        <time>2020-10-10T08:00:18.000Z</time>
      </trkpt>
      <trkpt lat="43.58591" lon="3.81412">
        <ele>24.932</ele>
        <time>2020-10-10T08:00:19.000Z</time>
      </trkpt>
      <trkpt lat="43.58589" lon="3.81416">
        <ele>25</ele>
        <time>2020-10-10T08:00:20.000Z</time>
      </trkpt>
      <trkpt lat="43.58588" lon="3.8142">
        <ele>25</ele>
        <time>2020-10-10T08:00:21.000Z</time>
      </trkpt>
      <trkpt lat="43.58588" lon="3.81424">
        <ele>25</ele>
        <time>2020-10-10T08:00:22.000Z</time>
      </trkpt>
      <trkpt lat="43.58589" lon="3.81428">
        <ele>25</ele>
        <time>2020-10-10T08:00:23.000Z</time>
      </trkpt>
      <trkpt lat="43.58589" lon="3.81433">
        <ele>25</ele>
        <time>2020-10-10T08:00:24.000Z</time>
      </trkpt>
      <trkpt lat="43.58588" lon="3.81437">
        <ele>25</ele>
        <time>2020-10-10T08:00:25.000Z</time>
      </trkpt>
      <trkpt lat="43.58588" lon="3.81442">
        <ele>25</ele>
        <time>2020-10-10T08:00:26.000Z</time>
      </trkpt>
      <trkpt lat="43.58587" lon="3.81446">
        <ele>25</ele>
        <time>2020-10-10T08:00:27.000Z</time>
      </trkpt>
      <trkpt lat="43.58585" lon="3.81451">
        <ele>25</ele>
        <time>2020-10-10T08:00:28.000Z</time>
      </trkpt>
      <trkpt lat="43.58584" lon="3.81455">
        <ele>25</ele>
        <time>2020-10-10T08:00:29.000Z</time>
      </trkpt>
      <trkpt lat="43.58584" lon="3.81459">
        <ele>25.032</ele>
        <time>2020-10-10T08:00:30.000Z</time>
      </trkpt>
      <trkpt lat="43.58583" lon="3.81463">
        <ele>25.132</ele>
        <time>2020-10-10T08:00:31.000Z</time>
      </trkpt>
      <trkpt lat="43.58581" lon="3.81466">
        <ele>25.232</ele>
        <time>2020-10-10T08:00:32.000Z</time>
      </trkpt>
      <trkpt lat="43.58579" lon="3.81469">
        <ele>25.332</ele>
        <time>2020-10-10T08:00:33.000Z</time>
      </trkpt>
      <trkpt lat="43.58577" lon="3.81471">
        <ele>25.432</ele>
        <time>2020-10-10T08:00:34.000Z</time>
      </trkpt>
      <trkpt lat="43.58574" lon="3.81473">
        <ele>25.532</ele>
        <time>2020-10-10T08:00:35.000Z</time>
      </trkpt>
      <trkpt lat="43.58572" lon="3.81475">
        <ele>25.632</ele>
        <time>2020-10-10T08:00:36.000Z</time>
      </trkpt>
      <trkpt lat="43.5857" lon="3.81476">
        <ele>25.732</ele>
        <time>2020-10-10T08:00:37.000Z</time>
      </trkpt>
      <trkpt lat="43.58567" lon="3.8148">
        <ele>25.932</ele>
        <time>2020-10-10T08:00:39.000Z</time>
      </trkpt>
      <trkpt lat="43.58565" lon="3.81482">
        <ele>26</ele>
        <time>2020-10-10T08:00:40.000Z</time>
      </trkpt>
      <trkpt lat="43.58564" lon="3.81484">
        <ele>26</ele>
        <time>2020-10-10T08:00:41.000Z</time>
      </trkpt>
      <trkpt lat="43.58562" lon="3.81486">
        <ele>26</ele>
        <time>2020-10-10T08:00:43.000Z</time>
      </trkpt>
      <trkpt lat="43.58559" lon="3.81487">
        <ele>26</ele>
        <time>2020-10-10T08:00:48.000Z</time>
      </trkpt>
      <trkpt lat="43.58557" lon="3.81487">
        <ele>26</ele>
        <time>2020-10-10T08:00:49.000Z</time>
      </trkpt>
      <trkpt lat="43.58554" lon="3.81487">
        <ele>26</ele>
        <time>2020-10-10T08:00:50.000Z</time>
      </trkpt>
      <trkpt lat="43.58551" lon="3.81488">
        <ele>26</ele>
        <time>2020-10-10T08:00:51.000Z</time>
      </trkpt>
      <trkpt lat="43.58548" lon="3.8149">
        <ele>26</ele>
        <time>2020-10-10T08:00:52.000Z</time>
      </trkpt>
      <trkpt lat="43.58545" lon="3.81491">
        <ele>26</ele>
        <time>2020-10-10T08:00:53.000Z</time>
      </trkpt>
      <trkpt lat="43.58542" lon="3.81491">
        <ele>26</ele>
        <time>2020-10-10T08:00:54.000Z</time>
      </trkpt>
      <trkpt lat="43.58539" lon="3.8149">
        <ele>26</ele>
        <time>2020-10-10T08:00:55.000Z</time>
      </trkpt>
      <trkpt lat="43.58536" lon="3.81488">
        <ele>26</ele>
        <time>2020-10-10T08:00:56.000Z</time>
      </trkpt>
      <trkpt lat="43.58534" lon="3.81486">
        <ele>26</ele>
        <time>2020-10-10T08:00:57.000Z</time>
      </trkpt>
      <trkpt lat="43.58533" lon="3.81483">
        <ele>26</ele>
        <time>2020-10-10T08:00:58.000Z</time>
      </trkpt>
      <trkpt lat="43.5853" lon="3.81481">
        <ele>26</ele>
        <time>2020-10-10T08:01:00.000Z</time>
      </trkpt>
      <trkpt lat="43.58528" lon="3.8148">
        <ele>26</ele>
        <time>2020-10-10T08:01:01.000Z</time>
      </trkpt>
      <trkpt lat="43.58525" lon="3.81481">
        <ele>26</ele>
        <time>2020-10-10T08:01:02.000Z</time>
      </trkpt>
      <trkpt lat="43.58522" lon="3.81482">
        <ele>26</ele>
        <time>2020-10-10T08:01:03.000Z</time>
      </trkpt>
      <trkpt lat="43.5852" lon="3.81484">
        <ele>26</ele>
        <time>2020-10-10T08:01:04.000Z</time>
      </trkpt>
      <trkpt lat="43.58517" lon="3.81487">
        <ele>26</ele>
        <time>2020-10-10T08:01:05.000Z</time>
      </trkpt>
      <trkpt lat="43.58515" lon="3.81489">
        <ele>26</ele>
        <time>2020-10-10T08:01:06.000Z</time>
      </trkpt>
      <trkpt lat="43.58511" lon="3.8149">
        <ele>26</ele>
        <time>2020-10-10T08:01:07.000Z</time>
      </trkpt>
      <trkpt lat="43.58508" lon="3.8149">
        <ele>26</ele>
        <time>2020-10-10T08:01:08.000Z</time>
      </trkpt>
      <trkpt lat="43.58504" lon="3.8149">
        <ele>26</ele>
        <time>2020-10-10T08:01:09.000Z</time>
      </trkpt>
      <trkpt lat="43.58501" lon="3.81491">
        <ele>26.032</ele>
        <time>2020-10-10T08:01:10.000Z</time>
      </trkpt>
      <trkpt lat="43.58498" lon="3.81491">
        <ele>26.132</ele>
        <time>2020-10-10T08:01:11.000Z</time>
      </trkpt>
      <trkpt lat="43.58494" lon="3.8149">
        <ele>26.232</ele>
        <time>2020-10-10T08:01:12.000Z</time>
      </trkpt>
      <trkpt lat="43.5849" lon="3.8149">
        <ele>26.332</ele>
        <time>2020-10-10T08:01:13.000Z</time>
      </trkpt>
      <trkpt lat="43.58486" lon="3.81489">
        <ele>26.432</ele>
        <time>2020-10-10T08:01:14.000Z</time>
      </trkpt>
      <trkpt lat="43.58483" lon="3.81489">
        <ele>26.532</ele>
        <time>2020-10-10T08:01:15.000Z</time>
      </trkpt>
      <trkpt lat="43.58479" lon="3.81489">
        <ele>26.632</ele>
        <time>2020-10-10T08:01:16.000Z</time>
      </trkpt>
      <trkpt lat="43.58476" lon="3.8149">
        <ele>26.732</ele>
        <time>2020-10-10T08:01:17.000Z</time>
      </trkpt>
      <trkpt lat="43.58473" lon="3.8149">
        <ele>26.832</ele>
        <time>2020-10-10T08:01:18.000Z</time>
      </trkpt>
      <trkpt lat="43.58469" lon="3.81489">
        <ele>26.932</ele>
        <time>2020-10-10T08:01:19.000Z</time>
      </trkpt>
      <trkpt lat="43.58466" lon="3.81488">
        <ele>27</ele>
        <time>2020-10-10T08:01:20.000Z</time>
      </trkpt>
      <trkpt lat="43.58462" lon="3.81486">
        <ele>27</ele>
        <time>2020-10-10T08:01:21.000Z</time>
      </trkpt>
      <trkpt lat="43.58458" lon="3.81485">
        <ele>27</ele>
        <time>2020-10-10T08:01:22.000Z</time>
      </trkpt>
      <trkpt lat="43.58455" lon="3.81483">
        <ele>27</ele>
        <time>2020-10-10T08:01:23.000Z</time>
      </trkpt>
      <trkpt lat="43.58451" lon="3.81481">
        <ele>27</ele>
        <time>2020-10-10T08:01:24.000Z</time>
      </trkpt>
      <trkpt lat="43.58448" lon="3.8148">
        <ele>27</ele>
        <time>2020-10-10T08:01:25.000Z</time>
      </trkpt>
      <trkpt lat="43.58444" lon="3.81478">
        <ele>27</ele>
        <time>2020-10-10T08:01:26.000Z</time>
      </trkpt>
      <trkpt lat="43.58441" lon="3.81476">
        <ele>27</ele>
        <time>2020-10-10T08:01:27.000Z</time>
      </trkpt>
      <trkpt lat="43.58439" lon="3.81476">
        <ele>27</ele>
        <time>2020-10-10T08:01:28.000Z</time>
      </trkpt>
      <trkpt lat="43.58437" lon="3.81475">
        <ele>27</ele>
        <time>2020-10-10T08:01:29.000Z</time>
      </trkpt>
      <trkpt lat="43.58435" lon="3.81473">
        <ele>27</ele>
        <time>2020-10-10T08:01:36.000Z</time>
      </trkpt>
      <trkpt lat="43.58434" lon="3.81471">
        <ele>27</ele>
        <time>2020-10-10T08:01:38.000Z</time>
      </trkpt>
      <trkpt lat="43.58432" lon="3.81472">
        <ele>27.996</ele>
        <time>2020-10-10T08:01:43.000Z</time>
      </trkpt>
      <trkpt lat="43.58432" lon="3.81475">
        <ele>28.896</ele>
        <time>2020-10-10T08:01:46.000Z</time>
      </trkpt>
      <trkpt lat="43.58433" lon="3.81477">
        <ele>29.796</ele>
        <time>2020-10-10T08:01:49.000Z</time>
      </trkpt>
      <trkpt lat="43.58435" lon="3.81479">
        <ele>30</ele>
        <time>2020-10-10T08:01:53.000Z</time>
      </trkpt>
      <trkpt lat="43.58435" lon="3.81479">
        <ele>30</ele>
        <time>2020-10-10T08:01:55.000Z</time>
      </trkpt>
      <trkpt lat="43.58435" lon="3.81486">
        <ele>30</ele>
        <time>2020-10-10T08:02:14.000Z</time>
      </trkpt>
      <trkpt lat="43.58434" lon="3.81489">
        <ele>30</ele>
        <time>2020-10-10T08:02:15.000Z</time>
      </trkpt>
      <trkpt lat="43.58433" lon="3.81492">
        <ele>30</ele>
        <time>2020-10-10T08:02:16.000Z</time>
      </trkpt>
      <trkpt lat="43.58431" lon="3.81495">
        <ele>30</ele>
        <time>2020-10-10T08:02:17.000Z</time>
      </trkpt>
      <trkpt lat="43.5843" lon="3.81499">
        <ele>30</ele>
        <time>2020-10-10T08:02:18.000Z</time>
      </trkpt>
      <trkpt lat="43.58429" lon="3.81504">
        <ele>30</ele>
        <time>2020-10-10T08:02:19.000Z</time>
      </trkpt>
      <trkpt lat="43.58427" lon="3.8151">
        <ele>30</ele>
        <time>2020-10-10T08:02:20.000Z</time>
      </trkpt>
      <trkpt lat="43.58425" lon="3.81515">
        <ele>30</ele>
        <time>2020-10-10T08:02:21.000Z</time>
      </trkpt>
      <trkpt lat="43.58423" lon="3.8152">
        <ele>30</ele>
        <time>2020-10-10T08:02:22.000Z</time>
      </trkpt>
      <trkpt lat="43.5842" lon="3.81526">
        <ele>30</ele>
        <time>2020-10-10T08:02:23.000Z</time>
      </trkpt>
      <trkpt lat="43.58418" lon="3.81531">
        <ele>30</ele>
        <time>2020-10-10T08:02:24.000Z</time>
      </trkpt>
      <trkpt lat="43.58417" lon="3.81537">
        <ele>30</ele>
        <time>2020-10-10T08:02:25.000Z</time>
      </trkpt>
      <trkpt lat="43.58415" lon="3.81542">
        <ele>30</ele>
        <time>2020-10-10T08:02:26.000Z</time>
      </trkpt>
      <trkpt lat="43.58414" lon="3.81548">
        <ele>30</ele>
        <time>2020-10-10T08:02:27.000Z</time>
      </trkpt>
      <trkpt lat="43.58412" lon="3.81554">
        <ele>30</ele>
        <time>2020-10-10T08:02:28.000Z</time>
      </trkpt>
      <trkpt lat="43.5841" lon="3.81559">
        <ele>30</ele>
        <time>2020-10-10T08:02:29.000Z</time>
      </trkpt>
      <trkpt lat="43.58407" lon="3.81564">
        <ele>30</ele>
        <time>2020-10-10T08:02:30.000Z</time>
      </trkpt>
      <trkpt lat="43.58404" lon="3.81569">
        <ele>30</ele>
        <time>2020-10-10T08:02:31.000Z</time>
      </trkpt>
      <trkpt lat="43.58401" lon="3.81572">
        <ele>30</ele>
        <time>2020-10-10T08:02:32.000Z</time>
      </trkpt>
      <trkpt lat="43.58397" lon="3.81575">
        <ele>30</ele>
        <time>2020-10-10T08:02:33.000Z</time>
      </trkpt>
      <trkpt lat="43.58393" lon="3.81575">
        <ele>29.996910073109</ele>
        <time>2020-10-10T08:02:34.000Z</time>
      </trkpt>
      <trkpt lat="43.58389" lon="3.81575">
        <ele>29.893923495308</ele>
        <time>2020-10-10T08:02:35.000Z</time>
      </trkpt>
      <trkpt lat="43.58385" lon="3.81575">
        <ele>29.790936917508</ele>
        <time>2020-10-10T08:02:36.000Z</time>
      </trkpt>
      <trkpt lat="43.58382" lon="3.81577">
        <ele>29.687950339707</ele>
        <time>2020-10-10T08:02:37.000Z</time>
      </trkpt>
      <trkpt lat="43.58378" lon="3.81579">
        <ele>29.584963761907</ele>
        <time>2020-10-10T08:02:38.000Z</time>
      </trkpt>
      <trkpt lat="43.58376" lon="3.81583">
        <ele>29.481977184106</ele>
        <time>2020-10-10T08:02:39.000Z</time>
      </trkpt>
      <trkpt lat="43.58374" lon="3.81586">
        <ele>29.378990606306</ele>
        <time>2020-10-10T08:02:40.000Z</time>
      </trkpt>
      <trkpt lat="43.58372" lon="3.8159">
        <ele>29.276004028505</ele>
        <time>2020-10-10T08:02:41.000Z</time>
      </trkpt>
      <trkpt lat="43.58369" lon="3.81593">
        <ele>29.173017450705</ele>
        <time>2020-10-10T08:02:42.000Z</time>
      </trkpt>
      <trkpt lat="43.58367" lon="3.81596">
        <ele>29.070030872904</ele>
        <time>2020-10-10T08:02:43.000Z</time>
      </trkpt>
      <trkpt lat="43.58364" lon="3.81598">
        <ele>29</ele>
        <time>2020-10-10T08:02:44.000Z</time>
      </trkpt>
      <trkpt lat="43.58361" lon="3.81601">
        <ele>29</ele>
        <time>2020-10-10T08:02:45.000Z</time>
      </trkpt>
      <trkpt lat="43.58357" lon="3.81603">
        <ele>29</ele>
        <time>2020-10-10T08:02:46.000Z</time>
      </trkpt>
      <trkpt lat="43.58353" lon="3.81606">
        <ele>29</ele>
        <time>2020-10-10T08:02:47.000Z</time>
      </trkpt>
      <trkpt lat="43.5835" lon="3.81608">
        <ele>29</ele>
        <time>2020-10-10T08:02:48.000Z</time>
      </trkpt>
      <trkpt lat="43.58347" lon="3.8161">
        <ele>29</ele>
        <time>2020-10-10T08:02:49.000Z</time>
      </trkpt>
      <trkpt lat="43.58343" lon="3.81613">
        <ele>29</ele>
        <time>2020-10-10T08:02:50.000Z</time>
      </trkpt>
      <trkpt lat="43.58339" lon="3.81614">
        <ele>29</ele>
        <time>2020-10-10T08:02:51.000Z</time>
      </trkpt>
      <trkpt lat="43.58335" lon="3.81616">
        <ele>29</ele>
        <time>2020-10-10T08:02:52.000Z</time>
      </trkpt>
      <trkpt lat="43.58331" lon="3.81617">
        <ele>29</ele>
        <time>2020-10-10T08:02:53.000Z</time>
      </trkpt>
      <trkpt lat="43.58327" lon="3.81617">
        <ele>28.968031957812</ele>
        <time>2020-10-10T08:02:54.000Z</time>
      </trkpt>
      <trkpt lat="43.58323" lon="3.81617">
        <ele>28.868131825976</ele>
        <time>2020-10-10T08:02:55.000Z</time>
      </trkpt>
      <trkpt lat="43.58319" lon="3.81618">
        <ele>28.76823169414</ele>
        <time>2020-10-10T08:02:56.000Z</time>
      </trkpt>
      <trkpt lat="43.58315" lon="3.81617">
        <ele>28.668331562304</ele>
        <time>2020-10-10T08:02:57.000Z</time>
      </trkpt>
      <trkpt lat="43.5831" lon="3.81616">
        <ele>28.568431430468</ele>
        <time>2020-10-10T08:02:58.000Z</time>
      </trkpt>
      <trkpt lat="43.58306" lon="3.81615">
        <ele>28.468531298631</ele>
        <time>2020-10-10T08:02:59.000Z</time>
      </trkpt>
      <trkpt lat="43.58301" lon="3.81613">
        <ele>28.368631166795</ele>
        <time>2020-10-10T08:03:00.000Z</time>
      </trkpt>
      <trkpt lat="43.58297" lon="3.81612">
        <ele>28.268731034959</ele>
        <time>2020-10-10T08:03:01.000Z</time>
      </trkpt>
      <trkpt lat="43.58293" lon="3.81609">
        <ele>28.168830903123</ele>
        <time>2020-10-10T08:03:02.000Z</time>
      </trkpt>
      <trkpt lat="43.5829" lon="3.81607">
        <ele>28.068930771287</ele>
        <time>2020-10-10T08:03:03.000Z</time>
      </trkpt>
      <trkpt lat="43.58286" lon="3.81603">
        <ele>28</ele>
        <time>2020-10-10T08:03:04.000Z</time>
      </trkpt>
      <trkpt lat="43.58283" lon="3.816">
        <ele>28</ele>
        <time>2020-10-10T08:03:05.000Z</time>
      </trkpt>
      <trkpt lat="43.58281" lon="3.81597">
        <ele>28</ele>
        <time>2020-10-10T08:03:06.000Z</time>
      </trkpt>
      <trkpt lat="43.58278" lon="3.81595">
        <ele>28</ele>
        <time>2020-10-10T08:03:07.000Z</time>
      </trkpt>
      <trkpt lat="43.58276" lon="3.81592">
        <ele>28</ele>
        <time>2020-10-10T08:03:08.000Z</time>
      </trkpt>
      <trkpt lat="43.58273" lon="3.81589">
        <ele>28</ele>
        <time>2020-10-10T08:03:09.000Z</time>
      </trkpt>
      <trkpt lat="43.58271" lon="3.81587">
        <ele>28</ele>
        <time>2020-10-10T08:03:10.000Z</time>
      </trkpt>
      <trkpt lat="43.58267" lon="3.81585">
        <ele>28</ele>
        <time>2020-10-10T08:03:11.000Z</time>
      </trkpt>
      <trkpt lat="43.58264" lon="3.81583">
        <ele>28</ele>
        <time>2020-10-10T08:03:12.000Z</time>
      </trkpt>
      <trkpt lat="43.58261" lon="3.81581">
        <ele>28</ele>
        <time>2020-10-10T08:03:13.000Z</time>
      </trkpt>
      <trkpt lat="43.58257" lon="3.81579">
        <ele>27.96809572304</ele>
        <time>2020-10-10T08:03:14.000Z</time>
      </trkpt>
      <trkpt lat="43.58254" lon="3.81578">
        <ele>27.868394857541</ele>
        <time>2020-10-10T08:03:15.000Z</time>
      </trkpt>
      <trkpt lat="43.5825" lon="3.81576">
        <ele>27.768693992042</ele>
        <time>2020-10-10T08:03:16.000Z</time>
      </trkpt>
      <trkpt lat="43.58247" lon="3.81575">
        <ele>27.668993126543</ele>
        <time>2020-10-10T08:03:17.000Z</time>
      </trkpt>
      <trkpt lat="43.58244" lon="3.81574">
        <ele>27.569292261043</ele>
        <time>2020-10-10T08:03:18.000Z</time>
      </trkpt>
      <trkpt lat="43.5824" lon="3.81573">
        <ele>27.469591395544</ele>
        <time>2020-10-10T08:03:19.000Z</time>
      </trkpt>
      <trkpt lat="43.58237" lon="3.81572">
        <ele>27.369890530045</ele>
        <time>2020-10-10T08:03:20.000Z</time>
      </trkpt>
      <trkpt lat="43.58232" lon="3.81571">
        <ele>27.270189664546</ele>
        <time>2020-10-10T08:03:21.000Z</time>
      </trkpt>
      <trkpt lat="43.58229" lon="3.8157">
        <ele>27.170488799046</ele>
        <time>2020-10-10T08:03:22.000Z</time>
      </trkpt>
      <trkpt lat="43.58225" lon="3.81568">
        <ele>27.070787933547</ele>
        <time>2020-10-10T08:03:23.000Z</time>
      </trkpt>
      <trkpt lat="43.58221" lon="3.81566">
        <ele>27</ele>
        <time>2020-10-10T08:03:24.000Z</time>
      </trkpt>
      <trkpt lat="43.58217" lon="3.81563">
        <ele>27</ele>
        <time>2020-10-10T08:03:25.000Z</time>
      </trkpt>
      <trkpt lat="43.58213" lon="3.81561">
        <ele>27</ele>
        <time>2020-10-10T08:03:26.000Z</time>
      </trkpt>
      <trkpt lat="43.58209" lon="3.81559">
        <ele>27</ele>
        <time>2020-10-10T08:03:27.000Z</time>
      </trkpt>
      <trkpt lat="43.58205" lon="3.81557">
        <ele>27</ele>
        <time>2020-10-10T08:03:28.000Z</time>
      </trkpt>
      <trkpt lat="43.58201" lon="3.81556">
        <ele>27</ele>
        <time>2020-10-10T08:03:29.000Z</time>
      </trkpt>
      <trkpt lat="43.58197" lon="3.81556">
        <ele>27</ele>
        <time>2020-10-10T08:03:30.000Z</time>
      </trkpt>
      <trkpt lat="43.58193" lon="3.81555">
        <ele>27</ele>
        <time>2020-10-10T08:03:31.000Z</time>
      </trkpt>
      <trkpt lat="43.58189" lon="3.81555">
        <ele>27</ele>
        <time>2020-10-10T08:03:32.000Z</time>
      </trkpt>
      <trkpt lat="43.58186" lon="3.81554">
        <ele>27</ele>
        <time>2020-10-10T08:03:33.000Z</time>
      </trkpt>
      <trkpt lat="43.58182" lon="3.81554">
        <ele>26.968</ele>
        <time>2020-10-10T08:03:34.000Z</time>
      </trkpt>
      <trkpt lat="43.58178" lon="3.81554">
        <ele>26.868</ele>
        <time>2020-10-10T08:03:35.000Z</time>
      </trkpt>
      <trkpt lat="43.58175" lon="3.81553">
        <ele>26.768</ele>
        <time>2020-10-10T08:03:36.000Z</time>
      </trkpt>
      <trkpt lat="43.58172" lon="3.81552">
        <ele>26.668</ele>
        <time>2020-10-10T08:03:37.000Z</time>
      </trkpt>
      <trkpt lat="43.58168" lon="3.8155">
        <ele>26.568</ele>
        <time>2020-10-10T08:03:38.000Z</time>
      </trkpt>
      <trkpt lat="43.58165" lon="3.81548">
        <ele>26.468</ele>
        <time>2020-10-10T08:03:39.000Z</time>
      </trkpt>
      <trkpt lat="43.58161" lon="3.81547">
        <ele>26.368</ele>
        <time>2020-10-10T08:03:40.000Z</time>
      </trkpt>
      <trkpt lat="43.58158" lon="3.81544">
        <ele>26.268</ele>
        <time>2020-10-10T08:03:41.000Z</time>
      </trkpt>
      <trkpt lat="43.58154" lon="3.81542">
        <ele>26.168</ele>
        <time>2020-10-10T08:03:42.000Z</time>
      </trkpt>
      <trkpt lat="43.58151" lon="3.81539">
        <ele>26.068</ele>
        <time>2020-10-10T08:03:43.000Z</time>
      </trkpt>
      <trkpt lat="43.58148" lon="3.81535">
        <ele>26</ele>
        <time>2020-10-10T08:03:44.000Z</time>
      </trkpt>
      <trkpt lat="43.58145" lon="3.8153">
        <ele>26</ele>
        <time>2020-10-10T08:03:45.000Z</time>
      </trkpt>
      <trkpt lat="43.58143" lon="3.81526">
        <ele>26</ele>
        <time>2020-10-10T08:03:46.000Z</time>
      </trkpt>
      <trkpt lat="43.58141" lon="3.81521">
        <ele>26</ele>
        <time>2020-10-10T08:03:47.000Z</time>
      </trkpt>
      <trkpt lat="43.58138" lon="3.81517">
        <ele>26</ele>
        <time>2020-10-10T08:03:48.000Z</time>
      </trkpt>
      <trkpt lat="43.58136" lon="3.81515">
        <ele>26</ele>
        <time>2020-10-10T08:03:49.000Z</time>
      </trkpt>
      <trkpt lat="43.58134" lon="3.81514">
        <ele>26</ele>
        <time>2020-10-10T08:03:50.000Z</time>
      </trkpt>
      <trkpt lat="43.58132" lon="3.81515">
        <ele>26</ele>
        <time>2020-10-10T08:03:51.000Z</time>
      </trkpt>
      <trkpt lat="43.5813" lon="3.81517">
        <ele>26</ele>
        <time>2020-10-10T08:03:52.000Z</time>
      </trkpt>
      <trkpt lat="43.58129" lon="3.81521">
        <ele>26</ele>
        <time>2020-10-10T08:03:53.000Z</time>
      </trkpt>
      <trkpt lat="43.58128" lon="3.81525">
        <ele>26</ele>
        <time>2020-10-10T08:03:54.000Z</time>
      </trkpt>
      <trkpt lat="43.58127" lon="3.81528">
        <ele>26</ele>
        <time>2020-10-10T08:03:55.000Z</time>
      </trkpt>
      <trkpt lat="43.58127" lon="3.81532">
        <ele>26</ele>
        <time>2020-10-10T08:03:56.000Z</time>
      </trkpt>
      <trkpt lat="43.58128" lon="3.81535">
        <ele>26</ele>
        <time>2020-10-10T08:03:57.000Z</time>
      </trkpt>
      <trkpt lat="43.58127" lon="3.81539">
        <ele>26</ele>
        <time>2020-10-10T08:03:58.000Z</time>
      </trkpt>
      <trkpt lat="43.58127" lon="3.81542">
        <ele>26</ele>
        <time>2020-10-10T08:03:59.000Z</time>
      </trkpt>
      <trkpt lat="43.58127" lon="3.81545">
        <ele>26</ele>
        <time>2020-10-10T08:04:00.000Z</time>
      </trkpt>
      <trkpt lat="43.58127" lon="3.81548">
        <ele>26</ele>
        <time>2020-10-10T08:04:01.000Z</time>
      </trkpt>
      <trkpt lat="43.58126" lon="3.81552">
        <ele>26</ele>
        <time>2020-10-10T08:04:02.000Z</time>
      </trkpt>
      <trkpt lat="43.58126" lon="3.81554">
        <ele>26</ele>
        <time>2020-10-10T08:04:03.000Z</time>
      </trkpt>
      <trkpt lat="43.58127" lon="3.81557">
        <ele>26</ele>
        <time>2020-10-10T08:04:07.000Z</time>
      </trkpt>
      <trkpt lat="43.58128" lon="3.8156">
        <ele>26</ele>
        <time>2020-10-10T08:04:09.000Z</time>
      </trkpt>
      <trkpt lat="43.58128" lon="3.8156">
        <ele>26</ele>
        <time>2020-10-10T08:04:13.000Z</time>
      </trkpt>
      <trkpt lat="43.58129" lon="3.81551">
        <ele>26</ele>
        <time>2020-10-10T08:05:26.000Z</time>
      </trkpt>
      <trkpt lat="43.58129" lon="3.81546">
        <ele>25.810126582278</ele>
        <time>2020-10-10T08:05:28.000Z</time>
      </trkpt>
      <trkpt lat="43.58129" lon="3.81542">
        <ele>25.599156118144</ele>
        <time>2020-10-10T08:05:30.000Z</time>
      </trkpt>
      <trkpt lat="43.58129" lon="3.81539">
        <ele>25.493670886076</ele>
        <time>2020-10-10T08:05:31.000Z</time>
      </trkpt>
      <trkpt lat="43.58128" lon="3.81536">
        <ele>25.388185654008</ele>
        <time>2020-10-10T08:05:32.000Z</time>
      </trkpt>
      <trkpt lat="43.58129" lon="3.81533">
        <ele>25.282700421941</ele>
        <time>2020-10-10T08:05:33.000Z</time>
      </trkpt>
      <trkpt lat="43.58129" lon="3.8153">
        <ele>25.177215189873</ele>
        <time>2020-10-10T08:05:34.000Z</time>
      </trkpt>
      <trkpt lat="43.58128" lon="3.81527">
        <ele>25.071729957806</ele>
        <time>2020-10-10T08:05:35.000Z</time>
      </trkpt>
      <trkpt lat="43.58126" lon="3.81523">
        <ele>24.937743190662</ele>
        <time>2020-10-10T08:05:36.000Z</time>
      </trkpt>
      <trkpt lat="43.58123" lon="3.81519">
        <ele>24.743190661479</ele>
        <time>2020-10-10T08:05:37.000Z</time>
      </trkpt>
      <trkpt lat="43.58121" lon="3.81515">
        <ele>24.548638132296</ele>
        <time>2020-10-10T08:05:38.000Z</time>
      </trkpt>
      <trkpt lat="43.58118" lon="3.81512">
        <ele>24.354085603113</ele>
        <time>2020-10-10T08:05:39.000Z</time>
      </trkpt>
      <trkpt lat="43.58115" lon="3.81508">
        <ele>24.15953307393</ele>
        <time>2020-10-10T08:05:40.000Z</time>
      </trkpt>
      <trkpt lat="43.58112" lon="3.81504">
        <ele>23.964980544747</ele>
        <time>2020-10-10T08:05:41.000Z</time>
      </trkpt>
      <trkpt lat="43.58109" lon="3.81501">
        <ele>23.770428015564</ele>
        <time>2020-10-10T08:05:42.000Z</time>
      </trkpt>
      <trkpt lat="43.58106" lon="3.81499">
        <ele>23.575875486381</ele>
        <time>2020-10-10T08:05:43.000Z</time>
      </trkpt>
      <trkpt lat="43.58102" lon="3.81497">
        <ele>23.381322957198</ele>
        <time>2020-10-10T08:05:44.000Z</time>
      </trkpt>
      <trkpt lat="43.58098" lon="3.81496">
        <ele>23.186770428016</ele>
        <time>2020-10-10T08:05:45.000Z</time>
      </trkpt>
      <trkpt lat="43.58094" lon="3.81495">
        <ele>22.995884773663</ele>
        <time>2020-10-10T08:05:46.000Z</time>
      </trkpt>
      <trkpt lat="43.5809" lon="3.81495">
        <ele>22.893004115226</ele>
        <time>2020-10-10T08:05:47.000Z</time>
      </trkpt>
      <trkpt lat="43.58086" lon="3.81495">
        <ele>22.79012345679</ele>
        <time>2020-10-10T08:05:48.000Z</time>
      </trkpt>
      <trkpt lat="43.58082" lon="3.81495">
        <ele>22.687242798354</ele>
        <time>2020-10-10T08:05:49.000Z</time>
      </trkpt>
      <trkpt lat="43.58078" lon="3.81495">
        <ele>22.584362139918</ele>
        <time>2020-10-10T08:05:50.000Z</time>
      </trkpt>
      <trkpt lat="43.58074" lon="3.81495">
        <ele>22.481481481481</ele>
        <time>2020-10-10T08:05:51.000Z</time>
      </trkpt>
      <trkpt lat="43.5807" lon="3.81494">
        <ele>22.378600823045</ele>
        <time>2020-10-10T08:05:52.000Z</time>
      </trkpt>
      <trkpt lat="43.58066" lon="3.81494">
        <ele>22.275720164609</ele>
        <time>2020-10-10T08:05:53.000Z</time>
      </trkpt>
      <trkpt lat="43.58062" lon="3.81494">
        <ele>22.172839506173</ele>
        <time>2020-10-10T08:05:54.000Z</time>
      </trkpt>
      <trkpt lat="43.58058" lon="3.81493">
        <ele>22.069958847737</ele>
        <time>2020-10-10T08:05:55.000Z</time>
      </trkpt>
      <trkpt lat="43.58054" lon="3.81493">
        <ele>21.968472916344</ele>
        <time>2020-10-10T08:05:56.000Z</time>
      </trkpt>
      <trkpt lat="43.5805" lon="3.81493">
        <ele>21.869950779917</ele>
        <time>2020-10-10T08:05:57.000Z</time>
      </trkpt>
      <trkpt lat="43.58047" lon="3.81492">
        <ele>21.77142864349</ele>
        <time>2020-10-10T08:05:58.000Z</time>
      </trkpt>
      <trkpt lat="43.58043" lon="3.81492">
        <ele>21.672906507064</ele>
        <time>2020-10-10T08:05:59.000Z</time>
      </trkpt>
      <trkpt lat="43.58039" lon="3.81491">
        <ele>21.574384370637</ele>
        <time>2020-10-10T08:06:00.000Z</time>
      </trkpt>
      <trkpt lat="43.58035" lon="3.81491">
        <ele>21.475862234211</ele>
        <time>2020-10-10T08:06:01.000Z</time>
      </trkpt>
      <trkpt lat="43.58031" lon="3.8149">
        <ele>21.377340097784</ele>
        <time>2020-10-10T08:06:02.000Z</time>
      </trkpt>
      <trkpt lat="43.58027" lon="3.81489">
        <ele>21.278817961358</ele>
        <time>2020-10-10T08:06:03.000Z</time>
      </trkpt>
      <trkpt lat="43.58024" lon="3.81488">
        <ele>21.180295824931</ele>
        <time>2020-10-10T08:06:04.000Z</time>
      </trkpt>
      <trkpt lat="43.5802" lon="3.81487">
        <ele>21.081773688505</ele>
        <time>2020-10-10T08:06:05.000Z</time>
      </trkpt>
      <trkpt lat="43.58017" lon="3.81485">
        <ele>21</ele>
        <time>2020-10-10T08:06:06.000Z</time>
      </trkpt>
      <trkpt lat="43.58013" lon="3.81484">
        <ele>21</ele>
        <time>2020-10-10T08:06:07.000Z</time>
      </trkpt>
      <trkpt lat="43.5801" lon="3.81482">
        <ele>21</ele>
        <time>2020-10-10T08:06:08.000Z</time>
      </trkpt>
      <trkpt lat="43.58008" lon="3.81479">
        <ele>21</ele>
        <time>2020-10-10T08:06:09.000Z</time>
      </trkpt>
      <trkpt lat="43.58006" lon="3.81476">
        <ele>21</ele>
        <time>2020-10-10T08:06:10.000Z</time>
      </trkpt>
      <trkpt lat="43.58003" lon="3.81473">
        <ele>21</ele>
        <time>2020-10-10T08:06:11.000Z</time>
      </trkpt>
      <trkpt lat="43.58001" lon="3.81471">
        <ele>21</ele>
        <time>2020-10-10T08:06:12.000Z</time>
      </trkpt>
      <trkpt lat="43.57999" lon="3.81468">
        <ele>21</ele>
        <time>2020-10-10T08:06:13.000Z</time>
      </trkpt>
      <trkpt lat="43.57997" lon="3.81467">
        <ele>21</ele>
        <time>2020-10-10T08:06:14.000Z</time>
      </trkpt>
      <trkpt lat="43.57996" lon="3.81466">
        <ele>21</ele>
        <time>2020-10-10T08:06:15.000Z</time>
      </trkpt>
      <trkpt lat="43.57994" lon="3.81464">
        <ele>21</ele>
        <time>2020-10-10T08:06:16.000Z</time>
      </trkpt>
      <trkpt lat="43.57992" lon="3.81462">
        <ele>21</ele>
        <time>2020-10-10T08:06:17.000Z</time>
      </trkpt>
      <trkpt lat="43.5799" lon="3.8146">
        <ele>21</ele>
        <time>2020-10-10T08:06:18.000Z</time>
      </trkpt>
      <trkpt lat="43.57987" lon="3.81458">
        <ele>21</ele>
        <time>2020-10-10T08:06:19.000Z</time>
      </trkpt>
      <trkpt lat="43.57984" lon="3.81456">
        <ele>21</ele>
        <time>2020-10-10T08:06:20.000Z</time>
      </trkpt>
      <trkpt lat="43.5798" lon="3.81455">
        <ele>21</ele>
        <time>2020-10-10T08:06:21.000Z</time>
      </trkpt>
      <trkpt lat="43.57977" lon="3.81453">
        <ele>21</ele>
        <time>2020-10-10T08:06:22.000Z</time>
      </trkpt>
      <trkpt lat="43.57973" lon="3.81452">
        <ele>21</ele>
        <time>2020-10-10T08:06:23.000Z</time>
      </trkpt>
      <trkpt lat="43.57969" lon="3.81451">
        <ele>21</ele>
        <time>2020-10-10T08:06:24.000Z</time>
      </trkpt>
      <trkpt lat="43.57965" lon="3.8145">
        <ele>21</ele>
        <time>2020-10-10T08:06:25.000Z</time>
      </trkpt>
      <trkpt lat="43.57961" lon="3.81449">
        <ele>21.032</ele>
        <time>2020-10-10T08:06:26.000Z</time>
      </trkpt>
      <trkpt lat="43.57957" lon="3.81448">
        <ele>21.132</ele>
        <time>2020-10-10T08:06:27.000Z</time>
      </trkpt>
      <trkpt lat="43.57953" lon="3.81448">
        <ele>21.232</ele>
        <time>2020-10-10T08:06:28.000Z</time>
      </trkpt>
      <trkpt lat="43.57949" lon="3.81447">
        <ele>21.332</ele>
        <time>2020-10-10T08:06:29.000Z</time>
      </trkpt>
      <trkpt lat="43.57945" lon="3.81446">
        <ele>21.432</ele>
        <time>2020-10-10T08:06:30.000Z</time>
      </trkpt>
      <trkpt lat="43.57941" lon="3.81446">
        <ele>21.532</ele>
        <time>2020-10-10T08:06:31.000Z</time>
      </trkpt>
      <trkpt lat="43.57937" lon="3.81445">
        <ele>21.632</ele>
        <time>2020-10-10T08:06:32.000Z</time>
      </trkpt>
      <trkpt lat="43.57933" lon="3.81445">
        <ele>21.732</ele>
        <time>2020-10-10T08:06:33.000Z</time>
      </trkpt>
      <trkpt lat="43.57929" lon="3.81445">
        <ele>21.832</ele>
        <time>2020-10-10T08:06:34.000Z</time>
      </trkpt>
      <trkpt lat="43.57925" lon="3.81445">
        <ele>21.932</ele>
        <time>2020-10-10T08:06:35.000Z</time>
      </trkpt>
      <trkpt lat="43.57921" lon="3.81445">
        <ele>21.968901836782</ele>
        <time>2020-10-10T08:06:36.000Z</time>
      </trkpt>
      <trkpt lat="43.57917" lon="3.81445">
        <ele>21.871720076725</ele>
        <time>2020-10-10T08:06:37.000Z</time>
      </trkpt>
      <trkpt lat="43.57913" lon="3.81445">
        <ele>21.774538316669</ele>
        <time>2020-10-10T08:06:38.000Z</time>
      </trkpt>
      <trkpt lat="43.57909" lon="3.81444">
        <ele>21.677356556612</ele>
        <time>2020-10-10T08:06:39.000Z</time>
      </trkpt>
      <trkpt lat="43.57905" lon="3.81444">
        <ele>21.580174796556</ele>
        <time>2020-10-10T08:06:40.000Z</time>
      </trkpt>
      <trkpt lat="43.57901" lon="3.81444">
        <ele>21.482993036499</ele>
        <time>2020-10-10T08:06:41.000Z</time>
      </trkpt>
      <trkpt lat="43.57897" lon="3.81444">
        <ele>21.385811276443</ele>
        <time>2020-10-10T08:06:42.000Z</time>
      </trkpt>
      <trkpt lat="43.57892" lon="3.81444">
        <ele>21.288629516386</ele>
        <time>2020-10-10T08:06:43.000Z</time>
      </trkpt>
      <trkpt lat="43.57888" lon="3.81443">
        <ele>21.19144775633</ele>
        <time>2020-10-10T08:06:44.000Z</time>
      </trkpt>
      <trkpt lat="43.57884" lon="3.81444">
        <ele>21.094265996273</ele>
        <time>2020-10-10T08:06:45.000Z</time>
      </trkpt>
      <trkpt lat="43.57881" lon="3.81444">
        <ele>21</ele>
        <time>2020-10-10T08:06:46.000Z</time>
      </trkpt>
      <trkpt lat="43.57878" lon="3.81444">
        <ele>21</ele>
        <time>2020-10-10T08:06:47.000Z</time>
      </trkpt>
      <trkpt lat="43.57875" lon="3.81445">
        <ele>21</ele>
        <time>2020-10-10T08:06:48.000Z</time>
      </trkpt>
      <trkpt lat="43.57872" lon="3.81445">
        <ele>21</ele>
        <time>2020-10-10T08:06:49.000Z</time>
      </trkpt>
      <trkpt lat="43.57869" lon="3.81446">
        <ele>21</ele>
        <time>2020-10-10T08:06:50.000Z</time>
      </trkpt>
      <trkpt lat="43.57865" lon="3.81447">
        <ele>21</ele>
        <time>2020-10-10T08:06:51.000Z</time>
      </trkpt>
      <trkpt lat="43.57861" lon="3.81448">
        <ele>21</ele>
        <time>2020-10-10T08:06:52.000Z</time>
      </trkpt>
      <trkpt lat="43.57857" lon="3.81449">
        <ele>21</ele>
        <time>2020-10-10T08:06:53.000Z</time>
      </trkpt>
      <trkpt lat="43.57853" lon="3.8145">
        <ele>21</ele>
        <time>2020-10-10T08:06:54.000Z</time>
      </trkpt>
      <trkpt lat="43.57849" lon="3.81451">
        <ele>21</ele>
        <time>2020-10-10T08:06:55.000Z</time>
      </trkpt>
      <trkpt lat="43.57844" lon="3.81453">
        <ele>20.968962182281</ele>
        <time>2020-10-10T08:06:56.000Z</time>
      </trkpt>
      <trkpt lat="43.5784" lon="3.81454">
        <ele>20.871969001911</ele>
        <time>2020-10-10T08:06:57.000Z</time>
      </trkpt>
      <trkpt lat="43.57835" lon="3.81456">
        <ele>20.77497582154</ele>
        <time>2020-10-10T08:06:58.000Z</time>
      </trkpt>
      <trkpt lat="43.57831" lon="3.81457">
        <ele>20.677982641169</ele>
        <time>2020-10-10T08:06:59.000Z</time>
      </trkpt>
      <trkpt lat="43.57826" lon="3.81459">
        <ele>20.580989460799</ele>
        <time>2020-10-10T08:07:00.000Z</time>
      </trkpt>
      <trkpt lat="43.57821" lon="3.8146">
        <ele>20.483996280428</ele>
        <time>2020-10-10T08:07:01.000Z</time>
      </trkpt>
      <trkpt lat="43.57817" lon="3.81462">
        <ele>20.387003100057</ele>
        <time>2020-10-10T08:07:02.000Z</time>
      </trkpt>
      <trkpt lat="43.57812" lon="3.81463">
        <ele>20.290009919687</ele>
        <time>2020-10-10T08:07:03.000Z</time>
      </trkpt>
      <trkpt lat="43.57808" lon="3.81464">
        <ele>20.193016739316</ele>
        <time>2020-10-10T08:07:04.000Z</time>
      </trkpt>
      <trkpt lat="43.57803" lon="3.81466">
        <ele>20.096023558945</ele>
        <time>2020-10-10T08:07:05.000Z</time>
      </trkpt>
      <trkpt lat="43.57798" lon="3.81467">
        <ele>20</ele>
        <time>2020-10-10T08:07:06.000Z</time>
      </trkpt>
      <trkpt lat="43.57793" lon="3.81468">
        <ele>20</ele>
        <time>2020-10-10T08:07:07.000Z</time>
      </trkpt>
      <trkpt lat="43.57788" lon="3.81469">
        <ele>20</ele>
        <time>2020-10-10T08:07:08.000Z</time>
      </trkpt>
      <trkpt lat="43.57783" lon="3.8147">
        <ele>20</ele>
        <time>2020-10-10T08:07:09.000Z</time>
      </trkpt>
      <trkpt lat="43.57779" lon="3.81471">
        <ele>20</ele>
        <time>2020-10-10T08:07:10.000Z</time>
      </trkpt>
      <trkpt lat="43.57774" lon="3.81472">
        <ele>20</ele>
        <time>2020-10-10T08:07:11.000Z</time>
      </trkpt>
      <trkpt lat="43.57769" lon="3.81473">
        <ele>20</ele>
        <time>2020-10-10T08:07:12.000Z</time>
      </trkpt>
      <trkpt lat="43.57765" lon="3.81474">
        <ele>20</ele>
        <time>2020-10-10T08:07:13.000Z</time>
      </trkpt>
      <trkpt lat="43.5776" lon="3.81476">
        <ele>20</ele>
        <time>2020-10-10T08:07:14.000Z</time>
      </trkpt>
      <trkpt lat="43.57756" lon="3.81478">
        <ele>20</ele>
        <time>2020-10-10T08:07:15.000Z</time>
      </trkpt>
      <trkpt lat="43.57752" lon="3.81479">
        <ele>19.968</ele>
        <time>2020-10-10T08:07:16.000Z</time>
      </trkpt>
      <trkpt lat="43.57747" lon="3.81479">
        <ele>19.868</ele>
        <time>2020-10-10T08:07:17.000Z</time>
      </trkpt>
      <trkpt lat="43.57743" lon="3.81479">
        <ele>19.768</ele>
        <time>2020-10-10T08:07:18.000Z</time>
      </trkpt>
      <trkpt lat="43.57738" lon="3.81479">
        <ele>19.668</ele>
        <time>2020-10-10T08:07:19.000Z</time>
      </trkpt>
      <trkpt lat="43.57733" lon="3.81478">
        <ele>19.568</ele>
        <time>2020-10-10T08:07:20.000Z</time>
      </trkpt>
      <trkpt lat="43.57729" lon="3.81478">
        <ele>19.468</ele>
        <time>2020-10-10T08:07:21.000Z</time>
      </trkpt>
      <trkpt lat="43.57724" lon="3.81477">
        <ele>19.368</ele>
        <time>2020-10-10T08:07:22.000Z</time>
      </trkpt>
      <trkpt lat="43.57719" lon="3.81476">
        <ele>19.268</ele>
        <time>2020-10-10T08:07:23.000Z</time>
      </trkpt>
      <trkpt lat="43.57715" lon="3.81475">
        <ele>19.168</ele>
        <time>2020-10-10T08:07:24.000Z</time>
      </trkpt>
      <trkpt lat="43.5771" lon="3.81474">
        <ele>19.068</ele>
        <time>2020-10-10T08:07:25.000Z</time>
      </trkpt>
      <trkpt lat="43.57705" lon="3.81473">
        <ele>19</ele>
        <time>2020-10-10T08:07:26.000Z</time>
      </trkpt>
      <trkpt lat="43.577" lon="3.81473">
        <ele>19</ele>
        <time>2020-10-10T08:07:27.000Z</time>
      </trkpt>
      <trkpt lat="43.57696" lon="3.81473">
        <ele>19</ele>
        <time>2020-10-10T08:07:28.000Z</time>
      </trkpt>
      <trkpt lat="43.57691" lon="3.81474">
        <ele>19</ele>
        <time>2020-10-10T08:07:29.000Z</time>
      </trkpt>
      <trkpt lat="43.57686" lon="3.81476">
        <ele>19</ele>
        <time>2020-10-10T08:07:30.000Z</time>
      </trkpt>
      <trkpt lat="43.57682" lon="3.81478">
        <ele>19</ele>
        <time>2020-10-10T08:07:31.000Z</time>
      </trkpt>
      <trkpt lat="43.57677" lon="3.81481">
        <ele>19</ele>
        <time>2020-10-10T08:07:32.000Z</time>
      </trkpt>
      <trkpt lat="43.57673" lon="3.81485">
        <ele>19</ele>
        <time>2020-10-10T08:07:33.000Z</time>
      </trkpt>
      <trkpt lat="43.57669" lon="3.81489">
        <ele>19</ele>
        <time>2020-10-10T08:07:34.000Z</time>
      </trkpt>
      <trkpt lat="43.57665" lon="3.81493">
        <ele>19</ele>
        <time>2020-10-10T08:07:35.000Z</time>
      </trkpt>
      <trkpt lat="43.57661" lon="3.81497">
        <ele>19.032</ele>
        <time>2020-10-10T08:07:36.000Z</time>
      </trkpt>
      <trkpt lat="43.57657" lon="3.815">
        <ele>19.132</ele>
        <time>2020-10-10T08:07:37.000Z</time>
      </trkpt>
      <trkpt lat="43.57654" lon="3.81504">
        <ele>19.232</ele>
        <time>2020-10-10T08:07:38.000Z</time>
      </trkpt>
      <trkpt lat="43.5765" lon="3.81507">
        <ele>19.332</ele>
        <time>2020-10-10T08:07:39.000Z</time>
      </trkpt>
      <trkpt lat="43.57646" lon="3.8151">
        <ele>19.432</ele>
        <time>2020-10-10T08:07:40.000Z</time>
      </trkpt>
      <trkpt lat="43.57642" lon="3.81514">
        <ele>19.532</ele>
        <time>2020-10-10T08:07:41.000Z</time>
      </trkpt>
      <trkpt lat="43.57639" lon="3.81517">
        <ele>19.632</ele>
        <time>2020-10-10T08:07:42.000Z</time>
      </trkpt>
      <trkpt lat="43.57635" lon="3.81521">
        <ele>19.732</ele>
        <time>2020-10-10T08:07:43.000Z</time>
      </trkpt>
      <trkpt lat="43.57631" lon="3.81524">
        <ele>19.832</ele>
        <time>2020-10-10T08:07:44.000Z</time>
      </trkpt>
      <trkpt lat="43.57628" lon="3.81526">
        <ele>19.932</ele>
        <time>2020-10-10T08:07:45.000Z</time>
      </trkpt>
      <trkpt lat="43.57624" lon="3.81526">
        <ele>20.032</ele>
        <time>2020-10-10T08:07:46.000Z</time>
      </trkpt>
      <trkpt lat="43.57621" lon="3.81525">
        <ele>20.132</ele>
        <time>2020-10-10T08:07:47.000Z</time>
      </trkpt>
      <trkpt lat="43.57619" lon="3.81524">
        <ele>20.232</ele>
        <time>2020-10-10T08:07:48.000Z</time>
      </trkpt>
      <trkpt lat="43.57617" lon="3.81523">
        <ele>20.332</ele>
        <time>2020-10-10T08:07:49.000Z</time>
      </trkpt>
      <trkpt lat="43.57614" lon="3.81521">
        <ele>20.532</ele>
        <time>2020-10-10T08:07:51.000Z</time>
      </trkpt>
      <trkpt lat="43.57612" lon="3.8152">
        <ele>20.632</ele>
        <time>2020-10-10T08:07:52.000Z</time>
      </trkpt>
      <trkpt lat="43.5761" lon="3.81518">
        <ele>20.732</ele>
        <time>2020-10-10T08:07:53.000Z</time>
      </trkpt>
      <trkpt lat="43.57609" lon="3.81514">
        <ele>20.832</ele>
        <time>2020-10-10T08:07:54.000Z</time>
      </trkpt>
      <trkpt lat="43.57607" lon="3.8151">
        <ele>20.932</ele>
        <time>2020-10-10T08:07:55.000Z</time>
      </trkpt>
      <trkpt lat="43.57606" lon="3.81507">
        <ele>21.032</ele>
        <time>2020-10-10T08:07:56.000Z</time>
      </trkpt>
      <trkpt lat="43.57606" lon="3.81504">
        <ele>21.132</ele>
        <time>2020-10-10T08:07:57.000Z</time>
      </trkpt>
      <trkpt lat="43.57607" lon="3.81507">
        <ele>22</ele>
        <time>2020-10-10T08:08:06.000Z</time>
      </trkpt>
      <trkpt lat="43.57609" lon="3.81509">
        <ele>22</ele>
        <time>2020-10-10T08:08:08.000Z</time>
      </trkpt>
      <trkpt lat="43.57609" lon="3.81512">
        <ele>22</ele>
        <time>2020-10-10T08:08:14.000Z</time>
      </trkpt>
      <trkpt lat="43.57607" lon="3.81508">
        <ele>22</ele>
        <time>2020-10-10T08:08:17.000Z</time>
      </trkpt>
      <trkpt lat="43.57606" lon="3.81505">
        <ele>22</ele>
        <time>2020-10-10T08:08:18.000Z</time>
      </trkpt>
      <trkpt lat="43.57606" lon="3.81502">
        <ele>22</ele>
        <time>2020-10-10T08:08:19.000Z</time>
      </trkpt>
      <trkpt lat="43.57606" lon="3.81498">
        <ele>22</ele>
        <time>2020-10-10T08:08:20.000Z</time>
      </trkpt>
      <trkpt lat="43.57606" lon="3.81495">
        <ele>22</ele>
        <time>2020-10-10T08:08:21.000Z</time>
      </trkpt>
      <trkpt lat="43.57604" lon="3.81491">
        <ele>22</ele>
        <time>2020-10-10T08:08:23.000Z</time>
      </trkpt>
      <trkpt lat="43.57602" lon="3.81489">
        <ele>22</ele>
        <time>2020-10-10T08:08:24.000Z</time>
      </trkpt>
      <trkpt lat="43.576" lon="3.81487">
        <ele>22</ele>
        <time>2020-10-10T08:08:25.000Z</time>
      </trkpt>
      <trkpt lat="43.57597" lon="3.81484">
        <ele>22.034820444894</ele>
        <time>2020-10-10T08:08:26.000Z</time>
      </trkpt>
      <trkpt lat="43.57593" lon="3.81482">
        <ele>22.143634335187</ele>
        <time>2020-10-10T08:08:27.000Z</time>
      </trkpt>
      <trkpt lat="43.5759" lon="3.8148">
        <ele>22.25244822548</ele>
        <time>2020-10-10T08:08:28.000Z</time>
      </trkpt>
      <trkpt lat="43.57586" lon="3.81478">
        <ele>22.361262115774</ele>
        <time>2020-10-10T08:08:29.000Z</time>
      </trkpt>
      <trkpt lat="43.57584" lon="3.81476">
        <ele>22.470076006067</ele>
        <time>2020-10-10T08:08:30.000Z</time>
      </trkpt>
      <trkpt lat="43.57584" lon="3.81476">
        <ele>23.011428571429</ele>
        <time>2020-10-10T08:08:35.000Z</time>
      </trkpt>
      <trkpt lat="43.5758" lon="3.81473">
        <ele>24</ele>
        <time>2020-10-10T08:08:42.000Z</time>
      </trkpt>
      <trkpt lat="43.57578" lon="3.81473">
        <ele>24</ele>
        <time>2020-10-10T08:08:43.000Z</time>
      </trkpt>
      <trkpt lat="43.57576" lon="3.81469">
        <ele>24</ele>
        <time>2020-10-10T08:08:44.000Z</time>
      </trkpt>
      <trkpt lat="43.57575" lon="3.81465">
        <ele>24</ele>
        <time>2020-10-10T08:08:45.000Z</time>
      </trkpt>
      <trkpt lat="43.57574" lon="3.81462">
        <ele>24</ele>
        <time>2020-10-10T08:08:46.000Z</time>
      </trkpt>
      <trkpt lat="43.57574" lon="3.81459">
        <ele>24</ele>
        <time>2020-10-10T08:08:47.000Z</time>
      </trkpt>
      <trkpt lat="43.57572" lon="3.81456">
        <ele>24</ele>
        <time>2020-10-10T08:08:48.000Z</time>
      </trkpt>
      <trkpt lat="43.5757" lon="3.81453">
        <ele>24</ele>
        <time>2020-10-10T08:08:49.000Z</time>
      </trkpt>
      <trkpt lat="43.57569" lon="3.8145">
        <ele>24</ele>
        <time>2020-10-10T08:08:50.000Z</time>
      </trkpt>
      <trkpt lat="43.57568" lon="3.81433">
        <ele>24</ele>
        <time>2020-10-10T08:08:54.000Z</time>
      </trkpt>
      <trkpt lat="43.57565" lon="3.81428">
        <ele>24</ele>
        <time>2020-10-10T08:08:56.000Z</time>
      </trkpt>
      <trkpt lat="43.57561" lon="3.81424">
        <ele>24</ele>
        <time>2020-10-10T08:08:58.000Z</time>
      </trkpt>
      <trkpt lat="43.5756" lon="3.81421">
        <ele>24</ele>
        <time>2020-10-10T08:08:59.000Z</time>
      </trkpt>
      <trkpt lat="43.5756" lon="3.81418">
        <ele>24</ele>
        <time>2020-10-10T08:09:00.000Z</time>
      </trkpt>
      <trkpt lat="43.57559" lon="3.81415">
        <ele>24</ele>
        <time>2020-10-10T08:09:01.000Z</time>
      </trkpt>
      <trkpt lat="43.57558" lon="3.81412">
        <ele>23.993839182693</ele>
        <time>2020-10-10T08:09:02.000Z</time>
      </trkpt>
      <trkpt lat="43.57557" lon="3.81409">
        <ele>23.788500508583</ele>
        <time>2020-10-10T08:09:03.000Z</time>
      </trkpt>
      <trkpt lat="43.57555" lon="3.81405">
        <ele>23.583161834473</ele>
        <time>2020-10-10T08:09:04.000Z</time>
      </trkpt>
      <trkpt lat="43.57553" lon="3.814">
        <ele>23.377823160363</ele>
        <time>2020-10-10T08:09:05.000Z</time>
      </trkpt>
      <trkpt lat="43.57551" lon="3.81397">
        <ele>23.172484486253</ele>
        <time>2020-10-10T08:09:06.000Z</time>
      </trkpt>
      <trkpt lat="43.57549" lon="3.81393">
        <ele>22.967145812142</ele>
        <time>2020-10-10T08:09:07.000Z</time>
      </trkpt>
      <trkpt lat="43.57547" lon="3.81389">
        <ele>22.761807138032</ele>
        <time>2020-10-10T08:09:08.000Z</time>
      </trkpt>
      <trkpt lat="43.57545" lon="3.81386">
        <ele>22.556468463922</ele>
        <time>2020-10-10T08:09:09.000Z</time>
      </trkpt>
      <trkpt lat="43.57543" lon="3.81381">
        <ele>22.351129789812</ele>
        <time>2020-10-10T08:09:10.000Z</time>
      </trkpt>
      <trkpt lat="43.57541" lon="3.81376">
        <ele>22.145791115702</ele>
        <time>2020-10-10T08:09:11.000Z</time>
      </trkpt>
      <trkpt lat="43.5754" lon="3.81371">
        <ele>21.970913049842</ele>
        <time>2020-10-10T08:09:12.000Z</time>
      </trkpt>
      <trkpt lat="43.57539" lon="3.81367">
        <ele>21.870612114941</ele>
        <time>2020-10-10T08:09:13.000Z</time>
      </trkpt>
      <trkpt lat="43.57538" lon="3.81362">
        <ele>21.77031118004</ele>
        <time>2020-10-10T08:09:14.000Z</time>
      </trkpt>
      <trkpt lat="43.57537" lon="3.81358">
        <ele>21.670010245139</ele>
        <time>2020-10-10T08:09:15.000Z</time>
      </trkpt>
      <trkpt lat="43.57535" lon="3.81355">
        <ele>21.569709310238</ele>
        <time>2020-10-10T08:09:16.000Z</time>
      </trkpt>
      <trkpt lat="43.57532" lon="3.81352">
        <ele>21.469408375337</ele>
        <time>2020-10-10T08:09:17.000Z</time>
      </trkpt>
      <trkpt lat="43.5753" lon="3.81349">
        <ele>21.369107440436</ele>
        <time>2020-10-10T08:09:18.000Z</time>
      </trkpt>
      <trkpt lat="43.57527" lon="3.81346">
        <ele>21.268806505535</ele>
        <time>2020-10-10T08:09:19.000Z</time>
      </trkpt>
      <trkpt lat="43.57524" lon="3.81343">
        <ele>21.168505570634</ele>
        <time>2020-10-10T08:09:20.000Z</time>
      </trkpt>
      <trkpt lat="43.57521" lon="3.8134">
        <ele>21.068204635733</ele>
        <time>2020-10-10T08:09:21.000Z</time>
      </trkpt>
      <trkpt lat="43.57518" lon="3.81336">
        <ele>20.968031957812</ele>
        <time>2020-10-10T08:09:22.000Z</time>
      </trkpt>
      <trkpt lat="43.57515" lon="3.81332">
        <ele>20.868131825976</ele>
        <time>2020-10-10T08:09:23.000Z</time>
      </trkpt>
      <trkpt lat="43.57513" lon="3.81327">
        <ele>20.76823169414</ele>
        <time>2020-10-10T08:09:24.000Z</time>
      </trkpt>
      <trkpt lat="43.57511" lon="3.81323">
        <ele>20.668331562304</ele>
        <time>2020-10-10T08:09:25.000Z</time>
      </trkpt>
      <trkpt lat="43.57509" lon="3.81319">
        <ele>20.568431430468</ele>
        <time>2020-10-10T08:09:26.000Z</time>
      </trkpt>
      <trkpt lat="43.57507" lon="3.81316">
        <ele>20.468531298631</ele>
        <time>2020-10-10T08:09:27.000Z</time>
      </trkpt>
      <trkpt lat="43.57505" lon="3.81313">
        <ele>20.368631166795</ele>
        <time>2020-10-10T08:09:28.000Z</time>
      </trkpt>
      <trkpt lat="43.57504" lon="3.81311">
        <ele>20.268731034959</ele>
        <time>2020-10-10T08:09:29.000Z</time>
      </trkpt>
      <trkpt lat="43.57503" lon="3.81309">
        <ele>20.168830903123</ele>
        <time>2020-10-10T08:09:30.000Z</time>
      </trkpt>
      <trkpt lat="43.57501" lon="3.81307">
        <ele>20.068930771287</ele>
        <time>2020-10-10T08:09:31.000Z</time>
      </trkpt>
      <trkpt lat="43.57498" lon="3.81304">
        <ele>20</ele>
        <time>2020-10-10T08:09:32.000Z</time>
      </trkpt>
      <trkpt lat="43.57495" lon="3.81301">
        <ele>20</ele>
        <time>2020-10-10T08:09:33.000Z</time>
      </trkpt>
      <trkpt lat="43.57492" lon="3.81299">
        <ele>20</ele>
        <time>2020-10-10T08:09:34.000Z</time>
      </trkpt>
      <trkpt lat="43.57489" lon="3.81299">
        <ele>20</ele>
        <time>2020-10-10T08:09:35.000Z</time>
      </trkpt>
      <trkpt lat="43.57486" lon="3.81302">
        <ele>20</ele>
        <time>2020-10-10T08:09:36.000Z</time>
      </trkpt>
      <trkpt lat="43.57484" lon="3.81305">
        <ele>20</ele>
        <time>2020-10-10T08:09:37.000Z</time>
      </trkpt>
      <trkpt lat="43.57481" lon="3.81309">
        <ele>20</ele>
        <time>2020-10-10T08:09:38.000Z</time>
      </trkpt>
      <trkpt lat="43.57478" lon="3.81312">
        <ele>20</ele>
        <time>2020-10-10T08:09:39.000Z</time>
      </trkpt>
      <trkpt lat="43.57474" lon="3.81314">
        <ele>20</ele>
        <time>2020-10-10T08:09:40.000Z</time>
      </trkpt>
      <trkpt lat="43.57471" lon="3.81314">
        <ele>20</ele>
        <time>2020-10-10T08:09:41.000Z</time>
      </trkpt>
      <trkpt lat="43.57467" lon="3.81314">
        <ele>20</ele>
        <time>2020-10-10T08:09:42.000Z</time>
      </trkpt>
      <trkpt lat="43.57464" lon="3.81313">
        <ele>20</ele>
        <time>2020-10-10T08:09:43.000Z</time>
      </trkpt>
      <trkpt lat="43.57461" lon="3.81311">
        <ele>20</ele>
        <time>2020-10-10T08:09:44.000Z</time>
      </trkpt>
      <trkpt lat="43.57458" lon="3.81309">
        <ele>20</ele>
        <time>2020-10-10T08:09:45.000Z</time>
      </trkpt>
      <trkpt lat="43.57454" lon="3.81307">
        <ele>20</ele>
        <time>2020-10-10T08:09:46.000Z</time>
      </trkpt>
      <trkpt lat="43.57451" lon="3.81305">
        <ele>20</ele>
        <time>2020-10-10T08:09:47.000Z</time>
      </trkpt>
      <trkpt lat="43.57447" lon="3.81303">
        <ele>20</ele>
        <time>2020-10-10T08:09:48.000Z</time>
      </trkpt>
      <trkpt lat="43.57443" lon="3.813">
        <ele>20</ele>
        <time>2020-10-10T08:09:49.000Z</time>
      </trkpt>
      <trkpt lat="43.5744" lon="3.81297">
        <ele>20</ele>
        <time>2020-10-10T08:09:50.000Z</time>
      </trkpt>
      <trkpt lat="43.57437" lon="3.81294">
        <ele>20</ele>
        <time>2020-10-10T08:09:51.000Z</time>
      </trkpt>
      <trkpt lat="43.57433" lon="3.81291">
        <ele>19.968968658589</ele>
        <time>2020-10-10T08:09:52.000Z</time>
      </trkpt>
      <trkpt lat="43.5743" lon="3.81288">
        <ele>19.868868590553</ele>
        <time>2020-10-10T08:09:53.000Z</time>
      </trkpt>
      <trkpt lat="43.57427" lon="3.81285">
        <ele>19.768768522517</ele>
        <time>2020-10-10T08:09:54.000Z</time>
      </trkpt>
      <trkpt lat="43.57423" lon="3.81283">
        <ele>19.668668454481</ele>
        <time>2020-10-10T08:09:55.000Z</time>
      </trkpt>
      <trkpt lat="43.5742" lon="3.8128">
        <ele>19.568568386445</ele>
        <time>2020-10-10T08:09:56.000Z</time>
      </trkpt>
      <trkpt lat="43.57417" lon="3.81278">
        <ele>19.468468318409</ele>
        <time>2020-10-10T08:09:57.000Z</time>
      </trkpt>
      <trkpt lat="43.57413" lon="3.81276">
        <ele>19.368368250373</ele>
        <time>2020-10-10T08:09:58.000Z</time>
      </trkpt>
      <trkpt lat="43.57409" lon="3.81275">
        <ele>19.268268182336</ele>
        <time>2020-10-10T08:09:59.000Z</time>
      </trkpt>
      <trkpt lat="43.57406" lon="3.81274">
        <ele>19.1681681143</ele>
        <time>2020-10-10T08:10:00.000Z</time>
      </trkpt>
      <trkpt lat="43.57402" lon="3.81274">
        <ele>19.068068046265</ele>
        <time>2020-10-10T08:10:01.000Z</time>
      </trkpt>
      <trkpt lat="43.57398" lon="3.81272">
        <ele>19</ele>
        <time>2020-10-10T08:10:02.000Z</time>
      </trkpt>
      <trkpt lat="43.57395" lon="3.8127">
        <ele>19</ele>
        <time>2020-10-10T08:10:03.000Z</time>
      </trkpt>
      <trkpt lat="43.57392" lon="3.81267">
        <ele>19</ele>
        <time>2020-10-10T08:10:04.000Z</time>
      </trkpt>
      <trkpt lat="43.5739" lon="3.81262">
        <ele>19</ele>
        <time>2020-10-10T08:10:05.000Z</time>
      </trkpt>
      <trkpt lat="43.57388" lon="3.81257">
        <ele>19</ele>
        <time>2020-10-10T08:10:06.000Z</time>
      </trkpt>
      <trkpt lat="43.57388" lon="3.81252">
        <ele>19</ele>
        <time>2020-10-10T08:10:07.000Z</time>
      </trkpt>
      <trkpt lat="43.57387" lon="3.81247">
        <ele>19</ele>
        <time>2020-10-10T08:10:08.000Z</time>
      </trkpt>
      <trkpt lat="43.57387" lon="3.81241">
        <ele>19</ele>
        <time>2020-10-10T08:10:09.000Z</time>
      </trkpt>
      <trkpt lat="43.57388" lon="3.81236">
        <ele>19</ele>
        <time>2020-10-10T08:10:10.000Z</time>
      </trkpt>
      <trkpt lat="43.57389" lon="3.81231">
        <ele>19</ele>
        <time>2020-10-10T08:10:11.000Z</time>
      </trkpt>
      <trkpt lat="43.5739" lon="3.81227">
        <ele>19.031031341411</ele>
        <time>2020-10-10T08:10:12.000Z</time>
      </trkpt>
      <trkpt lat="43.57392" lon="3.81222">
        <ele>19.131131409447</ele>
        <time>2020-10-10T08:10:13.000Z</time>
      </trkpt>
      <trkpt lat="43.57394" lon="3.81219">
        <ele>19.231231477483</ele>
        <time>2020-10-10T08:10:14.000Z</time>
      </trkpt>
      <trkpt lat="43.57396" lon="3.81216">
        <ele>19.331331545519</ele>
        <time>2020-10-10T08:10:15.000Z</time>
      </trkpt>
      <trkpt lat="43.57398" lon="3.81214">
        <ele>19.431431613555</ele>
        <time>2020-10-10T08:10:16.000Z</time>
      </trkpt>
      <trkpt lat="43.574" lon="3.81211">
        <ele>19.631631749627</ele>
        <time>2020-10-10T08:10:18.000Z</time>
      </trkpt>
      <trkpt lat="43.574" lon="3.81207">
        <ele>19.8318318857</ele>
        <time>2020-10-10T08:10:20.000Z</time>
      </trkpt>
      <trkpt lat="43.57399" lon="3.81204">
        <ele>19.931931953735</ele>
        <time>2020-10-10T08:10:21.000Z</time>
      </trkpt>
      <trkpt lat="43.57399" lon="3.81201">
        <ele>20</ele>
        <time>2020-10-10T08:10:22.000Z</time>
      </trkpt>
      <trkpt lat="43.574" lon="3.81198">
        <ele>20</ele>
        <time>2020-10-10T08:10:23.000Z</time>
      </trkpt>
      <trkpt lat="43.57401" lon="3.81195">
        <ele>20</ele>
        <time>2020-10-10T08:10:24.000Z</time>
      </trkpt>
      <trkpt lat="43.57402" lon="3.81192">
        <ele>20</ele>
        <time>2020-10-10T08:10:25.000Z</time>
      </trkpt>
      <trkpt lat="43.57402" lon="3.81189">
        <ele>20</ele>
        <time>2020-10-10T08:10:26.000Z</time>
      </trkpt>
      <trkpt lat="43.57401" lon="3.81186">
        <ele>20</ele>
        <time>2020-10-10T08:10:27.000Z</time>
      </trkpt>
      <trkpt lat="43.574" lon="3.81183">
        <ele>20</ele>
        <time>2020-10-10T08:10:28.000Z</time>
      </trkpt>
      <trkpt lat="43.57398" lon="3.81181">
        <ele>20</ele>
        <time>2020-10-10T08:10:29.000Z</time>
      </trkpt>
      <trkpt lat="43.57395" lon="3.81179">
        <ele>20</ele>
        <time>2020-10-10T08:10:30.000Z</time>
      </trkpt>
      <trkpt lat="43.57392" lon="3.81177">
        <ele>20</ele>
        <time>2020-10-10T08:10:31.000Z</time>
      </trkpt>
      <trkpt lat="43.57389" lon="3.81176">
        <ele>20</ele>
        <time>2020-10-10T08:10:32.000Z</time>
      </trkpt>
      <trkpt lat="43.57385" lon="3.81175">
        <ele>20</ele>
        <time>2020-10-10T08:10:33.000Z</time>
      </trkpt>
      <trkpt lat="43.57382" lon="3.81174">
        <ele>20</ele>
        <time>2020-10-10T08:10:34.000Z</time>
      </trkpt>
      <trkpt lat="43.57378" lon="3.81173">
        <ele>20</ele>
        <time>2020-10-10T08:10:35.000Z</time>
      </trkpt>
      <trkpt lat="43.57375" lon="3.81173">
        <ele>20</ele>
        <time>2020-10-10T08:10:36.000Z</time>
      </trkpt>
      <trkpt lat="43.57371" lon="3.81172">
        <ele>20</ele>
        <time>2020-10-10T08:10:37.000Z</time>
      </trkpt>
      <trkpt lat="43.57367" lon="3.8117">
        <ele>20</ele>
        <time>2020-10-10T08:10:38.000Z</time>
      </trkpt>
      <trkpt lat="43.57364" lon="3.81168">
        <ele>20</ele>
        <time>2020-10-10T08:10:39.000Z</time>
      </trkpt>
      <trkpt lat="43.57361" lon="3.81168">
        <ele>20</ele>
        <time>2020-10-10T08:10:40.000Z</time>
      </trkpt>
      <trkpt lat="43.57358" lon="3.81168">
        <ele>20</ele>
        <time>2020-10-10T08:10:41.000Z</time>
      </trkpt>
      <trkpt lat="43.57355" lon="3.81168">
        <ele>20.031031341411</ele>
        <time>2020-10-10T08:10:42.000Z</time>
      </trkpt>
      <trkpt lat="43.57352" lon="3.81166">
        <ele>20.131131409447</ele>
        <time>2020-10-10T08:10:43.000Z</time>
      </trkpt>
      <trkpt lat="43.57349" lon="3.81163">
        <ele>20.231231477483</ele>
        <time>2020-10-10T08:10:44.000Z</time>
      </trkpt>
      <trkpt lat="43.57347" lon="3.81159">
        <ele>20.331331545519</ele>
        <time>2020-10-10T08:10:45.000Z</time>
      </trkpt>
      <trkpt lat="43.57345" lon="3.81154">
        <ele>20.431431613555</ele>
        <time>2020-10-10T08:10:46.000Z</time>
      </trkpt>
      <trkpt lat="43.57341" lon="3.81148">
        <ele>20.531531681591</ele>
        <time>2020-10-10T08:10:47.000Z</time>
      </trkpt>
      <trkpt lat="43.57338" lon="3.81144">
        <ele>20.631631749627</ele>
        <time>2020-10-10T08:10:48.000Z</time>
      </trkpt>
      <trkpt lat="43.57334" lon="3.81142">
        <ele>20.731731817664</ele>
        <time>2020-10-10T08:10:49.000Z</time>
      </trkpt>
      <trkpt lat="43.57331" lon="3.81138">
        <ele>20.8318318857</ele>
        <time>2020-10-10T08:10:50.000Z</time>
      </trkpt>
      <trkpt lat="43.57328" lon="3.81135">
        <ele>20.931931953735</ele>
        <time>2020-10-10T08:10:51.000Z</time>
      </trkpt>
      <trkpt lat="43.57326" lon="3.81132">
        <ele>21</ele>
        <time>2020-10-10T08:10:52.000Z</time>
      </trkpt>
      <trkpt lat="43.57323" lon="3.81131">
        <ele>21</ele>
        <time>2020-10-10T08:10:53.000Z</time>
      </trkpt>
      <trkpt lat="43.5732" lon="3.81128">
        <ele>21</ele>
        <time>2020-10-10T08:10:54.000Z</time>
      </trkpt>
      <trkpt lat="43.57318" lon="3.81125">
        <ele>21</ele>
        <time>2020-10-10T08:10:55.000Z</time>
      </trkpt>
      <trkpt lat="43.57316" lon="3.81121">
        <ele>21</ele>
        <time>2020-10-10T08:10:56.000Z</time>
      </trkpt>
      <trkpt lat="43.57313" lon="3.81118">
        <ele>21</ele>
        <time>2020-10-10T08:10:57.000Z</time>
      </trkpt>
      <trkpt lat="43.57312" lon="3.81116">
        <ele>21</ele>
        <time>2020-10-10T08:10:58.000Z</time>
      </trkpt>
      <trkpt lat="43.57309" lon="3.81115">
        <ele>21</ele>
        <time>2020-10-10T08:10:59.000Z</time>
      </trkpt>
      <trkpt lat="43.57307" lon="3.81115">
        <ele>21</ele>
        <time>2020-10-10T08:11:00.000Z</time>
      </trkpt>
      <trkpt lat="43.57305" lon="3.81114">
        <ele>21</ele>
        <time>2020-10-10T08:11:01.000Z</time>
      </trkpt>
      <trkpt lat="43.57303" lon="3.81114">
        <ele>21</ele>
        <time>2020-10-10T08:11:02.000Z</time>
      </trkpt>
      <trkpt lat="43.573" lon="3.81114">
        <ele>21</ele>
        <time>2020-10-10T08:11:03.000Z</time>
      </trkpt>
      <trkpt lat="43.57297" lon="3.81117">
        <ele>21</ele>
        <time>2020-10-10T08:11:04.000Z</time>
      </trkpt>
      <trkpt lat="43.57294" lon="3.81119">
        <ele>21</ele>
        <time>2020-10-10T08:11:05.000Z</time>
      </trkpt>
      <trkpt lat="43.57291" lon="3.81123">
        <ele>21</ele>
        <time>2020-10-10T08:11:06.000Z</time>
      </trkpt>
      <trkpt lat="43.57287" lon="3.81128">
        <ele>21</ele>
        <time>2020-10-10T08:11:07.000Z</time>
      </trkpt>
      <trkpt lat="43.57284" lon="3.81133">
        <ele>21</ele>
        <time>2020-10-10T08:11:08.000Z</time>
      </trkpt>
      <trkpt lat="43.57281" lon="3.81138">
        <ele>21</ele>
        <time>2020-10-10T08:11:09.000Z</time>
      </trkpt>
      <trkpt lat="43.57277" lon="3.81142">
        <ele>21</ele>
        <time>2020-10-10T08:11:10.000Z</time>
      </trkpt>
      <trkpt lat="43.57272" lon="3.81145">
        <ele>21</ele>
        <time>2020-10-10T08:11:11.000Z</time>
      </trkpt>
      <trkpt lat="43.57268" lon="3.81149">
        <ele>21</ele>
        <time>2020-10-10T08:11:12.000Z</time>
      </trkpt>
      <trkpt lat="43.57264" lon="3.8115">
        <ele>21</ele>
        <time>2020-10-10T08:11:13.000Z</time>
      </trkpt>
      <trkpt lat="43.5726" lon="3.81152">
        <ele>21</ele>
        <time>2020-10-10T08:11:14.000Z</time>
      </trkpt>
      <trkpt lat="43.57256" lon="3.81152">
        <ele>21</ele>
        <time>2020-10-10T08:11:15.000Z</time>
      </trkpt>
      <trkpt lat="43.57253" lon="3.81152">
        <ele>21</ele>
        <time>2020-10-10T08:11:16.000Z</time>
      </trkpt>
      <trkpt lat="43.5725" lon="3.81153">
        <ele>21</ele>
        <time>2020-10-10T08:11:17.000Z</time>
      </trkpt>
      <trkpt lat="43.57246" lon="3.81154">
        <ele>21</ele>
        <time>2020-10-10T08:11:18.000Z</time>
      </trkpt>
      <trkpt lat="43.57244" lon="3.81155">
        <ele>21</ele>
        <time>2020-10-10T08:11:19.000Z</time>
      </trkpt>
      <trkpt lat="43.57242" lon="3.81156">
        <ele>21</ele>
        <time>2020-10-10T08:11:20.000Z</time>
      </trkpt>
      <trkpt lat="43.5724" lon="3.81157">
        <ele>21</ele>
        <time>2020-10-10T08:11:21.000Z</time>
      </trkpt>
      <trkpt lat="43.57238" lon="3.81157">
        <ele>20.997998636715</ele>
        <time>2020-10-10T08:11:22.000Z</time>
      </trkpt>
      <trkpt lat="43.57235" lon="3.81157">
        <ele>20.897898440423</ele>
        <time>2020-10-10T08:11:23.000Z</time>
      </trkpt>
      <trkpt lat="43.57234" lon="3.81156">
        <ele>20.79779824413</ele>
        <time>2020-10-10T08:11:24.000Z</time>
      </trkpt>
      <trkpt lat="43.5723" lon="3.81157">
        <ele>20.597597851546</ele>
        <time>2020-10-10T08:11:26.000Z</time>
      </trkpt>
      <trkpt lat="43.57227" lon="3.81158">
        <ele>20.497497655253</ele>
        <time>2020-10-10T08:11:27.000Z</time>
      </trkpt>
      <trkpt lat="43.57224" lon="3.81161">
        <ele>20.397397458961</ele>
        <time>2020-10-10T08:11:28.000Z</time>
      </trkpt>
      <trkpt lat="43.57221" lon="3.81164">
        <ele>20.297297262668</ele>
        <time>2020-10-10T08:11:29.000Z</time>
      </trkpt>
      <trkpt lat="43.57218" lon="3.81167">
        <ele>20.197197066376</ele>
        <time>2020-10-10T08:11:30.000Z</time>
      </trkpt>
      <trkpt lat="43.57214" lon="3.81169">
        <ele>20.097096870083</ele>
        <time>2020-10-10T08:11:31.000Z</time>
      </trkpt>
      <trkpt lat="43.5721" lon="3.81173">
        <ele>19.996919591347</ele>
        <time>2020-10-10T08:11:32.000Z</time>
      </trkpt>
      <trkpt lat="43.57207" lon="3.81175">
        <ele>19.894250254291</ele>
        <time>2020-10-10T08:11:33.000Z</time>
      </trkpt>
      <trkpt lat="43.57203" lon="3.81178">
        <ele>19.791580917236</ele>
        <time>2020-10-10T08:11:34.000Z</time>
      </trkpt>
      <trkpt lat="43.57199" lon="3.81181">
        <ele>19.688911580181</ele>
        <time>2020-10-10T08:11:35.000Z</time>
      </trkpt>
      <trkpt lat="43.57195" lon="3.81184">
        <ele>19.586242243126</ele>
        <time>2020-10-10T08:11:36.000Z</time>
      </trkpt>
      <trkpt lat="43.57191" lon="3.81187">
        <ele>19.483572906071</ele>
        <time>2020-10-10T08:11:37.000Z</time>
      </trkpt>
      <trkpt lat="43.57187" lon="3.8119">
        <ele>19.380903569016</ele>
        <time>2020-10-10T08:11:38.000Z</time>
      </trkpt>
      <trkpt lat="43.57183" lon="3.81193">
        <ele>19.278234231961</ele>
        <time>2020-10-10T08:11:39.000Z</time>
      </trkpt>
      <trkpt lat="43.5718" lon="3.81196">
        <ele>19.175564894906</ele>
        <time>2020-10-10T08:11:40.000Z</time>
      </trkpt>
      <trkpt lat="43.57176" lon="3.81199">
        <ele>19.072895557851</ele>
        <time>2020-10-10T08:11:41.000Z</time>
      </trkpt>
      <trkpt lat="43.57172" lon="3.81202">
        <ele>19</ele>
        <time>2020-10-10T08:11:42.000Z</time>
      </trkpt>
      <trkpt lat="43.57168" lon="3.81205">
        <ele>19</ele>
        <time>2020-10-10T08:11:43.000Z</time>
      </trkpt>
      <trkpt lat="43.57164" lon="3.81207">
        <ele>19</ele>
        <time>2020-10-10T08:11:44.000Z</time>
      </trkpt>
      <trkpt lat="43.5716" lon="3.8121">
        <ele>19</ele>
        <time>2020-10-10T08:11:45.000Z</time>
      </trkpt>
      <trkpt lat="43.57157" lon="3.81213">
        <ele>19</ele>
        <time>2020-10-10T08:11:46.000Z</time>
      </trkpt>
      <trkpt lat="43.57153" lon="3.81215">
        <ele>19</ele>
        <time>2020-10-10T08:11:47.000Z</time>
      </trkpt>
      <trkpt lat="43.5715" lon="3.81218">
        <ele>19</ele>
        <time>2020-10-10T08:11:48.000Z</time>
      </trkpt>
      <trkpt lat="43.57147" lon="3.81221">
        <ele>19</ele>
        <time>2020-10-10T08:11:49.000Z</time>
      </trkpt>
      <trkpt lat="43.57144" lon="3.81224">
        <ele>19</ele>
        <time>2020-10-10T08:11:50.000Z</time>
      </trkpt>
      <trkpt lat="43.57142" lon="3.81227">
        <ele>19</ele>
        <time>2020-10-10T08:11:51.000Z</time>
      </trkpt>
      <trkpt lat="43.57139" lon="3.8123">
        <ele>19</ele>
        <time>2020-10-10T08:11:52.000Z</time>
      </trkpt>
      <trkpt lat="43.57137" lon="3.81232">
        <ele>19</ele>
        <time>2020-10-10T08:11:53.000Z</time>
      </trkpt>
      <trkpt lat="43.57134" lon="3.81235">
        <ele>19</ele>
        <time>2020-10-10T08:11:54.000Z</time>
      </trkpt>
      <trkpt lat="43.57132" lon="3.81237">
        <ele>19</ele>
        <time>2020-10-10T08:11:55.000Z</time>
      </trkpt>
      <trkpt lat="43.57131" lon="3.8124">
        <ele>19</ele>
        <time>2020-10-10T08:11:56.000Z</time>
      </trkpt>
      <trkpt lat="43.57129" lon="3.81243">
        <ele>19</ele>
        <time>2020-10-10T08:11:57.000Z</time>
      </trkpt>
      <trkpt lat="43.57127" lon="3.81246">
        <ele>19</ele>
        <time>2020-10-10T08:11:58.000Z</time>
      </trkpt>
      <trkpt lat="43.57125" lon="3.81248">
        <ele>19</ele>
        <time>2020-10-10T08:11:59.000Z</time>
      </trkpt>
      <trkpt lat="43.57124" lon="3.81251">
        <ele>19</ele>
        <time>2020-10-10T08:12:00.000Z</time>
      </trkpt>
      <trkpt lat="43.57124" lon="3.81254">
        <ele>19</ele>
        <time>2020-10-10T08:12:01.000Z</time>
      </trkpt>
      <trkpt lat="43.57123" lon="3.81257">
        <ele>19</ele>
        <time>2020-10-10T08:12:02.000Z</time>
      </trkpt>
      <trkpt lat="43.57122" lon="3.8126">
        <ele>19</ele>
        <time>2020-10-10T08:12:03.000Z</time>
      </trkpt>
      <trkpt lat="43.57121" lon="3.81262">
        <ele>19</ele>
        <time>2020-10-10T08:12:04.000Z</time>
      </trkpt>
      <trkpt lat="43.57119" lon="3.81264">
        <ele>19</ele>
        <time>2020-10-10T08:12:05.000Z</time>
      </trkpt>
      <trkpt lat="43.57118" lon="3.81267">
        <ele>19</ele>
        <time>2020-10-10T08:12:06.000Z</time>
      </trkpt>
      <trkpt lat="43.57117" lon="3.81269">
        <ele>19</ele>
        <time>2020-10-10T08:12:07.000Z</time>
      </trkpt>
      <trkpt lat="43.57115" lon="3.81272">
        <ele>19</ele>
        <time>2020-10-10T08:12:08.000Z</time>
      </trkpt>
      <trkpt lat="43.57114" lon="3.81275">
        <ele>19</ele>
        <time>2020-10-10T08:12:09.000Z</time>
      </trkpt>
      <trkpt lat="43.57112" lon="3.81277">
        <ele>19</ele>
        <time>2020-10-10T08:12:10.000Z</time>
      </trkpt>
      <trkpt lat="43.57109" lon="3.81279">
        <ele>19</ele>
        <time>2020-10-10T08:12:11.000Z</time>
      </trkpt>
      <trkpt lat="43.57107" lon="3.8128">
        <ele>19.003086748971</ele>
        <time>2020-10-10T08:12:12.000Z</time>
      </trkpt>
      <trkpt lat="43.57104" lon="3.81282">
        <ele>19.105967407407</ele>
        <time>2020-10-10T08:12:13.000Z</time>
      </trkpt>
      <trkpt lat="43.57101" lon="3.81286">
        <ele>19.31172872428</ele>
        <time>2020-10-10T08:12:15.000Z</time>
      </trkpt>
      <trkpt lat="43.57099" lon="3.8129">
        <ele>19.414609382716</ele>
        <time>2020-10-10T08:12:16.000Z</time>
      </trkpt>
      <trkpt lat="43.57094" lon="3.81301">
        <ele>19.723251358025</ele>
        <time>2020-10-10T08:12:19.000Z</time>
      </trkpt>
      <trkpt lat="43.57093" lon="3.81303">
        <ele>20</ele>
        <time>2020-10-10T08:12:22.000Z</time>
      </trkpt>
      <trkpt lat="43.57092" lon="3.81303">
        <ele>20</ele>
        <time>2020-10-10T08:12:27.000Z</time>
      </trkpt>
      <trkpt lat="43.5709" lon="3.81312">
        <ele>20.977272727273</ele>
        <time>2020-10-10T08:12:36.000Z</time>
      </trkpt>
      <trkpt lat="43.57089" lon="3.81315">
        <ele>21</ele>
        <time>2020-10-10T08:12:38.000Z</time>
      </trkpt>
      <trkpt lat="43.57088" lon="3.81319">
        <ele>21</ele>
        <time>2020-10-10T08:12:40.000Z</time>
      </trkpt>
      <trkpt lat="43.57087" lon="3.81322">
        <ele>21</ele>
        <time>2020-10-10T08:12:41.000Z</time>
      </trkpt>
      <trkpt lat="43.57086" lon="3.81325">
        <ele>21</ele>
        <time>2020-10-10T08:12:42.000Z</time>
      </trkpt>
      <trkpt lat="43.57085" lon="3.81327">
        <ele>21</ele>
        <time>2020-10-10T08:12:43.000Z</time>
      </trkpt>
      <trkpt lat="43.57083" lon="3.81329">
        <ele>21</ele>
        <time>2020-10-10T08:12:44.000Z</time>
      </trkpt>
      <trkpt lat="43.57081" lon="3.81332">
        <ele>21</ele>
        <time>2020-10-10T08:12:45.000Z</time>
      </trkpt>
      <trkpt lat="43.57079" lon="3.81334">
        <ele>21</ele>
        <time>2020-10-10T08:12:46.000Z</time>
      </trkpt>
      <trkpt lat="43.57077" lon="3.81336">
        <ele>21</ele>
        <time>2020-10-10T08:12:47.000Z</time>
      </trkpt>
      <trkpt lat="43.57075" lon="3.81339">
        <ele>21</ele>
        <time>2020-10-10T08:12:48.000Z</time>
      </trkpt>
      <trkpt lat="43.57073" lon="3.81342">
        <ele>21</ele>
        <time>2020-10-10T08:12:49.000Z</time>
      </trkpt>
      <trkpt lat="43.5707" lon="3.81345">
        <ele>21</ele>
        <time>2020-10-10T08:12:50.000Z</time>
      </trkpt>
      <trkpt lat="43.57068" lon="3.81348">
        <ele>21</ele>
        <time>2020-10-10T08:12:51.000Z</time>
      </trkpt>
      <trkpt lat="43.57066" lon="3.81351">
        <ele>21</ele>
        <time>2020-10-10T08:12:52.000Z</time>
      </trkpt>
      <trkpt lat="43.57064" lon="3.81354">
        <ele>21</ele>
        <time>2020-10-10T08:12:53.000Z</time>
      </trkpt>
      <trkpt lat="43.57062" lon="3.81357">
        <ele>21</ele>
        <time>2020-10-10T08:12:54.000Z</time>
      </trkpt>
      <trkpt lat="43.5706" lon="3.8136">
        <ele>21</ele>
        <time>2020-10-10T08:12:55.000Z</time>
      </trkpt>
      <trkpt lat="43.57059" lon="3.81362">
        <ele>21.003089926891</ele>
        <time>2020-10-10T08:12:56.000Z</time>
      </trkpt>
      <trkpt lat="43.57057" lon="3.81365">
        <ele>21.106076504692</ele>
        <time>2020-10-10T08:12:57.000Z</time>
      </trkpt>
      <trkpt lat="43.57057" lon="3.81368">
        <ele>21.209063082492</ele>
        <time>2020-10-10T08:12:58.000Z</time>
      </trkpt>
      <trkpt lat="43.57056" lon="3.81372">
        <ele>21.312049660293</ele>
        <time>2020-10-10T08:12:59.000Z</time>
      </trkpt>
      <trkpt lat="43.57055" lon="3.81375">
        <ele>21.415036238093</ele>
        <time>2020-10-10T08:13:00.000Z</time>
      </trkpt>
      <trkpt lat="43.57054" lon="3.81378">
        <ele>21.518022815894</ele>
        <time>2020-10-10T08:13:01.000Z</time>
      </trkpt>
      <trkpt lat="43.57054" lon="3.81382">
        <ele>21.621009393694</ele>
        <time>2020-10-10T08:13:02.000Z</time>
      </trkpt>
      <trkpt lat="43.57054" lon="3.81385">
        <ele>21.723995971495</ele>
        <time>2020-10-10T08:13:03.000Z</time>
      </trkpt>
      <trkpt lat="43.57055" lon="3.81388">
        <ele>21.826982549295</ele>
        <time>2020-10-10T08:13:04.000Z</time>
      </trkpt>
      <trkpt lat="43.57055" lon="3.81391">
        <ele>21.929969127096</ele>
        <time>2020-10-10T08:13:05.000Z</time>
      </trkpt>
      <trkpt lat="43.57055" lon="3.81395">
        <ele>22.06380855392</ele>
        <time>2020-10-10T08:13:06.000Z</time>
      </trkpt>
      <trkpt lat="43.57054" lon="3.81398">
        <ele>22.263210284918</ele>
        <time>2020-10-10T08:13:07.000Z</time>
      </trkpt>
      <trkpt lat="43.57053" lon="3.81402">
        <ele>22.462612015916</ele>
        <time>2020-10-10T08:13:08.000Z</time>
      </trkpt>
      <trkpt lat="43.57052" lon="3.81406">
        <ele>22.662013746915</ele>
        <time>2020-10-10T08:13:09.000Z</time>
      </trkpt>
      <trkpt lat="43.57051" lon="3.81409">
        <ele>22.861415477913</ele>
        <time>2020-10-10T08:13:10.000Z</time>
      </trkpt>
      <trkpt lat="43.5705" lon="3.81412">
        <ele>23.060817208912</ele>
        <time>2020-10-10T08:13:11.000Z</time>
      </trkpt>
      <trkpt lat="43.5705" lon="3.81415">
        <ele>23.26021893991</ele>
        <time>2020-10-10T08:13:12.000Z</time>
      </trkpt>
      <trkpt lat="43.57051" lon="3.81418">
        <ele>23.459620670909</ele>
        <time>2020-10-10T08:13:13.000Z</time>
      </trkpt>
      <trkpt lat="43.57054" lon="3.81419">
        <ele>23.858424132906</ele>
        <time>2020-10-10T08:13:15.000Z</time>
      </trkpt>
      <trkpt lat="43.57056" lon="3.81419">
        <ele>24.087173442676</ele>
        <time>2020-10-10T08:13:16.000Z</time>
      </trkpt>
      <trkpt lat="43.57058" lon="3.81419">
        <ele>24.387774837852</ele>
        <time>2020-10-10T08:13:17.000Z</time>
      </trkpt>
      <trkpt lat="43.5706" lon="3.81419">
        <ele>24.688376233027</ele>
        <time>2020-10-10T08:13:18.000Z</time>
      </trkpt>
      <trkpt lat="43.57062" lon="3.81419">
        <ele>24.988977628202</ele>
        <time>2020-10-10T08:13:19.000Z</time>
      </trkpt>
      <trkpt lat="43.57064" lon="3.81419">
        <ele>25.289579023377</ele>
        <time>2020-10-10T08:13:20.000Z</time>
      </trkpt>
      <trkpt lat="43.57066" lon="3.81419">
        <ele>25.590180418553</ele>
        <time>2020-10-10T08:13:21.000Z</time>
      </trkpt>
      <trkpt lat="43.57068" lon="3.81419">
        <ele>25.890781813728</ele>
        <time>2020-10-10T08:13:22.000Z</time>
      </trkpt>
      <trkpt lat="43.57072" lon="3.81421">
        <ele>26.491984604078</ele>
        <time>2020-10-10T08:13:24.000Z</time>
      </trkpt>
      <trkpt lat="43.57075" lon="3.81423">
        <ele>27.09300096</ele>
        <time>2020-10-10T08:13:26.000Z</time>
      </trkpt>
      <trkpt lat="43.57076" lon="3.81424">
        <ele>27.39300096</ele>
        <time>2020-10-10T08:13:27.000Z</time>
      </trkpt>
      <trkpt lat="43.57078" lon="3.81425">
        <ele>27.69300096</ele>
        <time>2020-10-10T08:13:28.000Z</time>
      </trkpt>
      <trkpt lat="43.5708" lon="3.81426">
        <ele>27.99300096</ele>
        <time>2020-10-10T08:13:29.000Z</time>
      </trkpt>
      <trkpt lat="43.57082" lon="3.81428">
        <ele>28.29300096</ele>
        <time>2020-10-10T08:13:30.000Z</time>
      </trkpt>
      <trkpt lat="43.57084" lon="3.81429">
        <ele>28.59300096</ele>
        <time>2020-10-10T08:13:31.000Z</time>
      </trkpt>
      <trkpt lat="43.57085" lon="3.81431">
        <ele>28.89300096</ele>
        <time>2020-10-10T08:13:32.000Z</time>
      </trkpt>
      <trkpt lat="43.57088" lon="3.81433">
        <ele>29.49300096</ele>
        <time>2020-10-10T08:13:34.000Z</time>
      </trkpt>
      <trkpt lat="43.5709" lon="3.81434">
        <ele>29.79300096</ele>
        <time>2020-10-10T08:13:35.000Z</time>
      </trkpt>
      <trkpt lat="43.57091" lon="3.81435">
        <ele>30.031031341411</ele>
        <time>2020-10-10T08:13:36.000Z</time>
      </trkpt>
      <trkpt lat="43.57094" lon="3.81439">
        <ele>30.231231477483</ele>
        <time>2020-10-10T08:13:38.000Z</time>
      </trkpt>
      <trkpt lat="43.57095" lon="3.81441">
        <ele>30.331331545519</ele>
        <time>2020-10-10T08:13:39.000Z</time>
      </trkpt>
      <trkpt lat="43.57096" lon="3.81443">
        <ele>30.431431613555</ele>
        <time>2020-10-10T08:13:40.000Z</time>
      </trkpt>
      <trkpt lat="43.57097" lon="3.81445">
        <ele>30.531531681591</ele>
        <time>2020-10-10T08:13:41.000Z</time>
      </trkpt>
      <trkpt lat="43.57099" lon="3.81446">
        <ele>30.631631749627</ele>
        <time>2020-10-10T08:13:42.000Z</time>
      </trkpt>
      <trkpt lat="43.57101" lon="3.81448">
        <ele>30.731731817664</ele>
        <time>2020-10-10T08:13:43.000Z</time>
      </trkpt>
      <trkpt lat="43.57103" lon="3.8145">
        <ele>30.8318318857</ele>
        <time>2020-10-10T08:13:44.000Z</time>
      </trkpt>
      <trkpt lat="43.57105" lon="3.81453">
        <ele>30.931931953735</ele>
        <time>2020-10-10T08:13:45.000Z</time>
      </trkpt>
      <trkpt lat="43.57107" lon="3.81456">
        <ele>31.032</ele>
        <time>2020-10-10T08:13:46.000Z</time>
      </trkpt>
      <trkpt lat="43.57108" lon="3.81459">
        <ele>31.132</ele>
        <time>2020-10-10T08:13:47.000Z</time>
      </trkpt>
      <trkpt lat="43.57109" lon="3.81462">
        <ele>31.232</ele>
        <time>2020-10-10T08:13:48.000Z</time>
      </trkpt>
      <trkpt lat="43.57111" lon="3.81465">
        <ele>31.332</ele>
        <time>2020-10-10T08:13:49.000Z</time>
      </trkpt>
      <trkpt lat="43.57112" lon="3.81468">
        <ele>31.432</ele>
        <time>2020-10-10T08:13:50.000Z</time>
      </trkpt>
      <trkpt lat="43.57113" lon="3.81471">
        <ele>31.532</ele>
        <time>2020-10-10T08:13:51.000Z</time>
      </trkpt>
      <trkpt lat="43.57115" lon="3.81474">
        <ele>31.632</ele>
        <time>2020-10-10T08:13:52.000Z</time>
      </trkpt>
      <trkpt lat="43.57116" lon="3.81478">
        <ele>31.732</ele>
        <time>2020-10-10T08:13:53.000Z</time>
      </trkpt>
      <trkpt lat="43.57117" lon="3.81481">
        <ele>31.832</ele>
        <time>2020-10-10T08:13:54.000Z</time>
      </trkpt>
      <trkpt lat="43.57118" lon="3.81484">
        <ele>31.932</ele>
        <time>2020-10-10T08:13:55.000Z</time>
      </trkpt>
      <trkpt lat="43.57119" lon="3.81487">
        <ele>32.032</ele>
        <time>2020-10-10T08:13:56.000Z</time>
      </trkpt>
      <trkpt lat="43.5712" lon="3.81491">
        <ele>32.132</ele>
        <time>2020-10-10T08:13:57.000Z</time>
      </trkpt>
      <trkpt lat="43.57121" lon="3.81494">
        <ele>32.232</ele>
        <time>2020-10-10T08:13:58.000Z</time>
      </trkpt>
      <trkpt lat="43.57122" lon="3.81497">
        <ele>32.332</ele>
        <time>2020-10-10T08:13:59.000Z</time>
      </trkpt>
      <trkpt lat="43.57123" lon="3.815">
        <ele>32.432</ele>
        <time>2020-10-10T08:14:00.000Z</time>
      </trkpt>
      <trkpt lat="43.57124" lon="3.81503">
        <ele>32.532</ele>
        <time>2020-10-10T08:14:01.000Z</time>
      </trkpt>
      <trkpt lat="43.57125" lon="3.81506">
        <ele>32.632</ele>
        <time>2020-10-10T08:14:02.000Z</time>
      </trkpt>
      <trkpt lat="43.57126" lon="3.81508">
        <ele>32.732</ele>
        <time>2020-10-10T08:14:03.000Z</time>
      </trkpt>
      <trkpt lat="43.57128" lon="3.81512">
        <ele>32.832</ele>
        <time>2020-10-10T08:14:04.000Z</time>
      </trkpt>
      <trkpt lat="43.5713" lon="3.81515">
        <ele>32.932</ele>
        <time>2020-10-10T08:14:05.000Z</time>
      </trkpt>
      <trkpt lat="43.57131" lon="3.81519">
        <ele>33</ele>
        <time>2020-10-10T08:14:06.000Z</time>
      </trkpt>
      <trkpt lat="43.57133" lon="3.81523">
        <ele>33</ele>
        <time>2020-10-10T08:14:07.000Z</time>
      </trkpt>
      <trkpt lat="43.57134" lon="3.81528">
        <ele>33</ele>
        <time>2020-10-10T08:14:08.000Z</time>
      </trkpt>
      <trkpt lat="43.57135" lon="3.81532">
        <ele>33</ele>
        <time>2020-10-10T08:14:09.000Z</time>
      </trkpt>
      <trkpt lat="43.57136" lon="3.81536">
        <ele>33</ele>
        <time>2020-10-10T08:14:10.000Z</time>
      </trkpt>
      <trkpt lat="43.57137" lon="3.8154">
        <ele>33</ele>
        <time>2020-10-10T08:14:11.000Z</time>
      </trkpt>
      <trkpt lat="43.57137" lon="3.81543">
        <ele>33</ele>
        <time>2020-10-10T08:14:12.000Z</time>
      </trkpt>
      <trkpt lat="43.57137" lon="3.81547">
        <ele>33</ele>
        <time>2020-10-10T08:14:13.000Z</time>
      </trkpt>
      <trkpt lat="43.57137" lon="3.8155">
        <ele>33</ele>
        <time>2020-10-10T08:14:14.000Z</time>
      </trkpt>
      <trkpt lat="43.57137" lon="3.81554">
        <ele>33</ele>
        <time>2020-10-10T08:14:15.000Z</time>
      </trkpt>
      <trkpt lat="43.57137" lon="3.81557">
        <ele>33</ele>
        <time>2020-10-10T08:14:16.000Z</time>
      </trkpt>
      <trkpt lat="43.57138" lon="3.81561">
        <ele>33</ele>
        <time>2020-10-10T08:14:17.000Z</time>
      </trkpt>
      <trkpt lat="43.57138" lon="3.81565">
        <ele>33</ele>
        <time>2020-10-10T08:14:18.000Z</time>
      </trkpt>
      <trkpt lat="43.57138" lon="3.81569">
        <ele>33</ele>
        <time>2020-10-10T08:14:19.000Z</time>
      </trkpt>
      <trkpt lat="43.57138" lon="3.81574">
        <ele>33</ele>
        <time>2020-10-10T08:14:20.000Z</time>
      </trkpt>
      <trkpt lat="43.57138" lon="3.81578">
        <ele>33</ele>
        <time>2020-10-10T08:14:21.000Z</time>
      </trkpt>
      <trkpt lat="43.57138" lon="3.81583">
        <ele>33</ele>
        <time>2020-10-10T08:14:22.000Z</time>
      </trkpt>
      <trkpt lat="43.57139" lon="3.81588">
        <ele>33</ele>
        <time>2020-10-10T08:14:23.000Z</time>
      </trkpt>
      <trkpt lat="43.57139" lon="3.81593">
        <ele>33</ele>
        <time>2020-10-10T08:14:24.000Z</time>
      </trkpt>
      <trkpt lat="43.57139" lon="3.81598">
        <ele>33</ele>
        <time>2020-10-10T08:14:25.000Z</time>
      </trkpt>
      <trkpt lat="43.5714" lon="3.81603">
        <ele>32.968</ele>
        <time>2020-10-10T08:14:26.000Z</time>
      </trkpt>
      <trkpt lat="43.5714" lon="3.81608">
        <ele>32.868</ele>
        <time>2020-10-10T08:14:27.000Z</time>
      </trkpt>
      <trkpt lat="43.57141" lon="3.81613">
        <ele>32.768</ele>
        <time>2020-10-10T08:14:28.000Z</time>
      </trkpt>
      <trkpt lat="43.57142" lon="3.81618">
        <ele>32.668</ele>
        <time>2020-10-10T08:14:29.000Z</time>
      </trkpt>
      <trkpt lat="43.57143" lon="3.81622">
        <ele>32.568</ele>
        <time>2020-10-10T08:14:30.000Z</time>
      </trkpt>
      <trkpt lat="43.57145" lon="3.81627">
        <ele>32.468</ele>
        <time>2020-10-10T08:14:31.000Z</time>
      </trkpt>
      <trkpt lat="43.57146" lon="3.81632">
        <ele>32.368</ele>
        <time>2020-10-10T08:14:32.000Z</time>
      </trkpt>
      <trkpt lat="43.57148" lon="3.81638">
        <ele>32.268</ele>
        <time>2020-10-10T08:14:33.000Z</time>
      </trkpt>
      <trkpt lat="43.57149" lon="3.81644">
        <ele>32.168</ele>
        <time>2020-10-10T08:14:34.000Z</time>
      </trkpt>
      <trkpt lat="43.5715" lon="3.8165">
        <ele>32.068</ele>
        <time>2020-10-10T08:14:35.000Z</time>
      </trkpt>
      <trkpt lat="43.5715" lon="3.81657">
        <ele>32</ele>
        <time>2020-10-10T08:14:36.000Z</time>
      </trkpt>
      <trkpt lat="43.57149" lon="3.81663">
        <ele>32</ele>
        <time>2020-10-10T08:14:37.000Z</time>
      </trkpt>
      <trkpt lat="43.57148" lon="3.81669">
        <ele>32</ele>
        <time>2020-10-10T08:14:38.000Z</time>
      </trkpt>
      <trkpt lat="43.57146" lon="3.81675">
        <ele>32</ele>
        <time>2020-10-10T08:14:39.000Z</time>
      </trkpt>
      <trkpt lat="43.57144" lon="3.8168">
        <ele>32</ele>
        <time>2020-10-10T08:14:40.000Z</time>
      </trkpt>
      <trkpt lat="43.57142" lon="3.81686">
        <ele>32</ele>
        <time>2020-10-10T08:14:41.000Z</time>
      </trkpt>
      <trkpt lat="43.5714" lon="3.8169">
        <ele>32</ele>
        <time>2020-10-10T08:14:42.000Z</time>
      </trkpt>
      <trkpt lat="43.57137" lon="3.81695">
        <ele>32</ele>
        <time>2020-10-10T08:14:43.000Z</time>
      </trkpt>
      <trkpt lat="43.57134" lon="3.81699">
        <ele>32</ele>
        <time>2020-10-10T08:14:44.000Z</time>
      </trkpt>
      <trkpt lat="43.57131" lon="3.81702">
        <ele>32</ele>
        <time>2020-10-10T08:14:45.000Z</time>
      </trkpt>
      <trkpt lat="43.57128" lon="3.81705">
        <ele>32</ele>
        <time>2020-10-10T08:14:46.000Z</time>
      </trkpt>
      <trkpt lat="43.57125" lon="3.81708">
        <ele>32</ele>
        <time>2020-10-10T08:14:47.000Z</time>
      </trkpt>
      <trkpt lat="43.57122" lon="3.8171">
        <ele>32</ele>
        <time>2020-10-10T08:14:48.000Z</time>
      </trkpt>
      <trkpt lat="43.5712" lon="3.81711">
        <ele>32</ele>
        <time>2020-10-10T08:14:49.000Z</time>
      </trkpt>
      <trkpt lat="43.57118" lon="3.81711">
        <ele>32</ele>
        <time>2020-10-10T08:14:50.000Z</time>
      </trkpt>
      <trkpt lat="43.57115" lon="3.81711">
        <ele>32</ele>
        <time>2020-10-10T08:14:52.000Z</time>
      </trkpt>
      <trkpt lat="43.57113" lon="3.81712">
        <ele>32</ele>
        <time>2020-10-10T08:14:54.000Z</time>
      </trkpt>
      <trkpt lat="43.57116" lon="3.81712">
        <ele>32</ele>
        <time>2020-10-10T08:14:58.000Z</time>
      </trkpt>
      <trkpt lat="43.57118" lon="3.8171">
        <ele>32</ele>
        <time>2020-10-10T08:15:00.000Z</time>
      </trkpt>
      <trkpt lat="43.5712" lon="3.81708">
        <ele>32</ele>
        <time>2020-10-10T08:15:02.000Z</time>
      </trkpt>
      <trkpt lat="43.57122" lon="3.81706">
        <ele>32</ele>
        <time>2020-10-10T08:15:04.000Z</time>
      </trkpt>
      <trkpt lat="43.57125" lon="3.81703">
        <ele>31.968</ele>
        <time>2020-10-10T08:15:06.000Z</time>
      </trkpt>
      <trkpt lat="43.57127" lon="3.81701">
        <ele>31.868</ele>
        <time>2020-10-10T08:15:07.000Z</time>
      </trkpt>
      <trkpt lat="43.57129" lon="3.81698">
        <ele>31.768</ele>
        <time>2020-10-10T08:15:08.000Z</time>
      </trkpt>
      <trkpt lat="43.57131" lon="3.81695">
        <ele>31.668</ele>
        <time>2020-10-10T08:15:09.000Z</time>
      </trkpt>
      <trkpt lat="43.57134" lon="3.81692">
        <ele>31.568</ele>
        <time>2020-10-10T08:15:10.000Z</time>
      </trkpt>
      <trkpt lat="43.57136" lon="3.81688">
        <ele>31.468</ele>
        <time>2020-10-10T08:15:11.000Z</time>
      </trkpt>
      <trkpt lat="43.57138" lon="3.81685">
        <ele>31.368</ele>
        <time>2020-10-10T08:15:12.000Z</time>
      </trkpt>
      <trkpt lat="43.57139" lon="3.81681">
        <ele>31.268</ele>
        <time>2020-10-10T08:15:13.000Z</time>
      </trkpt>
      <trkpt lat="43.57141" lon="3.81677">
        <ele>31.168</ele>
        <time>2020-10-10T08:15:14.000Z</time>
      </trkpt>
      <trkpt lat="43.57143" lon="3.81674">
        <ele>31.068</ele>
        <time>2020-10-10T08:15:15.000Z</time>
      </trkpt>
      <trkpt lat="43.57144" lon="3.8167">
        <ele>30.936127703714</ele>
        <time>2020-10-10T08:15:16.000Z</time>
      </trkpt>
      <trkpt lat="43.57145" lon="3.81666">
        <ele>30.736526777821</ele>
        <time>2020-10-10T08:15:17.000Z</time>
      </trkpt>
      <trkpt lat="43.57146" lon="3.81663">
        <ele>30.536925851929</ele>
        <time>2020-10-10T08:15:18.000Z</time>
      </trkpt>
      <trkpt lat="43.57147" lon="3.8166">
        <ele>30.137724000143</ele>
        <time>2020-10-10T08:15:20.000Z</time>
      </trkpt>
      <trkpt lat="43.57151" lon="3.81661">
        <ele>29.738522148358</ele>
        <time>2020-10-10T08:15:22.000Z</time>
      </trkpt>
      <trkpt lat="43.57154" lon="3.81662">
        <ele>29.538921222465</ele>
        <time>2020-10-10T08:15:23.000Z</time>
      </trkpt>
      <trkpt lat="43.57157" lon="3.81663">
        <ele>29.339320296572</ele>
        <time>2020-10-10T08:15:24.000Z</time>
      </trkpt>
      <trkpt lat="43.5716" lon="3.81666">
        <ele>29.139719370679</ele>
        <time>2020-10-10T08:15:25.000Z</time>
      </trkpt>
      <trkpt lat="43.57163" lon="3.81669">
        <ele>29</ele>
        <time>2020-10-10T08:15:26.000Z</time>
      </trkpt>
      <trkpt lat="43.57166" lon="3.81673">
        <ele>29</ele>
        <time>2020-10-10T08:15:27.000Z</time>
      </trkpt>
      <trkpt lat="43.57168" lon="3.81677">
        <ele>29</ele>
        <time>2020-10-10T08:15:28.000Z</time>
      </trkpt>
      <trkpt lat="43.5717" lon="3.8168">
        <ele>29</ele>
        <time>2020-10-10T08:15:29.000Z</time>
      </trkpt>
      <trkpt lat="43.57171" lon="3.81682">
        <ele>29</ele>
        <time>2020-10-10T08:15:30.000Z</time>
      </trkpt>
      <trkpt lat="43.57172" lon="3.81685">
        <ele>29</ele>
        <time>2020-10-10T08:15:31.000Z</time>
      </trkpt>
      <trkpt lat="43.57173" lon="3.81688">
        <ele>29</ele>
        <time>2020-10-10T08:15:32.000Z</time>
      </trkpt>
      <trkpt lat="43.57174" lon="3.81691">
        <ele>29</ele>
        <time>2020-10-10T08:15:33.000Z</time>
      </trkpt>
      <trkpt lat="43.57176" lon="3.81693">
        <ele>29</ele>
        <time>2020-10-10T08:15:34.000Z</time>
      </trkpt>
      <trkpt lat="43.57178" lon="3.81695">
        <ele>29</ele>
        <time>2020-10-10T08:15:35.000Z</time>
      </trkpt>
      <trkpt lat="43.5718" lon="3.81695">
        <ele>29</ele>
        <time>2020-10-10T08:15:36.000Z</time>
      </trkpt>
      <trkpt lat="43.57183" lon="3.81696">
        <ele>29</ele>
        <time>2020-10-10T08:15:37.000Z</time>
      </trkpt>
      <trkpt lat="43.57185" lon="3.81698">
        <ele>29</ele>
        <time>2020-10-10T08:15:38.000Z</time>
      </trkpt>
      <trkpt lat="43.57186" lon="3.817">
        <ele>29</ele>
        <time>2020-10-10T08:15:39.000Z</time>
      </trkpt>
      <trkpt lat="43.57188" lon="3.81701">
        <ele>29</ele>
        <time>2020-10-10T08:15:40.000Z</time>
      </trkpt>
      <trkpt lat="43.5719" lon="3.81703">
        <ele>29</ele>
        <time>2020-10-10T08:15:41.000Z</time>
      </trkpt>
      <trkpt lat="43.57192" lon="3.81705">
        <ele>29</ele>
        <time>2020-10-10T08:15:42.000Z</time>
      </trkpt>
      <trkpt lat="43.57194" lon="3.81707">
        <ele>29</ele>
        <time>2020-10-10T08:15:43.000Z</time>
      </trkpt>
      <trkpt lat="43.57196" lon="3.81709">
        <ele>29</ele>
        <time>2020-10-10T08:15:44.000Z</time>
      </trkpt>
      <trkpt lat="43.57198" lon="3.81711">
        <ele>29</ele>
        <time>2020-10-10T08:15:45.000Z</time>
      </trkpt>
      <trkpt lat="43.572" lon="3.81713">
        <ele>29</ele>
        <time>2020-10-10T08:15:46.000Z</time>
      </trkpt>
      <trkpt lat="43.57201" lon="3.81715">
        <ele>29</ele>
        <time>2020-10-10T08:15:47.000Z</time>
      </trkpt>
      <trkpt lat="43.57203" lon="3.81717">
        <ele>29</ele>
        <time>2020-10-10T08:15:48.000Z</time>
      </trkpt>
      <trkpt lat="43.57204" lon="3.81719">
        <ele>29</ele>
        <time>2020-10-10T08:15:49.000Z</time>
      </trkpt>
      <trkpt lat="43.57206" lon="3.81722">
        <ele>29</ele>
        <time>2020-10-10T08:15:50.000Z</time>
      </trkpt>
      <trkpt lat="43.57207" lon="3.81724">
        <ele>29</ele>
        <time>2020-10-10T08:15:51.000Z</time>
      </trkpt>
      <trkpt lat="43.57209" lon="3.81726">
        <ele>29</ele>
        <time>2020-10-10T08:15:52.000Z</time>
      </trkpt>
      <trkpt lat="43.57211" lon="3.81728">
        <ele>29</ele>
        <time>2020-10-10T08:15:53.000Z</time>
      </trkpt>
      <trkpt lat="43.57212" lon="3.81731">
        <ele>29</ele>
        <time>2020-10-10T08:15:54.000Z</time>
      </trkpt>
      <trkpt lat="43.57213" lon="3.81733">
        <ele>29</ele>
        <time>2020-10-10T08:15:55.000Z</time>
      </trkpt>
      <trkpt lat="43.57213" lon="3.81736">
        <ele>29.030155953307</ele>
        <time>2020-10-10T08:15:56.000Z</time>
      </trkpt>
      <trkpt lat="43.57214" lon="3.81738">
        <ele>29.127432217899</ele>
        <time>2020-10-10T08:15:57.000Z</time>
      </trkpt>
      <trkpt lat="43.57215" lon="3.8174">
        <ele>29.22470848249</ele>
        <time>2020-10-10T08:15:58.000Z</time>
      </trkpt>
      <trkpt lat="43.57217" lon="3.81742">
        <ele>29.321984747082</ele>
        <time>2020-10-10T08:15:59.000Z</time>
      </trkpt>
      <trkpt lat="43.57218" lon="3.81744">
        <ele>29.419261011673</ele>
        <time>2020-10-10T08:16:00.000Z</time>
      </trkpt>
      <trkpt lat="43.5722" lon="3.81747">
        <ele>29.613813540856</ele>
        <time>2020-10-10T08:16:02.000Z</time>
      </trkpt>
      <trkpt lat="43.57224" lon="3.8175">
        <ele>29.808366070039</ele>
        <time>2020-10-10T08:16:04.000Z</time>
      </trkpt>
      <trkpt lat="43.57226" lon="3.81751">
        <ele>29.90564233463</ele>
        <time>2020-10-10T08:16:05.000Z</time>
      </trkpt>
      <trkpt lat="43.57228" lon="3.81752">
        <ele>30.003086748971</ele>
        <time>2020-10-10T08:16:06.000Z</time>
      </trkpt>
      <trkpt lat="43.5723" lon="3.81752">
        <ele>30.105967407407</ele>
        <time>2020-10-10T08:16:07.000Z</time>
      </trkpt>
      <trkpt lat="43.57232" lon="3.81752">
        <ele>30.208848065844</ele>
        <time>2020-10-10T08:16:08.000Z</time>
      </trkpt>
      <trkpt lat="43.57234" lon="3.81751">
        <ele>30.31172872428</ele>
        <time>2020-10-10T08:16:09.000Z</time>
      </trkpt>
      <trkpt lat="43.57236" lon="3.81752">
        <ele>30.414609382716</ele>
        <time>2020-10-10T08:16:10.000Z</time>
      </trkpt>
      <trkpt lat="43.57238" lon="3.81754">
        <ele>30.517490041152</ele>
        <time>2020-10-10T08:16:11.000Z</time>
      </trkpt>
      <trkpt lat="43.57239" lon="3.81756">
        <ele>30.620370699588</ele>
        <time>2020-10-10T08:16:12.000Z</time>
      </trkpt>
      <trkpt lat="43.57241" lon="3.81758">
        <ele>30.723251358025</ele>
        <time>2020-10-10T08:16:13.000Z</time>
      </trkpt>
      <trkpt lat="43.57243" lon="3.81759">
        <ele>30.826132016461</ele>
        <time>2020-10-10T08:16:14.000Z</time>
      </trkpt>
      <trkpt lat="43.57245" lon="3.81759">
        <ele>30.929012674897</ele>
        <time>2020-10-10T08:16:15.000Z</time>
      </trkpt>
      <trkpt lat="43.57247" lon="3.8176">
        <ele>31</ele>
        <time>2020-10-10T08:16:16.000Z</time>
      </trkpt>
      <trkpt lat="43.57249" lon="3.81761">
        <ele>31</ele>
        <time>2020-10-10T08:16:17.000Z</time>
      </trkpt>
      <trkpt lat="43.57251" lon="3.81763">
        <ele>31</ele>
        <time>2020-10-10T08:16:18.000Z</time>
      </trkpt>
      <trkpt lat="43.57252" lon="3.81766">
        <ele>31</ele>
        <time>2020-10-10T08:16:20.000Z</time>
      </trkpt>
      <trkpt lat="43.57253" lon="3.81771">
        <ele>31</ele>
        <time>2020-10-10T08:16:22.000Z</time>
      </trkpt>
      <trkpt lat="43.57253" lon="3.81774">
        <ele>31</ele>
        <time>2020-10-10T08:16:23.000Z</time>
      </trkpt>
      <trkpt lat="43.57254" lon="3.81777">
        <ele>31</ele>
        <time>2020-10-10T08:16:24.000Z</time>
      </trkpt>
      <trkpt lat="43.57254" lon="3.8178">
        <ele>31</ele>
        <time>2020-10-10T08:16:25.000Z</time>
      </trkpt>
      <trkpt lat="43.57255" lon="3.81784">
        <ele>31.259332186614</ele>
        <time>2020-10-10T08:16:27.000Z</time>
      </trkpt>
      <trkpt lat="43.57254" lon="3.81788">
        <ele>31.652259742089</ele>
        <time>2020-10-10T08:16:29.000Z</time>
      </trkpt>
      <trkpt lat="43.57254" lon="3.8179">
        <ele>31.848723519826</ele>
        <time>2020-10-10T08:16:30.000Z</time>
      </trkpt>
      <trkpt lat="43.57253" lon="3.81793">
        <ele>32.045187297564</ele>
        <time>2020-10-10T08:16:31.000Z</time>
      </trkpt>
      <trkpt lat="43.57251" lon="3.81794">
        <ele>32.241651075301</ele>
        <time>2020-10-10T08:16:32.000Z</time>
      </trkpt>
      <trkpt lat="43.57249" lon="3.81795">
        <ele>32.438114853039</ele>
        <time>2020-10-10T08:16:33.000Z</time>
      </trkpt>
      <trkpt lat="43.57247" lon="3.81797">
        <ele>32.634578630776</ele>
        <time>2020-10-10T08:16:34.000Z</time>
      </trkpt>
      <trkpt lat="43.57245" lon="3.818">
        <ele>32.831042408514</ele>
        <time>2020-10-10T08:16:35.000Z</time>
      </trkpt>
      <trkpt lat="43.57244" lon="3.81802">
        <ele>33</ele>
        <time>2020-10-10T08:16:36.000Z</time>
      </trkpt>
      <trkpt lat="43.57243" lon="3.81805">
        <ele>33</ele>
        <time>2020-10-10T08:16:37.000Z</time>
      </trkpt>
      <trkpt lat="43.57241" lon="3.81808">
        <ele>33</ele>
        <time>2020-10-10T08:16:38.000Z</time>
      </trkpt>
      <trkpt lat="43.5724" lon="3.81811">
        <ele>33</ele>
        <time>2020-10-10T08:16:39.000Z</time>
      </trkpt>
      <trkpt lat="43.57239" lon="3.81814">
        <ele>33</ele>
        <time>2020-10-10T08:16:40.000Z</time>
      </trkpt>
      <trkpt lat="43.57238" lon="3.81816">
        <ele>33</ele>
        <time>2020-10-10T08:16:41.000Z</time>
      </trkpt>
      <trkpt lat="43.57236" lon="3.81819">
        <ele>33</ele>
        <time>2020-10-10T08:16:42.000Z</time>
      </trkpt>
      <trkpt lat="43.57234" lon="3.81821">
        <ele>33</ele>
        <time>2020-10-10T08:16:43.000Z</time>
      </trkpt>
      <trkpt lat="43.57233" lon="3.81824">
        <ele>33</ele>
        <time>2020-10-10T08:16:44.000Z</time>
      </trkpt>
      <trkpt lat="43.57231" lon="3.81827">
        <ele>33</ele>
        <time>2020-10-10T08:16:45.000Z</time>
      </trkpt>
      <trkpt lat="43.57229" lon="3.81831">
        <ele>33.0263675</ele>
        <time>2020-10-10T08:16:46.000Z</time>
      </trkpt>
      <trkpt lat="43.57227" lon="3.81833">
        <ele>33.12402375</ele>
        <time>2020-10-10T08:16:47.000Z</time>
      </trkpt>
      <trkpt lat="43.57225" lon="3.81836">
        <ele>33.22168</ele>
        <time>2020-10-10T08:16:48.000Z</time>
      </trkpt>
      <trkpt lat="43.57223" lon="3.81839">
        <ele>33.31933625</ele>
        <time>2020-10-10T08:16:49.000Z</time>
      </trkpt>
      <trkpt lat="43.57221" lon="3.81842">
        <ele>33.4169925</ele>
        <time>2020-10-10T08:16:50.000Z</time>
      </trkpt>
      <trkpt lat="43.57219" lon="3.81845">
        <ele>33.51464875</ele>
        <time>2020-10-10T08:16:51.000Z</time>
      </trkpt>
      <trkpt lat="43.57217" lon="3.81848">
        <ele>33.612305</ele>
        <time>2020-10-10T08:16:52.000Z</time>
      </trkpt>
      <trkpt lat="43.57215" lon="3.81851">
        <ele>33.70996125</ele>
        <time>2020-10-10T08:16:53.000Z</time>
      </trkpt>
      <trkpt lat="43.57213" lon="3.81853">
        <ele>33.8076175</ele>
        <time>2020-10-10T08:16:54.000Z</time>
      </trkpt>
      <trkpt lat="43.57211" lon="3.81856">
        <ele>33.90527375</ele>
        <time>2020-10-10T08:16:55.000Z</time>
      </trkpt>
      <trkpt lat="43.57209" lon="3.8186">
        <ele>34</ele>
        <time>2020-10-10T08:16:56.000Z</time>
      </trkpt>
      <trkpt lat="43.57208" lon="3.81863">
        <ele>34</ele>
        <time>2020-10-10T08:16:57.000Z</time>
      </trkpt>
      <trkpt lat="43.57207" lon="3.81866">
        <ele>34</ele>
        <time>2020-10-10T08:16:58.000Z</time>
      </trkpt>
      <trkpt lat="43.57205" lon="3.8187">
        <ele>34</ele>
        <time>2020-10-10T08:16:59.000Z</time>
      </trkpt>
      <trkpt lat="43.57204" lon="3.81873">
        <ele>34</ele>
        <time>2020-10-10T08:17:00.000Z</time>
      </trkpt>
      <trkpt lat="43.57203" lon="3.81877">
        <ele>34</ele>
        <time>2020-10-10T08:17:01.000Z</time>
      </trkpt>
      <trkpt lat="43.57201" lon="3.8188">
        <ele>34</ele>
        <time>2020-10-10T08:17:02.000Z</time>
      </trkpt>
      <trkpt lat="43.57201" lon="3.81884">
        <ele>34</ele>
        <time>2020-10-10T08:17:03.000Z</time>
      </trkpt>
      <trkpt lat="43.572" lon="3.81888">
        <ele>34</ele>
        <time>2020-10-10T08:17:04.000Z</time>
      </trkpt>
      <trkpt lat="43.57199" lon="3.81892">
        <ele>34</ele>
        <time>2020-10-10T08:17:05.000Z</time>
      </trkpt>
      <trkpt lat="43.57198" lon="3.81896">
        <ele>34.032</ele>
        <time>2020-10-10T08:17:06.000Z</time>
      </trkpt>
      <trkpt lat="43.57197" lon="3.819">
        <ele>34.132</ele>
        <time>2020-10-10T08:17:07.000Z</time>
      </trkpt>
      <trkpt lat="43.57196" lon="3.81903">
        <ele>34.232</ele>
        <time>2020-10-10T08:17:08.000Z</time>
      </trkpt>
      <trkpt lat="43.57194" lon="3.81907">
        <ele>34.332</ele>
        <time>2020-10-10T08:17:09.000Z</time>
      </trkpt>
      <trkpt lat="43.57193" lon="3.8191">
        <ele>34.432</ele>
        <time>2020-10-10T08:17:10.000Z</time>
      </trkpt>
      <trkpt lat="43.57191" lon="3.81913">
        <ele>34.532</ele>
        <time>2020-10-10T08:17:11.000Z</time>
      </trkpt>
      <trkpt lat="43.57189" lon="3.81916">
        <ele>34.632</ele>
        <time>2020-10-10T08:17:12.000Z</time>
      </trkpt>
      <trkpt lat="43.57187" lon="3.8192">
        <ele>34.732</ele>
        <time>2020-10-10T08:17:13.000Z</time>
      </trkpt>
      <trkpt lat="43.57186" lon="3.81923">
        <ele>34.832</ele>
        <time>2020-10-10T08:17:14.000Z</time>
      </trkpt>
      <trkpt lat="43.57184" lon="3.81925">
        <ele>34.932</ele>
        <time>2020-10-10T08:17:15.000Z</time>
      </trkpt>
      <trkpt lat="43.57182" lon="3.81928">
        <ele>35.031968042188</ele>
        <time>2020-10-10T08:17:16.000Z</time>
      </trkpt>
      <trkpt lat="43.57179" lon="3.81929">
        <ele>35.131868174024</ele>
        <time>2020-10-10T08:17:17.000Z</time>
      </trkpt>
      <trkpt lat="43.57177" lon="3.8193">
        <ele>35.23176830586</ele>
        <time>2020-10-10T08:17:18.000Z</time>
      </trkpt>
      <trkpt lat="43.57175" lon="3.8193">
        <ele>35.331668437696</ele>
        <time>2020-10-10T08:17:19.000Z</time>
      </trkpt>
      <trkpt lat="43.57173" lon="3.81929">
        <ele>35.431568569532</ele>
        <time>2020-10-10T08:17:20.000Z</time>
      </trkpt>
      <trkpt lat="43.57171" lon="3.81928">
        <ele>35.531468701369</ele>
        <time>2020-10-10T08:17:21.000Z</time>
      </trkpt>
      <trkpt lat="43.57169" lon="3.81927">
        <ele>35.631368833205</ele>
        <time>2020-10-10T08:17:22.000Z</time>
      </trkpt>
      <trkpt lat="43.57166" lon="3.81927">
        <ele>35.731268965041</ele>
        <time>2020-10-10T08:17:23.000Z</time>
      </trkpt>
      <trkpt lat="43.57164" lon="3.81927">
        <ele>35.831169096877</ele>
        <time>2020-10-10T08:17:24.000Z</time>
      </trkpt>
      <trkpt lat="43.57162" lon="3.81928">
        <ele>35.931069228713</ele>
        <time>2020-10-10T08:17:25.000Z</time>
      </trkpt>
      <trkpt lat="43.57159" lon="3.81931">
        <ele>36.030482133485</ele>
        <time>2020-10-10T08:17:26.000Z</time>
      </trkpt>
      <trkpt lat="43.57157" lon="3.81932">
        <ele>36.128810581337</ele>
        <time>2020-10-10T08:17:27.000Z</time>
      </trkpt>
      <trkpt lat="43.57155" lon="3.81934">
        <ele>36.227139029188</ele>
        <time>2020-10-10T08:17:28.000Z</time>
      </trkpt>
      <trkpt lat="43.57153" lon="3.81935">
        <ele>36.32546747704</ele>
        <time>2020-10-10T08:17:29.000Z</time>
      </trkpt>
      <trkpt lat="43.57151" lon="3.81936">
        <ele>36.522124372743</ele>
        <time>2020-10-10T08:17:31.000Z</time>
      </trkpt>
      <trkpt lat="43.57149" lon="3.81937">
        <ele>36.718781268446</ele>
        <time>2020-10-10T08:17:33.000Z</time>
      </trkpt>
      <trkpt lat="43.57146" lon="3.81937">
        <ele>37.014199422832</ele>
        <time>2020-10-10T08:17:36.000Z</time>
      </trkpt>
      <trkpt lat="43.57144" lon="3.81936">
        <ele>37.217039047764</ele>
        <time>2020-10-10T08:17:38.000Z</time>
      </trkpt>
      <trkpt lat="43.57142" lon="3.81938">
        <ele>37.419878672695</ele>
        <time>2020-10-10T08:17:40.000Z</time>
      </trkpt>
      <trkpt lat="43.57145" lon="3.8194">
        <ele>37.724138110093</ele>
        <time>2020-10-10T08:17:43.000Z</time>
      </trkpt>
      <trkpt lat="43.57145" lon="3.81937">
        <ele>38</ele>
        <time>2020-10-10T08:17:46.000Z</time>
      </trkpt>
      <trkpt lat="43.57147" lon="3.81937">
        <ele>38</ele>
        <time>2020-10-10T08:17:56.000Z</time>
      </trkpt>
      <trkpt lat="43.57149" lon="3.81938">
        <ele>38</ele>
        <time>2020-10-10T08:17:59.000Z</time>
      </trkpt>
      <trkpt lat="43.5715" lon="3.81937">
        <ele>38</ele>
        <time>2020-10-10T08:18:01.000Z</time>
      </trkpt>
      <trkpt lat="43.5715" lon="3.81935">
        <ele>38</ele>
        <time>2020-10-10T08:18:05.000Z</time>
      </trkpt>
      <trkpt lat="43.57147" lon="3.81936">
        <ele>38</ele>
        <time>2020-10-10T08:18:07.000Z</time>
      </trkpt>
      <trkpt lat="43.57144" lon="3.81939">
        <ele>38</ele>
        <time>2020-10-10T08:18:09.000Z</time>
      </trkpt>
      <trkpt lat="43.57141" lon="3.8194">
        <ele>38</ele>
        <time>2020-10-10T08:18:10.000Z</time>
      </trkpt>
      <trkpt lat="43.57139" lon="3.81942">
        <ele>38</ele>
        <time>2020-10-10T08:18:11.000Z</time>
      </trkpt>
      <trkpt lat="43.57137" lon="3.81944">
        <ele>38</ele>
        <time>2020-10-10T08:18:12.000Z</time>
      </trkpt>
      <trkpt lat="43.57135" lon="3.81945">
        <ele>38</ele>
        <time>2020-10-10T08:18:13.000Z</time>
      </trkpt>
      <trkpt lat="43.57133" lon="3.81947">
        <ele>38</ele>
        <time>2020-10-10T08:18:14.000Z</time>
      </trkpt>
      <trkpt lat="43.57131" lon="3.81949">
        <ele>38</ele>
        <time>2020-10-10T08:18:15.000Z</time>
      </trkpt>
      <trkpt lat="43.5713" lon="3.81951">
        <ele>38</ele>
        <time>2020-10-10T08:18:16.000Z</time>
      </trkpt>
      <trkpt lat="43.57128" lon="3.81952">
        <ele>38</ele>
        <time>2020-10-10T08:18:17.000Z</time>
      </trkpt>
      <trkpt lat="43.57126" lon="3.81954">
        <ele>38</ele>
        <time>2020-10-10T08:18:18.000Z</time>
      </trkpt>
      <trkpt lat="43.57124" lon="3.81956">
        <ele>38</ele>
        <time>2020-10-10T08:18:19.000Z</time>
      </trkpt>
      <trkpt lat="43.57122" lon="3.81958">
        <ele>38</ele>
        <time>2020-10-10T08:18:20.000Z</time>
      </trkpt>
      <trkpt lat="43.57121" lon="3.81961">
        <ele>38</ele>
        <time>2020-10-10T08:18:21.000Z</time>
      </trkpt>
      <trkpt lat="43.57119" lon="3.81963">
        <ele>38</ele>
        <time>2020-10-10T08:18:22.000Z</time>
      </trkpt>
      <trkpt lat="43.57117" lon="3.81965">
        <ele>38</ele>
        <time>2020-10-10T08:18:23.000Z</time>
      </trkpt>
      <trkpt lat="43.57115" lon="3.81966">
        <ele>38</ele>
        <time>2020-10-10T08:18:24.000Z</time>
      </trkpt>
      <trkpt lat="43.57113" lon="3.81968">
        <ele>38</ele>
        <time>2020-10-10T08:18:25.000Z</time>
      </trkpt>
      <trkpt lat="43.57111" lon="3.8197">
        <ele>38.005138418956</ele>
        <time>2020-10-10T08:18:26.000Z</time>
      </trkpt>
      <trkpt lat="43.5711" lon="3.81973">
        <ele>38.107913375676</ele>
        <time>2020-10-10T08:18:27.000Z</time>
      </trkpt>
      <trkpt lat="43.57108" lon="3.81976">
        <ele>38.210688332395</ele>
        <time>2020-10-10T08:18:28.000Z</time>
      </trkpt>
      <trkpt lat="43.57106" lon="3.81979">
        <ele>38.313463289114</ele>
        <time>2020-10-10T08:18:29.000Z</time>
      </trkpt>
      <trkpt lat="43.57104" lon="3.81981">
        <ele>38.416238245834</ele>
        <time>2020-10-10T08:18:30.000Z</time>
      </trkpt>
      <trkpt lat="43.57102" lon="3.81985">
        <ele>38.519013202553</ele>
        <time>2020-10-10T08:18:31.000Z</time>
      </trkpt>
      <trkpt lat="43.571" lon="3.81988">
        <ele>38.621788159273</ele>
        <time>2020-10-10T08:18:32.000Z</time>
      </trkpt>
      <trkpt lat="43.57098" lon="3.81991">
        <ele>38.724563115992</ele>
        <time>2020-10-10T08:18:33.000Z</time>
      </trkpt>
      <trkpt lat="43.57097" lon="3.81995">
        <ele>38.827338072711</ele>
        <time>2020-10-10T08:18:34.000Z</time>
      </trkpt>
      <trkpt lat="43.57095" lon="3.81998">
        <ele>38.930113029431</ele>
        <time>2020-10-10T08:18:35.000Z</time>
      </trkpt>
      <trkpt lat="43.57094" lon="3.82002">
        <ele>39</ele>
        <time>2020-10-10T08:18:36.000Z</time>
      </trkpt>
      <trkpt lat="43.57092" lon="3.82005">
        <ele>39</ele>
        <time>2020-10-10T08:18:37.000Z</time>
      </trkpt>
      <trkpt lat="43.57091" lon="3.82009">
        <ele>39</ele>
        <time>2020-10-10T08:18:38.000Z</time>
      </trkpt>
      <trkpt lat="43.5709" lon="3.82012">
        <ele>39</ele>
        <time>2020-10-10T08:18:39.000Z</time>
      </trkpt>
      <trkpt lat="43.57088" lon="3.82016">
        <ele>39</ele>
        <time>2020-10-10T08:18:40.000Z</time>
      </trkpt>
      <trkpt lat="43.57086" lon="3.8202">
        <ele>39</ele>
        <time>2020-10-10T08:18:41.000Z</time>
      </trkpt>
      <trkpt lat="43.57085" lon="3.82023">
        <ele>39</ele>
        <time>2020-10-10T08:18:42.000Z</time>
      </trkpt>
      <trkpt lat="43.57083" lon="3.82027">
        <ele>39</ele>
        <time>2020-10-10T08:18:43.000Z</time>
      </trkpt>
      <trkpt lat="43.57081" lon="3.8203">
        <ele>39</ele>
        <time>2020-10-10T08:18:44.000Z</time>
      </trkpt>
      <trkpt lat="43.57078" lon="3.82033">
        <ele>39</ele>
        <time>2020-10-10T08:18:45.000Z</time>
      </trkpt>
      <trkpt lat="43.57076" lon="3.82036">
        <ele>39</ele>
        <time>2020-10-10T08:18:46.000Z</time>
      </trkpt>
      <trkpt lat="43.57073" lon="3.82039">
        <ele>39</ele>
        <time>2020-10-10T08:18:47.000Z</time>
      </trkpt>
      <trkpt lat="43.57071" lon="3.82042">
        <ele>39</ele>
        <time>2020-10-10T08:18:48.000Z</time>
      </trkpt>
      <trkpt lat="43.57068" lon="3.82045">
        <ele>39</ele>
        <time>2020-10-10T08:18:49.000Z</time>
      </trkpt>
      <trkpt lat="43.57065" lon="3.82048">
        <ele>39</ele>
        <time>2020-10-10T08:18:50.000Z</time>
      </trkpt>
      <trkpt lat="43.57062" lon="3.8205">
        <ele>39</ele>
        <time>2020-10-10T08:18:51.000Z</time>
      </trkpt>
      <trkpt lat="43.57059" lon="3.82053">
        <ele>39</ele>
        <time>2020-10-10T08:18:52.000Z</time>
      </trkpt>
      <trkpt lat="43.57055" lon="3.82055">
        <ele>39</ele>
        <time>2020-10-10T08:18:53.000Z</time>
      </trkpt>
      <trkpt lat="43.57052" lon="3.82058">
        <ele>39</ele>
        <time>2020-10-10T08:18:54.000Z</time>
      </trkpt>
      <trkpt lat="43.57049" lon="3.8206">
        <ele>39</ele>
        <time>2020-10-10T08:18:55.000Z</time>
      </trkpt>
      <trkpt lat="43.57046" lon="3.82062">
        <ele>39.031031341411</ele>
        <time>2020-10-10T08:18:56.000Z</time>
      </trkpt>
      <trkpt lat="43.57043" lon="3.82064">
        <ele>39.131131409447</ele>
        <time>2020-10-10T08:18:57.000Z</time>
      </trkpt>
      <trkpt lat="43.5704" lon="3.82065">
        <ele>39.231231477483</ele>
        <time>2020-10-10T08:18:58.000Z</time>
      </trkpt>
      <trkpt lat="43.57038" lon="3.82067">
        <ele>39.331331545519</ele>
        <time>2020-10-10T08:18:59.000Z</time>
      </trkpt>
      <trkpt lat="43.57035" lon="3.82069">
        <ele>39.431431613555</ele>
        <time>2020-10-10T08:19:00.000Z</time>
      </trkpt>
      <trkpt lat="43.57031" lon="3.82071">
        <ele>39.531531681592</ele>
        <time>2020-10-10T08:19:01.000Z</time>
      </trkpt>
      <trkpt lat="43.57028" lon="3.82074">
        <ele>39.631631749628</ele>
        <time>2020-10-10T08:19:02.000Z</time>
      </trkpt>
      <trkpt lat="43.57025" lon="3.82076">
        <ele>39.731731817664</ele>
        <time>2020-10-10T08:19:03.000Z</time>
      </trkpt>
      <trkpt lat="43.57021" lon="3.82078">
        <ele>39.8318318857</ele>
        <time>2020-10-10T08:19:04.000Z</time>
      </trkpt>
      <trkpt lat="43.57018" lon="3.8208">
        <ele>39.931931953735</ele>
        <time>2020-10-10T08:19:05.000Z</time>
      </trkpt>
      <trkpt lat="43.57016" lon="3.82082">
        <ele>40</ele>
        <time>2020-10-10T08:19:06.000Z</time>
      </trkpt>
      <trkpt lat="43.57013" lon="3.82084">
        <ele>40</ele>
        <time>2020-10-10T08:19:07.000Z</time>
      </trkpt>
      <trkpt lat="43.5701" lon="3.82086">
        <ele>40</ele>
        <time>2020-10-10T08:19:08.000Z</time>
      </trkpt>
      <trkpt lat="43.57007" lon="3.82088">
        <ele>40</ele>
        <time>2020-10-10T08:19:09.000Z</time>
      </trkpt>
      <trkpt lat="43.57004" lon="3.8209">
        <ele>40</ele>
        <time>2020-10-10T08:19:10.000Z</time>
      </trkpt>
      <trkpt lat="43.57001" lon="3.82093">
        <ele>40</ele>
        <time>2020-10-10T08:19:11.000Z</time>
      </trkpt>
      <trkpt lat="43.56998" lon="3.82096">
        <ele>40</ele>
        <time>2020-10-10T08:19:12.000Z</time>
      </trkpt>
      <trkpt lat="43.56995" lon="3.82099">
        <ele>40</ele>
        <time>2020-10-10T08:19:13.000Z</time>
      </trkpt>
      <trkpt lat="43.56992" lon="3.82103">
        <ele>40</ele>
        <time>2020-10-10T08:19:14.000Z</time>
      </trkpt>
      <trkpt lat="43.56989" lon="3.82106">
        <ele>40</ele>
        <time>2020-10-10T08:19:15.000Z</time>
      </trkpt>
      <trkpt lat="43.56986" lon="3.8211">
        <ele>40</ele>
        <time>2020-10-10T08:19:16.000Z</time>
      </trkpt>
      <trkpt lat="43.56983" lon="3.82114">
        <ele>40</ele>
        <time>2020-10-10T08:19:17.000Z</time>
      </trkpt>
      <trkpt lat="43.56981" lon="3.82118">
        <ele>40</ele>
        <time>2020-10-10T08:19:18.000Z</time>
      </trkpt>
      <trkpt lat="43.56978" lon="3.82122">
        <ele>40</ele>
        <time>2020-10-10T08:19:19.000Z</time>
      </trkpt>
      <trkpt lat="43.56976" lon="3.82126">
        <ele>40</ele>
        <time>2020-10-10T08:19:20.000Z</time>
      </trkpt>
      <trkpt lat="43.56973" lon="3.82131">
        <ele>40</ele>
        <time>2020-10-10T08:19:21.000Z</time>
      </trkpt>
      <trkpt lat="43.5697" lon="3.82134">
        <ele>40</ele>
        <time>2020-10-10T08:19:22.000Z</time>
      </trkpt>
      <trkpt lat="43.56968" lon="3.82138">
        <ele>40</ele>
        <time>2020-10-10T08:19:23.000Z</time>
      </trkpt>
      <trkpt lat="43.56966" lon="3.82142">
        <ele>40</ele>
        <time>2020-10-10T08:19:24.000Z</time>
      </trkpt>
      <trkpt lat="43.56963" lon="3.82145">
        <ele>40</ele>
        <time>2020-10-10T08:19:25.000Z</time>
      </trkpt>
      <trkpt lat="43.56961" lon="3.82149">
        <ele>40.030693366689</ele>
        <time>2020-10-10T08:19:26.000Z</time>
      </trkpt>
      <trkpt lat="43.56959" lon="3.82153">
        <ele>40.12970320494</ele>
        <time>2020-10-10T08:19:27.000Z</time>
      </trkpt>
      <trkpt lat="43.56958" lon="3.82157">
        <ele>40.228713043192</ele>
        <time>2020-10-10T08:19:28.000Z</time>
      </trkpt>
      <trkpt lat="43.56956" lon="3.82161">
        <ele>40.327722881443</ele>
        <time>2020-10-10T08:19:29.000Z</time>
      </trkpt>
      <trkpt lat="43.56953" lon="3.82163">
        <ele>40.426732719694</ele>
        <time>2020-10-10T08:19:30.000Z</time>
      </trkpt>
      <trkpt lat="43.5695" lon="3.82165">
        <ele>40.525742557945</ele>
        <time>2020-10-10T08:19:31.000Z</time>
      </trkpt>
      <trkpt lat="43.56947" lon="3.82164">
        <ele>40.624752396196</ele>
        <time>2020-10-10T08:19:32.000Z</time>
      </trkpt>
      <trkpt lat="43.56945" lon="3.82163">
        <ele>40.723762234448</ele>
        <time>2020-10-10T08:19:33.000Z</time>
      </trkpt>
      <trkpt lat="43.56943" lon="3.8216">
        <ele>40.822772072699</ele>
        <time>2020-10-10T08:19:34.000Z</time>
      </trkpt>
      <trkpt lat="43.5694" lon="3.82157">
        <ele>40.92178191095</ele>
        <time>2020-10-10T08:19:35.000Z</time>
      </trkpt>
      <trkpt lat="43.56937" lon="3.82155">
        <ele>41.021211811693</ele>
        <time>2020-10-10T08:19:36.000Z</time>
      </trkpt>
      <trkpt lat="43.56935" lon="3.82152">
        <ele>41.122221978002</ele>
        <time>2020-10-10T08:19:37.000Z</time>
      </trkpt>
      <trkpt lat="43.56932" lon="3.82149">
        <ele>41.223232144312</ele>
        <time>2020-10-10T08:19:38.000Z</time>
      </trkpt>
      <trkpt lat="43.5693" lon="3.82147">
        <ele>41.324242310621</ele>
        <time>2020-10-10T08:19:39.000Z</time>
      </trkpt>
      <trkpt lat="43.56928" lon="3.82145">
        <ele>41.425252476931</ele>
        <time>2020-10-10T08:19:40.000Z</time>
      </trkpt>
      <trkpt lat="43.56926" lon="3.82144">
        <ele>41.52626264324</ele>
        <time>2020-10-10T08:19:41.000Z</time>
      </trkpt>
      <trkpt lat="43.56924" lon="3.82142">
        <ele>41.72828297586</ele>
        <time>2020-10-10T08:19:43.000Z</time>
      </trkpt>
      <trkpt lat="43.56922" lon="3.8214">
        <ele>42</ele>
        <time>2020-10-10T08:19:46.000Z</time>
      </trkpt>
      <trkpt lat="43.56922" lon="3.82136">
        <ele>42</ele>
        <time>2020-10-10T08:19:48.000Z</time>
      </trkpt>
      <trkpt lat="43.56923" lon="3.82131">
        <ele>42</ele>
        <time>2020-10-10T08:19:50.000Z</time>
      </trkpt>
      <trkpt lat="43.56923" lon="3.82128">
        <ele>42</ele>
        <time>2020-10-10T08:19:51.000Z</time>
      </trkpt>
      <trkpt lat="43.56923" lon="3.82123">
        <ele>42</ele>
        <time>2020-10-10T08:19:53.000Z</time>
      </trkpt>
      <trkpt lat="43.56923" lon="3.82121">
        <ele>42</ele>
        <time>2020-10-10T08:19:54.000Z</time>
      </trkpt>
      <trkpt lat="43.56923" lon="3.82117">
        <ele>42</ele>
        <time>2020-10-10T08:19:56.000Z</time>
      </trkpt>
      <trkpt lat="43.56924" lon="3.82112">
        <ele>42</ele>
        <time>2020-10-10T08:19:58.000Z</time>
      </trkpt>
      <trkpt lat="43.56924" lon="3.8211">
        <ele>42</ele>
        <time>2020-10-10T08:19:59.000Z</time>
      </trkpt>
      <trkpt lat="43.56924" lon="3.82107">
        <ele>42</ele>
        <time>2020-10-10T08:20:00.000Z</time>
      </trkpt>
      <trkpt lat="43.56924" lon="3.82104">
        <ele>42</ele>
        <time>2020-10-10T08:20:01.000Z</time>
      </trkpt>
      <trkpt lat="43.56924" lon="3.82101">
        <ele>42</ele>
        <time>2020-10-10T08:20:02.000Z</time>
      </trkpt>
      <trkpt lat="43.56924" lon="3.82098">
        <ele>42</ele>
        <time>2020-10-10T08:20:03.000Z</time>
      </trkpt>
      <trkpt lat="43.56924" lon="3.82094">
        <ele>42</ele>
        <time>2020-10-10T08:20:04.000Z</time>
      </trkpt>
      <trkpt lat="43.56923" lon="3.8209">
        <ele>42</ele>
        <time>2020-10-10T08:20:05.000Z</time>
      </trkpt>
      <trkpt lat="43.56922" lon="3.82086">
        <ele>41.997940924844</ele>
        <time>2020-10-10T08:20:06.000Z</time>
      </trkpt>
      <trkpt lat="43.56922" lon="3.82081">
        <ele>41.894954211283</ele>
        <time>2020-10-10T08:20:07.000Z</time>
      </trkpt>
      <trkpt lat="43.56921" lon="3.82077">
        <ele>41.791967497723</ele>
        <time>2020-10-10T08:20:08.000Z</time>
      </trkpt>
      <trkpt lat="43.5692" lon="3.82073">
        <ele>41.688980784162</ele>
        <time>2020-10-10T08:20:09.000Z</time>
      </trkpt>
      <trkpt lat="43.5692" lon="3.82068">
        <ele>41.585994070602</ele>
        <time>2020-10-10T08:20:10.000Z</time>
      </trkpt>
      <trkpt lat="43.56919" lon="3.82063">
        <ele>41.483007357041</ele>
        <time>2020-10-10T08:20:11.000Z</time>
      </trkpt>
      <trkpt lat="43.56918" lon="3.82058">
        <ele>41.380020643481</ele>
        <time>2020-10-10T08:20:12.000Z</time>
      </trkpt>
      <trkpt lat="43.56917" lon="3.82054">
        <ele>41.27703392992</ele>
        <time>2020-10-10T08:20:13.000Z</time>
      </trkpt>
      <trkpt lat="43.56916" lon="3.82049">
        <ele>41.17404721636</ele>
        <time>2020-10-10T08:20:14.000Z</time>
      </trkpt>
      <trkpt lat="43.56915" lon="3.82044">
        <ele>41.071060502799</ele>
        <time>2020-10-10T08:20:15.000Z</time>
      </trkpt>
      <trkpt lat="43.56915" lon="3.8204">
        <ele>41</ele>
        <time>2020-10-10T08:20:16.000Z</time>
      </trkpt>
      <trkpt lat="43.56914" lon="3.82035">
        <ele>41</ele>
        <time>2020-10-10T08:20:17.000Z</time>
      </trkpt>
      <trkpt lat="43.56914" lon="3.82031">
        <ele>41</ele>
        <time>2020-10-10T08:20:18.000Z</time>
      </trkpt>
      <trkpt lat="43.56913" lon="3.82027">
        <ele>41</ele>
        <time>2020-10-10T08:20:19.000Z</time>
      </trkpt>
      <trkpt lat="43.56912" lon="3.82022">
        <ele>41</ele>
        <time>2020-10-10T08:20:20.000Z</time>
      </trkpt>
      <trkpt lat="43.56911" lon="3.82018">
        <ele>41</ele>
        <time>2020-10-10T08:20:21.000Z</time>
      </trkpt>
      <trkpt lat="43.56911" lon="3.82014">
        <ele>41</ele>
        <time>2020-10-10T08:20:22.000Z</time>
      </trkpt>
      <trkpt lat="43.5691" lon="3.8201">
        <ele>41</ele>
        <time>2020-10-10T08:20:23.000Z</time>
      </trkpt>
      <trkpt lat="43.56909" lon="3.82006">
        <ele>41</ele>
        <time>2020-10-10T08:20:24.000Z</time>
      </trkpt>
      <trkpt lat="43.56908" lon="3.82003">
        <ele>41</ele>
        <time>2020-10-10T08:20:25.000Z</time>
      </trkpt>
      <trkpt lat="43.56907" lon="3.81999">
        <ele>41</ele>
        <time>2020-10-10T08:20:26.000Z</time>
      </trkpt>
      <trkpt lat="43.56907" lon="3.81995">
        <ele>41</ele>
        <time>2020-10-10T08:20:27.000Z</time>
      </trkpt>
      <trkpt lat="43.56906" lon="3.81992">
        <ele>41</ele>
        <time>2020-10-10T08:20:28.000Z</time>
      </trkpt>
      <trkpt lat="43.56906" lon="3.81989">
        <ele>41</ele>
        <time>2020-10-10T08:20:29.000Z</time>
      </trkpt>
      <trkpt lat="43.56905" lon="3.81985">
        <ele>41</ele>
        <time>2020-10-10T08:20:30.000Z</time>
      </trkpt>
      <trkpt lat="43.56905" lon="3.81982">
        <ele>41</ele>
        <time>2020-10-10T08:20:31.000Z</time>
      </trkpt>
      <trkpt lat="43.56904" lon="3.81979">
        <ele>41</ele>
        <time>2020-10-10T08:20:32.000Z</time>
      </trkpt>
      <trkpt lat="43.56904" lon="3.81976">
        <ele>41</ele>
        <time>2020-10-10T08:20:33.000Z</time>
      </trkpt>
      <trkpt lat="43.56904" lon="3.81978">
        <ele>41</ele>
        <time>2020-10-10T08:20:41.000Z</time>
      </trkpt>
      <trkpt lat="43.56903" lon="3.81969">
        <ele>40.009442873486</ele>
        <time>2020-10-10T08:21:02.000Z</time>
      </trkpt>
      <trkpt lat="43.56903" lon="3.81966">
        <ele>40</ele>
        <time>2020-10-10T08:21:04.000Z</time>
      </trkpt>
      <trkpt lat="43.56903" lon="3.81966">
        <ele>39.997745208568</ele>
        <time>2020-10-10T08:21:09.000Z</time>
      </trkpt>
      <trkpt lat="43.56906" lon="3.81963">
        <ele>39.011273957159</ele>
        <time>2020-10-10T08:21:44.000Z</time>
      </trkpt>
      <trkpt lat="43.56907" lon="3.81966">
        <ele>39.063646493671</ele>
        <time>2020-10-10T08:21:45.000Z</time>
      </trkpt>
      <trkpt lat="43.56907" lon="3.81969">
        <ele>39.171521321589</ele>
        <time>2020-10-10T08:21:46.000Z</time>
      </trkpt>
      <trkpt lat="43.56906" lon="3.81972">
        <ele>39.279396149507</ele>
        <time>2020-10-10T08:21:47.000Z</time>
      </trkpt>
      <trkpt lat="43.56904" lon="3.81974">
        <ele>39.387270977425</ele>
        <time>2020-10-10T08:21:48.000Z</time>
      </trkpt>
      <trkpt lat="43.56904" lon="3.81978">
        <ele>39.603020633262</ele>
        <time>2020-10-10T08:21:50.000Z</time>
      </trkpt>
      <trkpt lat="43.56905" lon="3.81983">
        <ele>39.818770289098</ele>
        <time>2020-10-10T08:21:52.000Z</time>
      </trkpt>
      <trkpt lat="43.56905" lon="3.81986">
        <ele>39.926645117016</ele>
        <time>2020-10-10T08:21:53.000Z</time>
      </trkpt>
      <trkpt lat="43.56905" lon="3.81989">
        <ele>40</ele>
        <time>2020-10-10T08:21:54.000Z</time>
      </trkpt>
      <trkpt lat="43.56906" lon="3.81992">
        <ele>40</ele>
        <time>2020-10-10T08:21:55.000Z</time>
      </trkpt>
      <trkpt lat="43.56907" lon="3.81996">
        <ele>40</ele>
        <time>2020-10-10T08:21:56.000Z</time>
      </trkpt>
      <trkpt lat="43.56907" lon="3.81999">
        <ele>40</ele>
        <time>2020-10-10T08:21:57.000Z</time>
      </trkpt>
      <trkpt lat="43.56908" lon="3.82003">
        <ele>40</ele>
        <time>2020-10-10T08:21:58.000Z</time>
      </trkpt>
      <trkpt lat="43.56909" lon="3.82007">
        <ele>40</ele>
        <time>2020-10-10T08:21:59.000Z</time>
      </trkpt>
      <trkpt lat="43.56909" lon="3.82011">
        <ele>40</ele>
        <time>2020-10-10T08:22:00.000Z</time>
      </trkpt>
      <trkpt lat="43.5691" lon="3.82015">
        <ele>40</ele>
        <time>2020-10-10T08:22:01.000Z</time>
      </trkpt>
      <trkpt lat="43.56911" lon="3.82019">
        <ele>40</ele>
        <time>2020-10-10T08:22:02.000Z</time>
      </trkpt>
      <trkpt lat="43.56912" lon="3.82023">
        <ele>40</ele>
        <time>2020-10-10T08:22:03.000Z</time>
      </trkpt>
      <trkpt lat="43.56912" lon="3.82027">
        <ele>40</ele>
        <time>2020-10-10T08:22:04.000Z</time>
      </trkpt>
      <trkpt lat="43.56913" lon="3.82031">
        <ele>40</ele>
        <time>2020-10-10T08:22:05.000Z</time>
      </trkpt>
      <trkpt lat="43.56914" lon="3.82036">
        <ele>40</ele>
        <time>2020-10-10T08:22:06.000Z</time>
      </trkpt>
      <trkpt lat="43.56915" lon="3.8204">
        <ele>40</ele>
        <time>2020-10-10T08:22:07.000Z</time>
      </trkpt>
      <trkpt lat="43.56915" lon="3.82044">
        <ele>40</ele>
        <time>2020-10-10T08:22:08.000Z</time>
      </trkpt>
      <trkpt lat="43.56916" lon="3.82049">
        <ele>40</ele>
        <time>2020-10-10T08:22:09.000Z</time>
      </trkpt>
      <trkpt lat="43.56917" lon="3.82053">
        <ele>40</ele>
        <time>2020-10-10T08:22:10.000Z</time>
      </trkpt>
      <trkpt lat="43.56918" lon="3.82057">
        <ele>40</ele>
        <time>2020-10-10T08:22:11.000Z</time>
      </trkpt>
      <trkpt lat="43.56919" lon="3.82061">
        <ele>40</ele>
        <time>2020-10-10T08:22:12.000Z</time>
      </trkpt>
      <trkpt lat="43.56919" lon="3.82066">
        <ele>40</ele>
        <time>2020-10-10T08:22:13.000Z</time>
      </trkpt>
      <trkpt lat="43.5692" lon="3.8207">
        <ele>40.03100032</ele>
        <time>2020-10-10T08:22:14.000Z</time>
      </trkpt>
      <trkpt lat="43.56921" lon="3.82075">
        <ele>40.13100032</ele>
        <time>2020-10-10T08:22:15.000Z</time>
      </trkpt>
      <trkpt lat="43.56922" lon="3.82079">
        <ele>40.23100032</ele>
        <time>2020-10-10T08:22:16.000Z</time>
      </trkpt>
      <trkpt lat="43.56923" lon="3.82084">
        <ele>40.33100032</ele>
        <time>2020-10-10T08:22:17.000Z</time>
      </trkpt>
      <trkpt lat="43.56924" lon="3.82089">
        <ele>40.43100032</ele>
        <time>2020-10-10T08:22:18.000Z</time>
      </trkpt>
      <trkpt lat="43.56924" lon="3.82093">
        <ele>40.53100032</ele>
        <time>2020-10-10T08:22:19.000Z</time>
      </trkpt>
      <trkpt lat="43.56925" lon="3.82098">
        <ele>40.63100032</ele>
        <time>2020-10-10T08:22:20.000Z</time>
      </trkpt>
      <trkpt lat="43.56925" lon="3.82103">
        <ele>40.73100032</ele>
        <time>2020-10-10T08:22:21.000Z</time>
      </trkpt>
      <trkpt lat="43.56925" lon="3.82107">
        <ele>40.83100032</ele>
        <time>2020-10-10T08:22:22.000Z</time>
      </trkpt>
      <trkpt lat="43.56925" lon="3.82112">
        <ele>40.93100032</ele>
        <time>2020-10-10T08:22:23.000Z</time>
      </trkpt>
      <trkpt lat="43.56925" lon="3.82117">
        <ele>41</ele>
        <time>2020-10-10T08:22:24.000Z</time>
      </trkpt>
      <trkpt lat="43.56924" lon="3.82122">
        <ele>41</ele>
        <time>2020-10-10T08:22:25.000Z</time>
      </trkpt>
      <trkpt lat="43.56924" lon="3.82127">
        <ele>41</ele>
        <time>2020-10-10T08:22:26.000Z</time>
      </trkpt>
      <trkpt lat="43.56923" lon="3.82132">
        <ele>41</ele>
        <time>2020-10-10T08:22:27.000Z</time>
      </trkpt>
      <trkpt lat="43.56922" lon="3.82137">
        <ele>41</ele>
        <time>2020-10-10T08:22:28.000Z</time>
      </trkpt>
      <trkpt lat="43.56921" lon="3.82141">
        <ele>41</ele>
        <time>2020-10-10T08:22:29.000Z</time>
      </trkpt>
      <trkpt lat="43.5692" lon="3.82145">
        <ele>41</ele>
        <time>2020-10-10T08:22:30.000Z</time>
      </trkpt>
      <trkpt lat="43.56918" lon="3.82149">
        <ele>41</ele>
        <time>2020-10-10T08:22:31.000Z</time>
      </trkpt>
      <trkpt lat="43.56917" lon="3.82152">
        <ele>41</ele>
        <time>2020-10-10T08:22:32.000Z</time>
      </trkpt>
      <trkpt lat="43.56915" lon="3.82156">
        <ele>41</ele>
        <time>2020-10-10T08:22:33.000Z</time>
      </trkpt>
      <trkpt lat="43.56914" lon="3.8216">
        <ele>41.03100032</ele>
        <time>2020-10-10T08:22:34.000Z</time>
      </trkpt>
      <trkpt lat="43.56912" lon="3.82164">
        <ele>41.13100032</ele>
        <time>2020-10-10T08:22:35.000Z</time>
      </trkpt>
      <trkpt lat="43.5691" lon="3.82168">
        <ele>41.23100032</ele>
        <time>2020-10-10T08:22:36.000Z</time>
      </trkpt>
      <trkpt lat="43.56908" lon="3.82172">
        <ele>41.33100032</ele>
        <time>2020-10-10T08:22:37.000Z</time>
      </trkpt>
      <trkpt lat="43.56907" lon="3.82176">
        <ele>41.43100032</ele>
        <time>2020-10-10T08:22:38.000Z</time>
      </trkpt>
      <trkpt lat="43.56905" lon="3.82181">
        <ele>41.53100032</ele>
        <time>2020-10-10T08:22:39.000Z</time>
      </trkpt>
      <trkpt lat="43.56903" lon="3.82186">
        <ele>41.63100032</ele>
        <time>2020-10-10T08:22:40.000Z</time>
      </trkpt>
      <trkpt lat="43.56901" lon="3.82191">
        <ele>41.73100032</ele>
        <time>2020-10-10T08:22:41.000Z</time>
      </trkpt>
      <trkpt lat="43.569" lon="3.82195">
        <ele>41.83100032</ele>
        <time>2020-10-10T08:22:42.000Z</time>
      </trkpt>
      <trkpt lat="43.56899" lon="3.82198">
        <ele>41.93100032</ele>
        <time>2020-10-10T08:22:43.000Z</time>
      </trkpt>
      <trkpt lat="43.56898" lon="3.82202">
        <ele>42</ele>
        <time>2020-10-10T08:22:44.000Z</time>
      </trkpt>
      <trkpt lat="43.56896" lon="3.82204">
        <ele>42</ele>
        <time>2020-10-10T08:22:45.000Z</time>
      </trkpt>
      <trkpt lat="43.56894" lon="3.82206">
        <ele>42</ele>
        <time>2020-10-10T08:22:46.000Z</time>
      </trkpt>
      <trkpt lat="43.56892" lon="3.82206">
        <ele>42</ele>
        <time>2020-10-10T08:22:47.000Z</time>
      </trkpt>
      <trkpt lat="43.56889" lon="3.82206">
        <ele>42</ele>
        <time>2020-10-10T08:22:48.000Z</time>
      </trkpt>
      <trkpt lat="43.56886" lon="3.82205">
        <ele>42</ele>
        <time>2020-10-10T08:22:49.000Z</time>
      </trkpt>
      <trkpt lat="43.56883" lon="3.82203">
        <ele>42</ele>
        <time>2020-10-10T08:22:50.000Z</time>
      </trkpt>
      <trkpt lat="43.56881" lon="3.822">
        <ele>42</ele>
        <time>2020-10-10T08:22:51.000Z</time>
      </trkpt>
      <trkpt lat="43.56879" lon="3.82198">
        <ele>42</ele>
        <time>2020-10-10T08:22:52.000Z</time>
      </trkpt>
      <trkpt lat="43.56876" lon="3.82195">
        <ele>42</ele>
        <time>2020-10-10T08:22:53.000Z</time>
      </trkpt>
      <trkpt lat="43.56874" lon="3.82192">
        <ele>42</ele>
        <time>2020-10-10T08:22:54.000Z</time>
      </trkpt>
      <trkpt lat="43.56871" lon="3.8219">
        <ele>42</ele>
        <time>2020-10-10T08:22:55.000Z</time>
      </trkpt>
      <trkpt lat="43.56869" lon="3.82188">
        <ele>42</ele>
        <time>2020-10-10T08:22:56.000Z</time>
      </trkpt>
      <trkpt lat="43.56866" lon="3.82186">
        <ele>42</ele>
        <time>2020-10-10T08:22:57.000Z</time>
      </trkpt>
      <trkpt lat="43.56864" lon="3.82185">
        <ele>42</ele>
        <time>2020-10-10T08:22:58.000Z</time>
      </trkpt>
      <trkpt lat="43.56861" lon="3.82185">
        <ele>42</ele>
        <time>2020-10-10T08:22:59.000Z</time>
      </trkpt>
      <trkpt lat="43.56859" lon="3.82184">
        <ele>42</ele>
        <time>2020-10-10T08:23:00.000Z</time>
      </trkpt>
      <trkpt lat="43.56857" lon="3.82182">
        <ele>42</ele>
        <time>2020-10-10T08:23:01.000Z</time>
      </trkpt>
      <trkpt lat="43.56856" lon="3.82179">
        <ele>42</ele>
        <time>2020-10-10T08:23:02.000Z</time>
      </trkpt>
      <trkpt lat="43.56855" lon="3.82177">
        <ele>42</ele>
        <time>2020-10-10T08:23:03.000Z</time>
      </trkpt>
      <trkpt lat="43.56853" lon="3.82174">
        <ele>42</ele>
        <time>2020-10-10T08:23:04.000Z</time>
      </trkpt>
      <trkpt lat="43.56851" lon="3.82171">
        <ele>42</ele>
        <time>2020-10-10T08:23:05.000Z</time>
      </trkpt>
      <trkpt lat="43.56849" lon="3.82168">
        <ele>42</ele>
        <time>2020-10-10T08:23:06.000Z</time>
      </trkpt>
      <trkpt lat="43.56847" lon="3.82165">
        <ele>42</ele>
        <time>2020-10-10T08:23:07.000Z</time>
      </trkpt>
      <trkpt lat="43.56845" lon="3.82162">
        <ele>42</ele>
        <time>2020-10-10T08:23:08.000Z</time>
      </trkpt>
      <trkpt lat="43.56843" lon="3.82159">
        <ele>42</ele>
        <time>2020-10-10T08:23:09.000Z</time>
      </trkpt>
      <trkpt lat="43.56841" lon="3.82157">
        <ele>42</ele>
        <time>2020-10-10T08:23:10.000Z</time>
      </trkpt>
      <trkpt lat="43.56839" lon="3.82157">
        <ele>42</ele>
        <time>2020-10-10T08:23:11.000Z</time>
      </trkpt>
      <trkpt lat="43.56836" lon="3.82157">
        <ele>42</ele>
        <time>2020-10-10T08:23:12.000Z</time>
      </trkpt>
      <trkpt lat="43.56833" lon="3.82158">
        <ele>42</ele>
        <time>2020-10-10T08:23:13.000Z</time>
      </trkpt>
      <trkpt lat="43.56831" lon="3.82157">
        <ele>42</ele>
        <time>2020-10-10T08:23:14.000Z</time>
      </trkpt>
      <trkpt lat="43.56829" lon="3.82155">
        <ele>42</ele>
        <time>2020-10-10T08:23:15.000Z</time>
      </trkpt>
      <trkpt lat="43.56826" lon="3.82152">
        <ele>42</ele>
        <time>2020-10-10T08:23:16.000Z</time>
      </trkpt>
      <trkpt lat="43.56824" lon="3.82151">
        <ele>42</ele>
        <time>2020-10-10T08:23:17.000Z</time>
      </trkpt>
      <trkpt lat="43.56821" lon="3.8215">
        <ele>42</ele>
        <time>2020-10-10T08:23:18.000Z</time>
      </trkpt>
      <trkpt lat="43.56818" lon="3.82149">
        <ele>42</ele>
        <time>2020-10-10T08:23:19.000Z</time>
      </trkpt>
      <trkpt lat="43.56815" lon="3.82148">
        <ele>42</ele>
        <time>2020-10-10T08:23:20.000Z</time>
      </trkpt>
      <trkpt lat="43.56813" lon="3.82146">
        <ele>42</ele>
        <time>2020-10-10T08:23:21.000Z</time>
      </trkpt>
      <trkpt lat="43.56811" lon="3.82144">
        <ele>42</ele>
        <time>2020-10-10T08:23:22.000Z</time>
      </trkpt>
      <trkpt lat="43.56809" lon="3.82143">
        <ele>42</ele>
        <time>2020-10-10T08:23:23.000Z</time>
      </trkpt>
      <trkpt lat="43.56806" lon="3.82141">
        <ele>42.131736611089</ele>
        <time>2020-10-10T08:23:25.000Z</time>
      </trkpt>
      <trkpt lat="43.56804" lon="3.82139">
        <ele>42.331337536982</ele>
        <time>2020-10-10T08:23:27.000Z</time>
      </trkpt>
      <trkpt lat="43.56801" lon="3.82137">
        <ele>42.530938462875</ele>
        <time>2020-10-10T08:23:29.000Z</time>
      </trkpt>
      <trkpt lat="43.568" lon="3.82136">
        <ele>42.93014031466</ele>
        <time>2020-10-10T08:23:33.000Z</time>
      </trkpt>
      <trkpt lat="43.56798" lon="3.82134">
        <ele>43.330330865159</ele>
        <time>2020-10-10T08:23:37.000Z</time>
      </trkpt>
      <trkpt lat="43.56795" lon="3.82132">
        <ele>43.530531001231</ele>
        <time>2020-10-10T08:23:39.000Z</time>
      </trkpt>
      <trkpt lat="43.56793" lon="3.82131">
        <ele>43.630631069267</ele>
        <time>2020-10-10T08:23:40.000Z</time>
      </trkpt>
      <trkpt lat="43.56792" lon="3.82128">
        <ele>43.730731137303</ele>
        <time>2020-10-10T08:23:41.000Z</time>
      </trkpt>
      <trkpt lat="43.56791" lon="3.82126">
        <ele>43.830831205339</ele>
        <time>2020-10-10T08:23:42.000Z</time>
      </trkpt>
      <trkpt lat="43.5679" lon="3.82123">
        <ele>43.930931273375</ele>
        <time>2020-10-10T08:23:43.000Z</time>
      </trkpt>
      <trkpt lat="43.56789" lon="3.82121">
        <ele>44</ele>
        <time>2020-10-10T08:23:44.000Z</time>
      </trkpt>
      <trkpt lat="43.56786" lon="3.8212">
        <ele>44</ele>
        <time>2020-10-10T08:23:45.000Z</time>
      </trkpt>
      <trkpt lat="43.56784" lon="3.82119">
        <ele>44</ele>
        <time>2020-10-10T08:23:46.000Z</time>
      </trkpt>
      <trkpt lat="43.56781" lon="3.82117">
        <ele>44</ele>
        <time>2020-10-10T08:23:47.000Z</time>
      </trkpt>
      <trkpt lat="43.56778" lon="3.82116">
        <ele>44</ele>
        <time>2020-10-10T08:23:48.000Z</time>
      </trkpt>
      <trkpt lat="43.56775" lon="3.82114">
        <ele>44</ele>
        <time>2020-10-10T08:23:49.000Z</time>
      </trkpt>
      <trkpt lat="43.56773" lon="3.82111">
        <ele>44</ele>
        <time>2020-10-10T08:23:50.000Z</time>
      </trkpt>
      <trkpt lat="43.5677" lon="3.82108">
        <ele>44</ele>
        <time>2020-10-10T08:23:51.000Z</time>
      </trkpt>
      <trkpt lat="43.56768" lon="3.82106">
        <ele>44</ele>
        <time>2020-10-10T08:23:52.000Z</time>
      </trkpt>
      <trkpt lat="43.56767" lon="3.82105">
        <ele>44</ele>
        <time>2020-10-10T08:23:57.000Z</time>
      </trkpt>
      <trkpt lat="43.5676" lon="3.82101">
        <ele>44.992820186972</ele>
        <time>2020-10-10T08:24:04.000Z</time>
      </trkpt>
      <trkpt lat="43.56758" lon="3.821">
        <ele>44.89025611807</ele>
        <time>2020-10-10T08:24:05.000Z</time>
      </trkpt>
      <trkpt lat="43.56756" lon="3.82099">
        <ele>44.787692049168</ele>
        <time>2020-10-10T08:24:06.000Z</time>
      </trkpt>
      <trkpt lat="43.56754" lon="3.82098">
        <ele>44.685127980266</ele>
        <time>2020-10-10T08:24:07.000Z</time>
      </trkpt>
      <trkpt lat="43.56752" lon="3.82095">
        <ele>44.582563911364</ele>
        <time>2020-10-10T08:24:08.000Z</time>
      </trkpt>
      <trkpt lat="43.5675" lon="3.82092">
        <ele>44.479999842462</ele>
        <time>2020-10-10T08:24:09.000Z</time>
      </trkpt>
      <trkpt lat="43.56748" lon="3.82088">
        <ele>44.377435773559</ele>
        <time>2020-10-10T08:24:10.000Z</time>
      </trkpt>
      <trkpt lat="43.56746" lon="3.82085">
        <ele>44.274871704657</ele>
        <time>2020-10-10T08:24:11.000Z</time>
      </trkpt>
      <trkpt lat="43.56743" lon="3.82083">
        <ele>44.172307635755</ele>
        <time>2020-10-10T08:24:12.000Z</time>
      </trkpt>
      <trkpt lat="43.5674" lon="3.82082">
        <ele>44.069743566853</ele>
        <time>2020-10-10T08:24:13.000Z</time>
      </trkpt>
      <trkpt lat="43.56737" lon="3.82081">
        <ele>44</ele>
        <time>2020-10-10T08:24:14.000Z</time>
      </trkpt>
      <trkpt lat="43.56734" lon="3.82081">
        <ele>44</ele>
        <time>2020-10-10T08:24:15.000Z</time>
      </trkpt>
      <trkpt lat="43.56731" lon="3.8208">
        <ele>44</ele>
        <time>2020-10-10T08:24:16.000Z</time>
      </trkpt>
      <trkpt lat="43.56729" lon="3.82079">
        <ele>44</ele>
        <time>2020-10-10T08:24:17.000Z</time>
      </trkpt>
      <trkpt lat="43.56727" lon="3.82077">
        <ele>44</ele>
        <time>2020-10-10T08:24:18.000Z</time>
      </trkpt>
      <trkpt lat="43.56724" lon="3.82075">
        <ele>44</ele>
        <time>2020-10-10T08:24:19.000Z</time>
      </trkpt>
      <trkpt lat="43.56722" lon="3.82074">
        <ele>44</ele>
        <time>2020-10-10T08:24:20.000Z</time>
      </trkpt>
      <trkpt lat="43.5672" lon="3.82073">
        <ele>44</ele>
        <time>2020-10-10T08:24:21.000Z</time>
      </trkpt>
      <trkpt lat="43.56718" lon="3.82073">
        <ele>44</ele>
        <time>2020-10-10T08:24:22.000Z</time>
      </trkpt>
      <trkpt lat="43.56716" lon="3.82073">
        <ele>44</ele>
        <time>2020-10-10T08:24:23.000Z</time>
      </trkpt>
      <trkpt lat="43.56714" lon="3.82073">
        <ele>44</ele>
        <time>2020-10-10T08:24:24.000Z</time>
      </trkpt>
      <trkpt lat="43.56712" lon="3.82073">
        <ele>43.91377432975</ele>
        <time>2020-10-10T08:24:25.000Z</time>
      </trkpt>
      <trkpt lat="43.5671" lon="3.82074">
        <ele>43.808621894049</ele>
        <time>2020-10-10T08:24:26.000Z</time>
      </trkpt>
      <trkpt lat="43.56708" lon="3.82074">
        <ele>43.703469458349</ele>
        <time>2020-10-10T08:24:27.000Z</time>
      </trkpt>
      <trkpt lat="43.56706" lon="3.82074">
        <ele>43.598317022648</ele>
        <time>2020-10-10T08:24:28.000Z</time>
      </trkpt>
      <trkpt lat="43.56704" lon="3.82073">
        <ele>43.493164586948</ele>
        <time>2020-10-10T08:24:29.000Z</time>
      </trkpt>
      <trkpt lat="43.56702" lon="3.82072">
        <ele>43.388012151247</ele>
        <time>2020-10-10T08:24:30.000Z</time>
      </trkpt>
      <trkpt lat="43.567" lon="3.8207">
        <ele>43.282859715547</ele>
        <time>2020-10-10T08:24:31.000Z</time>
      </trkpt>
      <trkpt lat="43.56698" lon="3.82068">
        <ele>43.177707279846</ele>
        <time>2020-10-10T08:24:32.000Z</time>
      </trkpt>
      <trkpt lat="43.56696" lon="3.82067">
        <ele>43.072554844146</ele>
        <time>2020-10-10T08:24:33.000Z</time>
      </trkpt>
      <trkpt lat="43.56694" lon="3.82067">
        <ele>43</ele>
        <time>2020-10-10T08:24:34.000Z</time>
      </trkpt>
      <trkpt lat="43.56692" lon="3.82066">
        <ele>43</ele>
        <time>2020-10-10T08:24:35.000Z</time>
      </trkpt>
      <trkpt lat="43.5669" lon="3.82066">
        <ele>43</ele>
        <time>2020-10-10T08:24:36.000Z</time>
      </trkpt>
      <trkpt lat="43.56688" lon="3.82066">
        <ele>43</ele>
        <time>2020-10-10T08:24:37.000Z</time>
      </trkpt>
      <trkpt lat="43.56686" lon="3.82065">
        <ele>43</ele>
        <time>2020-10-10T08:24:38.000Z</time>
      </trkpt>
      <trkpt lat="43.56685" lon="3.82064">
        <ele>43</ele>
        <time>2020-10-10T08:24:39.000Z</time>
      </trkpt>
      <trkpt lat="43.56683" lon="3.82064">
        <ele>43</ele>
        <time>2020-10-10T08:24:40.000Z</time>
      </trkpt>
      <trkpt lat="43.5668" lon="3.82064">
        <ele>43</ele>
        <time>2020-10-10T08:24:41.000Z</time>
      </trkpt>
      <trkpt lat="43.56678" lon="3.82064">
        <ele>43</ele>
        <time>2020-10-10T08:24:42.000Z</time>
      </trkpt>
      <trkpt lat="43.56675" lon="3.82064">
        <ele>43</ele>
        <time>2020-10-10T08:24:43.000Z</time>
      </trkpt>
      <trkpt lat="43.56673" lon="3.82063">
        <ele>42.955493761115</ele>
        <time>2020-10-10T08:24:44.000Z</time>
      </trkpt>
      <trkpt lat="43.56671" lon="3.82063">
        <ele>42.816411764601</ele>
        <time>2020-10-10T08:24:45.000Z</time>
      </trkpt>
      <trkpt lat="43.5667" lon="3.82063">
        <ele>41.992907801418</ele>
        <time>2020-10-10T08:24:51.000Z</time>
      </trkpt>
      <trkpt lat="43.56666" lon="3.82058">
        <ele>41.017730496454</ele>
        <time>2020-10-10T08:25:02.000Z</time>
      </trkpt>
      <trkpt lat="43.56666" lon="3.82054">
        <ele>40.835072511016</ele>
        <time>2020-10-10T08:25:03.000Z</time>
      </trkpt>
      <trkpt lat="43.56665" lon="3.82049">
        <ele>40.626304383262</ele>
        <time>2020-10-10T08:25:04.000Z</time>
      </trkpt>
      <trkpt lat="43.56665" lon="3.82044">
        <ele>40.417536255508</ele>
        <time>2020-10-10T08:25:05.000Z</time>
      </trkpt>
      <trkpt lat="43.56665" lon="3.82039">
        <ele>40.208768127754</ele>
        <time>2020-10-10T08:25:06.000Z</time>
      </trkpt>
      <trkpt lat="43.56665" lon="3.82036">
        <ele>40</ele>
        <time>2020-10-10T08:25:07.000Z</time>
      </trkpt>
      <trkpt lat="43.56665" lon="3.82033">
        <ele>39.791231872246</ele>
        <time>2020-10-10T08:25:08.000Z</time>
      </trkpt>
      <trkpt lat="43.56665" lon="3.8203">
        <ele>39.582463744492</ele>
        <time>2020-10-10T08:25:09.000Z</time>
      </trkpt>
      <trkpt lat="43.56665" lon="3.82027">
        <ele>39.373695616738</ele>
        <time>2020-10-10T08:25:10.000Z</time>
      </trkpt>
      <trkpt lat="43.56665" lon="3.82023">
        <ele>39.164927488984</ele>
        <time>2020-10-10T08:25:11.000Z</time>
      </trkpt>
      <trkpt lat="43.56664" lon="3.82019">
        <ele>38.958824156863</ele>
        <time>2020-10-10T08:25:12.000Z</time>
      </trkpt>
      <trkpt lat="43.56663" lon="3.82015">
        <ele>38.76274572549</ele>
        <time>2020-10-10T08:25:13.000Z</time>
      </trkpt>
      <trkpt lat="43.56661" lon="3.82011">
        <ele>38.566667294118</ele>
        <time>2020-10-10T08:25:14.000Z</time>
      </trkpt>
      <trkpt lat="43.56659" lon="3.82007">
        <ele>38.370588862745</ele>
        <time>2020-10-10T08:25:15.000Z</time>
      </trkpt>
      <trkpt lat="43.56657" lon="3.82004">
        <ele>38.174510431372</ele>
        <time>2020-10-10T08:25:16.000Z</time>
      </trkpt>
      <trkpt lat="43.56656" lon="3.82001">
        <ele>37.978432</ele>
        <time>2020-10-10T08:25:17.000Z</time>
      </trkpt>
      <trkpt lat="43.56655" lon="3.81998">
        <ele>37.782353568627</ele>
        <time>2020-10-10T08:25:18.000Z</time>
      </trkpt>
      <trkpt lat="43.56653" lon="3.81994">
        <ele>37.390196705882</ele>
        <time>2020-10-10T08:25:20.000Z</time>
      </trkpt>
      <trkpt lat="43.56652" lon="3.81991">
        <ele>37.19411827451</ele>
        <time>2020-10-10T08:25:21.000Z</time>
      </trkpt>
      <trkpt lat="43.5665" lon="3.81988">
        <ele>36.998968338153</ele>
        <time>2020-10-10T08:25:22.000Z</time>
      </trkpt>
      <trkpt lat="43.56649" lon="3.81983">
        <ele>36.895769129666</ele>
        <time>2020-10-10T08:25:23.000Z</time>
      </trkpt>
      <trkpt lat="43.56648" lon="3.8198">
        <ele>36.792569921179</ele>
        <time>2020-10-10T08:25:24.000Z</time>
      </trkpt>
      <trkpt lat="43.56647" lon="3.81977">
        <ele>36.689370712692</ele>
        <time>2020-10-10T08:25:25.000Z</time>
      </trkpt>
      <trkpt lat="43.56646" lon="3.81973">
        <ele>36.482972295718</ele>
        <time>2020-10-10T08:25:27.000Z</time>
      </trkpt>
      <trkpt lat="43.56645" lon="3.81971">
        <ele>36.379773087232</ele>
        <time>2020-10-10T08:25:28.000Z</time>
      </trkpt>
      <trkpt lat="43.56644" lon="3.81968">
        <ele>36.276573878745</ele>
        <time>2020-10-10T08:25:29.000Z</time>
      </trkpt>
      <trkpt lat="43.56644" lon="3.81966">
        <ele>36.173374670258</ele>
        <time>2020-10-10T08:25:30.000Z</time>
      </trkpt>
      <trkpt lat="43.56643" lon="3.81963">
        <ele>36.070175461771</ele>
        <time>2020-10-10T08:25:31.000Z</time>
      </trkpt>
      <trkpt lat="43.56642" lon="3.8196">
        <ele>35.968063851857</ele>
        <time>2020-10-10T08:25:32.000Z</time>
      </trkpt>
      <trkpt lat="43.56641" lon="3.81957">
        <ele>35.868263388911</ele>
        <time>2020-10-10T08:25:33.000Z</time>
      </trkpt>
      <trkpt lat="43.5664" lon="3.81954">
        <ele>35.768462925964</ele>
        <time>2020-10-10T08:25:34.000Z</time>
      </trkpt>
      <trkpt lat="43.5664" lon="3.8195">
        <ele>35.668662463018</ele>
        <time>2020-10-10T08:25:35.000Z</time>
      </trkpt>
      <trkpt lat="43.56638" lon="3.81947">
        <ele>35.568862000071</ele>
        <time>2020-10-10T08:25:36.000Z</time>
      </trkpt>
      <trkpt lat="43.56637" lon="3.81943">
        <ele>35.469061537125</ele>
        <time>2020-10-10T08:25:37.000Z</time>
      </trkpt>
      <trkpt lat="43.56635" lon="3.81939">
        <ele>35.369261074179</ele>
        <time>2020-10-10T08:25:38.000Z</time>
      </trkpt>
      <trkpt lat="43.56633" lon="3.81935">
        <ele>35.269460611232</ele>
        <time>2020-10-10T08:25:39.000Z</time>
      </trkpt>
      <trkpt lat="43.56631" lon="3.8193">
        <ele>35.169660148286</ele>
        <time>2020-10-10T08:25:40.000Z</time>
      </trkpt>
      <trkpt lat="43.5663" lon="3.81926">
        <ele>35.06985968534</ele>
        <time>2020-10-10T08:25:41.000Z</time>
      </trkpt>
      <trkpt lat="43.56628" lon="3.81922">
        <ele>35</ele>
        <time>2020-10-10T08:25:42.000Z</time>
      </trkpt>
      <trkpt lat="43.56626" lon="3.81918">
        <ele>35</ele>
        <time>2020-10-10T08:25:43.000Z</time>
      </trkpt>
      <trkpt lat="43.56624" lon="3.81914">
        <ele>35</ele>
        <time>2020-10-10T08:25:44.000Z</time>
      </trkpt>
      <trkpt lat="43.56622" lon="3.8191">
        <ele>35</ele>
        <time>2020-10-10T08:25:45.000Z</time>
      </trkpt>
      <trkpt lat="43.5662" lon="3.81905">
        <ele>35</ele>
        <time>2020-10-10T08:25:46.000Z</time>
      </trkpt>
      <trkpt lat="43.56619" lon="3.81901">
        <ele>35</ele>
        <time>2020-10-10T08:25:47.000Z</time>
      </trkpt>
      <trkpt lat="43.56617" lon="3.81897">
        <ele>35</ele>
        <time>2020-10-10T08:25:48.000Z</time>
      </trkpt>
      <trkpt lat="43.56616" lon="3.81893">
        <ele>35</ele>
        <time>2020-10-10T08:25:49.000Z</time>
      </trkpt>
      <trkpt lat="43.56614" lon="3.81889">
        <ele>35</ele>
        <time>2020-10-10T08:25:50.000Z</time>
      </trkpt>
      <trkpt lat="43.56613" lon="3.81886">
        <ele>35</ele>
        <time>2020-10-10T08:25:51.000Z</time>
      </trkpt>
      <trkpt lat="43.56611" lon="3.81882">
        <ele>35.028855412173</ele>
        <time>2020-10-10T08:25:52.000Z</time>
      </trkpt>
      <trkpt lat="43.5661" lon="3.81879">
        <ele>35.128357931417</ele>
        <time>2020-10-10T08:25:53.000Z</time>
      </trkpt>
      <trkpt lat="43.56608" lon="3.81877">
        <ele>35.227860450662</ele>
        <time>2020-10-10T08:25:54.000Z</time>
      </trkpt>
      <trkpt lat="43.56607" lon="3.81874">
        <ele>35.327362969907</ele>
        <time>2020-10-10T08:25:55.000Z</time>
      </trkpt>
      <trkpt lat="43.56605" lon="3.81871">
        <ele>35.426865489151</ele>
        <time>2020-10-10T08:25:56.000Z</time>
      </trkpt>
      <trkpt lat="43.56603" lon="3.81869">
        <ele>35.526368008396</ele>
        <time>2020-10-10T08:25:57.000Z</time>
      </trkpt>
      <trkpt lat="43.566" lon="3.81866">
        <ele>35.62587052764</ele>
        <time>2020-10-10T08:25:58.000Z</time>
      </trkpt>
      <trkpt lat="43.56598" lon="3.81864">
        <ele>35.725373046885</ele>
        <time>2020-10-10T08:25:59.000Z</time>
      </trkpt>
      <trkpt lat="43.56596" lon="3.81863">
        <ele>35.824875566129</ele>
        <time>2020-10-10T08:26:00.000Z</time>
      </trkpt>
      <trkpt lat="43.56593" lon="3.81861">
        <ele>35.924378085374</ele>
        <time>2020-10-10T08:26:01.000Z</time>
      </trkpt>
      <trkpt lat="43.56591" lon="3.81859">
        <ele>36.024120595258</ele>
        <time>2020-10-10T08:26:02.000Z</time>
      </trkpt>
      <trkpt lat="43.56588" lon="3.81856">
        <ele>36.124623075498</ele>
        <time>2020-10-10T08:26:03.000Z</time>
      </trkpt>
      <trkpt lat="43.56586" lon="3.81853">
        <ele>36.225125555739</ele>
        <time>2020-10-10T08:26:04.000Z</time>
      </trkpt>
      <trkpt lat="43.56584" lon="3.8185">
        <ele>36.325628035979</ele>
        <time>2020-10-10T08:26:05.000Z</time>
      </trkpt>
      <trkpt lat="43.56582" lon="3.81846">
        <ele>36.426130516219</ele>
        <time>2020-10-10T08:26:06.000Z</time>
      </trkpt>
      <trkpt lat="43.5658" lon="3.81843">
        <ele>36.52663299646</ele>
        <time>2020-10-10T08:26:07.000Z</time>
      </trkpt>
      <trkpt lat="43.56578" lon="3.81841">
        <ele>36.6271354767</ele>
        <time>2020-10-10T08:26:08.000Z</time>
      </trkpt>
      <trkpt lat="43.56576" lon="3.81837">
        <ele>36.727637956941</ele>
        <time>2020-10-10T08:26:09.000Z</time>
      </trkpt>
      <trkpt lat="43.56575" lon="3.81834">
        <ele>36.828140437181</ele>
        <time>2020-10-10T08:26:10.000Z</time>
      </trkpt>
      <trkpt lat="43.56573" lon="3.8183">
        <ele>36.928642917421</ele>
        <time>2020-10-10T08:26:11.000Z</time>
      </trkpt>
      <trkpt lat="43.56573" lon="3.81826">
        <ele>37.029086950158</ele>
        <time>2020-10-10T08:26:12.000Z</time>
      </trkpt>
      <trkpt lat="43.56572" lon="3.81821">
        <ele>37.129387885059</ele>
        <time>2020-10-10T08:26:13.000Z</time>
      </trkpt>
      <trkpt lat="43.56572" lon="3.81817">
        <ele>37.22968881996</ele>
        <time>2020-10-10T08:26:14.000Z</time>
      </trkpt>
      <trkpt lat="43.56571" lon="3.81813">
        <ele>37.329989754861</ele>
        <time>2020-10-10T08:26:15.000Z</time>
      </trkpt>
      <trkpt lat="43.56571" lon="3.81809">
        <ele>37.430290689762</ele>
        <time>2020-10-10T08:26:16.000Z</time>
      </trkpt>
      <trkpt lat="43.5657" lon="3.81805">
        <ele>37.530591624663</ele>
        <time>2020-10-10T08:26:17.000Z</time>
      </trkpt>
      <trkpt lat="43.56568" lon="3.81802">
        <ele>37.630892559564</ele>
        <time>2020-10-10T08:26:18.000Z</time>
      </trkpt>
      <trkpt lat="43.56567" lon="3.81799">
        <ele>37.731193494465</ele>
        <time>2020-10-10T08:26:19.000Z</time>
      </trkpt>
      <trkpt lat="43.56565" lon="3.81796">
        <ele>37.831494429366</ele>
        <time>2020-10-10T08:26:20.000Z</time>
      </trkpt>
      <trkpt lat="43.56563" lon="3.81793">
        <ele>37.931795364267</ele>
        <time>2020-10-10T08:26:21.000Z</time>
      </trkpt>
      <trkpt lat="43.56561" lon="3.81791">
        <ele>38.032</ele>
        <time>2020-10-10T08:26:22.000Z</time>
      </trkpt>
      <trkpt lat="43.56559" lon="3.81789">
        <ele>38.132</ele>
        <time>2020-10-10T08:26:23.000Z</time>
      </trkpt>
      <trkpt lat="43.56557" lon="3.81788">
        <ele>38.232</ele>
        <time>2020-10-10T08:26:24.000Z</time>
      </trkpt>
      <trkpt lat="43.56555" lon="3.81785">
        <ele>38.332</ele>
        <time>2020-10-10T08:26:25.000Z</time>
      </trkpt>
      <trkpt lat="43.56553" lon="3.81782">
        <ele>38.432</ele>
        <time>2020-10-10T08:26:26.000Z</time>
      </trkpt>
      <trkpt lat="43.5655" lon="3.81779">
        <ele>38.532</ele>
        <time>2020-10-10T08:26:27.000Z</time>
      </trkpt>
      <trkpt lat="43.56548" lon="3.81777">
        <ele>38.632</ele>
        <time>2020-10-10T08:26:28.000Z</time>
      </trkpt>
      <trkpt lat="43.56546" lon="3.81774">
        <ele>38.732</ele>
        <time>2020-10-10T08:26:29.000Z</time>
      </trkpt>
      <trkpt lat="43.56543" lon="3.81772">
        <ele>38.832</ele>
        <time>2020-10-10T08:26:30.000Z</time>
      </trkpt>
      <trkpt lat="43.56541" lon="3.8177">
        <ele>38.932</ele>
        <time>2020-10-10T08:26:31.000Z</time>
      </trkpt>
      <trkpt lat="43.56538" lon="3.81767">
        <ele>39</ele>
        <time>2020-10-10T08:26:32.000Z</time>
      </trkpt>
      <trkpt lat="43.56536" lon="3.81765">
        <ele>39</ele>
        <time>2020-10-10T08:26:33.000Z</time>
      </trkpt>
      <trkpt lat="43.56534" lon="3.81762">
        <ele>39</ele>
        <time>2020-10-10T08:26:34.000Z</time>
      </trkpt>
      <trkpt lat="43.56532" lon="3.81759">
        <ele>39</ele>
        <time>2020-10-10T08:26:35.000Z</time>
      </trkpt>
      <trkpt lat="43.56531" lon="3.81755">
        <ele>39</ele>
        <time>2020-10-10T08:26:36.000Z</time>
      </trkpt>
      <trkpt lat="43.56529" lon="3.81752">
        <ele>39</ele>
        <time>2020-10-10T08:26:37.000Z</time>
      </trkpt>
      <trkpt lat="43.56528" lon="3.81749">
        <ele>39</ele>
        <time>2020-10-10T08:26:38.000Z</time>
      </trkpt>
      <trkpt lat="43.56528" lon="3.81745">
        <ele>39</ele>
        <time>2020-10-10T08:26:39.000Z</time>
      </trkpt>
      <trkpt lat="43.56527" lon="3.81742">
        <ele>39</ele>
        <time>2020-10-10T08:26:40.000Z</time>
      </trkpt>
      <trkpt lat="43.56527" lon="3.81738">
        <ele>39</ele>
        <time>2020-10-10T08:26:41.000Z</time>
      </trkpt>
      <trkpt lat="43.56527" lon="3.81735">
        <ele>39.03100032</ele>
        <time>2020-10-10T08:26:42.000Z</time>
      </trkpt>
      <trkpt lat="43.56527" lon="3.81731">
        <ele>39.13100032</ele>
        <time>2020-10-10T08:26:43.000Z</time>
      </trkpt>
      <trkpt lat="43.56526" lon="3.81728">
        <ele>39.23100032</ele>
        <time>2020-10-10T08:26:44.000Z</time>
      </trkpt>
      <trkpt lat="43.56524" lon="3.81724">
        <ele>39.33100032</ele>
        <time>2020-10-10T08:26:45.000Z</time>
      </trkpt>
      <trkpt lat="43.56523" lon="3.81721">
        <ele>39.43100032</ele>
        <time>2020-10-10T08:26:46.000Z</time>
      </trkpt>
      <trkpt lat="43.56521" lon="3.81719">
        <ele>39.53100032</ele>
        <time>2020-10-10T08:26:47.000Z</time>
      </trkpt>
      <trkpt lat="43.56518" lon="3.81717">
        <ele>39.63100032</ele>
        <time>2020-10-10T08:26:48.000Z</time>
      </trkpt>
      <trkpt lat="43.56516" lon="3.81714">
        <ele>39.73100032</ele>
        <time>2020-10-10T08:26:49.000Z</time>
      </trkpt>
      <trkpt lat="43.56514" lon="3.81712">
        <ele>39.83100032</ele>
        <time>2020-10-10T08:26:50.000Z</time>
      </trkpt>
      <trkpt lat="43.56512" lon="3.81709">
        <ele>39.93100032</ele>
        <time>2020-10-10T08:26:51.000Z</time>
      </trkpt>
      <trkpt lat="43.56511" lon="3.81706">
        <ele>40.061326034002</ele>
        <time>2020-10-10T08:26:52.000Z</time>
      </trkpt>
      <trkpt lat="43.56509" lon="3.81703">
        <ele>40.259149908083</ele>
        <time>2020-10-10T08:26:53.000Z</time>
      </trkpt>
      <trkpt lat="43.56507" lon="3.81701">
        <ele>40.456973782165</ele>
        <time>2020-10-10T08:26:54.000Z</time>
      </trkpt>
      <trkpt lat="43.56505" lon="3.81698">
        <ele>40.654797656246</ele>
        <time>2020-10-10T08:26:55.000Z</time>
      </trkpt>
      <trkpt lat="43.56504" lon="3.81695">
        <ele>40.852621530327</ele>
        <time>2020-10-10T08:26:56.000Z</time>
      </trkpt>
      <trkpt lat="43.56503" lon="3.81692">
        <ele>41.050445404409</ele>
        <time>2020-10-10T08:26:57.000Z</time>
      </trkpt>
      <trkpt lat="43.56501" lon="3.81689">
        <ele>41.24826927849</ele>
        <time>2020-10-10T08:26:58.000Z</time>
      </trkpt>
      <trkpt lat="43.56501" lon="3.81687">
        <ele>41.446093152572</ele>
        <time>2020-10-10T08:26:59.000Z</time>
      </trkpt>
      <trkpt lat="43.565" lon="3.81684">
        <ele>41.643917026653</ele>
        <time>2020-10-10T08:27:00.000Z</time>
      </trkpt>
      <trkpt lat="43.56499" lon="3.81681">
        <ele>41.841740900735</ele>
        <time>2020-10-10T08:27:01.000Z</time>
      </trkpt>
      <trkpt lat="43.56499" lon="3.81678">
        <ele>42.020222453459</ele>
        <time>2020-10-10T08:27:02.000Z</time>
      </trkpt>
      <trkpt lat="43.56498" lon="3.81675">
        <ele>42.121334720755</ele>
        <time>2020-10-10T08:27:03.000Z</time>
      </trkpt>
      <trkpt lat="43.56496" lon="3.81673">
        <ele>42.222446988052</ele>
        <time>2020-10-10T08:27:04.000Z</time>
      </trkpt>
      <trkpt lat="43.56495" lon="3.8167">
        <ele>42.323559255348</ele>
        <time>2020-10-10T08:27:05.000Z</time>
      </trkpt>
      <trkpt lat="43.56494" lon="3.81667">
        <ele>42.424671522644</ele>
        <time>2020-10-10T08:27:06.000Z</time>
      </trkpt>
      <trkpt lat="43.56492" lon="3.81664">
        <ele>42.52578378994</ele>
        <time>2020-10-10T08:27:07.000Z</time>
      </trkpt>
      <trkpt lat="43.56491" lon="3.81661">
        <ele>42.626896057236</ele>
        <time>2020-10-10T08:27:08.000Z</time>
      </trkpt>
      <trkpt lat="43.5649" lon="3.81658">
        <ele>42.728008324533</ele>
        <time>2020-10-10T08:27:09.000Z</time>
      </trkpt>
      <trkpt lat="43.56489" lon="3.81656">
        <ele>42.829120591829</ele>
        <time>2020-10-10T08:27:10.000Z</time>
      </trkpt>
      <trkpt lat="43.56488" lon="3.81652">
        <ele>42.930232859125</ele>
        <time>2020-10-10T08:27:11.000Z</time>
      </trkpt>
      <trkpt lat="43.56487" lon="3.81649">
        <ele>43.03100032</ele>
        <time>2020-10-10T08:27:12.000Z</time>
      </trkpt>
      <trkpt lat="43.56486" lon="3.81646">
        <ele>43.13100032</ele>
        <time>2020-10-10T08:27:13.000Z</time>
      </trkpt>
      <trkpt lat="43.56485" lon="3.81643">
        <ele>43.23100032</ele>
        <time>2020-10-10T08:27:14.000Z</time>
      </trkpt>
      <trkpt lat="43.56484" lon="3.8164">
        <ele>43.33100032</ele>
        <time>2020-10-10T08:27:15.000Z</time>
      </trkpt>
      <trkpt lat="43.56483" lon="3.81637">
        <ele>43.43100032</ele>
        <time>2020-10-10T08:27:16.000Z</time>
      </trkpt>
      <trkpt lat="43.56482" lon="3.81634">
        <ele>43.53100032</ele>
        <time>2020-10-10T08:27:17.000Z</time>
      </trkpt>
      <trkpt lat="43.56481" lon="3.81631">
        <ele>43.63100032</ele>
        <time>2020-10-10T08:27:18.000Z</time>
      </trkpt>
      <trkpt lat="43.5648" lon="3.81628">
        <ele>43.73100032</ele>
        <time>2020-10-10T08:27:19.000Z</time>
      </trkpt>
      <trkpt lat="43.56478" lon="3.81626">
        <ele>43.83100032</ele>
        <time>2020-10-10T08:27:20.000Z</time>
      </trkpt>
      <trkpt lat="43.56477" lon="3.81623">
        <ele>43.93100032</ele>
        <time>2020-10-10T08:27:21.000Z</time>
      </trkpt>
      <trkpt lat="43.56476" lon="3.81621">
        <ele>44</ele>
        <time>2020-10-10T08:27:23.000Z</time>
      </trkpt>
      <trkpt lat="43.56476" lon="3.81621">
        <ele>44</ele>
        <time>2020-10-10T08:27:27.000Z</time>
      </trkpt>
      <trkpt lat="43.56473" lon="3.81613">
        <ele>43.009523809524</ele>
        <time>2020-10-10T08:27:48.000Z</time>
      </trkpt>
      <trkpt lat="43.56472" lon="3.8161">
        <ele>43.091224320573</ele>
        <time>2020-10-10T08:27:49.000Z</time>
      </trkpt>
      <trkpt lat="43.56471" lon="3.81608">
        <ele>43.206697676344</ele>
        <time>2020-10-10T08:27:50.000Z</time>
      </trkpt>
      <trkpt lat="43.5647" lon="3.81605">
        <ele>43.322171032114</ele>
        <time>2020-10-10T08:27:51.000Z</time>
      </trkpt>
      <trkpt lat="43.5647" lon="3.81603">
        <ele>43.553117743654</ele>
        <time>2020-10-10T08:27:53.000Z</time>
      </trkpt>
      <trkpt lat="43.5647" lon="3.81603">
        <ele>44</ele>
        <time>2020-10-10T08:27:57.000Z</time>
      </trkpt>
      <trkpt lat="43.56471" lon="3.81598">
        <ele>43.011764705882</ele>
        <time>2020-10-10T08:28:14.000Z</time>
      </trkpt>
      <trkpt lat="43.56471" lon="3.81598">
        <ele>43</ele>
        <time>2020-10-10T08:28:19.000Z</time>
      </trkpt>
      <trkpt lat="43.56464" lon="3.81593">
        <ele>43.007179813028</ele>
        <time>2020-10-10T08:28:28.000Z</time>
      </trkpt>
      <trkpt lat="43.56462" lon="3.81591">
        <ele>43.10974388193</ele>
        <time>2020-10-10T08:28:29.000Z</time>
      </trkpt>
      <trkpt lat="43.5646" lon="3.81589">
        <ele>43.212307950832</ele>
        <time>2020-10-10T08:28:30.000Z</time>
      </trkpt>
      <trkpt lat="43.56458" lon="3.81587">
        <ele>43.314872019734</ele>
        <time>2020-10-10T08:28:31.000Z</time>
      </trkpt>
      <trkpt lat="43.56456" lon="3.81585">
        <ele>43.417436088636</ele>
        <time>2020-10-10T08:28:32.000Z</time>
      </trkpt>
      <trkpt lat="43.56454" lon="3.81582">
        <ele>43.520000157538</ele>
        <time>2020-10-10T08:28:33.000Z</time>
      </trkpt>
      <trkpt lat="43.56451" lon="3.8158">
        <ele>43.622564226441</ele>
        <time>2020-10-10T08:28:34.000Z</time>
      </trkpt>
      <trkpt lat="43.56449" lon="3.81577">
        <ele>43.725128295343</ele>
        <time>2020-10-10T08:28:35.000Z</time>
      </trkpt>
      <trkpt lat="43.56446" lon="3.81575">
        <ele>43.827692364245</ele>
        <time>2020-10-10T08:28:36.000Z</time>
      </trkpt>
      <trkpt lat="43.56444" lon="3.81572">
        <ele>43.930256433147</ele>
        <time>2020-10-10T08:28:37.000Z</time>
      </trkpt>
      <trkpt lat="43.56442" lon="3.81569">
        <ele>44.031098163218</ele>
        <time>2020-10-10T08:28:38.000Z</time>
      </trkpt>
      <trkpt lat="43.5644" lon="3.81567">
        <ele>44.128279923275</ele>
        <time>2020-10-10T08:28:39.000Z</time>
      </trkpt>
      <trkpt lat="43.56437" lon="3.81564">
        <ele>44.225461683331</ele>
        <time>2020-10-10T08:28:40.000Z</time>
      </trkpt>
      <trkpt lat="43.56435" lon="3.81561">
        <ele>44.322643443388</ele>
        <time>2020-10-10T08:28:41.000Z</time>
      </trkpt>
      <trkpt lat="43.56433" lon="3.81559">
        <ele>44.419825203444</ele>
        <time>2020-10-10T08:28:42.000Z</time>
      </trkpt>
      <trkpt lat="43.56432" lon="3.81556">
        <ele>44.517006963501</ele>
        <time>2020-10-10T08:28:43.000Z</time>
      </trkpt>
      <trkpt lat="43.5643" lon="3.81553">
        <ele>44.614188723557</ele>
        <time>2020-10-10T08:28:44.000Z</time>
      </trkpt>
      <trkpt lat="43.56428" lon="3.81551">
        <ele>44.711370483614</ele>
        <time>2020-10-10T08:28:45.000Z</time>
      </trkpt>
      <trkpt lat="43.56427" lon="3.81548">
        <ele>44.80855224367</ele>
        <time>2020-10-10T08:28:46.000Z</time>
      </trkpt>
      <trkpt lat="43.56425" lon="3.81545">
        <ele>44.905734003727</ele>
        <time>2020-10-10T08:28:47.000Z</time>
      </trkpt>
      <trkpt lat="43.56423" lon="3.81542">
        <ele>45</ele>
        <time>2020-10-10T08:28:48.000Z</time>
      </trkpt>
      <trkpt lat="43.56421" lon="3.8154">
        <ele>45</ele>
        <time>2020-10-10T08:28:49.000Z</time>
      </trkpt>
      <trkpt lat="43.56419" lon="3.81537">
        <ele>45</ele>
        <time>2020-10-10T08:28:50.000Z</time>
      </trkpt>
      <trkpt lat="43.56417" lon="3.81535">
        <ele>45</ele>
        <time>2020-10-10T08:28:51.000Z</time>
      </trkpt>
      <trkpt lat="43.56416" lon="3.81533">
        <ele>45</ele>
        <time>2020-10-10T08:28:52.000Z</time>
      </trkpt>
      <trkpt lat="43.56414" lon="3.81531">
        <ele>45</ele>
        <time>2020-10-10T08:28:53.000Z</time>
      </trkpt>
      <trkpt lat="43.56412" lon="3.81529">
        <ele>45</ele>
        <time>2020-10-10T08:28:55.000Z</time>
      </trkpt>
      <trkpt lat="43.56412" lon="3.81529">
        <ele>45</ele>
        <time>2020-10-10T08:29:01.000Z</time>
      </trkpt>
      <trkpt lat="43.56412" lon="3.81526">
        <ele>46</ele>
        <time>2020-10-10T08:29:12.000Z</time>
      </trkpt>
      <trkpt lat="43.56412" lon="3.81526">
        <ele>46.010406187641</ele>
        <time>2020-10-10T08:29:16.000Z</time>
      </trkpt>
      <trkpt lat="43.56407" lon="3.81522">
        <ele>47.002059075156</ele>
        <time>2020-10-10T08:29:36.000Z</time>
      </trkpt>
      <trkpt lat="43.56405" lon="3.8152">
        <ele>47.105045788717</ele>
        <time>2020-10-10T08:29:37.000Z</time>
      </trkpt>
      <trkpt lat="43.56403" lon="3.81518">
        <ele>47.208032502277</ele>
        <time>2020-10-10T08:29:38.000Z</time>
      </trkpt>
      <trkpt lat="43.56401" lon="3.81516">
        <ele>47.311019215838</ele>
        <time>2020-10-10T08:29:39.000Z</time>
      </trkpt>
      <trkpt lat="43.564" lon="3.81514">
        <ele>47.414005929398</ele>
        <time>2020-10-10T08:29:40.000Z</time>
      </trkpt>
      <trkpt lat="43.56398" lon="3.81513">
        <ele>47.516992642959</ele>
        <time>2020-10-10T08:29:41.000Z</time>
      </trkpt>
      <trkpt lat="43.56396" lon="3.81511">
        <ele>47.619979356519</ele>
        <time>2020-10-10T08:29:42.000Z</time>
      </trkpt>
      <trkpt lat="43.56394" lon="3.81509">
        <ele>47.72296607008</ele>
        <time>2020-10-10T08:29:43.000Z</time>
      </trkpt>
      <trkpt lat="43.56392" lon="3.81507">
        <ele>47.82595278364</ele>
        <time>2020-10-10T08:29:44.000Z</time>
      </trkpt>
      <trkpt lat="43.56389" lon="3.81505">
        <ele>47.928939497201</ele>
        <time>2020-10-10T08:29:45.000Z</time>
      </trkpt>
      <trkpt lat="43.56387" lon="3.81504">
        <ele>48.030126619124</ele>
        <time>2020-10-10T08:29:46.000Z</time>
      </trkpt>
      <trkpt lat="43.56384" lon="3.81503">
        <ele>48.127308258294</ele>
        <time>2020-10-10T08:29:47.000Z</time>
      </trkpt>
      <trkpt lat="43.56382" lon="3.81502">
        <ele>48.224489897463</ele>
        <time>2020-10-10T08:29:48.000Z</time>
      </trkpt>
      <trkpt lat="43.56379" lon="3.81501">
        <ele>48.321671536633</ele>
        <time>2020-10-10T08:29:49.000Z</time>
      </trkpt>
      <trkpt lat="43.56377" lon="3.815">
        <ele>48.418853175803</ele>
        <time>2020-10-10T08:29:50.000Z</time>
      </trkpt>
      <trkpt lat="43.56375" lon="3.81499">
        <ele>48.516034814972</ele>
        <time>2020-10-10T08:29:51.000Z</time>
      </trkpt>
      <trkpt lat="43.56372" lon="3.81498">
        <ele>48.613216454142</ele>
        <time>2020-10-10T08:29:52.000Z</time>
      </trkpt>
      <trkpt lat="43.5637" lon="3.81497">
        <ele>48.710398093312</ele>
        <time>2020-10-10T08:29:53.000Z</time>
      </trkpt>
      <trkpt lat="43.56368" lon="3.81496">
        <ele>48.807579732481</ele>
        <time>2020-10-10T08:29:54.000Z</time>
      </trkpt>
      <trkpt lat="43.56365" lon="3.81494">
        <ele>48.904761371651</ele>
        <time>2020-10-10T08:29:55.000Z</time>
      </trkpt>
      <trkpt lat="43.56363" lon="3.81493">
        <ele>49.002054841375</ele>
        <time>2020-10-10T08:29:56.000Z</time>
      </trkpt>
      <trkpt lat="43.56361" lon="3.81491">
        <ele>49.104829798094</ele>
        <time>2020-10-10T08:29:57.000Z</time>
      </trkpt>
      <trkpt lat="43.56359" lon="3.8149">
        <ele>49.207604754814</ele>
        <time>2020-10-10T08:29:58.000Z</time>
      </trkpt>
      <trkpt lat="43.56357" lon="3.81488">
        <ele>49.310379711533</ele>
        <time>2020-10-10T08:29:59.000Z</time>
      </trkpt>
      <trkpt lat="43.56355" lon="3.81487">
        <ele>49.413154668252</ele>
        <time>2020-10-10T08:30:00.000Z</time>
      </trkpt>
      <trkpt lat="43.56353" lon="3.81485">
        <ele>49.515929624972</ele>
        <time>2020-10-10T08:30:01.000Z</time>
      </trkpt>
      <trkpt lat="43.56351" lon="3.81484">
        <ele>49.618704581691</ele>
        <time>2020-10-10T08:30:02.000Z</time>
      </trkpt>
      <trkpt lat="43.56349" lon="3.81482">
        <ele>49.72147953841</ele>
        <time>2020-10-10T08:30:03.000Z</time>
      </trkpt>
      <trkpt lat="43.56347" lon="3.8148">
        <ele>49.82425449513</ele>
        <time>2020-10-10T08:30:04.000Z</time>
      </trkpt>
      <trkpt lat="43.56345" lon="3.81478">
        <ele>49.927029451849</ele>
        <time>2020-10-10T08:30:05.000Z</time>
      </trkpt>
      <trkpt lat="43.56343" lon="3.81476">
        <ele>50.029057814226</ele>
        <time>2020-10-10T08:30:06.000Z</time>
      </trkpt>
      <trkpt lat="43.56341" lon="3.81474">
        <ele>50.129258279284</ele>
        <time>2020-10-10T08:30:07.000Z</time>
      </trkpt>
      <trkpt lat="43.56339" lon="3.81472">
        <ele>50.229458744342</ele>
        <time>2020-10-10T08:30:08.000Z</time>
      </trkpt>
      <trkpt lat="43.56337" lon="3.8147">
        <ele>50.329659209401</ele>
        <time>2020-10-10T08:30:09.000Z</time>
      </trkpt>
      <trkpt lat="43.56335" lon="3.81467">
        <ele>50.429859674459</ele>
        <time>2020-10-10T08:30:10.000Z</time>
      </trkpt>
      <trkpt lat="43.56334" lon="3.81465">
        <ele>50.530060139518</ele>
        <time>2020-10-10T08:30:11.000Z</time>
      </trkpt>
      <trkpt lat="43.56332" lon="3.81462">
        <ele>50.630260604576</ele>
        <time>2020-10-10T08:30:12.000Z</time>
      </trkpt>
      <trkpt lat="43.56331" lon="3.8146">
        <ele>50.730461069634</ele>
        <time>2020-10-10T08:30:13.000Z</time>
      </trkpt>
      <trkpt lat="43.56329" lon="3.81458">
        <ele>50.830661534693</ele>
        <time>2020-10-10T08:30:14.000Z</time>
      </trkpt>
      <trkpt lat="43.56327" lon="3.81455">
        <ele>50.930861999751</ele>
        <time>2020-10-10T08:30:15.000Z</time>
      </trkpt>
      <trkpt lat="43.56326" lon="3.81453">
        <ele>51.031031341411</ele>
        <time>2020-10-10T08:30:16.000Z</time>
      </trkpt>
      <trkpt lat="43.56324" lon="3.81452">
        <ele>51.131131409447</ele>
        <time>2020-10-10T08:30:17.000Z</time>
      </trkpt>
      <trkpt lat="43.56322" lon="3.8145">
        <ele>51.231231477483</ele>
        <time>2020-10-10T08:30:18.000Z</time>
      </trkpt>
      <trkpt lat="43.56321" lon="3.81449">
        <ele>51.331331545519</ele>
        <time>2020-10-10T08:30:19.000Z</time>
      </trkpt>
      <trkpt lat="43.56319" lon="3.81448">
        <ele>51.431431613555</ele>
        <time>2020-10-10T08:30:20.000Z</time>
      </trkpt>
      <trkpt lat="43.56317" lon="3.81448">
        <ele>51.531531681592</ele>
        <time>2020-10-10T08:30:21.000Z</time>
      </trkpt>
      <trkpt lat="43.56314" lon="3.81447">
        <ele>51.631631749628</ele>
        <time>2020-10-10T08:30:22.000Z</time>
      </trkpt>
      <trkpt lat="43.56312" lon="3.81446">
        <ele>51.731731817664</ele>
        <time>2020-10-10T08:30:23.000Z</time>
      </trkpt>
      <trkpt lat="43.5631" lon="3.81446">
        <ele>51.8318318857</ele>
        <time>2020-10-10T08:30:24.000Z</time>
      </trkpt>
      <trkpt lat="43.56307" lon="3.81445">
        <ele>51.931931953735</ele>
        <time>2020-10-10T08:30:25.000Z</time>
      </trkpt>
      <trkpt lat="43.56305" lon="3.81445">
        <ele>52.03190427696</ele>
        <time>2020-10-10T08:30:26.000Z</time>
      </trkpt>
      <trkpt lat="43.56302" lon="3.81445">
        <ele>52.131605142459</ele>
        <time>2020-10-10T08:30:27.000Z</time>
      </trkpt>
      <trkpt lat="43.563" lon="3.81444">
        <ele>52.231306007958</ele>
        <time>2020-10-10T08:30:28.000Z</time>
      </trkpt>
      <trkpt lat="43.56297" lon="3.81443">
        <ele>52.331006873457</ele>
        <time>2020-10-10T08:30:29.000Z</time>
      </trkpt>
      <trkpt lat="43.56295" lon="3.81442">
        <ele>52.430707738957</ele>
        <time>2020-10-10T08:30:30.000Z</time>
      </trkpt>
      <trkpt lat="43.56292" lon="3.81441">
        <ele>52.530408604456</ele>
        <time>2020-10-10T08:30:31.000Z</time>
      </trkpt>
      <trkpt lat="43.5629" lon="3.8144">
        <ele>52.630109469955</ele>
        <time>2020-10-10T08:30:32.000Z</time>
      </trkpt>
      <trkpt lat="43.56287" lon="3.81439">
        <ele>52.729810335454</ele>
        <time>2020-10-10T08:30:33.000Z</time>
      </trkpt>
      <trkpt lat="43.56285" lon="3.81437">
        <ele>52.829511200954</ele>
        <time>2020-10-10T08:30:34.000Z</time>
      </trkpt>
      <trkpt lat="43.56282" lon="3.81436">
        <ele>52.929212066453</ele>
        <time>2020-10-10T08:30:35.000Z</time>
      </trkpt>
      <trkpt lat="43.5628" lon="3.81434">
        <ele>53</ele>
        <time>2020-10-10T08:30:36.000Z</time>
      </trkpt>
      <trkpt lat="43.56278" lon="3.81431">
        <ele>53</ele>
        <time>2020-10-10T08:30:37.000Z</time>
      </trkpt>
      <trkpt lat="43.56276" lon="3.81429">
        <ele>53</ele>
        <time>2020-10-10T08:30:38.000Z</time>
      </trkpt>
      <trkpt lat="43.56274" lon="3.81427">
        <ele>53</ele>
        <time>2020-10-10T08:30:39.000Z</time>
      </trkpt>
      <trkpt lat="43.56272" lon="3.81425">
        <ele>53</ele>
        <time>2020-10-10T08:30:40.000Z</time>
      </trkpt>
      <trkpt lat="43.5627" lon="3.81423">
        <ele>53</ele>
        <time>2020-10-10T08:30:41.000Z</time>
      </trkpt>
      <trkpt lat="43.56267" lon="3.81421">
        <ele>53</ele>
        <time>2020-10-10T08:30:42.000Z</time>
      </trkpt>
      <trkpt lat="43.56265" lon="3.8142">
        <ele>53</ele>
        <time>2020-10-10T08:30:43.000Z</time>
      </trkpt>
      <trkpt lat="43.56263" lon="3.8142">
        <ele>53</ele>
        <time>2020-10-10T08:30:44.000Z</time>
      </trkpt>
      <trkpt lat="43.56261" lon="3.8142">
        <ele>53</ele>
        <time>2020-10-10T08:30:45.000Z</time>
      </trkpt>
      <trkpt lat="43.56259" lon="3.8142">
        <ele>52.968063851857</ele>
        <time>2020-10-10T08:30:46.000Z</time>
      </trkpt>
      <trkpt lat="43.56257" lon="3.8142">
        <ele>52.868263388911</ele>
        <time>2020-10-10T08:30:47.000Z</time>
      </trkpt>
      <trkpt lat="43.56255" lon="3.81421">
        <ele>52.768462925964</ele>
        <time>2020-10-10T08:30:48.000Z</time>
      </trkpt>
      <trkpt lat="43.56252" lon="3.81422">
        <ele>52.668662463018</ele>
        <time>2020-10-10T08:30:49.000Z</time>
      </trkpt>
      <trkpt lat="43.5625" lon="3.81423">
        <ele>52.568862000071</ele>
        <time>2020-10-10T08:30:50.000Z</time>
      </trkpt>
      <trkpt lat="43.56247" lon="3.81423">
        <ele>52.469061537125</ele>
        <time>2020-10-10T08:30:51.000Z</time>
      </trkpt>
      <trkpt lat="43.56243" lon="3.81423">
        <ele>52.369261074179</ele>
        <time>2020-10-10T08:30:52.000Z</time>
      </trkpt>
      <trkpt lat="43.56241" lon="3.81423">
        <ele>52.269460611232</ele>
        <time>2020-10-10T08:30:53.000Z</time>
      </trkpt>
      <trkpt lat="43.56239" lon="3.81423">
        <ele>52.000850822462</ele>
        <time>2020-10-10T08:30:59.000Z</time>
      </trkpt>
      <trkpt lat="43.56247" lon="3.81424">
        <ele>53</ele>
        <time>2020-10-10T08:33:20.000Z</time>
      </trkpt>
      <trkpt lat="43.5625" lon="3.81423">
        <ele>53</ele>
        <time>2020-10-10T08:33:21.000Z</time>
      </trkpt>
      <trkpt lat="43.56253" lon="3.81421">
        <ele>53</ele>
        <time>2020-10-10T08:33:22.000Z</time>
      </trkpt>
      <trkpt lat="43.56256" lon="3.8142">
        <ele>53</ele>
        <time>2020-10-10T08:33:23.000Z</time>
      </trkpt>
      <trkpt lat="43.5626" lon="3.81418">
        <ele>53</ele>
        <time>2020-10-10T08:33:24.000Z</time>
      </trkpt>
      <trkpt lat="43.56263" lon="3.81418">
        <ele>53</ele>
        <time>2020-10-10T08:33:25.000Z</time>
      </trkpt>
      <trkpt lat="43.56265" lon="3.81419">
        <ele>53</ele>
        <time>2020-10-10T08:33:26.000Z</time>
      </trkpt>
      <trkpt lat="43.56267" lon="3.81419">
        <ele>53</ele>
        <time>2020-10-10T08:33:27.000Z</time>
      </trkpt>
      <trkpt lat="43.5627" lon="3.81421">
        <ele>53</ele>
        <time>2020-10-10T08:33:29.000Z</time>
      </trkpt>
      <trkpt lat="43.56273" lon="3.81423">
        <ele>53</ele>
        <time>2020-10-10T08:33:31.000Z</time>
      </trkpt>
      <trkpt lat="43.56275" lon="3.81425">
        <ele>53</ele>
        <time>2020-10-10T08:33:32.000Z</time>
      </trkpt>
      <trkpt lat="43.56276" lon="3.81428">
        <ele>53</ele>
        <time>2020-10-10T08:33:33.000Z</time>
      </trkpt>
      <trkpt lat="43.56276" lon="3.8143">
        <ele>53</ele>
        <time>2020-10-10T08:33:34.000Z</time>
      </trkpt>
      <trkpt lat="43.56274" lon="3.81433">
        <ele>53</ele>
        <time>2020-10-10T08:33:35.000Z</time>
      </trkpt>
      <trkpt lat="43.56273" lon="3.81435">
        <ele>53</ele>
        <time>2020-10-10T08:33:36.000Z</time>
      </trkpt>
      <trkpt lat="43.56271" lon="3.81437">
        <ele>53</ele>
        <time>2020-10-10T08:33:37.000Z</time>
      </trkpt>
      <trkpt lat="43.56269" lon="3.81438">
        <ele>53</ele>
        <time>2020-10-10T08:33:38.000Z</time>
      </trkpt>
      <trkpt lat="43.56266" lon="3.8144">
        <ele>53</ele>
        <time>2020-10-10T08:33:39.000Z</time>
      </trkpt>
      <trkpt lat="43.56264" lon="3.81442">
        <ele>53</ele>
        <time>2020-10-10T08:33:40.000Z</time>
      </trkpt>
      <trkpt lat="43.56262" lon="3.81443">
        <ele>53</ele>
        <time>2020-10-10T08:33:41.000Z</time>
      </trkpt>
      <trkpt lat="43.56259" lon="3.81445">
        <ele>53</ele>
        <time>2020-10-10T08:33:42.000Z</time>
      </trkpt>
      <trkpt lat="43.56257" lon="3.81447">
        <ele>53</ele>
        <time>2020-10-10T08:33:43.000Z</time>
      </trkpt>
      <trkpt lat="43.56254" lon="3.81448">
        <ele>53</ele>
        <time>2020-10-10T08:33:44.000Z</time>
      </trkpt>
      <trkpt lat="43.56252" lon="3.8145">
        <ele>53</ele>
        <time>2020-10-10T08:33:45.000Z</time>
      </trkpt>
      <trkpt lat="43.5625" lon="3.81451">
        <ele>53</ele>
        <time>2020-10-10T08:33:46.000Z</time>
      </trkpt>
      <trkpt lat="43.56248" lon="3.81453">
        <ele>53</ele>
        <time>2020-10-10T08:33:47.000Z</time>
      </trkpt>
      <trkpt lat="43.56246" lon="3.81455">
        <ele>53</ele>
        <time>2020-10-10T08:33:48.000Z</time>
      </trkpt>
      <trkpt lat="43.56244" lon="3.81457">
        <ele>53</ele>
        <time>2020-10-10T08:33:49.000Z</time>
      </trkpt>
      <trkpt lat="43.56242" lon="3.81459">
        <ele>52.97100032</ele>
        <time>2020-10-10T08:33:50.000Z</time>
      </trkpt>
      <trkpt lat="43.5624" lon="3.81461">
        <ele>52.87100032</ele>
        <time>2020-10-10T08:33:51.000Z</time>
      </trkpt>
      <trkpt lat="43.56238" lon="3.81463">
        <ele>52.77100032</ele>
        <time>2020-10-10T08:33:52.000Z</time>
      </trkpt>
      <trkpt lat="43.56236" lon="3.81466">
        <ele>52.67100032</ele>
        <time>2020-10-10T08:33:53.000Z</time>
      </trkpt>
      <trkpt lat="43.56235" lon="3.81469">
        <ele>52.57100032</ele>
        <time>2020-10-10T08:33:54.000Z</time>
      </trkpt>
      <trkpt lat="43.56233" lon="3.81472">
        <ele>52.47100032</ele>
        <time>2020-10-10T08:33:55.000Z</time>
      </trkpt>
      <trkpt lat="43.56232" lon="3.81475">
        <ele>52.37100032</ele>
        <time>2020-10-10T08:33:56.000Z</time>
      </trkpt>
      <trkpt lat="43.5623" lon="3.81478">
        <ele>52.27100032</ele>
        <time>2020-10-10T08:33:57.000Z</time>
      </trkpt>
      <trkpt lat="43.56229" lon="3.81481">
        <ele>52.17100032</ele>
        <time>2020-10-10T08:33:58.000Z</time>
      </trkpt>
      <trkpt lat="43.56228" lon="3.81485">
        <ele>52.07100032</ele>
        <time>2020-10-10T08:33:59.000Z</time>
      </trkpt>
      <trkpt lat="43.56226" lon="3.81488">
        <ele>51.970913049842</ele>
        <time>2020-10-10T08:34:00.000Z</time>
      </trkpt>
      <trkpt lat="43.56225" lon="3.81492">
        <ele>51.870612114941</ele>
        <time>2020-10-10T08:34:01.000Z</time>
      </trkpt>
      <trkpt lat="43.56223" lon="3.81497">
        <ele>51.77031118004</ele>
        <time>2020-10-10T08:34:02.000Z</time>
      </trkpt>
      <trkpt lat="43.56221" lon="3.81501">
        <ele>51.670010245139</ele>
        <time>2020-10-10T08:34:03.000Z</time>
      </trkpt>
      <trkpt lat="43.56219" lon="3.81505">
        <ele>51.569709310238</ele>
        <time>2020-10-10T08:34:04.000Z</time>
      </trkpt>
      <trkpt lat="43.56217" lon="3.81508">
        <ele>51.469408375337</ele>
        <time>2020-10-10T08:34:05.000Z</time>
      </trkpt>
      <trkpt lat="43.56215" lon="3.81512">
        <ele>51.369107440436</ele>
        <time>2020-10-10T08:34:06.000Z</time>
      </trkpt>
      <trkpt lat="43.56214" lon="3.81515">
        <ele>51.268806505535</ele>
        <time>2020-10-10T08:34:07.000Z</time>
      </trkpt>
      <trkpt lat="43.56212" lon="3.81519">
        <ele>51.168505570634</ele>
        <time>2020-10-10T08:34:08.000Z</time>
      </trkpt>
      <trkpt lat="43.56211" lon="3.81522">
        <ele>51.068204635733</ele>
        <time>2020-10-10T08:34:09.000Z</time>
      </trkpt>
      <trkpt lat="43.5621" lon="3.81525">
        <ele>50.936063915625</ele>
        <time>2020-10-10T08:34:10.000Z</time>
      </trkpt>
      <trkpt lat="43.56209" lon="3.81528">
        <ele>50.736263651952</ele>
        <time>2020-10-10T08:34:11.000Z</time>
      </trkpt>
      <trkpt lat="43.56207" lon="3.81531">
        <ele>50.53646338828</ele>
        <time>2020-10-10T08:34:12.000Z</time>
      </trkpt>
      <trkpt lat="43.56205" lon="3.81534">
        <ele>50.336663124608</ele>
        <time>2020-10-10T08:34:13.000Z</time>
      </trkpt>
      <trkpt lat="43.56204" lon="3.81537">
        <ele>50.136862860935</ele>
        <time>2020-10-10T08:34:14.000Z</time>
      </trkpt>
      <trkpt lat="43.56202" lon="3.81541">
        <ele>49.937062597263</ele>
        <time>2020-10-10T08:34:15.000Z</time>
      </trkpt>
      <trkpt lat="43.562" lon="3.81545">
        <ele>49.73726233359</ele>
        <time>2020-10-10T08:34:16.000Z</time>
      </trkpt>
      <trkpt lat="43.56199" lon="3.81549">
        <ele>49.537462069918</ele>
        <time>2020-10-10T08:34:17.000Z</time>
      </trkpt>
      <trkpt lat="43.56197" lon="3.81553">
        <ele>49.337661806245</ele>
        <time>2020-10-10T08:34:18.000Z</time>
      </trkpt>
      <trkpt lat="43.56196" lon="3.81557">
        <ele>49.137861542573</ele>
        <time>2020-10-10T08:34:19.000Z</time>
      </trkpt>
      <trkpt lat="43.56195" lon="3.81561">
        <ele>49</ele>
        <time>2020-10-10T08:34:20.000Z</time>
      </trkpt>
      <trkpt lat="43.56194" lon="3.81565">
        <ele>49</ele>
        <time>2020-10-10T08:34:21.000Z</time>
      </trkpt>
      <trkpt lat="43.56193" lon="3.81569">
        <ele>49</ele>
        <time>2020-10-10T08:34:22.000Z</time>
      </trkpt>
      <trkpt lat="43.56192" lon="3.81572">
        <ele>49</ele>
        <time>2020-10-10T08:34:23.000Z</time>
      </trkpt>
      <trkpt lat="43.56191" lon="3.81575">
        <ele>49</ele>
        <time>2020-10-10T08:34:24.000Z</time>
      </trkpt>
      <trkpt lat="43.56191" lon="3.81579">
        <ele>49</ele>
        <time>2020-10-10T08:34:25.000Z</time>
      </trkpt>
      <trkpt lat="43.5619" lon="3.81582">
        <ele>49</ele>
        <time>2020-10-10T08:34:26.000Z</time>
      </trkpt>
      <trkpt lat="43.56188" lon="3.81585">
        <ele>49</ele>
        <time>2020-10-10T08:34:27.000Z</time>
      </trkpt>
      <trkpt lat="43.56186" lon="3.81587">
        <ele>49</ele>
        <time>2020-10-10T08:34:28.000Z</time>
      </trkpt>
      <trkpt lat="43.56184" lon="3.81587">
        <ele>49</ele>
        <time>2020-10-10T08:34:29.000Z</time>
      </trkpt>
      <trkpt lat="43.56181" lon="3.81587">
        <ele>48.969061576647</ele>
        <time>2020-10-10T08:34:30.000Z</time>
      </trkpt>
      <trkpt lat="43.56179" lon="3.81587">
        <ele>48.86926124119</ele>
        <time>2020-10-10T08:34:31.000Z</time>
      </trkpt>
      <trkpt lat="43.56178" lon="3.81588">
        <ele>48.769460905734</ele>
        <time>2020-10-10T08:34:32.000Z</time>
      </trkpt>
      <trkpt lat="43.56176" lon="3.81588">
        <ele>48.669660570277</ele>
        <time>2020-10-10T08:34:33.000Z</time>
      </trkpt>
      <trkpt lat="43.56174" lon="3.81589">
        <ele>48.56986023482</ele>
        <time>2020-10-10T08:34:34.000Z</time>
      </trkpt>
      <trkpt lat="43.56172" lon="3.8159">
        <ele>48.470059899363</ele>
        <time>2020-10-10T08:34:35.000Z</time>
      </trkpt>
      <trkpt lat="43.5617" lon="3.81591">
        <ele>48.370259563906</ele>
        <time>2020-10-10T08:34:36.000Z</time>
      </trkpt>
      <trkpt lat="43.56168" lon="3.81592">
        <ele>48.270459228449</ele>
        <time>2020-10-10T08:34:37.000Z</time>
      </trkpt>
      <trkpt lat="43.56166" lon="3.81593">
        <ele>48.170658892992</ele>
        <time>2020-10-10T08:34:38.000Z</time>
      </trkpt>
      <trkpt lat="43.56164" lon="3.81594">
        <ele>48.070858557536</ele>
        <time>2020-10-10T08:34:39.000Z</time>
      </trkpt>
      <trkpt lat="43.56163" lon="3.81594">
        <ele>48</ele>
        <time>2020-10-10T08:34:45.000Z</time>
      </trkpt>
      <trkpt lat="43.5617" lon="3.81588">
        <ele>48</ele>
        <time>2020-10-10T08:35:04.000Z</time>
      </trkpt>
      <trkpt lat="43.56172" lon="3.81587">
        <ele>47.917793713754</ele>
        <time>2020-10-10T08:35:05.000Z</time>
      </trkpt>
      <trkpt lat="43.56174" lon="3.81586">
        <ele>47.813735545072</ele>
        <time>2020-10-10T08:35:06.000Z</time>
      </trkpt>
      <trkpt lat="43.56176" lon="3.81585">
        <ele>47.709677376389</ele>
        <time>2020-10-10T08:35:07.000Z</time>
      </trkpt>
      <trkpt lat="43.56178" lon="3.81585">
        <ele>47.605619207706</ele>
        <time>2020-10-10T08:35:08.000Z</time>
      </trkpt>
      <trkpt lat="43.5618" lon="3.81584">
        <ele>47.501561039023</ele>
        <time>2020-10-10T08:35:09.000Z</time>
      </trkpt>
      <trkpt lat="43.56182" lon="3.81583">
        <ele>47.397502870341</ele>
        <time>2020-10-10T08:35:10.000Z</time>
      </trkpt>
      <trkpt lat="43.56183" lon="3.81581">
        <ele>47.293444701658</ele>
        <time>2020-10-10T08:35:11.000Z</time>
      </trkpt>
      <trkpt lat="43.56185" lon="3.8158">
        <ele>47.189386532975</ele>
        <time>2020-10-10T08:35:12.000Z</time>
      </trkpt>
      <trkpt lat="43.56187" lon="3.81581">
        <ele>47</ele>
        <time>2020-10-10T08:35:14.000Z</time>
      </trkpt>
      <trkpt lat="43.56187" lon="3.81582">
        <ele>47</ele>
        <time>2020-10-10T08:35:19.000Z</time>
      </trkpt>
      <trkpt lat="43.56193" lon="3.81588">
        <ele>47</ele>
        <time>2020-10-10T08:35:26.000Z</time>
      </trkpt>
      <trkpt lat="43.56194" lon="3.8159">
        <ele>47</ele>
        <time>2020-10-10T08:35:27.000Z</time>
      </trkpt>
      <trkpt lat="43.56195" lon="3.81593">
        <ele>47</ele>
        <time>2020-10-10T08:35:28.000Z</time>
      </trkpt>
      <trkpt lat="43.56196" lon="3.81595">
        <ele>47</ele>
        <time>2020-10-10T08:35:29.000Z</time>
      </trkpt>
      <trkpt lat="43.56198" lon="3.81598">
        <ele>47</ele>
        <time>2020-10-10T08:35:30.000Z</time>
      </trkpt>
      <trkpt lat="43.562" lon="3.81602">
        <ele>47</ele>
        <time>2020-10-10T08:35:31.000Z</time>
      </trkpt>
      <trkpt lat="43.56202" lon="3.81605">
        <ele>47</ele>
        <time>2020-10-10T08:35:32.000Z</time>
      </trkpt>
      <trkpt lat="43.56204" lon="3.81608">
        <ele>47</ele>
        <time>2020-10-10T08:35:33.000Z</time>
      </trkpt>
      <trkpt lat="43.56206" lon="3.81612">
        <ele>47</ele>
        <time>2020-10-10T08:35:34.000Z</time>
      </trkpt>
      <trkpt lat="43.56209" lon="3.81616">
        <ele>47</ele>
        <time>2020-10-10T08:35:35.000Z</time>
      </trkpt>
      <trkpt lat="43.56211" lon="3.8162">
        <ele>46.96899968</ele>
        <time>2020-10-10T08:35:36.000Z</time>
      </trkpt>
      <trkpt lat="43.56213" lon="3.81625">
        <ele>46.86899968</ele>
        <time>2020-10-10T08:35:37.000Z</time>
      </trkpt>
      <trkpt lat="43.56214" lon="3.81629">
        <ele>46.76899968</ele>
        <time>2020-10-10T08:35:38.000Z</time>
      </trkpt>
      <trkpt lat="43.56215" lon="3.81633">
        <ele>46.66899968</ele>
        <time>2020-10-10T08:35:39.000Z</time>
      </trkpt>
      <trkpt lat="43.56216" lon="3.81636">
        <ele>46.56899968</ele>
        <time>2020-10-10T08:35:40.000Z</time>
      </trkpt>
      <trkpt lat="43.56217" lon="3.81639">
        <ele>46.46899968</ele>
        <time>2020-10-10T08:35:41.000Z</time>
      </trkpt>
      <trkpt lat="43.56219" lon="3.81642">
        <ele>46.26899968</ele>
        <time>2020-10-10T08:35:43.000Z</time>
      </trkpt>
      <trkpt lat="43.56219" lon="3.81643">
        <ele>46</ele>
        <time>2020-10-10T08:35:49.000Z</time>
      </trkpt>
      <trkpt lat="43.56224" lon="3.8165">
        <ele>46</ele>
        <time>2020-10-10T08:35:58.000Z</time>
      </trkpt>
      <trkpt lat="43.56226" lon="3.81652">
        <ele>46</ele>
        <time>2020-10-10T08:35:59.000Z</time>
      </trkpt>
      <trkpt lat="43.56228" lon="3.81654">
        <ele>46</ele>
        <time>2020-10-10T08:36:00.000Z</time>
      </trkpt>
      <trkpt lat="43.5623" lon="3.81656">
        <ele>46</ele>
        <time>2020-10-10T08:36:01.000Z</time>
      </trkpt>
      <trkpt lat="43.56233" lon="3.81658">
        <ele>46</ele>
        <time>2020-10-10T08:36:02.000Z</time>
      </trkpt>
      <trkpt lat="43.56235" lon="3.8166">
        <ele>46</ele>
        <time>2020-10-10T08:36:03.000Z</time>
      </trkpt>
      <trkpt lat="43.56238" lon="3.81661">
        <ele>46</ele>
        <time>2020-10-10T08:36:04.000Z</time>
      </trkpt>
      <trkpt lat="43.56241" lon="3.81663">
        <ele>46</ele>
        <time>2020-10-10T08:36:05.000Z</time>
      </trkpt>
      <trkpt lat="43.56243" lon="3.81665">
        <ele>46</ele>
        <time>2020-10-10T08:36:06.000Z</time>
      </trkpt>
      <trkpt lat="43.56246" lon="3.81666">
        <ele>46</ele>
        <time>2020-10-10T08:36:07.000Z</time>
      </trkpt>
      <trkpt lat="43.56248" lon="3.81668">
        <ele>45.969844046693</ele>
        <time>2020-10-10T08:36:08.000Z</time>
      </trkpt>
      <trkpt lat="43.56251" lon="3.8167">
        <ele>45.872567782101</ele>
        <time>2020-10-10T08:36:09.000Z</time>
      </trkpt>
      <trkpt lat="43.56254" lon="3.81672">
        <ele>45.77529151751</ele>
        <time>2020-10-10T08:36:10.000Z</time>
      </trkpt>
      <trkpt lat="43.56256" lon="3.81673">
        <ele>45.678015252918</ele>
        <time>2020-10-10T08:36:11.000Z</time>
      </trkpt>
      <trkpt lat="43.56257" lon="3.81674">
        <ele>45.580738988327</ele>
        <time>2020-10-10T08:36:12.000Z</time>
      </trkpt>
      <trkpt lat="43.56259" lon="3.81675">
        <ele>45.483462723735</ele>
        <time>2020-10-10T08:36:13.000Z</time>
      </trkpt>
      <trkpt lat="43.56261" lon="3.81677">
        <ele>45.386186459144</ele>
        <time>2020-10-10T08:36:14.000Z</time>
      </trkpt>
      <trkpt lat="43.56262" lon="3.81679">
        <ele>45.288910194552</ele>
        <time>2020-10-10T08:36:15.000Z</time>
      </trkpt>
      <trkpt lat="43.56264" lon="3.81681">
        <ele>45.191633929961</ele>
        <time>2020-10-10T08:36:16.000Z</time>
      </trkpt>
      <trkpt lat="43.56266" lon="3.81683">
        <ele>45.09435766537</ele>
        <time>2020-10-10T08:36:17.000Z</time>
      </trkpt>
      <trkpt lat="43.56268" lon="3.81685">
        <ele>44.996913251029</ele>
        <time>2020-10-10T08:36:18.000Z</time>
      </trkpt>
      <trkpt lat="43.5627" lon="3.81687">
        <ele>44.894032592593</ele>
        <time>2020-10-10T08:36:19.000Z</time>
      </trkpt>
      <trkpt lat="43.56272" lon="3.81688">
        <ele>44.791151934156</ele>
        <time>2020-10-10T08:36:20.000Z</time>
      </trkpt>
      <trkpt lat="43.56275" lon="3.81688">
        <ele>44.68827127572</ele>
        <time>2020-10-10T08:36:21.000Z</time>
      </trkpt>
      <trkpt lat="43.56278" lon="3.81689">
        <ele>44.585390617284</ele>
        <time>2020-10-10T08:36:22.000Z</time>
      </trkpt>
      <trkpt lat="43.56281" lon="3.81691">
        <ele>44.482509958848</ele>
        <time>2020-10-10T08:36:23.000Z</time>
      </trkpt>
      <trkpt lat="43.56283" lon="3.81693">
        <ele>44.379629300412</ele>
        <time>2020-10-10T08:36:24.000Z</time>
      </trkpt>
      <trkpt lat="43.56285" lon="3.81695">
        <ele>44.276748641975</ele>
        <time>2020-10-10T08:36:25.000Z</time>
      </trkpt>
      <trkpt lat="43.56288" lon="3.81697">
        <ele>44.173867983539</ele>
        <time>2020-10-10T08:36:26.000Z</time>
      </trkpt>
      <trkpt lat="43.5629" lon="3.81699">
        <ele>44.070987325103</ele>
        <time>2020-10-10T08:36:27.000Z</time>
      </trkpt>
      <trkpt lat="43.56292" lon="3.817">
        <ele>43.968968658589</ele>
        <time>2020-10-10T08:36:28.000Z</time>
      </trkpt>
      <trkpt lat="43.56294" lon="3.81702">
        <ele>43.868868590553</ele>
        <time>2020-10-10T08:36:29.000Z</time>
      </trkpt>
      <trkpt lat="43.56295" lon="3.81703">
        <ele>43.768768522517</ele>
        <time>2020-10-10T08:36:30.000Z</time>
      </trkpt>
      <trkpt lat="43.56297" lon="3.81705">
        <ele>43.668668454481</ele>
        <time>2020-10-10T08:36:31.000Z</time>
      </trkpt>
      <trkpt lat="43.56298" lon="3.81707">
        <ele>43.568568386445</ele>
        <time>2020-10-10T08:36:32.000Z</time>
      </trkpt>
      <trkpt lat="43.56299" lon="3.81709">
        <ele>43.468468318408</ele>
        <time>2020-10-10T08:36:33.000Z</time>
      </trkpt>
      <trkpt lat="43.563" lon="3.81713">
        <ele>43.368368250372</ele>
        <time>2020-10-10T08:36:34.000Z</time>
      </trkpt>
      <trkpt lat="43.56301" lon="3.81716">
        <ele>43.268268182336</ele>
        <time>2020-10-10T08:36:35.000Z</time>
      </trkpt>
      <trkpt lat="43.56303" lon="3.8172">
        <ele>43.1681681143</ele>
        <time>2020-10-10T08:36:36.000Z</time>
      </trkpt>
      <trkpt lat="43.56304" lon="3.81724">
        <ele>43.068068046265</ele>
        <time>2020-10-10T08:36:37.000Z</time>
      </trkpt>
      <trkpt lat="43.56304" lon="3.81728">
        <ele>42.968031957812</ele>
        <time>2020-10-10T08:36:38.000Z</time>
      </trkpt>
      <trkpt lat="43.56303" lon="3.81731">
        <ele>42.868131825976</ele>
        <time>2020-10-10T08:36:39.000Z</time>
      </trkpt>
      <trkpt lat="43.56301" lon="3.81735">
        <ele>42.76823169414</ele>
        <time>2020-10-10T08:36:40.000Z</time>
      </trkpt>
      <trkpt lat="43.56299" lon="3.81737">
        <ele>42.668331562304</ele>
        <time>2020-10-10T08:36:41.000Z</time>
      </trkpt>
      <trkpt lat="43.56297" lon="3.8174">
        <ele>42.568431430468</ele>
        <time>2020-10-10T08:36:42.000Z</time>
      </trkpt>
      <trkpt lat="43.56295" lon="3.81743">
        <ele>42.468531298631</ele>
        <time>2020-10-10T08:36:43.000Z</time>
      </trkpt>
      <trkpt lat="43.56293" lon="3.81747">
        <ele>42.368631166795</ele>
        <time>2020-10-10T08:36:44.000Z</time>
      </trkpt>
      <trkpt lat="43.56291" lon="3.8175">
        <ele>42.268731034959</ele>
        <time>2020-10-10T08:36:45.000Z</time>
      </trkpt>
      <trkpt lat="43.5629" lon="3.81754">
        <ele>42.168830903123</ele>
        <time>2020-10-10T08:36:46.000Z</time>
      </trkpt>
      <trkpt lat="43.56289" lon="3.81758">
        <ele>42.068930771287</ele>
        <time>2020-10-10T08:36:47.000Z</time>
      </trkpt>
      <trkpt lat="43.56288" lon="3.81763">
        <ele>41.93799936</ele>
        <time>2020-10-10T08:36:48.000Z</time>
      </trkpt>
      <trkpt lat="43.56286" lon="3.81768">
        <ele>41.73799936</ele>
        <time>2020-10-10T08:36:49.000Z</time>
      </trkpt>
      <trkpt lat="43.56284" lon="3.81773">
        <ele>41.53799936</ele>
        <time>2020-10-10T08:36:50.000Z</time>
      </trkpt>
      <trkpt lat="43.56282" lon="3.81778">
        <ele>41.33799936</ele>
        <time>2020-10-10T08:36:51.000Z</time>
      </trkpt>
      <trkpt lat="43.5628" lon="3.81784">
        <ele>41.13799936</ele>
        <time>2020-10-10T08:36:52.000Z</time>
      </trkpt>
      <trkpt lat="43.56279" lon="3.81789">
        <ele>40.93799936</ele>
        <time>2020-10-10T08:36:53.000Z</time>
      </trkpt>
      <trkpt lat="43.56277" lon="3.81795">
        <ele>40.73799936</ele>
        <time>2020-10-10T08:36:54.000Z</time>
      </trkpt>
      <trkpt lat="43.56276" lon="3.81801">
        <ele>40.53799936</ele>
        <time>2020-10-10T08:36:55.000Z</time>
      </trkpt>
      <trkpt lat="43.56275" lon="3.81807">
        <ele>40.33799936</ele>
        <time>2020-10-10T08:36:56.000Z</time>
      </trkpt>
      <trkpt lat="43.56275" lon="3.81813">
        <ele>40.13799936</ele>
        <time>2020-10-10T08:36:57.000Z</time>
      </trkpt>
      <trkpt lat="43.56273" lon="3.81819">
        <ele>40</ele>
        <time>2020-10-10T08:36:58.000Z</time>
      </trkpt>
      <trkpt lat="43.56272" lon="3.81824">
        <ele>40</ele>
        <time>2020-10-10T08:36:59.000Z</time>
      </trkpt>
      <trkpt lat="43.56269" lon="3.81829">
        <ele>40</ele>
        <time>2020-10-10T08:37:00.000Z</time>
      </trkpt>
      <trkpt lat="43.56267" lon="3.81833">
        <ele>40</ele>
        <time>2020-10-10T08:37:01.000Z</time>
      </trkpt>
      <trkpt lat="43.56264" lon="3.81836">
        <ele>40</ele>
        <time>2020-10-10T08:37:02.000Z</time>
      </trkpt>
      <trkpt lat="43.56262" lon="3.81839">
        <ele>40</ele>
        <time>2020-10-10T08:37:03.000Z</time>
      </trkpt>
      <trkpt lat="43.56261" lon="3.81842">
        <ele>40</ele>
        <time>2020-10-10T08:37:04.000Z</time>
      </trkpt>
      <trkpt lat="43.5626" lon="3.81846">
        <ele>40</ele>
        <time>2020-10-10T08:37:05.000Z</time>
      </trkpt>
      <trkpt lat="43.56258" lon="3.81849">
        <ele>40</ele>
        <time>2020-10-10T08:37:06.000Z</time>
      </trkpt>
      <trkpt lat="43.56257" lon="3.81853">
        <ele>40</ele>
        <time>2020-10-10T08:37:07.000Z</time>
      </trkpt>
      <trkpt lat="43.56256" lon="3.81857">
        <ele>40</ele>
        <time>2020-10-10T08:37:08.000Z</time>
      </trkpt>
      <trkpt lat="43.56255" lon="3.8186">
        <ele>40</ele>
        <time>2020-10-10T08:37:09.000Z</time>
      </trkpt>
      <trkpt lat="43.56253" lon="3.81863">
        <ele>40</ele>
        <time>2020-10-10T08:37:10.000Z</time>
      </trkpt>
      <trkpt lat="43.56251" lon="3.81867">
        <ele>40</ele>
        <time>2020-10-10T08:37:11.000Z</time>
      </trkpt>
      <trkpt lat="43.56248" lon="3.81871">
        <ele>40</ele>
        <time>2020-10-10T08:37:12.000Z</time>
      </trkpt>
      <trkpt lat="43.56246" lon="3.81874">
        <ele>40</ele>
        <time>2020-10-10T08:37:13.000Z</time>
      </trkpt>
      <trkpt lat="43.56243" lon="3.81878">
        <ele>40</ele>
        <time>2020-10-10T08:37:14.000Z</time>
      </trkpt>
      <trkpt lat="43.56241" lon="3.81882">
        <ele>40</ele>
        <time>2020-10-10T08:37:15.000Z</time>
      </trkpt>
      <trkpt lat="43.5624" lon="3.81886">
        <ele>40</ele>
        <time>2020-10-10T08:37:16.000Z</time>
      </trkpt>
      <trkpt lat="43.56239" lon="3.8189">
        <ele>40</ele>
        <time>2020-10-10T08:37:17.000Z</time>
      </trkpt>
      <trkpt lat="43.56237" lon="3.81894">
        <ele>39.96899968</ele>
        <time>2020-10-10T08:37:18.000Z</time>
      </trkpt>
      <trkpt lat="43.56235" lon="3.81898">
        <ele>39.86899968</ele>
        <time>2020-10-10T08:37:19.000Z</time>
      </trkpt>
      <trkpt lat="43.56233" lon="3.81902">
        <ele>39.76899968</ele>
        <time>2020-10-10T08:37:20.000Z</time>
      </trkpt>
      <trkpt lat="43.56231" lon="3.81906">
        <ele>39.66899968</ele>
        <time>2020-10-10T08:37:21.000Z</time>
      </trkpt>
      <trkpt lat="43.5623" lon="3.8191">
        <ele>39.56899968</ele>
        <time>2020-10-10T08:37:22.000Z</time>
      </trkpt>
      <trkpt lat="43.56229" lon="3.81914">
        <ele>39.46899968</ele>
        <time>2020-10-10T08:37:23.000Z</time>
      </trkpt>
      <trkpt lat="43.56229" lon="3.81919">
        <ele>39.36899968</ele>
        <time>2020-10-10T08:37:24.000Z</time>
      </trkpt>
      <trkpt lat="43.56228" lon="3.81922">
        <ele>39.26899968</ele>
        <time>2020-10-10T08:37:25.000Z</time>
      </trkpt>
      <trkpt lat="43.56227" lon="3.81926">
        <ele>39.16899968</ele>
        <time>2020-10-10T08:37:26.000Z</time>
      </trkpt>
      <trkpt lat="43.56225" lon="3.81929">
        <ele>39.06899968</ele>
        <time>2020-10-10T08:37:27.000Z</time>
      </trkpt>
      <trkpt lat="43.56224" lon="3.81932">
        <ele>38.969061576647</ele>
        <time>2020-10-10T08:37:28.000Z</time>
      </trkpt>
      <trkpt lat="43.56222" lon="3.81935">
        <ele>38.86926124119</ele>
        <time>2020-10-10T08:37:29.000Z</time>
      </trkpt>
      <trkpt lat="43.56221" lon="3.81939">
        <ele>38.769460905734</ele>
        <time>2020-10-10T08:37:30.000Z</time>
      </trkpt>
      <trkpt lat="43.56219" lon="3.81943">
        <ele>38.669660570277</ele>
        <time>2020-10-10T08:37:31.000Z</time>
      </trkpt>
      <trkpt lat="43.56217" lon="3.81948">
        <ele>38.56986023482</ele>
        <time>2020-10-10T08:37:32.000Z</time>
      </trkpt>
      <trkpt lat="43.56216" lon="3.81952">
        <ele>38.470059899363</ele>
        <time>2020-10-10T08:37:33.000Z</time>
      </trkpt>
      <trkpt lat="43.56214" lon="3.81956">
        <ele>38.370259563906</ele>
        <time>2020-10-10T08:37:34.000Z</time>
      </trkpt>
      <trkpt lat="43.56213" lon="3.81961">
        <ele>38.270459228449</ele>
        <time>2020-10-10T08:37:35.000Z</time>
      </trkpt>
      <trkpt lat="43.56212" lon="3.81966">
        <ele>38.170658892992</ele>
        <time>2020-10-10T08:37:36.000Z</time>
      </trkpt>
      <trkpt lat="43.56211" lon="3.8197">
        <ele>38.070858557536</ele>
        <time>2020-10-10T08:37:37.000Z</time>
      </trkpt>
      <trkpt lat="43.5621" lon="3.81974">
        <ele>38</ele>
        <time>2020-10-10T08:37:38.000Z</time>
      </trkpt>
      <trkpt lat="43.5621" lon="3.81978">
        <ele>38</ele>
        <time>2020-10-10T08:37:39.000Z</time>
      </trkpt>
      <trkpt lat="43.56209" lon="3.81982">
        <ele>38</ele>
        <time>2020-10-10T08:37:40.000Z</time>
      </trkpt>
      <trkpt lat="43.56207" lon="3.81986">
        <ele>38</ele>
        <time>2020-10-10T08:37:41.000Z</time>
      </trkpt>
      <trkpt lat="43.56206" lon="3.81991">
        <ele>38</ele>
        <time>2020-10-10T08:37:42.000Z</time>
      </trkpt>
      <trkpt lat="43.56205" lon="3.81995">
        <ele>38</ele>
        <time>2020-10-10T08:37:43.000Z</time>
      </trkpt>
      <trkpt lat="43.56204" lon="3.82">
        <ele>38</ele>
        <time>2020-10-10T08:37:44.000Z</time>
      </trkpt>
      <trkpt lat="43.56203" lon="3.82004">
        <ele>38</ele>
        <time>2020-10-10T08:37:45.000Z</time>
      </trkpt>
      <trkpt lat="43.56202" lon="3.82009">
        <ele>38</ele>
        <time>2020-10-10T08:37:46.000Z</time>
      </trkpt>
      <trkpt lat="43.56201" lon="3.82013">
        <ele>38</ele>
        <time>2020-10-10T08:37:47.000Z</time>
      </trkpt>
      <trkpt lat="43.56201" lon="3.82018">
        <ele>37.936063915625</ele>
        <time>2020-10-10T08:37:48.000Z</time>
      </trkpt>
      <trkpt lat="43.56201" lon="3.82021">
        <ele>37.736263651952</ele>
        <time>2020-10-10T08:37:49.000Z</time>
      </trkpt>
      <trkpt lat="43.56201" lon="3.82025">
        <ele>37.53646338828</ele>
        <time>2020-10-10T08:37:50.000Z</time>
      </trkpt>
      <trkpt lat="43.562" lon="3.82029">
        <ele>37.336663124608</ele>
        <time>2020-10-10T08:37:51.000Z</time>
      </trkpt>
      <trkpt lat="43.562" lon="3.82032">
        <ele>37.136862860935</ele>
        <time>2020-10-10T08:37:52.000Z</time>
      </trkpt>
      <trkpt lat="43.562" lon="3.82036">
        <ele>36.937062597263</ele>
        <time>2020-10-10T08:37:53.000Z</time>
      </trkpt>
      <trkpt lat="43.56199" lon="3.82039">
        <ele>36.73726233359</ele>
        <time>2020-10-10T08:37:54.000Z</time>
      </trkpt>
      <trkpt lat="43.56197" lon="3.82043">
        <ele>36.537462069918</ele>
        <time>2020-10-10T08:37:55.000Z</time>
      </trkpt>
      <trkpt lat="43.56197" lon="3.82046">
        <ele>36.337661806245</ele>
        <time>2020-10-10T08:37:56.000Z</time>
      </trkpt>
      <trkpt lat="43.56196" lon="3.82049">
        <ele>36.137861542573</ele>
        <time>2020-10-10T08:37:57.000Z</time>
      </trkpt>
      <trkpt lat="43.56195" lon="3.82052">
        <ele>35.96899968</ele>
        <time>2020-10-10T08:37:58.000Z</time>
      </trkpt>
      <trkpt lat="43.56194" lon="3.82054">
        <ele>35.86899968</ele>
        <time>2020-10-10T08:37:59.000Z</time>
      </trkpt>
      <trkpt lat="43.56193" lon="3.82057">
        <ele>35.76899968</ele>
        <time>2020-10-10T08:38:00.000Z</time>
      </trkpt>
      <trkpt lat="43.56192" lon="3.8206">
        <ele>35.66899968</ele>
        <time>2020-10-10T08:38:01.000Z</time>
      </trkpt>
      <trkpt lat="43.56191" lon="3.82063">
        <ele>35.56899968</ele>
        <time>2020-10-10T08:38:02.000Z</time>
      </trkpt>
      <trkpt lat="43.56189" lon="3.82066">
        <ele>35.46899968</ele>
        <time>2020-10-10T08:38:03.000Z</time>
      </trkpt>
      <trkpt lat="43.56188" lon="3.8207">
        <ele>35.36899968</ele>
        <time>2020-10-10T08:38:04.000Z</time>
      </trkpt>
      <trkpt lat="43.56188" lon="3.82074">
        <ele>35.26899968</ele>
        <time>2020-10-10T08:38:05.000Z</time>
      </trkpt>
      <trkpt lat="43.56186" lon="3.82078">
        <ele>35.16899968</ele>
        <time>2020-10-10T08:38:06.000Z</time>
      </trkpt>
      <trkpt lat="43.56184" lon="3.82081">
        <ele>35.06899968</ele>
        <time>2020-10-10T08:38:07.000Z</time>
      </trkpt>
      <trkpt lat="43.56182" lon="3.82083">
        <ele>34.96899968</ele>
        <time>2020-10-10T08:38:08.000Z</time>
      </trkpt>
      <trkpt lat="43.5618" lon="3.82086">
        <ele>34.86899968</ele>
        <time>2020-10-10T08:38:09.000Z</time>
      </trkpt>
      <trkpt lat="43.56178" lon="3.82088">
        <ele>34.76899968</ele>
        <time>2020-10-10T08:38:10.000Z</time>
      </trkpt>
      <trkpt lat="43.56176" lon="3.8209">
        <ele>34.66899968</ele>
        <time>2020-10-10T08:38:11.000Z</time>
      </trkpt>
      <trkpt lat="43.56174" lon="3.82092">
        <ele>34.56899968</ele>
        <time>2020-10-10T08:38:12.000Z</time>
      </trkpt>
      <trkpt lat="43.56173" lon="3.82095">
        <ele>34.46899968</ele>
        <time>2020-10-10T08:38:13.000Z</time>
      </trkpt>
      <trkpt lat="43.56172" lon="3.82097">
        <ele>34.36899968</ele>
        <time>2020-10-10T08:38:14.000Z</time>
      </trkpt>
      <trkpt lat="43.56172" lon="3.821">
        <ele>34.16899968</ele>
        <time>2020-10-10T08:38:16.000Z</time>
      </trkpt>
      <trkpt lat="43.56175" lon="3.82103">
        <ele>33.96899968</ele>
        <time>2020-10-10T08:38:18.000Z</time>
      </trkpt>
      <trkpt lat="43.56177" lon="3.82105">
        <ele>33.86899968</ele>
        <time>2020-10-10T08:38:19.000Z</time>
      </trkpt>
      <trkpt lat="43.56177" lon="3.82107">
        <ele>33.76899968</ele>
        <time>2020-10-10T08:38:20.000Z</time>
      </trkpt>
      <trkpt lat="43.56177" lon="3.82111">
        <ele>33.66899968</ele>
        <time>2020-10-10T08:38:21.000Z</time>
      </trkpt>
      <trkpt lat="43.56177" lon="3.82115">
        <ele>33.56899968</ele>
        <time>2020-10-10T08:38:22.000Z</time>
      </trkpt>
      <trkpt lat="43.56177" lon="3.82119">
        <ele>33.46899968</ele>
        <time>2020-10-10T08:38:23.000Z</time>
      </trkpt>
      <trkpt lat="43.56176" lon="3.82123">
        <ele>33.36899968</ele>
        <time>2020-10-10T08:38:24.000Z</time>
      </trkpt>
      <trkpt lat="43.56175" lon="3.82127">
        <ele>33.26899968</ele>
        <time>2020-10-10T08:38:25.000Z</time>
      </trkpt>
      <trkpt lat="43.56174" lon="3.8213">
        <ele>33.16899968</ele>
        <time>2020-10-10T08:38:26.000Z</time>
      </trkpt>
      <trkpt lat="43.56173" lon="3.82134">
        <ele>33.06899968</ele>
        <time>2020-10-10T08:38:27.000Z</time>
      </trkpt>
      <trkpt lat="43.56172" lon="3.82137">
        <ele>33.031031341411</ele>
        <time>2020-10-10T08:38:28.000Z</time>
      </trkpt>
      <trkpt lat="43.5617" lon="3.82141">
        <ele>33.131131409447</ele>
        <time>2020-10-10T08:38:29.000Z</time>
      </trkpt>
      <trkpt lat="43.5617" lon="3.82144">
        <ele>33.231231477483</ele>
        <time>2020-10-10T08:38:30.000Z</time>
      </trkpt>
      <trkpt lat="43.56169" lon="3.82147">
        <ele>33.331331545519</ele>
        <time>2020-10-10T08:38:31.000Z</time>
      </trkpt>
      <trkpt lat="43.56168" lon="3.82151">
        <ele>33.431431613555</ele>
        <time>2020-10-10T08:38:32.000Z</time>
      </trkpt>
      <trkpt lat="43.56167" lon="3.82155">
        <ele>33.531531681592</ele>
        <time>2020-10-10T08:38:33.000Z</time>
      </trkpt>
      <trkpt lat="43.56166" lon="3.82159">
        <ele>33.631631749628</ele>
        <time>2020-10-10T08:38:34.000Z</time>
      </trkpt>
      <trkpt lat="43.56165" lon="3.82163">
        <ele>33.731731817664</ele>
        <time>2020-10-10T08:38:35.000Z</time>
      </trkpt>
      <trkpt lat="43.56163" lon="3.82167">
        <ele>33.8318318857</ele>
        <time>2020-10-10T08:38:36.000Z</time>
      </trkpt>
      <trkpt lat="43.56162" lon="3.82172">
        <ele>33.931931953735</ele>
        <time>2020-10-10T08:38:37.000Z</time>
      </trkpt>
      <trkpt lat="43.56161" lon="3.82176">
        <ele>33.96809572304</ele>
        <time>2020-10-10T08:38:38.000Z</time>
      </trkpt>
      <trkpt lat="43.56159" lon="3.8218">
        <ele>33.868394857541</ele>
        <time>2020-10-10T08:38:39.000Z</time>
      </trkpt>
      <trkpt lat="43.56157" lon="3.82184">
        <ele>33.768693992042</ele>
        <time>2020-10-10T08:38:40.000Z</time>
      </trkpt>
      <trkpt lat="43.56155" lon="3.82188">
        <ele>33.668993126543</ele>
        <time>2020-10-10T08:38:41.000Z</time>
      </trkpt>
      <trkpt lat="43.56153" lon="3.82192">
        <ele>33.569292261043</ele>
        <time>2020-10-10T08:38:42.000Z</time>
      </trkpt>
      <trkpt lat="43.56152" lon="3.82196">
        <ele>33.469591395544</ele>
        <time>2020-10-10T08:38:43.000Z</time>
      </trkpt>
      <trkpt lat="43.5615" lon="3.822">
        <ele>33.369890530045</ele>
        <time>2020-10-10T08:38:44.000Z</time>
      </trkpt>
      <trkpt lat="43.56149" lon="3.82204">
        <ele>33.270189664546</ele>
        <time>2020-10-10T08:38:45.000Z</time>
      </trkpt>
      <trkpt lat="43.56148" lon="3.82208">
        <ele>33.170488799046</ele>
        <time>2020-10-10T08:38:46.000Z</time>
      </trkpt>
      <trkpt lat="43.56147" lon="3.82211">
        <ele>33.070787933547</ele>
        <time>2020-10-10T08:38:47.000Z</time>
      </trkpt>
      <trkpt lat="43.56146" lon="3.82215">
        <ele>33</ele>
        <time>2020-10-10T08:38:48.000Z</time>
      </trkpt>
      <trkpt lat="43.56145" lon="3.82218">
        <ele>33</ele>
        <time>2020-10-10T08:38:49.000Z</time>
      </trkpt>
      <trkpt lat="43.56144" lon="3.82221">
        <ele>33</ele>
        <time>2020-10-10T08:38:50.000Z</time>
      </trkpt>
      <trkpt lat="43.56143" lon="3.82225">
        <ele>33</ele>
        <time>2020-10-10T08:38:51.000Z</time>
      </trkpt>
      <trkpt lat="43.56142" lon="3.82228">
        <ele>33</ele>
        <time>2020-10-10T08:38:52.000Z</time>
      </trkpt>
      <trkpt lat="43.56141" lon="3.82232">
        <ele>33</ele>
        <time>2020-10-10T08:38:53.000Z</time>
      </trkpt>
      <trkpt lat="43.5614" lon="3.82235">
        <ele>33</ele>
        <time>2020-10-10T08:38:54.000Z</time>
      </trkpt>
      <trkpt lat="43.56138" lon="3.82239">
        <ele>33</ele>
        <time>2020-10-10T08:38:55.000Z</time>
      </trkpt>
      <trkpt lat="43.56137" lon="3.82242">
        <ele>33</ele>
        <time>2020-10-10T08:38:56.000Z</time>
      </trkpt>
      <trkpt lat="43.56136" lon="3.82245">
        <ele>33</ele>
        <time>2020-10-10T08:38:57.000Z</time>
      </trkpt>
      <trkpt lat="43.56135" lon="3.82248">
        <ele>33</ele>
        <time>2020-10-10T08:38:58.000Z</time>
      </trkpt>
      <trkpt lat="43.56134" lon="3.82251">
        <ele>33</ele>
        <time>2020-10-10T08:38:59.000Z</time>
      </trkpt>
      <trkpt lat="43.56133" lon="3.82254">
        <ele>33</ele>
        <time>2020-10-10T08:39:00.000Z</time>
      </trkpt>
      <trkpt lat="43.56132" lon="3.82256">
        <ele>33</ele>
        <time>2020-10-10T08:39:01.000Z</time>
      </trkpt>
      <trkpt lat="43.5613" lon="3.82259">
        <ele>33</ele>
        <time>2020-10-10T08:39:02.000Z</time>
      </trkpt>
      <trkpt lat="43.56129" lon="3.82263">
        <ele>33</ele>
        <time>2020-10-10T08:39:03.000Z</time>
      </trkpt>
      <trkpt lat="43.56128" lon="3.82266">
        <ele>33</ele>
        <time>2020-10-10T08:39:04.000Z</time>
      </trkpt>
      <trkpt lat="43.56127" lon="3.8227">
        <ele>33</ele>
        <time>2020-10-10T08:39:05.000Z</time>
      </trkpt>
      <trkpt lat="43.56125" lon="3.82273">
        <ele>33</ele>
        <time>2020-10-10T08:39:06.000Z</time>
      </trkpt>
      <trkpt lat="43.56123" lon="3.82276">
        <ele>33</ele>
        <time>2020-10-10T08:39:07.000Z</time>
      </trkpt>
      <trkpt lat="43.56121" lon="3.82279">
        <ele>33</ele>
        <time>2020-10-10T08:39:08.000Z</time>
      </trkpt>
      <trkpt lat="43.56118" lon="3.82282">
        <ele>33</ele>
        <time>2020-10-10T08:39:09.000Z</time>
      </trkpt>
      <trkpt lat="43.56115" lon="3.82284">
        <ele>33</ele>
        <time>2020-10-10T08:39:10.000Z</time>
      </trkpt>
      <trkpt lat="43.56112" lon="3.82286">
        <ele>33</ele>
        <time>2020-10-10T08:39:11.000Z</time>
      </trkpt>
      <trkpt lat="43.56109" lon="3.82286">
        <ele>33</ele>
        <time>2020-10-10T08:39:12.000Z</time>
      </trkpt>
      <trkpt lat="43.56106" lon="3.82286">
        <ele>33</ele>
        <time>2020-10-10T08:39:13.000Z</time>
      </trkpt>
      <trkpt lat="43.56103" lon="3.82286">
        <ele>33</ele>
        <time>2020-10-10T08:39:14.000Z</time>
      </trkpt>
      <trkpt lat="43.56101" lon="3.82285">
        <ele>33</ele>
        <time>2020-10-10T08:39:15.000Z</time>
      </trkpt>
      <trkpt lat="43.56098" lon="3.82284">
        <ele>33</ele>
        <time>2020-10-10T08:39:16.000Z</time>
      </trkpt>
      <trkpt lat="43.56096" lon="3.82283">
        <ele>33</ele>
        <time>2020-10-10T08:39:17.000Z</time>
      </trkpt>
      <trkpt lat="43.56093" lon="3.82281">
        <ele>33.030068196293</ele>
        <time>2020-10-10T08:39:18.000Z</time>
      </trkpt>
      <trkpt lat="43.56091" lon="3.8228">
        <ele>33.127061376664</ele>
        <time>2020-10-10T08:39:19.000Z</time>
      </trkpt>
      <trkpt lat="43.56089" lon="3.82279">
        <ele>33.224054557034</ele>
        <time>2020-10-10T08:39:20.000Z</time>
      </trkpt>
      <trkpt lat="43.56086" lon="3.82278">
        <ele>33.321047737405</ele>
        <time>2020-10-10T08:39:21.000Z</time>
      </trkpt>
      <trkpt lat="43.56084" lon="3.82278">
        <ele>33.418040917776</ele>
        <time>2020-10-10T08:39:22.000Z</time>
      </trkpt>
      <trkpt lat="43.56082" lon="3.82278">
        <ele>33.515034098147</ele>
        <time>2020-10-10T08:39:23.000Z</time>
      </trkpt>
      <trkpt lat="43.5608" lon="3.82277">
        <ele>33.612027278517</ele>
        <time>2020-10-10T08:39:24.000Z</time>
      </trkpt>
      <trkpt lat="43.56078" lon="3.82276">
        <ele>33.709020458888</ele>
        <time>2020-10-10T08:39:25.000Z</time>
      </trkpt>
      <trkpt lat="43.56076" lon="3.82276">
        <ele>33.806013639259</ele>
        <time>2020-10-10T08:39:26.000Z</time>
      </trkpt>
      <trkpt lat="43.56073" lon="3.82275">
        <ele>33.903006819629</ele>
        <time>2020-10-10T08:39:27.000Z</time>
      </trkpt>
      <trkpt lat="43.56071" lon="3.82273">
        <ele>34</ele>
        <time>2020-10-10T08:39:28.000Z</time>
      </trkpt>
      <trkpt lat="43.56069" lon="3.82272">
        <ele>34.103305785124</ele>
        <time>2020-10-10T08:39:29.000Z</time>
      </trkpt>
      <trkpt lat="43.56067" lon="3.82272">
        <ele>34.206611570248</ele>
        <time>2020-10-10T08:39:30.000Z</time>
      </trkpt>
      <trkpt lat="43.56065" lon="3.82272">
        <ele>34.309917355372</ele>
        <time>2020-10-10T08:39:31.000Z</time>
      </trkpt>
      <trkpt lat="43.56063" lon="3.82272">
        <ele>34.413223140496</ele>
        <time>2020-10-10T08:39:32.000Z</time>
      </trkpt>
      <trkpt lat="43.56061" lon="3.82271">
        <ele>34.51652892562</ele>
        <time>2020-10-10T08:39:33.000Z</time>
      </trkpt>
      <trkpt lat="43.56059" lon="3.8227">
        <ele>34.619834710744</ele>
        <time>2020-10-10T08:39:34.000Z</time>
      </trkpt>
      <trkpt lat="43.56058" lon="3.82269">
        <ele>34.723140495868</ele>
        <time>2020-10-10T08:39:35.000Z</time>
      </trkpt>
      <trkpt lat="43.56056" lon="3.82268">
        <ele>34.826446280992</ele>
        <time>2020-10-10T08:39:36.000Z</time>
      </trkpt>
      <trkpt lat="43.56055" lon="3.82266">
        <ele>34.929752066116</ele>
        <time>2020-10-10T08:39:37.000Z</time>
      </trkpt>
      <trkpt lat="43.56051" lon="3.82264">
        <ele>35.132</ele>
        <time>2020-10-10T08:39:39.000Z</time>
      </trkpt>
      <trkpt lat="43.56048" lon="3.82263">
        <ele>35.332</ele>
        <time>2020-10-10T08:39:41.000Z</time>
      </trkpt>
      <trkpt lat="43.56046" lon="3.82263">
        <ele>35.432</ele>
        <time>2020-10-10T08:39:42.000Z</time>
      </trkpt>
      <trkpt lat="43.56044" lon="3.82263">
        <ele>35.532</ele>
        <time>2020-10-10T08:39:43.000Z</time>
      </trkpt>
      <trkpt lat="43.56042" lon="3.82262">
        <ele>35.632</ele>
        <time>2020-10-10T08:39:44.000Z</time>
      </trkpt>
      <trkpt lat="43.56038" lon="3.82261">
        <ele>35.832</ele>
        <time>2020-10-10T08:39:46.000Z</time>
      </trkpt>
      <trkpt lat="43.56036" lon="3.82261">
        <ele>35.932</ele>
        <time>2020-10-10T08:39:47.000Z</time>
      </trkpt>
      <trkpt lat="43.56034" lon="3.82261">
        <ele>36.032</ele>
        <time>2020-10-10T08:39:48.000Z</time>
      </trkpt>
      <trkpt lat="43.56033" lon="3.8226">
        <ele>36.132</ele>
        <time>2020-10-10T08:39:49.000Z</time>
      </trkpt>
      <trkpt lat="43.56031" lon="3.82258">
        <ele>36.232</ele>
        <time>2020-10-10T08:39:50.000Z</time>
      </trkpt>
      <trkpt lat="43.5603" lon="3.82256">
        <ele>36.332</ele>
        <time>2020-10-10T08:39:51.000Z</time>
      </trkpt>
      <trkpt lat="43.56027" lon="3.82254">
        <ele>36.532</ele>
        <time>2020-10-10T08:39:53.000Z</time>
      </trkpt>
      <trkpt lat="43.56023" lon="3.82253">
        <ele>36.732</ele>
        <time>2020-10-10T08:39:55.000Z</time>
      </trkpt>
      <trkpt lat="43.56021" lon="3.82253">
        <ele>36.832</ele>
        <time>2020-10-10T08:39:56.000Z</time>
      </trkpt>
      <trkpt lat="43.5602" lon="3.82252">
        <ele>36.932</ele>
        <time>2020-10-10T08:39:57.000Z</time>
      </trkpt>
      <trkpt lat="43.56017" lon="3.82248">
        <ele>37.256809338521</ele>
        <time>2020-10-10T08:39:59.000Z</time>
      </trkpt>
      <trkpt lat="43.56015" lon="3.82245">
        <ele>37.645914396887</ele>
        <time>2020-10-10T08:40:01.000Z</time>
      </trkpt>
      <trkpt lat="43.56012" lon="3.82241">
        <ele>38.035019455253</ele>
        <time>2020-10-10T08:40:03.000Z</time>
      </trkpt>
      <trkpt lat="43.5601" lon="3.82238">
        <ele>38.424124513619</ele>
        <time>2020-10-10T08:40:05.000Z</time>
      </trkpt>
      <trkpt lat="43.56007" lon="3.82237">
        <ele>38.813229571984</ele>
        <time>2020-10-10T08:40:07.000Z</time>
      </trkpt>
      <trkpt lat="43.56005" lon="3.82236">
        <ele>39.004036325639</ele>
        <time>2020-10-10T08:40:08.000Z</time>
      </trkpt>
      <trkpt lat="43.56002" lon="3.82233">
        <ele>39.205852607596</ele>
        <time>2020-10-10T08:40:10.000Z</time>
      </trkpt>
      <trkpt lat="43.55999" lon="3.82232">
        <ele>39.407668889552</ele>
        <time>2020-10-10T08:40:12.000Z</time>
      </trkpt>
      <trkpt lat="43.55997" lon="3.82232">
        <ele>39.50857703053</ele>
        <time>2020-10-10T08:40:13.000Z</time>
      </trkpt>
      <trkpt lat="43.55995" lon="3.82232">
        <ele>39.609485171508</ele>
        <time>2020-10-10T08:40:14.000Z</time>
      </trkpt>
      <trkpt lat="43.55993" lon="3.82232">
        <ele>39.710393312487</ele>
        <time>2020-10-10T08:40:15.000Z</time>
      </trkpt>
      <trkpt lat="43.5599" lon="3.82232">
        <ele>39.811301453465</ele>
        <time>2020-10-10T08:40:16.000Z</time>
      </trkpt>
      <trkpt lat="43.55988" lon="3.82232">
        <ele>39.912209594443</ele>
        <time>2020-10-10T08:40:17.000Z</time>
      </trkpt>
      <trkpt lat="43.55986" lon="3.82233">
        <ele>40.013251462019</ele>
        <time>2020-10-10T08:40:18.000Z</time>
      </trkpt>
      <trkpt lat="43.55984" lon="3.82234">
        <ele>40.115188294455</ele>
        <time>2020-10-10T08:40:19.000Z</time>
      </trkpt>
      <trkpt lat="43.55982" lon="3.82235">
        <ele>40.217125126891</ele>
        <time>2020-10-10T08:40:20.000Z</time>
      </trkpt>
      <trkpt lat="43.55979" lon="3.82236">
        <ele>40.319061959327</ele>
        <time>2020-10-10T08:40:21.000Z</time>
      </trkpt>
      <trkpt lat="43.55977" lon="3.82237">
        <ele>40.420998791763</ele>
        <time>2020-10-10T08:40:22.000Z</time>
      </trkpt>
      <trkpt lat="43.55974" lon="3.82238">
        <ele>40.522935624199</ele>
        <time>2020-10-10T08:40:23.000Z</time>
      </trkpt>
      <trkpt lat="43.55972" lon="3.82239">
        <ele>40.624872456635</ele>
        <time>2020-10-10T08:40:24.000Z</time>
      </trkpt>
      <trkpt lat="43.5597" lon="3.8224">
        <ele>40.726809289071</ele>
        <time>2020-10-10T08:40:25.000Z</time>
      </trkpt>
      <trkpt lat="43.55967" lon="3.82241">
        <ele>40.828746121507</ele>
        <time>2020-10-10T08:40:26.000Z</time>
      </trkpt>
      <trkpt lat="43.55964" lon="3.82243">
        <ele>40.930682953944</ele>
        <time>2020-10-10T08:40:27.000Z</time>
      </trkpt>
      <trkpt lat="43.55961" lon="3.82245">
        <ele>41.032</ele>
        <time>2020-10-10T08:40:28.000Z</time>
      </trkpt>
      <trkpt lat="43.55958" lon="3.82246">
        <ele>41.132</ele>
        <time>2020-10-10T08:40:29.000Z</time>
      </trkpt>
      <trkpt lat="43.55955" lon="3.82248">
        <ele>41.232</ele>
        <time>2020-10-10T08:40:30.000Z</time>
      </trkpt>
      <trkpt lat="43.55952" lon="3.82249">
        <ele>41.332</ele>
        <time>2020-10-10T08:40:31.000Z</time>
      </trkpt>
      <trkpt lat="43.55949" lon="3.82251">
        <ele>41.432</ele>
        <time>2020-10-10T08:40:32.000Z</time>
      </trkpt>
      <trkpt lat="43.55946" lon="3.82253">
        <ele>41.532</ele>
        <time>2020-10-10T08:40:33.000Z</time>
      </trkpt>
      <trkpt lat="43.55943" lon="3.82255">
        <ele>41.632</ele>
        <time>2020-10-10T08:40:34.000Z</time>
      </trkpt>
      <trkpt lat="43.5594" lon="3.82256">
        <ele>41.732</ele>
        <time>2020-10-10T08:40:35.000Z</time>
      </trkpt>
      <trkpt lat="43.55937" lon="3.82258">
        <ele>41.832</ele>
        <time>2020-10-10T08:40:36.000Z</time>
      </trkpt>
      <trkpt lat="43.55935" lon="3.8226">
        <ele>41.932</ele>
        <time>2020-10-10T08:40:37.000Z</time>
      </trkpt>
      <trkpt lat="43.55931" lon="3.82261">
        <ele>42.031936148143</ele>
        <time>2020-10-10T08:40:38.000Z</time>
      </trkpt>
      <trkpt lat="43.55928" lon="3.82262">
        <ele>42.131736611089</ele>
        <time>2020-10-10T08:40:39.000Z</time>
      </trkpt>
      <trkpt lat="43.55925" lon="3.82262">
        <ele>42.231537074036</ele>
        <time>2020-10-10T08:40:40.000Z</time>
      </trkpt>
      <trkpt lat="43.55922" lon="3.82263">
        <ele>42.331337536982</ele>
        <time>2020-10-10T08:40:41.000Z</time>
      </trkpt>
      <trkpt lat="43.55918" lon="3.82264">
        <ele>42.431137999929</ele>
        <time>2020-10-10T08:40:42.000Z</time>
      </trkpt>
      <trkpt lat="43.55914" lon="3.82264">
        <ele>42.530938462875</ele>
        <time>2020-10-10T08:40:43.000Z</time>
      </trkpt>
      <trkpt lat="43.55911" lon="3.82264">
        <ele>42.630738925821</ele>
        <time>2020-10-10T08:40:44.000Z</time>
      </trkpt>
      <trkpt lat="43.55907" lon="3.82264">
        <ele>42.730539388768</ele>
        <time>2020-10-10T08:40:45.000Z</time>
      </trkpt>
      <trkpt lat="43.55904" lon="3.82263">
        <ele>42.830339851714</ele>
        <time>2020-10-10T08:40:46.000Z</time>
      </trkpt>
      <trkpt lat="43.559" lon="3.82263">
        <ele>42.93014031466</ele>
        <time>2020-10-10T08:40:47.000Z</time>
      </trkpt>
      <trkpt lat="43.55897" lon="3.82262">
        <ele>43</ele>
        <time>2020-10-10T08:40:48.000Z</time>
      </trkpt>
      <trkpt lat="43.55894" lon="3.82261">
        <ele>43</ele>
        <time>2020-10-10T08:40:49.000Z</time>
      </trkpt>
      <trkpt lat="43.55891" lon="3.82261">
        <ele>43</ele>
        <time>2020-10-10T08:40:50.000Z</time>
      </trkpt>
      <trkpt lat="43.55888" lon="3.8226">
        <ele>43</ele>
        <time>2020-10-10T08:40:51.000Z</time>
      </trkpt>
      <trkpt lat="43.55885" lon="3.82259">
        <ele>43</ele>
        <time>2020-10-10T08:40:52.000Z</time>
      </trkpt>
      <trkpt lat="43.55882" lon="3.82257">
        <ele>43</ele>
        <time>2020-10-10T08:40:53.000Z</time>
      </trkpt>
      <trkpt lat="43.55878" lon="3.82256">
        <ele>43</ele>
        <time>2020-10-10T08:40:54.000Z</time>
      </trkpt>
      <trkpt lat="43.55875" lon="3.82255">
        <ele>43</ele>
        <time>2020-10-10T08:40:55.000Z</time>
      </trkpt>
      <trkpt lat="43.55872" lon="3.82254">
        <ele>43</ele>
        <time>2020-10-10T08:40:56.000Z</time>
      </trkpt>
      <trkpt lat="43.55869" lon="3.82252">
        <ele>43</ele>
        <time>2020-10-10T08:40:57.000Z</time>
      </trkpt>
      <trkpt lat="43.55865" lon="3.82251">
        <ele>43</ele>
        <time>2020-10-10T08:40:58.000Z</time>
      </trkpt>
      <trkpt lat="43.55862" lon="3.82249">
        <ele>43</ele>
        <time>2020-10-10T08:40:59.000Z</time>
      </trkpt>
      <trkpt lat="43.55859" lon="3.82248">
        <ele>43</ele>
        <time>2020-10-10T08:41:00.000Z</time>
      </trkpt>
      <trkpt lat="43.55856" lon="3.82247">
        <ele>43</ele>
        <time>2020-10-10T08:41:01.000Z</time>
      </trkpt>
      <trkpt lat="43.55852" lon="3.82245">
        <ele>43</ele>
        <time>2020-10-10T08:41:02.000Z</time>
      </trkpt>
      <trkpt lat="43.55849" lon="3.82242">
        <ele>43</ele>
        <time>2020-10-10T08:41:03.000Z</time>
      </trkpt>
      <trkpt lat="43.55846" lon="3.8224">
        <ele>43</ele>
        <time>2020-10-10T08:41:04.000Z</time>
      </trkpt>
      <trkpt lat="43.55842" lon="3.82237">
        <ele>43</ele>
        <time>2020-10-10T08:41:05.000Z</time>
      </trkpt>
      <trkpt lat="43.55839" lon="3.82235">
        <ele>43</ele>
        <time>2020-10-10T08:41:06.000Z</time>
      </trkpt>
      <trkpt lat="43.55835" lon="3.82233">
        <ele>43</ele>
        <time>2020-10-10T08:41:07.000Z</time>
      </trkpt>
      <trkpt lat="43.55832" lon="3.82231">
        <ele>42.970913049842</ele>
        <time>2020-10-10T08:41:08.000Z</time>
      </trkpt>
      <trkpt lat="43.55828" lon="3.82229">
        <ele>42.870612114941</ele>
        <time>2020-10-10T08:41:09.000Z</time>
      </trkpt>
      <trkpt lat="43.55825" lon="3.82227">
        <ele>42.77031118004</ele>
        <time>2020-10-10T08:41:10.000Z</time>
      </trkpt>
      <trkpt lat="43.55822" lon="3.82225">
        <ele>42.670010245139</ele>
        <time>2020-10-10T08:41:11.000Z</time>
      </trkpt>
      <trkpt lat="43.55819" lon="3.82224">
        <ele>42.569709310238</ele>
        <time>2020-10-10T08:41:12.000Z</time>
      </trkpt>
      <trkpt lat="43.55816" lon="3.82224">
        <ele>42.469408375337</ele>
        <time>2020-10-10T08:41:13.000Z</time>
      </trkpt>
      <trkpt lat="43.55813" lon="3.82222">
        <ele>42.369107440436</ele>
        <time>2020-10-10T08:41:14.000Z</time>
      </trkpt>
      <trkpt lat="43.5581" lon="3.8222">
        <ele>42.268806505535</ele>
        <time>2020-10-10T08:41:15.000Z</time>
      </trkpt>
      <trkpt lat="43.55806" lon="3.82217">
        <ele>42.168505570634</ele>
        <time>2020-10-10T08:41:16.000Z</time>
      </trkpt>
      <trkpt lat="43.55803" lon="3.82215">
        <ele>42.068204635733</ele>
        <time>2020-10-10T08:41:17.000Z</time>
      </trkpt>
      <trkpt lat="43.55801" lon="3.82212">
        <ele>42</ele>
        <time>2020-10-10T08:41:18.000Z</time>
      </trkpt>
      <trkpt lat="43.55798" lon="3.8221">
        <ele>42</ele>
        <time>2020-10-10T08:41:19.000Z</time>
      </trkpt>
      <trkpt lat="43.55795" lon="3.82207">
        <ele>42</ele>
        <time>2020-10-10T08:41:20.000Z</time>
      </trkpt>
      <trkpt lat="43.55793" lon="3.82204">
        <ele>42</ele>
        <time>2020-10-10T08:41:21.000Z</time>
      </trkpt>
      <trkpt lat="43.55791" lon="3.82202">
        <ele>42</ele>
        <time>2020-10-10T08:41:22.000Z</time>
      </trkpt>
      <trkpt lat="43.55789" lon="3.82199">
        <ele>42</ele>
        <time>2020-10-10T08:41:23.000Z</time>
      </trkpt>
      <trkpt lat="43.55787" lon="3.82196">
        <ele>42</ele>
        <time>2020-10-10T08:41:24.000Z</time>
      </trkpt>
      <trkpt lat="43.55785" lon="3.82193">
        <ele>42</ele>
        <time>2020-10-10T08:41:25.000Z</time>
      </trkpt>
      <trkpt lat="43.55784" lon="3.82191">
        <ele>42</ele>
        <time>2020-10-10T08:41:26.000Z</time>
      </trkpt>
      <trkpt lat="43.55782" lon="3.82187">
        <ele>42</ele>
        <time>2020-10-10T08:41:27.000Z</time>
      </trkpt>
      <trkpt lat="43.55781" lon="3.82184">
        <ele>42</ele>
        <time>2020-10-10T08:41:28.000Z</time>
      </trkpt>
      <trkpt lat="43.55779" lon="3.82181">
        <ele>42</ele>
        <time>2020-10-10T08:41:29.000Z</time>
      </trkpt>
      <trkpt lat="43.55778" lon="3.82178">
        <ele>42</ele>
        <time>2020-10-10T08:41:30.000Z</time>
      </trkpt>
      <trkpt lat="43.55777" lon="3.82175">
        <ele>42</ele>
        <time>2020-10-10T08:41:31.000Z</time>
      </trkpt>
      <trkpt lat="43.55776" lon="3.82173">
        <ele>42</ele>
        <time>2020-10-10T08:41:32.000Z</time>
      </trkpt>
      <trkpt lat="43.55774" lon="3.8217">
        <ele>42</ele>
        <time>2020-10-10T08:41:33.000Z</time>
      </trkpt>
      <trkpt lat="43.55773" lon="3.82167">
        <ele>42</ele>
        <time>2020-10-10T08:41:34.000Z</time>
      </trkpt>
      <trkpt lat="43.55771" lon="3.82164">
        <ele>42</ele>
        <time>2020-10-10T08:41:35.000Z</time>
      </trkpt>
      <trkpt lat="43.5577" lon="3.82161">
        <ele>42</ele>
        <time>2020-10-10T08:41:36.000Z</time>
      </trkpt>
      <trkpt lat="43.55769" lon="3.82157">
        <ele>42</ele>
        <time>2020-10-10T08:41:37.000Z</time>
      </trkpt>
      <trkpt lat="43.55767" lon="3.82154">
        <ele>42.010913015873</ele>
        <time>2020-10-10T08:41:38.000Z</time>
      </trkpt>
      <trkpt lat="43.55765" lon="3.82152">
        <ele>42.110119365079</ele>
        <time>2020-10-10T08:41:39.000Z</time>
      </trkpt>
      <trkpt lat="43.55764" lon="3.82149">
        <ele>42.209325714286</ele>
        <time>2020-10-10T08:41:40.000Z</time>
      </trkpt>
      <trkpt lat="43.55762" lon="3.82146">
        <ele>42.308532063492</ele>
        <time>2020-10-10T08:41:41.000Z</time>
      </trkpt>
      <trkpt lat="43.5576" lon="3.82143">
        <ele>42.407738412698</ele>
        <time>2020-10-10T08:41:42.000Z</time>
      </trkpt>
      <trkpt lat="43.55758" lon="3.8214">
        <ele>42.506944761905</ele>
        <time>2020-10-10T08:41:43.000Z</time>
      </trkpt>
      <trkpt lat="43.55756" lon="3.82137">
        <ele>42.606151111111</ele>
        <time>2020-10-10T08:41:44.000Z</time>
      </trkpt>
      <trkpt lat="43.55753" lon="3.82134">
        <ele>42.705357460318</ele>
        <time>2020-10-10T08:41:45.000Z</time>
      </trkpt>
      <trkpt lat="43.55751" lon="3.82131">
        <ele>42.804563809524</ele>
        <time>2020-10-10T08:41:46.000Z</time>
      </trkpt>
      <trkpt lat="43.55748" lon="3.82128">
        <ele>42.90377015873</ele>
        <time>2020-10-10T08:41:47.000Z</time>
      </trkpt>
      <trkpt lat="43.55745" lon="3.82125">
        <ele>42.996913251029</ele>
        <time>2020-10-10T08:41:48.000Z</time>
      </trkpt>
      <trkpt lat="43.55742" lon="3.82123">
        <ele>42.894032592593</ele>
        <time>2020-10-10T08:41:49.000Z</time>
      </trkpt>
      <trkpt lat="43.55739" lon="3.8212">
        <ele>42.791151934156</ele>
        <time>2020-10-10T08:41:50.000Z</time>
      </trkpt>
      <trkpt lat="43.55736" lon="3.82118">
        <ele>42.68827127572</ele>
        <time>2020-10-10T08:41:51.000Z</time>
      </trkpt>
      <trkpt lat="43.55733" lon="3.82116">
        <ele>42.585390617284</ele>
        <time>2020-10-10T08:41:52.000Z</time>
      </trkpt>
      <trkpt lat="43.55731" lon="3.82113">
        <ele>42.482509958848</ele>
        <time>2020-10-10T08:41:53.000Z</time>
      </trkpt>
      <trkpt lat="43.55728" lon="3.8211">
        <ele>42.379629300412</ele>
        <time>2020-10-10T08:41:54.000Z</time>
      </trkpt>
      <trkpt lat="43.55725" lon="3.82107">
        <ele>42.276748641975</ele>
        <time>2020-10-10T08:41:55.000Z</time>
      </trkpt>
      <trkpt lat="43.55722" lon="3.82104">
        <ele>42.173867983539</ele>
        <time>2020-10-10T08:41:56.000Z</time>
      </trkpt>
      <trkpt lat="43.55719" lon="3.82101">
        <ele>42.070987325103</ele>
        <time>2020-10-10T08:41:57.000Z</time>
      </trkpt>
      <trkpt lat="43.55717" lon="3.82099">
        <ele>41.969215183566</ele>
        <time>2020-10-10T08:41:58.000Z</time>
      </trkpt>
      <trkpt lat="43.55715" lon="3.82096">
        <ele>41.869910349184</ele>
        <time>2020-10-10T08:41:59.000Z</time>
      </trkpt>
      <trkpt lat="43.55713" lon="3.82094">
        <ele>41.770605514803</ele>
        <time>2020-10-10T08:42:00.000Z</time>
      </trkpt>
      <trkpt lat="43.55711" lon="3.82091">
        <ele>41.671300680421</ele>
        <time>2020-10-10T08:42:01.000Z</time>
      </trkpt>
      <trkpt lat="43.55709" lon="3.82089">
        <ele>41.571995846039</ele>
        <time>2020-10-10T08:42:02.000Z</time>
      </trkpt>
      <trkpt lat="43.55707" lon="3.82087">
        <ele>41.472691011657</ele>
        <time>2020-10-10T08:42:03.000Z</time>
      </trkpt>
      <trkpt lat="43.55705" lon="3.82084">
        <ele>41.373386177275</ele>
        <time>2020-10-10T08:42:04.000Z</time>
      </trkpt>
      <trkpt lat="43.55703" lon="3.82082">
        <ele>41.274081342894</ele>
        <time>2020-10-10T08:42:05.000Z</time>
      </trkpt>
      <trkpt lat="43.55702" lon="3.8208">
        <ele>41.174776508512</ele>
        <time>2020-10-10T08:42:06.000Z</time>
      </trkpt>
      <trkpt lat="43.557" lon="3.82078">
        <ele>41.07547167413</ele>
        <time>2020-10-10T08:42:07.000Z</time>
      </trkpt>
      <trkpt lat="43.55698" lon="3.82076">
        <ele>40.929480878975</ele>
        <time>2020-10-10T08:42:08.000Z</time>
      </trkpt>
      <trkpt lat="43.55695" lon="3.82073">
        <ele>40.63565120804</ele>
        <time>2020-10-10T08:42:09.000Z</time>
      </trkpt>
      <trkpt lat="43.55693" lon="3.8207">
        <ele>40.341821537104</ele>
        <time>2020-10-10T08:42:10.000Z</time>
      </trkpt>
      <trkpt lat="43.55692" lon="3.82066">
        <ele>40.047991866168</ele>
        <time>2020-10-10T08:42:11.000Z</time>
      </trkpt>
      <trkpt lat="43.5569" lon="3.82062">
        <ele>39.754162195232</ele>
        <time>2020-10-10T08:42:12.000Z</time>
      </trkpt>
      <trkpt lat="43.55688" lon="3.82057">
        <ele>39.460332524296</ele>
        <time>2020-10-10T08:42:13.000Z</time>
      </trkpt>
      <trkpt lat="43.55686" lon="3.82052">
        <ele>39.16650285336</ele>
        <time>2020-10-10T08:42:14.000Z</time>
      </trkpt>
      <trkpt lat="43.55684" lon="3.82047">
        <ele>38.872673182424</ele>
        <time>2020-10-10T08:42:15.000Z</time>
      </trkpt>
      <trkpt lat="43.55683" lon="3.82042">
        <ele>38.578843511489</ele>
        <time>2020-10-10T08:42:16.000Z</time>
      </trkpt>
      <trkpt lat="43.55681" lon="3.82037">
        <ele>38.285013840553</ele>
        <time>2020-10-10T08:42:17.000Z</time>
      </trkpt>
      <trkpt lat="43.55679" lon="3.82032">
        <ele>37.993826502058</ele>
        <time>2020-10-10T08:42:18.000Z</time>
      </trkpt>
      <trkpt lat="43.55676" lon="3.82027">
        <ele>37.788065185185</ele>
        <time>2020-10-10T08:42:19.000Z</time>
      </trkpt>
      <trkpt lat="43.55674" lon="3.82023">
        <ele>37.582303868313</ele>
        <time>2020-10-10T08:42:20.000Z</time>
      </trkpt>
      <trkpt lat="43.55672" lon="3.82018">
        <ele>37.37654255144</ele>
        <time>2020-10-10T08:42:21.000Z</time>
      </trkpt>
      <trkpt lat="43.55671" lon="3.82013">
        <ele>37.170781234568</ele>
        <time>2020-10-10T08:42:22.000Z</time>
      </trkpt>
      <trkpt lat="43.5567" lon="3.82008">
        <ele>36.965019917695</ele>
        <time>2020-10-10T08:42:23.000Z</time>
      </trkpt>
      <trkpt lat="43.55669" lon="3.82003">
        <ele>36.759258600823</ele>
        <time>2020-10-10T08:42:24.000Z</time>
      </trkpt>
      <trkpt lat="43.55667" lon="3.81999">
        <ele>36.553497283951</ele>
        <time>2020-10-10T08:42:25.000Z</time>
      </trkpt>
      <trkpt lat="43.55666" lon="3.81994">
        <ele>36.347735967078</ele>
        <time>2020-10-10T08:42:26.000Z</time>
      </trkpt>
      <trkpt lat="43.55664" lon="3.8199">
        <ele>36.141974650206</ele>
        <time>2020-10-10T08:42:27.000Z</time>
      </trkpt>
      <trkpt lat="43.55662" lon="3.81986">
        <ele>35.96899968</ele>
        <time>2020-10-10T08:42:28.000Z</time>
      </trkpt>
      <trkpt lat="43.55661" lon="3.81982">
        <ele>35.86899968</ele>
        <time>2020-10-10T08:42:29.000Z</time>
      </trkpt>
      <trkpt lat="43.55659" lon="3.81978">
        <ele>35.76899968</ele>
        <time>2020-10-10T08:42:30.000Z</time>
      </trkpt>
      <trkpt lat="43.55658" lon="3.81974">
        <ele>35.66899968</ele>
        <time>2020-10-10T08:42:31.000Z</time>
      </trkpt>
      <trkpt lat="43.55657" lon="3.81971">
        <ele>35.56899968</ele>
        <time>2020-10-10T08:42:32.000Z</time>
      </trkpt>
      <trkpt lat="43.55656" lon="3.81967">
        <ele>35.46899968</ele>
        <time>2020-10-10T08:42:33.000Z</time>
      </trkpt>
      <trkpt lat="43.55655" lon="3.81964">
        <ele>35.36899968</ele>
        <time>2020-10-10T08:42:34.000Z</time>
      </trkpt>
      <trkpt lat="43.55655" lon="3.81961">
        <ele>35.26899968</ele>
        <time>2020-10-10T08:42:35.000Z</time>
      </trkpt>
      <trkpt lat="43.55653" lon="3.81958">
        <ele>35.06899968</ele>
        <time>2020-10-10T08:42:37.000Z</time>
      </trkpt>
      <trkpt lat="43.55653" lon="3.81959">
        <ele>35</ele>
        <time>2020-10-10T08:42:43.000Z</time>
      </trkpt>
      <trkpt lat="43.5565" lon="3.81957">
        <ele>34.98992760176</ele>
        <time>2020-10-10T08:43:12.000Z</time>
      </trkpt>
      <trkpt lat="43.5565" lon="3.81956">
        <ele>34.846042775923</ele>
        <time>2020-10-10T08:43:13.000Z</time>
      </trkpt>
      <trkpt lat="43.55649" lon="3.81957">
        <ele>33.998648195382</ele>
        <time>2020-10-10T08:43:19.000Z</time>
      </trkpt>
      <trkpt lat="43.55652" lon="3.81959">
        <ele>32.009655182301</ele>
        <time>2020-10-10T08:45:02.000Z</time>
      </trkpt>
      <trkpt lat="43.55652" lon="3.81958">
        <ele>32</ele>
        <time>2020-10-10T08:45:07.000Z</time>
      </trkpt>
      <trkpt lat="43.55651" lon="3.81957">
        <ele>31</ele>
        <time>2020-10-10T08:46:04.000Z</time>
      </trkpt>
      <trkpt lat="43.5565" lon="3.81956">
        <ele>31</ele>
        <time>2020-10-10T08:46:08.000Z</time>
      </trkpt>
      <trkpt lat="43.5565" lon="3.81959">
        <ele>30.992827540984</ele>
        <time>2020-10-10T08:46:56.000Z</time>
      </trkpt>
      <trkpt lat="43.55646" lon="3.81961">
        <ele>30.787909508197</ele>
        <time>2020-10-10T08:46:58.000Z</time>
      </trkpt>
      <trkpt lat="43.55644" lon="3.81961">
        <ele>30.685450491803</ele>
        <time>2020-10-10T08:46:59.000Z</time>
      </trkpt>
      <trkpt lat="43.55642" lon="3.81962">
        <ele>30.58299147541</ele>
        <time>2020-10-10T08:47:00.000Z</time>
      </trkpt>
      <trkpt lat="43.5564" lon="3.81962">
        <ele>30.480532459016</ele>
        <time>2020-10-10T08:47:01.000Z</time>
      </trkpt>
      <trkpt lat="43.55638" lon="3.81964">
        <ele>30.378073442623</ele>
        <time>2020-10-10T08:47:02.000Z</time>
      </trkpt>
      <trkpt lat="43.55635" lon="3.81965">
        <ele>30.275614426229</ele>
        <time>2020-10-10T08:47:03.000Z</time>
      </trkpt>
      <trkpt lat="43.55632" lon="3.81966">
        <ele>30.173155409836</ele>
        <time>2020-10-10T08:47:04.000Z</time>
      </trkpt>
      <trkpt lat="43.55629" lon="3.81967">
        <ele>30.070696393443</ele>
        <time>2020-10-10T08:47:05.000Z</time>
      </trkpt>
      <trkpt lat="43.55626" lon="3.81968">
        <ele>30</ele>
        <time>2020-10-10T08:47:06.000Z</time>
      </trkpt>
      <trkpt lat="43.55623" lon="3.81968">
        <ele>30</ele>
        <time>2020-10-10T08:47:07.000Z</time>
      </trkpt>
      <trkpt lat="43.55621" lon="3.81968">
        <ele>30</ele>
        <time>2020-10-10T08:47:08.000Z</time>
      </trkpt>
      <trkpt lat="43.55618" lon="3.81968">
        <ele>30</ele>
        <time>2020-10-10T08:47:09.000Z</time>
      </trkpt>
      <trkpt lat="43.55616" lon="3.81967">
        <ele>30</ele>
        <time>2020-10-10T08:47:10.000Z</time>
      </trkpt>
      <trkpt lat="43.55615" lon="3.81966">
        <ele>30</ele>
        <time>2020-10-10T08:47:17.000Z</time>
      </trkpt>
      <trkpt lat="43.55611" lon="3.81959">
        <ele>28.978482622951</ele>
        <time>2020-10-10T08:47:42.000Z</time>
      </trkpt>
      <trkpt lat="43.5561" lon="3.81956">
        <ele>28.671105573771</ele>
        <time>2020-10-10T08:47:43.000Z</time>
      </trkpt>
      <trkpt lat="43.5561" lon="3.81954">
        <ele>28.36372852459</ele>
        <time>2020-10-10T08:47:44.000Z</time>
      </trkpt>
      <trkpt lat="43.55609" lon="3.81951">
        <ele>28.05635147541</ele>
        <time>2020-10-10T08:47:45.000Z</time>
      </trkpt>
      <trkpt lat="43.55608" lon="3.81948">
        <ele>27.748974426229</ele>
        <time>2020-10-10T08:47:46.000Z</time>
      </trkpt>
      <trkpt lat="43.55607" lon="3.81944">
        <ele>27.441597377049</ele>
        <time>2020-10-10T08:47:47.000Z</time>
      </trkpt>
      <trkpt lat="43.55606" lon="3.81941">
        <ele>27.134220327869</ele>
        <time>2020-10-10T08:47:48.000Z</time>
      </trkpt>
      <trkpt lat="43.55604" lon="3.81937">
        <ele>26.826843278689</ele>
        <time>2020-10-10T08:47:49.000Z</time>
      </trkpt>
      <trkpt lat="43.55603" lon="3.81933">
        <ele>26.519466229508</ele>
        <time>2020-10-10T08:47:50.000Z</time>
      </trkpt>
      <trkpt lat="43.55602" lon="3.81928">
        <ele>26.212089180328</ele>
        <time>2020-10-10T08:47:51.000Z</time>
      </trkpt>
      <trkpt lat="43.556" lon="3.81924">
        <ele>25.87937618677</ele>
        <time>2020-10-10T08:47:52.000Z</time>
      </trkpt>
      <trkpt lat="43.55599" lon="3.81921">
        <ele>25.490271128405</ele>
        <time>2020-10-10T08:47:53.000Z</time>
      </trkpt>
      <trkpt lat="43.55598" lon="3.81918">
        <ele>25.101166070039</ele>
        <time>2020-10-10T08:47:54.000Z</time>
      </trkpt>
      <trkpt lat="43.55597" lon="3.81915">
        <ele>24.712061011673</ele>
        <time>2020-10-10T08:47:55.000Z</time>
      </trkpt>
      <trkpt lat="43.55597" lon="3.81912">
        <ele>24.322955953307</ele>
        <time>2020-10-10T08:47:56.000Z</time>
      </trkpt>
      <trkpt lat="43.55596" lon="3.81909">
        <ele>23.933850894942</ele>
        <time>2020-10-10T08:47:57.000Z</time>
      </trkpt>
      <trkpt lat="43.55596" lon="3.81906">
        <ele>23.544745836576</ele>
        <time>2020-10-10T08:47:58.000Z</time>
      </trkpt>
      <trkpt lat="43.55595" lon="3.81903">
        <ele>23.15564077821</ele>
        <time>2020-10-10T08:47:59.000Z</time>
      </trkpt>
      <trkpt lat="43.55593" lon="3.81901">
        <ele>22.766535719844</ele>
        <time>2020-10-10T08:48:00.000Z</time>
      </trkpt>
      <trkpt lat="43.55593" lon="3.81898">
        <ele>22.377430661479</ele>
        <time>2020-10-10T08:48:01.000Z</time>
      </trkpt>
      <trkpt lat="43.55592" lon="3.81896">
        <ele>21.990990032916</ele>
        <time>2020-10-10T08:48:02.000Z</time>
      </trkpt>
      <trkpt lat="43.55591" lon="3.81893">
        <ele>21.690689828808</ele>
        <time>2020-10-10T08:48:03.000Z</time>
      </trkpt>
      <trkpt lat="43.5559" lon="3.81891">
        <ele>21.3903896247</ele>
        <time>2020-10-10T08:48:04.000Z</time>
      </trkpt>
      <trkpt lat="43.55589" lon="3.81887">
        <ele>21.090089420592</ele>
        <time>2020-10-10T08:48:05.000Z</time>
      </trkpt>
      <trkpt lat="43.55588" lon="3.81884">
        <ele>20.789789216484</ele>
        <time>2020-10-10T08:48:06.000Z</time>
      </trkpt>
      <trkpt lat="43.55587" lon="3.8188">
        <ele>20.489489012376</ele>
        <time>2020-10-10T08:48:07.000Z</time>
      </trkpt>
      <trkpt lat="43.55585" lon="3.81877">
        <ele>20.189188808268</ele>
        <time>2020-10-10T08:48:08.000Z</time>
      </trkpt>
      <trkpt lat="43.55584" lon="3.81872">
        <ele>19.88888860416</ele>
        <time>2020-10-10T08:48:09.000Z</time>
      </trkpt>
      <trkpt lat="43.55582" lon="3.81867">
        <ele>19.588588400052</ele>
        <time>2020-10-10T08:48:10.000Z</time>
      </trkpt>
      <trkpt lat="43.55581" lon="3.81863">
        <ele>19.288288195944</ele>
        <time>2020-10-10T08:48:11.000Z</time>
      </trkpt>
      <trkpt lat="43.55582" lon="3.81863">
        <ele>19</ele>
        <time>2020-10-10T08:48:21.000Z</time>
      </trkpt>
      <trkpt lat="43.55588" lon="3.81856">
        <ele>17.006557377049</ele>
        <time>2020-10-10T08:49:22.000Z</time>
      </trkpt>
      <trkpt lat="43.55591" lon="3.81855">
        <ele>17</ele>
        <time>2020-10-10T08:49:24.000Z</time>
      </trkpt>
      <trkpt lat="43.55594" lon="3.81851">
        <ele>17</ele>
        <time>2020-10-10T08:49:26.000Z</time>
      </trkpt>
      <trkpt lat="43.55596" lon="3.81847">
        <ele>17</ele>
        <time>2020-10-10T08:49:28.000Z</time>
      </trkpt>
      <trkpt lat="43.55597" lon="3.81845">
        <ele>17</ele>
        <time>2020-10-10T08:49:30.000Z</time>
      </trkpt>
      <trkpt lat="43.55599" lon="3.81843">
        <ele>17</ele>
        <time>2020-10-10T08:49:32.000Z</time>
      </trkpt>
      <trkpt lat="43.55602" lon="3.81841">
        <ele>17</ele>
        <time>2020-10-10T08:49:34.000Z</time>
      </trkpt>
      <trkpt lat="43.55604" lon="3.8184">
        <ele>17</ele>
        <time>2020-10-10T08:49:35.000Z</time>
      </trkpt>
      <trkpt lat="43.55607" lon="3.81838">
        <ele>17</ele>
        <time>2020-10-10T08:49:37.000Z</time>
      </trkpt>
      <trkpt lat="43.5561" lon="3.81837">
        <ele>17</ele>
        <time>2020-10-10T08:49:39.000Z</time>
      </trkpt>
      <trkpt lat="43.55612" lon="3.81835">
        <ele>17</ele>
        <time>2020-10-10T08:49:41.000Z</time>
      </trkpt>
      <trkpt lat="43.55615" lon="3.81833">
        <ele>17</ele>
        <time>2020-10-10T08:49:43.000Z</time>
      </trkpt>
      <trkpt lat="43.55618" lon="3.81831">
        <ele>17</ele>
        <time>2020-10-10T08:49:45.000Z</time>
      </trkpt>
      <trkpt lat="43.5562" lon="3.81828">
        <ele>17</ele>
        <time>2020-10-10T08:49:47.000Z</time>
      </trkpt>
      <trkpt lat="43.55621" lon="3.81824">
        <ele>17</ele>
        <time>2020-10-10T08:49:49.000Z</time>
      </trkpt>
      <trkpt lat="43.55622" lon="3.81821">
        <ele>17</ele>
        <time>2020-10-10T08:49:51.000Z</time>
      </trkpt>
      <trkpt lat="43.55624" lon="3.8182">
        <ele>16.688859130435</ele>
        <time>2020-10-10T08:49:54.000Z</time>
      </trkpt>
      <trkpt lat="43.55625" lon="3.8182">
        <ele>16.009511304348</ele>
        <time>2020-10-10T08:49:59.000Z</time>
      </trkpt>
      <trkpt lat="43.55628" lon="3.81814">
        <ele>16</ele>
        <time>2020-10-10T08:50:04.000Z</time>
      </trkpt>
      <trkpt lat="43.55628" lon="3.81812">
        <ele>16.054407641556</ele>
        <time>2020-10-10T08:50:05.000Z</time>
      </trkpt>
      <trkpt lat="43.5563" lon="3.8181">
        <ele>16.272035422142</ele>
        <time>2020-10-10T08:50:07.000Z</time>
      </trkpt>
      <trkpt lat="43.55633" lon="3.81807">
        <ele>16.489663202729</ele>
        <time>2020-10-10T08:50:09.000Z</time>
      </trkpt>
      <trkpt lat="43.55641" lon="3.81803">
        <ele>16.816104873609</ele>
        <time>2020-10-10T08:50:12.000Z</time>
      </trkpt>
      <trkpt lat="43.55645" lon="3.81801">
        <ele>17</ele>
        <time>2020-10-10T08:50:14.000Z</time>
      </trkpt>
      <trkpt lat="43.55648" lon="3.818">
        <ele>17</ele>
        <time>2020-10-10T08:50:15.000Z</time>
      </trkpt>
      <trkpt lat="43.5565" lon="3.818">
        <ele>17</ele>
        <time>2020-10-10T08:50:16.000Z</time>
      </trkpt>
      <trkpt lat="43.55652" lon="3.81799">
        <ele>17</ele>
        <time>2020-10-10T08:50:17.000Z</time>
      </trkpt>
      <trkpt lat="43.55654" lon="3.81799">
        <ele>17</ele>
        <time>2020-10-10T08:50:18.000Z</time>
      </trkpt>
      <trkpt lat="43.55657" lon="3.81798">
        <ele>17</ele>
        <time>2020-10-10T08:50:19.000Z</time>
      </trkpt>
      <trkpt lat="43.55659" lon="3.81797">
        <ele>17</ele>
        <time>2020-10-10T08:50:20.000Z</time>
      </trkpt>
      <trkpt lat="43.55662" lon="3.81796">
        <ele>17</ele>
        <time>2020-10-10T08:50:21.000Z</time>
      </trkpt>
      <trkpt lat="43.55664" lon="3.81795">
        <ele>17</ele>
        <time>2020-10-10T08:50:22.000Z</time>
      </trkpt>
      <trkpt lat="43.55666" lon="3.81793">
        <ele>17</ele>
        <time>2020-10-10T08:50:23.000Z</time>
      </trkpt>
      <trkpt lat="43.55669" lon="3.81792">
        <ele>17</ele>
        <time>2020-10-10T08:50:24.000Z</time>
      </trkpt>
      <trkpt lat="43.55671" lon="3.8179">
        <ele>17</ele>
        <time>2020-10-10T08:50:25.000Z</time>
      </trkpt>
      <trkpt lat="43.55673" lon="3.81788">
        <ele>17</ele>
        <time>2020-10-10T08:50:26.000Z</time>
      </trkpt>
      <trkpt lat="43.55675" lon="3.81787">
        <ele>17</ele>
        <time>2020-10-10T08:50:27.000Z</time>
      </trkpt>
      <trkpt lat="43.55677" lon="3.81786">
        <ele>17</ele>
        <time>2020-10-10T08:50:28.000Z</time>
      </trkpt>
      <trkpt lat="43.5568" lon="3.81785">
        <ele>17</ele>
        <time>2020-10-10T08:50:29.000Z</time>
      </trkpt>
      <trkpt lat="43.55682" lon="3.81783">
        <ele>17</ele>
        <time>2020-10-10T08:50:30.000Z</time>
      </trkpt>
      <trkpt lat="43.55685" lon="3.81778">
        <ele>17</ele>
        <time>2020-10-10T08:50:33.000Z</time>
      </trkpt>
      <trkpt lat="43.55687" lon="3.81777">
        <ele>17</ele>
        <time>2020-10-10T08:50:34.000Z</time>
      </trkpt>
      <trkpt lat="43.55689" lon="3.81776">
        <ele>17</ele>
        <time>2020-10-10T08:50:35.000Z</time>
      </trkpt>
      <trkpt lat="43.55691" lon="3.81775">
        <ele>17</ele>
        <time>2020-10-10T08:50:36.000Z</time>
      </trkpt>
      <trkpt lat="43.55696" lon="3.81772">
        <ele>17</ele>
        <time>2020-10-10T08:50:38.000Z</time>
      </trkpt>
      <trkpt lat="43.55699" lon="3.81768">
        <ele>17</ele>
        <time>2020-10-10T08:50:40.000Z</time>
      </trkpt>
      <trkpt lat="43.55701" lon="3.81766">
        <ele>17</ele>
        <time>2020-10-10T08:50:41.000Z</time>
      </trkpt>
      <trkpt lat="43.55703" lon="3.81764">
        <ele>17</ele>
        <time>2020-10-10T08:50:42.000Z</time>
      </trkpt>
      <trkpt lat="43.55705" lon="3.81762">
        <ele>17</ele>
        <time>2020-10-10T08:50:43.000Z</time>
      </trkpt>
      <trkpt lat="43.55707" lon="3.8176">
        <ele>17</ele>
        <time>2020-10-10T08:50:44.000Z</time>
      </trkpt>
      <trkpt lat="43.5571" lon="3.8176">
        <ele>17</ele>
        <time>2020-10-10T08:50:45.000Z</time>
      </trkpt>
      <trkpt lat="43.55712" lon="3.81758">
        <ele>17</ele>
        <time>2020-10-10T08:50:46.000Z</time>
      </trkpt>
      <trkpt lat="43.55715" lon="3.81755">
        <ele>17</ele>
        <time>2020-10-10T08:50:48.000Z</time>
      </trkpt>
      <trkpt lat="43.55723" lon="3.81747">
        <ele>17</ele>
        <time>2020-10-10T08:50:52.000Z</time>
      </trkpt>
      <trkpt lat="43.55725" lon="3.81745">
        <ele>17</ele>
        <time>2020-10-10T08:50:53.000Z</time>
      </trkpt>
      <trkpt lat="43.55727" lon="3.81743">
        <ele>16.968031957812</ele>
        <time>2020-10-10T08:50:54.000Z</time>
      </trkpt>
      <trkpt lat="43.55728" lon="3.81742">
        <ele>16.868131825976</ele>
        <time>2020-10-10T08:50:55.000Z</time>
      </trkpt>
      <trkpt lat="43.5573" lon="3.81741">
        <ele>16.76823169414</ele>
        <time>2020-10-10T08:50:56.000Z</time>
      </trkpt>
      <trkpt lat="43.55732" lon="3.81739">
        <ele>16.668331562304</ele>
        <time>2020-10-10T08:50:57.000Z</time>
      </trkpt>
      <trkpt lat="43.55735" lon="3.81737">
        <ele>16.568431430468</ele>
        <time>2020-10-10T08:50:58.000Z</time>
      </trkpt>
      <trkpt lat="43.55737" lon="3.81736">
        <ele>16.468531298631</ele>
        <time>2020-10-10T08:50:59.000Z</time>
      </trkpt>
      <trkpt lat="43.55739" lon="3.81734">
        <ele>16.368631166795</ele>
        <time>2020-10-10T08:51:00.000Z</time>
      </trkpt>
      <trkpt lat="43.55741" lon="3.81732">
        <ele>16.268731034959</ele>
        <time>2020-10-10T08:51:01.000Z</time>
      </trkpt>
      <trkpt lat="43.55743" lon="3.81731">
        <ele>16.168830903123</ele>
        <time>2020-10-10T08:51:02.000Z</time>
      </trkpt>
      <trkpt lat="43.55745" lon="3.8173">
        <ele>16.068930771287</ele>
        <time>2020-10-10T08:51:03.000Z</time>
      </trkpt>
      <trkpt lat="43.55746" lon="3.81728">
        <ele>16.030938423353</ele>
        <time>2020-10-10T08:51:04.000Z</time>
      </trkpt>
      <trkpt lat="43.55748" lon="3.81726">
        <ele>16.13073875881</ele>
        <time>2020-10-10T08:51:05.000Z</time>
      </trkpt>
      <trkpt lat="43.5575" lon="3.81723">
        <ele>16.330339429723</ele>
        <time>2020-10-10T08:51:07.000Z</time>
      </trkpt>
      <trkpt lat="43.55751" lon="3.81721">
        <ele>16.43013976518</ele>
        <time>2020-10-10T08:51:08.000Z</time>
      </trkpt>
      <trkpt lat="43.55754" lon="3.8172">
        <ele>16.529940100637</ele>
        <time>2020-10-10T08:51:09.000Z</time>
      </trkpt>
      <trkpt lat="43.55758" lon="3.81719">
        <ele>16.729540771551</ele>
        <time>2020-10-10T08:51:11.000Z</time>
      </trkpt>
      <trkpt lat="43.55761" lon="3.81718">
        <ele>16.829341107008</ele>
        <time>2020-10-10T08:51:12.000Z</time>
      </trkpt>
      <trkpt lat="43.55763" lon="3.81716">
        <ele>16.929141442464</ele>
        <time>2020-10-10T08:51:13.000Z</time>
      </trkpt>
      <trkpt lat="43.55764" lon="3.81713">
        <ele>16.970942185775</ele>
        <time>2020-10-10T08:51:14.000Z</time>
      </trkpt>
      <trkpt lat="43.55765" lon="3.81711">
        <ele>16.870741720716</ele>
        <time>2020-10-10T08:51:15.000Z</time>
      </trkpt>
      <trkpt lat="43.55767" lon="3.81707">
        <ele>16.770541255658</ele>
        <time>2020-10-10T08:51:16.000Z</time>
      </trkpt>
      <trkpt lat="43.55768" lon="3.81704">
        <ele>16.670340790599</ele>
        <time>2020-10-10T08:51:17.000Z</time>
      </trkpt>
      <trkpt lat="43.5577" lon="3.81701">
        <ele>16.570140325541</ele>
        <time>2020-10-10T08:51:18.000Z</time>
      </trkpt>
      <trkpt lat="43.55771" lon="3.81698">
        <ele>16.469939860483</ele>
        <time>2020-10-10T08:51:19.000Z</time>
      </trkpt>
      <trkpt lat="43.55773" lon="3.81696">
        <ele>16.369739395424</ele>
        <time>2020-10-10T08:51:20.000Z</time>
      </trkpt>
      <trkpt lat="43.55776" lon="3.81693">
        <ele>16.169338465307</ele>
        <time>2020-10-10T08:51:22.000Z</time>
      </trkpt>
      <trkpt lat="43.55779" lon="3.81692">
        <ele>16</ele>
        <time>2020-10-10T08:51:24.000Z</time>
      </trkpt>
      <trkpt lat="43.55781" lon="3.81693">
        <ele>16</ele>
        <time>2020-10-10T08:51:25.000Z</time>
      </trkpt>
      <trkpt lat="43.55784" lon="3.81693">
        <ele>16</ele>
        <time>2020-10-10T08:51:26.000Z</time>
      </trkpt>
      <trkpt lat="43.55786" lon="3.81693">
        <ele>16</ele>
        <time>2020-10-10T08:51:27.000Z</time>
      </trkpt>
      <trkpt lat="43.55788" lon="3.81693">
        <ele>16</ele>
        <time>2020-10-10T08:51:28.000Z</time>
      </trkpt>
      <trkpt lat="43.55791" lon="3.81692">
        <ele>16</ele>
        <time>2020-10-10T08:51:29.000Z</time>
      </trkpt>
      <trkpt lat="43.55793" lon="3.81691">
        <ele>16</ele>
        <time>2020-10-10T08:51:30.000Z</time>
      </trkpt>
      <trkpt lat="43.55796" lon="3.8169">
        <ele>16</ele>
        <time>2020-10-10T08:51:31.000Z</time>
      </trkpt>
      <trkpt lat="43.55798" lon="3.81688">
        <ele>16</ele>
        <time>2020-10-10T08:51:32.000Z</time>
      </trkpt>
      <trkpt lat="43.558" lon="3.81686">
        <ele>16</ele>
        <time>2020-10-10T08:51:33.000Z</time>
      </trkpt>
      <trkpt lat="43.55801" lon="3.81684">
        <ele>16</ele>
        <time>2020-10-10T08:51:34.000Z</time>
      </trkpt>
      <trkpt lat="43.55803" lon="3.81682">
        <ele>16</ele>
        <time>2020-10-10T08:51:35.000Z</time>
      </trkpt>
      <trkpt lat="43.55806" lon="3.8168">
        <ele>16</ele>
        <time>2020-10-10T08:51:36.000Z</time>
      </trkpt>
      <trkpt lat="43.55809" lon="3.81679">
        <ele>16</ele>
        <time>2020-10-10T08:51:37.000Z</time>
      </trkpt>
      <trkpt lat="43.55811" lon="3.81677">
        <ele>16</ele>
        <time>2020-10-10T08:51:38.000Z</time>
      </trkpt>
      <trkpt lat="43.55814" lon="3.81676">
        <ele>16</ele>
        <time>2020-10-10T08:51:39.000Z</time>
      </trkpt>
      <trkpt lat="43.55815" lon="3.81674">
        <ele>16</ele>
        <time>2020-10-10T08:51:40.000Z</time>
      </trkpt>
      <trkpt lat="43.55817" lon="3.81672">
        <ele>16</ele>
        <time>2020-10-10T08:51:41.000Z</time>
      </trkpt>
      <trkpt lat="43.5582" lon="3.81671">
        <ele>16</ele>
        <time>2020-10-10T08:51:42.000Z</time>
      </trkpt>
      <trkpt lat="43.55821" lon="3.8167">
        <ele>16</ele>
        <time>2020-10-10T08:51:43.000Z</time>
      </trkpt>
      <trkpt lat="43.55823" lon="3.81665">
        <ele>16</ele>
        <time>2020-10-10T08:51:45.000Z</time>
      </trkpt>
      <trkpt lat="43.55824" lon="3.81662">
        <ele>16</ele>
        <time>2020-10-10T08:51:46.000Z</time>
      </trkpt>
      <trkpt lat="43.55825" lon="3.81659">
        <ele>16</ele>
        <time>2020-10-10T08:51:48.000Z</time>
      </trkpt>
      <trkpt lat="43.55827" lon="3.81659">
        <ele>16.007978723404</ele>
        <time>2020-10-10T08:51:55.000Z</time>
      </trkpt>
      <trkpt lat="43.55831" lon="3.81655">
        <ele>17</ele>
        <time>2020-10-10T08:52:10.000Z</time>
      </trkpt>
      <trkpt lat="43.55831" lon="3.81655">
        <ele>17</ele>
        <time>2020-10-10T08:52:15.000Z</time>
      </trkpt>
      <trkpt lat="43.55839" lon="3.81652">
        <ele>17</ele>
        <time>2020-10-10T08:52:28.000Z</time>
      </trkpt>
      <trkpt lat="43.55841" lon="3.8165">
        <ele>17</ele>
        <time>2020-10-10T08:52:29.000Z</time>
      </trkpt>
      <trkpt lat="43.55843" lon="3.81649">
        <ele>17</ele>
        <time>2020-10-10T08:52:31.000Z</time>
      </trkpt>
      <trkpt lat="43.55843" lon="3.81648">
        <ele>17</ele>
        <time>2020-10-10T08:52:35.000Z</time>
      </trkpt>
      <trkpt lat="43.55851" lon="3.81646">
        <ele>16.992820186972</ele>
        <time>2020-10-10T08:52:48.000Z</time>
      </trkpt>
      <trkpt lat="43.55853" lon="3.81644">
        <ele>16.89025611807</ele>
        <time>2020-10-10T08:52:49.000Z</time>
      </trkpt>
      <trkpt lat="43.55854" lon="3.81642">
        <ele>16.787692049168</ele>
        <time>2020-10-10T08:52:50.000Z</time>
      </trkpt>
      <trkpt lat="43.55856" lon="3.8164">
        <ele>16.685127980266</ele>
        <time>2020-10-10T08:52:51.000Z</time>
      </trkpt>
      <trkpt lat="43.55858" lon="3.81639">
        <ele>16.582563911364</ele>
        <time>2020-10-10T08:52:52.000Z</time>
      </trkpt>
      <trkpt lat="43.5586" lon="3.81637">
        <ele>16.479999842462</ele>
        <time>2020-10-10T08:52:53.000Z</time>
      </trkpt>
      <trkpt lat="43.55861" lon="3.81635">
        <ele>16.37743577356</ele>
        <time>2020-10-10T08:52:54.000Z</time>
      </trkpt>
      <trkpt lat="43.55863" lon="3.81634">
        <ele>16.274871704657</ele>
        <time>2020-10-10T08:52:55.000Z</time>
      </trkpt>
      <trkpt lat="43.55865" lon="3.81633">
        <ele>16.069743566853</ele>
        <time>2020-10-10T08:52:57.000Z</time>
      </trkpt>
      <trkpt lat="43.55866" lon="3.81632">
        <ele>16</ele>
        <time>2020-10-10T08:53:01.000Z</time>
      </trkpt>
      <trkpt lat="43.55894" lon="3.81608">
        <ele>17.007172459016</ele>
        <time>2020-10-10T08:55:12.000Z</time>
      </trkpt>
      <trkpt lat="43.55898" lon="3.81607">
        <ele>17.212090491803</ele>
        <time>2020-10-10T08:55:14.000Z</time>
      </trkpt>
      <trkpt lat="43.55901" lon="3.81607">
        <ele>17.41700852459</ele>
        <time>2020-10-10T08:55:16.000Z</time>
      </trkpt>
      <trkpt lat="43.55903" lon="3.81606">
        <ele>17.621926557377</ele>
        <time>2020-10-10T08:55:18.000Z</time>
      </trkpt>
      <trkpt lat="43.55904" lon="3.81606">
        <ele>18</ele>
        <time>2020-10-10T08:55:23.000Z</time>
      </trkpt>
      <trkpt lat="43.55912" lon="3.81602">
        <ele>18.987164158819</ele>
        <time>2020-10-10T08:55:40.000Z</time>
      </trkpt>
      <trkpt lat="43.55913" lon="3.81602">
        <ele>19</ele>
        <time>2020-10-10T08:55:41.000Z</time>
      </trkpt>
      <trkpt lat="43.55915" lon="3.81602">
        <ele>19</ele>
        <time>2020-10-10T08:55:44.000Z</time>
      </trkpt>
      <trkpt lat="43.55915" lon="3.81602">
        <ele>19</ele>
        <time>2020-10-10T08:55:49.000Z</time>
      </trkpt>
      <trkpt lat="43.55919" lon="3.816">
        <ele>19</ele>
        <time>2020-10-10T08:55:58.000Z</time>
      </trkpt>
      <trkpt lat="43.55919" lon="3.81598">
        <ele>19</ele>
        <time>2020-10-10T08:55:59.000Z</time>
      </trkpt>
      <trkpt lat="43.5592" lon="3.81594">
        <ele>19</ele>
        <time>2020-10-10T08:56:01.000Z</time>
      </trkpt>
      <trkpt lat="43.55922" lon="3.81592">
        <ele>19</ele>
        <time>2020-10-10T08:56:03.000Z</time>
      </trkpt>
      <trkpt lat="43.55923" lon="3.8159">
        <ele>19</ele>
        <time>2020-10-10T08:56:05.000Z</time>
      </trkpt>
      <trkpt lat="43.55924" lon="3.81588">
        <ele>19</ele>
        <time>2020-10-10T08:56:11.000Z</time>
      </trkpt>
      <trkpt lat="43.55928" lon="3.81583">
        <ele>18.992820186972</ele>
        <time>2020-10-10T08:56:16.000Z</time>
      </trkpt>
      <trkpt lat="43.5593" lon="3.81581">
        <ele>18.89025611807</ele>
        <time>2020-10-10T08:56:17.000Z</time>
      </trkpt>
      <trkpt lat="43.55931" lon="3.81578">
        <ele>18.787692049168</ele>
        <time>2020-10-10T08:56:18.000Z</time>
      </trkpt>
      <trkpt lat="43.55933" lon="3.81575">
        <ele>18.685127980266</ele>
        <time>2020-10-10T08:56:19.000Z</time>
      </trkpt>
      <trkpt lat="43.55935" lon="3.81573">
        <ele>18.582563911364</ele>
        <time>2020-10-10T08:56:20.000Z</time>
      </trkpt>
      <trkpt lat="43.55937" lon="3.81572">
        <ele>18.479999842462</ele>
        <time>2020-10-10T08:56:21.000Z</time>
      </trkpt>
      <trkpt lat="43.55939" lon="3.81571">
        <ele>18.37743577356</ele>
        <time>2020-10-10T08:56:22.000Z</time>
      </trkpt>
      <trkpt lat="43.5594" lon="3.8157">
        <ele>18.274871704657</ele>
        <time>2020-10-10T08:56:23.000Z</time>
      </trkpt>
      <trkpt lat="43.55942" lon="3.8157">
        <ele>18.172307635755</ele>
        <time>2020-10-10T08:56:24.000Z</time>
      </trkpt>
      <trkpt lat="43.55945" lon="3.81568">
        <ele>17.968962182281</ele>
        <time>2020-10-10T08:56:26.000Z</time>
      </trkpt>
      <trkpt lat="43.55946" lon="3.81564">
        <ele>17.77497582154</ele>
        <time>2020-10-10T08:56:28.000Z</time>
      </trkpt>
      <trkpt lat="43.55948" lon="3.81562">
        <ele>17.580989460799</ele>
        <time>2020-10-10T08:56:30.000Z</time>
      </trkpt>
      <trkpt lat="43.55951" lon="3.81562">
        <ele>17.387003100057</ele>
        <time>2020-10-10T08:56:32.000Z</time>
      </trkpt>
      <trkpt lat="43.55953" lon="3.81561">
        <ele>17.193016739316</ele>
        <time>2020-10-10T08:56:34.000Z</time>
      </trkpt>
      <trkpt lat="43.55954" lon="3.8156">
        <ele>17</ele>
        <time>2020-10-10T08:56:39.000Z</time>
      </trkpt>
      <trkpt lat="43.55961" lon="3.81551">
        <ele>17</ele>
        <time>2020-10-10T08:57:42.000Z</time>
      </trkpt>
      <trkpt lat="43.55963" lon="3.81549">
        <ele>17</ele>
        <time>2020-10-10T08:57:43.000Z</time>
      </trkpt>
      <trkpt lat="43.55964" lon="3.81547">
        <ele>17</ele>
        <time>2020-10-10T08:57:44.000Z</time>
      </trkpt>
      <trkpt lat="43.55965" lon="3.81542">
        <ele>17</ele>
        <time>2020-10-10T08:57:46.000Z</time>
      </trkpt>
      <trkpt lat="43.55968" lon="3.8154">
        <ele>17</ele>
        <time>2020-10-10T08:57:48.000Z</time>
      </trkpt>
      <trkpt lat="43.5597" lon="3.81536">
        <ele>17</ele>
        <time>2020-10-10T08:57:50.000Z</time>
      </trkpt>
      <trkpt lat="43.55972" lon="3.81533">
        <ele>17</ele>
        <time>2020-10-10T08:57:51.000Z</time>
      </trkpt>
      <trkpt lat="43.55973" lon="3.8153">
        <ele>16.969844046693</ele>
        <time>2020-10-10T08:57:52.000Z</time>
      </trkpt>
      <trkpt lat="43.55974" lon="3.81527">
        <ele>16.872567782101</ele>
        <time>2020-10-10T08:57:53.000Z</time>
      </trkpt>
      <trkpt lat="43.55976" lon="3.81524">
        <ele>16.77529151751</ele>
        <time>2020-10-10T08:57:54.000Z</time>
      </trkpt>
      <trkpt lat="43.55978" lon="3.81521">
        <ele>16.678015252918</ele>
        <time>2020-10-10T08:57:55.000Z</time>
      </trkpt>
      <trkpt lat="43.55981" lon="3.81517">
        <ele>16.580738988327</ele>
        <time>2020-10-10T08:57:56.000Z</time>
      </trkpt>
      <trkpt lat="43.55983" lon="3.81513">
        <ele>16.483462723735</ele>
        <time>2020-10-10T08:57:57.000Z</time>
      </trkpt>
      <trkpt lat="43.55985" lon="3.8151">
        <ele>16.386186459144</ele>
        <time>2020-10-10T08:57:58.000Z</time>
      </trkpt>
      <trkpt lat="43.55986" lon="3.81506">
        <ele>16.288910194552</ele>
        <time>2020-10-10T08:57:59.000Z</time>
      </trkpt>
      <trkpt lat="43.55988" lon="3.81501">
        <ele>16.191633929961</ele>
        <time>2020-10-10T08:58:00.000Z</time>
      </trkpt>
      <trkpt lat="43.55989" lon="3.81497">
        <ele>16.09435766537</ele>
        <time>2020-10-10T08:58:01.000Z</time>
      </trkpt>
      <trkpt lat="43.55991" lon="3.81493">
        <ele>15.993826502058</ele>
        <time>2020-10-10T08:58:02.000Z</time>
      </trkpt>
      <trkpt lat="43.55992" lon="3.81489">
        <ele>15.788065185185</ele>
        <time>2020-10-10T08:58:03.000Z</time>
      </trkpt>
      <trkpt lat="43.55992" lon="3.81485">
        <ele>15.582303868313</ele>
        <time>2020-10-10T08:58:04.000Z</time>
      </trkpt>
      <trkpt lat="43.55994" lon="3.81481">
        <ele>15.37654255144</ele>
        <time>2020-10-10T08:58:05.000Z</time>
      </trkpt>
      <trkpt lat="43.55996" lon="3.81477">
        <ele>15.170781234568</ele>
        <time>2020-10-10T08:58:06.000Z</time>
      </trkpt>
      <trkpt lat="43.55998" lon="3.81474">
        <ele>14.965019917695</ele>
        <time>2020-10-10T08:58:07.000Z</time>
      </trkpt>
      <trkpt lat="43.56" lon="3.81473">
        <ele>14.759258600823</ele>
        <time>2020-10-10T08:58:08.000Z</time>
      </trkpt>
      <trkpt lat="43.56002" lon="3.81471">
        <ele>14.553497283951</ele>
        <time>2020-10-10T08:58:09.000Z</time>
      </trkpt>
      <trkpt lat="43.56003" lon="3.81468">
        <ele>14.347735967078</ele>
        <time>2020-10-10T08:58:10.000Z</time>
      </trkpt>
      <trkpt lat="43.56004" lon="3.81463">
        <ele>14.141974650206</ele>
        <time>2020-10-10T08:58:11.000Z</time>
      </trkpt>
      <trkpt lat="43.56005" lon="3.81457">
        <ele>14.030876812749</ele>
        <time>2020-10-10T08:58:12.000Z</time>
      </trkpt>
      <trkpt lat="43.56006" lon="3.81452">
        <ele>14.130478406375</ele>
        <time>2020-10-10T08:58:13.000Z</time>
      </trkpt>
      <trkpt lat="43.56007" lon="3.81447">
        <ele>14.23008</ele>
        <time>2020-10-10T08:58:14.000Z</time>
      </trkpt>
      <trkpt lat="43.56008" lon="3.81443">
        <ele>14.329681593625</ele>
        <time>2020-10-10T08:58:15.000Z</time>
      </trkpt>
      <trkpt lat="43.56009" lon="3.81439">
        <ele>14.429283187251</ele>
        <time>2020-10-10T08:58:16.000Z</time>
      </trkpt>
      <trkpt lat="43.5601" lon="3.81436">
        <ele>14.528884780876</ele>
        <time>2020-10-10T08:58:17.000Z</time>
      </trkpt>
      <trkpt lat="43.56011" lon="3.81432">
        <ele>14.628486374502</ele>
        <time>2020-10-10T08:58:18.000Z</time>
      </trkpt>
      <trkpt lat="43.56012" lon="3.81429">
        <ele>14.728087968128</ele>
        <time>2020-10-10T08:58:19.000Z</time>
      </trkpt>
      <trkpt lat="43.56012" lon="3.81426">
        <ele>14.827689561753</ele>
        <time>2020-10-10T08:58:20.000Z</time>
      </trkpt>
      <trkpt lat="43.56011" lon="3.81422">
        <ele>14.927291155378</ele>
        <time>2020-10-10T08:58:21.000Z</time>
      </trkpt>
      <trkpt lat="43.56012" lon="3.81418">
        <ele>15</ele>
        <time>2020-10-10T08:58:22.000Z</time>
      </trkpt>
      <trkpt lat="43.56013" lon="3.81413">
        <ele>15</ele>
        <time>2020-10-10T08:58:23.000Z</time>
      </trkpt>
      <trkpt lat="43.56013" lon="3.81409">
        <ele>15</ele>
        <time>2020-10-10T08:58:24.000Z</time>
      </trkpt>
      <trkpt lat="43.56013" lon="3.81405">
        <ele>15</ele>
        <time>2020-10-10T08:58:25.000Z</time>
      </trkpt>
      <trkpt lat="43.56013" lon="3.81399">
        <ele>15</ele>
        <time>2020-10-10T08:58:26.000Z</time>
      </trkpt>
      <trkpt lat="43.56013" lon="3.81393">
        <ele>15</ele>
        <time>2020-10-10T08:58:27.000Z</time>
      </trkpt>
      <trkpt lat="43.56013" lon="3.81388">
        <ele>15</ele>
        <time>2020-10-10T08:58:28.000Z</time>
      </trkpt>
      <trkpt lat="43.56013" lon="3.81382">
        <ele>15</ele>
        <time>2020-10-10T08:58:29.000Z</time>
      </trkpt>
      <trkpt lat="43.56013" lon="3.81377">
        <ele>15</ele>
        <time>2020-10-10T08:58:30.000Z</time>
      </trkpt>
      <trkpt lat="43.56013" lon="3.81372">
        <ele>15</ele>
        <time>2020-10-10T08:58:31.000Z</time>
      </trkpt>
      <trkpt lat="43.56012" lon="3.81367">
        <ele>15</ele>
        <time>2020-10-10T08:58:32.000Z</time>
      </trkpt>
      <trkpt lat="43.56011" lon="3.81364">
        <ele>15</ele>
        <time>2020-10-10T08:58:33.000Z</time>
      </trkpt>
      <trkpt lat="43.5601" lon="3.81361">
        <ele>15</ele>
        <time>2020-10-10T08:58:34.000Z</time>
      </trkpt>
      <trkpt lat="43.56009" lon="3.81359">
        <ele>15</ele>
        <time>2020-10-10T08:58:35.000Z</time>
      </trkpt>
      <trkpt lat="43.5601" lon="3.81356">
        <ele>15</ele>
        <time>2020-10-10T08:58:36.000Z</time>
      </trkpt>
      <trkpt lat="43.56011" lon="3.81354">
        <ele>15</ele>
        <time>2020-10-10T08:58:37.000Z</time>
      </trkpt>
      <trkpt lat="43.56013" lon="3.81349">
        <ele>15</ele>
        <time>2020-10-10T08:58:39.000Z</time>
      </trkpt>
      <trkpt lat="43.56014" lon="3.81347">
        <ele>15</ele>
        <time>2020-10-10T08:58:40.000Z</time>
      </trkpt>
      <trkpt lat="43.56014" lon="3.81345">
        <ele>15</ele>
        <time>2020-10-10T08:58:41.000Z</time>
      </trkpt>
      <trkpt lat="43.56015" lon="3.8134">
        <ele>15</ele>
        <time>2020-10-10T08:58:43.000Z</time>
      </trkpt>
      <trkpt lat="43.56016" lon="3.81336">
        <ele>15</ele>
        <time>2020-10-10T08:58:45.000Z</time>
      </trkpt>
      <trkpt lat="43.56017" lon="3.81332">
        <ele>15</ele>
        <time>2020-10-10T08:58:47.000Z</time>
      </trkpt>
      <trkpt lat="43.56018" lon="3.81327">
        <ele>15</ele>
        <time>2020-10-10T08:58:49.000Z</time>
      </trkpt>
      <trkpt lat="43.56018" lon="3.81324">
        <ele>15</ele>
        <time>2020-10-10T08:58:50.000Z</time>
      </trkpt>
      <trkpt lat="43.56019" lon="3.81321">
        <ele>15</ele>
        <time>2020-10-10T08:58:51.000Z</time>
      </trkpt>
      <trkpt lat="43.56019" lon="3.81317">
        <ele>15</ele>
        <time>2020-10-10T08:58:52.000Z</time>
      </trkpt>
      <trkpt lat="43.5602" lon="3.81315">
        <ele>15</ele>
        <time>2020-10-10T08:58:53.000Z</time>
      </trkpt>
      <trkpt lat="43.56021" lon="3.81312">
        <ele>15</ele>
        <time>2020-10-10T08:58:54.000Z</time>
      </trkpt>
      <trkpt lat="43.56022" lon="3.8131">
        <ele>15</ele>
        <time>2020-10-10T08:58:55.000Z</time>
      </trkpt>
      <trkpt lat="43.56023" lon="3.81305">
        <ele>15</ele>
        <time>2020-10-10T08:58:57.000Z</time>
      </trkpt>
      <trkpt lat="43.56024" lon="3.81301">
        <ele>15</ele>
        <time>2020-10-10T08:58:59.000Z</time>
      </trkpt>
      <trkpt lat="43.56024" lon="3.81297">
        <ele>15</ele>
        <time>2020-10-10T08:59:01.000Z</time>
      </trkpt>
      <trkpt lat="43.56025" lon="3.81294">
        <ele>15</ele>
        <time>2020-10-10T08:59:02.000Z</time>
      </trkpt>
      <trkpt lat="43.56025" lon="3.81291">
        <ele>15</ele>
        <time>2020-10-10T08:59:03.000Z</time>
      </trkpt>
      <trkpt lat="43.56025" lon="3.81289">
        <ele>15</ele>
        <time>2020-10-10T08:59:04.000Z</time>
      </trkpt>
      <trkpt lat="43.56025" lon="3.81286">
        <ele>15</ele>
        <time>2020-10-10T08:59:05.000Z</time>
      </trkpt>
      <trkpt lat="43.56024" lon="3.81283">
        <ele>15</ele>
        <time>2020-10-10T08:59:06.000Z</time>
      </trkpt>
      <trkpt lat="43.56024" lon="3.8128">
        <ele>15</ele>
        <time>2020-10-10T08:59:07.000Z</time>
      </trkpt>
      <trkpt lat="43.56022" lon="3.81278">
        <ele>15</ele>
        <time>2020-10-10T08:59:08.000Z</time>
      </trkpt>
      <trkpt lat="43.56021" lon="3.81276">
        <ele>15</ele>
        <time>2020-10-10T08:59:09.000Z</time>
      </trkpt>
      <trkpt lat="43.5602" lon="3.81273">
        <ele>15</ele>
        <time>2020-10-10T08:59:10.000Z</time>
      </trkpt>
      <trkpt lat="43.56019" lon="3.81269">
        <ele>15</ele>
        <time>2020-10-10T08:59:12.000Z</time>
      </trkpt>
      <trkpt lat="43.56019" lon="3.81266">
        <ele>15</ele>
        <time>2020-10-10T08:59:14.000Z</time>
      </trkpt>
      <trkpt lat="43.56022" lon="3.81262">
        <ele>15</ele>
        <time>2020-10-10T08:59:16.000Z</time>
      </trkpt>
      <trkpt lat="43.56023" lon="3.81258">
        <ele>15</ele>
        <time>2020-10-10T08:59:18.000Z</time>
      </trkpt>
      <trkpt lat="43.56023" lon="3.81255">
        <ele>15</ele>
        <time>2020-10-10T08:59:19.000Z</time>
      </trkpt>
      <trkpt lat="43.56024" lon="3.81253">
        <ele>15</ele>
        <time>2020-10-10T08:59:20.000Z</time>
      </trkpt>
      <trkpt lat="43.56024" lon="3.81249">
        <ele>15</ele>
        <time>2020-10-10T08:59:22.000Z</time>
      </trkpt>
      <trkpt lat="43.56024" lon="3.81247">
        <ele>15</ele>
        <time>2020-10-10T08:59:23.000Z</time>
      </trkpt>
      <trkpt lat="43.56024" lon="3.81244">
        <ele>15</ele>
        <time>2020-10-10T08:59:24.000Z</time>
      </trkpt>
      <trkpt lat="43.56024" lon="3.8124">
        <ele>15</ele>
        <time>2020-10-10T08:59:25.000Z</time>
      </trkpt>
      <trkpt lat="43.56024" lon="3.81237">
        <ele>15</ele>
        <time>2020-10-10T08:59:26.000Z</time>
      </trkpt>
      <trkpt lat="43.56024" lon="3.81234">
        <ele>15</ele>
        <time>2020-10-10T08:59:27.000Z</time>
      </trkpt>
      <trkpt lat="43.56025" lon="3.8123">
        <ele>15</ele>
        <time>2020-10-10T08:59:29.000Z</time>
      </trkpt>
      <trkpt lat="43.56025" lon="3.81226">
        <ele>15</ele>
        <time>2020-10-10T08:59:31.000Z</time>
      </trkpt>
      <trkpt lat="43.56026" lon="3.81224">
        <ele>15</ele>
        <time>2020-10-10T08:59:37.000Z</time>
      </trkpt>
      <trkpt lat="43.56027" lon="3.81222">
        <ele>15</ele>
        <time>2020-10-10T08:59:39.000Z</time>
      </trkpt>
      <trkpt lat="43.56028" lon="3.81219">
        <ele>15</ele>
        <time>2020-10-10T08:59:42.000Z</time>
      </trkpt>
      <trkpt lat="43.56027" lon="3.81219">
        <ele>15</ele>
        <time>2020-10-10T08:59:47.000Z</time>
      </trkpt>
      <trkpt lat="43.56025" lon="3.8121">
        <ele>15</ele>
        <time>2020-10-10T08:59:52.000Z</time>
      </trkpt>
      <trkpt lat="43.56025" lon="3.81207">
        <ele>14.914737121507</ele>
        <time>2020-10-10T08:59:53.000Z</time>
      </trkpt>
      <trkpt lat="43.56025" lon="3.81205">
        <ele>14.809473892698</ele>
        <time>2020-10-10T08:59:54.000Z</time>
      </trkpt>
      <trkpt lat="43.56024" lon="3.812">
        <ele>14.59894743508</ele>
        <time>2020-10-10T08:59:56.000Z</time>
      </trkpt>
      <trkpt lat="43.56023" lon="3.81198">
        <ele>14.493684206271</ele>
        <time>2020-10-10T08:59:57.000Z</time>
      </trkpt>
      <trkpt lat="43.56022" lon="3.81196">
        <ele>14.388420977463</ele>
        <time>2020-10-10T08:59:58.000Z</time>
      </trkpt>
      <trkpt lat="43.56021" lon="3.81193">
        <ele>14.283157748654</ele>
        <time>2020-10-10T08:59:59.000Z</time>
      </trkpt>
      <trkpt lat="43.5602" lon="3.8119">
        <ele>14.177894519845</ele>
        <time>2020-10-10T09:00:00.000Z</time>
      </trkpt>
      <trkpt lat="43.56019" lon="3.81187">
        <ele>14.072631291036</ele>
        <time>2020-10-10T09:00:01.000Z</time>
      </trkpt>
      <trkpt lat="43.56018" lon="3.81183">
        <ele>14</ele>
        <time>2020-10-10T09:00:02.000Z</time>
      </trkpt>
      <trkpt lat="43.56016" lon="3.8118">
        <ele>14</ele>
        <time>2020-10-10T09:00:03.000Z</time>
      </trkpt>
      <trkpt lat="43.56015" lon="3.81176">
        <ele>14</ele>
        <time>2020-10-10T09:00:04.000Z</time>
      </trkpt>
      <trkpt lat="43.56013" lon="3.81172">
        <ele>14</ele>
        <time>2020-10-10T09:00:05.000Z</time>
      </trkpt>
      <trkpt lat="43.56012" lon="3.81168">
        <ele>14</ele>
        <time>2020-10-10T09:00:06.000Z</time>
      </trkpt>
      <trkpt lat="43.5601" lon="3.81165">
        <ele>14</ele>
        <time>2020-10-10T09:00:07.000Z</time>
      </trkpt>
      <trkpt lat="43.56009" lon="3.81161">
        <ele>14</ele>
        <time>2020-10-10T09:00:08.000Z</time>
      </trkpt>
      <trkpt lat="43.56008" lon="3.81157">
        <ele>14</ele>
        <time>2020-10-10T09:00:09.000Z</time>
      </trkpt>
      <trkpt lat="43.56007" lon="3.81154">
        <ele>14</ele>
        <time>2020-10-10T09:00:11.000Z</time>
      </trkpt>
      <trkpt lat="43.56007" lon="3.81154">
        <ele>14</ele>
        <time>2020-10-10T09:00:15.000Z</time>
      </trkpt>
      <trkpt lat="43.56006" lon="3.81149">
        <ele>15.98399423895</ele>
        <time>2020-10-10T09:00:40.000Z</time>
      </trkpt>
      <trkpt lat="43.56004" lon="3.8115">
        <ele>16</ele>
        <time>2020-10-10T09:00:48.000Z</time>
      </trkpt>
      <trkpt lat="43.56003" lon="3.81152">
        <ele>16</ele>
        <time>2020-10-10T09:00:49.000Z</time>
      </trkpt>
      <trkpt lat="43.56001" lon="3.81154">
        <ele>16</ele>
        <time>2020-10-10T09:00:50.000Z</time>
      </trkpt>
      <trkpt lat="43.55999" lon="3.81155">
        <ele>16</ele>
        <time>2020-10-10T09:00:51.000Z</time>
      </trkpt>
      <trkpt lat="43.55997" lon="3.81156">
        <ele>16</ele>
        <time>2020-10-10T09:00:52.000Z</time>
      </trkpt>
      <trkpt lat="43.55995" lon="3.81154">
        <ele>16</ele>
        <time>2020-10-10T09:00:54.000Z</time>
      </trkpt>
      <trkpt lat="43.55992" lon="3.81155">
        <ele>16</ele>
        <time>2020-10-10T09:00:57.000Z</time>
      </trkpt>
      <trkpt lat="43.5599" lon="3.81156">
        <ele>16</ele>
        <time>2020-10-10T09:01:03.000Z</time>
      </trkpt>
      <trkpt lat="43.55988" lon="3.81155">
        <ele>16</ele>
        <time>2020-10-10T09:01:06.000Z</time>
      </trkpt>
      <trkpt lat="43.55987" lon="3.81155">
        <ele>16</ele>
        <time>2020-10-10T09:01:11.000Z</time>
      </trkpt>
      <trkpt lat="43.5598" lon="3.8115">
        <ele>15.020626681895</ele>
        <time>2020-10-10T09:01:24.000Z</time>
      </trkpt>
      <trkpt lat="43.55979" lon="3.8115">
        <ele>15</ele>
        <time>2020-10-10T09:01:25.000Z</time>
      </trkpt>
      <trkpt lat="43.55977" lon="3.81149">
        <ele>15</ele>
        <time>2020-10-10T09:01:28.000Z</time>
      </trkpt>
      <trkpt lat="43.55975" lon="3.81148">
        <ele>15</ele>
        <time>2020-10-10T09:01:29.000Z</time>
      </trkpt>
      <trkpt lat="43.55973" lon="3.81147">
        <ele>15</ele>
        <time>2020-10-10T09:01:30.000Z</time>
      </trkpt>
      <trkpt lat="43.55971" lon="3.81146">
        <ele>15</ele>
        <time>2020-10-10T09:01:31.000Z</time>
      </trkpt>
      <trkpt lat="43.5597" lon="3.81144">
        <ele>15</ele>
        <time>2020-10-10T09:01:32.000Z</time>
      </trkpt>
      <trkpt lat="43.55968" lon="3.8114">
        <ele>15</ele>
        <time>2020-10-10T09:01:34.000Z</time>
      </trkpt>
      <trkpt lat="43.55965" lon="3.81137">
        <ele>15</ele>
        <time>2020-10-10T09:01:36.000Z</time>
      </trkpt>
      <trkpt lat="43.55963" lon="3.81134">
        <ele>15</ele>
        <time>2020-10-10T09:01:38.000Z</time>
      </trkpt>
      <trkpt lat="43.5596" lon="3.81133">
        <ele>15</ele>
        <time>2020-10-10T09:01:40.000Z</time>
      </trkpt>
      <trkpt lat="43.55958" lon="3.81132">
        <ele>15</ele>
        <time>2020-10-10T09:01:41.000Z</time>
      </trkpt>
      <trkpt lat="43.55956" lon="3.8113">
        <ele>15</ele>
        <time>2020-10-10T09:01:42.000Z</time>
      </trkpt>
      <trkpt lat="43.55955" lon="3.81127">
        <ele>15</ele>
        <time>2020-10-10T09:01:43.000Z</time>
      </trkpt>
      <trkpt lat="43.55953" lon="3.81125">
        <ele>15</ele>
        <time>2020-10-10T09:01:44.000Z</time>
      </trkpt>
      <trkpt lat="43.55952" lon="3.81123">
        <ele>15</ele>
        <time>2020-10-10T09:01:45.000Z</time>
      </trkpt>
      <trkpt lat="43.5595" lon="3.81121">
        <ele>15</ele>
        <time>2020-10-10T09:01:46.000Z</time>
      </trkpt>
      <trkpt lat="43.55949" lon="3.81119">
        <ele>15</ele>
        <time>2020-10-10T09:01:47.000Z</time>
      </trkpt>
      <trkpt lat="43.55947" lon="3.81117">
        <ele>15</ele>
        <time>2020-10-10T09:01:48.000Z</time>
      </trkpt>
      <trkpt lat="43.55945" lon="3.81115">
        <ele>15</ele>
        <time>2020-10-10T09:01:49.000Z</time>
      </trkpt>
      <trkpt lat="43.55943" lon="3.81114">
        <ele>15</ele>
        <time>2020-10-10T09:01:50.000Z</time>
      </trkpt>
      <trkpt lat="43.55941" lon="3.81112">
        <ele>15</ele>
        <time>2020-10-10T09:01:51.000Z</time>
      </trkpt>
      <trkpt lat="43.55939" lon="3.8111">
        <ele>15</ele>
        <time>2020-10-10T09:01:52.000Z</time>
      </trkpt>
      <trkpt lat="43.55938" lon="3.81108">
        <ele>15</ele>
        <time>2020-10-10T09:01:53.000Z</time>
      </trkpt>
      <trkpt lat="43.55935" lon="3.81105">
        <ele>14.966230611778</ele>
        <time>2020-10-10T09:01:54.000Z</time>
      </trkpt>
      <trkpt lat="43.55934" lon="3.81103">
        <ele>14.857298225849</ele>
        <time>2020-10-10T09:01:55.000Z</time>
      </trkpt>
      <trkpt lat="43.55932" lon="3.81102">
        <ele>14.748365839919</ele>
        <time>2020-10-10T09:01:56.000Z</time>
      </trkpt>
      <trkpt lat="43.55931" lon="3.811">
        <ele>14</ele>
        <time>2020-10-10T09:02:03.000Z</time>
      </trkpt>
      <trkpt lat="43.55929" lon="3.81094">
        <ele>15.006154500544</ele>
        <time>2020-10-10T09:02:12.000Z</time>
      </trkpt>
      <trkpt lat="43.55928" lon="3.81092">
        <ele>15.108718569446</ele>
        <time>2020-10-10T09:02:13.000Z</time>
      </trkpt>
      <trkpt lat="43.55926" lon="3.81089">
        <ele>15.211282638348</ele>
        <time>2020-10-10T09:02:14.000Z</time>
      </trkpt>
      <trkpt lat="43.55925" lon="3.81086">
        <ele>15.31384670725</ele>
        <time>2020-10-10T09:02:15.000Z</time>
      </trkpt>
      <trkpt lat="43.55923" lon="3.81083">
        <ele>15.416410776152</ele>
        <time>2020-10-10T09:02:16.000Z</time>
      </trkpt>
      <trkpt lat="43.55921" lon="3.8108">
        <ele>15.518974845054</ele>
        <time>2020-10-10T09:02:17.000Z</time>
      </trkpt>
      <trkpt lat="43.55918" lon="3.81079">
        <ele>15.621538913957</ele>
        <time>2020-10-10T09:02:18.000Z</time>
      </trkpt>
      <trkpt lat="43.55916" lon="3.81079">
        <ele>15.724102982859</ele>
        <time>2020-10-10T09:02:19.000Z</time>
      </trkpt>
      <trkpt lat="43.55914" lon="3.81078">
        <ele>15.826667051761</ele>
        <time>2020-10-10T09:02:20.000Z</time>
      </trkpt>
      <trkpt lat="43.55911" lon="3.81075">
        <ele>16</ele>
        <time>2020-10-10T09:02:22.000Z</time>
      </trkpt>
      <trkpt lat="43.55909" lon="3.81073">
        <ele>16</ele>
        <time>2020-10-10T09:02:23.000Z</time>
      </trkpt>
      <trkpt lat="43.55908" lon="3.81071">
        <ele>16</ele>
        <time>2020-10-10T09:02:24.000Z</time>
      </trkpt>
      <trkpt lat="43.55907" lon="3.81069">
        <ele>16</ele>
        <time>2020-10-10T09:02:25.000Z</time>
      </trkpt>
      <trkpt lat="43.55905" lon="3.81066">
        <ele>16</ele>
        <time>2020-10-10T09:02:26.000Z</time>
      </trkpt>
      <trkpt lat="43.55904" lon="3.81064">
        <ele>16</ele>
        <time>2020-10-10T09:02:27.000Z</time>
      </trkpt>
      <trkpt lat="43.55902" lon="3.81062">
        <ele>16</ele>
        <time>2020-10-10T09:02:28.000Z</time>
      </trkpt>
      <trkpt lat="43.55901" lon="3.81059">
        <ele>16</ele>
        <time>2020-10-10T09:02:29.000Z</time>
      </trkpt>
      <trkpt lat="43.55898" lon="3.81056">
        <ele>16</ele>
        <time>2020-10-10T09:02:30.000Z</time>
      </trkpt>
      <trkpt lat="43.55896" lon="3.81052">
        <ele>16</ele>
        <time>2020-10-10T09:02:31.000Z</time>
      </trkpt>
      <trkpt lat="43.55894" lon="3.81049">
        <ele>16</ele>
        <time>2020-10-10T09:02:32.000Z</time>
      </trkpt>
      <trkpt lat="43.55892" lon="3.81046">
        <ele>16</ele>
        <time>2020-10-10T09:02:33.000Z</time>
      </trkpt>
      <trkpt lat="43.5589" lon="3.81043">
        <ele>16</ele>
        <time>2020-10-10T09:02:34.000Z</time>
      </trkpt>
      <trkpt lat="43.55888" lon="3.81039">
        <ele>16</ele>
        <time>2020-10-10T09:02:35.000Z</time>
      </trkpt>
      <trkpt lat="43.55886" lon="3.81036">
        <ele>15.897476741932</ele>
        <time>2020-10-10T09:02:36.000Z</time>
      </trkpt>
      <trkpt lat="43.55884" lon="3.81033">
        <ele>15.739747876086</ele>
        <time>2020-10-10T09:02:37.000Z</time>
      </trkpt>
      <trkpt lat="43.55882" lon="3.81029">
        <ele>15.58201901024</ele>
        <time>2020-10-10T09:02:38.000Z</time>
      </trkpt>
      <trkpt lat="43.5588" lon="3.81025">
        <ele>15.424290144394</ele>
        <time>2020-10-10T09:02:39.000Z</time>
      </trkpt>
      <trkpt lat="43.55877" lon="3.81022">
        <ele>15.266561278548</ele>
        <time>2020-10-10T09:02:40.000Z</time>
      </trkpt>
      <trkpt lat="43.55875" lon="3.81019">
        <ele>15.108832412701</ele>
        <time>2020-10-10T09:02:41.000Z</time>
      </trkpt>
      <trkpt lat="43.55873" lon="3.81016">
        <ele>15</ele>
        <time>2020-10-10T09:02:42.000Z</time>
      </trkpt>
      <trkpt lat="43.55871" lon="3.81013">
        <ele>15</ele>
        <time>2020-10-10T09:02:43.000Z</time>
      </trkpt>
      <trkpt lat="43.5587" lon="3.8101">
        <ele>15</ele>
        <time>2020-10-10T09:02:44.000Z</time>
      </trkpt>
      <trkpt lat="43.55869" lon="3.81007">
        <ele>15</ele>
        <time>2020-10-10T09:02:45.000Z</time>
      </trkpt>
      <trkpt lat="43.55868" lon="3.81003">
        <ele>15</ele>
        <time>2020-10-10T09:02:46.000Z</time>
      </trkpt>
      <trkpt lat="43.55866" lon="3.81001">
        <ele>15</ele>
        <time>2020-10-10T09:02:47.000Z</time>
      </trkpt>
      <trkpt lat="43.55864" lon="3.80998">
        <ele>15</ele>
        <time>2020-10-10T09:02:48.000Z</time>
      </trkpt>
      <trkpt lat="43.55862" lon="3.80996">
        <ele>15</ele>
        <time>2020-10-10T09:02:49.000Z</time>
      </trkpt>
      <trkpt lat="43.5586" lon="3.80994">
        <ele>15</ele>
        <time>2020-10-10T09:02:50.000Z</time>
      </trkpt>
      <trkpt lat="43.55858" lon="3.80992">
        <ele>15</ele>
        <time>2020-10-10T09:02:51.000Z</time>
      </trkpt>
      <trkpt lat="43.55856" lon="3.80991">
        <ele>15</ele>
        <time>2020-10-10T09:02:52.000Z</time>
      </trkpt>
      <trkpt lat="43.55854" lon="3.8099">
        <ele>15</ele>
        <time>2020-10-10T09:02:54.000Z</time>
      </trkpt>
      <trkpt lat="43.55851" lon="3.80985">
        <ele>15</ele>
        <time>2020-10-10T09:02:56.000Z</time>
      </trkpt>
      <trkpt lat="43.5585" lon="3.80983">
        <ele>15</ele>
        <time>2020-10-10T09:02:57.000Z</time>
      </trkpt>
      <trkpt lat="43.55849" lon="3.8098">
        <ele>15</ele>
        <time>2020-10-10T09:02:58.000Z</time>
      </trkpt>
      <trkpt lat="43.55848" lon="3.80976">
        <ele>15</ele>
        <time>2020-10-10T09:02:59.000Z</time>
      </trkpt>
      <trkpt lat="43.55847" lon="3.80971">
        <ele>15</ele>
        <time>2020-10-10T09:03:00.000Z</time>
      </trkpt>
      <trkpt lat="43.55846" lon="3.80967">
        <ele>15</ele>
        <time>2020-10-10T09:03:01.000Z</time>
      </trkpt>
      <trkpt lat="43.55845" lon="3.80963">
        <ele>15.03100032</ele>
        <time>2020-10-10T09:03:02.000Z</time>
      </trkpt>
      <trkpt lat="43.55844" lon="3.80959">
        <ele>15.13100032</ele>
        <time>2020-10-10T09:03:03.000Z</time>
      </trkpt>
      <trkpt lat="43.55843" lon="3.80956">
        <ele>15.23100032</ele>
        <time>2020-10-10T09:03:04.000Z</time>
      </trkpt>
      <trkpt lat="43.55841" lon="3.80953">
        <ele>15.33100032</ele>
        <time>2020-10-10T09:03:05.000Z</time>
      </trkpt>
      <trkpt lat="43.55839" lon="3.80951">
        <ele>15.43100032</ele>
        <time>2020-10-10T09:03:06.000Z</time>
      </trkpt>
      <trkpt lat="43.55837" lon="3.80948">
        <ele>15.53100032</ele>
        <time>2020-10-10T09:03:07.000Z</time>
      </trkpt>
      <trkpt lat="43.55835" lon="3.80945">
        <ele>15.63100032</ele>
        <time>2020-10-10T09:03:08.000Z</time>
      </trkpt>
      <trkpt lat="43.55834" lon="3.80943">
        <ele>15.73100032</ele>
        <time>2020-10-10T09:03:09.000Z</time>
      </trkpt>
      <trkpt lat="43.55832" lon="3.80941">
        <ele>15.83100032</ele>
        <time>2020-10-10T09:03:10.000Z</time>
      </trkpt>
      <trkpt lat="43.5583" lon="3.80939">
        <ele>15.93100032</ele>
        <time>2020-10-10T09:03:11.000Z</time>
      </trkpt>
      <trkpt lat="43.55829" lon="3.80937">
        <ele>16</ele>
        <time>2020-10-10T09:03:12.000Z</time>
      </trkpt>
      <trkpt lat="43.55828" lon="3.80934">
        <ele>16</ele>
        <time>2020-10-10T09:03:13.000Z</time>
      </trkpt>
      <trkpt lat="43.55828" lon="3.8093">
        <ele>16</ele>
        <time>2020-10-10T09:03:14.000Z</time>
      </trkpt>
      <trkpt lat="43.55826" lon="3.80927">
        <ele>16</ele>
        <time>2020-10-10T09:03:15.000Z</time>
      </trkpt>
      <trkpt lat="43.55825" lon="3.80925">
        <ele>16</ele>
        <time>2020-10-10T09:03:16.000Z</time>
      </trkpt>
      <trkpt lat="43.55823" lon="3.80921">
        <ele>16</ele>
        <time>2020-10-10T09:03:17.000Z</time>
      </trkpt>
      <trkpt lat="43.55821" lon="3.80918">
        <ele>16</ele>
        <time>2020-10-10T09:03:18.000Z</time>
      </trkpt>
      <trkpt lat="43.55821" lon="3.80914">
        <ele>16</ele>
        <time>2020-10-10T09:03:19.000Z</time>
      </trkpt>
      <trkpt lat="43.5582" lon="3.80909">
        <ele>16</ele>
        <time>2020-10-10T09:03:20.000Z</time>
      </trkpt>
      <trkpt lat="43.55819" lon="3.80905">
        <ele>16</ele>
        <time>2020-10-10T09:03:21.000Z</time>
      </trkpt>
      <trkpt lat="43.55819" lon="3.80901">
        <ele>15.96899968</ele>
        <time>2020-10-10T09:03:22.000Z</time>
      </trkpt>
      <trkpt lat="43.55818" lon="3.80897">
        <ele>15.86899968</ele>
        <time>2020-10-10T09:03:23.000Z</time>
      </trkpt>
      <trkpt lat="43.55817" lon="3.80893">
        <ele>15.76899968</ele>
        <time>2020-10-10T09:03:24.000Z</time>
      </trkpt>
      <trkpt lat="43.55815" lon="3.8089">
        <ele>15.66899968</ele>
        <time>2020-10-10T09:03:25.000Z</time>
      </trkpt>
      <trkpt lat="43.55813" lon="3.80887">
        <ele>15.56899968</ele>
        <time>2020-10-10T09:03:26.000Z</time>
      </trkpt>
      <trkpt lat="43.5581" lon="3.80885">
        <ele>15.46899968</ele>
        <time>2020-10-10T09:03:27.000Z</time>
      </trkpt>
      <trkpt lat="43.55808" lon="3.80884">
        <ele>15.36899968</ele>
        <time>2020-10-10T09:03:28.000Z</time>
      </trkpt>
      <trkpt lat="43.55806" lon="3.80882">
        <ele>15.26899968</ele>
        <time>2020-10-10T09:03:29.000Z</time>
      </trkpt>
      <trkpt lat="43.55803" lon="3.80881">
        <ele>15.16899968</ele>
        <time>2020-10-10T09:03:30.000Z</time>
      </trkpt>
      <trkpt lat="43.558" lon="3.80879">
        <ele>15.06899968</ele>
        <time>2020-10-10T09:03:31.000Z</time>
      </trkpt>
      <trkpt lat="43.55798" lon="3.80876">
        <ele>15</ele>
        <time>2020-10-10T09:03:32.000Z</time>
      </trkpt>
      <trkpt lat="43.55796" lon="3.80872">
        <ele>15</ele>
        <time>2020-10-10T09:03:33.000Z</time>
      </trkpt>
      <trkpt lat="43.55795" lon="3.80868">
        <ele>15</ele>
        <time>2020-10-10T09:03:34.000Z</time>
      </trkpt>
      <trkpt lat="43.55794" lon="3.80865">
        <ele>15</ele>
        <time>2020-10-10T09:03:35.000Z</time>
      </trkpt>
      <trkpt lat="43.55793" lon="3.80861">
        <ele>15</ele>
        <time>2020-10-10T09:03:36.000Z</time>
      </trkpt>
      <trkpt lat="43.55792" lon="3.80857">
        <ele>15</ele>
        <time>2020-10-10T09:03:37.000Z</time>
      </trkpt>
      <trkpt lat="43.55792" lon="3.80853">
        <ele>15</ele>
        <time>2020-10-10T09:03:38.000Z</time>
      </trkpt>
      <trkpt lat="43.55791" lon="3.80849">
        <ele>15</ele>
        <time>2020-10-10T09:03:40.000Z</time>
      </trkpt>
      <trkpt lat="43.55789" lon="3.80848">
        <ele>15</ele>
        <time>2020-10-10T09:03:42.000Z</time>
      </trkpt>
      <trkpt lat="43.55785" lon="3.80848">
        <ele>15</ele>
        <time>2020-10-10T09:03:44.000Z</time>
      </trkpt>
      <trkpt lat="43.55784" lon="3.80847">
        <ele>15</ele>
        <time>2020-10-10T09:03:45.000Z</time>
      </trkpt>
      <trkpt lat="43.55782" lon="3.80843">
        <ele>15</ele>
        <time>2020-10-10T09:03:47.000Z</time>
      </trkpt>
      <trkpt lat="43.55781" lon="3.80841">
        <ele>15</ele>
        <time>2020-10-10T09:03:48.000Z</time>
      </trkpt>
      <trkpt lat="43.5578" lon="3.80839">
        <ele>15</ele>
        <time>2020-10-10T09:03:49.000Z</time>
      </trkpt>
      <trkpt lat="43.55779" lon="3.80836">
        <ele>15</ele>
        <time>2020-10-10T09:03:50.000Z</time>
      </trkpt>
      <trkpt lat="43.55778" lon="3.80834">
        <ele>15</ele>
        <time>2020-10-10T09:03:51.000Z</time>
      </trkpt>
      <trkpt lat="43.55777" lon="3.80831">
        <ele>15.03100032</ele>
        <time>2020-10-10T09:03:52.000Z</time>
      </trkpt>
      <trkpt lat="43.55776" lon="3.80828">
        <ele>15.13100032</ele>
        <time>2020-10-10T09:03:53.000Z</time>
      </trkpt>
      <trkpt lat="43.55776" lon="3.80826">
        <ele>15.23100032</ele>
        <time>2020-10-10T09:03:54.000Z</time>
      </trkpt>
      <trkpt lat="43.55776" lon="3.80823">
        <ele>15.33100032</ele>
        <time>2020-10-10T09:03:55.000Z</time>
      </trkpt>
      <trkpt lat="43.55776" lon="3.8082">
        <ele>15.43100032</ele>
        <time>2020-10-10T09:03:56.000Z</time>
      </trkpt>
      <trkpt lat="43.55777" lon="3.80817">
        <ele>15.53100032</ele>
        <time>2020-10-10T09:03:57.000Z</time>
      </trkpt>
      <trkpt lat="43.55778" lon="3.80814">
        <ele>15.63100032</ele>
        <time>2020-10-10T09:03:58.000Z</time>
      </trkpt>
      <trkpt lat="43.55779" lon="3.8081">
        <ele>15.83100032</ele>
        <time>2020-10-10T09:04:00.000Z</time>
      </trkpt>
      <trkpt lat="43.55781" lon="3.80807">
        <ele>15.96899968</ele>
        <time>2020-10-10T09:04:02.000Z</time>
      </trkpt>
      <trkpt lat="43.55785" lon="3.80808">
        <ele>15.76899968</ele>
        <time>2020-10-10T09:04:04.000Z</time>
      </trkpt>
      <trkpt lat="43.55788" lon="3.80809">
        <ele>15.66899968</ele>
        <time>2020-10-10T09:04:05.000Z</time>
      </trkpt>
      <trkpt lat="43.5579" lon="3.80809">
        <ele>15.56899968</ele>
        <time>2020-10-10T09:04:06.000Z</time>
      </trkpt>
      <trkpt lat="43.55791" lon="3.80809">
        <ele>15.46899968</ele>
        <time>2020-10-10T09:04:07.000Z</time>
      </trkpt>
      <trkpt lat="43.55795" lon="3.80808">
        <ele>15.26899968</ele>
        <time>2020-10-10T09:04:09.000Z</time>
      </trkpt>
      <trkpt lat="43.55797" lon="3.80807">
        <ele>15.16899968</ele>
        <time>2020-10-10T09:04:10.000Z</time>
      </trkpt>
      <trkpt lat="43.55799" lon="3.80807">
        <ele>15.06899968</ele>
        <time>2020-10-10T09:04:11.000Z</time>
      </trkpt>
      <trkpt lat="43.55801" lon="3.80807">
        <ele>14.96899968</ele>
        <time>2020-10-10T09:04:12.000Z</time>
      </trkpt>
      <trkpt lat="43.55804" lon="3.80807">
        <ele>14.76899968</ele>
        <time>2020-10-10T09:04:14.000Z</time>
      </trkpt>
      <trkpt lat="43.55807" lon="3.80807">
        <ele>14.56899968</ele>
        <time>2020-10-10T09:04:16.000Z</time>
      </trkpt>
      <trkpt lat="43.55809" lon="3.80808">
        <ele>14.46899968</ele>
        <time>2020-10-10T09:04:17.000Z</time>
      </trkpt>
      <trkpt lat="43.55811" lon="3.80808">
        <ele>14.36899968</ele>
        <time>2020-10-10T09:04:18.000Z</time>
      </trkpt>
      <trkpt lat="43.55813" lon="3.80807">
        <ele>14.26899968</ele>
        <time>2020-10-10T09:04:19.000Z</time>
      </trkpt>
      <trkpt lat="43.55816" lon="3.80806">
        <ele>14.16899968</ele>
        <time>2020-10-10T09:04:20.000Z</time>
      </trkpt>
      <trkpt lat="43.55818" lon="3.80803">
        <ele>14.06899968</ele>
        <time>2020-10-10T09:04:21.000Z</time>
      </trkpt>
      <trkpt lat="43.5582" lon="3.80801">
        <ele>13.96899968</ele>
        <time>2020-10-10T09:04:22.000Z</time>
      </trkpt>
      <trkpt lat="43.55822" lon="3.80799">
        <ele>13.86899968</ele>
        <time>2020-10-10T09:04:23.000Z</time>
      </trkpt>
      <trkpt lat="43.55824" lon="3.80796">
        <ele>13.76899968</ele>
        <time>2020-10-10T09:04:24.000Z</time>
      </trkpt>
      <trkpt lat="43.55826" lon="3.80794">
        <ele>13.66899968</ele>
        <time>2020-10-10T09:04:25.000Z</time>
      </trkpt>
      <trkpt lat="43.55828" lon="3.80793">
        <ele>13.56899968</ele>
        <time>2020-10-10T09:04:26.000Z</time>
      </trkpt>
      <trkpt lat="43.55829" lon="3.80792">
        <ele>13.46899968</ele>
        <time>2020-10-10T09:04:27.000Z</time>
      </trkpt>
      <trkpt lat="43.55831" lon="3.8079">
        <ele>13.36899968</ele>
        <time>2020-10-10T09:04:28.000Z</time>
      </trkpt>
      <trkpt lat="43.55833" lon="3.80788">
        <ele>13.26899968</ele>
        <time>2020-10-10T09:04:29.000Z</time>
      </trkpt>
      <trkpt lat="43.55834" lon="3.80785">
        <ele>13.16899968</ele>
        <time>2020-10-10T09:04:30.000Z</time>
      </trkpt>
      <trkpt lat="43.55835" lon="3.80782">
        <ele>13.06899968</ele>
        <time>2020-10-10T09:04:31.000Z</time>
      </trkpt>
      <trkpt lat="43.55836" lon="3.80779">
        <ele>13.03096936055</ele>
        <time>2020-10-10T09:04:32.000Z</time>
      </trkpt>
      <trkpt lat="43.55837" lon="3.80776">
        <ele>13.130869492386</ele>
        <time>2020-10-10T09:04:33.000Z</time>
      </trkpt>
      <trkpt lat="43.55839" lon="3.80774">
        <ele>13.230769624222</ele>
        <time>2020-10-10T09:04:34.000Z</time>
      </trkpt>
      <trkpt lat="43.55841" lon="3.80771">
        <ele>13.330669756058</ele>
        <time>2020-10-10T09:04:35.000Z</time>
      </trkpt>
      <trkpt lat="43.55843" lon="3.80769">
        <ele>13.430569887894</ele>
        <time>2020-10-10T09:04:36.000Z</time>
      </trkpt>
      <trkpt lat="43.55844" lon="3.80766">
        <ele>13.530470019731</ele>
        <time>2020-10-10T09:04:37.000Z</time>
      </trkpt>
      <trkpt lat="43.55846" lon="3.80764">
        <ele>13.630370151567</ele>
        <time>2020-10-10T09:04:38.000Z</time>
      </trkpt>
      <trkpt lat="43.55847" lon="3.80761">
        <ele>13.730270283403</ele>
        <time>2020-10-10T09:04:39.000Z</time>
      </trkpt>
      <trkpt lat="43.55849" lon="3.80758">
        <ele>13.830170415239</ele>
        <time>2020-10-10T09:04:40.000Z</time>
      </trkpt>
      <trkpt lat="43.55851" lon="3.80756">
        <ele>13.930070547076</ele>
        <time>2020-10-10T09:04:41.000Z</time>
      </trkpt>
      <trkpt lat="43.55853" lon="3.80753">
        <ele>14</ele>
        <time>2020-10-10T09:04:42.000Z</time>
      </trkpt>
      <trkpt lat="43.55855" lon="3.80751">
        <ele>14</ele>
        <time>2020-10-10T09:04:43.000Z</time>
      </trkpt>
      <trkpt lat="43.55858" lon="3.8075">
        <ele>14</ele>
        <time>2020-10-10T09:04:44.000Z</time>
      </trkpt>
      <trkpt lat="43.55861" lon="3.80748">
        <ele>14</ele>
        <time>2020-10-10T09:04:45.000Z</time>
      </trkpt>
      <trkpt lat="43.55863" lon="3.80746">
        <ele>14</ele>
        <time>2020-10-10T09:04:46.000Z</time>
      </trkpt>
      <trkpt lat="43.55866" lon="3.80744">
        <ele>14</ele>
        <time>2020-10-10T09:04:47.000Z</time>
      </trkpt>
      <trkpt lat="43.55869" lon="3.80742">
        <ele>14</ele>
        <time>2020-10-10T09:04:48.000Z</time>
      </trkpt>
      <trkpt lat="43.55872" lon="3.8074">
        <ele>14</ele>
        <time>2020-10-10T09:04:49.000Z</time>
      </trkpt>
      <trkpt lat="43.55875" lon="3.80737">
        <ele>14</ele>
        <time>2020-10-10T09:04:50.000Z</time>
      </trkpt>
      <trkpt lat="43.55878" lon="3.80735">
        <ele>14</ele>
        <time>2020-10-10T09:04:51.000Z</time>
      </trkpt>
      <trkpt lat="43.55881" lon="3.80733">
        <ele>14</ele>
        <time>2020-10-10T09:04:52.000Z</time>
      </trkpt>
      <trkpt lat="43.55884" lon="3.80731">
        <ele>14</ele>
        <time>2020-10-10T09:04:53.000Z</time>
      </trkpt>
      <trkpt lat="43.55887" lon="3.80728">
        <ele>14</ele>
        <time>2020-10-10T09:04:54.000Z</time>
      </trkpt>
      <trkpt lat="43.55889" lon="3.80727">
        <ele>14</ele>
        <time>2020-10-10T09:04:55.000Z</time>
      </trkpt>
      <trkpt lat="43.55892" lon="3.80726">
        <ele>14</ele>
        <time>2020-10-10T09:04:56.000Z</time>
      </trkpt>
      <trkpt lat="43.55895" lon="3.80725">
        <ele>14</ele>
        <time>2020-10-10T09:04:57.000Z</time>
      </trkpt>
      <trkpt lat="43.55898" lon="3.80724">
        <ele>14</ele>
        <time>2020-10-10T09:04:58.000Z</time>
      </trkpt>
      <trkpt lat="43.55901" lon="3.80723">
        <ele>14</ele>
        <time>2020-10-10T09:04:59.000Z</time>
      </trkpt>
      <trkpt lat="43.55903" lon="3.80722">
        <ele>14</ele>
        <time>2020-10-10T09:05:00.000Z</time>
      </trkpt>
      <trkpt lat="43.55906" lon="3.80721">
        <ele>14</ele>
        <time>2020-10-10T09:05:01.000Z</time>
      </trkpt>
      <trkpt lat="43.5591" lon="3.80721">
        <ele>14</ele>
        <time>2020-10-10T09:05:02.000Z</time>
      </trkpt>
      <trkpt lat="43.55913" lon="3.80721">
        <ele>14</ele>
        <time>2020-10-10T09:05:03.000Z</time>
      </trkpt>
      <trkpt lat="43.55916" lon="3.80721">
        <ele>14</ele>
        <time>2020-10-10T09:05:04.000Z</time>
      </trkpt>
      <trkpt lat="43.55919" lon="3.80722">
        <ele>14</ele>
        <time>2020-10-10T09:05:05.000Z</time>
      </trkpt>
      <trkpt lat="43.55922" lon="3.80722">
        <ele>14</ele>
        <time>2020-10-10T09:05:06.000Z</time>
      </trkpt>
      <trkpt lat="43.55925" lon="3.80723">
        <ele>14</ele>
        <time>2020-10-10T09:05:07.000Z</time>
      </trkpt>
      <trkpt lat="43.55928" lon="3.80723">
        <ele>14</ele>
        <time>2020-10-10T09:05:08.000Z</time>
      </trkpt>
      <trkpt lat="43.55931" lon="3.80724">
        <ele>14</ele>
        <time>2020-10-10T09:05:09.000Z</time>
      </trkpt>
      <trkpt lat="43.55934" lon="3.80725">
        <ele>14</ele>
        <time>2020-10-10T09:05:10.000Z</time>
      </trkpt>
      <trkpt lat="43.55937" lon="3.80725">
        <ele>14</ele>
        <time>2020-10-10T09:05:11.000Z</time>
      </trkpt>
      <trkpt lat="43.5594" lon="3.80726">
        <ele>14</ele>
        <time>2020-10-10T09:05:12.000Z</time>
      </trkpt>
      <trkpt lat="43.55943" lon="3.80727">
        <ele>14</ele>
        <time>2020-10-10T09:05:13.000Z</time>
      </trkpt>
      <trkpt lat="43.55947" lon="3.80729">
        <ele>14</ele>
        <time>2020-10-10T09:05:14.000Z</time>
      </trkpt>
      <trkpt lat="43.5595" lon="3.8073">
        <ele>14</ele>
        <time>2020-10-10T09:05:15.000Z</time>
      </trkpt>
      <trkpt lat="43.55953" lon="3.8073">
        <ele>14</ele>
        <time>2020-10-10T09:05:16.000Z</time>
      </trkpt>
      <trkpt lat="43.55956" lon="3.80731">
        <ele>14</ele>
        <time>2020-10-10T09:05:17.000Z</time>
      </trkpt>
      <trkpt lat="43.55959" lon="3.80731">
        <ele>14</ele>
        <time>2020-10-10T09:05:18.000Z</time>
      </trkpt>
      <trkpt lat="43.55961" lon="3.80731">
        <ele>14</ele>
        <time>2020-10-10T09:05:19.000Z</time>
      </trkpt>
      <trkpt lat="43.55963" lon="3.80731">
        <ele>14</ele>
        <time>2020-10-10T09:05:27.000Z</time>
      </trkpt>
      <trkpt lat="43.55968" lon="3.8073">
        <ele>14.974529001274</ele>
        <time>2020-10-10T09:05:36.000Z</time>
      </trkpt>
      <trkpt lat="43.55971" lon="3.8073">
        <ele>14.919576692343</ele>
        <time>2020-10-10T09:05:37.000Z</time>
      </trkpt>
      <trkpt lat="43.55973" lon="3.8073">
        <ele>14.81375655069</ele>
        <time>2020-10-10T09:05:38.000Z</time>
      </trkpt>
      <trkpt lat="43.55976" lon="3.8073">
        <ele>14.707936409037</ele>
        <time>2020-10-10T09:05:39.000Z</time>
      </trkpt>
      <trkpt lat="43.5598" lon="3.80731">
        <ele>14.602116267383</ele>
        <time>2020-10-10T09:05:40.000Z</time>
      </trkpt>
      <trkpt lat="43.55984" lon="3.80732">
        <ele>14.49629612573</ele>
        <time>2020-10-10T09:05:41.000Z</time>
      </trkpt>
      <trkpt lat="43.55989" lon="3.80733">
        <ele>14.390475984077</ele>
        <time>2020-10-10T09:05:42.000Z</time>
      </trkpt>
      <trkpt lat="43.55994" lon="3.80735">
        <ele>14.284655842423</ele>
        <time>2020-10-10T09:05:43.000Z</time>
      </trkpt>
      <trkpt lat="43.55999" lon="3.80736">
        <ele>14.17883570077</ele>
        <time>2020-10-10T09:05:44.000Z</time>
      </trkpt>
      <trkpt lat="43.56003" lon="3.80737">
        <ele>14.073015559116</ele>
        <time>2020-10-10T09:05:45.000Z</time>
      </trkpt>
      <trkpt lat="43.56008" lon="3.80738">
        <ele>14</ele>
        <time>2020-10-10T09:05:46.000Z</time>
      </trkpt>
      <trkpt lat="43.56013" lon="3.8074">
        <ele>14</ele>
        <time>2020-10-10T09:05:47.000Z</time>
      </trkpt>
      <trkpt lat="43.56018" lon="3.80741">
        <ele>14</ele>
        <time>2020-10-10T09:05:48.000Z</time>
      </trkpt>
      <trkpt lat="43.56023" lon="3.80741">
        <ele>14</ele>
        <time>2020-10-10T09:05:49.000Z</time>
      </trkpt>
      <trkpt lat="43.56028" lon="3.80741">
        <ele>14</ele>
        <time>2020-10-10T09:05:50.000Z</time>
      </trkpt>
      <trkpt lat="43.56033" lon="3.80742">
        <ele>14</ele>
        <time>2020-10-10T09:05:51.000Z</time>
      </trkpt>
      <trkpt lat="43.56038" lon="3.80742">
        <ele>14</ele>
        <time>2020-10-10T09:05:52.000Z</time>
      </trkpt>
      <trkpt lat="43.56043" lon="3.80742">
        <ele>14</ele>
        <time>2020-10-10T09:05:53.000Z</time>
      </trkpt>
      <trkpt lat="43.56048" lon="3.80743">
        <ele>14</ele>
        <time>2020-10-10T09:05:54.000Z</time>
      </trkpt>
      <trkpt lat="43.56052" lon="3.80745">
        <ele>14</ele>
        <time>2020-10-10T09:05:55.000Z</time>
      </trkpt>
      <trkpt lat="43.56056" lon="3.80748">
        <ele>14.004386432749</ele>
        <time>2020-10-10T09:05:56.000Z</time>
      </trkpt>
      <trkpt lat="43.56058" lon="3.8075">
        <ele>14.150585263158</ele>
        <time>2020-10-10T09:05:57.000Z</time>
      </trkpt>
      <trkpt lat="43.56059" lon="3.80752">
        <ele>15.001764477077</ele>
        <time>2020-10-10T09:06:03.000Z</time>
      </trkpt>
      <trkpt lat="43.56063" lon="3.80754">
        <ele>15.997479203225</ele>
        <time>2020-10-10T09:07:22.000Z</time>
      </trkpt>
      <trkpt lat="43.56065" lon="3.80753">
        <ele>16</ele>
        <time>2020-10-10T09:07:23.000Z</time>
      </trkpt>
      <trkpt lat="43.56067" lon="3.80752">
        <ele>16</ele>
        <time>2020-10-10T09:07:24.000Z</time>
      </trkpt>
      <trkpt lat="43.56069" lon="3.80751">
        <ele>16</ele>
        <time>2020-10-10T09:07:25.000Z</time>
      </trkpt>
      <trkpt lat="43.56072" lon="3.80751">
        <ele>16</ele>
        <time>2020-10-10T09:07:26.000Z</time>
      </trkpt>
      <trkpt lat="43.56075" lon="3.80751">
        <ele>16</ele>
        <time>2020-10-10T09:07:27.000Z</time>
      </trkpt>
      <trkpt lat="43.56077" lon="3.80752">
        <ele>16</ele>
        <time>2020-10-10T09:07:28.000Z</time>
      </trkpt>
      <trkpt lat="43.5608" lon="3.80753">
        <ele>16</ele>
        <time>2020-10-10T09:07:29.000Z</time>
      </trkpt>
      <trkpt lat="43.56083" lon="3.80753">
        <ele>16</ele>
        <time>2020-10-10T09:07:30.000Z</time>
      </trkpt>
      <trkpt lat="43.56085" lon="3.80754">
        <ele>16</ele>
        <time>2020-10-10T09:07:31.000Z</time>
      </trkpt>
      <trkpt lat="43.56088" lon="3.80754">
        <ele>15.969902620643</ele>
        <time>2020-10-10T09:07:32.000Z</time>
      </trkpt>
      <trkpt lat="43.56091" lon="3.80754">
        <ele>15.872815302328</ele>
        <time>2020-10-10T09:07:33.000Z</time>
      </trkpt>
      <trkpt lat="43.56093" lon="3.80754">
        <ele>15.775727984014</ele>
        <time>2020-10-10T09:07:34.000Z</time>
      </trkpt>
      <trkpt lat="43.56095" lon="3.80754">
        <ele>15.678640665699</ele>
        <time>2020-10-10T09:07:35.000Z</time>
      </trkpt>
      <trkpt lat="43.56098" lon="3.80754">
        <ele>15.581553347384</ele>
        <time>2020-10-10T09:07:36.000Z</time>
      </trkpt>
      <trkpt lat="43.561" lon="3.80754">
        <ele>15.48446602907</ele>
        <time>2020-10-10T09:07:37.000Z</time>
      </trkpt>
      <trkpt lat="43.56103" lon="3.80754">
        <ele>15.387378710755</ele>
        <time>2020-10-10T09:07:38.000Z</time>
      </trkpt>
      <trkpt lat="43.56106" lon="3.80754">
        <ele>15.29029139244</ele>
        <time>2020-10-10T09:07:39.000Z</time>
      </trkpt>
      <trkpt lat="43.56108" lon="3.80754">
        <ele>15.193204074126</ele>
        <time>2020-10-10T09:07:40.000Z</time>
      </trkpt>
      <trkpt lat="43.56111" lon="3.80754">
        <ele>15.096116755811</ele>
        <time>2020-10-10T09:07:41.000Z</time>
      </trkpt>
      <trkpt lat="43.56114" lon="3.80754">
        <ele>15.001028477366</ele>
        <time>2020-10-10T09:07:42.000Z</time>
      </trkpt>
      <trkpt lat="43.56116" lon="3.80754">
        <ele>15.103909135802</ele>
        <time>2020-10-10T09:07:43.000Z</time>
      </trkpt>
      <trkpt lat="43.56119" lon="3.80754">
        <ele>15.206789794239</ele>
        <time>2020-10-10T09:07:44.000Z</time>
      </trkpt>
      <trkpt lat="43.56122" lon="3.80754">
        <ele>15.309670452675</ele>
        <time>2020-10-10T09:07:45.000Z</time>
      </trkpt>
      <trkpt lat="43.56125" lon="3.80756">
        <ele>15.412551111111</ele>
        <time>2020-10-10T09:07:46.000Z</time>
      </trkpt>
      <trkpt lat="43.56128" lon="3.80757">
        <ele>15.515431769547</ele>
        <time>2020-10-10T09:07:47.000Z</time>
      </trkpt>
      <trkpt lat="43.56131" lon="3.80759">
        <ele>15.618312427984</ele>
        <time>2020-10-10T09:07:48.000Z</time>
      </trkpt>
      <trkpt lat="43.56134" lon="3.80761">
        <ele>15.72119308642</ele>
        <time>2020-10-10T09:07:49.000Z</time>
      </trkpt>
      <trkpt lat="43.56138" lon="3.80762">
        <ele>15.824073744856</ele>
        <time>2020-10-10T09:07:50.000Z</time>
      </trkpt>
      <trkpt lat="43.56141" lon="3.80763">
        <ele>15.926954403292</ele>
        <time>2020-10-10T09:07:51.000Z</time>
      </trkpt>
      <trkpt lat="43.56145" lon="3.80764">
        <ele>16</ele>
        <time>2020-10-10T09:07:52.000Z</time>
      </trkpt>
      <trkpt lat="43.56149" lon="3.80765">
        <ele>16</ele>
        <time>2020-10-10T09:07:53.000Z</time>
      </trkpt>
      <trkpt lat="43.56152" lon="3.80765">
        <ele>16</ele>
        <time>2020-10-10T09:07:54.000Z</time>
      </trkpt>
      <trkpt lat="43.56156" lon="3.80766">
        <ele>16</ele>
        <time>2020-10-10T09:07:55.000Z</time>
      </trkpt>
      <trkpt lat="43.56159" lon="3.80767">
        <ele>16</ele>
        <time>2020-10-10T09:07:56.000Z</time>
      </trkpt>
      <trkpt lat="43.56163" lon="3.80768">
        <ele>16</ele>
        <time>2020-10-10T09:07:57.000Z</time>
      </trkpt>
      <trkpt lat="43.56166" lon="3.80769">
        <ele>16</ele>
        <time>2020-10-10T09:07:58.000Z</time>
      </trkpt>
      <trkpt lat="43.5617" lon="3.8077">
        <ele>16</ele>
        <time>2020-10-10T09:07:59.000Z</time>
      </trkpt>
      <trkpt lat="43.56173" lon="3.80771">
        <ele>16</ele>
        <time>2020-10-10T09:08:00.000Z</time>
      </trkpt>
      <trkpt lat="43.56176" lon="3.80773">
        <ele>16</ele>
        <time>2020-10-10T09:08:01.000Z</time>
      </trkpt>
      <trkpt lat="43.5618" lon="3.80774">
        <ele>16</ele>
        <time>2020-10-10T09:08:02.000Z</time>
      </trkpt>
      <trkpt lat="43.56183" lon="3.80775">
        <ele>16</ele>
        <time>2020-10-10T09:08:03.000Z</time>
      </trkpt>
      <trkpt lat="43.56186" lon="3.80777">
        <ele>16</ele>
        <time>2020-10-10T09:08:04.000Z</time>
      </trkpt>
      <trkpt lat="43.56189" lon="3.80779">
        <ele>16</ele>
        <time>2020-10-10T09:08:05.000Z</time>
      </trkpt>
      <trkpt lat="43.56192" lon="3.8078">
        <ele>16</ele>
        <time>2020-10-10T09:08:06.000Z</time>
      </trkpt>
      <trkpt lat="43.56195" lon="3.80782">
        <ele>16</ele>
        <time>2020-10-10T09:08:07.000Z</time>
      </trkpt>
      <trkpt lat="43.56198" lon="3.80783">
        <ele>16</ele>
        <time>2020-10-10T09:08:08.000Z</time>
      </trkpt>
      <trkpt lat="43.56201" lon="3.80785">
        <ele>16</ele>
        <time>2020-10-10T09:08:09.000Z</time>
      </trkpt>
      <trkpt lat="43.56203" lon="3.80786">
        <ele>16</ele>
        <time>2020-10-10T09:08:10.000Z</time>
      </trkpt>
      <trkpt lat="43.56205" lon="3.80787">
        <ele>16</ele>
        <time>2020-10-10T09:08:11.000Z</time>
      </trkpt>
      <trkpt lat="43.56208" lon="3.80788">
        <ele>16.03100032</ele>
        <time>2020-10-10T09:08:12.000Z</time>
      </trkpt>
      <trkpt lat="43.5621" lon="3.80789">
        <ele>16.13100032</ele>
        <time>2020-10-10T09:08:13.000Z</time>
      </trkpt>
      <trkpt lat="43.56212" lon="3.80789">
        <ele>16.23100032</ele>
        <time>2020-10-10T09:08:14.000Z</time>
      </trkpt>
      <trkpt lat="43.56215" lon="3.80789">
        <ele>16.33100032</ele>
        <time>2020-10-10T09:08:15.000Z</time>
      </trkpt>
      <trkpt lat="43.56218" lon="3.80789">
        <ele>16.43100032</ele>
        <time>2020-10-10T09:08:16.000Z</time>
      </trkpt>
      <trkpt lat="43.56221" lon="3.80788">
        <ele>16.53100032</ele>
        <time>2020-10-10T09:08:17.000Z</time>
      </trkpt>
      <trkpt lat="43.56224" lon="3.80788">
        <ele>16.63100032</ele>
        <time>2020-10-10T09:08:18.000Z</time>
      </trkpt>
      <trkpt lat="43.56227" lon="3.80786">
        <ele>16.73100032</ele>
        <time>2020-10-10T09:08:19.000Z</time>
      </trkpt>
      <trkpt lat="43.5623" lon="3.80785">
        <ele>16.83100032</ele>
        <time>2020-10-10T09:08:20.000Z</time>
      </trkpt>
      <trkpt lat="43.56233" lon="3.80783">
        <ele>16.93100032</ele>
        <time>2020-10-10T09:08:21.000Z</time>
      </trkpt>
      <trkpt lat="43.56236" lon="3.80782">
        <ele>16.96899968</ele>
        <time>2020-10-10T09:08:22.000Z</time>
      </trkpt>
      <trkpt lat="43.56239" lon="3.80781">
        <ele>16.86899968</ele>
        <time>2020-10-10T09:08:23.000Z</time>
      </trkpt>
      <trkpt lat="43.56242" lon="3.8078">
        <ele>16.76899968</ele>
        <time>2020-10-10T09:08:24.000Z</time>
      </trkpt>
      <trkpt lat="43.56245" lon="3.80778">
        <ele>16.66899968</ele>
        <time>2020-10-10T09:08:25.000Z</time>
      </trkpt>
      <trkpt lat="43.56248" lon="3.80776">
        <ele>16.56899968</ele>
        <time>2020-10-10T09:08:26.000Z</time>
      </trkpt>
      <trkpt lat="43.56251" lon="3.80775">
        <ele>16.46899968</ele>
        <time>2020-10-10T09:08:27.000Z</time>
      </trkpt>
      <trkpt lat="43.56254" lon="3.80773">
        <ele>16.36899968</ele>
        <time>2020-10-10T09:08:28.000Z</time>
      </trkpt>
      <trkpt lat="43.56257" lon="3.80772">
        <ele>16.26899968</ele>
        <time>2020-10-10T09:08:29.000Z</time>
      </trkpt>
      <trkpt lat="43.5626" lon="3.8077">
        <ele>16.16899968</ele>
        <time>2020-10-10T09:08:30.000Z</time>
      </trkpt>
      <trkpt lat="43.56264" lon="3.8077">
        <ele>16.06899968</ele>
        <time>2020-10-10T09:08:31.000Z</time>
      </trkpt>
      <trkpt lat="43.56267" lon="3.80768">
        <ele>16</ele>
        <time>2020-10-10T09:08:32.000Z</time>
      </trkpt>
      <trkpt lat="43.5627" lon="3.80766">
        <ele>16</ele>
        <time>2020-10-10T09:08:33.000Z</time>
      </trkpt>
      <trkpt lat="43.56273" lon="3.80765">
        <ele>16</ele>
        <time>2020-10-10T09:08:34.000Z</time>
      </trkpt>
      <trkpt lat="43.56276" lon="3.80764">
        <ele>16</ele>
        <time>2020-10-10T09:08:35.000Z</time>
      </trkpt>
      <trkpt lat="43.56279" lon="3.80763">
        <ele>16</ele>
        <time>2020-10-10T09:08:36.000Z</time>
      </trkpt>
      <trkpt lat="43.56282" lon="3.80762">
        <ele>16</ele>
        <time>2020-10-10T09:08:37.000Z</time>
      </trkpt>
      <trkpt lat="43.56285" lon="3.80761">
        <ele>16</ele>
        <time>2020-10-10T09:08:38.000Z</time>
      </trkpt>
      <trkpt lat="43.56288" lon="3.8076">
        <ele>16</ele>
        <time>2020-10-10T09:08:39.000Z</time>
      </trkpt>
      <trkpt lat="43.5629" lon="3.80759">
        <ele>16</ele>
        <time>2020-10-10T09:08:40.000Z</time>
      </trkpt>
      <trkpt lat="43.56293" lon="3.80758">
        <ele>16</ele>
        <time>2020-10-10T09:08:41.000Z</time>
      </trkpt>
      <trkpt lat="43.56296" lon="3.80757">
        <ele>16</ele>
        <time>2020-10-10T09:08:42.000Z</time>
      </trkpt>
      <trkpt lat="43.563" lon="3.80757">
        <ele>16</ele>
        <time>2020-10-10T09:08:43.000Z</time>
      </trkpt>
      <trkpt lat="43.56303" lon="3.80756">
        <ele>16</ele>
        <time>2020-10-10T09:08:44.000Z</time>
      </trkpt>
      <trkpt lat="43.56306" lon="3.80755">
        <ele>16</ele>
        <time>2020-10-10T09:08:45.000Z</time>
      </trkpt>
      <trkpt lat="43.56309" lon="3.80754">
        <ele>16</ele>
        <time>2020-10-10T09:08:46.000Z</time>
      </trkpt>
      <trkpt lat="43.56312" lon="3.80753">
        <ele>16</ele>
        <time>2020-10-10T09:08:47.000Z</time>
      </trkpt>
      <trkpt lat="43.56315" lon="3.80753">
        <ele>16</ele>
        <time>2020-10-10T09:08:48.000Z</time>
      </trkpt>
      <trkpt lat="43.56319" lon="3.80752">
        <ele>16</ele>
        <time>2020-10-10T09:08:49.000Z</time>
      </trkpt>
      <trkpt lat="43.56322" lon="3.80752">
        <ele>16</ele>
        <time>2020-10-10T09:08:50.000Z</time>
      </trkpt>
      <trkpt lat="43.56325" lon="3.80751">
        <ele>16</ele>
        <time>2020-10-10T09:08:51.000Z</time>
      </trkpt>
      <trkpt lat="43.56329" lon="3.80751">
        <ele>16</ele>
        <time>2020-10-10T09:08:52.000Z</time>
      </trkpt>
      <trkpt lat="43.56332" lon="3.8075">
        <ele>16</ele>
        <time>2020-10-10T09:08:53.000Z</time>
      </trkpt>
      <trkpt lat="43.56335" lon="3.80749">
        <ele>16</ele>
        <time>2020-10-10T09:08:54.000Z</time>
      </trkpt>
      <trkpt lat="43.56338" lon="3.80749">
        <ele>16</ele>
        <time>2020-10-10T09:08:55.000Z</time>
      </trkpt>
      <trkpt lat="43.56341" lon="3.80748">
        <ele>16</ele>
        <time>2020-10-10T09:08:56.000Z</time>
      </trkpt>
      <trkpt lat="43.56345" lon="3.80748">
        <ele>16</ele>
        <time>2020-10-10T09:08:57.000Z</time>
      </trkpt>
      <trkpt lat="43.56348" lon="3.80747">
        <ele>16</ele>
        <time>2020-10-10T09:08:58.000Z</time>
      </trkpt>
      <trkpt lat="43.56351" lon="3.80747">
        <ele>16</ele>
        <time>2020-10-10T09:08:59.000Z</time>
      </trkpt>
      <trkpt lat="43.56354" lon="3.80746">
        <ele>16</ele>
        <time>2020-10-10T09:09:00.000Z</time>
      </trkpt>
      <trkpt lat="43.56358" lon="3.80746">
        <ele>16</ele>
        <time>2020-10-10T09:09:01.000Z</time>
      </trkpt>
      <trkpt lat="43.56361" lon="3.80745">
        <ele>16</ele>
        <time>2020-10-10T09:09:02.000Z</time>
      </trkpt>
      <trkpt lat="43.56364" lon="3.80744">
        <ele>16</ele>
        <time>2020-10-10T09:09:03.000Z</time>
      </trkpt>
      <trkpt lat="43.56367" lon="3.80743">
        <ele>16</ele>
        <time>2020-10-10T09:09:04.000Z</time>
      </trkpt>
      <trkpt lat="43.5637" lon="3.80742">
        <ele>16</ele>
        <time>2020-10-10T09:09:05.000Z</time>
      </trkpt>
      <trkpt lat="43.56373" lon="3.80742">
        <ele>16</ele>
        <time>2020-10-10T09:09:06.000Z</time>
      </trkpt>
      <trkpt lat="43.56376" lon="3.80742">
        <ele>16</ele>
        <time>2020-10-10T09:09:07.000Z</time>
      </trkpt>
      <trkpt lat="43.56379" lon="3.80741">
        <ele>16</ele>
        <time>2020-10-10T09:09:08.000Z</time>
      </trkpt>
      <trkpt lat="43.56381" lon="3.80739">
        <ele>16</ele>
        <time>2020-10-10T09:09:09.000Z</time>
      </trkpt>
      <trkpt lat="43.56385" lon="3.80738">
        <ele>16</ele>
        <time>2020-10-10T09:09:10.000Z</time>
      </trkpt>
      <trkpt lat="43.56388" lon="3.80739">
        <ele>16</ele>
        <time>2020-10-10T09:09:11.000Z</time>
      </trkpt>
      <trkpt lat="43.56391" lon="3.8074">
        <ele>16</ele>
        <time>2020-10-10T09:09:12.000Z</time>
      </trkpt>
      <trkpt lat="43.56393" lon="3.80742">
        <ele>16</ele>
        <time>2020-10-10T09:09:13.000Z</time>
      </trkpt>
      <trkpt lat="43.56396" lon="3.80744">
        <ele>16</ele>
        <time>2020-10-10T09:09:14.000Z</time>
      </trkpt>
      <trkpt lat="43.56399" lon="3.80746">
        <ele>16</ele>
        <time>2020-10-10T09:09:15.000Z</time>
      </trkpt>
      <trkpt lat="43.56402" lon="3.80748">
        <ele>16</ele>
        <time>2020-10-10T09:09:16.000Z</time>
      </trkpt>
      <trkpt lat="43.56405" lon="3.8075">
        <ele>16</ele>
        <time>2020-10-10T09:09:17.000Z</time>
      </trkpt>
      <trkpt lat="43.56408" lon="3.80751">
        <ele>16</ele>
        <time>2020-10-10T09:09:18.000Z</time>
      </trkpt>
      <trkpt lat="43.56411" lon="3.80752">
        <ele>16</ele>
        <time>2020-10-10T09:09:19.000Z</time>
      </trkpt>
      <trkpt lat="43.56414" lon="3.80754">
        <ele>16</ele>
        <time>2020-10-10T09:09:20.000Z</time>
      </trkpt>
      <trkpt lat="43.56417" lon="3.80755">
        <ele>16</ele>
        <time>2020-10-10T09:09:21.000Z</time>
      </trkpt>
      <trkpt lat="43.5642" lon="3.80757">
        <ele>16</ele>
        <time>2020-10-10T09:09:22.000Z</time>
      </trkpt>
      <trkpt lat="43.56423" lon="3.80759">
        <ele>16</ele>
        <time>2020-10-10T09:09:23.000Z</time>
      </trkpt>
      <trkpt lat="43.56426" lon="3.8076">
        <ele>16</ele>
        <time>2020-10-10T09:09:24.000Z</time>
      </trkpt>
      <trkpt lat="43.5643" lon="3.80762">
        <ele>16</ele>
        <time>2020-10-10T09:09:25.000Z</time>
      </trkpt>
      <trkpt lat="43.56433" lon="3.80763">
        <ele>16</ele>
        <time>2020-10-10T09:09:26.000Z</time>
      </trkpt>
      <trkpt lat="43.56436" lon="3.80764">
        <ele>16</ele>
        <time>2020-10-10T09:09:27.000Z</time>
      </trkpt>
      <trkpt lat="43.56439" lon="3.80765">
        <ele>16</ele>
        <time>2020-10-10T09:09:28.000Z</time>
      </trkpt>
      <trkpt lat="43.56442" lon="3.80766">
        <ele>16</ele>
        <time>2020-10-10T09:09:29.000Z</time>
      </trkpt>
      <trkpt lat="43.56445" lon="3.80767">
        <ele>16</ele>
        <time>2020-10-10T09:09:30.000Z</time>
      </trkpt>
      <trkpt lat="43.56448" lon="3.80768">
        <ele>16</ele>
        <time>2020-10-10T09:09:31.000Z</time>
      </trkpt>
      <trkpt lat="43.56451" lon="3.8077">
        <ele>16</ele>
        <time>2020-10-10T09:09:32.000Z</time>
      </trkpt>
      <trkpt lat="43.56455" lon="3.80772">
        <ele>16</ele>
        <time>2020-10-10T09:09:33.000Z</time>
      </trkpt>
      <trkpt lat="43.56458" lon="3.80774">
        <ele>16</ele>
        <time>2020-10-10T09:09:34.000Z</time>
      </trkpt>
      <trkpt lat="43.56461" lon="3.80776">
        <ele>16</ele>
        <time>2020-10-10T09:09:35.000Z</time>
      </trkpt>
      <trkpt lat="43.56464" lon="3.80778">
        <ele>16</ele>
        <time>2020-10-10T09:09:36.000Z</time>
      </trkpt>
      <trkpt lat="43.56467" lon="3.80781">
        <ele>16</ele>
        <time>2020-10-10T09:09:37.000Z</time>
      </trkpt>
      <trkpt lat="43.5647" lon="3.80783">
        <ele>16</ele>
        <time>2020-10-10T09:09:38.000Z</time>
      </trkpt>
      <trkpt lat="43.56473" lon="3.80786">
        <ele>16</ele>
        <time>2020-10-10T09:09:39.000Z</time>
      </trkpt>
      <trkpt lat="43.56476" lon="3.80788">
        <ele>16</ele>
        <time>2020-10-10T09:09:40.000Z</time>
      </trkpt>
      <trkpt lat="43.56479" lon="3.8079">
        <ele>16</ele>
        <time>2020-10-10T09:09:41.000Z</time>
      </trkpt>
      <trkpt lat="43.56483" lon="3.80792">
        <ele>16</ele>
        <time>2020-10-10T09:09:42.000Z</time>
      </trkpt>
      <trkpt lat="43.56486" lon="3.80794">
        <ele>16</ele>
        <time>2020-10-10T09:09:43.000Z</time>
      </trkpt>
      <trkpt lat="43.5649" lon="3.80797">
        <ele>16</ele>
        <time>2020-10-10T09:09:44.000Z</time>
      </trkpt>
      <trkpt lat="43.56493" lon="3.80799">
        <ele>16</ele>
        <time>2020-10-10T09:09:45.000Z</time>
      </trkpt>
      <trkpt lat="43.56496" lon="3.80802">
        <ele>16</ele>
        <time>2020-10-10T09:09:46.000Z</time>
      </trkpt>
      <trkpt lat="43.56499" lon="3.80804">
        <ele>16</ele>
        <time>2020-10-10T09:09:47.000Z</time>
      </trkpt>
      <trkpt lat="43.56503" lon="3.80807">
        <ele>16</ele>
        <time>2020-10-10T09:09:48.000Z</time>
      </trkpt>
      <trkpt lat="43.56506" lon="3.80809">
        <ele>16</ele>
        <time>2020-10-10T09:09:49.000Z</time>
      </trkpt>
      <trkpt lat="43.56509" lon="3.80811">
        <ele>16</ele>
        <time>2020-10-10T09:09:50.000Z</time>
      </trkpt>
      <trkpt lat="43.56513" lon="3.80812">
        <ele>16</ele>
        <time>2020-10-10T09:09:51.000Z</time>
      </trkpt>
      <trkpt lat="43.56516" lon="3.80814">
        <ele>16</ele>
        <time>2020-10-10T09:09:52.000Z</time>
      </trkpt>
      <trkpt lat="43.56519" lon="3.80816">
        <ele>16</ele>
        <time>2020-10-10T09:09:53.000Z</time>
      </trkpt>
      <trkpt lat="43.56522" lon="3.80817">
        <ele>16</ele>
        <time>2020-10-10T09:09:54.000Z</time>
      </trkpt>
      <trkpt lat="43.56525" lon="3.80818">
        <ele>16</ele>
        <time>2020-10-10T09:09:55.000Z</time>
      </trkpt>
      <trkpt lat="43.56528" lon="3.80819">
        <ele>16</ele>
        <time>2020-10-10T09:09:56.000Z</time>
      </trkpt>
      <trkpt lat="43.5653" lon="3.80819">
        <ele>16</ele>
        <time>2020-10-10T09:09:57.000Z</time>
      </trkpt>
      <trkpt lat="43.56533" lon="3.8082">
        <ele>16</ele>
        <time>2020-10-10T09:09:59.000Z</time>
      </trkpt>
      <trkpt lat="43.56532" lon="3.8082">
        <ele>16</ele>
        <time>2020-10-10T09:10:03.000Z</time>
      </trkpt>
      <trkpt lat="43.56545" lon="3.80824">
        <ele>16.995136852203</ele>
        <time>2020-10-10T09:10:42.000Z</time>
      </trkpt>
      <trkpt lat="43.56547" lon="3.80824">
        <ele>17</ele>
        <time>2020-10-10T09:10:43.000Z</time>
      </trkpt>
      <trkpt lat="43.56551" lon="3.80825">
        <ele>17</ele>
        <time>2020-10-10T09:10:44.000Z</time>
      </trkpt>
      <trkpt lat="43.56554" lon="3.80826">
        <ele>17</ele>
        <time>2020-10-10T09:10:45.000Z</time>
      </trkpt>
      <trkpt lat="43.56557" lon="3.80827">
        <ele>17</ele>
        <time>2020-10-10T09:10:46.000Z</time>
      </trkpt>
      <trkpt lat="43.5656" lon="3.80828">
        <ele>17</ele>
        <time>2020-10-10T09:10:47.000Z</time>
      </trkpt>
      <trkpt lat="43.56564" lon="3.80829">
        <ele>17</ele>
        <time>2020-10-10T09:10:48.000Z</time>
      </trkpt>
      <trkpt lat="43.56567" lon="3.8083">
        <ele>17</ele>
        <time>2020-10-10T09:10:49.000Z</time>
      </trkpt>
      <trkpt lat="43.5657" lon="3.80831">
        <ele>17</ele>
        <time>2020-10-10T09:10:50.000Z</time>
      </trkpt>
      <trkpt lat="43.56573" lon="3.80832">
        <ele>17</ele>
        <time>2020-10-10T09:10:51.000Z</time>
      </trkpt>
      <trkpt lat="43.56577" lon="3.80832">
        <ele>17</ele>
        <time>2020-10-10T09:10:52.000Z</time>
      </trkpt>
      <trkpt lat="43.5658" lon="3.80833">
        <ele>17</ele>
        <time>2020-10-10T09:10:53.000Z</time>
      </trkpt>
      <trkpt lat="43.56584" lon="3.80833">
        <ele>17</ele>
        <time>2020-10-10T09:10:54.000Z</time>
      </trkpt>
      <trkpt lat="43.56587" lon="3.80834">
        <ele>17</ele>
        <time>2020-10-10T09:10:55.000Z</time>
      </trkpt>
      <trkpt lat="43.56591" lon="3.80834">
        <ele>17</ele>
        <time>2020-10-10T09:10:56.000Z</time>
      </trkpt>
      <trkpt lat="43.56594" lon="3.80835">
        <ele>17</ele>
        <time>2020-10-10T09:10:57.000Z</time>
      </trkpt>
      <trkpt lat="43.56598" lon="3.80835">
        <ele>17</ele>
        <time>2020-10-10T09:10:58.000Z</time>
      </trkpt>
      <trkpt lat="43.56602" lon="3.80836">
        <ele>17</ele>
        <time>2020-10-10T09:10:59.000Z</time>
      </trkpt>
      <trkpt lat="43.56605" lon="3.80836">
        <ele>17</ele>
        <time>2020-10-10T09:11:00.000Z</time>
      </trkpt>
      <trkpt lat="43.56609" lon="3.80837">
        <ele>17</ele>
        <time>2020-10-10T09:11:01.000Z</time>
      </trkpt>
      <trkpt lat="43.56613" lon="3.80838">
        <ele>17</ele>
        <time>2020-10-10T09:11:02.000Z</time>
      </trkpt>
      <trkpt lat="43.56616" lon="3.80838">
        <ele>17</ele>
        <time>2020-10-10T09:11:03.000Z</time>
      </trkpt>
      <trkpt lat="43.5662" lon="3.80838">
        <ele>17</ele>
        <time>2020-10-10T09:11:04.000Z</time>
      </trkpt>
      <trkpt lat="43.56623" lon="3.80839">
        <ele>17</ele>
        <time>2020-10-10T09:11:05.000Z</time>
      </trkpt>
      <trkpt lat="43.56626" lon="3.80839">
        <ele>17</ele>
        <time>2020-10-10T09:11:06.000Z</time>
      </trkpt>
      <trkpt lat="43.56629" lon="3.8084">
        <ele>17</ele>
        <time>2020-10-10T09:11:07.000Z</time>
      </trkpt>
      <trkpt lat="43.56633" lon="3.8084">
        <ele>17</ele>
        <time>2020-10-10T09:11:08.000Z</time>
      </trkpt>
      <trkpt lat="43.56636" lon="3.80841">
        <ele>17</ele>
        <time>2020-10-10T09:11:09.000Z</time>
      </trkpt>
      <trkpt lat="43.56639" lon="3.80841">
        <ele>17</ele>
        <time>2020-10-10T09:11:10.000Z</time>
      </trkpt>
      <trkpt lat="43.56643" lon="3.80841">
        <ele>17</ele>
        <time>2020-10-10T09:11:11.000Z</time>
      </trkpt>
      <trkpt lat="43.56646" lon="3.80841">
        <ele>17.03100032</ele>
        <time>2020-10-10T09:11:12.000Z</time>
      </trkpt>
      <trkpt lat="43.5665" lon="3.80841">
        <ele>17.13100032</ele>
        <time>2020-10-10T09:11:13.000Z</time>
      </trkpt>
      <trkpt lat="43.56653" lon="3.80841">
        <ele>17.23100032</ele>
        <time>2020-10-10T09:11:14.000Z</time>
      </trkpt>
      <trkpt lat="43.56656" lon="3.80841">
        <ele>17.33100032</ele>
        <time>2020-10-10T09:11:15.000Z</time>
      </trkpt>
      <trkpt lat="43.5666" lon="3.80841">
        <ele>17.43100032</ele>
        <time>2020-10-10T09:11:16.000Z</time>
      </trkpt>
      <trkpt lat="43.56663" lon="3.8084">
        <ele>17.53100032</ele>
        <time>2020-10-10T09:11:17.000Z</time>
      </trkpt>
      <trkpt lat="43.56667" lon="3.8084">
        <ele>17.63100032</ele>
        <time>2020-10-10T09:11:18.000Z</time>
      </trkpt>
      <trkpt lat="43.5667" lon="3.8084">
        <ele>17.73100032</ele>
        <time>2020-10-10T09:11:19.000Z</time>
      </trkpt>
      <trkpt lat="43.56673" lon="3.8084">
        <ele>17.83100032</ele>
        <time>2020-10-10T09:11:20.000Z</time>
      </trkpt>
      <trkpt lat="43.56676" lon="3.8084">
        <ele>17.93100032</ele>
        <time>2020-10-10T09:11:21.000Z</time>
      </trkpt>
      <trkpt lat="43.56679" lon="3.8084">
        <ele>18</ele>
        <time>2020-10-10T09:11:22.000Z</time>
      </trkpt>
      <trkpt lat="43.56681" lon="3.8084">
        <ele>18</ele>
        <time>2020-10-10T09:11:23.000Z</time>
      </trkpt>
      <trkpt lat="43.56684" lon="3.8084">
        <ele>18</ele>
        <time>2020-10-10T09:11:24.000Z</time>
      </trkpt>
      <trkpt lat="43.56687" lon="3.8084">
        <ele>18</ele>
        <time>2020-10-10T09:11:25.000Z</time>
      </trkpt>
      <trkpt lat="43.56689" lon="3.8084">
        <ele>18</ele>
        <time>2020-10-10T09:11:31.000Z</time>
      </trkpt>
      <trkpt lat="43.56693" lon="3.80839">
        <ele>18</ele>
        <time>2020-10-10T09:11:34.000Z</time>
      </trkpt>
      <trkpt lat="43.56695" lon="3.80839">
        <ele>18</ele>
        <time>2020-10-10T09:11:35.000Z</time>
      </trkpt>
      <trkpt lat="43.56696" lon="3.80835">
        <ele>18</ele>
        <time>2020-10-10T09:11:37.000Z</time>
      </trkpt>
      <trkpt lat="43.56694" lon="3.80832">
        <ele>18</ele>
        <time>2020-10-10T09:11:39.000Z</time>
      </trkpt>
      <trkpt lat="43.56692" lon="3.80831">
        <ele>18</ele>
        <time>2020-10-10T09:11:40.000Z</time>
      </trkpt>
      <trkpt lat="43.56688" lon="3.80831">
        <ele>18</ele>
        <time>2020-10-10T09:11:42.000Z</time>
      </trkpt>
      <trkpt lat="43.56688" lon="3.80834">
        <ele>18</ele>
        <time>2020-10-10T09:11:44.000Z</time>
      </trkpt>
      <trkpt lat="43.56689" lon="3.80836">
        <ele>18</ele>
        <time>2020-10-10T09:11:51.000Z</time>
      </trkpt>
      <trkpt lat="43.56696" lon="3.80835">
        <ele>18</ele>
        <time>2020-10-10T09:12:14.000Z</time>
      </trkpt>
      <trkpt lat="43.56695" lon="3.80837">
        <ele>18</ele>
        <time>2020-10-10T09:12:15.000Z</time>
      </trkpt>
      <trkpt lat="43.56691" lon="3.80837">
        <ele>18</ele>
        <time>2020-10-10T09:12:17.000Z</time>
      </trkpt>
      <trkpt lat="43.56689" lon="3.80838">
        <ele>18</ele>
        <time>2020-10-10T09:12:18.000Z</time>
      </trkpt>
      <trkpt lat="43.56688" lon="3.80841">
        <ele>18</ele>
        <time>2020-10-10T09:12:19.000Z</time>
      </trkpt>
      <trkpt lat="43.56688" lon="3.80844">
        <ele>18</ele>
        <time>2020-10-10T09:12:20.000Z</time>
      </trkpt>
      <trkpt lat="43.56687" lon="3.80847">
        <ele>18</ele>
        <time>2020-10-10T09:12:21.000Z</time>
      </trkpt>
      <trkpt lat="43.56687" lon="3.8085">
        <ele>18</ele>
        <time>2020-10-10T09:12:22.000Z</time>
      </trkpt>
      <trkpt lat="43.56688" lon="3.80853">
        <ele>18</ele>
        <time>2020-10-10T09:12:23.000Z</time>
      </trkpt>
      <trkpt lat="43.56687" lon="3.80856">
        <ele>18.058480743248</ele>
        <time>2020-10-10T09:12:24.000Z</time>
      </trkpt>
      <trkpt lat="43.56687" lon="3.80858">
        <ele>18.253412395532</ele>
        <time>2020-10-10T09:12:25.000Z</time>
      </trkpt>
      <trkpt lat="43.56686" lon="3.80861">
        <ele>18.448344047817</ele>
        <time>2020-10-10T09:12:26.000Z</time>
      </trkpt>
      <trkpt lat="43.56685" lon="3.80863">
        <ele>18.643275700101</ele>
        <time>2020-10-10T09:12:27.000Z</time>
      </trkpt>
      <trkpt lat="43.56684" lon="3.80867">
        <ele>19.03313900467</ele>
        <time>2020-10-10T09:12:29.000Z</time>
      </trkpt>
      <trkpt lat="43.56683" lon="3.8087">
        <ele>19.228070656954</ele>
        <time>2020-10-10T09:12:30.000Z</time>
      </trkpt>
      <trkpt lat="43.56682" lon="3.80874">
        <ele>19.617933961523</ele>
        <time>2020-10-10T09:12:32.000Z</time>
      </trkpt>
      <trkpt lat="43.56681" lon="3.80879">
        <ele>20.008188334309</ele>
        <time>2020-10-10T09:12:34.000Z</time>
      </trkpt>
      <trkpt lat="43.5668" lon="3.80883">
        <ele>20.417605049779</ele>
        <time>2020-10-10T09:12:36.000Z</time>
      </trkpt>
      <trkpt lat="43.5668" lon="3.80888">
        <ele>20.827021765248</ele>
        <time>2020-10-10T09:12:38.000Z</time>
      </trkpt>
      <trkpt lat="43.5668" lon="3.8089">
        <ele>21.031730122982</ele>
        <time>2020-10-10T09:12:39.000Z</time>
      </trkpt>
      <trkpt lat="43.5668" lon="3.80893">
        <ele>21.236438480717</ele>
        <time>2020-10-10T09:12:40.000Z</time>
      </trkpt>
      <trkpt lat="43.5668" lon="3.80898">
        <ele>21.645855196186</ele>
        <time>2020-10-10T09:12:42.000Z</time>
      </trkpt>
      <trkpt lat="43.56681" lon="3.80902">
        <ele>22.05421751004</ele>
        <time>2020-10-10T09:12:44.000Z</time>
      </trkpt>
      <trkpt lat="43.56681" lon="3.80907">
        <ele>22.455823935743</ele>
        <time>2020-10-10T09:12:46.000Z</time>
      </trkpt>
      <trkpt lat="43.56681" lon="3.80911">
        <ele>22.857430361446</ele>
        <time>2020-10-10T09:12:48.000Z</time>
      </trkpt>
      <trkpt lat="43.56679" lon="3.80915">
        <ele>23.259036787149</ele>
        <time>2020-10-10T09:12:50.000Z</time>
      </trkpt>
      <trkpt lat="43.56678" lon="3.80919">
        <ele>23.660643212851</ele>
        <time>2020-10-10T09:12:52.000Z</time>
      </trkpt>
      <trkpt lat="43.56677" lon="3.80924">
        <ele>24.06200064</ele>
        <time>2020-10-10T09:12:54.000Z</time>
      </trkpt>
      <trkpt lat="43.56676" lon="3.80928">
        <ele>24.46200064</ele>
        <time>2020-10-10T09:12:56.000Z</time>
      </trkpt>
      <trkpt lat="43.56676" lon="3.80932">
        <ele>24.86200064</ele>
        <time>2020-10-10T09:12:58.000Z</time>
      </trkpt>
      <trkpt lat="43.56676" lon="3.80935">
        <ele>25.26200064</ele>
        <time>2020-10-10T09:13:00.000Z</time>
      </trkpt>
      <trkpt lat="43.56676" lon="3.80939">
        <ele>25.66200064</ele>
        <time>2020-10-10T09:13:02.000Z</time>
      </trkpt>
      <trkpt lat="43.56677" lon="3.80943">
        <ele>26.062062682823</ele>
        <time>2020-10-10T09:13:04.000Z</time>
      </trkpt>
      <trkpt lat="43.56677" lon="3.80946">
        <ele>26.462462954967</ele>
        <time>2020-10-10T09:13:06.000Z</time>
      </trkpt>
      <trkpt lat="43.56678" lon="3.8095">
        <ele>26.862863227111</ele>
        <time>2020-10-10T09:13:08.000Z</time>
      </trkpt>
      <trkpt lat="43.56678" lon="3.80954">
        <ele>27.263263499255</ele>
        <time>2020-10-10T09:13:10.000Z</time>
      </trkpt>
      <trkpt lat="43.56679" lon="3.80958">
        <ele>27.663663771399</ele>
        <time>2020-10-10T09:13:12.000Z</time>
      </trkpt>
      <trkpt lat="43.5668" lon="3.80961">
        <ele>28.063429157876</ele>
        <time>2020-10-10T09:13:14.000Z</time>
      </trkpt>
      <trkpt lat="43.56681" lon="3.80965">
        <ele>28.459861394604</ele>
        <time>2020-10-10T09:13:16.000Z</time>
      </trkpt>
      <trkpt lat="43.56682" lon="3.80969">
        <ele>28.856293631332</ele>
        <time>2020-10-10T09:13:18.000Z</time>
      </trkpt>
      <trkpt lat="43.56683" lon="3.80972">
        <ele>29.25272586806</ele>
        <time>2020-10-10T09:13:20.000Z</time>
      </trkpt>
      <trkpt lat="43.56685" lon="3.80975">
        <ele>29.649158104787</ele>
        <time>2020-10-10T09:13:22.000Z</time>
      </trkpt>
      <trkpt lat="43.56687" lon="3.80978">
        <ele>30.023209195331</ele>
        <time>2020-10-10T09:13:24.000Z</time>
      </trkpt>
      <trkpt lat="43.56688" lon="3.80981">
        <ele>30.225025477287</ele>
        <time>2020-10-10T09:13:26.000Z</time>
      </trkpt>
      <trkpt lat="43.56689" lon="3.80984">
        <ele>30.426841759244</ele>
        <time>2020-10-10T09:13:28.000Z</time>
      </trkpt>
      <trkpt lat="43.5669" lon="3.80986">
        <ele>30.6286580412</ele>
        <time>2020-10-10T09:13:30.000Z</time>
      </trkpt>
      <trkpt lat="43.56692" lon="3.80986">
        <ele>31</ele>
        <time>2020-10-10T09:13:37.000Z</time>
      </trkpt>
      <trkpt lat="43.56698" lon="3.80984">
        <ele>31</ele>
        <time>2020-10-10T09:14:10.000Z</time>
      </trkpt>
      <trkpt lat="43.56699" lon="3.80985">
        <ele>31.075612668588</ele>
        <time>2020-10-10T09:14:11.000Z</time>
      </trkpt>
      <trkpt lat="43.567" lon="3.80988">
        <ele>31.288605141263</ele>
        <time>2020-10-10T09:14:13.000Z</time>
      </trkpt>
      <trkpt lat="43.567" lon="3.80991">
        <ele>31.501597613939</ele>
        <time>2020-10-10T09:14:15.000Z</time>
      </trkpt>
      <trkpt lat="43.567" lon="3.80996">
        <ele>31.714590086615</ele>
        <time>2020-10-10T09:14:17.000Z</time>
      </trkpt>
      <trkpt lat="43.56699" lon="3.80998">
        <ele>31.821086322952</ele>
        <time>2020-10-10T09:14:18.000Z</time>
      </trkpt>
      <trkpt lat="43.56699" lon="3.81003">
        <ele>32.062015503876</ele>
        <time>2020-10-10T09:14:20.000Z</time>
      </trkpt>
      <trkpt lat="43.56698" lon="3.81007">
        <ele>32.449612403101</ele>
        <time>2020-10-10T09:14:22.000Z</time>
      </trkpt>
      <trkpt lat="43.56697" lon="3.81012">
        <ele>32.837209302326</ele>
        <time>2020-10-10T09:14:24.000Z</time>
      </trkpt>
      <trkpt lat="43.56696" lon="3.81016">
        <ele>33.22480620155</ele>
        <time>2020-10-10T09:14:26.000Z</time>
      </trkpt>
      <trkpt lat="43.56695" lon="3.8102">
        <ele>33.612403100775</ele>
        <time>2020-10-10T09:14:28.000Z</time>
      </trkpt>
      <trkpt lat="43.56694" lon="3.81024">
        <ele>34</ele>
        <time>2020-10-10T09:14:30.000Z</time>
      </trkpt>
      <trkpt lat="43.56692" lon="3.81028">
        <ele>34.411522633745</ele>
        <time>2020-10-10T09:14:32.000Z</time>
      </trkpt>
      <trkpt lat="43.56691" lon="3.81032">
        <ele>34.82304526749</ele>
        <time>2020-10-10T09:14:34.000Z</time>
      </trkpt>
      <trkpt lat="43.56691" lon="3.81037">
        <ele>35.234567901235</ele>
        <time>2020-10-10T09:14:36.000Z</time>
      </trkpt>
      <trkpt lat="43.5669" lon="3.81041">
        <ele>35.646090534979</ele>
        <time>2020-10-10T09:14:38.000Z</time>
      </trkpt>
      <trkpt lat="43.56689" lon="3.81045">
        <ele>36.055944073828</ele>
        <time>2020-10-10T09:14:40.000Z</time>
      </trkpt>
      <trkpt lat="43.56689" lon="3.81049">
        <ele>36.455544601173</ele>
        <time>2020-10-10T09:14:42.000Z</time>
      </trkpt>
      <trkpt lat="43.56689" lon="3.81054">
        <ele>36.855145128518</ele>
        <time>2020-10-10T09:14:44.000Z</time>
      </trkpt>
      <trkpt lat="43.56688" lon="3.81057">
        <ele>37.254745655863</ele>
        <time>2020-10-10T09:14:46.000Z</time>
      </trkpt>
      <trkpt lat="43.56688" lon="3.81062">
        <ele>37.654346183208</ele>
        <time>2020-10-10T09:14:48.000Z</time>
      </trkpt>
      <trkpt lat="43.56688" lon="3.81066">
        <ele>38.053097924313</ele>
        <time>2020-10-10T09:14:50.000Z</time>
      </trkpt>
      <trkpt lat="43.56687" lon="3.8107">
        <ele>38.446411220693</ele>
        <time>2020-10-10T09:14:52.000Z</time>
      </trkpt>
      <trkpt lat="43.56686" lon="3.81074">
        <ele>38.839724517074</ele>
        <time>2020-10-10T09:14:54.000Z</time>
      </trkpt>
      <trkpt lat="43.56684" lon="3.81078">
        <ele>39.233037813455</ele>
        <time>2020-10-10T09:14:56.000Z</time>
      </trkpt>
      <trkpt lat="43.56682" lon="3.81082">
        <ele>39.626351109836</ele>
        <time>2020-10-10T09:14:58.000Z</time>
      </trkpt>
      <trkpt lat="43.5668" lon="3.81084">
        <ele>40.020448602339</ele>
        <time>2020-10-10T09:15:00.000Z</time>
      </trkpt>
      <trkpt lat="43.56678" lon="3.81088">
        <ele>40.429446824996</ele>
        <time>2020-10-10T09:15:02.000Z</time>
      </trkpt>
      <trkpt lat="43.56677" lon="3.81091">
        <ele>40.838445047653</ele>
        <time>2020-10-10T09:15:04.000Z</time>
      </trkpt>
      <trkpt lat="43.56677" lon="3.81095">
        <ele>41.24744327031</ele>
        <time>2020-10-10T09:15:06.000Z</time>
      </trkpt>
      <trkpt lat="43.56678" lon="3.81099">
        <ele>41.656441492968</ele>
        <time>2020-10-10T09:15:08.000Z</time>
      </trkpt>
      <trkpt lat="43.5668" lon="3.81103">
        <ele>42</ele>
        <time>2020-10-10T09:15:10.000Z</time>
      </trkpt>
      <trkpt lat="43.5668" lon="3.81103">
        <ele>42</ele>
        <time>2020-10-10T09:15:15.000Z</time>
      </trkpt>
      <trkpt lat="43.56685" lon="3.81108">
        <ele>42</ele>
        <time>2020-10-10T09:15:48.000Z</time>
      </trkpt>
      <trkpt lat="43.56687" lon="3.81109">
        <ele>42</ele>
        <time>2020-10-10T09:15:49.000Z</time>
      </trkpt>
      <trkpt lat="43.5669" lon="3.8111">
        <ele>42</ele>
        <time>2020-10-10T09:15:50.000Z</time>
      </trkpt>
      <trkpt lat="43.56692" lon="3.81111">
        <ele>42</ele>
        <time>2020-10-10T09:15:51.000Z</time>
      </trkpt>
      <trkpt lat="43.56695" lon="3.81112">
        <ele>42</ele>
        <time>2020-10-10T09:15:52.000Z</time>
      </trkpt>
      <trkpt lat="43.56697" lon="3.81113">
        <ele>42</ele>
        <time>2020-10-10T09:15:53.000Z</time>
      </trkpt>
      <trkpt lat="43.567" lon="3.81114">
        <ele>42</ele>
        <time>2020-10-10T09:15:54.000Z</time>
      </trkpt>
      <trkpt lat="43.56702" lon="3.81115">
        <ele>42</ele>
        <time>2020-10-10T09:15:55.000Z</time>
      </trkpt>
      <trkpt lat="43.56704" lon="3.81117">
        <ele>42</ele>
        <time>2020-10-10T09:15:56.000Z</time>
      </trkpt>
      <trkpt lat="43.56706" lon="3.81119">
        <ele>42</ele>
        <time>2020-10-10T09:15:57.000Z</time>
      </trkpt>
      <trkpt lat="43.56708" lon="3.81121">
        <ele>42.031067941861</ele>
        <time>2020-10-10T09:15:58.000Z</time>
      </trkpt>
      <trkpt lat="43.56709" lon="3.81123">
        <ele>42.128155260175</ele>
        <time>2020-10-10T09:15:59.000Z</time>
      </trkpt>
      <trkpt lat="43.56711" lon="3.81123">
        <ele>42.22524257849</ele>
        <time>2020-10-10T09:16:00.000Z</time>
      </trkpt>
      <trkpt lat="43.56713" lon="3.81124">
        <ele>42.322329896805</ele>
        <time>2020-10-10T09:16:01.000Z</time>
      </trkpt>
      <trkpt lat="43.56715" lon="3.81124">
        <ele>42.419417215119</ele>
        <time>2020-10-10T09:16:02.000Z</time>
      </trkpt>
      <trkpt lat="43.56717" lon="3.81125">
        <ele>42.516504533434</ele>
        <time>2020-10-10T09:16:03.000Z</time>
      </trkpt>
      <trkpt lat="43.56719" lon="3.81126">
        <ele>42.613591851749</ele>
        <time>2020-10-10T09:16:04.000Z</time>
      </trkpt>
      <trkpt lat="43.56721" lon="3.81128">
        <ele>42.710679170063</ele>
        <time>2020-10-10T09:16:05.000Z</time>
      </trkpt>
      <trkpt lat="43.56723" lon="3.81128">
        <ele>42.807766488378</ele>
        <time>2020-10-10T09:16:06.000Z</time>
      </trkpt>
      <trkpt lat="43.56725" lon="3.81129">
        <ele>42.904853806693</ele>
        <time>2020-10-10T09:16:07.000Z</time>
      </trkpt>
      <trkpt lat="43.56727" lon="3.8113">
        <ele>43.002054841375</ele>
        <time>2020-10-10T09:16:08.000Z</time>
      </trkpt>
      <trkpt lat="43.56729" lon="3.8113">
        <ele>43.104829798094</ele>
        <time>2020-10-10T09:16:09.000Z</time>
      </trkpt>
      <trkpt lat="43.56731" lon="3.8113">
        <ele>43.207604754814</ele>
        <time>2020-10-10T09:16:10.000Z</time>
      </trkpt>
      <trkpt lat="43.56733" lon="3.81132">
        <ele>43.310379711533</ele>
        <time>2020-10-10T09:16:11.000Z</time>
      </trkpt>
      <trkpt lat="43.56734" lon="3.81134">
        <ele>43.413154668252</ele>
        <time>2020-10-10T09:16:12.000Z</time>
      </trkpt>
      <trkpt lat="43.56736" lon="3.81136">
        <ele>43.515929624972</ele>
        <time>2020-10-10T09:16:13.000Z</time>
      </trkpt>
      <trkpt lat="43.56737" lon="3.81138">
        <ele>43.618704581691</ele>
        <time>2020-10-10T09:16:14.000Z</time>
      </trkpt>
      <trkpt lat="43.56739" lon="3.81139">
        <ele>43.72147953841</ele>
        <time>2020-10-10T09:16:15.000Z</time>
      </trkpt>
      <trkpt lat="43.56741" lon="3.81141">
        <ele>43.82425449513</ele>
        <time>2020-10-10T09:16:16.000Z</time>
      </trkpt>
      <trkpt lat="43.56742" lon="3.81143">
        <ele>43.927029451849</ele>
        <time>2020-10-10T09:16:17.000Z</time>
      </trkpt>
      <trkpt lat="43.56744" lon="3.81144">
        <ele>43.971173261979</ele>
        <time>2020-10-10T09:16:18.000Z</time>
      </trkpt>
      <trkpt lat="43.56746" lon="3.81146">
        <ele>43.871769620211</ele>
        <time>2020-10-10T09:16:19.000Z</time>
      </trkpt>
      <trkpt lat="43.56748" lon="3.81148">
        <ele>43.772365978444</ele>
        <time>2020-10-10T09:16:20.000Z</time>
      </trkpt>
      <trkpt lat="43.5675" lon="3.8115">
        <ele>43.672962336676</ele>
        <time>2020-10-10T09:16:21.000Z</time>
      </trkpt>
      <trkpt lat="43.56752" lon="3.81152">
        <ele>43.573558694908</ele>
        <time>2020-10-10T09:16:22.000Z</time>
      </trkpt>
      <trkpt lat="43.56754" lon="3.81154">
        <ele>43.47415505314</ele>
        <time>2020-10-10T09:16:23.000Z</time>
      </trkpt>
      <trkpt lat="43.56756" lon="3.81156">
        <ele>43.374751411373</ele>
        <time>2020-10-10T09:16:24.000Z</time>
      </trkpt>
      <trkpt lat="43.56758" lon="3.81158">
        <ele>43.275347769605</ele>
        <time>2020-10-10T09:16:25.000Z</time>
      </trkpt>
      <trkpt lat="43.56761" lon="3.8116">
        <ele>43.175944127837</ele>
        <time>2020-10-10T09:16:26.000Z</time>
      </trkpt>
      <trkpt lat="43.56764" lon="3.81162">
        <ele>43.076540486069</ele>
        <time>2020-10-10T09:16:27.000Z</time>
      </trkpt>
      <trkpt lat="43.56766" lon="3.81164">
        <ele>42.976930493628</ele>
        <time>2020-10-10T09:16:28.000Z</time>
      </trkpt>
      <trkpt lat="43.56768" lon="3.81166">
        <ele>42.876629687498</ele>
        <time>2020-10-10T09:16:29.000Z</time>
      </trkpt>
      <trkpt lat="43.56769" lon="3.81169">
        <ele>42.776328881368</ele>
        <time>2020-10-10T09:16:30.000Z</time>
      </trkpt>
      <trkpt lat="43.56771" lon="3.81171">
        <ele>42.676028075239</ele>
        <time>2020-10-10T09:16:31.000Z</time>
      </trkpt>
      <trkpt lat="43.56773" lon="3.81173">
        <ele>42.575727269109</ele>
        <time>2020-10-10T09:16:32.000Z</time>
      </trkpt>
      <trkpt lat="43.56775" lon="3.81175">
        <ele>42.475426462979</ele>
        <time>2020-10-10T09:16:33.000Z</time>
      </trkpt>
      <trkpt lat="43.56778" lon="3.81176">
        <ele>42.37512565685</ele>
        <time>2020-10-10T09:16:34.000Z</time>
      </trkpt>
      <trkpt lat="43.56781" lon="3.81178">
        <ele>42.27482485072</ele>
        <time>2020-10-10T09:16:35.000Z</time>
      </trkpt>
      <trkpt lat="43.56784" lon="3.81179">
        <ele>42.174524044591</ele>
        <time>2020-10-10T09:16:36.000Z</time>
      </trkpt>
      <trkpt lat="43.56787" lon="3.81182">
        <ele>42.074223238461</ele>
        <time>2020-10-10T09:16:37.000Z</time>
      </trkpt>
      <trkpt lat="43.56789" lon="3.81184">
        <ele>41.947739929478</ele>
        <time>2020-10-10T09:16:38.000Z</time>
      </trkpt>
      <trkpt lat="43.56792" lon="3.81186">
        <ele>41.746734710417</ele>
        <time>2020-10-10T09:16:39.000Z</time>
      </trkpt>
      <trkpt lat="43.56794" lon="3.81189">
        <ele>41.545729491357</ele>
        <time>2020-10-10T09:16:40.000Z</time>
      </trkpt>
      <trkpt lat="43.56796" lon="3.81192">
        <ele>41.344724272297</ele>
        <time>2020-10-10T09:16:41.000Z</time>
      </trkpt>
      <trkpt lat="43.56798" lon="3.81194">
        <ele>41.143719053237</ele>
        <time>2020-10-10T09:16:42.000Z</time>
      </trkpt>
      <trkpt lat="43.568" lon="3.81196">
        <ele>40.942713834176</ele>
        <time>2020-10-10T09:16:43.000Z</time>
      </trkpt>
      <trkpt lat="43.56802" lon="3.81199">
        <ele>40.741708615116</ele>
        <time>2020-10-10T09:16:44.000Z</time>
      </trkpt>
      <trkpt lat="43.56804" lon="3.81201">
        <ele>40.540703396055</ele>
        <time>2020-10-10T09:16:45.000Z</time>
      </trkpt>
      <trkpt lat="43.56805" lon="3.81203">
        <ele>40.339698176995</ele>
        <time>2020-10-10T09:16:46.000Z</time>
      </trkpt>
      <trkpt lat="43.56807" lon="3.81204">
        <ele>40.138692957935</ele>
        <time>2020-10-10T09:16:47.000Z</time>
      </trkpt>
      <trkpt lat="43.56809" lon="3.81206">
        <ele>39.87599872</ele>
        <time>2020-10-10T09:16:48.000Z</time>
      </trkpt>
      <trkpt lat="43.56812" lon="3.81209">
        <ele>39.47599872</ele>
        <time>2020-10-10T09:16:49.000Z</time>
      </trkpt>
      <trkpt lat="43.56815" lon="3.81212">
        <ele>39.07599872</ele>
        <time>2020-10-10T09:16:50.000Z</time>
      </trkpt>
      <trkpt lat="43.56819" lon="3.81217">
        <ele>38.67599872</ele>
        <time>2020-10-10T09:16:51.000Z</time>
      </trkpt>
      <trkpt lat="43.56823" lon="3.81222">
        <ele>38.27599872</ele>
        <time>2020-10-10T09:16:52.000Z</time>
      </trkpt>
      <trkpt lat="43.56826" lon="3.81227">
        <ele>37.87599872</ele>
        <time>2020-10-10T09:16:53.000Z</time>
      </trkpt>
      <trkpt lat="43.56829" lon="3.81231">
        <ele>37.47599872</ele>
        <time>2020-10-10T09:16:54.000Z</time>
      </trkpt>
      <trkpt lat="43.56832" lon="3.81233">
        <ele>37.07599872</ele>
        <time>2020-10-10T09:16:55.000Z</time>
      </trkpt>
      <trkpt lat="43.56834" lon="3.81234">
        <ele>36.67599872</ele>
        <time>2020-10-10T09:16:56.000Z</time>
      </trkpt>
      <trkpt lat="43.56837" lon="3.81235">
        <ele>35.93799936</ele>
        <time>2020-10-10T09:16:58.000Z</time>
      </trkpt>
      <trkpt lat="43.56839" lon="3.81236">
        <ele>35.73799936</ele>
        <time>2020-10-10T09:16:59.000Z</time>
      </trkpt>
      <trkpt lat="43.56841" lon="3.81236">
        <ele>35.53799936</ele>
        <time>2020-10-10T09:17:00.000Z</time>
      </trkpt>
      <trkpt lat="43.56844" lon="3.81235">
        <ele>35.33799936</ele>
        <time>2020-10-10T09:17:01.000Z</time>
      </trkpt>
      <trkpt lat="43.56847" lon="3.81235">
        <ele>35.13799936</ele>
        <time>2020-10-10T09:17:02.000Z</time>
      </trkpt>
      <trkpt lat="43.56851" lon="3.81234">
        <ele>34.93799936</ele>
        <time>2020-10-10T09:17:03.000Z</time>
      </trkpt>
      <trkpt lat="43.56855" lon="3.81234">
        <ele>34.73799936</ele>
        <time>2020-10-10T09:17:04.000Z</time>
      </trkpt>
      <trkpt lat="43.56861" lon="3.81237">
        <ele>34.53799936</ele>
        <time>2020-10-10T09:17:05.000Z</time>
      </trkpt>
      <trkpt lat="43.56866" lon="3.81241">
        <ele>34.33799936</ele>
        <time>2020-10-10T09:17:06.000Z</time>
      </trkpt>
      <trkpt lat="43.56871" lon="3.81245">
        <ele>34.13799936</ele>
        <time>2020-10-10T09:17:07.000Z</time>
      </trkpt>
      <trkpt lat="43.56875" lon="3.81249">
        <ele>34</ele>
        <time>2020-10-10T09:17:08.000Z</time>
      </trkpt>
      <trkpt lat="43.56878" lon="3.81251">
        <ele>34</ele>
        <time>2020-10-10T09:17:09.000Z</time>
      </trkpt>
      <trkpt lat="43.5688" lon="3.81252">
        <ele>34</ele>
        <time>2020-10-10T09:17:10.000Z</time>
      </trkpt>
      <trkpt lat="43.56882" lon="3.81253">
        <ele>34</ele>
        <time>2020-10-10T09:17:11.000Z</time>
      </trkpt>
      <trkpt lat="43.56885" lon="3.81252">
        <ele>34</ele>
        <time>2020-10-10T09:17:13.000Z</time>
      </trkpt>
      <trkpt lat="43.56888" lon="3.81251">
        <ele>34</ele>
        <time>2020-10-10T09:17:15.000Z</time>
      </trkpt>
      <trkpt lat="43.56891" lon="3.81249">
        <ele>34</ele>
        <time>2020-10-10T09:17:17.000Z</time>
      </trkpt>
      <trkpt lat="43.56892" lon="3.81248">
        <ele>34.030938423353</ele>
        <time>2020-10-10T09:17:18.000Z</time>
      </trkpt>
      <trkpt lat="43.56895" lon="3.81247">
        <ele>34.230539094266</ele>
        <time>2020-10-10T09:17:20.000Z</time>
      </trkpt>
      <trkpt lat="43.56898" lon="3.81248">
        <ele>34.43013976518</ele>
        <time>2020-10-10T09:17:22.000Z</time>
      </trkpt>
      <trkpt lat="43.56901" lon="3.81247">
        <ele>34.729540771551</ele>
        <time>2020-10-10T09:17:25.000Z</time>
      </trkpt>
      <trkpt lat="43.56902" lon="3.81245">
        <ele>34.929141442464</ele>
        <time>2020-10-10T09:17:27.000Z</time>
      </trkpt>
      <trkpt lat="43.56904" lon="3.81243">
        <ele>35</ele>
        <time>2020-10-10T09:17:29.000Z</time>
      </trkpt>
      <trkpt lat="43.56907" lon="3.81241">
        <ele>35</ele>
        <time>2020-10-10T09:17:31.000Z</time>
      </trkpt>
      <trkpt lat="43.5691" lon="3.8124">
        <ele>35</ele>
        <time>2020-10-10T09:17:33.000Z</time>
      </trkpt>
      <trkpt lat="43.56912" lon="3.8124">
        <ele>35</ele>
        <time>2020-10-10T09:17:34.000Z</time>
      </trkpt>
      <trkpt lat="43.56914" lon="3.81239">
        <ele>35</ele>
        <time>2020-10-10T09:17:35.000Z</time>
      </trkpt>
      <trkpt lat="43.56916" lon="3.81239">
        <ele>35</ele>
        <time>2020-10-10T09:17:36.000Z</time>
      </trkpt>
      <trkpt lat="43.56919" lon="3.81237">
        <ele>35.032</ele>
        <time>2020-10-10T09:17:38.000Z</time>
      </trkpt>
      <trkpt lat="43.56921" lon="3.81236">
        <ele>35.132</ele>
        <time>2020-10-10T09:17:39.000Z</time>
      </trkpt>
      <trkpt lat="43.56923" lon="3.81235">
        <ele>35.232</ele>
        <time>2020-10-10T09:17:40.000Z</time>
      </trkpt>
      <trkpt lat="43.56926" lon="3.81234">
        <ele>35.332</ele>
        <time>2020-10-10T09:17:41.000Z</time>
      </trkpt>
      <trkpt lat="43.56928" lon="3.81234">
        <ele>35.432</ele>
        <time>2020-10-10T09:17:42.000Z</time>
      </trkpt>
      <trkpt lat="43.5693" lon="3.81234">
        <ele>35.532</ele>
        <time>2020-10-10T09:17:43.000Z</time>
      </trkpt>
      <trkpt lat="43.56932" lon="3.81234">
        <ele>35.632</ele>
        <time>2020-10-10T09:17:44.000Z</time>
      </trkpt>
      <trkpt lat="43.56934" lon="3.81234">
        <ele>35.732</ele>
        <time>2020-10-10T09:17:45.000Z</time>
      </trkpt>
      <trkpt lat="43.56938" lon="3.81234">
        <ele>35.932</ele>
        <time>2020-10-10T09:17:47.000Z</time>
      </trkpt>
      <trkpt lat="43.56941" lon="3.81234">
        <ele>35.868</ele>
        <time>2020-10-10T09:17:49.000Z</time>
      </trkpt>
      <trkpt lat="43.56943" lon="3.81234">
        <ele>35.668</ele>
        <time>2020-10-10T09:17:51.000Z</time>
      </trkpt>
      <trkpt lat="43.56947" lon="3.81235">
        <ele>35.468</ele>
        <time>2020-10-10T09:17:53.000Z</time>
      </trkpt>
      <trkpt lat="43.56949" lon="3.81236">
        <ele>35.368</ele>
        <time>2020-10-10T09:17:54.000Z</time>
      </trkpt>
      <trkpt lat="43.56951" lon="3.81237">
        <ele>35.268</ele>
        <time>2020-10-10T09:17:55.000Z</time>
      </trkpt>
      <trkpt lat="43.56953" lon="3.81238">
        <ele>35.168</ele>
        <time>2020-10-10T09:17:56.000Z</time>
      </trkpt>
      <trkpt lat="43.56956" lon="3.81239">
        <ele>35.068</ele>
        <time>2020-10-10T09:17:57.000Z</time>
      </trkpt>
      <trkpt lat="43.56958" lon="3.81241">
        <ele>34.968</ele>
        <time>2020-10-10T09:17:58.000Z</time>
      </trkpt>
      <trkpt lat="43.5696" lon="3.81242">
        <ele>34.868</ele>
        <time>2020-10-10T09:17:59.000Z</time>
      </trkpt>
      <trkpt lat="43.56961" lon="3.81244">
        <ele>34.768</ele>
        <time>2020-10-10T09:18:00.000Z</time>
      </trkpt>
      <trkpt lat="43.56963" lon="3.81245">
        <ele>34.668</ele>
        <time>2020-10-10T09:18:01.000Z</time>
      </trkpt>
      <trkpt lat="43.56965" lon="3.81248">
        <ele>34.468</ele>
        <time>2020-10-10T09:18:03.000Z</time>
      </trkpt>
      <trkpt lat="43.56967" lon="3.8125">
        <ele>34.268</ele>
        <time>2020-10-10T09:18:05.000Z</time>
      </trkpt>
      <trkpt lat="43.56969" lon="3.81252">
        <ele>34.068</ele>
        <time>2020-10-10T09:18:07.000Z</time>
      </trkpt>
      <trkpt lat="43.56971" lon="3.81254">
        <ele>33.736263651952</ele>
        <time>2020-10-10T09:18:09.000Z</time>
      </trkpt>
      <trkpt lat="43.56973" lon="3.81256">
        <ele>33.53646338828</ele>
        <time>2020-10-10T09:18:10.000Z</time>
      </trkpt>
      <trkpt lat="43.56975" lon="3.81258">
        <ele>33.336663124608</ele>
        <time>2020-10-10T09:18:11.000Z</time>
      </trkpt>
      <trkpt lat="43.56978" lon="3.81261">
        <ele>33.136862860935</ele>
        <time>2020-10-10T09:18:12.000Z</time>
      </trkpt>
      <trkpt lat="43.5698" lon="3.81264">
        <ele>32.937062597263</ele>
        <time>2020-10-10T09:18:13.000Z</time>
      </trkpt>
      <trkpt lat="43.56983" lon="3.81266">
        <ele>32.73726233359</ele>
        <time>2020-10-10T09:18:14.000Z</time>
      </trkpt>
      <trkpt lat="43.56985" lon="3.81269">
        <ele>32.337661806245</ele>
        <time>2020-10-10T09:18:16.000Z</time>
      </trkpt>
      <trkpt lat="43.56987" lon="3.8127">
        <ele>31.937937317177</ele>
        <time>2020-10-10T09:18:18.000Z</time>
      </trkpt>
      <trkpt lat="43.56989" lon="3.81271">
        <ele>31.537537045033</ele>
        <time>2020-10-10T09:18:20.000Z</time>
      </trkpt>
      <trkpt lat="43.56992" lon="3.81273">
        <ele>31.337336908961</ele>
        <time>2020-10-10T09:18:21.000Z</time>
      </trkpt>
      <trkpt lat="43.56995" lon="3.81275">
        <ele>31.137136772889</ele>
        <time>2020-10-10T09:18:22.000Z</time>
      </trkpt>
      <trkpt lat="43.56999" lon="3.81277">
        <ele>30.936936636817</ele>
        <time>2020-10-10T09:18:23.000Z</time>
      </trkpt>
      <trkpt lat="43.57002" lon="3.81278">
        <ele>30.736736500745</ele>
        <time>2020-10-10T09:18:24.000Z</time>
      </trkpt>
      <trkpt lat="43.57003" lon="3.81279">
        <ele>30.536536364673</ele>
        <time>2020-10-10T09:18:25.000Z</time>
      </trkpt>
      <trkpt lat="43.57006" lon="3.81281">
        <ele>30.136136092529</ele>
        <time>2020-10-10T09:18:27.000Z</time>
      </trkpt>
      <trkpt lat="43.57009" lon="3.81283">
        <ele>29.736263651952</ele>
        <time>2020-10-10T09:18:29.000Z</time>
      </trkpt>
      <trkpt lat="43.57011" lon="3.81286">
        <ele>29.53646338828</ele>
        <time>2020-10-10T09:18:30.000Z</time>
      </trkpt>
      <trkpt lat="43.57014" lon="3.81289">
        <ele>29.336663124608</ele>
        <time>2020-10-10T09:18:31.000Z</time>
      </trkpt>
      <trkpt lat="43.57016" lon="3.81291">
        <ele>29.136862860935</ele>
        <time>2020-10-10T09:18:32.000Z</time>
      </trkpt>
      <trkpt lat="43.57018" lon="3.81292">
        <ele>28.937062597263</ele>
        <time>2020-10-10T09:18:33.000Z</time>
      </trkpt>
      <trkpt lat="43.5702" lon="3.81293">
        <ele>28.73726233359</ele>
        <time>2020-10-10T09:18:34.000Z</time>
      </trkpt>
      <trkpt lat="43.57022" lon="3.81294">
        <ele>28.537462069918</ele>
        <time>2020-10-10T09:18:35.000Z</time>
      </trkpt>
      <trkpt lat="43.57024" lon="3.81294">
        <ele>28.337661806245</ele>
        <time>2020-10-10T09:18:36.000Z</time>
      </trkpt>
      <trkpt lat="43.57027" lon="3.81296">
        <ele>27.93799936</ele>
        <time>2020-10-10T09:18:38.000Z</time>
      </trkpt>
      <trkpt lat="43.5703" lon="3.81298">
        <ele>27.53799936</ele>
        <time>2020-10-10T09:18:40.000Z</time>
      </trkpt>
      <trkpt lat="43.57032" lon="3.81299">
        <ele>27.33799936</ele>
        <time>2020-10-10T09:18:41.000Z</time>
      </trkpt>
      <trkpt lat="43.57035" lon="3.813">
        <ele>27.13799936</ele>
        <time>2020-10-10T09:18:42.000Z</time>
      </trkpt>
      <trkpt lat="43.57037" lon="3.81302">
        <ele>26.93799936</ele>
        <time>2020-10-10T09:18:43.000Z</time>
      </trkpt>
      <trkpt lat="43.5704" lon="3.81303">
        <ele>26.73799936</ele>
        <time>2020-10-10T09:18:44.000Z</time>
      </trkpt>
      <trkpt lat="43.57042" lon="3.81305">
        <ele>26.53799936</ele>
        <time>2020-10-10T09:18:45.000Z</time>
      </trkpt>
      <trkpt lat="43.57044" lon="3.81308">
        <ele>26.33799936</ele>
        <time>2020-10-10T09:18:46.000Z</time>
      </trkpt>
      <trkpt lat="43.57045" lon="3.81311">
        <ele>26.13799936</ele>
        <time>2020-10-10T09:18:47.000Z</time>
      </trkpt>
      <trkpt lat="43.57047" lon="3.81315">
        <ele>25.968968658589</ele>
        <time>2020-10-10T09:18:48.000Z</time>
      </trkpt>
      <trkpt lat="43.5705" lon="3.8132">
        <ele>25.868868590553</ele>
        <time>2020-10-10T09:18:49.000Z</time>
      </trkpt>
      <trkpt lat="43.57052" lon="3.81326">
        <ele>25.768768522517</ele>
        <time>2020-10-10T09:18:50.000Z</time>
      </trkpt>
      <trkpt lat="43.57055" lon="3.81332">
        <ele>25.668668454481</ele>
        <time>2020-10-10T09:18:51.000Z</time>
      </trkpt>
      <trkpt lat="43.57058" lon="3.81337">
        <ele>25.568568386445</ele>
        <time>2020-10-10T09:18:52.000Z</time>
      </trkpt>
      <trkpt lat="43.57062" lon="3.81341">
        <ele>25.468468318409</ele>
        <time>2020-10-10T09:18:53.000Z</time>
      </trkpt>
      <trkpt lat="43.57064" lon="3.81345">
        <ele>25.368368250373</ele>
        <time>2020-10-10T09:18:54.000Z</time>
      </trkpt>
      <trkpt lat="43.57066" lon="3.81347">
        <ele>25.268268182336</ele>
        <time>2020-10-10T09:18:55.000Z</time>
      </trkpt>
      <trkpt lat="43.57067" lon="3.8135">
        <ele>25.068068046265</ele>
        <time>2020-10-10T09:18:57.000Z</time>
      </trkpt>
      <trkpt lat="43.5707" lon="3.81352">
        <ele>24.739387874239</ele>
        <time>2020-10-10T09:18:59.000Z</time>
      </trkpt>
      <trkpt lat="43.57073" lon="3.81348">
        <ele>24.344521017025</ele>
        <time>2020-10-10T09:19:01.000Z</time>
      </trkpt>
      <trkpt lat="43.57074" lon="3.81346">
        <ele>24.147087588419</ele>
        <time>2020-10-10T09:19:02.000Z</time>
      </trkpt>
      <trkpt lat="43.57076" lon="3.81344">
        <ele>23.949654159812</ele>
        <time>2020-10-10T09:19:03.000Z</time>
      </trkpt>
      <trkpt lat="43.57078" lon="3.81341">
        <ele>23.752220731205</ele>
        <time>2020-10-10T09:19:04.000Z</time>
      </trkpt>
      <trkpt lat="43.5708" lon="3.81338">
        <ele>23.554787302598</ele>
        <time>2020-10-10T09:19:05.000Z</time>
      </trkpt>
      <trkpt lat="43.57082" lon="3.81335">
        <ele>23.357353873991</ele>
        <time>2020-10-10T09:19:06.000Z</time>
      </trkpt>
      <trkpt lat="43.57084" lon="3.81333">
        <ele>23.159920445385</ele>
        <time>2020-10-10T09:19:07.000Z</time>
      </trkpt>
      <trkpt lat="43.57085" lon="3.8133">
        <ele>22.962597795276</ele>
        <time>2020-10-10T09:19:08.000Z</time>
      </trkpt>
      <trkpt lat="43.57086" lon="3.81327">
        <ele>22.765747401575</ele>
        <time>2020-10-10T09:19:09.000Z</time>
      </trkpt>
      <trkpt lat="43.57086" lon="3.81324">
        <ele>22.568897007874</ele>
        <time>2020-10-10T09:19:10.000Z</time>
      </trkpt>
      <trkpt lat="43.57087" lon="3.81321">
        <ele>22.372046614173</ele>
        <time>2020-10-10T09:19:11.000Z</time>
      </trkpt>
      <trkpt lat="43.57087" lon="3.81319">
        <ele>22.175196220472</ele>
        <time>2020-10-10T09:19:12.000Z</time>
      </trkpt>
      <trkpt lat="43.57088" lon="3.81317">
        <ele>21.978345826772</ele>
        <time>2020-10-10T09:19:13.000Z</time>
      </trkpt>
      <trkpt lat="43.57089" lon="3.81312">
        <ele>21.58464503937</ele>
        <time>2020-10-10T09:19:15.000Z</time>
      </trkpt>
      <trkpt lat="43.57089" lon="3.8131">
        <ele>21.387794645669</ele>
        <time>2020-10-10T09:19:16.000Z</time>
      </trkpt>
      <trkpt lat="43.57089" lon="3.81307">
        <ele>21.190944251968</ele>
        <time>2020-10-10T09:19:17.000Z</time>
      </trkpt>
      <trkpt lat="43.5709" lon="3.81304">
        <ele>20.996913251029</ele>
        <time>2020-10-10T09:19:18.000Z</time>
      </trkpt>
      <trkpt lat="43.5709" lon="3.81301">
        <ele>20.894032592593</ele>
        <time>2020-10-10T09:19:19.000Z</time>
      </trkpt>
      <trkpt lat="43.57091" lon="3.81297">
        <ele>20.791151934156</ele>
        <time>2020-10-10T09:19:20.000Z</time>
      </trkpt>
      <trkpt lat="43.57091" lon="3.81292">
        <ele>20.68827127572</ele>
        <time>2020-10-10T09:19:21.000Z</time>
      </trkpt>
      <trkpt lat="43.57092" lon="3.81289">
        <ele>20.585390617284</ele>
        <time>2020-10-10T09:19:22.000Z</time>
      </trkpt>
      <trkpt lat="43.57093" lon="3.81285">
        <ele>20.482509958848</ele>
        <time>2020-10-10T09:19:23.000Z</time>
      </trkpt>
      <trkpt lat="43.57093" lon="3.81281">
        <ele>20.379629300412</ele>
        <time>2020-10-10T09:19:24.000Z</time>
      </trkpt>
      <trkpt lat="43.571" lon="3.81272">
        <ele>20.03100032</ele>
        <time>2020-10-10T09:19:28.000Z</time>
      </trkpt>
      <trkpt lat="43.5711" lon="3.81272">
        <ele>20.23100032</ele>
        <time>2020-10-10T09:19:30.000Z</time>
      </trkpt>
      <trkpt lat="43.57116" lon="3.81269">
        <ele>20.43100032</ele>
        <time>2020-10-10T09:19:32.000Z</time>
      </trkpt>
      <trkpt lat="43.57118" lon="3.81266">
        <ele>20.53100032</ele>
        <time>2020-10-10T09:19:33.000Z</time>
      </trkpt>
      <trkpt lat="43.57121" lon="3.81263">
        <ele>20.63100032</ele>
        <time>2020-10-10T09:19:34.000Z</time>
      </trkpt>
      <trkpt lat="43.57122" lon="3.81259">
        <ele>20.73100032</ele>
        <time>2020-10-10T09:19:35.000Z</time>
      </trkpt>
      <trkpt lat="43.57124" lon="3.81255">
        <ele>20.83100032</ele>
        <time>2020-10-10T09:19:36.000Z</time>
      </trkpt>
      <trkpt lat="43.57126" lon="3.81252">
        <ele>20.93100032</ele>
        <time>2020-10-10T09:19:37.000Z</time>
      </trkpt>
      <trkpt lat="43.57127" lon="3.81249">
        <ele>20.968968658589</ele>
        <time>2020-10-10T09:19:38.000Z</time>
      </trkpt>
      <trkpt lat="43.57128" lon="3.81245">
        <ele>20.868868590553</ele>
        <time>2020-10-10T09:19:39.000Z</time>
      </trkpt>
      <trkpt lat="43.5713" lon="3.81241">
        <ele>20.768768522517</ele>
        <time>2020-10-10T09:19:40.000Z</time>
      </trkpt>
      <trkpt lat="43.57132" lon="3.81237">
        <ele>20.668668454481</ele>
        <time>2020-10-10T09:19:41.000Z</time>
      </trkpt>
      <trkpt lat="43.57134" lon="3.81234">
        <ele>20.568568386445</ele>
        <time>2020-10-10T09:19:42.000Z</time>
      </trkpt>
      <trkpt lat="43.57137" lon="3.81231">
        <ele>20.468468318409</ele>
        <time>2020-10-10T09:19:43.000Z</time>
      </trkpt>
      <trkpt lat="43.5714" lon="3.81228">
        <ele>20.368368250373</ele>
        <time>2020-10-10T09:19:44.000Z</time>
      </trkpt>
      <trkpt lat="43.57143" lon="3.81224">
        <ele>20.268268182336</ele>
        <time>2020-10-10T09:19:45.000Z</time>
      </trkpt>
      <trkpt lat="43.57146" lon="3.81221">
        <ele>20.1681681143</ele>
        <time>2020-10-10T09:19:46.000Z</time>
      </trkpt>
      <trkpt lat="43.5715" lon="3.81217">
        <ele>20.068068046265</ele>
        <time>2020-10-10T09:19:47.000Z</time>
      </trkpt>
      <trkpt lat="43.57154" lon="3.81214">
        <ele>20</ele>
        <time>2020-10-10T09:19:48.000Z</time>
      </trkpt>
      <trkpt lat="43.57158" lon="3.81211">
        <ele>20</ele>
        <time>2020-10-10T09:19:49.000Z</time>
      </trkpt>
      <trkpt lat="43.57162" lon="3.81208">
        <ele>20</ele>
        <time>2020-10-10T09:19:50.000Z</time>
      </trkpt>
      <trkpt lat="43.57166" lon="3.81205">
        <ele>20</ele>
        <time>2020-10-10T09:19:51.000Z</time>
      </trkpt>
      <trkpt lat="43.5717" lon="3.81202">
        <ele>20</ele>
        <time>2020-10-10T09:19:52.000Z</time>
      </trkpt>
      <trkpt lat="43.57174" lon="3.81199">
        <ele>20</ele>
        <time>2020-10-10T09:19:53.000Z</time>
      </trkpt>
      <trkpt lat="43.57178" lon="3.81196">
        <ele>20</ele>
        <time>2020-10-10T09:19:54.000Z</time>
      </trkpt>
      <trkpt lat="43.57181" lon="3.81193">
        <ele>20</ele>
        <time>2020-10-10T09:19:55.000Z</time>
      </trkpt>
      <trkpt lat="43.57185" lon="3.81191">
        <ele>20</ele>
        <time>2020-10-10T09:19:56.000Z</time>
      </trkpt>
      <trkpt lat="43.57189" lon="3.81188">
        <ele>20</ele>
        <time>2020-10-10T09:19:57.000Z</time>
      </trkpt>
      <trkpt lat="43.57192" lon="3.81186">
        <ele>20.03100032</ele>
        <time>2020-10-10T09:19:58.000Z</time>
      </trkpt>
      <trkpt lat="43.57196" lon="3.81183">
        <ele>20.13100032</ele>
        <time>2020-10-10T09:19:59.000Z</time>
      </trkpt>
      <trkpt lat="43.57199" lon="3.81181">
        <ele>20.23100032</ele>
        <time>2020-10-10T09:20:00.000Z</time>
      </trkpt>
      <trkpt lat="43.57203" lon="3.81179">
        <ele>20.33100032</ele>
        <time>2020-10-10T09:20:01.000Z</time>
      </trkpt>
      <trkpt lat="43.57206" lon="3.81177">
        <ele>20.43100032</ele>
        <time>2020-10-10T09:20:02.000Z</time>
      </trkpt>
      <trkpt lat="43.5721" lon="3.81175">
        <ele>20.53100032</ele>
        <time>2020-10-10T09:20:03.000Z</time>
      </trkpt>
      <trkpt lat="43.57214" lon="3.81173">
        <ele>20.63100032</ele>
        <time>2020-10-10T09:20:04.000Z</time>
      </trkpt>
      <trkpt lat="43.57217" lon="3.8117">
        <ele>20.73100032</ele>
        <time>2020-10-10T09:20:05.000Z</time>
      </trkpt>
      <trkpt lat="43.5722" lon="3.81167">
        <ele>20.83100032</ele>
        <time>2020-10-10T09:20:06.000Z</time>
      </trkpt>
      <trkpt lat="43.57223" lon="3.81165">
        <ele>20.93100032</ele>
        <time>2020-10-10T09:20:07.000Z</time>
      </trkpt>
      <trkpt lat="43.57226" lon="3.81163">
        <ele>21.030907587347</ele>
        <time>2020-10-10T09:20:08.000Z</time>
      </trkpt>
      <trkpt lat="43.57229" lon="3.81161">
        <ele>21.130608452847</ele>
        <time>2020-10-10T09:20:09.000Z</time>
      </trkpt>
      <trkpt lat="43.57231" lon="3.8116">
        <ele>21.230309318346</ele>
        <time>2020-10-10T09:20:10.000Z</time>
      </trkpt>
      <trkpt lat="43.57233" lon="3.81158">
        <ele>21.429711049344</ele>
        <time>2020-10-10T09:20:12.000Z</time>
      </trkpt>
      <trkpt lat="43.57234" lon="3.81156">
        <ele>21.971887550201</ele>
        <time>2020-10-10T09:20:18.000Z</time>
      </trkpt>
      <trkpt lat="43.57237" lon="3.81157">
        <ele>21.771084337349</ele>
        <time>2020-10-10T09:20:20.000Z</time>
      </trkpt>
      <trkpt lat="43.57238" lon="3.81157">
        <ele>21.670682730924</ele>
        <time>2020-10-10T09:20:21.000Z</time>
      </trkpt>
      <trkpt lat="43.57241" lon="3.81156">
        <ele>21.469879518072</ele>
        <time>2020-10-10T09:20:23.000Z</time>
      </trkpt>
      <trkpt lat="43.57244" lon="3.81153">
        <ele>21.269076305221</ele>
        <time>2020-10-10T09:20:25.000Z</time>
      </trkpt>
      <trkpt lat="43.57246" lon="3.81152">
        <ele>21.168674698795</ele>
        <time>2020-10-10T09:20:26.000Z</time>
      </trkpt>
      <trkpt lat="43.57249" lon="3.8115">
        <ele>21</ele>
        <time>2020-10-10T09:20:28.000Z</time>
      </trkpt>
      <trkpt lat="43.57251" lon="3.81148">
        <ele>21</ele>
        <time>2020-10-10T09:20:30.000Z</time>
      </trkpt>
      <trkpt lat="43.57253" lon="3.81147">
        <ele>21</ele>
        <time>2020-10-10T09:20:31.000Z</time>
      </trkpt>
      <trkpt lat="43.57255" lon="3.81146">
        <ele>21</ele>
        <time>2020-10-10T09:20:32.000Z</time>
      </trkpt>
      <trkpt lat="43.57258" lon="3.81145">
        <ele>21</ele>
        <time>2020-10-10T09:20:33.000Z</time>
      </trkpt>
      <trkpt lat="43.57262" lon="3.81145">
        <ele>21</ele>
        <time>2020-10-10T09:20:34.000Z</time>
      </trkpt>
      <trkpt lat="43.57267" lon="3.81143">
        <ele>21</ele>
        <time>2020-10-10T09:20:35.000Z</time>
      </trkpt>
      <trkpt lat="43.5727" lon="3.8114">
        <ele>21</ele>
        <time>2020-10-10T09:20:36.000Z</time>
      </trkpt>
      <trkpt lat="43.57274" lon="3.81137">
        <ele>21</ele>
        <time>2020-10-10T09:20:37.000Z</time>
      </trkpt>
      <trkpt lat="43.57277" lon="3.81134">
        <ele>21</ele>
        <time>2020-10-10T09:20:38.000Z</time>
      </trkpt>
      <trkpt lat="43.5728" lon="3.81131">
        <ele>21</ele>
        <time>2020-10-10T09:20:39.000Z</time>
      </trkpt>
      <trkpt lat="43.57283" lon="3.81127">
        <ele>21</ele>
        <time>2020-10-10T09:20:40.000Z</time>
      </trkpt>
      <trkpt lat="43.57287" lon="3.81124">
        <ele>21</ele>
        <time>2020-10-10T09:20:41.000Z</time>
      </trkpt>
      <trkpt lat="43.57289" lon="3.8112">
        <ele>21</ele>
        <time>2020-10-10T09:20:42.000Z</time>
      </trkpt>
      <trkpt lat="43.57292" lon="3.81116">
        <ele>21</ele>
        <time>2020-10-10T09:20:43.000Z</time>
      </trkpt>
      <trkpt lat="43.57295" lon="3.81114">
        <ele>21</ele>
        <time>2020-10-10T09:20:44.000Z</time>
      </trkpt>
      <trkpt lat="43.57297" lon="3.81112">
        <ele>21</ele>
        <time>2020-10-10T09:20:45.000Z</time>
      </trkpt>
      <trkpt lat="43.57299" lon="3.81112">
        <ele>21</ele>
        <time>2020-10-10T09:20:46.000Z</time>
      </trkpt>
      <trkpt lat="43.57302" lon="3.81112">
        <ele>21</ele>
        <time>2020-10-10T09:20:47.000Z</time>
      </trkpt>
      <trkpt lat="43.57305" lon="3.81113">
        <ele>21</ele>
        <time>2020-10-10T09:20:48.000Z</time>
      </trkpt>
      <trkpt lat="43.57308" lon="3.81113">
        <ele>21</ele>
        <time>2020-10-10T09:20:49.000Z</time>
      </trkpt>
      <trkpt lat="43.5731" lon="3.81115">
        <ele>21</ele>
        <time>2020-10-10T09:20:50.000Z</time>
      </trkpt>
      <trkpt lat="43.57312" lon="3.81116">
        <ele>21</ele>
        <time>2020-10-10T09:20:51.000Z</time>
      </trkpt>
      <trkpt lat="43.57314" lon="3.81118">
        <ele>21</ele>
        <time>2020-10-10T09:20:52.000Z</time>
      </trkpt>
      <trkpt lat="43.57316" lon="3.8112">
        <ele>21</ele>
        <time>2020-10-10T09:20:53.000Z</time>
      </trkpt>
      <trkpt lat="43.57318" lon="3.81123">
        <ele>21</ele>
        <time>2020-10-10T09:20:54.000Z</time>
      </trkpt>
      <trkpt lat="43.5732" lon="3.81126">
        <ele>21</ele>
        <time>2020-10-10T09:20:55.000Z</time>
      </trkpt>
      <trkpt lat="43.57322" lon="3.81128">
        <ele>21</ele>
        <time>2020-10-10T09:20:56.000Z</time>
      </trkpt>
      <trkpt lat="43.57325" lon="3.8113">
        <ele>21</ele>
        <time>2020-10-10T09:20:57.000Z</time>
      </trkpt>
      <trkpt lat="43.57329" lon="3.81132">
        <ele>21.03190427696</ele>
        <time>2020-10-10T09:20:58.000Z</time>
      </trkpt>
      <trkpt lat="43.57332" lon="3.81135">
        <ele>21.131605142459</ele>
        <time>2020-10-10T09:20:59.000Z</time>
      </trkpt>
      <trkpt lat="43.57334" lon="3.81139">
        <ele>21.231306007958</ele>
        <time>2020-10-10T09:21:00.000Z</time>
      </trkpt>
      <trkpt lat="43.57337" lon="3.81141">
        <ele>21.331006873457</ele>
        <time>2020-10-10T09:21:01.000Z</time>
      </trkpt>
      <trkpt lat="43.57339" lon="3.81144">
        <ele>21.430707738957</ele>
        <time>2020-10-10T09:21:02.000Z</time>
      </trkpt>
      <trkpt lat="43.57342" lon="3.81146">
        <ele>21.530408604456</ele>
        <time>2020-10-10T09:21:03.000Z</time>
      </trkpt>
      <trkpt lat="43.57345" lon="3.81149">
        <ele>21.630109469955</ele>
        <time>2020-10-10T09:21:04.000Z</time>
      </trkpt>
      <trkpt lat="43.57346" lon="3.81152">
        <ele>21.729810335454</ele>
        <time>2020-10-10T09:21:05.000Z</time>
      </trkpt>
      <trkpt lat="43.57347" lon="3.81155">
        <ele>21.829511200954</ele>
        <time>2020-10-10T09:21:06.000Z</time>
      </trkpt>
      <trkpt lat="43.57348" lon="3.81157">
        <ele>21.929212066453</ele>
        <time>2020-10-10T09:21:07.000Z</time>
      </trkpt>
      <trkpt lat="43.57349" lon="3.81159">
        <ele>22</ele>
        <time>2020-10-10T09:21:08.000Z</time>
      </trkpt>
      <trkpt lat="43.57351" lon="3.81161">
        <ele>22</ele>
        <time>2020-10-10T09:21:09.000Z</time>
      </trkpt>
      <trkpt lat="43.57353" lon="3.81163">
        <ele>22</ele>
        <time>2020-10-10T09:21:10.000Z</time>
      </trkpt>
      <trkpt lat="43.57354" lon="3.81164">
        <ele>22</ele>
        <time>2020-10-10T09:21:11.000Z</time>
      </trkpt>
      <trkpt lat="43.57356" lon="3.81165">
        <ele>22</ele>
        <time>2020-10-10T09:21:12.000Z</time>
      </trkpt>
      <trkpt lat="43.57358" lon="3.81165">
        <ele>22</ele>
        <time>2020-10-10T09:21:13.000Z</time>
      </trkpt>
      <trkpt lat="43.57361" lon="3.81165">
        <ele>22</ele>
        <time>2020-10-10T09:21:14.000Z</time>
      </trkpt>
      <trkpt lat="43.57364" lon="3.81166">
        <ele>22</ele>
        <time>2020-10-10T09:21:15.000Z</time>
      </trkpt>
      <trkpt lat="43.57367" lon="3.81168">
        <ele>22</ele>
        <time>2020-10-10T09:21:16.000Z</time>
      </trkpt>
      <trkpt lat="43.57371" lon="3.81169">
        <ele>22</ele>
        <time>2020-10-10T09:21:17.000Z</time>
      </trkpt>
      <trkpt lat="43.57374" lon="3.81171">
        <ele>21.968031957812</ele>
        <time>2020-10-10T09:21:18.000Z</time>
      </trkpt>
      <trkpt lat="43.57377" lon="3.81171">
        <ele>21.868131825976</ele>
        <time>2020-10-10T09:21:19.000Z</time>
      </trkpt>
      <trkpt lat="43.57381" lon="3.81173">
        <ele>21.76823169414</ele>
        <time>2020-10-10T09:21:20.000Z</time>
      </trkpt>
      <trkpt lat="43.57385" lon="3.81174">
        <ele>21.668331562304</ele>
        <time>2020-10-10T09:21:21.000Z</time>
      </trkpt>
      <trkpt lat="43.57388" lon="3.81175">
        <ele>21.568431430468</ele>
        <time>2020-10-10T09:21:22.000Z</time>
      </trkpt>
      <trkpt lat="43.57391" lon="3.81176">
        <ele>21.468531298631</ele>
        <time>2020-10-10T09:21:23.000Z</time>
      </trkpt>
      <trkpt lat="43.57394" lon="3.81177">
        <ele>21.368631166795</ele>
        <time>2020-10-10T09:21:24.000Z</time>
      </trkpt>
      <trkpt lat="43.57397" lon="3.81179">
        <ele>21.268731034959</ele>
        <time>2020-10-10T09:21:25.000Z</time>
      </trkpt>
      <trkpt lat="43.574" lon="3.81181">
        <ele>21.168830903123</ele>
        <time>2020-10-10T09:21:26.000Z</time>
      </trkpt>
      <trkpt lat="43.57403" lon="3.81185">
        <ele>21.068930771287</ele>
        <time>2020-10-10T09:21:27.000Z</time>
      </trkpt>
      <trkpt lat="43.57404" lon="3.81188">
        <ele>20.969092412653</ele>
        <time>2020-10-10T09:21:28.000Z</time>
      </trkpt>
      <trkpt lat="43.57405" lon="3.81191">
        <ele>20.869391547153</ele>
        <time>2020-10-10T09:21:29.000Z</time>
      </trkpt>
      <trkpt lat="43.57405" lon="3.81195">
        <ele>20.769690681654</ele>
        <time>2020-10-10T09:21:30.000Z</time>
      </trkpt>
      <trkpt lat="43.57404" lon="3.81197">
        <ele>20.669989816155</ele>
        <time>2020-10-10T09:21:31.000Z</time>
      </trkpt>
      <trkpt lat="43.57403" lon="3.812">
        <ele>20.570288950656</ele>
        <time>2020-10-10T09:21:32.000Z</time>
      </trkpt>
      <trkpt lat="43.57403" lon="3.81203">
        <ele>20.470588085156</ele>
        <time>2020-10-10T09:21:33.000Z</time>
      </trkpt>
      <trkpt lat="43.57402" lon="3.81206">
        <ele>20.370887219657</ele>
        <time>2020-10-10T09:21:34.000Z</time>
      </trkpt>
      <trkpt lat="43.57403" lon="3.81209">
        <ele>20.271186354158</ele>
        <time>2020-10-10T09:21:35.000Z</time>
      </trkpt>
      <trkpt lat="43.57405" lon="3.81211">
        <ele>20.171485488659</ele>
        <time>2020-10-10T09:21:36.000Z</time>
      </trkpt>
      <trkpt lat="43.57407" lon="3.81214">
        <ele>20.071784623159</ele>
        <time>2020-10-10T09:21:37.000Z</time>
      </trkpt>
      <trkpt lat="43.57409" lon="3.81216">
        <ele>20</ele>
        <time>2020-10-10T09:21:38.000Z</time>
      </trkpt>
      <trkpt lat="43.57411" lon="3.81218">
        <ele>20</ele>
        <time>2020-10-10T09:21:39.000Z</time>
      </trkpt>
      <trkpt lat="43.57414" lon="3.81221">
        <ele>20</ele>
        <time>2020-10-10T09:21:40.000Z</time>
      </trkpt>
      <trkpt lat="43.57416" lon="3.81223">
        <ele>20</ele>
        <time>2020-10-10T09:21:41.000Z</time>
      </trkpt>
      <trkpt lat="43.57419" lon="3.81225">
        <ele>20</ele>
        <time>2020-10-10T09:21:42.000Z</time>
      </trkpt>
      <trkpt lat="43.57422" lon="3.81227">
        <ele>20</ele>
        <time>2020-10-10T09:21:43.000Z</time>
      </trkpt>
      <trkpt lat="43.57425" lon="3.81229">
        <ele>20</ele>
        <time>2020-10-10T09:21:44.000Z</time>
      </trkpt>
      <trkpt lat="43.57429" lon="3.81229">
        <ele>20</ele>
        <time>2020-10-10T09:21:45.000Z</time>
      </trkpt>
      <trkpt lat="43.57432" lon="3.8123">
        <ele>20</ele>
        <time>2020-10-10T09:21:46.000Z</time>
      </trkpt>
      <trkpt lat="43.57435" lon="3.81232">
        <ele>20</ele>
        <time>2020-10-10T09:21:47.000Z</time>
      </trkpt>
      <trkpt lat="43.57438" lon="3.81235">
        <ele>20</ele>
        <time>2020-10-10T09:21:48.000Z</time>
      </trkpt>
      <trkpt lat="43.5744" lon="3.81238">
        <ele>20</ele>
        <time>2020-10-10T09:21:49.000Z</time>
      </trkpt>
      <trkpt lat="43.57442" lon="3.81241">
        <ele>20</ele>
        <time>2020-10-10T09:21:50.000Z</time>
      </trkpt>
      <trkpt lat="43.57445" lon="3.81244">
        <ele>20</ele>
        <time>2020-10-10T09:21:51.000Z</time>
      </trkpt>
      <trkpt lat="43.57448" lon="3.81246">
        <ele>20</ele>
        <time>2020-10-10T09:21:52.000Z</time>
      </trkpt>
      <trkpt lat="43.57451" lon="3.81248">
        <ele>20</ele>
        <time>2020-10-10T09:21:53.000Z</time>
      </trkpt>
      <trkpt lat="43.57454" lon="3.8125">
        <ele>20</ele>
        <time>2020-10-10T09:21:54.000Z</time>
      </trkpt>
      <trkpt lat="43.57457" lon="3.81253">
        <ele>20</ele>
        <time>2020-10-10T09:21:55.000Z</time>
      </trkpt>
      <trkpt lat="43.57461" lon="3.81255">
        <ele>20</ele>
        <time>2020-10-10T09:21:56.000Z</time>
      </trkpt>
      <trkpt lat="43.57464" lon="3.81257">
        <ele>20</ele>
        <time>2020-10-10T09:21:57.000Z</time>
      </trkpt>
      <trkpt lat="43.57468" lon="3.81258">
        <ele>20.031968042188</ele>
        <time>2020-10-10T09:21:58.000Z</time>
      </trkpt>
      <trkpt lat="43.57471" lon="3.81259">
        <ele>20.131868174024</ele>
        <time>2020-10-10T09:21:59.000Z</time>
      </trkpt>
      <trkpt lat="43.57475" lon="3.81259">
        <ele>20.23176830586</ele>
        <time>2020-10-10T09:22:00.000Z</time>
      </trkpt>
      <trkpt lat="43.57478" lon="3.81258">
        <ele>20.331668437696</ele>
        <time>2020-10-10T09:22:01.000Z</time>
      </trkpt>
      <trkpt lat="43.57481" lon="3.81258">
        <ele>20.431568569532</ele>
        <time>2020-10-10T09:22:02.000Z</time>
      </trkpt>
      <trkpt lat="43.57485" lon="3.81258">
        <ele>20.531468701369</ele>
        <time>2020-10-10T09:22:03.000Z</time>
      </trkpt>
      <trkpt lat="43.57488" lon="3.81259">
        <ele>20.631368833205</ele>
        <time>2020-10-10T09:22:04.000Z</time>
      </trkpt>
      <trkpt lat="43.57491" lon="3.81262">
        <ele>20.731268965041</ele>
        <time>2020-10-10T09:22:05.000Z</time>
      </trkpt>
      <trkpt lat="43.57494" lon="3.81264">
        <ele>20.831169096877</ele>
        <time>2020-10-10T09:22:06.000Z</time>
      </trkpt>
      <trkpt lat="43.57497" lon="3.81265">
        <ele>20.931069228713</ele>
        <time>2020-10-10T09:22:07.000Z</time>
      </trkpt>
      <trkpt lat="43.575" lon="3.81266">
        <ele>21</ele>
        <time>2020-10-10T09:22:08.000Z</time>
      </trkpt>
      <trkpt lat="43.57504" lon="3.81266">
        <ele>21</ele>
        <time>2020-10-10T09:22:09.000Z</time>
      </trkpt>
      <trkpt lat="43.57508" lon="3.81267">
        <ele>21</ele>
        <time>2020-10-10T09:22:10.000Z</time>
      </trkpt>
      <trkpt lat="43.57513" lon="3.81269">
        <ele>21</ele>
        <time>2020-10-10T09:22:11.000Z</time>
      </trkpt>
      <trkpt lat="43.57517" lon="3.81271">
        <ele>21</ele>
        <time>2020-10-10T09:22:12.000Z</time>
      </trkpt>
      <trkpt lat="43.57521" lon="3.81274">
        <ele>21</ele>
        <time>2020-10-10T09:22:13.000Z</time>
      </trkpt>
      <trkpt lat="43.57524" lon="3.81276">
        <ele>21</ele>
        <time>2020-10-10T09:22:14.000Z</time>
      </trkpt>
      <trkpt lat="43.57528" lon="3.81279">
        <ele>21</ele>
        <time>2020-10-10T09:22:15.000Z</time>
      </trkpt>
      <trkpt lat="43.57533" lon="3.81282">
        <ele>21</ele>
        <time>2020-10-10T09:22:16.000Z</time>
      </trkpt>
      <trkpt lat="43.57537" lon="3.81285">
        <ele>21</ele>
        <time>2020-10-10T09:22:17.000Z</time>
      </trkpt>
      <trkpt lat="43.57541" lon="3.81288">
        <ele>20.968962182281</ele>
        <time>2020-10-10T09:22:18.000Z</time>
      </trkpt>
      <trkpt lat="43.57545" lon="3.81291">
        <ele>20.871969001911</ele>
        <time>2020-10-10T09:22:19.000Z</time>
      </trkpt>
      <trkpt lat="43.57549" lon="3.81294">
        <ele>20.77497582154</ele>
        <time>2020-10-10T09:22:20.000Z</time>
      </trkpt>
      <trkpt lat="43.57553" lon="3.81297">
        <ele>20.677982641169</ele>
        <time>2020-10-10T09:22:21.000Z</time>
      </trkpt>
      <trkpt lat="43.57557" lon="3.813">
        <ele>20.580989460799</ele>
        <time>2020-10-10T09:22:22.000Z</time>
      </trkpt>
      <trkpt lat="43.57562" lon="3.81304">
        <ele>20.483996280428</ele>
        <time>2020-10-10T09:22:23.000Z</time>
      </trkpt>
      <trkpt lat="43.57566" lon="3.81307">
        <ele>20.387003100057</ele>
        <time>2020-10-10T09:22:24.000Z</time>
      </trkpt>
      <trkpt lat="43.5757" lon="3.81311">
        <ele>20.290009919687</ele>
        <time>2020-10-10T09:22:25.000Z</time>
      </trkpt>
      <trkpt lat="43.57575" lon="3.81315">
        <ele>20.193016739316</ele>
        <time>2020-10-10T09:22:26.000Z</time>
      </trkpt>
      <trkpt lat="43.5758" lon="3.81319">
        <ele>20.096023558945</ele>
        <time>2020-10-10T09:22:27.000Z</time>
      </trkpt>
      <trkpt lat="43.57585" lon="3.81322">
        <ele>20</ele>
        <time>2020-10-10T09:22:28.000Z</time>
      </trkpt>
      <trkpt lat="43.5759" lon="3.81325">
        <ele>20</ele>
        <time>2020-10-10T09:22:29.000Z</time>
      </trkpt>
      <trkpt lat="43.57596" lon="3.81328">
        <ele>20</ele>
        <time>2020-10-10T09:22:30.000Z</time>
      </trkpt>
      <trkpt lat="43.57601" lon="3.81331">
        <ele>20</ele>
        <time>2020-10-10T09:22:31.000Z</time>
      </trkpt>
      <trkpt lat="43.57606" lon="3.81334">
        <ele>20</ele>
        <time>2020-10-10T09:22:32.000Z</time>
      </trkpt>
      <trkpt lat="43.57611" lon="3.81337">
        <ele>20</ele>
        <time>2020-10-10T09:22:33.000Z</time>
      </trkpt>
      <trkpt lat="43.57616" lon="3.8134">
        <ele>20</ele>
        <time>2020-10-10T09:22:34.000Z</time>
      </trkpt>
      <trkpt lat="43.5762" lon="3.81342">
        <ele>20</ele>
        <time>2020-10-10T09:22:35.000Z</time>
      </trkpt>
      <trkpt lat="43.57624" lon="3.81344">
        <ele>20</ele>
        <time>2020-10-10T09:22:36.000Z</time>
      </trkpt>
      <trkpt lat="43.57628" lon="3.81346">
        <ele>20</ele>
        <time>2020-10-10T09:22:37.000Z</time>
      </trkpt>
      <trkpt lat="43.57631" lon="3.81349">
        <ele>20.03100032</ele>
        <time>2020-10-10T09:22:38.000Z</time>
      </trkpt>
      <trkpt lat="43.57635" lon="3.81351">
        <ele>20.13100032</ele>
        <time>2020-10-10T09:22:39.000Z</time>
      </trkpt>
      <trkpt lat="43.57638" lon="3.81354">
        <ele>20.23100032</ele>
        <time>2020-10-10T09:22:40.000Z</time>
      </trkpt>
      <trkpt lat="43.57641" lon="3.81357">
        <ele>20.33100032</ele>
        <time>2020-10-10T09:22:41.000Z</time>
      </trkpt>
      <trkpt lat="43.57644" lon="3.81359">
        <ele>20.43100032</ele>
        <time>2020-10-10T09:22:42.000Z</time>
      </trkpt>
      <trkpt lat="43.57648" lon="3.81362">
        <ele>20.53100032</ele>
        <time>2020-10-10T09:22:43.000Z</time>
      </trkpt>
      <trkpt lat="43.57652" lon="3.81364">
        <ele>20.63100032</ele>
        <time>2020-10-10T09:22:44.000Z</time>
      </trkpt>
      <trkpt lat="43.57655" lon="3.81366">
        <ele>20.73100032</ele>
        <time>2020-10-10T09:22:45.000Z</time>
      </trkpt>
      <trkpt lat="43.57659" lon="3.81367">
        <ele>20.83100032</ele>
        <time>2020-10-10T09:22:46.000Z</time>
      </trkpt>
      <trkpt lat="43.57663" lon="3.81369">
        <ele>20.93100032</ele>
        <time>2020-10-10T09:22:47.000Z</time>
      </trkpt>
      <trkpt lat="43.57667" lon="3.8137">
        <ele>20.968968658589</ele>
        <time>2020-10-10T09:22:48.000Z</time>
      </trkpt>
      <trkpt lat="43.5767" lon="3.81371">
        <ele>20.868868590553</ele>
        <time>2020-10-10T09:22:49.000Z</time>
      </trkpt>
      <trkpt lat="43.57674" lon="3.81373">
        <ele>20.768768522517</ele>
        <time>2020-10-10T09:22:50.000Z</time>
      </trkpt>
      <trkpt lat="43.57678" lon="3.81374">
        <ele>20.668668454481</ele>
        <time>2020-10-10T09:22:51.000Z</time>
      </trkpt>
      <trkpt lat="43.57683" lon="3.81375">
        <ele>20.568568386445</ele>
        <time>2020-10-10T09:22:52.000Z</time>
      </trkpt>
      <trkpt lat="43.57687" lon="3.81376">
        <ele>20.468468318409</ele>
        <time>2020-10-10T09:22:53.000Z</time>
      </trkpt>
      <trkpt lat="43.57691" lon="3.81376">
        <ele>20.368368250373</ele>
        <time>2020-10-10T09:22:54.000Z</time>
      </trkpt>
      <trkpt lat="43.57696" lon="3.81376">
        <ele>20.268268182336</ele>
        <time>2020-10-10T09:22:55.000Z</time>
      </trkpt>
      <trkpt lat="43.57701" lon="3.81376">
        <ele>20.1681681143</ele>
        <time>2020-10-10T09:22:56.000Z</time>
      </trkpt>
      <trkpt lat="43.57706" lon="3.81376">
        <ele>20.068068046265</ele>
        <time>2020-10-10T09:22:57.000Z</time>
      </trkpt>
      <trkpt lat="43.57711" lon="3.81376">
        <ele>20</ele>
        <time>2020-10-10T09:22:58.000Z</time>
      </trkpt>
      <trkpt lat="43.57716" lon="3.81376">
        <ele>20</ele>
        <time>2020-10-10T09:22:59.000Z</time>
      </trkpt>
      <trkpt lat="43.57721" lon="3.81375">
        <ele>20</ele>
        <time>2020-10-10T09:23:00.000Z</time>
      </trkpt>
      <trkpt lat="43.57725" lon="3.81375">
        <ele>20</ele>
        <time>2020-10-10T09:23:01.000Z</time>
      </trkpt>
      <trkpt lat="43.5773" lon="3.81376">
        <ele>20</ele>
        <time>2020-10-10T09:23:02.000Z</time>
      </trkpt>
      <trkpt lat="43.57735" lon="3.81376">
        <ele>20</ele>
        <time>2020-10-10T09:23:03.000Z</time>
      </trkpt>
      <trkpt lat="43.5774" lon="3.81376">
        <ele>20</ele>
        <time>2020-10-10T09:23:04.000Z</time>
      </trkpt>
      <trkpt lat="43.57744" lon="3.81376">
        <ele>20</ele>
        <time>2020-10-10T09:23:05.000Z</time>
      </trkpt>
      <trkpt lat="43.57748" lon="3.81376">
        <ele>20</ele>
        <time>2020-10-10T09:23:06.000Z</time>
      </trkpt>
      <trkpt lat="43.57752" lon="3.81376">
        <ele>20</ele>
        <time>2020-10-10T09:23:07.000Z</time>
      </trkpt>
      <trkpt lat="43.57757" lon="3.81376">
        <ele>20</ele>
        <time>2020-10-10T09:23:08.000Z</time>
      </trkpt>
      <trkpt lat="43.57761" lon="3.81375">
        <ele>20</ele>
        <time>2020-10-10T09:23:09.000Z</time>
      </trkpt>
      <trkpt lat="43.57765" lon="3.81375">
        <ele>20</ele>
        <time>2020-10-10T09:23:10.000Z</time>
      </trkpt>
      <trkpt lat="43.57769" lon="3.81375">
        <ele>20</ele>
        <time>2020-10-10T09:23:11.000Z</time>
      </trkpt>
      <trkpt lat="43.57774" lon="3.81375">
        <ele>20</ele>
        <time>2020-10-10T09:23:12.000Z</time>
      </trkpt>
      <trkpt lat="43.57778" lon="3.81374">
        <ele>20</ele>
        <time>2020-10-10T09:23:13.000Z</time>
      </trkpt>
      <trkpt lat="43.57783" lon="3.81373">
        <ele>20</ele>
        <time>2020-10-10T09:23:14.000Z</time>
      </trkpt>
      <trkpt lat="43.57787" lon="3.81373">
        <ele>20</ele>
        <time>2020-10-10T09:23:15.000Z</time>
      </trkpt>
      <trkpt lat="43.57792" lon="3.81373">
        <ele>20</ele>
        <time>2020-10-10T09:23:16.000Z</time>
      </trkpt>
      <trkpt lat="43.57796" lon="3.81374">
        <ele>20</ele>
        <time>2020-10-10T09:23:17.000Z</time>
      </trkpt>
      <trkpt lat="43.57801" lon="3.81374">
        <ele>20</ele>
        <time>2020-10-10T09:23:18.000Z</time>
      </trkpt>
      <trkpt lat="43.57805" lon="3.81375">
        <ele>20</ele>
        <time>2020-10-10T09:23:19.000Z</time>
      </trkpt>
      <trkpt lat="43.57809" lon="3.81376">
        <ele>20</ele>
        <time>2020-10-10T09:23:20.000Z</time>
      </trkpt>
      <trkpt lat="43.57813" lon="3.81376">
        <ele>20</ele>
        <time>2020-10-10T09:23:21.000Z</time>
      </trkpt>
      <trkpt lat="43.57817" lon="3.81378">
        <ele>20</ele>
        <time>2020-10-10T09:23:22.000Z</time>
      </trkpt>
      <trkpt lat="43.57821" lon="3.8138">
        <ele>20</ele>
        <time>2020-10-10T09:23:23.000Z</time>
      </trkpt>
      <trkpt lat="43.57825" lon="3.81383">
        <ele>20</ele>
        <time>2020-10-10T09:23:24.000Z</time>
      </trkpt>
      <trkpt lat="43.57828" lon="3.81387">
        <ele>20</ele>
        <time>2020-10-10T09:23:25.000Z</time>
      </trkpt>
      <trkpt lat="43.57832" lon="3.81391">
        <ele>20</ele>
        <time>2020-10-10T09:23:26.000Z</time>
      </trkpt>
      <trkpt lat="43.57834" lon="3.81394">
        <ele>20</ele>
        <time>2020-10-10T09:23:27.000Z</time>
      </trkpt>
      <trkpt lat="43.57837" lon="3.81398">
        <ele>20</ele>
        <time>2020-10-10T09:23:28.000Z</time>
      </trkpt>
      <trkpt lat="43.57839" lon="3.81402">
        <ele>20</ele>
        <time>2020-10-10T09:23:29.000Z</time>
      </trkpt>
      <trkpt lat="43.57841" lon="3.81406">
        <ele>20</ele>
        <time>2020-10-10T09:23:30.000Z</time>
      </trkpt>
      <trkpt lat="43.57844" lon="3.81409">
        <ele>20</ele>
        <time>2020-10-10T09:23:31.000Z</time>
      </trkpt>
      <trkpt lat="43.57846" lon="3.81412">
        <ele>20</ele>
        <time>2020-10-10T09:23:32.000Z</time>
      </trkpt>
      <trkpt lat="43.57849" lon="3.81416">
        <ele>20</ele>
        <time>2020-10-10T09:23:33.000Z</time>
      </trkpt>
      <trkpt lat="43.57851" lon="3.81419">
        <ele>20</ele>
        <time>2020-10-10T09:23:34.000Z</time>
      </trkpt>
      <trkpt lat="43.57854" lon="3.81422">
        <ele>20</ele>
        <time>2020-10-10T09:23:35.000Z</time>
      </trkpt>
      <trkpt lat="43.57856" lon="3.81425">
        <ele>20</ele>
        <time>2020-10-10T09:23:36.000Z</time>
      </trkpt>
      <trkpt lat="43.57858" lon="3.81428">
        <ele>20</ele>
        <time>2020-10-10T09:23:37.000Z</time>
      </trkpt>
      <trkpt lat="43.57861" lon="3.81431">
        <ele>19.96899968</ele>
        <time>2020-10-10T09:23:38.000Z</time>
      </trkpt>
      <trkpt lat="43.57864" lon="3.81433">
        <ele>19.86899968</ele>
        <time>2020-10-10T09:23:39.000Z</time>
      </trkpt>
      <trkpt lat="43.57867" lon="3.81435">
        <ele>19.76899968</ele>
        <time>2020-10-10T09:23:40.000Z</time>
      </trkpt>
      <trkpt lat="43.5787" lon="3.81437">
        <ele>19.66899968</ele>
        <time>2020-10-10T09:23:41.000Z</time>
      </trkpt>
      <trkpt lat="43.57874" lon="3.81439">
        <ele>19.56899968</ele>
        <time>2020-10-10T09:23:42.000Z</time>
      </trkpt>
      <trkpt lat="43.57878" lon="3.81441">
        <ele>19.46899968</ele>
        <time>2020-10-10T09:23:43.000Z</time>
      </trkpt>
      <trkpt lat="43.57881" lon="3.81442">
        <ele>19.36899968</ele>
        <time>2020-10-10T09:23:44.000Z</time>
      </trkpt>
      <trkpt lat="43.57885" lon="3.81442">
        <ele>19.26899968</ele>
        <time>2020-10-10T09:23:45.000Z</time>
      </trkpt>
      <trkpt lat="43.57888" lon="3.81442">
        <ele>19.16899968</ele>
        <time>2020-10-10T09:23:46.000Z</time>
      </trkpt>
      <trkpt lat="43.57891" lon="3.81442">
        <ele>19.06899968</ele>
        <time>2020-10-10T09:23:47.000Z</time>
      </trkpt>
      <trkpt lat="43.57894" lon="3.81442">
        <ele>19.031031341411</ele>
        <time>2020-10-10T09:23:48.000Z</time>
      </trkpt>
      <trkpt lat="43.57897" lon="3.81442">
        <ele>19.131131409447</ele>
        <time>2020-10-10T09:23:49.000Z</time>
      </trkpt>
      <trkpt lat="43.579" lon="3.81442">
        <ele>19.231231477483</ele>
        <time>2020-10-10T09:23:50.000Z</time>
      </trkpt>
      <trkpt lat="43.57904" lon="3.81442">
        <ele>19.331331545519</ele>
        <time>2020-10-10T09:23:51.000Z</time>
      </trkpt>
      <trkpt lat="43.57907" lon="3.81443">
        <ele>19.431431613555</ele>
        <time>2020-10-10T09:23:52.000Z</time>
      </trkpt>
      <trkpt lat="43.5791" lon="3.81443">
        <ele>19.531531681591</ele>
        <time>2020-10-10T09:23:53.000Z</time>
      </trkpt>
      <trkpt lat="43.57914" lon="3.81443">
        <ele>19.631631749627</ele>
        <time>2020-10-10T09:23:54.000Z</time>
      </trkpt>
      <trkpt lat="43.57918" lon="3.81442">
        <ele>19.731731817664</ele>
        <time>2020-10-10T09:23:55.000Z</time>
      </trkpt>
      <trkpt lat="43.57921" lon="3.81442">
        <ele>19.8318318857</ele>
        <time>2020-10-10T09:23:56.000Z</time>
      </trkpt>
      <trkpt lat="43.57926" lon="3.81442">
        <ele>19.931931953735</ele>
        <time>2020-10-10T09:23:57.000Z</time>
      </trkpt>
      <trkpt lat="43.5793" lon="3.81442">
        <ele>20</ele>
        <time>2020-10-10T09:23:58.000Z</time>
      </trkpt>
      <trkpt lat="43.57934" lon="3.81442">
        <ele>20</ele>
        <time>2020-10-10T09:23:59.000Z</time>
      </trkpt>
      <trkpt lat="43.57938" lon="3.81442">
        <ele>20</ele>
        <time>2020-10-10T09:24:00.000Z</time>
      </trkpt>
      <trkpt lat="43.57942" lon="3.81442">
        <ele>20</ele>
        <time>2020-10-10T09:24:01.000Z</time>
      </trkpt>
      <trkpt lat="43.57946" lon="3.81443">
        <ele>20</ele>
        <time>2020-10-10T09:24:02.000Z</time>
      </trkpt>
      <trkpt lat="43.57949" lon="3.81444">
        <ele>20</ele>
        <time>2020-10-10T09:24:03.000Z</time>
      </trkpt>
      <trkpt lat="43.57953" lon="3.81444">
        <ele>20</ele>
        <time>2020-10-10T09:24:04.000Z</time>
      </trkpt>
      <trkpt lat="43.57956" lon="3.81445">
        <ele>20</ele>
        <time>2020-10-10T09:24:05.000Z</time>
      </trkpt>
      <trkpt lat="43.5796" lon="3.81446">
        <ele>20</ele>
        <time>2020-10-10T09:24:06.000Z</time>
      </trkpt>
      <trkpt lat="43.57963" lon="3.81447">
        <ele>20</ele>
        <time>2020-10-10T09:24:07.000Z</time>
      </trkpt>
      <trkpt lat="43.57966" lon="3.81448">
        <ele>20.029057814225</ele>
        <time>2020-10-10T09:24:08.000Z</time>
      </trkpt>
      <trkpt lat="43.5797" lon="3.81449">
        <ele>20.129258279284</ele>
        <time>2020-10-10T09:24:09.000Z</time>
      </trkpt>
      <trkpt lat="43.57972" lon="3.81449">
        <ele>20.229458744342</ele>
        <time>2020-10-10T09:24:10.000Z</time>
      </trkpt>
      <trkpt lat="43.57975" lon="3.8145">
        <ele>20.329659209401</ele>
        <time>2020-10-10T09:24:11.000Z</time>
      </trkpt>
      <trkpt lat="43.57978" lon="3.81451">
        <ele>20.429859674459</ele>
        <time>2020-10-10T09:24:12.000Z</time>
      </trkpt>
      <trkpt lat="43.5798" lon="3.81452">
        <ele>20.530060139517</ele>
        <time>2020-10-10T09:24:13.000Z</time>
      </trkpt>
      <trkpt lat="43.57983" lon="3.81453">
        <ele>20.630260604576</ele>
        <time>2020-10-10T09:24:14.000Z</time>
      </trkpt>
      <trkpt lat="43.57985" lon="3.81454">
        <ele>20.730461069634</ele>
        <time>2020-10-10T09:24:15.000Z</time>
      </trkpt>
      <trkpt lat="43.57987" lon="3.81455">
        <ele>20.830661534693</ele>
        <time>2020-10-10T09:24:16.000Z</time>
      </trkpt>
      <trkpt lat="43.5799" lon="3.81456">
        <ele>20.930861999751</ele>
        <time>2020-10-10T09:24:17.000Z</time>
      </trkpt>
      <trkpt lat="43.57993" lon="3.81456">
        <ele>21</ele>
        <time>2020-10-10T09:24:18.000Z</time>
      </trkpt>
      <trkpt lat="43.57996" lon="3.81457">
        <ele>21</ele>
        <time>2020-10-10T09:24:19.000Z</time>
      </trkpt>
      <trkpt lat="43.57998" lon="3.8146">
        <ele>21</ele>
        <time>2020-10-10T09:24:20.000Z</time>
      </trkpt>
      <trkpt lat="43.57999" lon="3.81463">
        <ele>21</ele>
        <time>2020-10-10T09:24:21.000Z</time>
      </trkpt>
      <trkpt lat="43.58001" lon="3.81466">
        <ele>21</ele>
        <time>2020-10-10T09:24:22.000Z</time>
      </trkpt>
      <trkpt lat="43.58003" lon="3.81469">
        <ele>21</ele>
        <time>2020-10-10T09:24:23.000Z</time>
      </trkpt>
      <trkpt lat="43.58005" lon="3.81471">
        <ele>21</ele>
        <time>2020-10-10T09:24:24.000Z</time>
      </trkpt>
      <trkpt lat="43.58007" lon="3.81473">
        <ele>21</ele>
        <time>2020-10-10T09:24:25.000Z</time>
      </trkpt>
      <trkpt lat="43.58009" lon="3.81476">
        <ele>21</ele>
        <time>2020-10-10T09:24:26.000Z</time>
      </trkpt>
      <trkpt lat="43.58011" lon="3.81477">
        <ele>21</ele>
        <time>2020-10-10T09:24:27.000Z</time>
      </trkpt>
      <trkpt lat="43.58013" lon="3.81479">
        <ele>21</ele>
        <time>2020-10-10T09:24:28.000Z</time>
      </trkpt>
      <trkpt lat="43.58016" lon="3.81481">
        <ele>21</ele>
        <time>2020-10-10T09:24:29.000Z</time>
      </trkpt>
      <trkpt lat="43.58018" lon="3.81483">
        <ele>21</ele>
        <time>2020-10-10T09:24:30.000Z</time>
      </trkpt>
      <trkpt lat="43.5802" lon="3.81484">
        <ele>21</ele>
        <time>2020-10-10T09:24:31.000Z</time>
      </trkpt>
      <trkpt lat="43.58023" lon="3.81485">
        <ele>21</ele>
        <time>2020-10-10T09:24:32.000Z</time>
      </trkpt>
      <trkpt lat="43.58027" lon="3.81486">
        <ele>21</ele>
        <time>2020-10-10T09:24:33.000Z</time>
      </trkpt>
      <trkpt lat="43.5803" lon="3.81487">
        <ele>21</ele>
        <time>2020-10-10T09:24:34.000Z</time>
      </trkpt>
      <trkpt lat="43.58034" lon="3.81488">
        <ele>21</ele>
        <time>2020-10-10T09:24:35.000Z</time>
      </trkpt>
      <trkpt lat="43.58038" lon="3.81488">
        <ele>21</ele>
        <time>2020-10-10T09:24:36.000Z</time>
      </trkpt>
      <trkpt lat="43.58043" lon="3.81489">
        <ele>21</ele>
        <time>2020-10-10T09:24:37.000Z</time>
      </trkpt>
      <trkpt lat="43.58048" lon="3.81489">
        <ele>21</ele>
        <time>2020-10-10T09:24:38.000Z</time>
      </trkpt>
      <trkpt lat="43.58053" lon="3.8149">
        <ele>21</ele>
        <time>2020-10-10T09:24:39.000Z</time>
      </trkpt>
      <trkpt lat="43.58058" lon="3.81492">
        <ele>21</ele>
        <time>2020-10-10T09:24:40.000Z</time>
      </trkpt>
      <trkpt lat="43.58064" lon="3.81492">
        <ele>21</ele>
        <time>2020-10-10T09:24:41.000Z</time>
      </trkpt>
      <trkpt lat="43.58069" lon="3.81493">
        <ele>21</ele>
        <time>2020-10-10T09:24:42.000Z</time>
      </trkpt>
      <trkpt lat="43.58074" lon="3.81494">
        <ele>21</ele>
        <time>2020-10-10T09:24:43.000Z</time>
      </trkpt>
      <trkpt lat="43.58079" lon="3.81494">
        <ele>21</ele>
        <time>2020-10-10T09:24:44.000Z</time>
      </trkpt>
      <trkpt lat="43.58084" lon="3.81495">
        <ele>21</ele>
        <time>2020-10-10T09:24:45.000Z</time>
      </trkpt>
      <trkpt lat="43.58088" lon="3.81495">
        <ele>21</ele>
        <time>2020-10-10T09:24:46.000Z</time>
      </trkpt>
      <trkpt lat="43.58093" lon="3.81496">
        <ele>21</ele>
        <time>2020-10-10T09:24:47.000Z</time>
      </trkpt>
      <trkpt lat="43.58097" lon="3.81497">
        <ele>20.96899968</ele>
        <time>2020-10-10T09:24:48.000Z</time>
      </trkpt>
      <trkpt lat="43.58101" lon="3.81497">
        <ele>20.86899968</ele>
        <time>2020-10-10T09:24:49.000Z</time>
      </trkpt>
      <trkpt lat="43.58104" lon="3.81499">
        <ele>20.76899968</ele>
        <time>2020-10-10T09:24:50.000Z</time>
      </trkpt>
      <trkpt lat="43.58107" lon="3.815">
        <ele>20.66899968</ele>
        <time>2020-10-10T09:24:51.000Z</time>
      </trkpt>
      <trkpt lat="43.58111" lon="3.815">
        <ele>20.56899968</ele>
        <time>2020-10-10T09:24:52.000Z</time>
      </trkpt>
      <trkpt lat="43.58114" lon="3.81499">
        <ele>20.46899968</ele>
        <time>2020-10-10T09:24:53.000Z</time>
      </trkpt>
      <trkpt lat="43.58118" lon="3.81498">
        <ele>20.36899968</ele>
        <time>2020-10-10T09:24:54.000Z</time>
      </trkpt>
      <trkpt lat="43.58122" lon="3.81498">
        <ele>20.26899968</ele>
        <time>2020-10-10T09:24:55.000Z</time>
      </trkpt>
      <trkpt lat="43.58126" lon="3.81498">
        <ele>20.16899968</ele>
        <time>2020-10-10T09:24:56.000Z</time>
      </trkpt>
      <trkpt lat="43.58129" lon="3.81499">
        <ele>20.06899968</ele>
        <time>2020-10-10T09:24:57.000Z</time>
      </trkpt>
      <trkpt lat="43.58132" lon="3.815">
        <ele>20</ele>
        <time>2020-10-10T09:24:58.000Z</time>
      </trkpt>
      <trkpt lat="43.58136" lon="3.815">
        <ele>20</ele>
        <time>2020-10-10T09:24:59.000Z</time>
      </trkpt>
      <trkpt lat="43.58139" lon="3.815">
        <ele>20</ele>
        <time>2020-10-10T09:25:00.000Z</time>
      </trkpt>
      <trkpt lat="43.58142" lon="3.81498">
        <ele>20</ele>
        <time>2020-10-10T09:25:01.000Z</time>
      </trkpt>
      <trkpt lat="43.58144" lon="3.81495">
        <ele>20</ele>
        <time>2020-10-10T09:25:02.000Z</time>
      </trkpt>
      <trkpt lat="43.58146" lon="3.81491">
        <ele>20</ele>
        <time>2020-10-10T09:25:03.000Z</time>
      </trkpt>
      <trkpt lat="43.58148" lon="3.81486">
        <ele>20</ele>
        <time>2020-10-10T09:25:04.000Z</time>
      </trkpt>
      <trkpt lat="43.58151" lon="3.81482">
        <ele>20</ele>
        <time>2020-10-10T09:25:05.000Z</time>
      </trkpt>
      <trkpt lat="43.58153" lon="3.81478">
        <ele>20</ele>
        <time>2020-10-10T09:25:06.000Z</time>
      </trkpt>
      <trkpt lat="43.58155" lon="3.81473">
        <ele>20</ele>
        <time>2020-10-10T09:25:07.000Z</time>
      </trkpt>
      <trkpt lat="43.58158" lon="3.81469">
        <ele>20.011201947893</ele>
        <time>2020-10-10T09:25:08.000Z</time>
      </trkpt>
      <trkpt lat="43.5816" lon="3.81464">
        <ele>20.113034875415</ele>
        <time>2020-10-10T09:25:09.000Z</time>
      </trkpt>
      <trkpt lat="43.58163" lon="3.81459">
        <ele>20.214867802938</ele>
        <time>2020-10-10T09:25:10.000Z</time>
      </trkpt>
      <trkpt lat="43.58165" lon="3.81453">
        <ele>20.31670073046</ele>
        <time>2020-10-10T09:25:11.000Z</time>
      </trkpt>
      <trkpt lat="43.58167" lon="3.81448">
        <ele>20.418533657982</ele>
        <time>2020-10-10T09:25:12.000Z</time>
      </trkpt>
      <trkpt lat="43.58169" lon="3.81443">
        <ele>20.520366585505</ele>
        <time>2020-10-10T09:25:13.000Z</time>
      </trkpt>
      <trkpt lat="43.58172" lon="3.81438">
        <ele>20.622199513027</ele>
        <time>2020-10-10T09:25:14.000Z</time>
      </trkpt>
      <trkpt lat="43.58174" lon="3.81433">
        <ele>20.724032440549</ele>
        <time>2020-10-10T09:25:15.000Z</time>
      </trkpt>
      <trkpt lat="43.58176" lon="3.81428">
        <ele>20.825865368072</ele>
        <time>2020-10-10T09:25:16.000Z</time>
      </trkpt>
      <trkpt lat="43.58177" lon="3.81424">
        <ele>20.927698295594</ele>
        <time>2020-10-10T09:25:17.000Z</time>
      </trkpt>
      <trkpt lat="43.58179" lon="3.81418">
        <ele>21.058115628451</ele>
        <time>2020-10-10T09:25:18.000Z</time>
      </trkpt>
      <trkpt lat="43.5818" lon="3.81412">
        <ele>21.258516558568</ele>
        <time>2020-10-10T09:25:19.000Z</time>
      </trkpt>
      <trkpt lat="43.58181" lon="3.81407">
        <ele>21.458917488685</ele>
        <time>2020-10-10T09:25:20.000Z</time>
      </trkpt>
      <trkpt lat="43.58182" lon="3.81402">
        <ele>21.659318418801</ele>
        <time>2020-10-10T09:25:21.000Z</time>
      </trkpt>
      <trkpt lat="43.58183" lon="3.81397">
        <ele>21.859719348918</ele>
        <time>2020-10-10T09:25:22.000Z</time>
      </trkpt>
      <trkpt lat="43.58184" lon="3.81393">
        <ele>22.060120279035</ele>
        <time>2020-10-10T09:25:23.000Z</time>
      </trkpt>
      <trkpt lat="43.58185" lon="3.81389">
        <ele>22.260521209152</ele>
        <time>2020-10-10T09:25:24.000Z</time>
      </trkpt>
      <trkpt lat="43.58186" lon="3.81385">
        <ele>22.460922139269</ele>
        <time>2020-10-10T09:25:25.000Z</time>
      </trkpt>
      <trkpt lat="43.58188" lon="3.81381">
        <ele>22.661323069385</ele>
        <time>2020-10-10T09:25:26.000Z</time>
      </trkpt>
      <trkpt lat="43.58189" lon="3.81377">
        <ele>22.861723999502</ele>
        <time>2020-10-10T09:25:27.000Z</time>
      </trkpt>
      <trkpt lat="43.5819" lon="3.81372">
        <ele>23</ele>
        <time>2020-10-10T09:25:28.000Z</time>
      </trkpt>
      <trkpt lat="43.58191" lon="3.81369">
        <ele>23</ele>
        <time>2020-10-10T09:25:29.000Z</time>
      </trkpt>
      <trkpt lat="43.58192" lon="3.81365">
        <ele>23</ele>
        <time>2020-10-10T09:25:30.000Z</time>
      </trkpt>
      <trkpt lat="43.58194" lon="3.81361">
        <ele>23</ele>
        <time>2020-10-10T09:25:31.000Z</time>
      </trkpt>
      <trkpt lat="43.58197" lon="3.81358">
        <ele>23</ele>
        <time>2020-10-10T09:25:32.000Z</time>
      </trkpt>
      <trkpt lat="43.58199" lon="3.81355">
        <ele>23</ele>
        <time>2020-10-10T09:25:33.000Z</time>
      </trkpt>
      <trkpt lat="43.58202" lon="3.81354">
        <ele>23</ele>
        <time>2020-10-10T09:25:34.000Z</time>
      </trkpt>
      <trkpt lat="43.58204" lon="3.81354">
        <ele>23</ele>
        <time>2020-10-10T09:25:35.000Z</time>
      </trkpt>
      <trkpt lat="43.58207" lon="3.81356">
        <ele>23</ele>
        <time>2020-10-10T09:25:36.000Z</time>
      </trkpt>
      <trkpt lat="43.58208" lon="3.81358">
        <ele>23</ele>
        <time>2020-10-10T09:25:37.000Z</time>
      </trkpt>
      <trkpt lat="43.58209" lon="3.81361">
        <ele>23.003089926891</ele>
        <time>2020-10-10T09:25:38.000Z</time>
      </trkpt>
      <trkpt lat="43.58211" lon="3.81363">
        <ele>23.106076504692</ele>
        <time>2020-10-10T09:25:39.000Z</time>
      </trkpt>
      <trkpt lat="43.58213" lon="3.81364">
        <ele>23.209063082492</ele>
        <time>2020-10-10T09:25:40.000Z</time>
      </trkpt>
      <trkpt lat="43.58215" lon="3.81365">
        <ele>23.312049660293</ele>
        <time>2020-10-10T09:25:41.000Z</time>
      </trkpt>
      <trkpt lat="43.58218" lon="3.81365">
        <ele>23.415036238093</ele>
        <time>2020-10-10T09:25:42.000Z</time>
      </trkpt>
      <trkpt lat="43.58221" lon="3.81366">
        <ele>23.518022815894</ele>
        <time>2020-10-10T09:25:43.000Z</time>
      </trkpt>
      <trkpt lat="43.58224" lon="3.81367">
        <ele>23.621009393694</ele>
        <time>2020-10-10T09:25:44.000Z</time>
      </trkpt>
      <trkpt lat="43.58228" lon="3.81367">
        <ele>23.723995971495</ele>
        <time>2020-10-10T09:25:45.000Z</time>
      </trkpt>
      <trkpt lat="43.58231" lon="3.81368">
        <ele>23.826982549295</ele>
        <time>2020-10-10T09:25:46.000Z</time>
      </trkpt>
      <trkpt lat="43.58235" lon="3.81369">
        <ele>23.929969127096</ele>
        <time>2020-10-10T09:25:47.000Z</time>
      </trkpt>
      <trkpt lat="43.58238" lon="3.81369">
        <ele>24</ele>
        <time>2020-10-10T09:25:48.000Z</time>
      </trkpt>
      <trkpt lat="43.58241" lon="3.81369">
        <ele>24</ele>
        <time>2020-10-10T09:25:49.000Z</time>
      </trkpt>
      <trkpt lat="43.58244" lon="3.81369">
        <ele>24</ele>
        <time>2020-10-10T09:25:50.000Z</time>
      </trkpt>
      <trkpt lat="43.58246" lon="3.81369">
        <ele>24</ele>
        <time>2020-10-10T09:25:51.000Z</time>
      </trkpt>
      <trkpt lat="43.58248" lon="3.8137">
        <ele>24</ele>
        <time>2020-10-10T09:25:52.000Z</time>
      </trkpt>
      <trkpt lat="43.58251" lon="3.8137">
        <ele>24</ele>
        <time>2020-10-10T09:25:53.000Z</time>
      </trkpt>
      <trkpt lat="43.58253" lon="3.81371">
        <ele>24</ele>
        <time>2020-10-10T09:25:54.000Z</time>
      </trkpt>
      <trkpt lat="43.58255" lon="3.81371">
        <ele>24</ele>
        <time>2020-10-10T09:25:55.000Z</time>
      </trkpt>
      <trkpt lat="43.58258" lon="3.81372">
        <ele>24</ele>
        <time>2020-10-10T09:25:56.000Z</time>
      </trkpt>
      <trkpt lat="43.58259" lon="3.81375">
        <ele>23.96899968</ele>
        <time>2020-10-10T09:25:58.000Z</time>
      </trkpt>
      <trkpt lat="43.58257" lon="3.81376">
        <ele>23.86899968</ele>
        <time>2020-10-10T09:25:59.000Z</time>
      </trkpt>
      <trkpt lat="43.58254" lon="3.81374">
        <ele>23.66899968</ele>
        <time>2020-10-10T09:26:01.000Z</time>
      </trkpt>
      <trkpt lat="43.58251" lon="3.81371">
        <ele>23.46899968</ele>
        <time>2020-10-10T09:26:03.000Z</time>
      </trkpt>
      <trkpt lat="43.58251" lon="3.81368">
        <ele>23.36899968</ele>
        <time>2020-10-10T09:26:04.000Z</time>
      </trkpt>
      <trkpt lat="43.58253" lon="3.81365">
        <ele>23.26899968</ele>
        <time>2020-10-10T09:26:05.000Z</time>
      </trkpt>
      <trkpt lat="43.58256" lon="3.81364">
        <ele>23.16899968</ele>
        <time>2020-10-10T09:26:06.000Z</time>
      </trkpt>
      <trkpt lat="43.58259" lon="3.81365">
        <ele>23.06899968</ele>
        <time>2020-10-10T09:26:07.000Z</time>
      </trkpt>
      <trkpt lat="43.58263" lon="3.81367">
        <ele>23</ele>
        <time>2020-10-10T09:26:08.000Z</time>
      </trkpt>
      <trkpt lat="43.58267" lon="3.81367">
        <ele>23</ele>
        <time>2020-10-10T09:26:09.000Z</time>
      </trkpt>
      <trkpt lat="43.58271" lon="3.81367">
        <ele>23</ele>
        <time>2020-10-10T09:26:10.000Z</time>
      </trkpt>
      <trkpt lat="43.58275" lon="3.81367">
        <ele>23</ele>
        <time>2020-10-10T09:26:11.000Z</time>
      </trkpt>
      <trkpt lat="43.5828" lon="3.81366">
        <ele>23</ele>
        <time>2020-10-10T09:26:12.000Z</time>
      </trkpt>
      <trkpt lat="43.58283" lon="3.81364">
        <ele>23</ele>
        <time>2020-10-10T09:26:13.000Z</time>
      </trkpt>
      <trkpt lat="43.58287" lon="3.81361">
        <ele>23</ele>
        <time>2020-10-10T09:26:14.000Z</time>
      </trkpt>
      <trkpt lat="43.58289" lon="3.81356">
        <ele>23</ele>
        <time>2020-10-10T09:26:15.000Z</time>
      </trkpt>
      <trkpt lat="43.58291" lon="3.81351">
        <ele>23</ele>
        <time>2020-10-10T09:26:16.000Z</time>
      </trkpt>
      <trkpt lat="43.58293" lon="3.81346">
        <ele>23</ele>
        <time>2020-10-10T09:26:17.000Z</time>
      </trkpt>
      <trkpt lat="43.58294" lon="3.8134">
        <ele>23.031341831567</ele>
        <time>2020-10-10T09:26:18.000Z</time>
      </trkpt>
      <trkpt lat="43.58295" lon="3.81335">
        <ele>23.129285055212</ele>
        <time>2020-10-10T09:26:19.000Z</time>
      </trkpt>
      <trkpt lat="43.58296" lon="3.81329">
        <ele>23.227228278857</ele>
        <time>2020-10-10T09:26:20.000Z</time>
      </trkpt>
      <trkpt lat="43.58297" lon="3.81323">
        <ele>23.325171502502</ele>
        <time>2020-10-10T09:26:21.000Z</time>
      </trkpt>
      <trkpt lat="43.58298" lon="3.81318">
        <ele>23.423114726148</ele>
        <time>2020-10-10T09:26:22.000Z</time>
      </trkpt>
      <trkpt lat="43.58299" lon="3.81312">
        <ele>23.521057949793</ele>
        <time>2020-10-10T09:26:23.000Z</time>
      </trkpt>
      <trkpt lat="43.58299" lon="3.81306">
        <ele>23.619001173438</ele>
        <time>2020-10-10T09:26:24.000Z</time>
      </trkpt>
      <trkpt lat="43.583" lon="3.81301">
        <ele>23.716944397083</ele>
        <time>2020-10-10T09:26:25.000Z</time>
      </trkpt>
      <trkpt lat="43.583" lon="3.81295">
        <ele>23.814887620729</ele>
        <time>2020-10-10T09:26:26.000Z</time>
      </trkpt>
      <trkpt lat="43.58301" lon="3.81289">
        <ele>23.912830844374</ele>
        <time>2020-10-10T09:26:27.000Z</time>
      </trkpt>
      <trkpt lat="43.58302" lon="3.81284">
        <ele>24</ele>
        <time>2020-10-10T09:26:28.000Z</time>
      </trkpt>
      <trkpt lat="43.58303" lon="3.81278">
        <ele>24</ele>
        <time>2020-10-10T09:26:29.000Z</time>
      </trkpt>
      <trkpt lat="43.58304" lon="3.81272">
        <ele>24</ele>
        <time>2020-10-10T09:26:30.000Z</time>
      </trkpt>
      <trkpt lat="43.58305" lon="3.81267">
        <ele>24</ele>
        <time>2020-10-10T09:26:31.000Z</time>
      </trkpt>
      <trkpt lat="43.58306" lon="3.81262">
        <ele>24</ele>
        <time>2020-10-10T09:26:32.000Z</time>
      </trkpt>
      <trkpt lat="43.58307" lon="3.81256">
        <ele>24</ele>
        <time>2020-10-10T09:26:33.000Z</time>
      </trkpt>
      <trkpt lat="43.58308" lon="3.81251">
        <ele>24</ele>
        <time>2020-10-10T09:26:34.000Z</time>
      </trkpt>
      <trkpt lat="43.58309" lon="3.81245">
        <ele>24</ele>
        <time>2020-10-10T09:26:35.000Z</time>
      </trkpt>
      <trkpt lat="43.5831" lon="3.8124">
        <ele>24</ele>
        <time>2020-10-10T09:26:36.000Z</time>
      </trkpt>
      <trkpt lat="43.58311" lon="3.81234">
        <ele>24</ele>
        <time>2020-10-10T09:26:37.000Z</time>
      </trkpt>
      <trkpt lat="43.58312" lon="3.81228">
        <ele>24</ele>
        <time>2020-10-10T09:26:38.000Z</time>
      </trkpt>
      <trkpt lat="43.58313" lon="3.81223">
        <ele>24</ele>
        <time>2020-10-10T09:26:39.000Z</time>
      </trkpt>
      <trkpt lat="43.58314" lon="3.81217">
        <ele>24</ele>
        <time>2020-10-10T09:26:40.000Z</time>
      </trkpt>
      <trkpt lat="43.58314" lon="3.81211">
        <ele>24</ele>
        <time>2020-10-10T09:26:41.000Z</time>
      </trkpt>
      <trkpt lat="43.58315" lon="3.81206">
        <ele>24</ele>
        <time>2020-10-10T09:26:42.000Z</time>
      </trkpt>
      <trkpt lat="43.58316" lon="3.81201">
        <ele>24</ele>
        <time>2020-10-10T09:26:43.000Z</time>
      </trkpt>
      <trkpt lat="43.58318" lon="3.81197">
        <ele>24</ele>
        <time>2020-10-10T09:26:44.000Z</time>
      </trkpt>
      <trkpt lat="43.5832" lon="3.81193">
        <ele>24</ele>
        <time>2020-10-10T09:26:45.000Z</time>
      </trkpt>
      <trkpt lat="43.58322" lon="3.8119">
        <ele>24</ele>
        <time>2020-10-10T09:26:46.000Z</time>
      </trkpt>
      <trkpt lat="43.58326" lon="3.81188">
        <ele>24</ele>
        <time>2020-10-10T09:26:47.000Z</time>
      </trkpt>
      <trkpt lat="43.58329" lon="3.81187">
        <ele>24.031031341411</ele>
        <time>2020-10-10T09:26:48.000Z</time>
      </trkpt>
      <trkpt lat="43.58333" lon="3.81188">
        <ele>24.131131409447</ele>
        <time>2020-10-10T09:26:49.000Z</time>
      </trkpt>
      <trkpt lat="43.58337" lon="3.81189">
        <ele>24.231231477483</ele>
        <time>2020-10-10T09:26:50.000Z</time>
      </trkpt>
      <trkpt lat="43.5834" lon="3.8119">
        <ele>24.331331545519</ele>
        <time>2020-10-10T09:26:51.000Z</time>
      </trkpt>
      <trkpt lat="43.58344" lon="3.81191">
        <ele>24.431431613555</ele>
        <time>2020-10-10T09:26:52.000Z</time>
      </trkpt>
      <trkpt lat="43.58348" lon="3.81192">
        <ele>24.531531681591</ele>
        <time>2020-10-10T09:26:53.000Z</time>
      </trkpt>
      <trkpt lat="43.58352" lon="3.81193">
        <ele>24.631631749627</ele>
        <time>2020-10-10T09:26:54.000Z</time>
      </trkpt>
      <trkpt lat="43.58356" lon="3.81194">
        <ele>24.731731817664</ele>
        <time>2020-10-10T09:26:55.000Z</time>
      </trkpt>
      <trkpt lat="43.5836" lon="3.81194">
        <ele>24.8318318857</ele>
        <time>2020-10-10T09:26:56.000Z</time>
      </trkpt>
      <trkpt lat="43.58364" lon="3.81195">
        <ele>24.931931953735</ele>
        <time>2020-10-10T09:26:57.000Z</time>
      </trkpt>
      <trkpt lat="43.58367" lon="3.81197">
        <ele>25</ele>
        <time>2020-10-10T09:26:58.000Z</time>
      </trkpt>
      <trkpt lat="43.58371" lon="3.81199">
        <ele>25</ele>
        <time>2020-10-10T09:26:59.000Z</time>
      </trkpt>
      <trkpt lat="43.58375" lon="3.812">
        <ele>25</ele>
        <time>2020-10-10T09:27:00.000Z</time>
      </trkpt>
      <trkpt lat="43.5838" lon="3.81201">
        <ele>25</ele>
        <time>2020-10-10T09:27:01.000Z</time>
      </trkpt>
      <trkpt lat="43.58384" lon="3.81202">
        <ele>25</ele>
        <time>2020-10-10T09:27:02.000Z</time>
      </trkpt>
      <trkpt lat="43.58388" lon="3.81204">
        <ele>25</ele>
        <time>2020-10-10T09:27:03.000Z</time>
      </trkpt>
      <trkpt lat="43.58392" lon="3.81204">
        <ele>25</ele>
        <time>2020-10-10T09:27:04.000Z</time>
      </trkpt>
      <trkpt lat="43.58396" lon="3.81203">
        <ele>25</ele>
        <time>2020-10-10T09:27:05.000Z</time>
      </trkpt>
      <trkpt lat="43.584" lon="3.81201">
        <ele>25</ele>
        <time>2020-10-10T09:27:06.000Z</time>
      </trkpt>
      <trkpt lat="43.58403" lon="3.81197">
        <ele>25</ele>
        <time>2020-10-10T09:27:07.000Z</time>
      </trkpt>
      <trkpt lat="43.58405" lon="3.81192">
        <ele>25</ele>
        <time>2020-10-10T09:27:08.000Z</time>
      </trkpt>
      <trkpt lat="43.58406" lon="3.81187">
        <ele>25</ele>
        <time>2020-10-10T09:27:09.000Z</time>
      </trkpt>
      <trkpt lat="43.58407" lon="3.81181">
        <ele>25</ele>
        <time>2020-10-10T09:27:10.000Z</time>
      </trkpt>
      <trkpt lat="43.58408" lon="3.81175">
        <ele>25</ele>
        <time>2020-10-10T09:27:11.000Z</time>
      </trkpt>
      <trkpt lat="43.5841" lon="3.81169">
        <ele>25</ele>
        <time>2020-10-10T09:27:12.000Z</time>
      </trkpt>
      <trkpt lat="43.58413" lon="3.81165">
        <ele>25</ele>
        <time>2020-10-10T09:27:13.000Z</time>
      </trkpt>
      <trkpt lat="43.58416" lon="3.8116">
        <ele>25</ele>
        <time>2020-10-10T09:27:14.000Z</time>
      </trkpt>
      <trkpt lat="43.58418" lon="3.81156">
        <ele>25</ele>
        <time>2020-10-10T09:27:15.000Z</time>
      </trkpt>
      <trkpt lat="43.58419" lon="3.8115">
        <ele>25</ele>
        <time>2020-10-10T09:27:16.000Z</time>
      </trkpt>
      <trkpt lat="43.58419" lon="3.81145">
        <ele>25</ele>
        <time>2020-10-10T09:27:17.000Z</time>
      </trkpt>
      <trkpt lat="43.58419" lon="3.81139">
        <ele>25.003086748971</ele>
        <time>2020-10-10T09:27:18.000Z</time>
      </trkpt>
      <trkpt lat="43.58419" lon="3.81134">
        <ele>25.105967407407</ele>
        <time>2020-10-10T09:27:19.000Z</time>
      </trkpt>
      <trkpt lat="43.58419" lon="3.81128">
        <ele>25.208848065844</ele>
        <time>2020-10-10T09:27:20.000Z</time>
      </trkpt>
      <trkpt lat="43.5842" lon="3.81123">
        <ele>25.31172872428</ele>
        <time>2020-10-10T09:27:21.000Z</time>
      </trkpt>
      <trkpt lat="43.5842" lon="3.81118">
        <ele>25.414609382716</ele>
        <time>2020-10-10T09:27:22.000Z</time>
      </trkpt>
      <trkpt lat="43.58419" lon="3.81112">
        <ele>25.517490041152</ele>
        <time>2020-10-10T09:27:23.000Z</time>
      </trkpt>
      <trkpt lat="43.58419" lon="3.81106">
        <ele>25.620370699588</ele>
        <time>2020-10-10T09:27:24.000Z</time>
      </trkpt>
      <trkpt lat="43.58419" lon="3.81101">
        <ele>25.723251358025</ele>
        <time>2020-10-10T09:27:25.000Z</time>
      </trkpt>
      <trkpt lat="43.58419" lon="3.81095">
        <ele>25.826132016461</ele>
        <time>2020-10-10T09:27:26.000Z</time>
      </trkpt>
      <trkpt lat="43.5842" lon="3.8109">
        <ele>25.929012674897</ele>
        <time>2020-10-10T09:27:27.000Z</time>
      </trkpt>
      <trkpt lat="43.58421" lon="3.81084">
        <ele>26.030938423353</ele>
        <time>2020-10-10T09:27:28.000Z</time>
      </trkpt>
      <trkpt lat="43.58422" lon="3.81079">
        <ele>26.13073875881</ele>
        <time>2020-10-10T09:27:29.000Z</time>
      </trkpt>
      <trkpt lat="43.58423" lon="3.81074">
        <ele>26.230539094266</ele>
        <time>2020-10-10T09:27:30.000Z</time>
      </trkpt>
      <trkpt lat="43.58424" lon="3.81069">
        <ele>26.330339429723</ele>
        <time>2020-10-10T09:27:31.000Z</time>
      </trkpt>
      <trkpt lat="43.58425" lon="3.81064">
        <ele>26.43013976518</ele>
        <time>2020-10-10T09:27:32.000Z</time>
      </trkpt>
      <trkpt lat="43.58426" lon="3.81059">
        <ele>26.529940100637</ele>
        <time>2020-10-10T09:27:33.000Z</time>
      </trkpt>
      <trkpt lat="43.58426" lon="3.81055">
        <ele>26.629740436094</ele>
        <time>2020-10-10T09:27:34.000Z</time>
      </trkpt>
      <trkpt lat="43.58427" lon="3.81051">
        <ele>26.729540771551</ele>
        <time>2020-10-10T09:27:35.000Z</time>
      </trkpt>
      <trkpt lat="43.58428" lon="3.81047">
        <ele>26.829341107008</ele>
        <time>2020-10-10T09:27:36.000Z</time>
      </trkpt>
      <trkpt lat="43.58428" lon="3.81044">
        <ele>26.929141442464</ele>
        <time>2020-10-10T09:27:37.000Z</time>
      </trkpt>
      <trkpt lat="43.5843" lon="3.8104">
        <ele>27.028514935226</ele>
        <time>2020-10-10T09:27:38.000Z</time>
      </trkpt>
      <trkpt lat="43.5843" lon="3.81036">
        <ele>27.126843383078</ele>
        <time>2020-10-10T09:27:39.000Z</time>
      </trkpt>
      <trkpt lat="43.58431" lon="3.81032">
        <ele>27.225171830929</ele>
        <time>2020-10-10T09:27:40.000Z</time>
      </trkpt>
      <trkpt lat="43.58431" lon="3.81028">
        <ele>27.323500278781</ele>
        <time>2020-10-10T09:27:41.000Z</time>
      </trkpt>
      <trkpt lat="43.58432" lon="3.81025">
        <ele>27.421828726632</ele>
        <time>2020-10-10T09:27:42.000Z</time>
      </trkpt>
      <trkpt lat="43.58432" lon="3.81021">
        <ele>27.520157174484</ele>
        <time>2020-10-10T09:27:43.000Z</time>
      </trkpt>
      <trkpt lat="43.58432" lon="3.81018">
        <ele>27.618485622336</ele>
        <time>2020-10-10T09:27:44.000Z</time>
      </trkpt>
      <trkpt lat="43.58431" lon="3.81016">
        <ele>27.716814070187</ele>
        <time>2020-10-10T09:27:45.000Z</time>
      </trkpt>
      <trkpt lat="43.58431" lon="3.81012">
        <ele>27.913470965891</ele>
        <time>2020-10-10T09:27:47.000Z</time>
      </trkpt>
      <trkpt lat="43.58433" lon="3.81011">
        <ele>28</ele>
        <time>2020-10-10T09:27:48.000Z</time>
      </trkpt>
      <trkpt lat="43.58435" lon="3.81006">
        <ele>28</ele>
        <time>2020-10-10T09:27:50.000Z</time>
      </trkpt>
      <trkpt lat="43.58435" lon="3.81001">
        <ele>28</ele>
        <time>2020-10-10T09:27:52.000Z</time>
      </trkpt>
      <trkpt lat="43.58436" lon="3.80998">
        <ele>28</ele>
        <time>2020-10-10T09:27:53.000Z</time>
      </trkpt>
      <trkpt lat="43.58437" lon="3.80995">
        <ele>28</ele>
        <time>2020-10-10T09:27:54.000Z</time>
      </trkpt>
      <trkpt lat="43.58438" lon="3.80992">
        <ele>28</ele>
        <time>2020-10-10T09:27:55.000Z</time>
      </trkpt>
      <trkpt lat="43.58439" lon="3.80989">
        <ele>28</ele>
        <time>2020-10-10T09:27:56.000Z</time>
      </trkpt>
      <trkpt lat="43.5844" lon="3.80985">
        <ele>28</ele>
        <time>2020-10-10T09:27:57.000Z</time>
      </trkpt>
      <trkpt lat="43.58441" lon="3.80981">
        <ele>28.031098163218</ele>
        <time>2020-10-10T09:27:58.000Z</time>
      </trkpt>
      <trkpt lat="43.58442" lon="3.80977">
        <ele>28.128279923275</ele>
        <time>2020-10-10T09:27:59.000Z</time>
      </trkpt>
      <trkpt lat="43.58443" lon="3.80973">
        <ele>28.225461683331</ele>
        <time>2020-10-10T09:28:00.000Z</time>
      </trkpt>
      <trkpt lat="43.58444" lon="3.80969">
        <ele>28.322643443388</ele>
        <time>2020-10-10T09:28:01.000Z</time>
      </trkpt>
      <trkpt lat="43.58445" lon="3.80964">
        <ele>28.419825203444</ele>
        <time>2020-10-10T09:28:02.000Z</time>
      </trkpt>
      <trkpt lat="43.58445" lon="3.8096">
        <ele>28.517006963501</ele>
        <time>2020-10-10T09:28:03.000Z</time>
      </trkpt>
      <trkpt lat="43.58446" lon="3.80955">
        <ele>28.614188723557</ele>
        <time>2020-10-10T09:28:04.000Z</time>
      </trkpt>
      <trkpt lat="43.58447" lon="3.80951">
        <ele>28.711370483614</ele>
        <time>2020-10-10T09:28:05.000Z</time>
      </trkpt>
      <trkpt lat="43.58447" lon="3.80947">
        <ele>28.80855224367</ele>
        <time>2020-10-10T09:28:06.000Z</time>
      </trkpt>
      <trkpt lat="43.58447" lon="3.80944">
        <ele>28.905734003727</ele>
        <time>2020-10-10T09:28:07.000Z</time>
      </trkpt>
      <trkpt lat="43.58448" lon="3.80939">
        <ele>29.003089926891</ele>
        <time>2020-10-10T09:28:08.000Z</time>
      </trkpt>
      <trkpt lat="43.58449" lon="3.80935">
        <ele>29.106076504692</ele>
        <time>2020-10-10T09:28:09.000Z</time>
      </trkpt>
      <trkpt lat="43.5845" lon="3.80931">
        <ele>29.209063082492</ele>
        <time>2020-10-10T09:28:10.000Z</time>
      </trkpt>
      <trkpt lat="43.58451" lon="3.80927">
        <ele>29.312049660293</ele>
        <time>2020-10-10T09:28:11.000Z</time>
      </trkpt>
      <trkpt lat="43.58452" lon="3.80923">
        <ele>29.415036238093</ele>
        <time>2020-10-10T09:28:12.000Z</time>
      </trkpt>
      <trkpt lat="43.58453" lon="3.80919">
        <ele>29.518022815894</ele>
        <time>2020-10-10T09:28:13.000Z</time>
      </trkpt>
      <trkpt lat="43.58454" lon="3.80915">
        <ele>29.621009393694</ele>
        <time>2020-10-10T09:28:14.000Z</time>
      </trkpt>
      <trkpt lat="43.58456" lon="3.80911">
        <ele>29.723995971495</ele>
        <time>2020-10-10T09:28:15.000Z</time>
      </trkpt>
      <trkpt lat="43.58456" lon="3.80907">
        <ele>29.826982549295</ele>
        <time>2020-10-10T09:28:16.000Z</time>
      </trkpt>
      <trkpt lat="43.58457" lon="3.80903">
        <ele>29.929969127096</ele>
        <time>2020-10-10T09:28:17.000Z</time>
      </trkpt>
      <trkpt lat="43.58459" lon="3.80899">
        <ele>30</ele>
        <time>2020-10-10T09:28:18.000Z</time>
      </trkpt>
      <trkpt lat="43.58459" lon="3.80895">
        <ele>30</ele>
        <time>2020-10-10T09:28:19.000Z</time>
      </trkpt>
      <trkpt lat="43.5846" lon="3.8089">
        <ele>30</ele>
        <time>2020-10-10T09:28:20.000Z</time>
      </trkpt>
      <trkpt lat="43.58461" lon="3.80886">
        <ele>30</ele>
        <time>2020-10-10T09:28:21.000Z</time>
      </trkpt>
      <trkpt lat="43.58461" lon="3.80882">
        <ele>30</ele>
        <time>2020-10-10T09:28:22.000Z</time>
      </trkpt>
      <trkpt lat="43.58462" lon="3.80878">
        <ele>30</ele>
        <time>2020-10-10T09:28:23.000Z</time>
      </trkpt>
      <trkpt lat="43.58462" lon="3.80875">
        <ele>30</ele>
        <time>2020-10-10T09:28:24.000Z</time>
      </trkpt>
      <trkpt lat="43.58463" lon="3.80871">
        <ele>30</ele>
        <time>2020-10-10T09:28:25.000Z</time>
      </trkpt>
      <trkpt lat="43.58464" lon="3.80867">
        <ele>30</ele>
        <time>2020-10-10T09:28:26.000Z</time>
      </trkpt>
      <trkpt lat="43.58466" lon="3.80863">
        <ele>30</ele>
        <time>2020-10-10T09:28:27.000Z</time>
      </trkpt>
      <trkpt lat="43.58467" lon="3.8086">
        <ele>30.063936084375</ele>
        <time>2020-10-10T09:28:28.000Z</time>
      </trkpt>
      <trkpt lat="43.58468" lon="3.80856">
        <ele>30.263736348048</ele>
        <time>2020-10-10T09:28:29.000Z</time>
      </trkpt>
      <trkpt lat="43.58469" lon="3.80852">
        <ele>30.46353661172</ele>
        <time>2020-10-10T09:28:30.000Z</time>
      </trkpt>
      <trkpt lat="43.58469" lon="3.80849">
        <ele>30.663336875392</ele>
        <time>2020-10-10T09:28:31.000Z</time>
      </trkpt>
      <trkpt lat="43.58471" lon="3.80845">
        <ele>30.863137139065</ele>
        <time>2020-10-10T09:28:32.000Z</time>
      </trkpt>
      <trkpt lat="43.58472" lon="3.80842">
        <ele>31.062937402737</ele>
        <time>2020-10-10T09:28:33.000Z</time>
      </trkpt>
      <trkpt lat="43.58473" lon="3.80838">
        <ele>31.26273766641</ele>
        <time>2020-10-10T09:28:34.000Z</time>
      </trkpt>
      <trkpt lat="43.58473" lon="3.80835">
        <ele>31.462537930082</ele>
        <time>2020-10-10T09:28:35.000Z</time>
      </trkpt>
      <trkpt lat="43.58474" lon="3.80831">
        <ele>31.662338193755</ele>
        <time>2020-10-10T09:28:36.000Z</time>
      </trkpt>
      <trkpt lat="43.58475" lon="3.80828">
        <ele>31.862138457427</ele>
        <time>2020-10-10T09:28:37.000Z</time>
      </trkpt>
      <trkpt lat="43.58476" lon="3.80825">
        <ele>32.03018530705</ele>
        <time>2020-10-10T09:28:38.000Z</time>
      </trkpt>
      <trkpt lat="43.58477" lon="3.80822">
        <ele>32.127556260158</ele>
        <time>2020-10-10T09:28:39.000Z</time>
      </trkpt>
      <trkpt lat="43.58478" lon="3.80819">
        <ele>32.224927213265</ele>
        <time>2020-10-10T09:28:40.000Z</time>
      </trkpt>
      <trkpt lat="43.58479" lon="3.80815">
        <ele>32.322298166372</ele>
        <time>2020-10-10T09:28:41.000Z</time>
      </trkpt>
      <trkpt lat="43.5848" lon="3.80812">
        <ele>32.41966911948</ele>
        <time>2020-10-10T09:28:42.000Z</time>
      </trkpt>
      <trkpt lat="43.58481" lon="3.80809">
        <ele>32.517040072587</ele>
        <time>2020-10-10T09:28:43.000Z</time>
      </trkpt>
      <trkpt lat="43.58482" lon="3.80805">
        <ele>32.614411025695</ele>
        <time>2020-10-10T09:28:44.000Z</time>
      </trkpt>
      <trkpt lat="43.58483" lon="3.80802">
        <ele>32.711781978802</ele>
        <time>2020-10-10T09:28:45.000Z</time>
      </trkpt>
      <trkpt lat="43.58484" lon="3.808">
        <ele>32.80915293191</ele>
        <time>2020-10-10T09:28:46.000Z</time>
      </trkpt>
      <trkpt lat="43.58485" lon="3.80797">
        <ele>32.906523885017</ele>
        <time>2020-10-10T09:28:47.000Z</time>
      </trkpt>
      <trkpt lat="43.58485" lon="3.80793">
        <ele>33.004110998269</ele>
        <time>2020-10-10T09:28:48.000Z</time>
      </trkpt>
      <trkpt lat="43.58486" lon="3.8079">
        <ele>33.106885954988</ele>
        <time>2020-10-10T09:28:49.000Z</time>
      </trkpt>
      <trkpt lat="43.58487" lon="3.80786">
        <ele>33.209660911708</ele>
        <time>2020-10-10T09:28:50.000Z</time>
      </trkpt>
      <trkpt lat="43.58488" lon="3.80782">
        <ele>33.312435868427</ele>
        <time>2020-10-10T09:28:51.000Z</time>
      </trkpt>
      <trkpt lat="43.58489" lon="3.80779">
        <ele>33.415210825146</ele>
        <time>2020-10-10T09:28:52.000Z</time>
      </trkpt>
      <trkpt lat="43.5849" lon="3.80775">
        <ele>33.517985781866</ele>
        <time>2020-10-10T09:28:53.000Z</time>
      </trkpt>
      <trkpt lat="43.58491" lon="3.80772">
        <ele>33.620760738585</ele>
        <time>2020-10-10T09:28:54.000Z</time>
      </trkpt>
      <trkpt lat="43.58492" lon="3.80769">
        <ele>33.723535695305</ele>
        <time>2020-10-10T09:28:55.000Z</time>
      </trkpt>
      <trkpt lat="43.58492" lon="3.80765">
        <ele>33.826310652024</ele>
        <time>2020-10-10T09:28:56.000Z</time>
      </trkpt>
      <trkpt lat="43.58493" lon="3.80762">
        <ele>33.929085608743</ele>
        <time>2020-10-10T09:28:57.000Z</time>
      </trkpt>
      <trkpt lat="43.58495" lon="3.80759">
        <ele>34</ele>
        <time>2020-10-10T09:28:58.000Z</time>
      </trkpt>
      <trkpt lat="43.58497" lon="3.80758">
        <ele>34</ele>
        <time>2020-10-10T09:28:59.000Z</time>
      </trkpt>
      <trkpt lat="43.58499" lon="3.8076">
        <ele>34</ele>
        <time>2020-10-10T09:29:00.000Z</time>
      </trkpt>
      <trkpt lat="43.58501" lon="3.80761">
        <ele>34</ele>
        <time>2020-10-10T09:29:01.000Z</time>
      </trkpt>
      <trkpt lat="43.58503" lon="3.80764">
        <ele>34</ele>
        <time>2020-10-10T09:29:02.000Z</time>
      </trkpt>
      <trkpt lat="43.58505" lon="3.80766">
        <ele>34</ele>
        <time>2020-10-10T09:29:03.000Z</time>
      </trkpt>
      <trkpt lat="43.58506" lon="3.80768">
        <ele>34</ele>
        <time>2020-10-10T09:29:04.000Z</time>
      </trkpt>
      <trkpt lat="43.58509" lon="3.8077">
        <ele>34</ele>
        <time>2020-10-10T09:29:05.000Z</time>
      </trkpt>
      <trkpt lat="43.58512" lon="3.80773">
        <ele>34</ele>
        <time>2020-10-10T09:29:06.000Z</time>
      </trkpt>
      <trkpt lat="43.58515" lon="3.80777">
        <ele>34</ele>
        <time>2020-10-10T09:29:07.000Z</time>
      </trkpt>
      <trkpt lat="43.58518" lon="3.8078">
        <ele>33.968031957812</ele>
        <time>2020-10-10T09:29:08.000Z</time>
      </trkpt>
      <trkpt lat="43.58521" lon="3.80784">
        <ele>33.868131825976</ele>
        <time>2020-10-10T09:29:09.000Z</time>
      </trkpt>
      <trkpt lat="43.58524" lon="3.80788">
        <ele>33.76823169414</ele>
        <time>2020-10-10T09:29:10.000Z</time>
      </trkpt>
      <trkpt lat="43.58526" lon="3.80791">
        <ele>33.668331562304</ele>
        <time>2020-10-10T09:29:11.000Z</time>
      </trkpt>
      <trkpt lat="43.58529" lon="3.80794">
        <ele>33.568431430468</ele>
        <time>2020-10-10T09:29:12.000Z</time>
      </trkpt>
      <trkpt lat="43.58531" lon="3.80798">
        <ele>33.468531298631</ele>
        <time>2020-10-10T09:29:13.000Z</time>
      </trkpt>
      <trkpt lat="43.58534" lon="3.80801">
        <ele>33.368631166795</ele>
        <time>2020-10-10T09:29:14.000Z</time>
      </trkpt>
      <trkpt lat="43.58536" lon="3.80805">
        <ele>33.268731034959</ele>
        <time>2020-10-10T09:29:15.000Z</time>
      </trkpt>
      <trkpt lat="43.58539" lon="3.80808">
        <ele>33.168830903123</ele>
        <time>2020-10-10T09:29:16.000Z</time>
      </trkpt>
      <trkpt lat="43.58541" lon="3.80812">
        <ele>33.068930771287</ele>
        <time>2020-10-10T09:29:17.000Z</time>
      </trkpt>
      <trkpt lat="43.58543" lon="3.80814">
        <ele>33</ele>
        <time>2020-10-10T09:29:18.000Z</time>
      </trkpt>
      <trkpt lat="43.58545" lon="3.80817">
        <ele>33</ele>
        <time>2020-10-10T09:29:19.000Z</time>
      </trkpt>
      <trkpt lat="43.58547" lon="3.8082">
        <ele>33</ele>
        <time>2020-10-10T09:29:21.000Z</time>
      </trkpt>
      <trkpt lat="43.58549" lon="3.80821">
        <ele>33</ele>
        <time>2020-10-10T09:29:22.000Z</time>
      </trkpt>
      <trkpt lat="43.5855" lon="3.80823">
        <ele>33</ele>
        <time>2020-10-10T09:29:23.000Z</time>
      </trkpt>
      <trkpt lat="43.58552" lon="3.80825">
        <ele>33</ele>
        <time>2020-10-10T09:29:24.000Z</time>
      </trkpt>
      <trkpt lat="43.58553" lon="3.80827">
        <ele>33</ele>
        <time>2020-10-10T09:29:25.000Z</time>
      </trkpt>
      <trkpt lat="43.58554" lon="3.80829">
        <ele>33</ele>
        <time>2020-10-10T09:29:26.000Z</time>
      </trkpt>
      <trkpt lat="43.58556" lon="3.80831">
        <ele>33</ele>
        <time>2020-10-10T09:29:27.000Z</time>
      </trkpt>
      <trkpt lat="43.58557" lon="3.80833">
        <ele>33</ele>
        <time>2020-10-10T09:29:28.000Z</time>
      </trkpt>
      <trkpt lat="43.58559" lon="3.80837">
        <ele>33</ele>
        <time>2020-10-10T09:29:29.000Z</time>
      </trkpt>
      <trkpt lat="43.5856" lon="3.80841">
        <ele>33</ele>
        <time>2020-10-10T09:29:30.000Z</time>
      </trkpt>
      <trkpt lat="43.58563" lon="3.80844">
        <ele>33</ele>
        <time>2020-10-10T09:29:31.000Z</time>
      </trkpt>
      <trkpt lat="43.58565" lon="3.80846">
        <ele>33</ele>
        <time>2020-10-10T09:29:32.000Z</time>
      </trkpt>
      <trkpt lat="43.58567" lon="3.80849">
        <ele>33</ele>
        <time>2020-10-10T09:29:33.000Z</time>
      </trkpt>
      <trkpt lat="43.5857" lon="3.80852">
        <ele>33</ele>
        <time>2020-10-10T09:29:34.000Z</time>
      </trkpt>
      <trkpt lat="43.58571" lon="3.80854">
        <ele>33</ele>
        <time>2020-10-10T09:29:35.000Z</time>
      </trkpt>
      <trkpt lat="43.58573" lon="3.80856">
        <ele>33</ele>
        <time>2020-10-10T09:29:36.000Z</time>
      </trkpt>
      <trkpt lat="43.58575" lon="3.80858">
        <ele>33</ele>
        <time>2020-10-10T09:29:37.000Z</time>
      </trkpt>
      <trkpt lat="43.58577" lon="3.80861">
        <ele>32.968968658589</ele>
        <time>2020-10-10T09:29:38.000Z</time>
      </trkpt>
      <trkpt lat="43.58579" lon="3.80864">
        <ele>32.868868590553</ele>
        <time>2020-10-10T09:29:39.000Z</time>
      </trkpt>
      <trkpt lat="43.58581" lon="3.80866">
        <ele>32.768768522517</ele>
        <time>2020-10-10T09:29:40.000Z</time>
      </trkpt>
      <trkpt lat="43.58583" lon="3.80869">
        <ele>32.668668454481</ele>
        <time>2020-10-10T09:29:41.000Z</time>
      </trkpt>
      <trkpt lat="43.58585" lon="3.80872">
        <ele>32.568568386445</ele>
        <time>2020-10-10T09:29:42.000Z</time>
      </trkpt>
      <trkpt lat="43.58588" lon="3.80875">
        <ele>32.468468318408</ele>
        <time>2020-10-10T09:29:43.000Z</time>
      </trkpt>
      <trkpt lat="43.5859" lon="3.80878">
        <ele>32.368368250372</ele>
        <time>2020-10-10T09:29:44.000Z</time>
      </trkpt>
      <trkpt lat="43.58593" lon="3.80881">
        <ele>32.268268182336</ele>
        <time>2020-10-10T09:29:45.000Z</time>
      </trkpt>
      <trkpt lat="43.58596" lon="3.80884">
        <ele>32.1681681143</ele>
        <time>2020-10-10T09:29:46.000Z</time>
      </trkpt>
      <trkpt lat="43.58599" lon="3.80887">
        <ele>32.068068046265</ele>
        <time>2020-10-10T09:29:47.000Z</time>
      </trkpt>
      <trkpt lat="43.58602" lon="3.80891">
        <ele>31.968</ele>
        <time>2020-10-10T09:29:48.000Z</time>
      </trkpt>
      <trkpt lat="43.58604" lon="3.80894">
        <ele>31.868</ele>
        <time>2020-10-10T09:29:49.000Z</time>
      </trkpt>
      <trkpt lat="43.58607" lon="3.80898">
        <ele>31.768</ele>
        <time>2020-10-10T09:29:50.000Z</time>
      </trkpt>
      <trkpt lat="43.5861" lon="3.80901">
        <ele>31.668</ele>
        <time>2020-10-10T09:29:51.000Z</time>
      </trkpt>
      <trkpt lat="43.58612" lon="3.80905">
        <ele>31.568</ele>
        <time>2020-10-10T09:29:52.000Z</time>
      </trkpt>
      <trkpt lat="43.58615" lon="3.80909">
        <ele>31.468</ele>
        <time>2020-10-10T09:29:53.000Z</time>
      </trkpt>
      <trkpt lat="43.58617" lon="3.80912">
        <ele>31.368</ele>
        <time>2020-10-10T09:29:54.000Z</time>
      </trkpt>
      <trkpt lat="43.5862" lon="3.80916">
        <ele>31.268</ele>
        <time>2020-10-10T09:29:55.000Z</time>
      </trkpt>
      <trkpt lat="43.58623" lon="3.8092">
        <ele>31.168</ele>
        <time>2020-10-10T09:29:56.000Z</time>
      </trkpt>
      <trkpt lat="43.58626" lon="3.80924">
        <ele>31.068</ele>
        <time>2020-10-10T09:29:57.000Z</time>
      </trkpt>
      <trkpt lat="43.58629" lon="3.80928">
        <ele>30.968031957812</ele>
        <time>2020-10-10T09:29:58.000Z</time>
      </trkpt>
      <trkpt lat="43.58632" lon="3.80933">
        <ele>30.868131825976</ele>
        <time>2020-10-10T09:29:59.000Z</time>
      </trkpt>
      <trkpt lat="43.58635" lon="3.80938">
        <ele>30.76823169414</ele>
        <time>2020-10-10T09:30:00.000Z</time>
      </trkpt>
      <trkpt lat="43.58638" lon="3.80942">
        <ele>30.668331562304</ele>
        <time>2020-10-10T09:30:01.000Z</time>
      </trkpt>
      <trkpt lat="43.5864" lon="3.80946">
        <ele>30.568431430468</ele>
        <time>2020-10-10T09:30:02.000Z</time>
      </trkpt>
      <trkpt lat="43.58643" lon="3.80951">
        <ele>30.468531298631</ele>
        <time>2020-10-10T09:30:03.000Z</time>
      </trkpt>
      <trkpt lat="43.58646" lon="3.80955">
        <ele>30.368631166795</ele>
        <time>2020-10-10T09:30:04.000Z</time>
      </trkpt>
      <trkpt lat="43.58649" lon="3.80958">
        <ele>30.268731034959</ele>
        <time>2020-10-10T09:30:05.000Z</time>
      </trkpt>
      <trkpt lat="43.58652" lon="3.80961">
        <ele>30.168830903123</ele>
        <time>2020-10-10T09:30:06.000Z</time>
      </trkpt>
      <trkpt lat="43.58655" lon="3.80964">
        <ele>30.068930771287</ele>
        <time>2020-10-10T09:30:07.000Z</time>
      </trkpt>
      <trkpt lat="43.58658" lon="3.80968">
        <ele>29.93799936</ele>
        <time>2020-10-10T09:30:08.000Z</time>
      </trkpt>
      <trkpt lat="43.58661" lon="3.80972">
        <ele>29.73799936</ele>
        <time>2020-10-10T09:30:09.000Z</time>
      </trkpt>
      <trkpt lat="43.58663" lon="3.80976">
        <ele>29.53799936</ele>
        <time>2020-10-10T09:30:10.000Z</time>
      </trkpt>
      <trkpt lat="43.58666" lon="3.8098">
        <ele>29.33799936</ele>
        <time>2020-10-10T09:30:11.000Z</time>
      </trkpt>
      <trkpt lat="43.58669" lon="3.80983">
        <ele>29.13799936</ele>
        <time>2020-10-10T09:30:12.000Z</time>
      </trkpt>
      <trkpt lat="43.58671" lon="3.80987">
        <ele>28.93799936</ele>
        <time>2020-10-10T09:30:13.000Z</time>
      </trkpt>
      <trkpt lat="43.58674" lon="3.8099">
        <ele>28.73799936</ele>
        <time>2020-10-10T09:30:14.000Z</time>
      </trkpt>
      <trkpt lat="43.58676" lon="3.80994">
        <ele>28.53799936</ele>
        <time>2020-10-10T09:30:15.000Z</time>
      </trkpt>
      <trkpt lat="43.58679" lon="3.80997">
        <ele>28.33799936</ele>
        <time>2020-10-10T09:30:16.000Z</time>
      </trkpt>
      <trkpt lat="43.58682" lon="3.81">
        <ele>28.13799936</ele>
        <time>2020-10-10T09:30:17.000Z</time>
      </trkpt>
      <trkpt lat="43.58685" lon="3.81003">
        <ele>28</ele>
        <time>2020-10-10T09:30:18.000Z</time>
      </trkpt>
      <trkpt lat="43.58688" lon="3.81005">
        <ele>28</ele>
        <time>2020-10-10T09:30:19.000Z</time>
      </trkpt>
      <trkpt lat="43.58691" lon="3.81008">
        <ele>28</ele>
        <time>2020-10-10T09:30:20.000Z</time>
      </trkpt>
      <trkpt lat="43.58694" lon="3.81011">
        <ele>28</ele>
        <time>2020-10-10T09:30:21.000Z</time>
      </trkpt>
      <trkpt lat="43.58697" lon="3.81015">
        <ele>28</ele>
        <time>2020-10-10T09:30:22.000Z</time>
      </trkpt>
      <trkpt lat="43.587" lon="3.81019">
        <ele>28</ele>
        <time>2020-10-10T09:30:23.000Z</time>
      </trkpt>
      <trkpt lat="43.58702" lon="3.81023">
        <ele>28</ele>
        <time>2020-10-10T09:30:24.000Z</time>
      </trkpt>
      <trkpt lat="43.58705" lon="3.81027">
        <ele>28</ele>
        <time>2020-10-10T09:30:25.000Z</time>
      </trkpt>
      <trkpt lat="43.58708" lon="3.81031">
        <ele>28</ele>
        <time>2020-10-10T09:30:26.000Z</time>
      </trkpt>
      <trkpt lat="43.5871" lon="3.81035">
        <ele>28</ele>
        <time>2020-10-10T09:30:27.000Z</time>
      </trkpt>
      <trkpt lat="43.58712" lon="3.81039">
        <ele>28.03096936055</ele>
        <time>2020-10-10T09:30:28.000Z</time>
      </trkpt>
      <trkpt lat="43.58714" lon="3.81044">
        <ele>28.130869492386</ele>
        <time>2020-10-10T09:30:29.000Z</time>
      </trkpt>
      <trkpt lat="43.58717" lon="3.81048">
        <ele>28.230769624222</ele>
        <time>2020-10-10T09:30:30.000Z</time>
      </trkpt>
      <trkpt lat="43.58719" lon="3.81052">
        <ele>28.330669756058</ele>
        <time>2020-10-10T09:30:31.000Z</time>
      </trkpt>
      <trkpt lat="43.58722" lon="3.81056">
        <ele>28.430569887894</ele>
        <time>2020-10-10T09:30:32.000Z</time>
      </trkpt>
      <trkpt lat="43.58725" lon="3.8106">
        <ele>28.530470019731</ele>
        <time>2020-10-10T09:30:33.000Z</time>
      </trkpt>
      <trkpt lat="43.58728" lon="3.81064">
        <ele>28.630370151567</ele>
        <time>2020-10-10T09:30:34.000Z</time>
      </trkpt>
      <trkpt lat="43.58731" lon="3.81069">
        <ele>28.730270283403</ele>
        <time>2020-10-10T09:30:35.000Z</time>
      </trkpt>
      <trkpt lat="43.58734" lon="3.81073">
        <ele>28.830170415239</ele>
        <time>2020-10-10T09:30:36.000Z</time>
      </trkpt>
      <trkpt lat="43.58737" lon="3.81078">
        <ele>28.930070547075</ele>
        <time>2020-10-10T09:30:37.000Z</time>
      </trkpt>
      <trkpt lat="43.58741" lon="3.81082">
        <ele>29</ele>
        <time>2020-10-10T09:30:38.000Z</time>
      </trkpt>
      <trkpt lat="43.58744" lon="3.81086">
        <ele>29</ele>
        <time>2020-10-10T09:30:39.000Z</time>
      </trkpt>
      <trkpt lat="43.58747" lon="3.81091">
        <ele>29</ele>
        <time>2020-10-10T09:30:40.000Z</time>
      </trkpt>
      <trkpt lat="43.58751" lon="3.81094">
        <ele>29</ele>
        <time>2020-10-10T09:30:41.000Z</time>
      </trkpt>
      <trkpt lat="43.58755" lon="3.81098">
        <ele>29</ele>
        <time>2020-10-10T09:30:42.000Z</time>
      </trkpt>
      <trkpt lat="43.58758" lon="3.81102">
        <ele>29</ele>
        <time>2020-10-10T09:30:43.000Z</time>
      </trkpt>
      <trkpt lat="43.58762" lon="3.81106">
        <ele>29</ele>
        <time>2020-10-10T09:30:44.000Z</time>
      </trkpt>
      <trkpt lat="43.58765" lon="3.81111">
        <ele>29</ele>
        <time>2020-10-10T09:30:45.000Z</time>
      </trkpt>
      <trkpt lat="43.58768" lon="3.81115">
        <ele>29</ele>
        <time>2020-10-10T09:30:46.000Z</time>
      </trkpt>
      <trkpt lat="43.58772" lon="3.8112">
        <ele>29</ele>
        <time>2020-10-10T09:30:47.000Z</time>
      </trkpt>
      <trkpt lat="43.58774" lon="3.81125">
        <ele>28.96899968</ele>
        <time>2020-10-10T09:30:48.000Z</time>
      </trkpt>
      <trkpt lat="43.58777" lon="3.81131">
        <ele>28.86899968</ele>
        <time>2020-10-10T09:30:49.000Z</time>
      </trkpt>
      <trkpt lat="43.5878" lon="3.81136">
        <ele>28.76899968</ele>
        <time>2020-10-10T09:30:50.000Z</time>
      </trkpt>
      <trkpt lat="43.58783" lon="3.81141">
        <ele>28.66899968</ele>
        <time>2020-10-10T09:30:51.000Z</time>
      </trkpt>
      <trkpt lat="43.58786" lon="3.81146">
        <ele>28.56899968</ele>
        <time>2020-10-10T09:30:52.000Z</time>
      </trkpt>
      <trkpt lat="43.58789" lon="3.8115">
        <ele>28.46899968</ele>
        <time>2020-10-10T09:30:53.000Z</time>
      </trkpt>
      <trkpt lat="43.58793" lon="3.81155">
        <ele>28.36899968</ele>
        <time>2020-10-10T09:30:54.000Z</time>
      </trkpt>
      <trkpt lat="43.58796" lon="3.8116">
        <ele>28.26899968</ele>
        <time>2020-10-10T09:30:55.000Z</time>
      </trkpt>
      <trkpt lat="43.588" lon="3.81166">
        <ele>28.16899968</ele>
        <time>2020-10-10T09:30:56.000Z</time>
      </trkpt>
      <trkpt lat="43.58803" lon="3.81171">
        <ele>28.06899968</ele>
        <time>2020-10-10T09:30:57.000Z</time>
      </trkpt>
      <trkpt lat="43.58806" lon="3.81175">
        <ele>28</ele>
        <time>2020-10-10T09:30:58.000Z</time>
      </trkpt>
      <trkpt lat="43.58809" lon="3.8118">
        <ele>28</ele>
        <time>2020-10-10T09:30:59.000Z</time>
      </trkpt>
      <trkpt lat="43.58812" lon="3.81184">
        <ele>28</ele>
        <time>2020-10-10T09:31:00.000Z</time>
      </trkpt>
      <trkpt lat="43.58815" lon="3.81187">
        <ele>28</ele>
        <time>2020-10-10T09:31:01.000Z</time>
      </trkpt>
      <trkpt lat="43.58817" lon="3.81191">
        <ele>28</ele>
        <time>2020-10-10T09:31:02.000Z</time>
      </trkpt>
      <trkpt lat="43.5882" lon="3.81195">
        <ele>28</ele>
        <time>2020-10-10T09:31:03.000Z</time>
      </trkpt>
      <trkpt lat="43.58823" lon="3.81199">
        <ele>28</ele>
        <time>2020-10-10T09:31:04.000Z</time>
      </trkpt>
      <trkpt lat="43.58826" lon="3.81203">
        <ele>28</ele>
        <time>2020-10-10T09:31:05.000Z</time>
      </trkpt>
      <trkpt lat="43.58829" lon="3.81207">
        <ele>28</ele>
        <time>2020-10-10T09:31:06.000Z</time>
      </trkpt>
      <trkpt lat="43.58832" lon="3.81212">
        <ele>28</ele>
        <time>2020-10-10T09:31:07.000Z</time>
      </trkpt>
      <trkpt lat="43.58836" lon="3.81216">
        <ele>28</ele>
        <time>2020-10-10T09:31:08.000Z</time>
      </trkpt>
      <trkpt lat="43.58839" lon="3.81221">
        <ele>28</ele>
        <time>2020-10-10T09:31:09.000Z</time>
      </trkpt>
      <trkpt lat="43.58842" lon="3.81225">
        <ele>28</ele>
        <time>2020-10-10T09:31:10.000Z</time>
      </trkpt>
      <trkpt lat="43.58846" lon="3.8123">
        <ele>28</ele>
        <time>2020-10-10T09:31:11.000Z</time>
      </trkpt>
      <trkpt lat="43.58849" lon="3.81234">
        <ele>28</ele>
        <time>2020-10-10T09:31:12.000Z</time>
      </trkpt>
      <trkpt lat="43.58852" lon="3.81238">
        <ele>28</ele>
        <time>2020-10-10T09:31:13.000Z</time>
      </trkpt>
      <trkpt lat="43.58855" lon="3.81243">
        <ele>28</ele>
        <time>2020-10-10T09:31:14.000Z</time>
      </trkpt>
      <trkpt lat="43.58858" lon="3.81247">
        <ele>28</ele>
        <time>2020-10-10T09:31:15.000Z</time>
      </trkpt>
      <trkpt lat="43.58861" lon="3.81252">
        <ele>28</ele>
        <time>2020-10-10T09:31:16.000Z</time>
      </trkpt>
      <trkpt lat="43.58865" lon="3.81256">
        <ele>28</ele>
        <time>2020-10-10T09:31:17.000Z</time>
      </trkpt>
      <trkpt lat="43.58868" lon="3.81261">
        <ele>27.968031957812</ele>
        <time>2020-10-10T09:31:18.000Z</time>
      </trkpt>
      <trkpt lat="43.58871" lon="3.81265">
        <ele>27.868131825976</ele>
        <time>2020-10-10T09:31:19.000Z</time>
      </trkpt>
      <trkpt lat="43.58874" lon="3.8127">
        <ele>27.76823169414</ele>
        <time>2020-10-10T09:31:20.000Z</time>
      </trkpt>
      <trkpt lat="43.58877" lon="3.81274">
        <ele>27.668331562304</ele>
        <time>2020-10-10T09:31:21.000Z</time>
      </trkpt>
      <trkpt lat="43.5888" lon="3.81278">
        <ele>27.568431430468</ele>
        <time>2020-10-10T09:31:22.000Z</time>
      </trkpt>
      <trkpt lat="43.58884" lon="3.81282">
        <ele>27.468531298631</ele>
        <time>2020-10-10T09:31:23.000Z</time>
      </trkpt>
      <trkpt lat="43.58887" lon="3.81287">
        <ele>27.368631166795</ele>
        <time>2020-10-10T09:31:24.000Z</time>
      </trkpt>
      <trkpt lat="43.5889" lon="3.81291">
        <ele>27.268731034959</ele>
        <time>2020-10-10T09:31:25.000Z</time>
      </trkpt>
      <trkpt lat="43.58893" lon="3.81295">
        <ele>27.168830903123</ele>
        <time>2020-10-10T09:31:26.000Z</time>
      </trkpt>
      <trkpt lat="43.58896" lon="3.81299">
        <ele>27.068930771287</ele>
        <time>2020-10-10T09:31:27.000Z</time>
      </trkpt>
      <trkpt lat="43.58899" lon="3.81303">
        <ele>27</ele>
        <time>2020-10-10T09:31:28.000Z</time>
      </trkpt>
      <trkpt lat="43.58902" lon="3.81308">
        <ele>27</ele>
        <time>2020-10-10T09:31:29.000Z</time>
      </trkpt>
      <trkpt lat="43.58905" lon="3.81312">
        <ele>27</ele>
        <time>2020-10-10T09:31:30.000Z</time>
      </trkpt>
      <trkpt lat="43.58908" lon="3.81316">
        <ele>27</ele>
        <time>2020-10-10T09:31:31.000Z</time>
      </trkpt>
      <trkpt lat="43.58911" lon="3.8132">
        <ele>27</ele>
        <time>2020-10-10T09:31:32.000Z</time>
      </trkpt>
      <trkpt lat="43.58915" lon="3.81324">
        <ele>27</ele>
        <time>2020-10-10T09:31:33.000Z</time>
      </trkpt>
      <trkpt lat="43.58918" lon="3.81327">
        <ele>27</ele>
        <time>2020-10-10T09:31:34.000Z</time>
      </trkpt>
      <trkpt lat="43.58921" lon="3.81332">
        <ele>27</ele>
        <time>2020-10-10T09:31:35.000Z</time>
      </trkpt>
      <trkpt lat="43.58924" lon="3.81336">
        <ele>27</ele>
        <time>2020-10-10T09:31:36.000Z</time>
      </trkpt>
      <trkpt lat="43.58927" lon="3.8134">
        <ele>27</ele>
        <time>2020-10-10T09:31:37.000Z</time>
      </trkpt>
      <trkpt lat="43.5893" lon="3.81344">
        <ele>26.996910073109</ele>
        <time>2020-10-10T09:31:38.000Z</time>
      </trkpt>
      <trkpt lat="43.58933" lon="3.81348">
        <ele>26.893923495308</ele>
        <time>2020-10-10T09:31:39.000Z</time>
      </trkpt>
      <trkpt lat="43.58936" lon="3.81353">
        <ele>26.790936917508</ele>
        <time>2020-10-10T09:31:40.000Z</time>
      </trkpt>
      <trkpt lat="43.58939" lon="3.81357">
        <ele>26.687950339707</ele>
        <time>2020-10-10T09:31:41.000Z</time>
      </trkpt>
      <trkpt lat="43.58942" lon="3.81362">
        <ele>26.584963761907</ele>
        <time>2020-10-10T09:31:42.000Z</time>
      </trkpt>
      <trkpt lat="43.58944" lon="3.81366">
        <ele>26.481977184106</ele>
        <time>2020-10-10T09:31:43.000Z</time>
      </trkpt>
      <trkpt lat="43.58948" lon="3.81371">
        <ele>26.378990606306</ele>
        <time>2020-10-10T09:31:44.000Z</time>
      </trkpt>
      <trkpt lat="43.58951" lon="3.81375">
        <ele>26.276004028505</ele>
        <time>2020-10-10T09:31:45.000Z</time>
      </trkpt>
      <trkpt lat="43.58955" lon="3.8138">
        <ele>26.173017450705</ele>
        <time>2020-10-10T09:31:46.000Z</time>
      </trkpt>
      <trkpt lat="43.58958" lon="3.81385">
        <ele>26.070030872904</ele>
        <time>2020-10-10T09:31:47.000Z</time>
      </trkpt>
      <trkpt lat="43.58961" lon="3.8139">
        <ele>26.031098163218</ele>
        <time>2020-10-10T09:31:48.000Z</time>
      </trkpt>
      <trkpt lat="43.58965" lon="3.81396">
        <ele>26.128279923275</ele>
        <time>2020-10-10T09:31:49.000Z</time>
      </trkpt>
      <trkpt lat="43.58968" lon="3.81401">
        <ele>26.225461683331</ele>
        <time>2020-10-10T09:31:50.000Z</time>
      </trkpt>
      <trkpt lat="43.58971" lon="3.81406">
        <ele>26.322643443388</ele>
        <time>2020-10-10T09:31:51.000Z</time>
      </trkpt>
      <trkpt lat="43.58975" lon="3.81411">
        <ele>26.419825203444</ele>
        <time>2020-10-10T09:31:52.000Z</time>
      </trkpt>
      <trkpt lat="43.58978" lon="3.81415">
        <ele>26.517006963501</ele>
        <time>2020-10-10T09:31:53.000Z</time>
      </trkpt>
      <trkpt lat="43.58982" lon="3.8142">
        <ele>26.614188723557</ele>
        <time>2020-10-10T09:31:54.000Z</time>
      </trkpt>
      <trkpt lat="43.58985" lon="3.81423">
        <ele>26.711370483614</ele>
        <time>2020-10-10T09:31:55.000Z</time>
      </trkpt>
      <trkpt lat="43.58987" lon="3.81427">
        <ele>26.80855224367</ele>
        <time>2020-10-10T09:31:56.000Z</time>
      </trkpt>
      <trkpt lat="43.58989" lon="3.81431">
        <ele>26.905734003727</ele>
        <time>2020-10-10T09:31:57.000Z</time>
      </trkpt>
      <trkpt lat="43.58993" lon="3.81436">
        <ele>26.996919591347</ele>
        <time>2020-10-10T09:31:58.000Z</time>
      </trkpt>
      <trkpt lat="43.58997" lon="3.81441">
        <ele>26.894250254291</ele>
        <time>2020-10-10T09:31:59.000Z</time>
      </trkpt>
      <trkpt lat="43.59" lon="3.81445">
        <ele>26.791580917236</ele>
        <time>2020-10-10T09:32:00.000Z</time>
      </trkpt>
      <trkpt lat="43.59003" lon="3.81449">
        <ele>26.688911580181</ele>
        <time>2020-10-10T09:32:01.000Z</time>
      </trkpt>
      <trkpt lat="43.59006" lon="3.81453">
        <ele>26.586242243126</ele>
        <time>2020-10-10T09:32:02.000Z</time>
      </trkpt>
      <trkpt lat="43.5901" lon="3.81457">
        <ele>26.483572906071</ele>
        <time>2020-10-10T09:32:03.000Z</time>
      </trkpt>
      <trkpt lat="43.59013" lon="3.81461">
        <ele>26.380903569016</ele>
        <time>2020-10-10T09:32:04.000Z</time>
      </trkpt>
      <trkpt lat="43.59016" lon="3.81465">
        <ele>26.278234231961</ele>
        <time>2020-10-10T09:32:05.000Z</time>
      </trkpt>
      <trkpt lat="43.59018" lon="3.81469">
        <ele>26.175564894906</ele>
        <time>2020-10-10T09:32:06.000Z</time>
      </trkpt>
      <trkpt lat="43.59021" lon="3.81472">
        <ele>26.072895557851</ele>
        <time>2020-10-10T09:32:07.000Z</time>
      </trkpt>
      <trkpt lat="43.59024" lon="3.81476">
        <ele>26</ele>
        <time>2020-10-10T09:32:08.000Z</time>
      </trkpt>
      <trkpt lat="43.59027" lon="3.81479">
        <ele>26</ele>
        <time>2020-10-10T09:32:09.000Z</time>
      </trkpt>
      <trkpt lat="43.59029" lon="3.81483">
        <ele>26</ele>
        <time>2020-10-10T09:32:10.000Z</time>
      </trkpt>
      <trkpt lat="43.59032" lon="3.81486">
        <ele>26</ele>
        <time>2020-10-10T09:32:11.000Z</time>
      </trkpt>
      <trkpt lat="43.59034" lon="3.81489">
        <ele>26</ele>
        <time>2020-10-10T09:32:12.000Z</time>
      </trkpt>
      <trkpt lat="43.59036" lon="3.81494">
        <ele>26</ele>
        <time>2020-10-10T09:32:13.000Z</time>
      </trkpt>
      <trkpt lat="43.59039" lon="3.81498">
        <ele>26</ele>
        <time>2020-10-10T09:32:14.000Z</time>
      </trkpt>
      <trkpt lat="43.59042" lon="3.81502">
        <ele>26</ele>
        <time>2020-10-10T09:32:15.000Z</time>
      </trkpt>
      <trkpt lat="43.59045" lon="3.81507">
        <ele>26</ele>
        <time>2020-10-10T09:32:16.000Z</time>
      </trkpt>
      <trkpt lat="43.59049" lon="3.81511">
        <ele>26</ele>
        <time>2020-10-10T09:32:17.000Z</time>
      </trkpt>
      <trkpt lat="43.59052" lon="3.81516">
        <ele>26</ele>
        <time>2020-10-10T09:32:18.000Z</time>
      </trkpt>
      <trkpt lat="43.59056" lon="3.8152">
        <ele>26</ele>
        <time>2020-10-10T09:32:19.000Z</time>
      </trkpt>
      <trkpt lat="43.59059" lon="3.81524">
        <ele>26</ele>
        <time>2020-10-10T09:32:20.000Z</time>
      </trkpt>
      <trkpt lat="43.59062" lon="3.81529">
        <ele>26</ele>
        <time>2020-10-10T09:32:21.000Z</time>
      </trkpt>
      <trkpt lat="43.59066" lon="3.81534">
        <ele>26</ele>
        <time>2020-10-10T09:32:22.000Z</time>
      </trkpt>
      <trkpt lat="43.59069" lon="3.81538">
        <ele>26</ele>
        <time>2020-10-10T09:32:23.000Z</time>
      </trkpt>
      <trkpt lat="43.59072" lon="3.81542">
        <ele>26</ele>
        <time>2020-10-10T09:32:24.000Z</time>
      </trkpt>
      <trkpt lat="43.59075" lon="3.81546">
        <ele>26</ele>
        <time>2020-10-10T09:32:25.000Z</time>
      </trkpt>
      <trkpt lat="43.59078" lon="3.81551">
        <ele>26</ele>
        <time>2020-10-10T09:32:26.000Z</time>
      </trkpt>
      <trkpt lat="43.59081" lon="3.81555">
        <ele>26</ele>
        <time>2020-10-10T09:32:27.000Z</time>
      </trkpt>
      <trkpt lat="43.59084" lon="3.81559">
        <ele>26</ele>
        <time>2020-10-10T09:32:28.000Z</time>
      </trkpt>
      <trkpt lat="43.59087" lon="3.81563">
        <ele>26</ele>
        <time>2020-10-10T09:32:29.000Z</time>
      </trkpt>
      <trkpt lat="43.5909" lon="3.81568">
        <ele>26</ele>
        <time>2020-10-10T09:32:30.000Z</time>
      </trkpt>
      <trkpt lat="43.59093" lon="3.81573">
        <ele>26</ele>
        <time>2020-10-10T09:32:31.000Z</time>
      </trkpt>
      <trkpt lat="43.59095" lon="3.81577">
        <ele>26</ele>
        <time>2020-10-10T09:32:32.000Z</time>
      </trkpt>
      <trkpt lat="43.59098" lon="3.81581">
        <ele>26</ele>
        <time>2020-10-10T09:32:33.000Z</time>
      </trkpt>
      <trkpt lat="43.59102" lon="3.81586">
        <ele>26</ele>
        <time>2020-10-10T09:32:34.000Z</time>
      </trkpt>
      <trkpt lat="43.59104" lon="3.8159">
        <ele>26</ele>
        <time>2020-10-10T09:32:35.000Z</time>
      </trkpt>
      <trkpt lat="43.59107" lon="3.81594">
        <ele>26</ele>
        <time>2020-10-10T09:32:36.000Z</time>
      </trkpt>
      <trkpt lat="43.5911" lon="3.81598">
        <ele>26</ele>
        <time>2020-10-10T09:32:37.000Z</time>
      </trkpt>
      <trkpt lat="43.59113" lon="3.81602">
        <ele>26.030602458659</ele>
        <time>2020-10-10T09:32:38.000Z</time>
      </trkpt>
      <trkpt lat="43.59116" lon="3.81605">
        <ele>26.129319048227</ele>
        <time>2020-10-10T09:32:39.000Z</time>
      </trkpt>
      <trkpt lat="43.59119" lon="3.81608">
        <ele>26.228035637794</ele>
        <time>2020-10-10T09:32:40.000Z</time>
      </trkpt>
      <trkpt lat="43.59122" lon="3.81609">
        <ele>26.326752227362</ele>
        <time>2020-10-10T09:32:41.000Z</time>
      </trkpt>
      <trkpt lat="43.59126" lon="3.8161">
        <ele>26.42546881693</ele>
        <time>2020-10-10T09:32:42.000Z</time>
      </trkpt>
      <trkpt lat="43.5913" lon="3.81611">
        <ele>26.524185406498</ele>
        <time>2020-10-10T09:32:43.000Z</time>
      </trkpt>
      <trkpt lat="43.59134" lon="3.81612">
        <ele>26.622901996065</ele>
        <time>2020-10-10T09:32:44.000Z</time>
      </trkpt>
      <trkpt lat="43.59139" lon="3.81614">
        <ele>26.721618585633</ele>
        <time>2020-10-10T09:32:45.000Z</time>
      </trkpt>
      <trkpt lat="43.59142" lon="3.81615">
        <ele>26.820335175201</ele>
        <time>2020-10-10T09:32:46.000Z</time>
      </trkpt>
      <trkpt lat="43.59145" lon="3.81614">
        <ele>26.919051764768</ele>
        <time>2020-10-10T09:32:47.000Z</time>
      </trkpt>
      <trkpt lat="43.59147" lon="3.81613">
        <ele>26.981745059145</ele>
        <time>2020-10-10T09:32:48.000Z</time>
      </trkpt>
      <trkpt lat="43.59159" lon="3.81605">
        <ele>26.677485226765</ele>
        <time>2020-10-10T09:32:51.000Z</time>
      </trkpt>
      <trkpt lat="43.59169" lon="3.81594">
        <ele>26.474645338512</ele>
        <time>2020-10-10T09:32:53.000Z</time>
      </trkpt>
      <trkpt lat="43.59174" lon="3.81591">
        <ele>26.373225394386</ele>
        <time>2020-10-10T09:32:54.000Z</time>
      </trkpt>
      <trkpt lat="43.59176" lon="3.81587">
        <ele>26.271805450259</ele>
        <time>2020-10-10T09:32:55.000Z</time>
      </trkpt>
      <trkpt lat="43.59176" lon="3.81581">
        <ele>26.170385506133</ele>
        <time>2020-10-10T09:32:56.000Z</time>
      </trkpt>
      <trkpt lat="43.59175" lon="3.81576">
        <ele>26.068965562006</ele>
        <time>2020-10-10T09:32:57.000Z</time>
      </trkpt>
      <trkpt lat="43.59174" lon="3.8157">
        <ele>26</ele>
        <time>2020-10-10T09:32:58.000Z</time>
      </trkpt>
      <trkpt lat="43.59172" lon="3.81565">
        <ele>26</ele>
        <time>2020-10-10T09:32:59.000Z</time>
      </trkpt>
      <trkpt lat="43.59171" lon="3.8156">
        <ele>26</ele>
        <time>2020-10-10T09:33:00.000Z</time>
      </trkpt>
      <trkpt lat="43.5917" lon="3.81554">
        <ele>26</ele>
        <time>2020-10-10T09:33:01.000Z</time>
      </trkpt>
      <trkpt lat="43.59168" lon="3.81549">
        <ele>26</ele>
        <time>2020-10-10T09:33:02.000Z</time>
      </trkpt>
      <trkpt lat="43.59167" lon="3.81544">
        <ele>26</ele>
        <time>2020-10-10T09:33:03.000Z</time>
      </trkpt>
      <trkpt lat="43.59165" lon="3.81539">
        <ele>26</ele>
        <time>2020-10-10T09:33:04.000Z</time>
      </trkpt>
      <trkpt lat="43.59164" lon="3.81535">
        <ele>26</ele>
        <time>2020-10-10T09:33:05.000Z</time>
      </trkpt>
      <trkpt lat="43.59162" lon="3.8153">
        <ele>26</ele>
        <time>2020-10-10T09:33:06.000Z</time>
      </trkpt>
      <trkpt lat="43.59161" lon="3.81525">
        <ele>26</ele>
        <time>2020-10-10T09:33:07.000Z</time>
      </trkpt>
      <trkpt lat="43.59159" lon="3.81521">
        <ele>25.93799936</ele>
        <time>2020-10-10T09:33:08.000Z</time>
      </trkpt>
      <trkpt lat="43.59158" lon="3.81517">
        <ele>25.73799936</ele>
        <time>2020-10-10T09:33:09.000Z</time>
      </trkpt>
      <trkpt lat="43.59156" lon="3.81513">
        <ele>25.53799936</ele>
        <time>2020-10-10T09:33:10.000Z</time>
      </trkpt>
      <trkpt lat="43.59155" lon="3.8151">
        <ele>25.33799936</ele>
        <time>2020-10-10T09:33:11.000Z</time>
      </trkpt>
      <trkpt lat="43.59153" lon="3.81506">
        <ele>25.13799936</ele>
        <time>2020-10-10T09:33:12.000Z</time>
      </trkpt>
      <trkpt lat="43.59152" lon="3.81503">
        <ele>24.93799936</ele>
        <time>2020-10-10T09:33:13.000Z</time>
      </trkpt>
      <trkpt lat="43.59151" lon="3.815">
        <ele>24.73799936</ele>
        <time>2020-10-10T09:33:14.000Z</time>
      </trkpt>
      <trkpt lat="43.5915" lon="3.81497">
        <ele>24.53799936</ele>
        <time>2020-10-10T09:33:15.000Z</time>
      </trkpt>
      <trkpt lat="43.59149" lon="3.81494">
        <ele>24.33799936</ele>
        <time>2020-10-10T09:33:16.000Z</time>
      </trkpt>
      <trkpt lat="43.59148" lon="3.81492">
        <ele>24.13799936</ele>
        <time>2020-10-10T09:33:17.000Z</time>
      </trkpt>
      <trkpt lat="43.59147" lon="3.81489">
        <ele>24</ele>
        <time>2020-10-10T09:33:18.000Z</time>
      </trkpt>
      <trkpt lat="43.59146" lon="3.81486">
        <ele>24</ele>
        <time>2020-10-10T09:33:19.000Z</time>
      </trkpt>
      <trkpt lat="43.59146" lon="3.81484">
        <ele>24</ele>
        <time>2020-10-10T09:33:20.000Z</time>
      </trkpt>
      <trkpt lat="43.59144" lon="3.81481">
        <ele>24</ele>
        <time>2020-10-10T09:33:21.000Z</time>
      </trkpt>
      <trkpt lat="43.59143" lon="3.81478">
        <ele>24</ele>
        <time>2020-10-10T09:33:22.000Z</time>
      </trkpt>
      <trkpt lat="43.59142" lon="3.81475">
        <ele>24</ele>
        <time>2020-10-10T09:33:23.000Z</time>
      </trkpt>
      <trkpt lat="43.59141" lon="3.81471">
        <ele>24</ele>
        <time>2020-10-10T09:33:24.000Z</time>
      </trkpt>
      <trkpt lat="43.5914" lon="3.81466">
        <ele>24</ele>
        <time>2020-10-10T09:33:25.000Z</time>
      </trkpt>
      <trkpt lat="43.59139" lon="3.81462">
        <ele>24</ele>
        <time>2020-10-10T09:33:26.000Z</time>
      </trkpt>
      <trkpt lat="43.59137" lon="3.81459">
        <ele>24</ele>
        <time>2020-10-10T09:33:27.000Z</time>
      </trkpt>
      <trkpt lat="43.59135" lon="3.81457">
        <ele>23.968968658589</ele>
        <time>2020-10-10T09:33:28.000Z</time>
      </trkpt>
      <trkpt lat="43.59133" lon="3.81457">
        <ele>23.868868590553</ele>
        <time>2020-10-10T09:33:29.000Z</time>
      </trkpt>
      <trkpt lat="43.59131" lon="3.81457">
        <ele>23.768768522517</ele>
        <time>2020-10-10T09:33:30.000Z</time>
      </trkpt>
      <trkpt lat="43.59129" lon="3.81459">
        <ele>23.668668454481</ele>
        <time>2020-10-10T09:33:31.000Z</time>
      </trkpt>
      <trkpt lat="43.59129" lon="3.81462">
        <ele>23.568568386445</ele>
        <time>2020-10-10T09:33:32.000Z</time>
      </trkpt>
      <trkpt lat="43.59129" lon="3.81465">
        <ele>23.468468318409</ele>
        <time>2020-10-10T09:33:33.000Z</time>
      </trkpt>
      <trkpt lat="43.5913" lon="3.81469">
        <ele>23.368368250373</ele>
        <time>2020-10-10T09:33:34.000Z</time>
      </trkpt>
      <trkpt lat="43.59131" lon="3.81474">
        <ele>23.268268182336</ele>
        <time>2020-10-10T09:33:35.000Z</time>
      </trkpt>
      <trkpt lat="43.59132" lon="3.81478">
        <ele>23.1681681143</ele>
        <time>2020-10-10T09:33:36.000Z</time>
      </trkpt>
      <trkpt lat="43.59133" lon="3.81483">
        <ele>23.068068046265</ele>
        <time>2020-10-10T09:33:37.000Z</time>
      </trkpt>
      <trkpt lat="43.59134" lon="3.81487">
        <ele>23.031968042188</ele>
        <time>2020-10-10T09:33:38.000Z</time>
      </trkpt>
      <trkpt lat="43.59136" lon="3.81491">
        <ele>23.131868174024</ele>
        <time>2020-10-10T09:33:39.000Z</time>
      </trkpt>
      <trkpt lat="43.59137" lon="3.81495">
        <ele>23.23176830586</ele>
        <time>2020-10-10T09:33:40.000Z</time>
      </trkpt>
      <trkpt lat="43.59138" lon="3.81499">
        <ele>23.331668437696</ele>
        <time>2020-10-10T09:33:41.000Z</time>
      </trkpt>
      <trkpt lat="43.59139" lon="3.81503">
        <ele>23.431568569532</ele>
        <time>2020-10-10T09:33:42.000Z</time>
      </trkpt>
      <trkpt lat="43.5914" lon="3.81507">
        <ele>23.531468701369</ele>
        <time>2020-10-10T09:33:43.000Z</time>
      </trkpt>
      <trkpt lat="43.59141" lon="3.8151">
        <ele>23.631368833205</ele>
        <time>2020-10-10T09:33:44.000Z</time>
      </trkpt>
      <trkpt lat="43.59142" lon="3.81513">
        <ele>23.731268965041</ele>
        <time>2020-10-10T09:33:45.000Z</time>
      </trkpt>
      <trkpt lat="43.59143" lon="3.81515">
        <ele>23.831169096877</ele>
        <time>2020-10-10T09:33:46.000Z</time>
      </trkpt>
      <trkpt lat="43.59144" lon="3.81518">
        <ele>23.931069228713</ele>
        <time>2020-10-10T09:33:47.000Z</time>
      </trkpt>
      <trkpt lat="43.59145" lon="3.81522">
        <ele>24.030938423353</ele>
        <time>2020-10-10T09:33:48.000Z</time>
      </trkpt>
      <trkpt lat="43.59146" lon="3.81525">
        <ele>24.13073875881</ele>
        <time>2020-10-10T09:33:49.000Z</time>
      </trkpt>
      <trkpt lat="43.59147" lon="3.81529">
        <ele>24.230539094266</ele>
        <time>2020-10-10T09:33:50.000Z</time>
      </trkpt>
      <trkpt lat="43.59148" lon="3.81533">
        <ele>24.330339429723</ele>
        <time>2020-10-10T09:33:51.000Z</time>
      </trkpt>
      <trkpt lat="43.5915" lon="3.81537">
        <ele>24.43013976518</ele>
        <time>2020-10-10T09:33:52.000Z</time>
      </trkpt>
      <trkpt lat="43.59151" lon="3.81541">
        <ele>24.529940100637</ele>
        <time>2020-10-10T09:33:53.000Z</time>
      </trkpt>
      <trkpt lat="43.59152" lon="3.81545">
        <ele>24.629740436094</ele>
        <time>2020-10-10T09:33:54.000Z</time>
      </trkpt>
      <trkpt lat="43.59153" lon="3.81549">
        <ele>24.729540771551</ele>
        <time>2020-10-10T09:33:55.000Z</time>
      </trkpt>
      <trkpt lat="43.59154" lon="3.81553">
        <ele>24.829341107008</ele>
        <time>2020-10-10T09:33:56.000Z</time>
      </trkpt>
      <trkpt lat="43.59154" lon="3.81557">
        <ele>24.929141442464</ele>
        <time>2020-10-10T09:33:57.000Z</time>
      </trkpt>
      <trkpt lat="43.59155" lon="3.81561">
        <ele>25.029086950158</ele>
        <time>2020-10-10T09:33:58.000Z</time>
      </trkpt>
      <trkpt lat="43.59156" lon="3.81565">
        <ele>25.129387885059</ele>
        <time>2020-10-10T09:33:59.000Z</time>
      </trkpt>
      <trkpt lat="43.59156" lon="3.81569">
        <ele>25.22968881996</ele>
        <time>2020-10-10T09:34:00.000Z</time>
      </trkpt>
      <trkpt lat="43.59157" lon="3.81573">
        <ele>25.329989754861</ele>
        <time>2020-10-10T09:34:01.000Z</time>
      </trkpt>
      <trkpt lat="43.59157" lon="3.81578">
        <ele>25.430290689762</ele>
        <time>2020-10-10T09:34:02.000Z</time>
      </trkpt>
      <trkpt lat="43.59158" lon="3.81583">
        <ele>25.530591624663</ele>
        <time>2020-10-10T09:34:03.000Z</time>
      </trkpt>
      <trkpt lat="43.59158" lon="3.81588">
        <ele>25.630892559564</ele>
        <time>2020-10-10T09:34:04.000Z</time>
      </trkpt>
      <trkpt lat="43.59159" lon="3.81593">
        <ele>25.731193494465</ele>
        <time>2020-10-10T09:34:05.000Z</time>
      </trkpt>
      <trkpt lat="43.59161" lon="3.81597">
        <ele>25.831494429366</ele>
        <time>2020-10-10T09:34:06.000Z</time>
      </trkpt>
      <trkpt lat="43.59162" lon="3.81602">
        <ele>25.931795364267</ele>
        <time>2020-10-10T09:34:07.000Z</time>
      </trkpt>
      <trkpt lat="43.59163" lon="3.81607">
        <ele>26</ele>
        <time>2020-10-10T09:34:08.000Z</time>
      </trkpt>
      <trkpt lat="43.59164" lon="3.81612">
        <ele>26</ele>
        <time>2020-10-10T09:34:09.000Z</time>
      </trkpt>
      <trkpt lat="43.59166" lon="3.81617">
        <ele>26</ele>
        <time>2020-10-10T09:34:10.000Z</time>
      </trkpt>
      <trkpt lat="43.59167" lon="3.81622">
        <ele>26</ele>
        <time>2020-10-10T09:34:11.000Z</time>
      </trkpt>
      <trkpt lat="43.59168" lon="3.81627">
        <ele>26</ele>
        <time>2020-10-10T09:34:12.000Z</time>
      </trkpt>
      <trkpt lat="43.5917" lon="3.81632">
        <ele>26</ele>
        <time>2020-10-10T09:34:13.000Z</time>
      </trkpt>
      <trkpt lat="43.59171" lon="3.81637">
        <ele>26</ele>
        <time>2020-10-10T09:34:14.000Z</time>
      </trkpt>
      <trkpt lat="43.59172" lon="3.81643">
        <ele>26</ele>
        <time>2020-10-10T09:34:15.000Z</time>
      </trkpt>
      <trkpt lat="43.59174" lon="3.81648">
        <ele>26</ele>
        <time>2020-10-10T09:34:16.000Z</time>
      </trkpt>
      <trkpt lat="43.59175" lon="3.81653">
        <ele>26</ele>
        <time>2020-10-10T09:34:17.000Z</time>
      </trkpt>
      <trkpt lat="43.59177" lon="3.81659">
        <ele>26</ele>
        <time>2020-10-10T09:34:18.000Z</time>
      </trkpt>
      <trkpt lat="43.59178" lon="3.81664">
        <ele>26</ele>
        <time>2020-10-10T09:34:19.000Z</time>
      </trkpt>
      <trkpt lat="43.5918" lon="3.8167">
        <ele>26</ele>
        <time>2020-10-10T09:34:20.000Z</time>
      </trkpt>
      <trkpt lat="43.59182" lon="3.81676">
        <ele>26</ele>
        <time>2020-10-10T09:34:21.000Z</time>
      </trkpt>
      <trkpt lat="43.59184" lon="3.81681">
        <ele>26</ele>
        <time>2020-10-10T09:34:22.000Z</time>
      </trkpt>
      <trkpt lat="43.59186" lon="3.81687">
        <ele>26</ele>
        <time>2020-10-10T09:34:23.000Z</time>
      </trkpt>
      <trkpt lat="43.59188" lon="3.81693">
        <ele>26</ele>
        <time>2020-10-10T09:34:24.000Z</time>
      </trkpt>
      <trkpt lat="43.5919" lon="3.81699">
        <ele>26</ele>
        <time>2020-10-10T09:34:25.000Z</time>
      </trkpt>
      <trkpt lat="43.59192" lon="3.81704">
        <ele>26</ele>
        <time>2020-10-10T09:34:26.000Z</time>
      </trkpt>
      <trkpt lat="43.59194" lon="3.8171">
        <ele>26</ele>
        <time>2020-10-10T09:34:27.000Z</time>
      </trkpt>
      <trkpt lat="43.59196" lon="3.81716">
        <ele>26</ele>
        <time>2020-10-10T09:34:28.000Z</time>
      </trkpt>
      <trkpt lat="43.59198" lon="3.81723">
        <ele>26</ele>
        <time>2020-10-10T09:34:29.000Z</time>
      </trkpt>
      <trkpt lat="43.592" lon="3.81729">
        <ele>26</ele>
        <time>2020-10-10T09:34:30.000Z</time>
      </trkpt>
      <trkpt lat="43.59202" lon="3.81736">
        <ele>26</ele>
        <time>2020-10-10T09:34:31.000Z</time>
      </trkpt>
      <trkpt lat="43.59204" lon="3.81742">
        <ele>26</ele>
        <time>2020-10-10T09:34:32.000Z</time>
      </trkpt>
      <trkpt lat="43.59206" lon="3.81749">
        <ele>26</ele>
        <time>2020-10-10T09:34:33.000Z</time>
      </trkpt>
      <trkpt lat="43.59208" lon="3.81756">
        <ele>26</ele>
        <time>2020-10-10T09:34:34.000Z</time>
      </trkpt>
      <trkpt lat="43.59209" lon="3.81764">
        <ele>26</ele>
        <time>2020-10-10T09:34:35.000Z</time>
      </trkpt>
      <trkpt lat="43.59211" lon="3.81771">
        <ele>26</ele>
        <time>2020-10-10T09:34:36.000Z</time>
      </trkpt>
      <trkpt lat="43.59214" lon="3.81778">
        <ele>26</ele>
        <time>2020-10-10T09:34:37.000Z</time>
      </trkpt>
      <trkpt lat="43.59217" lon="3.81783">
        <ele>25.969902620643</ele>
        <time>2020-10-10T09:34:38.000Z</time>
      </trkpt>
      <trkpt lat="43.59222" lon="3.81786">
        <ele>25.872815302328</ele>
        <time>2020-10-10T09:34:39.000Z</time>
      </trkpt>
      <trkpt lat="43.59227" lon="3.81787">
        <ele>25.775727984014</ele>
        <time>2020-10-10T09:34:40.000Z</time>
      </trkpt>
      <trkpt lat="43.59232" lon="3.81788">
        <ele>25.678640665699</ele>
        <time>2020-10-10T09:34:41.000Z</time>
      </trkpt>
      <trkpt lat="43.59237" lon="3.81789">
        <ele>25.581553347384</ele>
        <time>2020-10-10T09:34:42.000Z</time>
      </trkpt>
      <trkpt lat="43.59242" lon="3.8179">
        <ele>25.48446602907</ele>
        <time>2020-10-10T09:34:43.000Z</time>
      </trkpt>
      <trkpt lat="43.59247" lon="3.81791">
        <ele>25.387378710755</ele>
        <time>2020-10-10T09:34:44.000Z</time>
      </trkpt>
      <trkpt lat="43.59252" lon="3.81791">
        <ele>25.29029139244</ele>
        <time>2020-10-10T09:34:45.000Z</time>
      </trkpt>
      <trkpt lat="43.59257" lon="3.81795">
        <ele>25.193204074126</ele>
        <time>2020-10-10T09:34:46.000Z</time>
      </trkpt>
      <trkpt lat="43.59261" lon="3.81801">
        <ele>25.096116755811</ele>
        <time>2020-10-10T09:34:47.000Z</time>
      </trkpt>
      <trkpt lat="43.59263" lon="3.81808">
        <ele>24.99900032</ele>
        <time>2020-10-10T09:34:48.000Z</time>
      </trkpt>
      <trkpt lat="43.59265" lon="3.81816">
        <ele>24.89900032</ele>
        <time>2020-10-10T09:34:49.000Z</time>
      </trkpt>
      <trkpt lat="43.59267" lon="3.81823">
        <ele>24.79900032</ele>
        <time>2020-10-10T09:34:50.000Z</time>
      </trkpt>
      <trkpt lat="43.59268" lon="3.8183">
        <ele>24.69900032</ele>
        <time>2020-10-10T09:34:51.000Z</time>
      </trkpt>
      <trkpt lat="43.59269" lon="3.81837">
        <ele>24.59900032</ele>
        <time>2020-10-10T09:34:52.000Z</time>
      </trkpt>
      <trkpt lat="43.5927" lon="3.81845">
        <ele>24.49900032</ele>
        <time>2020-10-10T09:34:53.000Z</time>
      </trkpt>
      <trkpt lat="43.59271" lon="3.81851">
        <ele>24.39900032</ele>
        <time>2020-10-10T09:34:54.000Z</time>
      </trkpt>
      <trkpt lat="43.59273" lon="3.81858">
        <ele>24.29900032</ele>
        <time>2020-10-10T09:34:55.000Z</time>
      </trkpt>
      <trkpt lat="43.59274" lon="3.81865">
        <ele>24.19900032</ele>
        <time>2020-10-10T09:34:56.000Z</time>
      </trkpt>
      <trkpt lat="43.59275" lon="3.81872">
        <ele>24.09900032</ele>
        <time>2020-10-10T09:34:57.000Z</time>
      </trkpt>
      <trkpt lat="43.59276" lon="3.81878">
        <ele>24.001001684009</ele>
        <time>2020-10-10T09:34:58.000Z</time>
      </trkpt>
      <trkpt lat="43.59277" lon="3.81884">
        <ele>24.101202149068</ele>
        <time>2020-10-10T09:34:59.000Z</time>
      </trkpt>
      <trkpt lat="43.59278" lon="3.8189">
        <ele>24.201402614126</ele>
        <time>2020-10-10T09:35:00.000Z</time>
      </trkpt>
      <trkpt lat="43.59279" lon="3.81896">
        <ele>24.301603079184</ele>
        <time>2020-10-10T09:35:01.000Z</time>
      </trkpt>
      <trkpt lat="43.59281" lon="3.81902">
        <ele>24.401803544243</ele>
        <time>2020-10-10T09:35:02.000Z</time>
      </trkpt>
      <trkpt lat="43.59282" lon="3.81907">
        <ele>24.502004009301</ele>
        <time>2020-10-10T09:35:03.000Z</time>
      </trkpt>
      <trkpt lat="43.59283" lon="3.81913">
        <ele>24.60220447436</ele>
        <time>2020-10-10T09:35:04.000Z</time>
      </trkpt>
      <trkpt lat="43.59285" lon="3.81918">
        <ele>24.702404939418</ele>
        <time>2020-10-10T09:35:05.000Z</time>
      </trkpt>
      <trkpt lat="43.59286" lon="3.81923">
        <ele>24.802605404476</ele>
        <time>2020-10-10T09:35:06.000Z</time>
      </trkpt>
      <trkpt lat="43.59287" lon="3.81928">
        <ele>24.902805869535</ele>
        <time>2020-10-10T09:35:07.000Z</time>
      </trkpt>
      <trkpt lat="43.59287" lon="3.81933">
        <ele>25</ele>
        <time>2020-10-10T09:35:08.000Z</time>
      </trkpt>
      <trkpt lat="43.59288" lon="3.81938">
        <ele>25</ele>
        <time>2020-10-10T09:35:09.000Z</time>
      </trkpt>
      <trkpt lat="43.59289" lon="3.81943">
        <ele>25</ele>
        <time>2020-10-10T09:35:10.000Z</time>
      </trkpt>
      <trkpt lat="43.5929" lon="3.81948">
        <ele>25</ele>
        <time>2020-10-10T09:35:11.000Z</time>
      </trkpt>
      <trkpt lat="43.59291" lon="3.81953">
        <ele>25</ele>
        <time>2020-10-10T09:35:12.000Z</time>
      </trkpt>
      <trkpt lat="43.59292" lon="3.81958">
        <ele>25</ele>
        <time>2020-10-10T09:35:13.000Z</time>
      </trkpt>
      <trkpt lat="43.59293" lon="3.81963">
        <ele>25</ele>
        <time>2020-10-10T09:35:14.000Z</time>
      </trkpt>
      <trkpt lat="43.59294" lon="3.81969">
        <ele>25</ele>
        <time>2020-10-10T09:35:15.000Z</time>
      </trkpt>
      <trkpt lat="43.59294" lon="3.81974">
        <ele>25</ele>
        <time>2020-10-10T09:35:16.000Z</time>
      </trkpt>
      <trkpt lat="43.59295" lon="3.8198">
        <ele>25</ele>
        <time>2020-10-10T09:35:17.000Z</time>
      </trkpt>
      <trkpt lat="43.59296" lon="3.81985">
        <ele>25</ele>
        <time>2020-10-10T09:35:18.000Z</time>
      </trkpt>
      <trkpt lat="43.59297" lon="3.81991">
        <ele>25</ele>
        <time>2020-10-10T09:35:19.000Z</time>
      </trkpt>
      <trkpt lat="43.59298" lon="3.81997">
        <ele>25</ele>
        <time>2020-10-10T09:35:20.000Z</time>
      </trkpt>
      <trkpt lat="43.59299" lon="3.82002">
        <ele>25</ele>
        <time>2020-10-10T09:35:21.000Z</time>
      </trkpt>
      <trkpt lat="43.59301" lon="3.82008">
        <ele>25</ele>
        <time>2020-10-10T09:35:22.000Z</time>
      </trkpt>
      <trkpt lat="43.59304" lon="3.82012">
        <ele>25</ele>
        <time>2020-10-10T09:35:23.000Z</time>
      </trkpt>
      <trkpt lat="43.59308" lon="3.82015">
        <ele>25</ele>
        <time>2020-10-10T09:35:24.000Z</time>
      </trkpt>
      <trkpt lat="43.59312" lon="3.82017">
        <ele>25</ele>
        <time>2020-10-10T09:35:25.000Z</time>
      </trkpt>
      <trkpt lat="43.59316" lon="3.82019">
        <ele>25</ele>
        <time>2020-10-10T09:35:26.000Z</time>
      </trkpt>
      <trkpt lat="43.5932" lon="3.82023">
        <ele>25</ele>
        <time>2020-10-10T09:35:27.000Z</time>
      </trkpt>
      <trkpt lat="43.59323" lon="3.82027">
        <ele>25</ele>
        <time>2020-10-10T09:35:28.000Z</time>
      </trkpt>
      <trkpt lat="43.59326" lon="3.82032">
        <ele>25</ele>
        <time>2020-10-10T09:35:29.000Z</time>
      </trkpt>
      <trkpt lat="43.5933" lon="3.82035">
        <ele>25</ele>
        <time>2020-10-10T09:35:30.000Z</time>
      </trkpt>
      <trkpt lat="43.59334" lon="3.82037">
        <ele>25</ele>
        <time>2020-10-10T09:35:31.000Z</time>
      </trkpt>
      <trkpt lat="43.59338" lon="3.82039">
        <ele>25</ele>
        <time>2020-10-10T09:35:32.000Z</time>
      </trkpt>
      <trkpt lat="43.59343" lon="3.82041">
        <ele>25</ele>
        <time>2020-10-10T09:35:33.000Z</time>
      </trkpt>
      <trkpt lat="43.59347" lon="3.82042">
        <ele>25</ele>
        <time>2020-10-10T09:35:34.000Z</time>
      </trkpt>
      <trkpt lat="43.59352" lon="3.82043">
        <ele>25</ele>
        <time>2020-10-10T09:35:35.000Z</time>
      </trkpt>
      <trkpt lat="43.59356" lon="3.82045">
        <ele>25</ele>
        <time>2020-10-10T09:35:36.000Z</time>
      </trkpt>
      <trkpt lat="43.5936" lon="3.82048">
        <ele>25</ele>
        <time>2020-10-10T09:35:37.000Z</time>
      </trkpt>
      <trkpt lat="43.59363" lon="3.82053">
        <ele>25.011224816327</ele>
        <time>2020-10-10T09:35:38.000Z</time>
      </trkpt>
      <trkpt lat="43.59366" lon="3.82058">
        <ele>25.113265632653</ele>
        <time>2020-10-10T09:35:39.000Z</time>
      </trkpt>
      <trkpt lat="43.59367" lon="3.82064">
        <ele>25.21530644898</ele>
        <time>2020-10-10T09:35:40.000Z</time>
      </trkpt>
      <trkpt lat="43.59366" lon="3.8207">
        <ele>25.317347265306</ele>
        <time>2020-10-10T09:35:41.000Z</time>
      </trkpt>
      <trkpt lat="43.59364" lon="3.82075">
        <ele>25.419388081633</ele>
        <time>2020-10-10T09:35:42.000Z</time>
      </trkpt>
      <trkpt lat="43.59361" lon="3.82079">
        <ele>25.521428897959</ele>
        <time>2020-10-10T09:35:43.000Z</time>
      </trkpt>
      <trkpt lat="43.59357" lon="3.82082">
        <ele>25.623469714286</ele>
        <time>2020-10-10T09:35:44.000Z</time>
      </trkpt>
      <trkpt lat="43.59353" lon="3.82084">
        <ele>25.725510530612</ele>
        <time>2020-10-10T09:35:45.000Z</time>
      </trkpt>
      <trkpt lat="43.59349" lon="3.82086">
        <ele>25.827551346939</ele>
        <time>2020-10-10T09:35:46.000Z</time>
      </trkpt>
      <trkpt lat="43.59345" lon="3.82088">
        <ele>25.929592163265</ele>
        <time>2020-10-10T09:35:47.000Z</time>
      </trkpt>
      <trkpt lat="43.59341" lon="3.82091">
        <ele>26.030155953307</ele>
        <time>2020-10-10T09:35:48.000Z</time>
      </trkpt>
      <trkpt lat="43.59338" lon="3.82094">
        <ele>26.127432217899</ele>
        <time>2020-10-10T09:35:49.000Z</time>
      </trkpt>
      <trkpt lat="43.59335" lon="3.82097">
        <ele>26.22470848249</ele>
        <time>2020-10-10T09:35:50.000Z</time>
      </trkpt>
      <trkpt lat="43.59333" lon="3.82101">
        <ele>26.321984747082</ele>
        <time>2020-10-10T09:35:51.000Z</time>
      </trkpt>
      <trkpt lat="43.59331" lon="3.82104">
        <ele>26.419261011673</ele>
        <time>2020-10-10T09:35:52.000Z</time>
      </trkpt>
      <trkpt lat="43.59329" lon="3.82108">
        <ele>26.516537276265</ele>
        <time>2020-10-10T09:35:53.000Z</time>
      </trkpt>
      <trkpt lat="43.59327" lon="3.82112">
        <ele>26.613813540856</ele>
        <time>2020-10-10T09:35:54.000Z</time>
      </trkpt>
      <trkpt lat="43.59325" lon="3.82116">
        <ele>26.711089805448</ele>
        <time>2020-10-10T09:35:55.000Z</time>
      </trkpt>
      <trkpt lat="43.59323" lon="3.8212">
        <ele>26.808366070039</ele>
        <time>2020-10-10T09:35:56.000Z</time>
      </trkpt>
      <trkpt lat="43.59321" lon="3.82123">
        <ele>26.90564233463</ele>
        <time>2020-10-10T09:35:57.000Z</time>
      </trkpt>
      <trkpt lat="43.5932" lon="3.82127">
        <ele>27.003086748971</ele>
        <time>2020-10-10T09:35:58.000Z</time>
      </trkpt>
      <trkpt lat="43.59318" lon="3.8213">
        <ele>27.105967407407</ele>
        <time>2020-10-10T09:35:59.000Z</time>
      </trkpt>
      <trkpt lat="43.59317" lon="3.82134">
        <ele>27.208848065844</ele>
        <time>2020-10-10T09:36:00.000Z</time>
      </trkpt>
      <trkpt lat="43.59316" lon="3.82138">
        <ele>27.31172872428</ele>
        <time>2020-10-10T09:36:01.000Z</time>
      </trkpt>
      <trkpt lat="43.59317" lon="3.82142">
        <ele>27.414609382716</ele>
        <time>2020-10-10T09:36:02.000Z</time>
      </trkpt>
      <trkpt lat="43.5932" lon="3.82144">
        <ele>27.517490041152</ele>
        <time>2020-10-10T09:36:03.000Z</time>
      </trkpt>
      <trkpt lat="43.59323" lon="3.82145">
        <ele>27.620370699588</ele>
        <time>2020-10-10T09:36:04.000Z</time>
      </trkpt>
      <trkpt lat="43.59326" lon="3.82143">
        <ele>27.723251358025</ele>
        <time>2020-10-10T09:36:05.000Z</time>
      </trkpt>
      <trkpt lat="43.59329" lon="3.8214">
        <ele>27.826132016461</ele>
        <time>2020-10-10T09:36:06.000Z</time>
      </trkpt>
      <trkpt lat="43.59332" lon="3.82137">
        <ele>27.929012674897</ele>
        <time>2020-10-10T09:36:07.000Z</time>
      </trkpt>
      <trkpt lat="43.59335" lon="3.82134">
        <ele>28.030876812749</ele>
        <time>2020-10-10T09:36:08.000Z</time>
      </trkpt>
      <trkpt lat="43.59337" lon="3.8213">
        <ele>28.130478406375</ele>
        <time>2020-10-10T09:36:09.000Z</time>
      </trkpt>
      <trkpt lat="43.5934" lon="3.82127">
        <ele>28.23008</ele>
        <time>2020-10-10T09:36:10.000Z</time>
      </trkpt>
      <trkpt lat="43.59342" lon="3.82125">
        <ele>28.329681593626</ele>
        <time>2020-10-10T09:36:11.000Z</time>
      </trkpt>
      <trkpt lat="43.59345" lon="3.82122">
        <ele>28.429283187251</ele>
        <time>2020-10-10T09:36:12.000Z</time>
      </trkpt>
      <trkpt lat="43.59347" lon="3.8212">
        <ele>28.528884780876</ele>
        <time>2020-10-10T09:36:13.000Z</time>
      </trkpt>
      <trkpt lat="43.5935" lon="3.82117">
        <ele>28.628486374502</ele>
        <time>2020-10-10T09:36:14.000Z</time>
      </trkpt>
      <trkpt lat="43.59352" lon="3.82114">
        <ele>28.728087968128</ele>
        <time>2020-10-10T09:36:15.000Z</time>
      </trkpt>
      <trkpt lat="43.59354" lon="3.82112">
        <ele>28.827689561753</ele>
        <time>2020-10-10T09:36:16.000Z</time>
      </trkpt>
      <trkpt lat="43.59356" lon="3.82109">
        <ele>28.927291155379</ele>
        <time>2020-10-10T09:36:17.000Z</time>
      </trkpt>
      <trkpt lat="43.59358" lon="3.82107">
        <ele>29.027135991273</ele>
        <time>2020-10-10T09:36:18.000Z</time>
      </trkpt>
      <trkpt lat="43.5936" lon="3.82104">
        <ele>29.127638471513</ele>
        <time>2020-10-10T09:36:19.000Z</time>
      </trkpt>
      <trkpt lat="43.59363" lon="3.82102">
        <ele>29.228140951754</ele>
        <time>2020-10-10T09:36:20.000Z</time>
      </trkpt>
      <trkpt lat="43.59366" lon="3.821">
        <ele>29.328643431994</ele>
        <time>2020-10-10T09:36:21.000Z</time>
      </trkpt>
      <trkpt lat="43.59368" lon="3.82098">
        <ele>29.429145912234</ele>
        <time>2020-10-10T09:36:22.000Z</time>
      </trkpt>
      <trkpt lat="43.59371" lon="3.82096">
        <ele>29.529648392475</ele>
        <time>2020-10-10T09:36:23.000Z</time>
      </trkpt>
      <trkpt lat="43.59374" lon="3.82093">
        <ele>29.630150872715</ele>
        <time>2020-10-10T09:36:24.000Z</time>
      </trkpt>
      <trkpt lat="43.59376" lon="3.82091">
        <ele>29.730653352956</ele>
        <time>2020-10-10T09:36:25.000Z</time>
      </trkpt>
      <trkpt lat="43.59379" lon="3.82088">
        <ele>29.831155833196</ele>
        <time>2020-10-10T09:36:26.000Z</time>
      </trkpt>
      <trkpt lat="43.59382" lon="3.82086">
        <ele>29.931658313437</ele>
        <time>2020-10-10T09:36:27.000Z</time>
      </trkpt>
      <trkpt lat="43.59385" lon="3.82083">
        <ele>30</ele>
        <time>2020-10-10T09:36:28.000Z</time>
      </trkpt>
      <trkpt lat="43.59388" lon="3.8208">
        <ele>30</ele>
        <time>2020-10-10T09:36:29.000Z</time>
      </trkpt>
      <trkpt lat="43.59392" lon="3.82078">
        <ele>30</ele>
        <time>2020-10-10T09:36:30.000Z</time>
      </trkpt>
      <trkpt lat="43.59396" lon="3.82076">
        <ele>30</ele>
        <time>2020-10-10T09:36:31.000Z</time>
      </trkpt>
      <trkpt lat="43.594" lon="3.82074">
        <ele>30</ele>
        <time>2020-10-10T09:36:32.000Z</time>
      </trkpt>
      <trkpt lat="43.59405" lon="3.82075">
        <ele>30</ele>
        <time>2020-10-10T09:36:33.000Z</time>
      </trkpt>
      <trkpt lat="43.59409" lon="3.82079">
        <ele>30</ele>
        <time>2020-10-10T09:36:34.000Z</time>
      </trkpt>
      <trkpt lat="43.59412" lon="3.82083">
        <ele>30</ele>
        <time>2020-10-10T09:36:35.000Z</time>
      </trkpt>
      <trkpt lat="43.59415" lon="3.82087">
        <ele>30</ele>
        <time>2020-10-10T09:36:36.000Z</time>
      </trkpt>
      <trkpt lat="43.59418" lon="3.82091">
        <ele>30</ele>
        <time>2020-10-10T09:36:37.000Z</time>
      </trkpt>
      <trkpt lat="43.5942" lon="3.82094">
        <ele>30.031968042188</ele>
        <time>2020-10-10T09:36:38.000Z</time>
      </trkpt>
      <trkpt lat="43.59423" lon="3.82097">
        <ele>30.131868174024</ele>
        <time>2020-10-10T09:36:39.000Z</time>
      </trkpt>
      <trkpt lat="43.59425" lon="3.821">
        <ele>30.23176830586</ele>
        <time>2020-10-10T09:36:40.000Z</time>
      </trkpt>
      <trkpt lat="43.59427" lon="3.82103">
        <ele>30.331668437696</ele>
        <time>2020-10-10T09:36:41.000Z</time>
      </trkpt>
      <trkpt lat="43.59429" lon="3.82106">
        <ele>30.431568569532</ele>
        <time>2020-10-10T09:36:42.000Z</time>
      </trkpt>
      <trkpt lat="43.59431" lon="3.82109">
        <ele>30.531468701369</ele>
        <time>2020-10-10T09:36:43.000Z</time>
      </trkpt>
      <trkpt lat="43.59434" lon="3.82112">
        <ele>30.631368833205</ele>
        <time>2020-10-10T09:36:44.000Z</time>
      </trkpt>
      <trkpt lat="43.59437" lon="3.82114">
        <ele>30.731268965041</ele>
        <time>2020-10-10T09:36:45.000Z</time>
      </trkpt>
      <trkpt lat="43.59439" lon="3.82117">
        <ele>30.831169096877</ele>
        <time>2020-10-10T09:36:46.000Z</time>
      </trkpt>
      <trkpt lat="43.59442" lon="3.8212">
        <ele>30.931069228713</ele>
        <time>2020-10-10T09:36:47.000Z</time>
      </trkpt>
      <trkpt lat="43.59445" lon="3.82122">
        <ele>31.03100032</ele>
        <time>2020-10-10T09:36:48.000Z</time>
      </trkpt>
      <trkpt lat="43.59448" lon="3.82124">
        <ele>31.13100032</ele>
        <time>2020-10-10T09:36:49.000Z</time>
      </trkpt>
      <trkpt lat="43.5945" lon="3.82126">
        <ele>31.23100032</ele>
        <time>2020-10-10T09:36:50.000Z</time>
      </trkpt>
      <trkpt lat="43.59453" lon="3.82128">
        <ele>31.33100032</ele>
        <time>2020-10-10T09:36:51.000Z</time>
      </trkpt>
      <trkpt lat="43.59455" lon="3.8213">
        <ele>31.43100032</ele>
        <time>2020-10-10T09:36:52.000Z</time>
      </trkpt>
      <trkpt lat="43.59458" lon="3.82132">
        <ele>31.53100032</ele>
        <time>2020-10-10T09:36:53.000Z</time>
      </trkpt>
      <trkpt lat="43.5946" lon="3.82134">
        <ele>31.63100032</ele>
        <time>2020-10-10T09:36:54.000Z</time>
      </trkpt>
      <trkpt lat="43.59462" lon="3.82137">
        <ele>31.73100032</ele>
        <time>2020-10-10T09:36:55.000Z</time>
      </trkpt>
      <trkpt lat="43.59464" lon="3.82139">
        <ele>31.83100032</ele>
        <time>2020-10-10T09:36:56.000Z</time>
      </trkpt>
      <trkpt lat="43.59466" lon="3.82141">
        <ele>31.93100032</ele>
        <time>2020-10-10T09:36:57.000Z</time>
      </trkpt>
      <trkpt lat="43.59468" lon="3.82143">
        <ele>32.062062682823</ele>
        <time>2020-10-10T09:36:58.000Z</time>
      </trkpt>
      <trkpt lat="43.59469" lon="3.82145">
        <ele>32.262262818895</ele>
        <time>2020-10-10T09:36:59.000Z</time>
      </trkpt>
      <trkpt lat="43.5947" lon="3.82147">
        <ele>32.462462954967</ele>
        <time>2020-10-10T09:37:00.000Z</time>
      </trkpt>
      <trkpt lat="43.59472" lon="3.82149">
        <ele>32.662663091039</ele>
        <time>2020-10-10T09:37:01.000Z</time>
      </trkpt>
      <trkpt lat="43.59473" lon="3.82151">
        <ele>32.862863227111</ele>
        <time>2020-10-10T09:37:02.000Z</time>
      </trkpt>
      <trkpt lat="43.59474" lon="3.82153">
        <ele>33.063063363183</ele>
        <time>2020-10-10T09:37:03.000Z</time>
      </trkpt>
      <trkpt lat="43.59476" lon="3.82155">
        <ele>33.263263499255</ele>
        <time>2020-10-10T09:37:04.000Z</time>
      </trkpt>
      <trkpt lat="43.59477" lon="3.82157">
        <ele>33.463463635327</ele>
        <time>2020-10-10T09:37:05.000Z</time>
      </trkpt>
      <trkpt lat="43.59479" lon="3.82158">
        <ele>33.663663771399</ele>
        <time>2020-10-10T09:37:06.000Z</time>
      </trkpt>
      <trkpt lat="43.59481" lon="3.82159">
        <ele>33.863863907471</ele>
        <time>2020-10-10T09:37:07.000Z</time>
      </trkpt>
      <trkpt lat="43.59483" lon="3.8216">
        <ele>34.032</ele>
        <time>2020-10-10T09:37:08.000Z</time>
      </trkpt>
      <trkpt lat="43.59485" lon="3.82161">
        <ele>34.132</ele>
        <time>2020-10-10T09:37:09.000Z</time>
      </trkpt>
      <trkpt lat="43.59487" lon="3.82162">
        <ele>34.232</ele>
        <time>2020-10-10T09:37:10.000Z</time>
      </trkpt>
      <trkpt lat="43.59489" lon="3.82163">
        <ele>34.332</ele>
        <time>2020-10-10T09:37:11.000Z</time>
      </trkpt>
      <trkpt lat="43.59491" lon="3.82165">
        <ele>34.432</ele>
        <time>2020-10-10T09:37:12.000Z</time>
      </trkpt>
      <trkpt lat="43.59493" lon="3.82166">
        <ele>34.532</ele>
        <time>2020-10-10T09:37:13.000Z</time>
      </trkpt>
      <trkpt lat="43.59495" lon="3.82167">
        <ele>34.632</ele>
        <time>2020-10-10T09:37:14.000Z</time>
      </trkpt>
      <trkpt lat="43.59497" lon="3.82168">
        <ele>34.732</ele>
        <time>2020-10-10T09:37:15.000Z</time>
      </trkpt>
      <trkpt lat="43.59499" lon="3.82168">
        <ele>34.832</ele>
        <time>2020-10-10T09:37:16.000Z</time>
      </trkpt>
      <trkpt lat="43.59501" lon="3.82169">
        <ele>34.932</ele>
        <time>2020-10-10T09:37:17.000Z</time>
      </trkpt>
      <trkpt lat="43.59504" lon="3.82169">
        <ele>35.031968042188</ele>
        <time>2020-10-10T09:37:18.000Z</time>
      </trkpt>
      <trkpt lat="43.59506" lon="3.82169">
        <ele>35.131868174024</ele>
        <time>2020-10-10T09:37:19.000Z</time>
      </trkpt>
      <trkpt lat="43.59508" lon="3.8217">
        <ele>35.23176830586</ele>
        <time>2020-10-10T09:37:20.000Z</time>
      </trkpt>
      <trkpt lat="43.5951" lon="3.8217">
        <ele>35.331668437696</ele>
        <time>2020-10-10T09:37:21.000Z</time>
      </trkpt>
      <trkpt lat="43.59513" lon="3.82171">
        <ele>35.431568569532</ele>
        <time>2020-10-10T09:37:22.000Z</time>
      </trkpt>
      <trkpt lat="43.59515" lon="3.82171">
        <ele>35.531468701369</ele>
        <time>2020-10-10T09:37:23.000Z</time>
      </trkpt>
      <trkpt lat="43.59518" lon="3.82171">
        <ele>35.631368833205</ele>
        <time>2020-10-10T09:37:24.000Z</time>
      </trkpt>
      <trkpt lat="43.5952" lon="3.82171">
        <ele>35.731268965041</ele>
        <time>2020-10-10T09:37:25.000Z</time>
      </trkpt>
      <trkpt lat="43.59522" lon="3.82172">
        <ele>35.831169096877</ele>
        <time>2020-10-10T09:37:26.000Z</time>
      </trkpt>
      <trkpt lat="43.59524" lon="3.82173">
        <ele>35.931069228713</ele>
        <time>2020-10-10T09:37:27.000Z</time>
      </trkpt>
      <trkpt lat="43.59527" lon="3.82174">
        <ele>36.09300096</ele>
        <time>2020-10-10T09:37:28.000Z</time>
      </trkpt>
      <trkpt lat="43.5953" lon="3.82174">
        <ele>36.39300096</ele>
        <time>2020-10-10T09:37:29.000Z</time>
      </trkpt>
      <trkpt lat="43.59532" lon="3.82174">
        <ele>36.69300096</ele>
        <time>2020-10-10T09:37:30.000Z</time>
      </trkpt>
      <trkpt lat="43.59535" lon="3.82175">
        <ele>36.99300096</ele>
        <time>2020-10-10T09:37:31.000Z</time>
      </trkpt>
      <trkpt lat="43.59537" lon="3.82175">
        <ele>37.29300096</ele>
        <time>2020-10-10T09:37:32.000Z</time>
      </trkpt>
      <trkpt lat="43.5954" lon="3.82175">
        <ele>37.59300096</ele>
        <time>2020-10-10T09:37:33.000Z</time>
      </trkpt>
      <trkpt lat="43.59542" lon="3.82175">
        <ele>37.89300096</ele>
        <time>2020-10-10T09:37:34.000Z</time>
      </trkpt>
      <trkpt lat="43.59545" lon="3.82175">
        <ele>38.19300096</ele>
        <time>2020-10-10T09:37:35.000Z</time>
      </trkpt>
      <trkpt lat="43.59547" lon="3.82176">
        <ele>38.49300096</ele>
        <time>2020-10-10T09:37:36.000Z</time>
      </trkpt>
      <trkpt lat="43.59549" lon="3.82177">
        <ele>38.79300096</ele>
        <time>2020-10-10T09:37:37.000Z</time>
      </trkpt>
      <trkpt lat="43.59551" lon="3.82177">
        <ele>39.031031341411</ele>
        <time>2020-10-10T09:37:38.000Z</time>
      </trkpt>
      <trkpt lat="43.59553" lon="3.82177">
        <ele>39.131131409447</ele>
        <time>2020-10-10T09:37:39.000Z</time>
      </trkpt>
      <trkpt lat="43.59556" lon="3.82178">
        <ele>39.231231477483</ele>
        <time>2020-10-10T09:37:40.000Z</time>
      </trkpt>
      <trkpt lat="43.59558" lon="3.82178">
        <ele>39.331331545519</ele>
        <time>2020-10-10T09:37:41.000Z</time>
      </trkpt>
      <trkpt lat="43.5956" lon="3.82178">
        <ele>39.431431613555</ele>
        <time>2020-10-10T09:37:42.000Z</time>
      </trkpt>
      <trkpt lat="43.59562" lon="3.82178">
        <ele>39.531531681592</ele>
        <time>2020-10-10T09:37:43.000Z</time>
      </trkpt>
      <trkpt lat="43.59564" lon="3.82179">
        <ele>39.631631749628</ele>
        <time>2020-10-10T09:37:44.000Z</time>
      </trkpt>
      <trkpt lat="43.59566" lon="3.8218">
        <ele>39.731731817664</ele>
        <time>2020-10-10T09:37:45.000Z</time>
      </trkpt>
      <trkpt lat="43.59568" lon="3.8218">
        <ele>39.8318318857</ele>
        <time>2020-10-10T09:37:46.000Z</time>
      </trkpt>
      <trkpt lat="43.5957" lon="3.82181">
        <ele>39.931931953735</ele>
        <time>2020-10-10T09:37:47.000Z</time>
      </trkpt>
      <trkpt lat="43.59572" lon="3.82182">
        <ele>40.095904126563</ele>
        <time>2020-10-10T09:37:48.000Z</time>
      </trkpt>
      <trkpt lat="43.59574" lon="3.82183">
        <ele>40.395604522071</ele>
        <time>2020-10-10T09:37:49.000Z</time>
      </trkpt>
      <trkpt lat="43.59576" lon="3.82184">
        <ele>40.69530491758</ele>
        <time>2020-10-10T09:37:50.000Z</time>
      </trkpt>
      <trkpt lat="43.59579" lon="3.82184">
        <ele>40.995005313089</ele>
        <time>2020-10-10T09:37:51.000Z</time>
      </trkpt>
      <trkpt lat="43.59581" lon="3.82185">
        <ele>41.294705708597</ele>
        <time>2020-10-10T09:37:52.000Z</time>
      </trkpt>
      <trkpt lat="43.59583" lon="3.82186">
        <ele>41.594406104106</ele>
        <time>2020-10-10T09:37:53.000Z</time>
      </trkpt>
      <trkpt lat="43.59585" lon="3.82186">
        <ele>41.894106499615</ele>
        <time>2020-10-10T09:37:54.000Z</time>
      </trkpt>
      <trkpt lat="43.59587" lon="3.82187">
        <ele>42.193806895123</ele>
        <time>2020-10-10T09:37:55.000Z</time>
      </trkpt>
      <trkpt lat="43.5959" lon="3.82187">
        <ele>42.493507290632</ele>
        <time>2020-10-10T09:37:56.000Z</time>
      </trkpt>
      <trkpt lat="43.59592" lon="3.82188">
        <ele>42.79320768614</ele>
        <time>2020-10-10T09:37:57.000Z</time>
      </trkpt>
      <trkpt lat="43.59594" lon="3.82189">
        <ele>43.090467859922</ele>
        <time>2020-10-10T09:37:58.000Z</time>
      </trkpt>
      <trkpt lat="43.59596" lon="3.8219">
        <ele>43.382296653696</ele>
        <time>2020-10-10T09:37:59.000Z</time>
      </trkpt>
      <trkpt lat="43.59598" lon="3.82191">
        <ele>43.674125447471</ele>
        <time>2020-10-10T09:38:00.000Z</time>
      </trkpt>
      <trkpt lat="43.59599" lon="3.82191">
        <ele>43.965954241245</ele>
        <time>2020-10-10T09:38:01.000Z</time>
      </trkpt>
      <trkpt lat="43.59601" lon="3.82192">
        <ele>44.25778303502</ele>
        <time>2020-10-10T09:38:02.000Z</time>
      </trkpt>
      <trkpt lat="43.59603" lon="3.82193">
        <ele>44.549611828794</ele>
        <time>2020-10-10T09:38:03.000Z</time>
      </trkpt>
      <trkpt lat="43.59605" lon="3.82194">
        <ele>44.841440622568</ele>
        <time>2020-10-10T09:38:04.000Z</time>
      </trkpt>
      <trkpt lat="43.59606" lon="3.82195">
        <ele>45.133269416342</ele>
        <time>2020-10-10T09:38:05.000Z</time>
      </trkpt>
      <trkpt lat="43.59608" lon="3.82196">
        <ele>45.425098210117</ele>
        <time>2020-10-10T09:38:06.000Z</time>
      </trkpt>
      <trkpt lat="43.5961" lon="3.82196">
        <ele>45.716927003891</ele>
        <time>2020-10-10T09:38:07.000Z</time>
      </trkpt>
      <trkpt lat="43.59612" lon="3.82197">
        <ele>46.00598865885</ele>
        <time>2020-10-10T09:38:08.000Z</time>
      </trkpt>
      <trkpt lat="43.59614" lon="3.82198">
        <ele>46.205589329763</ele>
        <time>2020-10-10T09:38:09.000Z</time>
      </trkpt>
      <trkpt lat="43.59615" lon="3.82198">
        <ele>46.405190000677</ele>
        <time>2020-10-10T09:38:10.000Z</time>
      </trkpt>
      <trkpt lat="43.59617" lon="3.82199">
        <ele>46.604790671591</ele>
        <time>2020-10-10T09:38:11.000Z</time>
      </trkpt>
      <trkpt lat="43.59619" lon="3.822">
        <ele>46.804391342505</ele>
        <time>2020-10-10T09:38:12.000Z</time>
      </trkpt>
      <trkpt lat="43.59621" lon="3.82201">
        <ele>47.003992013418</ele>
        <time>2020-10-10T09:38:13.000Z</time>
      </trkpt>
      <trkpt lat="43.59623" lon="3.82202">
        <ele>47.203592684332</ele>
        <time>2020-10-10T09:38:14.000Z</time>
      </trkpt>
      <trkpt lat="43.59626" lon="3.82203">
        <ele>47.60279402616</ele>
        <time>2020-10-10T09:38:16.000Z</time>
      </trkpt>
      <trkpt lat="43.59629" lon="3.82205">
        <ele>48.002061197236</ele>
        <time>2020-10-10T09:38:18.000Z</time>
      </trkpt>
      <trkpt lat="43.59632" lon="3.82207">
        <ele>48.414432603337</ele>
        <time>2020-10-10T09:38:20.000Z</time>
      </trkpt>
      <trkpt lat="43.59634" lon="3.82208">
        <ele>48.620618306387</ele>
        <time>2020-10-10T09:38:21.000Z</time>
      </trkpt>
      <trkpt lat="43.59637" lon="3.8221">
        <ele>49.032989712488</ele>
        <time>2020-10-10T09:38:23.000Z</time>
      </trkpt>
      <trkpt lat="43.59639" lon="3.8221">
        <ele>49.239175415538</ele>
        <time>2020-10-10T09:38:24.000Z</time>
      </trkpt>
      <trkpt lat="43.59641" lon="3.82211">
        <ele>49.445361118589</ele>
        <time>2020-10-10T09:38:25.000Z</time>
      </trkpt>
      <trkpt lat="43.59643" lon="3.82212">
        <ele>49.651546821639</ele>
        <time>2020-10-10T09:38:26.000Z</time>
      </trkpt>
      <trkpt lat="43.59644" lon="3.82213">
        <ele>49.85773252469</ele>
        <time>2020-10-10T09:38:27.000Z</time>
      </trkpt>
      <trkpt lat="43.59646" lon="3.82215">
        <ele>50.061753625498</ele>
        <time>2020-10-10T09:38:28.000Z</time>
      </trkpt>
      <trkpt lat="43.59647" lon="3.82216">
        <ele>50.260956812749</ele>
        <time>2020-10-10T09:38:29.000Z</time>
      </trkpt>
      <trkpt lat="43.59649" lon="3.82218">
        <ele>50.46016</ele>
        <time>2020-10-10T09:38:30.000Z</time>
      </trkpt>
      <trkpt lat="43.5965" lon="3.8222">
        <ele>50.659363187251</ele>
        <time>2020-10-10T09:38:31.000Z</time>
      </trkpt>
      <trkpt lat="43.59653" lon="3.82223">
        <ele>51.057769561753</ele>
        <time>2020-10-10T09:38:33.000Z</time>
      </trkpt>
      <trkpt lat="43.59654" lon="3.82224">
        <ele>51.256972749004</ele>
        <time>2020-10-10T09:38:34.000Z</time>
      </trkpt>
      <trkpt lat="43.59657" lon="3.82227">
        <ele>51.655379123506</ele>
        <time>2020-10-10T09:38:36.000Z</time>
      </trkpt>
      <trkpt lat="43.59658" lon="3.82229">
        <ele>51.854582310757</ele>
        <time>2020-10-10T09:38:37.000Z</time>
      </trkpt>
      <trkpt lat="43.5966" lon="3.82231">
        <ele>52.02710875502</ele>
        <time>2020-10-10T09:38:38.000Z</time>
      </trkpt>
      <trkpt lat="43.59661" lon="3.82233">
        <ele>52.127510361446</ele>
        <time>2020-10-10T09:38:39.000Z</time>
      </trkpt>
      <trkpt lat="43.59662" lon="3.82235">
        <ele>52.227911967871</ele>
        <time>2020-10-10T09:38:40.000Z</time>
      </trkpt>
      <trkpt lat="43.59663" lon="3.82237">
        <ele>52.328313574297</ele>
        <time>2020-10-10T09:38:41.000Z</time>
      </trkpt>
      <trkpt lat="43.59664" lon="3.82239">
        <ele>52.428715180723</ele>
        <time>2020-10-10T09:38:42.000Z</time>
      </trkpt>
      <trkpt lat="43.59666" lon="3.82241">
        <ele>52.529116787149</ele>
        <time>2020-10-10T09:38:43.000Z</time>
      </trkpt>
      <trkpt lat="43.59667" lon="3.82244">
        <ele>52.629518393574</ele>
        <time>2020-10-10T09:38:44.000Z</time>
      </trkpt>
      <trkpt lat="43.59668" lon="3.82246">
        <ele>52.72992</ele>
        <time>2020-10-10T09:38:45.000Z</time>
      </trkpt>
      <trkpt lat="43.59668" lon="3.82249">
        <ele>52.830321606426</ele>
        <time>2020-10-10T09:38:46.000Z</time>
      </trkpt>
      <trkpt lat="43.59669" lon="3.82252">
        <ele>52.930723212851</ele>
        <time>2020-10-10T09:38:47.000Z</time>
      </trkpt>
      <trkpt lat="43.5967" lon="3.82254">
        <ele>53.06200064</ele>
        <time>2020-10-10T09:38:48.000Z</time>
      </trkpt>
      <trkpt lat="43.5967" lon="3.82257">
        <ele>53.26200064</ele>
        <time>2020-10-10T09:38:49.000Z</time>
      </trkpt>
      <trkpt lat="43.59671" lon="3.82259">
        <ele>53.46200064</ele>
        <time>2020-10-10T09:38:50.000Z</time>
      </trkpt>
      <trkpt lat="43.59672" lon="3.82261">
        <ele>53.66200064</ele>
        <time>2020-10-10T09:38:51.000Z</time>
      </trkpt>
      <trkpt lat="43.59674" lon="3.82263">
        <ele>53.86200064</ele>
        <time>2020-10-10T09:38:52.000Z</time>
      </trkpt>
      <trkpt lat="43.59675" lon="3.82265">
        <ele>54.06200064</ele>
        <time>2020-10-10T09:38:53.000Z</time>
      </trkpt>
      <trkpt lat="43.59677" lon="3.82266">
        <ele>54.26200064</ele>
        <time>2020-10-10T09:38:54.000Z</time>
      </trkpt>
      <trkpt lat="43.59679" lon="3.82266">
        <ele>54.46200064</ele>
        <time>2020-10-10T09:38:55.000Z</time>
      </trkpt>
      <trkpt lat="43.59681" lon="3.82266">
        <ele>54.66200064</ele>
        <time>2020-10-10T09:38:56.000Z</time>
      </trkpt>
      <trkpt lat="43.59683" lon="3.82266">
        <ele>54.86200064</ele>
        <time>2020-10-10T09:38:57.000Z</time>
      </trkpt>
      <trkpt lat="43.59685" lon="3.82265">
        <ele>55.03100032</ele>
        <time>2020-10-10T09:38:58.000Z</time>
      </trkpt>
      <trkpt lat="43.59688" lon="3.82266">
        <ele>55.13100032</ele>
        <time>2020-10-10T09:38:59.000Z</time>
      </trkpt>
      <trkpt lat="43.5969" lon="3.82266">
        <ele>55.23100032</ele>
        <time>2020-10-10T09:39:00.000Z</time>
      </trkpt>
      <trkpt lat="43.59692" lon="3.82266">
        <ele>55.33100032</ele>
        <time>2020-10-10T09:39:01.000Z</time>
      </trkpt>
      <trkpt lat="43.59694" lon="3.82265">
        <ele>55.43100032</ele>
        <time>2020-10-10T09:39:02.000Z</time>
      </trkpt>
      <trkpt lat="43.59697" lon="3.82265">
        <ele>55.53100032</ele>
        <time>2020-10-10T09:39:03.000Z</time>
      </trkpt>
      <trkpt lat="43.59699" lon="3.82265">
        <ele>55.63100032</ele>
        <time>2020-10-10T09:39:04.000Z</time>
      </trkpt>
      <trkpt lat="43.59701" lon="3.82265">
        <ele>55.73100032</ele>
        <time>2020-10-10T09:39:05.000Z</time>
      </trkpt>
      <trkpt lat="43.59703" lon="3.82265">
        <ele>55.83100032</ele>
        <time>2020-10-10T09:39:06.000Z</time>
      </trkpt>
      <trkpt lat="43.59706" lon="3.82265">
        <ele>55.93100032</ele>
        <time>2020-10-10T09:39:07.000Z</time>
      </trkpt>
      <trkpt lat="43.59708" lon="3.82265">
        <ele>56.031031341411</ele>
        <time>2020-10-10T09:39:08.000Z</time>
      </trkpt>
      <trkpt lat="43.5971" lon="3.82266">
        <ele>56.131131409447</ele>
        <time>2020-10-10T09:39:09.000Z</time>
      </trkpt>
      <trkpt lat="43.59712" lon="3.82266">
        <ele>56.231231477483</ele>
        <time>2020-10-10T09:39:10.000Z</time>
      </trkpt>
      <trkpt lat="43.59714" lon="3.82266">
        <ele>56.331331545519</ele>
        <time>2020-10-10T09:39:11.000Z</time>
      </trkpt>
      <trkpt lat="43.59716" lon="3.82266">
        <ele>56.431431613555</ele>
        <time>2020-10-10T09:39:12.000Z</time>
      </trkpt>
      <trkpt lat="43.59719" lon="3.82266">
        <ele>56.531531681592</ele>
        <time>2020-10-10T09:39:13.000Z</time>
      </trkpt>
      <trkpt lat="43.59721" lon="3.82267">
        <ele>56.631631749628</ele>
        <time>2020-10-10T09:39:14.000Z</time>
      </trkpt>
      <trkpt lat="43.59723" lon="3.82267">
        <ele>56.731731817664</ele>
        <time>2020-10-10T09:39:15.000Z</time>
      </trkpt>
      <trkpt lat="43.59725" lon="3.82268">
        <ele>56.8318318857</ele>
        <time>2020-10-10T09:39:16.000Z</time>
      </trkpt>
      <trkpt lat="43.59727" lon="3.82268">
        <ele>56.931931953735</ele>
        <time>2020-10-10T09:39:17.000Z</time>
      </trkpt>
      <trkpt lat="43.59729" lon="3.82268">
        <ele>57.03190427696</ele>
        <time>2020-10-10T09:39:18.000Z</time>
      </trkpt>
      <trkpt lat="43.59731" lon="3.82269">
        <ele>57.131605142459</ele>
        <time>2020-10-10T09:39:19.000Z</time>
      </trkpt>
      <trkpt lat="43.59734" lon="3.82269">
        <ele>57.231306007958</ele>
        <time>2020-10-10T09:39:20.000Z</time>
      </trkpt>
      <trkpt lat="43.59736" lon="3.8227">
        <ele>57.331006873457</ele>
        <time>2020-10-10T09:39:21.000Z</time>
      </trkpt>
      <trkpt lat="43.59738" lon="3.8227">
        <ele>57.430707738957</ele>
        <time>2020-10-10T09:39:22.000Z</time>
      </trkpt>
      <trkpt lat="43.5974" lon="3.82271">
        <ele>57.530408604456</ele>
        <time>2020-10-10T09:39:23.000Z</time>
      </trkpt>
      <trkpt lat="43.59742" lon="3.82271">
        <ele>57.630109469955</ele>
        <time>2020-10-10T09:39:24.000Z</time>
      </trkpt>
      <trkpt lat="43.59744" lon="3.82272">
        <ele>57.729810335454</ele>
        <time>2020-10-10T09:39:25.000Z</time>
      </trkpt>
      <trkpt lat="43.59746" lon="3.82272">
        <ele>57.829511200954</ele>
        <time>2020-10-10T09:39:26.000Z</time>
      </trkpt>
      <trkpt lat="43.59748" lon="3.82273">
        <ele>57.929212066453</ele>
        <time>2020-10-10T09:39:27.000Z</time>
      </trkpt>
      <trkpt lat="43.5975" lon="3.82274">
        <ele>58.05799936</ele>
        <time>2020-10-10T09:39:28.000Z</time>
      </trkpt>
      <trkpt lat="43.59753" lon="3.82274">
        <ele>58.25799936</ele>
        <time>2020-10-10T09:39:29.000Z</time>
      </trkpt>
      <trkpt lat="43.59755" lon="3.82275">
        <ele>58.45799936</ele>
        <time>2020-10-10T09:39:30.000Z</time>
      </trkpt>
      <trkpt lat="43.59757" lon="3.82276">
        <ele>58.65799936</ele>
        <time>2020-10-10T09:39:31.000Z</time>
      </trkpt>
      <trkpt lat="43.59759" lon="3.82276">
        <ele>58.85799936</ele>
        <time>2020-10-10T09:39:32.000Z</time>
      </trkpt>
      <trkpt lat="43.59762" lon="3.82277">
        <ele>59.05799936</ele>
        <time>2020-10-10T09:39:33.000Z</time>
      </trkpt>
      <trkpt lat="43.59764" lon="3.82278">
        <ele>59.25799936</ele>
        <time>2020-10-10T09:39:34.000Z</time>
      </trkpt>
      <trkpt lat="43.59766" lon="3.82279">
        <ele>59.45799936</ele>
        <time>2020-10-10T09:39:35.000Z</time>
      </trkpt>
      <trkpt lat="43.59768" lon="3.8228">
        <ele>59.65799936</ele>
        <time>2020-10-10T09:39:36.000Z</time>
      </trkpt>
      <trkpt lat="43.5977" lon="3.8228">
        <ele>59.85799936</ele>
        <time>2020-10-10T09:39:37.000Z</time>
      </trkpt>
      <trkpt lat="43.59772" lon="3.82281">
        <ele>59.970913049842</ele>
        <time>2020-10-10T09:39:38.000Z</time>
      </trkpt>
      <trkpt lat="43.59774" lon="3.82282">
        <ele>59.870612114941</ele>
        <time>2020-10-10T09:39:39.000Z</time>
      </trkpt>
      <trkpt lat="43.59776" lon="3.82282">
        <ele>59.77031118004</ele>
        <time>2020-10-10T09:39:40.000Z</time>
      </trkpt>
      <trkpt lat="43.59778" lon="3.82284">
        <ele>59.670010245139</ele>
        <time>2020-10-10T09:39:41.000Z</time>
      </trkpt>
      <trkpt lat="43.5978" lon="3.82285">
        <ele>59.569709310238</ele>
        <time>2020-10-10T09:39:42.000Z</time>
      </trkpt>
      <trkpt lat="43.59782" lon="3.82287">
        <ele>59.469408375337</ele>
        <time>2020-10-10T09:39:43.000Z</time>
      </trkpt>
      <trkpt lat="43.59784" lon="3.82288">
        <ele>59.369107440436</ele>
        <time>2020-10-10T09:39:44.000Z</time>
      </trkpt>
      <trkpt lat="43.59786" lon="3.8229">
        <ele>59.268806505535</ele>
        <time>2020-10-10T09:39:45.000Z</time>
      </trkpt>
      <trkpt lat="43.59789" lon="3.82291">
        <ele>59.168505570634</ele>
        <time>2020-10-10T09:39:46.000Z</time>
      </trkpt>
      <trkpt lat="43.59791" lon="3.82292">
        <ele>59.068204635733</ele>
        <time>2020-10-10T09:39:47.000Z</time>
      </trkpt>
      <trkpt lat="43.59794" lon="3.82294">
        <ele>59</ele>
        <time>2020-10-10T09:39:48.000Z</time>
      </trkpt>
      <trkpt lat="43.59796" lon="3.82296">
        <ele>59</ele>
        <time>2020-10-10T09:39:49.000Z</time>
      </trkpt>
      <trkpt lat="43.59798" lon="3.82299">
        <ele>59</ele>
        <time>2020-10-10T09:39:50.000Z</time>
      </trkpt>
      <trkpt lat="43.598" lon="3.82302">
        <ele>59</ele>
        <time>2020-10-10T09:39:51.000Z</time>
      </trkpt>
      <trkpt lat="43.59803" lon="3.82306">
        <ele>59</ele>
        <time>2020-10-10T09:39:52.000Z</time>
      </trkpt>
      <trkpt lat="43.59805" lon="3.82309">
        <ele>59</ele>
        <time>2020-10-10T09:39:53.000Z</time>
      </trkpt>
      <trkpt lat="43.59808" lon="3.82313">
        <ele>59</ele>
        <time>2020-10-10T09:39:54.000Z</time>
      </trkpt>
      <trkpt lat="43.59811" lon="3.82317">
        <ele>59</ele>
        <time>2020-10-10T09:39:55.000Z</time>
      </trkpt>
      <trkpt lat="43.59814" lon="3.82321">
        <ele>59</ele>
        <time>2020-10-10T09:39:56.000Z</time>
      </trkpt>
      <trkpt lat="43.59817" lon="3.82325">
        <ele>59</ele>
        <time>2020-10-10T09:39:57.000Z</time>
      </trkpt>
      <trkpt lat="43.59821" lon="3.82328">
        <ele>59</ele>
        <time>2020-10-10T09:39:58.000Z</time>
      </trkpt>
      <trkpt lat="43.59824" lon="3.82332">
        <ele>59</ele>
        <time>2020-10-10T09:39:59.000Z</time>
      </trkpt>
      <trkpt lat="43.59827" lon="3.82336">
        <ele>59</ele>
        <time>2020-10-10T09:40:00.000Z</time>
      </trkpt>
      <trkpt lat="43.59829" lon="3.82339">
        <ele>59</ele>
        <time>2020-10-10T09:40:01.000Z</time>
      </trkpt>
      <trkpt lat="43.59831" lon="3.82342">
        <ele>59</ele>
        <time>2020-10-10T09:40:02.000Z</time>
      </trkpt>
      <trkpt lat="43.59832" lon="3.82342">
        <ele>59</ele>
        <time>2020-10-10T09:40:09.000Z</time>
      </trkpt>
      <trkpt lat="43.59835" lon="3.82344">
        <ele>59</ele>
        <time>2020-10-10T09:40:12.000Z</time>
      </trkpt>
      <trkpt lat="43.59836" lon="3.82348">
        <ele>59</ele>
        <time>2020-10-10T09:40:14.000Z</time>
      </trkpt>
      <trkpt lat="43.59833" lon="3.82349">
        <ele>59</ele>
        <time>2020-10-10T09:40:16.000Z</time>
      </trkpt>
      <trkpt lat="43.59832" lon="3.82346">
        <ele>59</ele>
        <time>2020-10-10T09:40:18.000Z</time>
      </trkpt>
      <trkpt lat="43.59834" lon="3.82345">
        <ele>59</ele>
        <time>2020-10-10T09:40:21.000Z</time>
      </trkpt>
      <trkpt lat="43.59837" lon="3.82346">
        <ele>59.030155953307</ele>
        <time>2020-10-10T09:40:22.000Z</time>
      </trkpt>
      <trkpt lat="43.59839" lon="3.82349">
        <ele>59.127432217899</ele>
        <time>2020-10-10T09:40:23.000Z</time>
      </trkpt>
      <trkpt lat="43.59843" lon="3.82351">
        <ele>59.22470848249</ele>
        <time>2020-10-10T09:40:24.000Z</time>
      </trkpt>
      <trkpt lat="43.59846" lon="3.82353">
        <ele>59.321984747082</ele>
        <time>2020-10-10T09:40:25.000Z</time>
      </trkpt>
      <trkpt lat="43.5985" lon="3.82354">
        <ele>59.419261011673</ele>
        <time>2020-10-10T09:40:26.000Z</time>
      </trkpt>
      <trkpt lat="43.59855" lon="3.82355">
        <ele>59.516537276265</ele>
        <time>2020-10-10T09:40:27.000Z</time>
      </trkpt>
      <trkpt lat="43.5986" lon="3.82356">
        <ele>59.613813540856</ele>
        <time>2020-10-10T09:40:28.000Z</time>
      </trkpt>
      <trkpt lat="43.59865" lon="3.82357">
        <ele>59.711089805448</ele>
        <time>2020-10-10T09:40:29.000Z</time>
      </trkpt>
      <trkpt lat="43.5987" lon="3.82358">
        <ele>59.808366070039</ele>
        <time>2020-10-10T09:40:30.000Z</time>
      </trkpt>
      <trkpt lat="43.59875" lon="3.82358">
        <ele>59.90564233463</ele>
        <time>2020-10-10T09:40:31.000Z</time>
      </trkpt>
      <trkpt lat="43.5988" lon="3.82359">
        <ele>60</ele>
        <time>2020-10-10T09:40:32.000Z</time>
      </trkpt>
      <trkpt lat="43.59885" lon="3.82359">
        <ele>60</ele>
        <time>2020-10-10T09:40:33.000Z</time>
      </trkpt>
      <trkpt lat="43.5989" lon="3.8236">
        <ele>60</ele>
        <time>2020-10-10T09:40:34.000Z</time>
      </trkpt>
      <trkpt lat="43.59895" lon="3.8236">
        <ele>60</ele>
        <time>2020-10-10T09:40:35.000Z</time>
      </trkpt>
      <trkpt lat="43.59899" lon="3.8236">
        <ele>60</ele>
        <time>2020-10-10T09:40:36.000Z</time>
      </trkpt>
      <trkpt lat="43.59904" lon="3.8236">
        <ele>60</ele>
        <time>2020-10-10T09:40:37.000Z</time>
      </trkpt>
      <trkpt lat="43.59909" lon="3.82359">
        <ele>60</ele>
        <time>2020-10-10T09:40:38.000Z</time>
      </trkpt>
      <trkpt lat="43.59914" lon="3.82359">
        <ele>60</ele>
        <time>2020-10-10T09:40:39.000Z</time>
      </trkpt>
      <trkpt lat="43.59918" lon="3.82358">
        <ele>60</ele>
        <time>2020-10-10T09:40:40.000Z</time>
      </trkpt>
      <trkpt lat="43.59922" lon="3.82358">
        <ele>60</ele>
        <time>2020-10-10T09:40:41.000Z</time>
      </trkpt>
      <trkpt lat="43.59926" lon="3.82357">
        <ele>60.061508571429</ele>
        <time>2020-10-10T09:40:42.000Z</time>
      </trkpt>
      <trkpt lat="43.5993" lon="3.82356">
        <ele>60.259921269841</ele>
        <time>2020-10-10T09:40:43.000Z</time>
      </trkpt>
      <trkpt lat="43.59933" lon="3.82355">
        <ele>60.458333968254</ele>
        <time>2020-10-10T09:40:44.000Z</time>
      </trkpt>
      <trkpt lat="43.59937" lon="3.82353">
        <ele>60.656746666667</ele>
        <time>2020-10-10T09:40:45.000Z</time>
      </trkpt>
      <trkpt lat="43.5994" lon="3.82352">
        <ele>60.855159365079</ele>
        <time>2020-10-10T09:40:46.000Z</time>
      </trkpt>
      <trkpt lat="43.59943" lon="3.8235">
        <ele>61.053572063492</ele>
        <time>2020-10-10T09:40:47.000Z</time>
      </trkpt>
      <trkpt lat="43.59946" lon="3.82348">
        <ele>61.251984761905</ele>
        <time>2020-10-10T09:40:48.000Z</time>
      </trkpt>
      <trkpt lat="43.59949" lon="3.82346">
        <ele>61.450397460317</ele>
        <time>2020-10-10T09:40:49.000Z</time>
      </trkpt>
      <trkpt lat="43.59952" lon="3.82344">
        <ele>61.64881015873</ele>
        <time>2020-10-10T09:40:50.000Z</time>
      </trkpt>
      <trkpt lat="43.59955" lon="3.82342">
        <ele>61.847222857143</ele>
        <time>2020-10-10T09:40:51.000Z</time>
      </trkpt>
      <trkpt lat="43.59958" lon="3.8234">
        <ele>62.023162464665</ele>
        <time>2020-10-10T09:40:52.000Z</time>
      </trkpt>
      <trkpt lat="43.59961" lon="3.82339">
        <ele>62.123867431659</ele>
        <time>2020-10-10T09:40:53.000Z</time>
      </trkpt>
      <trkpt lat="43.59964" lon="3.82337">
        <ele>62.224572398654</ele>
        <time>2020-10-10T09:40:54.000Z</time>
      </trkpt>
      <trkpt lat="43.59967" lon="3.82336">
        <ele>62.325277365648</ele>
        <time>2020-10-10T09:40:55.000Z</time>
      </trkpt>
      <trkpt lat="43.5997" lon="3.82335">
        <ele>62.425982332643</ele>
        <time>2020-10-10T09:40:56.000Z</time>
      </trkpt>
      <trkpt lat="43.59974" lon="3.82334">
        <ele>62.526687299637</ele>
        <time>2020-10-10T09:40:57.000Z</time>
      </trkpt>
      <trkpt lat="43.59977" lon="3.82333">
        <ele>62.627392266632</ele>
        <time>2020-10-10T09:40:58.000Z</time>
      </trkpt>
      <trkpt lat="43.5998" lon="3.82333">
        <ele>62.728097233626</ele>
        <time>2020-10-10T09:40:59.000Z</time>
      </trkpt>
      <trkpt lat="43.59983" lon="3.82332">
        <ele>62.828802200621</ele>
        <time>2020-10-10T09:41:00.000Z</time>
      </trkpt>
      <trkpt lat="43.59986" lon="3.82332">
        <ele>62.929507167616</ele>
        <time>2020-10-10T09:41:01.000Z</time>
      </trkpt>
      <trkpt lat="43.59989" lon="3.82331">
        <ele>63.058197149735</ele>
        <time>2020-10-10T09:41:02.000Z</time>
      </trkpt>
      <trkpt lat="43.59992" lon="3.82331">
        <ele>63.252183510476</ele>
        <time>2020-10-10T09:41:03.000Z</time>
      </trkpt>
      <trkpt lat="43.59995" lon="3.82331">
        <ele>63.446169871218</ele>
        <time>2020-10-10T09:41:04.000Z</time>
      </trkpt>
      <trkpt lat="43.59998" lon="3.82331">
        <ele>63.640156231959</ele>
        <time>2020-10-10T09:41:05.000Z</time>
      </trkpt>
      <trkpt lat="43.60001" lon="3.82331">
        <ele>63.834142592701</ele>
        <time>2020-10-10T09:41:06.000Z</time>
      </trkpt>
      <trkpt lat="43.60004" lon="3.82331">
        <ele>64.028128953442</ele>
        <time>2020-10-10T09:41:07.000Z</time>
      </trkpt>
      <trkpt lat="43.60007" lon="3.82331">
        <ele>64.222115314183</ele>
        <time>2020-10-10T09:41:08.000Z</time>
      </trkpt>
      <trkpt lat="43.60011" lon="3.82332">
        <ele>64.416101674925</ele>
        <time>2020-10-10T09:41:09.000Z</time>
      </trkpt>
      <trkpt lat="43.60014" lon="3.82332">
        <ele>64.610088035666</ele>
        <time>2020-10-10T09:41:10.000Z</time>
      </trkpt>
      <trkpt lat="43.60016" lon="3.82332">
        <ele>64.804074396408</ele>
        <time>2020-10-10T09:41:11.000Z</time>
      </trkpt>
      <trkpt lat="43.60019" lon="3.82332">
        <ele>64.998060757149</ele>
        <time>2020-10-10T09:41:12.000Z</time>
      </trkpt>
      <trkpt lat="43.60022" lon="3.82332">
        <ele>65.204546115702</ele>
        <time>2020-10-10T09:41:13.000Z</time>
      </trkpt>
      <trkpt lat="43.60025" lon="3.82333">
        <ele>65.41115768595</ele>
        <time>2020-10-10T09:41:14.000Z</time>
      </trkpt>
      <trkpt lat="43.60028" lon="3.82333">
        <ele>65.617769256198</ele>
        <time>2020-10-10T09:41:15.000Z</time>
      </trkpt>
      <trkpt lat="43.60031" lon="3.82333">
        <ele>65.824380826446</ele>
        <time>2020-10-10T09:41:16.000Z</time>
      </trkpt>
      <trkpt lat="43.60034" lon="3.82333">
        <ele>66.030992396694</ele>
        <time>2020-10-10T09:41:17.000Z</time>
      </trkpt>
      <trkpt lat="43.60037" lon="3.82333">
        <ele>66.237603966942</ele>
        <time>2020-10-10T09:41:18.000Z</time>
      </trkpt>
      <trkpt lat="43.60039" lon="3.82334">
        <ele>66.44421553719</ele>
        <time>2020-10-10T09:41:19.000Z</time>
      </trkpt>
      <trkpt lat="43.60042" lon="3.82334">
        <ele>66.650827107438</ele>
        <time>2020-10-10T09:41:20.000Z</time>
      </trkpt>
      <trkpt lat="43.60044" lon="3.82335">
        <ele>66.857438677686</ele>
        <time>2020-10-10T09:41:21.000Z</time>
      </trkpt>
      <trkpt lat="43.60046" lon="3.82335">
        <ele>67.03100032</ele>
        <time>2020-10-10T09:41:22.000Z</time>
      </trkpt>
      <trkpt lat="43.60048" lon="3.82336">
        <ele>67.13100032</ele>
        <time>2020-10-10T09:41:23.000Z</time>
      </trkpt>
      <trkpt lat="43.60051" lon="3.82336">
        <ele>67.23100032</ele>
        <time>2020-10-10T09:41:24.000Z</time>
      </trkpt>
      <trkpt lat="43.60053" lon="3.82337">
        <ele>67.33100032</ele>
        <time>2020-10-10T09:41:25.000Z</time>
      </trkpt>
      <trkpt lat="43.60055" lon="3.82338">
        <ele>67.43100032</ele>
        <time>2020-10-10T09:41:26.000Z</time>
      </trkpt>
      <trkpt lat="43.60057" lon="3.82339">
        <ele>67.53100032</ele>
        <time>2020-10-10T09:41:27.000Z</time>
      </trkpt>
      <trkpt lat="43.6006" lon="3.82339">
        <ele>67.63100032</ele>
        <time>2020-10-10T09:41:28.000Z</time>
      </trkpt>
      <trkpt lat="43.60062" lon="3.8234">
        <ele>67.73100032</ele>
        <time>2020-10-10T09:41:29.000Z</time>
      </trkpt>
      <trkpt lat="43.60064" lon="3.82341">
        <ele>67.83100032</ele>
        <time>2020-10-10T09:41:30.000Z</time>
      </trkpt>
      <trkpt lat="43.60066" lon="3.82342">
        <ele>67.93100032</ele>
        <time>2020-10-10T09:41:31.000Z</time>
      </trkpt>
      <trkpt lat="43.60069" lon="3.82342">
        <ele>68.03100032</ele>
        <time>2020-10-10T09:41:32.000Z</time>
      </trkpt>
      <trkpt lat="43.60071" lon="3.82343">
        <ele>68.13100032</ele>
        <time>2020-10-10T09:41:33.000Z</time>
      </trkpt>
      <trkpt lat="43.60074" lon="3.82344">
        <ele>68.23100032</ele>
        <time>2020-10-10T09:41:34.000Z</time>
      </trkpt>
      <trkpt lat="43.60076" lon="3.82345">
        <ele>68.33100032</ele>
        <time>2020-10-10T09:41:35.000Z</time>
      </trkpt>
      <trkpt lat="43.60078" lon="3.82346">
        <ele>68.43100032</ele>
        <time>2020-10-10T09:41:36.000Z</time>
      </trkpt>
      <trkpt lat="43.60081" lon="3.82348">
        <ele>68.53100032</ele>
        <time>2020-10-10T09:41:37.000Z</time>
      </trkpt>
      <trkpt lat="43.60083" lon="3.82349">
        <ele>68.63100032</ele>
        <time>2020-10-10T09:41:38.000Z</time>
      </trkpt>
      <trkpt lat="43.60086" lon="3.8235">
        <ele>68.73100032</ele>
        <time>2020-10-10T09:41:39.000Z</time>
      </trkpt>
      <trkpt lat="43.60088" lon="3.82351">
        <ele>68.83100032</ele>
        <time>2020-10-10T09:41:40.000Z</time>
      </trkpt>
      <trkpt lat="43.6009" lon="3.82352">
        <ele>68.93100032</ele>
        <time>2020-10-10T09:41:41.000Z</time>
      </trkpt>
      <trkpt lat="43.60093" lon="3.82352">
        <ele>68.93799936</ele>
        <time>2020-10-10T09:41:42.000Z</time>
      </trkpt>
      <trkpt lat="43.60096" lon="3.82353">
        <ele>68.73799936</ele>
        <time>2020-10-10T09:41:43.000Z</time>
      </trkpt>
      <trkpt lat="43.60098" lon="3.82353">
        <ele>68.53799936</ele>
        <time>2020-10-10T09:41:44.000Z</time>
      </trkpt>
      <trkpt lat="43.60101" lon="3.82354">
        <ele>68.33799936</ele>
        <time>2020-10-10T09:41:45.000Z</time>
      </trkpt>
      <trkpt lat="43.60103" lon="3.82355">
        <ele>68.13799936</ele>
        <time>2020-10-10T09:41:46.000Z</time>
      </trkpt>
      <trkpt lat="43.60106" lon="3.82356">
        <ele>67.93799936</ele>
        <time>2020-10-10T09:41:47.000Z</time>
      </trkpt>
      <trkpt lat="43.60108" lon="3.82357">
        <ele>67.73799936</ele>
        <time>2020-10-10T09:41:48.000Z</time>
      </trkpt>
      <trkpt lat="43.6011" lon="3.82358">
        <ele>67.53799936</ele>
        <time>2020-10-10T09:41:49.000Z</time>
      </trkpt>
      <trkpt lat="43.60113" lon="3.82358">
        <ele>67.33799936</ele>
        <time>2020-10-10T09:41:50.000Z</time>
      </trkpt>
      <trkpt lat="43.60115" lon="3.82358">
        <ele>67.13799936</ele>
        <time>2020-10-10T09:41:51.000Z</time>
      </trkpt>
      <trkpt lat="43.60117" lon="3.82359">
        <ele>67.03100032</ele>
        <time>2020-10-10T09:41:52.000Z</time>
      </trkpt>
      <trkpt lat="43.60119" lon="3.82359">
        <ele>67.13100032</ele>
        <time>2020-10-10T09:41:53.000Z</time>
      </trkpt>
      <trkpt lat="43.60122" lon="3.82361">
        <ele>67.23100032</ele>
        <time>2020-10-10T09:41:54.000Z</time>
      </trkpt>
      <trkpt lat="43.60124" lon="3.82362">
        <ele>67.33100032</ele>
        <time>2020-10-10T09:41:55.000Z</time>
      </trkpt>
      <trkpt lat="43.60126" lon="3.82363">
        <ele>67.43100032</ele>
        <time>2020-10-10T09:41:56.000Z</time>
      </trkpt>
      <trkpt lat="43.60128" lon="3.82364">
        <ele>67.53100032</ele>
        <time>2020-10-10T09:41:57.000Z</time>
      </trkpt>
      <trkpt lat="43.6013" lon="3.82365">
        <ele>67.63100032</ele>
        <time>2020-10-10T09:41:58.000Z</time>
      </trkpt>
      <trkpt lat="43.60132" lon="3.82367">
        <ele>67.73100032</ele>
        <time>2020-10-10T09:41:59.000Z</time>
      </trkpt>
      <trkpt lat="43.60134" lon="3.82368">
        <ele>67.83100032</ele>
        <time>2020-10-10T09:42:00.000Z</time>
      </trkpt>
      <trkpt lat="43.60135" lon="3.8237">
        <ele>67.93100032</ele>
        <time>2020-10-10T09:42:01.000Z</time>
      </trkpt>
      <trkpt lat="43.60137" lon="3.82371">
        <ele>67.969902620643</ele>
        <time>2020-10-10T09:42:02.000Z</time>
      </trkpt>
      <trkpt lat="43.60139" lon="3.82372">
        <ele>67.872815302328</ele>
        <time>2020-10-10T09:42:03.000Z</time>
      </trkpt>
      <trkpt lat="43.60141" lon="3.82373">
        <ele>67.775727984014</ele>
        <time>2020-10-10T09:42:04.000Z</time>
      </trkpt>
      <trkpt lat="43.60143" lon="3.82373">
        <ele>67.678640665699</ele>
        <time>2020-10-10T09:42:05.000Z</time>
      </trkpt>
      <trkpt lat="43.60145" lon="3.82374">
        <ele>67.581553347384</ele>
        <time>2020-10-10T09:42:06.000Z</time>
      </trkpt>
      <trkpt lat="43.60147" lon="3.82375">
        <ele>67.48446602907</ele>
        <time>2020-10-10T09:42:07.000Z</time>
      </trkpt>
      <trkpt lat="43.60149" lon="3.82375">
        <ele>67.387378710755</ele>
        <time>2020-10-10T09:42:08.000Z</time>
      </trkpt>
      <trkpt lat="43.60152" lon="3.82376">
        <ele>67.29029139244</ele>
        <time>2020-10-10T09:42:09.000Z</time>
      </trkpt>
      <trkpt lat="43.60154" lon="3.82378">
        <ele>67.193204074126</ele>
        <time>2020-10-10T09:42:10.000Z</time>
      </trkpt>
      <trkpt lat="43.60156" lon="3.82379">
        <ele>67.096116755811</ele>
        <time>2020-10-10T09:42:11.000Z</time>
      </trkpt>
      <trkpt lat="43.60158" lon="3.8238">
        <ele>67</ele>
        <time>2020-10-10T09:42:12.000Z</time>
      </trkpt>
      <trkpt lat="43.6016" lon="3.82381">
        <ele>67</ele>
        <time>2020-10-10T09:42:13.000Z</time>
      </trkpt>
      <trkpt lat="43.60162" lon="3.82382">
        <ele>67</ele>
        <time>2020-10-10T09:42:14.000Z</time>
      </trkpt>
      <trkpt lat="43.60165" lon="3.82383">
        <ele>67</ele>
        <time>2020-10-10T09:42:15.000Z</time>
      </trkpt>
      <trkpt lat="43.60167" lon="3.82384">
        <ele>67</ele>
        <time>2020-10-10T09:42:16.000Z</time>
      </trkpt>
      <trkpt lat="43.60169" lon="3.82385">
        <ele>67</ele>
        <time>2020-10-10T09:42:17.000Z</time>
      </trkpt>
      <trkpt lat="43.60172" lon="3.82387">
        <ele>67</ele>
        <time>2020-10-10T09:42:18.000Z</time>
      </trkpt>
      <trkpt lat="43.60174" lon="3.82389">
        <ele>67</ele>
        <time>2020-10-10T09:42:19.000Z</time>
      </trkpt>
      <trkpt lat="43.60177" lon="3.8239">
        <ele>67</ele>
        <time>2020-10-10T09:42:20.000Z</time>
      </trkpt>
      <trkpt lat="43.6018" lon="3.82391">
        <ele>67</ele>
        <time>2020-10-10T09:42:21.000Z</time>
      </trkpt>
      <trkpt lat="43.60183" lon="3.82392">
        <ele>67</ele>
        <time>2020-10-10T09:42:22.000Z</time>
      </trkpt>
      <trkpt lat="43.60185" lon="3.82394">
        <ele>67</ele>
        <time>2020-10-10T09:42:23.000Z</time>
      </trkpt>
      <trkpt lat="43.60188" lon="3.82395">
        <ele>67</ele>
        <time>2020-10-10T09:42:24.000Z</time>
      </trkpt>
      <trkpt lat="43.60191" lon="3.82396">
        <ele>67</ele>
        <time>2020-10-10T09:42:25.000Z</time>
      </trkpt>
      <trkpt lat="43.60194" lon="3.82398">
        <ele>67</ele>
        <time>2020-10-10T09:42:26.000Z</time>
      </trkpt>
      <trkpt lat="43.60197" lon="3.824">
        <ele>67</ele>
        <time>2020-10-10T09:42:27.000Z</time>
      </trkpt>
      <trkpt lat="43.60201" lon="3.82402">
        <ele>67</ele>
        <time>2020-10-10T09:42:28.000Z</time>
      </trkpt>
      <trkpt lat="43.60205" lon="3.82405">
        <ele>67</ele>
        <time>2020-10-10T09:42:29.000Z</time>
      </trkpt>
      <trkpt lat="43.6021" lon="3.82408">
        <ele>67</ele>
        <time>2020-10-10T09:42:30.000Z</time>
      </trkpt>
      <trkpt lat="43.60215" lon="3.8241">
        <ele>67</ele>
        <time>2020-10-10T09:42:31.000Z</time>
      </trkpt>
      <trkpt lat="43.60221" lon="3.82413">
        <ele>66.969902620643</ele>
        <time>2020-10-10T09:42:32.000Z</time>
      </trkpt>
      <trkpt lat="43.60228" lon="3.82416">
        <ele>66.872815302328</ele>
        <time>2020-10-10T09:42:33.000Z</time>
      </trkpt>
      <trkpt lat="43.60235" lon="3.82419">
        <ele>66.775727984014</ele>
        <time>2020-10-10T09:42:34.000Z</time>
      </trkpt>
      <trkpt lat="43.60243" lon="3.82424">
        <ele>66.678640665699</ele>
        <time>2020-10-10T09:42:35.000Z</time>
      </trkpt>
      <trkpt lat="43.60251" lon="3.82428">
        <ele>66.581553347384</ele>
        <time>2020-10-10T09:42:36.000Z</time>
      </trkpt>
      <trkpt lat="43.60259" lon="3.82433">
        <ele>66.48446602907</ele>
        <time>2020-10-10T09:42:37.000Z</time>
      </trkpt>
      <trkpt lat="43.60267" lon="3.82438">
        <ele>66.387378710755</ele>
        <time>2020-10-10T09:42:38.000Z</time>
      </trkpt>
      <trkpt lat="43.60275" lon="3.82442">
        <ele>66.29029139244</ele>
        <time>2020-10-10T09:42:39.000Z</time>
      </trkpt>
      <trkpt lat="43.60283" lon="3.82446">
        <ele>66.193204074126</ele>
        <time>2020-10-10T09:42:40.000Z</time>
      </trkpt>
      <trkpt lat="43.60291" lon="3.8245">
        <ele>66.096116755811</ele>
        <time>2020-10-10T09:42:41.000Z</time>
      </trkpt>
      <trkpt lat="43.60298" lon="3.82454">
        <ele>66.003091795854</ele>
        <time>2020-10-10T09:42:42.000Z</time>
      </trkpt>
      <trkpt lat="43.60305" lon="3.82458">
        <ele>66.31237035043</ele>
        <time>2020-10-10T09:42:43.000Z</time>
      </trkpt>
      <trkpt lat="43.60312" lon="3.82462">
        <ele>66.621648905006</ele>
        <time>2020-10-10T09:42:44.000Z</time>
      </trkpt>
      <trkpt lat="43.60318" lon="3.82465">
        <ele>66.930927459581</ele>
        <time>2020-10-10T09:42:45.000Z</time>
      </trkpt>
      <trkpt lat="43.60323" lon="3.82468">
        <ele>67.240206014156</ele>
        <time>2020-10-10T09:42:46.000Z</time>
      </trkpt>
      <trkpt lat="43.60329" lon="3.8247">
        <ele>67.549484568732</ele>
        <time>2020-10-10T09:42:47.000Z</time>
      </trkpt>
      <trkpt lat="43.60333" lon="3.82473">
        <ele>67.858763123308</ele>
        <time>2020-10-10T09:42:48.000Z</time>
      </trkpt>
      <trkpt lat="43.60338" lon="3.82475">
        <ele>68.168041677883</ele>
        <time>2020-10-10T09:42:49.000Z</time>
      </trkpt>
      <trkpt lat="43.60342" lon="3.82478">
        <ele>68.477320232459</ele>
        <time>2020-10-10T09:42:50.000Z</time>
      </trkpt>
      <trkpt lat="43.60347" lon="3.8248">
        <ele>68.786598787034</ele>
        <time>2020-10-10T09:42:51.000Z</time>
      </trkpt>
      <trkpt lat="43.60351" lon="3.82482">
        <ele>69.06200064</ele>
        <time>2020-10-10T09:42:52.000Z</time>
      </trkpt>
      <trkpt lat="43.60355" lon="3.82484">
        <ele>69.26200064</ele>
        <time>2020-10-10T09:42:53.000Z</time>
      </trkpt>
      <trkpt lat="43.60358" lon="3.82487">
        <ele>69.46200064</ele>
        <time>2020-10-10T09:42:54.000Z</time>
      </trkpt>
      <trkpt lat="43.60362" lon="3.82488">
        <ele>69.66200064</ele>
        <time>2020-10-10T09:42:55.000Z</time>
      </trkpt>
      <trkpt lat="43.60366" lon="3.8249">
        <ele>69.86200064</ele>
        <time>2020-10-10T09:42:56.000Z</time>
      </trkpt>
      <trkpt lat="43.60369" lon="3.82492">
        <ele>70.06200064</ele>
        <time>2020-10-10T09:42:57.000Z</time>
      </trkpt>
      <trkpt lat="43.60372" lon="3.82493">
        <ele>70.26200064</ele>
        <time>2020-10-10T09:42:58.000Z</time>
      </trkpt>
      <trkpt lat="43.60375" lon="3.82495">
        <ele>70.46200064</ele>
        <time>2020-10-10T09:42:59.000Z</time>
      </trkpt>
      <trkpt lat="43.60378" lon="3.82496">
        <ele>70.66200064</ele>
        <time>2020-10-10T09:43:00.000Z</time>
      </trkpt>
      <trkpt lat="43.60381" lon="3.82497">
        <ele>70.86200064</ele>
        <time>2020-10-10T09:43:01.000Z</time>
      </trkpt>
      <trkpt lat="43.60384" lon="3.82499">
        <ele>71.03100032</ele>
        <time>2020-10-10T09:43:02.000Z</time>
      </trkpt>
      <trkpt lat="43.60387" lon="3.825">
        <ele>71.13100032</ele>
        <time>2020-10-10T09:43:03.000Z</time>
      </trkpt>
      <trkpt lat="43.60389" lon="3.82501">
        <ele>71.23100032</ele>
        <time>2020-10-10T09:43:04.000Z</time>
      </trkpt>
      <trkpt lat="43.60391" lon="3.82502">
        <ele>71.33100032</ele>
        <time>2020-10-10T09:43:05.000Z</time>
      </trkpt>
      <trkpt lat="43.60394" lon="3.82503">
        <ele>71.43100032</ele>
        <time>2020-10-10T09:43:06.000Z</time>
      </trkpt>
      <trkpt lat="43.60396" lon="3.82504">
        <ele>71.53100032</ele>
        <time>2020-10-10T09:43:07.000Z</time>
      </trkpt>
      <trkpt lat="43.60398" lon="3.82505">
        <ele>71.63100032</ele>
        <time>2020-10-10T09:43:08.000Z</time>
      </trkpt>
      <trkpt lat="43.604" lon="3.82506">
        <ele>71.73100032</ele>
        <time>2020-10-10T09:43:09.000Z</time>
      </trkpt>
      <trkpt lat="43.60402" lon="3.82506">
        <ele>71.83100032</ele>
        <time>2020-10-10T09:43:10.000Z</time>
      </trkpt>
      <trkpt lat="43.60405" lon="3.82507">
        <ele>72.030482133485</ele>
        <time>2020-10-10T09:43:12.000Z</time>
      </trkpt>
      <trkpt lat="43.60407" lon="3.82508">
        <ele>72.128810581337</ele>
        <time>2020-10-10T09:43:13.000Z</time>
      </trkpt>
      <trkpt lat="43.60409" lon="3.82508">
        <ele>72.227139029188</ele>
        <time>2020-10-10T09:43:14.000Z</time>
      </trkpt>
      <trkpt lat="43.60411" lon="3.82509">
        <ele>72.32546747704</ele>
        <time>2020-10-10T09:43:15.000Z</time>
      </trkpt>
      <trkpt lat="43.60414" lon="3.8251">
        <ele>72.423795924891</ele>
        <time>2020-10-10T09:43:16.000Z</time>
      </trkpt>
      <trkpt lat="43.60417" lon="3.82511">
        <ele>72.522124372743</ele>
        <time>2020-10-10T09:43:17.000Z</time>
      </trkpt>
      <trkpt lat="43.6042" lon="3.82511">
        <ele>72.620452820595</ele>
        <time>2020-10-10T09:43:18.000Z</time>
      </trkpt>
      <trkpt lat="43.60423" lon="3.82512">
        <ele>72.718781268446</ele>
        <time>2020-10-10T09:43:19.000Z</time>
      </trkpt>
      <trkpt lat="43.60426" lon="3.82513">
        <ele>72.817109716298</ele>
        <time>2020-10-10T09:43:20.000Z</time>
      </trkpt>
      <trkpt lat="43.60429" lon="3.82513">
        <ele>72.91543816415</ele>
        <time>2020-10-10T09:43:21.000Z</time>
      </trkpt>
      <trkpt lat="43.60432" lon="3.82514">
        <ele>73.014242762403</ele>
        <time>2020-10-10T09:43:22.000Z</time>
      </trkpt>
      <trkpt lat="43.60435" lon="3.82515">
        <ele>73.115972129083</ele>
        <time>2020-10-10T09:43:23.000Z</time>
      </trkpt>
      <trkpt lat="43.60438" lon="3.82516">
        <ele>73.217701495764</ele>
        <time>2020-10-10T09:43:24.000Z</time>
      </trkpt>
      <trkpt lat="43.60441" lon="3.82517">
        <ele>73.319430862444</ele>
        <time>2020-10-10T09:43:25.000Z</time>
      </trkpt>
      <trkpt lat="43.60444" lon="3.82518">
        <ele>73.421160229124</ele>
        <time>2020-10-10T09:43:26.000Z</time>
      </trkpt>
      <trkpt lat="43.60447" lon="3.8252">
        <ele>73.522889595804</ele>
        <time>2020-10-10T09:43:27.000Z</time>
      </trkpt>
      <trkpt lat="43.6045" lon="3.82521">
        <ele>73.624618962484</ele>
        <time>2020-10-10T09:43:28.000Z</time>
      </trkpt>
      <trkpt lat="43.60453" lon="3.82522">
        <ele>73.726348329164</ele>
        <time>2020-10-10T09:43:29.000Z</time>
      </trkpt>
      <trkpt lat="43.60456" lon="3.82523">
        <ele>73.828077695844</ele>
        <time>2020-10-10T09:43:30.000Z</time>
      </trkpt>
      <trkpt lat="43.60459" lon="3.82525">
        <ele>73.929807062525</ele>
        <time>2020-10-10T09:43:31.000Z</time>
      </trkpt>
      <trkpt lat="43.60462" lon="3.82526">
        <ele>74.060311906615</ele>
        <time>2020-10-10T09:43:32.000Z</time>
      </trkpt>
      <trkpt lat="43.60465" lon="3.82528">
        <ele>74.254864435798</ele>
        <time>2020-10-10T09:43:33.000Z</time>
      </trkpt>
      <trkpt lat="43.60468" lon="3.82529">
        <ele>74.449416964981</ele>
        <time>2020-10-10T09:43:34.000Z</time>
      </trkpt>
      <trkpt lat="43.6047" lon="3.82531">
        <ele>74.643969494163</ele>
        <time>2020-10-10T09:43:35.000Z</time>
      </trkpt>
      <trkpt lat="43.60473" lon="3.82532">
        <ele>74.838522023346</ele>
        <time>2020-10-10T09:43:36.000Z</time>
      </trkpt>
      <trkpt lat="43.60475" lon="3.82533">
        <ele>75.033074552529</ele>
        <time>2020-10-10T09:43:37.000Z</time>
      </trkpt>
      <trkpt lat="43.60478" lon="3.82534">
        <ele>75.227627081712</ele>
        <time>2020-10-10T09:43:38.000Z</time>
      </trkpt>
      <trkpt lat="43.60481" lon="3.82535">
        <ele>75.422179610895</ele>
        <time>2020-10-10T09:43:39.000Z</time>
      </trkpt>
      <trkpt lat="43.60484" lon="3.82537">
        <ele>75.616732140078</ele>
        <time>2020-10-10T09:43:40.000Z</time>
      </trkpt>
      <trkpt lat="43.60487" lon="3.82538">
        <ele>75.811284669261</ele>
        <time>2020-10-10T09:43:41.000Z</time>
      </trkpt>
      <trkpt lat="43.60489" lon="3.8254">
        <ele>76.003086748971</ele>
        <time>2020-10-10T09:43:42.000Z</time>
      </trkpt>
      <trkpt lat="43.60492" lon="3.82542">
        <ele>76.105967407407</ele>
        <time>2020-10-10T09:43:43.000Z</time>
      </trkpt>
      <trkpt lat="43.60494" lon="3.82543">
        <ele>76.208848065844</ele>
        <time>2020-10-10T09:43:44.000Z</time>
      </trkpt>
      <trkpt lat="43.60496" lon="3.82545">
        <ele>76.31172872428</ele>
        <time>2020-10-10T09:43:45.000Z</time>
      </trkpt>
      <trkpt lat="43.60499" lon="3.82546">
        <ele>76.414609382716</ele>
        <time>2020-10-10T09:43:46.000Z</time>
      </trkpt>
      <trkpt lat="43.60501" lon="3.82547">
        <ele>76.517490041152</ele>
        <time>2020-10-10T09:43:47.000Z</time>
      </trkpt>
      <trkpt lat="43.60504" lon="3.82548">
        <ele>76.620370699589</ele>
        <time>2020-10-10T09:43:48.000Z</time>
      </trkpt>
      <trkpt lat="43.60507" lon="3.8255">
        <ele>76.723251358025</ele>
        <time>2020-10-10T09:43:49.000Z</time>
      </trkpt>
      <trkpt lat="43.6051" lon="3.82552">
        <ele>76.826132016461</ele>
        <time>2020-10-10T09:43:50.000Z</time>
      </trkpt>
      <trkpt lat="43.60512" lon="3.82553">
        <ele>76.929012674897</ele>
        <time>2020-10-10T09:43:51.000Z</time>
      </trkpt>
      <trkpt lat="43.60515" lon="3.82555">
        <ele>77</ele>
        <time>2020-10-10T09:43:52.000Z</time>
      </trkpt>
      <trkpt lat="43.60518" lon="3.82556">
        <ele>77</ele>
        <time>2020-10-10T09:43:53.000Z</time>
      </trkpt>
      <trkpt lat="43.60521" lon="3.82558">
        <ele>77</ele>
        <time>2020-10-10T09:43:54.000Z</time>
      </trkpt>
      <trkpt lat="43.60524" lon="3.82559">
        <ele>77</ele>
        <time>2020-10-10T09:43:55.000Z</time>
      </trkpt>
      <trkpt lat="43.60527" lon="3.82561">
        <ele>77</ele>
        <time>2020-10-10T09:43:56.000Z</time>
      </trkpt>
      <trkpt lat="43.6053" lon="3.82563">
        <ele>77</ele>
        <time>2020-10-10T09:43:57.000Z</time>
      </trkpt>
      <trkpt lat="43.60533" lon="3.82565">
        <ele>77</ele>
        <time>2020-10-10T09:43:58.000Z</time>
      </trkpt>
      <trkpt lat="43.60535" lon="3.82567">
        <ele>77</ele>
        <time>2020-10-10T09:43:59.000Z</time>
      </trkpt>
      <trkpt lat="43.60538" lon="3.82569">
        <ele>77</ele>
        <time>2020-10-10T09:44:00.000Z</time>
      </trkpt>
      <trkpt lat="43.60541" lon="3.82571">
        <ele>77</ele>
        <time>2020-10-10T09:44:01.000Z</time>
      </trkpt>
      <trkpt lat="43.60543" lon="3.82572">
        <ele>77.03100032</ele>
        <time>2020-10-10T09:44:02.000Z</time>
      </trkpt>
      <trkpt lat="43.60546" lon="3.82574">
        <ele>77.13100032</ele>
        <time>2020-10-10T09:44:03.000Z</time>
      </trkpt>
      <trkpt lat="43.60549" lon="3.82576">
        <ele>77.23100032</ele>
        <time>2020-10-10T09:44:04.000Z</time>
      </trkpt>
      <trkpt lat="43.60552" lon="3.82577">
        <ele>77.33100032</ele>
        <time>2020-10-10T09:44:05.000Z</time>
      </trkpt>
      <trkpt lat="43.60556" lon="3.82579">
        <ele>77.43100032</ele>
        <time>2020-10-10T09:44:06.000Z</time>
      </trkpt>
      <trkpt lat="43.60559" lon="3.8258">
        <ele>77.53100032</ele>
        <time>2020-10-10T09:44:07.000Z</time>
      </trkpt>
      <trkpt lat="43.60561" lon="3.82582">
        <ele>77.63100032</ele>
        <time>2020-10-10T09:44:08.000Z</time>
      </trkpt>
      <trkpt lat="43.60564" lon="3.82583">
        <ele>77.73100032</ele>
        <time>2020-10-10T09:44:09.000Z</time>
      </trkpt>
      <trkpt lat="43.60567" lon="3.82585">
        <ele>77.83100032</ele>
        <time>2020-10-10T09:44:10.000Z</time>
      </trkpt>
      <trkpt lat="43.60569" lon="3.82587">
        <ele>77.93100032</ele>
        <time>2020-10-10T09:44:11.000Z</time>
      </trkpt>
      <trkpt lat="43.60571" lon="3.82589">
        <ele>77.908553599545</ele>
        <time>2020-10-10T09:44:12.000Z</time>
      </trkpt>
      <trkpt lat="43.60574" lon="3.82591">
        <ele>77.61356825599</ele>
        <time>2020-10-10T09:44:13.000Z</time>
      </trkpt>
      <trkpt lat="43.60576" lon="3.82592">
        <ele>77.318582912435</ele>
        <time>2020-10-10T09:44:14.000Z</time>
      </trkpt>
      <trkpt lat="43.60579" lon="3.82594">
        <ele>77.02359756888</ele>
        <time>2020-10-10T09:44:15.000Z</time>
      </trkpt>
      <trkpt lat="43.60581" lon="3.82595">
        <ele>76.728612225325</ele>
        <time>2020-10-10T09:44:16.000Z</time>
      </trkpt>
      <trkpt lat="43.60583" lon="3.82596">
        <ele>76.43362688177</ele>
        <time>2020-10-10T09:44:17.000Z</time>
      </trkpt>
      <trkpt lat="43.60586" lon="3.82596">
        <ele>75.843656194661</ele>
        <time>2020-10-10T09:44:19.000Z</time>
      </trkpt>
      <trkpt lat="43.60589" lon="3.82597">
        <ele>75.253685507551</ele>
        <time>2020-10-10T09:44:21.000Z</time>
      </trkpt>
      <trkpt lat="43.60591" lon="3.82597">
        <ele>74.971514475194</ele>
        <time>2020-10-10T09:44:22.000Z</time>
      </trkpt>
      <trkpt lat="43.60593" lon="3.82598">
        <ele>74.768055741833</ele>
        <time>2020-10-10T09:44:23.000Z</time>
      </trkpt>
      <trkpt lat="43.60596" lon="3.82598">
        <ele>74.564597008473</ele>
        <time>2020-10-10T09:44:24.000Z</time>
      </trkpt>
      <trkpt lat="43.606" lon="3.82598">
        <ele>74.361138275113</ele>
        <time>2020-10-10T09:44:25.000Z</time>
      </trkpt>
      <trkpt lat="43.60603" lon="3.82599">
        <ele>74.157679541752</ele>
        <time>2020-10-10T09:44:26.000Z</time>
      </trkpt>
      <trkpt lat="43.60608" lon="3.826">
        <ele>73.954220808392</ele>
        <time>2020-10-10T09:44:27.000Z</time>
      </trkpt>
      <trkpt lat="43.60612" lon="3.82602">
        <ele>73.750762075032</ele>
        <time>2020-10-10T09:44:28.000Z</time>
      </trkpt>
      <trkpt lat="43.60618" lon="3.82603">
        <ele>73.547303341671</ele>
        <time>2020-10-10T09:44:29.000Z</time>
      </trkpt>
      <trkpt lat="43.60624" lon="3.82605">
        <ele>73.343844608311</ele>
        <time>2020-10-10T09:44:30.000Z</time>
      </trkpt>
      <trkpt lat="43.6063" lon="3.82608">
        <ele>73.140385874951</ele>
        <time>2020-10-10T09:44:31.000Z</time>
      </trkpt>
      <trkpt lat="43.60636" lon="3.8261">
        <ele>72.8449984</ele>
        <time>2020-10-10T09:44:32.000Z</time>
      </trkpt>
      <trkpt lat="43.60643" lon="3.82613">
        <ele>72.3449984</ele>
        <time>2020-10-10T09:44:33.000Z</time>
      </trkpt>
      <trkpt lat="43.6065" lon="3.82615">
        <ele>71.8449984</ele>
        <time>2020-10-10T09:44:34.000Z</time>
      </trkpt>
      <trkpt lat="43.60658" lon="3.82618">
        <ele>71.3449984</ele>
        <time>2020-10-10T09:44:35.000Z</time>
      </trkpt>
      <trkpt lat="43.60666" lon="3.82621">
        <ele>70.8449984</ele>
        <time>2020-10-10T09:44:36.000Z</time>
      </trkpt>
      <trkpt lat="43.60674" lon="3.82625">
        <ele>70.3449984</ele>
        <time>2020-10-10T09:44:37.000Z</time>
      </trkpt>
      <trkpt lat="43.60682" lon="3.82628">
        <ele>69.8449984</ele>
        <time>2020-10-10T09:44:38.000Z</time>
      </trkpt>
      <trkpt lat="43.6069" lon="3.82633">
        <ele>69.3449984</ele>
        <time>2020-10-10T09:44:39.000Z</time>
      </trkpt>
      <trkpt lat="43.60698" lon="3.82637">
        <ele>68.8449984</ele>
        <time>2020-10-10T09:44:40.000Z</time>
      </trkpt>
      <trkpt lat="43.60706" lon="3.82642">
        <ele>68.3449984</ele>
        <time>2020-10-10T09:44:41.000Z</time>
      </trkpt>
      <trkpt lat="43.60714" lon="3.82647">
        <ele>68</ele>
        <time>2020-10-10T09:44:42.000Z</time>
      </trkpt>
      <trkpt lat="43.60721" lon="3.82654">
        <ele>68</ele>
        <time>2020-10-10T09:44:43.000Z</time>
      </trkpt>
      <trkpt lat="43.60727" lon="3.82662">
        <ele>68</ele>
        <time>2020-10-10T09:44:44.000Z</time>
      </trkpt>
      <trkpt lat="43.60733" lon="3.82669">
        <ele>68</ele>
        <time>2020-10-10T09:44:45.000Z</time>
      </trkpt>
      <trkpt lat="43.60739" lon="3.82674">
        <ele>68</ele>
        <time>2020-10-10T09:44:46.000Z</time>
      </trkpt>
      <trkpt lat="43.60745" lon="3.82677">
        <ele>68</ele>
        <time>2020-10-10T09:44:47.000Z</time>
      </trkpt>
      <trkpt lat="43.60752" lon="3.82678">
        <ele>68</ele>
        <time>2020-10-10T09:44:48.000Z</time>
      </trkpt>
      <trkpt lat="43.60759" lon="3.8268">
        <ele>68</ele>
        <time>2020-10-10T09:44:49.000Z</time>
      </trkpt>
      <trkpt lat="43.60765" lon="3.82683">
        <ele>68</ele>
        <time>2020-10-10T09:44:50.000Z</time>
      </trkpt>
      <trkpt lat="43.6077" lon="3.82686">
        <ele>68</ele>
        <time>2020-10-10T09:44:51.000Z</time>
      </trkpt>
      <trkpt lat="43.60776" lon="3.82688">
        <ele>68</ele>
        <time>2020-10-10T09:44:52.000Z</time>
      </trkpt>
      <trkpt lat="43.60781" lon="3.82691">
        <ele>68</ele>
        <time>2020-10-10T09:44:53.000Z</time>
      </trkpt>
      <trkpt lat="43.60786" lon="3.82693">
        <ele>68</ele>
        <time>2020-10-10T09:44:54.000Z</time>
      </trkpt>
      <trkpt lat="43.60791" lon="3.82695">
        <ele>68</ele>
        <time>2020-10-10T09:44:55.000Z</time>
      </trkpt>
      <trkpt lat="43.60796" lon="3.82697">
        <ele>68</ele>
        <time>2020-10-10T09:44:56.000Z</time>
      </trkpt>
      <trkpt lat="43.60801" lon="3.827">
        <ele>68</ele>
        <time>2020-10-10T09:44:57.000Z</time>
      </trkpt>
      <trkpt lat="43.60805" lon="3.82702">
        <ele>68</ele>
        <time>2020-10-10T09:44:58.000Z</time>
      </trkpt>
      <trkpt lat="43.6081" lon="3.82704">
        <ele>68</ele>
        <time>2020-10-10T09:44:59.000Z</time>
      </trkpt>
      <trkpt lat="43.60815" lon="3.82707">
        <ele>68</ele>
        <time>2020-10-10T09:45:00.000Z</time>
      </trkpt>
      <trkpt lat="43.6082" lon="3.82709">
        <ele>68</ele>
        <time>2020-10-10T09:45:01.000Z</time>
      </trkpt>
      <trkpt lat="43.60824" lon="3.82711">
        <ele>68.03100032</ele>
        <time>2020-10-10T09:45:02.000Z</time>
      </trkpt>
      <trkpt lat="43.60829" lon="3.82714">
        <ele>68.13100032</ele>
        <time>2020-10-10T09:45:03.000Z</time>
      </trkpt>
      <trkpt lat="43.60834" lon="3.82716">
        <ele>68.23100032</ele>
        <time>2020-10-10T09:45:04.000Z</time>
      </trkpt>
      <trkpt lat="43.60838" lon="3.82718">
        <ele>68.33100032</ele>
        <time>2020-10-10T09:45:05.000Z</time>
      </trkpt>
      <trkpt lat="43.60843" lon="3.8272">
        <ele>68.43100032</ele>
        <time>2020-10-10T09:45:06.000Z</time>
      </trkpt>
      <trkpt lat="43.60847" lon="3.82722">
        <ele>68.53100032</ele>
        <time>2020-10-10T09:45:07.000Z</time>
      </trkpt>
      <trkpt lat="43.60851" lon="3.82725">
        <ele>68.63100032</ele>
        <time>2020-10-10T09:45:08.000Z</time>
      </trkpt>
      <trkpt lat="43.60855" lon="3.82726">
        <ele>68.73100032</ele>
        <time>2020-10-10T09:45:09.000Z</time>
      </trkpt>
      <trkpt lat="43.6086" lon="3.82728">
        <ele>68.83100032</ele>
        <time>2020-10-10T09:45:10.000Z</time>
      </trkpt>
      <trkpt lat="43.60864" lon="3.8273">
        <ele>68.93100032</ele>
        <time>2020-10-10T09:45:11.000Z</time>
      </trkpt>
      <trkpt lat="43.60867" lon="3.82732">
        <ele>69.060311906615</ele>
        <time>2020-10-10T09:45:12.000Z</time>
      </trkpt>
      <trkpt lat="43.60871" lon="3.82734">
        <ele>69.254864435798</ele>
        <time>2020-10-10T09:45:13.000Z</time>
      </trkpt>
      <trkpt lat="43.60875" lon="3.82735">
        <ele>69.449416964981</ele>
        <time>2020-10-10T09:45:14.000Z</time>
      </trkpt>
      <trkpt lat="43.60879" lon="3.82737">
        <ele>69.643969494163</ele>
        <time>2020-10-10T09:45:15.000Z</time>
      </trkpt>
      <trkpt lat="43.60882" lon="3.82738">
        <ele>69.838522023346</ele>
        <time>2020-10-10T09:45:16.000Z</time>
      </trkpt>
      <trkpt lat="43.60886" lon="3.82739">
        <ele>70.033074552529</ele>
        <time>2020-10-10T09:45:17.000Z</time>
      </trkpt>
      <trkpt lat="43.6089" lon="3.82741">
        <ele>70.227627081712</ele>
        <time>2020-10-10T09:45:18.000Z</time>
      </trkpt>
      <trkpt lat="43.60894" lon="3.82742">
        <ele>70.422179610895</ele>
        <time>2020-10-10T09:45:19.000Z</time>
      </trkpt>
      <trkpt lat="43.60898" lon="3.82744">
        <ele>70.616732140078</ele>
        <time>2020-10-10T09:45:20.000Z</time>
      </trkpt>
      <trkpt lat="43.60902" lon="3.82747">
        <ele>70.811284669261</ele>
        <time>2020-10-10T09:45:21.000Z</time>
      </trkpt>
      <trkpt lat="43.60906" lon="3.82749">
        <ele>70.996913251029</ele>
        <time>2020-10-10T09:45:22.000Z</time>
      </trkpt>
      <trkpt lat="43.6091" lon="3.82749">
        <ele>70.894032592593</ele>
        <time>2020-10-10T09:45:23.000Z</time>
      </trkpt>
      <trkpt lat="43.60913" lon="3.8275">
        <ele>70.791151934156</ele>
        <time>2020-10-10T09:45:24.000Z</time>
      </trkpt>
      <trkpt lat="43.60918" lon="3.82751">
        <ele>70.68827127572</ele>
        <time>2020-10-10T09:45:25.000Z</time>
      </trkpt>
      <trkpt lat="43.60921" lon="3.82752">
        <ele>70.585390617284</ele>
        <time>2020-10-10T09:45:26.000Z</time>
      </trkpt>
      <trkpt lat="43.60926" lon="3.82753">
        <ele>70.482509958848</ele>
        <time>2020-10-10T09:45:27.000Z</time>
      </trkpt>
      <trkpt lat="43.6093" lon="3.82755">
        <ele>70.379629300411</ele>
        <time>2020-10-10T09:45:28.000Z</time>
      </trkpt>
      <trkpt lat="43.60935" lon="3.82757">
        <ele>70.276748641975</ele>
        <time>2020-10-10T09:45:29.000Z</time>
      </trkpt>
      <trkpt lat="43.6094" lon="3.82759">
        <ele>70.173867983539</ele>
        <time>2020-10-10T09:45:30.000Z</time>
      </trkpt>
      <trkpt lat="43.60945" lon="3.82762">
        <ele>70.070987325103</ele>
        <time>2020-10-10T09:45:31.000Z</time>
      </trkpt>
      <trkpt lat="43.6095" lon="3.82764">
        <ele>69.969902620643</ele>
        <time>2020-10-10T09:45:32.000Z</time>
      </trkpt>
      <trkpt lat="43.60956" lon="3.82767">
        <ele>69.872815302328</ele>
        <time>2020-10-10T09:45:33.000Z</time>
      </trkpt>
      <trkpt lat="43.60961" lon="3.82769">
        <ele>69.775727984014</ele>
        <time>2020-10-10T09:45:34.000Z</time>
      </trkpt>
      <trkpt lat="43.60965" lon="3.82772">
        <ele>69.678640665699</ele>
        <time>2020-10-10T09:45:35.000Z</time>
      </trkpt>
      <trkpt lat="43.60971" lon="3.82775">
        <ele>69.581553347384</ele>
        <time>2020-10-10T09:45:36.000Z</time>
      </trkpt>
      <trkpt lat="43.60976" lon="3.82777">
        <ele>69.48446602907</ele>
        <time>2020-10-10T09:45:37.000Z</time>
      </trkpt>
      <trkpt lat="43.60982" lon="3.8278">
        <ele>69.387378710755</ele>
        <time>2020-10-10T09:45:38.000Z</time>
      </trkpt>
      <trkpt lat="43.60988" lon="3.82782">
        <ele>69.29029139244</ele>
        <time>2020-10-10T09:45:39.000Z</time>
      </trkpt>
      <trkpt lat="43.60993" lon="3.82784">
        <ele>69.193204074126</ele>
        <time>2020-10-10T09:45:40.000Z</time>
      </trkpt>
      <trkpt lat="43.60999" lon="3.82787">
        <ele>69.096116755811</ele>
        <time>2020-10-10T09:45:41.000Z</time>
      </trkpt>
      <trkpt lat="43.61005" lon="3.8279">
        <ele>68.996970664708</ele>
        <time>2020-10-10T09:45:42.000Z</time>
      </trkpt>
      <trkpt lat="43.6101" lon="3.82793">
        <ele>68.693940165779</ele>
        <time>2020-10-10T09:45:43.000Z</time>
      </trkpt>
      <trkpt lat="43.61016" lon="3.82796">
        <ele>68.390909666851</ele>
        <time>2020-10-10T09:45:44.000Z</time>
      </trkpt>
      <trkpt lat="43.61021" lon="3.82798">
        <ele>68.087879167922</ele>
        <time>2020-10-10T09:45:45.000Z</time>
      </trkpt>
      <trkpt lat="43.61026" lon="3.82801">
        <ele>67.784848668993</ele>
        <time>2020-10-10T09:45:46.000Z</time>
      </trkpt>
      <trkpt lat="43.61031" lon="3.82804">
        <ele>67.481818170064</ele>
        <time>2020-10-10T09:45:47.000Z</time>
      </trkpt>
      <trkpt lat="43.61037" lon="3.82808">
        <ele>67.178787671135</ele>
        <time>2020-10-10T09:45:48.000Z</time>
      </trkpt>
      <trkpt lat="43.61042" lon="3.82811">
        <ele>66.875757172207</ele>
        <time>2020-10-10T09:45:49.000Z</time>
      </trkpt>
      <trkpt lat="43.61048" lon="3.82814">
        <ele>66.572726673278</ele>
        <time>2020-10-10T09:45:50.000Z</time>
      </trkpt>
      <trkpt lat="43.61054" lon="3.82817">
        <ele>66.269696174349</ele>
        <time>2020-10-10T09:45:51.000Z</time>
      </trkpt>
      <trkpt lat="43.6106" lon="3.8282">
        <ele>65.96632555102</ele>
        <time>2020-10-10T09:45:52.000Z</time>
      </trkpt>
      <trkpt lat="43.61067" lon="3.82823">
        <ele>65.660203102041</ele>
        <time>2020-10-10T09:45:53.000Z</time>
      </trkpt>
      <trkpt lat="43.61073" lon="3.82826">
        <ele>65.354080653061</ele>
        <time>2020-10-10T09:45:54.000Z</time>
      </trkpt>
      <trkpt lat="43.61079" lon="3.82829">
        <ele>65.047958204082</ele>
        <time>2020-10-10T09:45:55.000Z</time>
      </trkpt>
      <trkpt lat="43.61085" lon="3.82833">
        <ele>64.741835755102</ele>
        <time>2020-10-10T09:45:56.000Z</time>
      </trkpt>
      <trkpt lat="43.61092" lon="3.82836">
        <ele>64.435713306122</ele>
        <time>2020-10-10T09:45:57.000Z</time>
      </trkpt>
      <trkpt lat="43.61098" lon="3.82838">
        <ele>64.129590857143</ele>
        <time>2020-10-10T09:45:58.000Z</time>
      </trkpt>
      <trkpt lat="43.61105" lon="3.82841">
        <ele>63.823468408163</ele>
        <time>2020-10-10T09:45:59.000Z</time>
      </trkpt>
      <trkpt lat="43.61109" lon="3.82843">
        <ele>63.517345959184</ele>
        <time>2020-10-10T09:46:00.000Z</time>
      </trkpt>
      <trkpt lat="43.61112" lon="3.82845">
        <ele>63.211223510204</ele>
        <time>2020-10-10T09:46:01.000Z</time>
      </trkpt>
      <trkpt lat="43.61115" lon="3.82847">
        <ele>63.037897672061</ele>
        <time>2020-10-10T09:46:02.000Z</time>
      </trkpt>
      <trkpt lat="43.61117" lon="3.82849">
        <ele>63.160146965166</ele>
        <time>2020-10-10T09:46:03.000Z</time>
      </trkpt>
      <trkpt lat="43.61119" lon="3.82851">
        <ele>63.282396258272</ele>
        <time>2020-10-10T09:46:04.000Z</time>
      </trkpt>
      <trkpt lat="43.61119" lon="3.82852">
        <ele>64</ele>
        <time>2020-10-10T09:46:10.000Z</time>
      </trkpt>
      <trkpt lat="43.61124" lon="3.82863">
        <ele>62.993826502058</ele>
        <time>2020-10-10T09:47:37.000Z</time>
      </trkpt>
      <trkpt lat="43.61127" lon="3.82867">
        <ele>62.788065185185</ele>
        <time>2020-10-10T09:47:38.000Z</time>
      </trkpt>
      <trkpt lat="43.6113" lon="3.8287">
        <ele>62.582303868313</ele>
        <time>2020-10-10T09:47:39.000Z</time>
      </trkpt>
      <trkpt lat="43.61133" lon="3.82873">
        <ele>62.37654255144</ele>
        <time>2020-10-10T09:47:40.000Z</time>
      </trkpt>
      <trkpt lat="43.61136" lon="3.82874">
        <ele>62.170781234568</ele>
        <time>2020-10-10T09:47:41.000Z</time>
      </trkpt>
      <trkpt lat="43.6114" lon="3.82874">
        <ele>61.965019917695</ele>
        <time>2020-10-10T09:47:42.000Z</time>
      </trkpt>
      <trkpt lat="43.61144" lon="3.82876">
        <ele>61.759258600823</ele>
        <time>2020-10-10T09:47:43.000Z</time>
      </trkpt>
      <trkpt lat="43.61147" lon="3.82878">
        <ele>61.553497283951</ele>
        <time>2020-10-10T09:47:44.000Z</time>
      </trkpt>
      <trkpt lat="43.61152" lon="3.82881">
        <ele>61.347735967078</ele>
        <time>2020-10-10T09:47:45.000Z</time>
      </trkpt>
      <trkpt lat="43.61156" lon="3.82883">
        <ele>61.141974650206</ele>
        <time>2020-10-10T09:47:46.000Z</time>
      </trkpt>
      <trkpt lat="43.61161" lon="3.82885">
        <ele>61</ele>
        <time>2020-10-10T09:47:47.000Z</time>
      </trkpt>
      <trkpt lat="43.61165" lon="3.82888">
        <ele>61</ele>
        <time>2020-10-10T09:47:48.000Z</time>
      </trkpt>
      <trkpt lat="43.61168" lon="3.82891">
        <ele>61</ele>
        <time>2020-10-10T09:47:49.000Z</time>
      </trkpt>
      <trkpt lat="43.61172" lon="3.82894">
        <ele>61</ele>
        <time>2020-10-10T09:47:50.000Z</time>
      </trkpt>
      <trkpt lat="43.61176" lon="3.82897">
        <ele>61</ele>
        <time>2020-10-10T09:47:51.000Z</time>
      </trkpt>
      <trkpt lat="43.6118" lon="3.82901">
        <ele>61</ele>
        <time>2020-10-10T09:47:52.000Z</time>
      </trkpt>
      <trkpt lat="43.61183" lon="3.82905">
        <ele>61</ele>
        <time>2020-10-10T09:47:53.000Z</time>
      </trkpt>
      <trkpt lat="43.61185" lon="3.8291">
        <ele>61</ele>
        <time>2020-10-10T09:47:54.000Z</time>
      </trkpt>
      <trkpt lat="43.61187" lon="3.82916">
        <ele>61</ele>
        <time>2020-10-10T09:47:55.000Z</time>
      </trkpt>
      <trkpt lat="43.61187" lon="3.82922">
        <ele>61</ele>
        <time>2020-10-10T09:47:56.000Z</time>
      </trkpt>
      <trkpt lat="43.61188" lon="3.82929">
        <ele>60.997020537193</ele>
        <time>2020-10-10T09:47:57.000Z</time>
      </trkpt>
      <trkpt lat="43.61188" lon="3.82935">
        <ele>60.897715702811</ele>
        <time>2020-10-10T09:47:58.000Z</time>
      </trkpt>
      <trkpt lat="43.61189" lon="3.82941">
        <ele>60.798410868429</ele>
        <time>2020-10-10T09:47:59.000Z</time>
      </trkpt>
      <trkpt lat="43.61189" lon="3.82947">
        <ele>60.699106034048</ele>
        <time>2020-10-10T09:48:00.000Z</time>
      </trkpt>
      <trkpt lat="43.6119" lon="3.82953">
        <ele>60.599801199666</ele>
        <time>2020-10-10T09:48:01.000Z</time>
      </trkpt>
      <trkpt lat="43.6119" lon="3.82959">
        <ele>60.500496365284</ele>
        <time>2020-10-10T09:48:02.000Z</time>
      </trkpt>
      <trkpt lat="43.6119" lon="3.82965">
        <ele>60.401191530902</ele>
        <time>2020-10-10T09:48:03.000Z</time>
      </trkpt>
      <trkpt lat="43.6119" lon="3.82971">
        <ele>60.301886696521</ele>
        <time>2020-10-10T09:48:04.000Z</time>
      </trkpt>
      <trkpt lat="43.6119" lon="3.82977">
        <ele>60.202581862139</ele>
        <time>2020-10-10T09:48:05.000Z</time>
      </trkpt>
      <trkpt lat="43.61192" lon="3.82983">
        <ele>60.103277027757</ele>
        <time>2020-10-10T09:48:06.000Z</time>
      </trkpt>
      <trkpt lat="43.61193" lon="3.82988">
        <ele>60.003972193375</ele>
        <time>2020-10-10T09:48:07.000Z</time>
      </trkpt>
      <trkpt lat="43.61195" lon="3.82993">
        <ele>60.099481898274</ele>
        <time>2020-10-10T09:48:08.000Z</time>
      </trkpt>
      <trkpt lat="43.61197" lon="3.82997">
        <ele>60.203108875642</ele>
        <time>2020-10-10T09:48:09.000Z</time>
      </trkpt>
      <trkpt lat="43.61199" lon="3.83">
        <ele>60.306735853011</ele>
        <time>2020-10-10T09:48:10.000Z</time>
      </trkpt>
      <trkpt lat="43.61201" lon="3.82998">
        <ele>60.410362830379</ele>
        <time>2020-10-10T09:48:11.000Z</time>
      </trkpt>
      <trkpt lat="43.61205" lon="3.82998">
        <ele>60.513989807748</ele>
        <time>2020-10-10T09:48:12.000Z</time>
      </trkpt>
      <trkpt lat="43.61208" lon="3.82997">
        <ele>60.617616785116</ele>
        <time>2020-10-10T09:48:13.000Z</time>
      </trkpt>
      <trkpt lat="43.61212" lon="3.82996">
        <ele>60.721243762485</ele>
        <time>2020-10-10T09:48:14.000Z</time>
      </trkpt>
      <trkpt lat="43.61215" lon="3.82995">
        <ele>60.824870739854</ele>
        <time>2020-10-10T09:48:15.000Z</time>
      </trkpt>
      <trkpt lat="43.61219" lon="3.82995">
        <ele>60.928497717222</ele>
        <time>2020-10-10T09:48:16.000Z</time>
      </trkpt>
      <trkpt lat="43.61222" lon="3.82994">
        <ele>61.06200064</ele>
        <time>2020-10-10T09:48:17.000Z</time>
      </trkpt>
      <trkpt lat="43.61225" lon="3.82995">
        <ele>61.26200064</ele>
        <time>2020-10-10T09:48:18.000Z</time>
      </trkpt>
      <trkpt lat="43.61228" lon="3.82995">
        <ele>61.46200064</ele>
        <time>2020-10-10T09:48:19.000Z</time>
      </trkpt>
      <trkpt lat="43.6123" lon="3.82995">
        <ele>61.66200064</ele>
        <time>2020-10-10T09:48:20.000Z</time>
      </trkpt>
      <trkpt lat="43.61233" lon="3.82995">
        <ele>62.06200064</ele>
        <time>2020-10-10T09:48:22.000Z</time>
      </trkpt>
      <trkpt lat="43.61235" lon="3.82995">
        <ele>63</ele>
        <time>2020-10-10T09:48:27.000Z</time>
      </trkpt>
      <trkpt lat="43.61235" lon="3.82994">
        <ele>63</ele>
        <time>2020-10-10T09:48:30.000Z</time>
      </trkpt>
      <trkpt lat="43.61238" lon="3.82992">
        <ele>63</ele>
        <time>2020-10-10T09:49:03.000Z</time>
      </trkpt>
      <trkpt lat="43.6124" lon="3.82992">
        <ele>63.062699617496</ele>
        <time>2020-10-10T09:49:04.000Z</time>
      </trkpt>
      <trkpt lat="43.61243" lon="3.82992">
        <ele>63.168969579246</ele>
        <time>2020-10-10T09:49:05.000Z</time>
      </trkpt>
      <trkpt lat="43.61246" lon="3.82991">
        <ele>63.275239540995</ele>
        <time>2020-10-10T09:49:06.000Z</time>
      </trkpt>
      <trkpt lat="43.61249" lon="3.8299">
        <ele>63.381509502745</ele>
        <time>2020-10-10T09:49:07.000Z</time>
      </trkpt>
      <trkpt lat="43.61252" lon="3.82989">
        <ele>63.487779464495</ele>
        <time>2020-10-10T09:49:08.000Z</time>
      </trkpt>
      <trkpt lat="43.61255" lon="3.82988">
        <ele>63.594049426244</ele>
        <time>2020-10-10T09:49:09.000Z</time>
      </trkpt>
      <trkpt lat="43.61259" lon="3.82987">
        <ele>63.700319387994</ele>
        <time>2020-10-10T09:49:10.000Z</time>
      </trkpt>
      <trkpt lat="43.61262" lon="3.82986">
        <ele>63.806589349743</ele>
        <time>2020-10-10T09:49:11.000Z</time>
      </trkpt>
      <trkpt lat="43.61266" lon="3.82985">
        <ele>63.912859311493</ele>
        <time>2020-10-10T09:49:12.000Z</time>
      </trkpt>
      <trkpt lat="43.61269" lon="3.82984">
        <ele>64.035469230197</ele>
        <time>2020-10-10T09:49:13.000Z</time>
      </trkpt>
      <trkpt lat="43.61273" lon="3.82983">
        <ele>64.23251350305</ele>
        <time>2020-10-10T09:49:14.000Z</time>
      </trkpt>
      <trkpt lat="43.61277" lon="3.82982">
        <ele>64.429557775903</ele>
        <time>2020-10-10T09:49:15.000Z</time>
      </trkpt>
      <trkpt lat="43.61281" lon="3.82981">
        <ele>64.626602048756</ele>
        <time>2020-10-10T09:49:16.000Z</time>
      </trkpt>
      <trkpt lat="43.61284" lon="3.8298">
        <ele>64.823646321609</ele>
        <time>2020-10-10T09:49:17.000Z</time>
      </trkpt>
      <trkpt lat="43.61288" lon="3.82979">
        <ele>65.020690594462</ele>
        <time>2020-10-10T09:49:18.000Z</time>
      </trkpt>
      <trkpt lat="43.61292" lon="3.82978">
        <ele>65.217734867315</ele>
        <time>2020-10-10T09:49:19.000Z</time>
      </trkpt>
      <trkpt lat="43.61296" lon="3.82978">
        <ele>65.414779140168</ele>
        <time>2020-10-10T09:49:20.000Z</time>
      </trkpt>
      <trkpt lat="43.61301" lon="3.82978">
        <ele>65.611823413021</ele>
        <time>2020-10-10T09:49:21.000Z</time>
      </trkpt>
      <trkpt lat="43.61305" lon="3.82978">
        <ele>65.808867685874</ele>
        <time>2020-10-10T09:49:22.000Z</time>
      </trkpt>
      <trkpt lat="43.6131" lon="3.82978">
        <ele>66.003089926891</ele>
        <time>2020-10-10T09:49:23.000Z</time>
      </trkpt>
      <trkpt lat="43.61314" lon="3.82978">
        <ele>66.106076504692</ele>
        <time>2020-10-10T09:49:24.000Z</time>
      </trkpt>
      <trkpt lat="43.61318" lon="3.82977">
        <ele>66.209063082492</ele>
        <time>2020-10-10T09:49:25.000Z</time>
      </trkpt>
      <trkpt lat="43.61323" lon="3.82978">
        <ele>66.312049660293</ele>
        <time>2020-10-10T09:49:26.000Z</time>
      </trkpt>
      <trkpt lat="43.61327" lon="3.82978">
        <ele>66.415036238093</ele>
        <time>2020-10-10T09:49:27.000Z</time>
      </trkpt>
      <trkpt lat="43.61331" lon="3.82978">
        <ele>66.518022815894</ele>
        <time>2020-10-10T09:49:28.000Z</time>
      </trkpt>
      <trkpt lat="43.61335" lon="3.82978">
        <ele>66.621009393694</ele>
        <time>2020-10-10T09:49:29.000Z</time>
      </trkpt>
      <trkpt lat="43.6134" lon="3.82978">
        <ele>66.723995971495</ele>
        <time>2020-10-10T09:49:30.000Z</time>
      </trkpt>
      <trkpt lat="43.61344" lon="3.82978">
        <ele>66.826982549295</ele>
        <time>2020-10-10T09:49:31.000Z</time>
      </trkpt>
      <trkpt lat="43.61348" lon="3.82978">
        <ele>66.929969127096</ele>
        <time>2020-10-10T09:49:32.000Z</time>
      </trkpt>
      <trkpt lat="43.61352" lon="3.82977">
        <ele>67.031714578938</ele>
        <time>2020-10-10T09:49:33.000Z</time>
      </trkpt>
      <trkpt lat="43.61355" lon="3.82977">
        <ele>67.13082263812</ele>
        <time>2020-10-10T09:49:34.000Z</time>
      </trkpt>
      <trkpt lat="43.61359" lon="3.82977">
        <ele>67.229930697302</ele>
        <time>2020-10-10T09:49:35.000Z</time>
      </trkpt>
      <trkpt lat="43.61362" lon="3.82978">
        <ele>67.329038756484</ele>
        <time>2020-10-10T09:49:36.000Z</time>
      </trkpt>
      <trkpt lat="43.61366" lon="3.82978">
        <ele>67.428146815666</ele>
        <time>2020-10-10T09:49:37.000Z</time>
      </trkpt>
      <trkpt lat="43.61369" lon="3.82978">
        <ele>67.527254874848</ele>
        <time>2020-10-10T09:49:38.000Z</time>
      </trkpt>
      <trkpt lat="43.61372" lon="3.82979">
        <ele>67.62636293403</ele>
        <time>2020-10-10T09:49:39.000Z</time>
      </trkpt>
      <trkpt lat="43.61376" lon="3.82979">
        <ele>67.725470993212</ele>
        <time>2020-10-10T09:49:40.000Z</time>
      </trkpt>
      <trkpt lat="43.61379" lon="3.8298">
        <ele>67.824579052394</ele>
        <time>2020-10-10T09:49:41.000Z</time>
      </trkpt>
      <trkpt lat="43.61383" lon="3.8298">
        <ele>67.923687111576</ele>
        <time>2020-10-10T09:49:42.000Z</time>
      </trkpt>
      <trkpt lat="43.61387" lon="3.8298">
        <ele>68.046371612903</ele>
        <time>2020-10-10T09:49:43.000Z</time>
      </trkpt>
      <trkpt lat="43.6139" lon="3.8298">
        <ele>68.247984516129</ele>
        <time>2020-10-10T09:49:44.000Z</time>
      </trkpt>
      <trkpt lat="43.61394" lon="3.8298">
        <ele>68.449597419355</ele>
        <time>2020-10-10T09:49:45.000Z</time>
      </trkpt>
      <trkpt lat="43.61398" lon="3.8298">
        <ele>68.651210322581</ele>
        <time>2020-10-10T09:49:46.000Z</time>
      </trkpt>
      <trkpt lat="43.61401" lon="3.8298">
        <ele>68.852823225806</ele>
        <time>2020-10-10T09:49:47.000Z</time>
      </trkpt>
      <trkpt lat="43.61405" lon="3.8298">
        <ele>69.054436129032</ele>
        <time>2020-10-10T09:49:48.000Z</time>
      </trkpt>
      <trkpt lat="43.61409" lon="3.82979">
        <ele>69.256049032258</ele>
        <time>2020-10-10T09:49:49.000Z</time>
      </trkpt>
      <trkpt lat="43.61413" lon="3.82979">
        <ele>69.457661935484</ele>
        <time>2020-10-10T09:49:50.000Z</time>
      </trkpt>
      <trkpt lat="43.61416" lon="3.8298">
        <ele>69.65927483871</ele>
        <time>2020-10-10T09:49:51.000Z</time>
      </trkpt>
      <trkpt lat="43.6142" lon="3.82979">
        <ele>69.860887741935</ele>
        <time>2020-10-10T09:49:52.000Z</time>
      </trkpt>
      <trkpt lat="43.61424" lon="3.82979">
        <ele>70.03100032</ele>
        <time>2020-10-10T09:49:53.000Z</time>
      </trkpt>
      <trkpt lat="43.61427" lon="3.82979">
        <ele>70.13100032</ele>
        <time>2020-10-10T09:49:54.000Z</time>
      </trkpt>
      <trkpt lat="43.61431" lon="3.82979">
        <ele>70.23100032</ele>
        <time>2020-10-10T09:49:55.000Z</time>
      </trkpt>
      <trkpt lat="43.61435" lon="3.8298">
        <ele>70.33100032</ele>
        <time>2020-10-10T09:49:56.000Z</time>
      </trkpt>
      <trkpt lat="43.61438" lon="3.8298">
        <ele>70.43100032</ele>
        <time>2020-10-10T09:49:57.000Z</time>
      </trkpt>
      <trkpt lat="43.61442" lon="3.82979">
        <ele>70.53100032</ele>
        <time>2020-10-10T09:49:58.000Z</time>
      </trkpt>
      <trkpt lat="43.61445" lon="3.82979">
        <ele>70.63100032</ele>
        <time>2020-10-10T09:49:59.000Z</time>
      </trkpt>
      <trkpt lat="43.61449" lon="3.82979">
        <ele>70.73100032</ele>
        <time>2020-10-10T09:50:00.000Z</time>
      </trkpt>
      <trkpt lat="43.61452" lon="3.82978">
        <ele>70.83100032</ele>
        <time>2020-10-10T09:50:01.000Z</time>
      </trkpt>
      <trkpt lat="43.61455" lon="3.82977">
        <ele>70.93100032</ele>
        <time>2020-10-10T09:50:02.000Z</time>
      </trkpt>
      <trkpt lat="43.61458" lon="3.82977">
        <ele>70.909532140078</ele>
        <time>2020-10-10T09:50:03.000Z</time>
      </trkpt>
      <trkpt lat="43.61461" lon="3.82978">
        <ele>70.617703346304</ele>
        <time>2020-10-10T09:50:04.000Z</time>
      </trkpt>
      <trkpt lat="43.61463" lon="3.82978">
        <ele>70.325874552529</ele>
        <time>2020-10-10T09:50:05.000Z</time>
      </trkpt>
      <trkpt lat="43.61464" lon="3.82975">
        <ele>68.866730583658</ele>
        <time>2020-10-10T09:50:10.000Z</time>
      </trkpt>
      <trkpt lat="43.61463" lon="3.8297">
        <ele>68.283072996109</ele>
        <time>2020-10-10T09:50:12.000Z</time>
      </trkpt>
      <trkpt lat="43.61462" lon="3.82967">
        <ele>68.002994329425</ele>
        <time>2020-10-10T09:50:13.000Z</time>
      </trkpt>
      <trkpt lat="43.61461" lon="3.82963">
        <ele>68.102794664882</ele>
        <time>2020-10-10T09:50:14.000Z</time>
      </trkpt>
      <trkpt lat="43.6146" lon="3.82958">
        <ele>68.202595000339</ele>
        <time>2020-10-10T09:50:15.000Z</time>
      </trkpt>
      <trkpt lat="43.61459" lon="3.82954">
        <ele>68.302395335795</ele>
        <time>2020-10-10T09:50:16.000Z</time>
      </trkpt>
      <trkpt lat="43.6146" lon="3.8295">
        <ele>68.402195671252</ele>
        <time>2020-10-10T09:50:17.000Z</time>
      </trkpt>
      <trkpt lat="43.6146" lon="3.82945">
        <ele>68.501996006709</ele>
        <time>2020-10-10T09:50:18.000Z</time>
      </trkpt>
      <trkpt lat="43.6146" lon="3.82942">
        <ele>68.601796342166</ele>
        <time>2020-10-10T09:50:19.000Z</time>
      </trkpt>
      <trkpt lat="43.61459" lon="3.8294">
        <ele>68.701596677623</ele>
        <time>2020-10-10T09:50:20.000Z</time>
      </trkpt>
      <trkpt lat="43.61461" lon="3.82936">
        <ele>68.80139701308</ele>
        <time>2020-10-10T09:50:21.000Z</time>
      </trkpt>
      <trkpt lat="43.61463" lon="3.82933">
        <ele>68.901197348537</ele>
        <time>2020-10-10T09:50:22.000Z</time>
      </trkpt>
      <trkpt lat="43.61464" lon="3.82929">
        <ele>69.001125765766</ele>
        <time>2020-10-10T09:50:23.000Z</time>
      </trkpt>
      <trkpt lat="43.61465" lon="3.82926">
        <ele>69.113738378378</ele>
        <time>2020-10-10T09:50:24.000Z</time>
      </trkpt>
      <trkpt lat="43.61465" lon="3.82922">
        <ele>69.226350990991</ele>
        <time>2020-10-10T09:50:25.000Z</time>
      </trkpt>
      <trkpt lat="43.61466" lon="3.82919">
        <ele>69.338963603604</ele>
        <time>2020-10-10T09:50:26.000Z</time>
      </trkpt>
      <trkpt lat="43.61466" lon="3.82917">
        <ele>70.024539829124</ele>
        <time>2020-10-10T09:50:32.000Z</time>
      </trkpt>
      <trkpt lat="43.61467" lon="3.82915">
        <ele>70.944783421284</ele>
        <time>2020-10-10T09:50:35.000Z</time>
      </trkpt>
      <trkpt lat="43.61469" lon="3.82917">
        <ele>71</ele>
        <time>2020-10-10T09:50:36.000Z</time>
      </trkpt>
      <trkpt lat="43.61472" lon="3.82918">
        <ele>71</ele>
        <time>2020-10-10T09:50:37.000Z</time>
      </trkpt>
      <trkpt lat="43.61476" lon="3.8292">
        <ele>71</ele>
        <time>2020-10-10T09:50:38.000Z</time>
      </trkpt>
      <trkpt lat="43.6148" lon="3.82922">
        <ele>71</ele>
        <time>2020-10-10T09:50:39.000Z</time>
      </trkpt>
      <trkpt lat="43.61483" lon="3.82925">
        <ele>71</ele>
        <time>2020-10-10T09:50:40.000Z</time>
      </trkpt>
      <trkpt lat="43.61487" lon="3.82927">
        <ele>71</ele>
        <time>2020-10-10T09:50:41.000Z</time>
      </trkpt>
      <trkpt lat="43.61491" lon="3.82929">
        <ele>71</ele>
        <time>2020-10-10T09:50:42.000Z</time>
      </trkpt>
      <trkpt lat="43.61494" lon="3.82931">
        <ele>71</ele>
        <time>2020-10-10T09:50:43.000Z</time>
      </trkpt>
      <trkpt lat="43.61497" lon="3.82934">
        <ele>71</ele>
        <time>2020-10-10T09:50:44.000Z</time>
      </trkpt>
      <trkpt lat="43.615" lon="3.82936">
        <ele>70.969931803707</ele>
        <time>2020-10-10T09:50:45.000Z</time>
      </trkpt>
      <trkpt lat="43.61503" lon="3.82938">
        <ele>70.872938623336</ele>
        <time>2020-10-10T09:50:46.000Z</time>
      </trkpt>
      <trkpt lat="43.61506" lon="3.82941">
        <ele>70.775945442965</ele>
        <time>2020-10-10T09:50:47.000Z</time>
      </trkpt>
      <trkpt lat="43.61509" lon="3.82943">
        <ele>70.678952262595</ele>
        <time>2020-10-10T09:50:48.000Z</time>
      </trkpt>
      <trkpt lat="43.61511" lon="3.82945">
        <ele>70.581959082224</ele>
        <time>2020-10-10T09:50:49.000Z</time>
      </trkpt>
      <trkpt lat="43.61514" lon="3.82947">
        <ele>70.484965901853</ele>
        <time>2020-10-10T09:50:50.000Z</time>
      </trkpt>
      <trkpt lat="43.61517" lon="3.8295">
        <ele>70.387972721483</ele>
        <time>2020-10-10T09:50:51.000Z</time>
      </trkpt>
      <trkpt lat="43.61521" lon="3.82952">
        <ele>70.290979541112</ele>
        <time>2020-10-10T09:50:52.000Z</time>
      </trkpt>
      <trkpt lat="43.61524" lon="3.82956">
        <ele>70.193986360741</ele>
        <time>2020-10-10T09:50:53.000Z</time>
      </trkpt>
      <trkpt lat="43.61527" lon="3.82958">
        <ele>70.096993180371</ele>
        <time>2020-10-10T09:50:54.000Z</time>
      </trkpt>
      <trkpt lat="43.6153" lon="3.82961">
        <ele>70</ele>
        <time>2020-10-10T09:50:55.000Z</time>
      </trkpt>
      <trkpt lat="43.61534" lon="3.82964">
        <ele>69.896800791513</ele>
        <time>2020-10-10T09:50:56.000Z</time>
      </trkpt>
      <trkpt lat="43.61537" lon="3.82967">
        <ele>69.793601583026</ele>
        <time>2020-10-10T09:50:57.000Z</time>
      </trkpt>
      <trkpt lat="43.61541" lon="3.8297">
        <ele>69.69040237454</ele>
        <time>2020-10-10T09:50:58.000Z</time>
      </trkpt>
      <trkpt lat="43.61544" lon="3.82972">
        <ele>69.587203166053</ele>
        <time>2020-10-10T09:50:59.000Z</time>
      </trkpt>
      <trkpt lat="43.61547" lon="3.82975">
        <ele>69.484003957566</ele>
        <time>2020-10-10T09:51:00.000Z</time>
      </trkpt>
      <trkpt lat="43.61551" lon="3.82977">
        <ele>69.380804749079</ele>
        <time>2020-10-10T09:51:01.000Z</time>
      </trkpt>
      <trkpt lat="43.61554" lon="3.8298">
        <ele>69.277605540592</ele>
        <time>2020-10-10T09:51:02.000Z</time>
      </trkpt>
      <trkpt lat="43.61557" lon="3.82983">
        <ele>69.174406332105</ele>
        <time>2020-10-10T09:51:03.000Z</time>
      </trkpt>
      <trkpt lat="43.6156" lon="3.82985">
        <ele>69.071207123618</ele>
        <time>2020-10-10T09:51:04.000Z</time>
      </trkpt>
      <trkpt lat="43.61563" lon="3.82988">
        <ele>69</ele>
        <time>2020-10-10T09:51:05.000Z</time>
      </trkpt>
      <trkpt lat="43.61566" lon="3.82991">
        <ele>69</ele>
        <time>2020-10-10T09:51:06.000Z</time>
      </trkpt>
      <trkpt lat="43.6157" lon="3.82993">
        <ele>69</ele>
        <time>2020-10-10T09:51:07.000Z</time>
      </trkpt>
      <trkpt lat="43.61573" lon="3.82996">
        <ele>69</ele>
        <time>2020-10-10T09:51:08.000Z</time>
      </trkpt>
      <trkpt lat="43.61577" lon="3.82998">
        <ele>69</ele>
        <time>2020-10-10T09:51:09.000Z</time>
      </trkpt>
      <trkpt lat="43.6158" lon="3.82999">
        <ele>69</ele>
        <time>2020-10-10T09:51:10.000Z</time>
      </trkpt>
      <trkpt lat="43.61584" lon="3.82999">
        <ele>69</ele>
        <time>2020-10-10T09:51:11.000Z</time>
      </trkpt>
      <trkpt lat="43.61587" lon="3.83001">
        <ele>69</ele>
        <time>2020-10-10T09:51:12.000Z</time>
      </trkpt>
      <trkpt lat="43.61591" lon="3.83003">
        <ele>69</ele>
        <time>2020-10-10T09:51:13.000Z</time>
      </trkpt>
      <trkpt lat="43.61594" lon="3.83005">
        <ele>69</ele>
        <time>2020-10-10T09:51:14.000Z</time>
      </trkpt>
      <trkpt lat="43.61598" lon="3.83008">
        <ele>69</ele>
        <time>2020-10-10T09:51:15.000Z</time>
      </trkpt>
      <trkpt lat="43.61601" lon="3.8301">
        <ele>69</ele>
        <time>2020-10-10T09:51:16.000Z</time>
      </trkpt>
      <trkpt lat="43.61604" lon="3.83013">
        <ele>69</ele>
        <time>2020-10-10T09:51:17.000Z</time>
      </trkpt>
      <trkpt lat="43.61608" lon="3.83015">
        <ele>69</ele>
        <time>2020-10-10T09:51:18.000Z</time>
      </trkpt>
      <trkpt lat="43.61611" lon="3.83017">
        <ele>69</ele>
        <time>2020-10-10T09:51:19.000Z</time>
      </trkpt>
      <trkpt lat="43.61614" lon="3.83019">
        <ele>69</ele>
        <time>2020-10-10T09:51:20.000Z</time>
      </trkpt>
      <trkpt lat="43.61618" lon="3.83022">
        <ele>69</ele>
        <time>2020-10-10T09:51:21.000Z</time>
      </trkpt>
      <trkpt lat="43.61621" lon="3.83024">
        <ele>69</ele>
        <time>2020-10-10T09:51:22.000Z</time>
      </trkpt>
      <trkpt lat="43.61625" lon="3.83027">
        <ele>69</ele>
        <time>2020-10-10T09:51:23.000Z</time>
      </trkpt>
      <trkpt lat="43.61628" lon="3.8303">
        <ele>69</ele>
        <time>2020-10-10T09:51:24.000Z</time>
      </trkpt>
      <trkpt lat="43.61632" lon="3.83032">
        <ele>69</ele>
        <time>2020-10-10T09:51:25.000Z</time>
      </trkpt>
      <trkpt lat="43.61635" lon="3.83035">
        <ele>69</ele>
        <time>2020-10-10T09:51:26.000Z</time>
      </trkpt>
      <trkpt lat="43.61639" lon="3.83037">
        <ele>69</ele>
        <time>2020-10-10T09:51:27.000Z</time>
      </trkpt>
      <trkpt lat="43.61643" lon="3.8304">
        <ele>69</ele>
        <time>2020-10-10T09:51:28.000Z</time>
      </trkpt>
      <trkpt lat="43.61646" lon="3.83042">
        <ele>69</ele>
        <time>2020-10-10T09:51:29.000Z</time>
      </trkpt>
      <trkpt lat="43.6165" lon="3.83045">
        <ele>69</ele>
        <time>2020-10-10T09:51:30.000Z</time>
      </trkpt>
      <trkpt lat="43.61654" lon="3.83048">
        <ele>69</ele>
        <time>2020-10-10T09:51:31.000Z</time>
      </trkpt>
      <trkpt lat="43.61657" lon="3.83052">
        <ele>69</ele>
        <time>2020-10-10T09:51:32.000Z</time>
      </trkpt>
      <trkpt lat="43.61661" lon="3.83055">
        <ele>69</ele>
        <time>2020-10-10T09:51:33.000Z</time>
      </trkpt>
      <trkpt lat="43.61665" lon="3.83058">
        <ele>69</ele>
        <time>2020-10-10T09:51:34.000Z</time>
      </trkpt>
      <trkpt lat="43.61669" lon="3.83062">
        <ele>69</ele>
        <time>2020-10-10T09:51:35.000Z</time>
      </trkpt>
      <trkpt lat="43.61672" lon="3.83066">
        <ele>69</ele>
        <time>2020-10-10T09:51:36.000Z</time>
      </trkpt>
      <trkpt lat="43.61676" lon="3.83069">
        <ele>69</ele>
        <time>2020-10-10T09:51:37.000Z</time>
      </trkpt>
      <trkpt lat="43.6168" lon="3.83073">
        <ele>69</ele>
        <time>2020-10-10T09:51:38.000Z</time>
      </trkpt>
      <trkpt lat="43.61683" lon="3.83077">
        <ele>69</ele>
        <time>2020-10-10T09:51:39.000Z</time>
      </trkpt>
      <trkpt lat="43.61687" lon="3.83081">
        <ele>69</ele>
        <time>2020-10-10T09:51:40.000Z</time>
      </trkpt>
      <trkpt lat="43.61691" lon="3.83084">
        <ele>69</ele>
        <time>2020-10-10T09:51:41.000Z</time>
      </trkpt>
      <trkpt lat="43.61694" lon="3.83088">
        <ele>69</ele>
        <time>2020-10-10T09:51:42.000Z</time>
      </trkpt>
      <trkpt lat="43.61697" lon="3.83091">
        <ele>69</ele>
        <time>2020-10-10T09:51:43.000Z</time>
      </trkpt>
      <trkpt lat="43.61701" lon="3.83095">
        <ele>69</ele>
        <time>2020-10-10T09:51:44.000Z</time>
      </trkpt>
      <trkpt lat="43.61704" lon="3.83098">
        <ele>69.096</ele>
        <time>2020-10-10T09:51:45.000Z</time>
      </trkpt>
      <trkpt lat="43.61708" lon="3.83101">
        <ele>69.396</ele>
        <time>2020-10-10T09:51:46.000Z</time>
      </trkpt>
      <trkpt lat="43.61712" lon="3.83105">
        <ele>69.696</ele>
        <time>2020-10-10T09:51:47.000Z</time>
      </trkpt>
      <trkpt lat="43.61715" lon="3.83109">
        <ele>69.996</ele>
        <time>2020-10-10T09:51:48.000Z</time>
      </trkpt>
      <trkpt lat="43.61719" lon="3.83113">
        <ele>70.296</ele>
        <time>2020-10-10T09:51:49.000Z</time>
      </trkpt>
      <trkpt lat="43.61722" lon="3.83116">
        <ele>70.596</ele>
        <time>2020-10-10T09:51:50.000Z</time>
      </trkpt>
      <trkpt lat="43.61726" lon="3.83119">
        <ele>70.896</ele>
        <time>2020-10-10T09:51:51.000Z</time>
      </trkpt>
      <trkpt lat="43.61729" lon="3.83123">
        <ele>71.196</ele>
        <time>2020-10-10T09:51:52.000Z</time>
      </trkpt>
      <trkpt lat="43.61733" lon="3.83126">
        <ele>71.496</ele>
        <time>2020-10-10T09:51:53.000Z</time>
      </trkpt>
      <trkpt lat="43.61737" lon="3.83128">
        <ele>71.796</ele>
        <time>2020-10-10T09:51:54.000Z</time>
      </trkpt>
      <trkpt lat="43.61741" lon="3.83131">
        <ele>72.063936084375</ele>
        <time>2020-10-10T09:51:55.000Z</time>
      </trkpt>
      <trkpt lat="43.61746" lon="3.83134">
        <ele>72.263736348048</ele>
        <time>2020-10-10T09:51:56.000Z</time>
      </trkpt>
      <trkpt lat="43.6175" lon="3.83137">
        <ele>72.46353661172</ele>
        <time>2020-10-10T09:51:57.000Z</time>
      </trkpt>
      <trkpt lat="43.61754" lon="3.8314">
        <ele>72.663336875392</ele>
        <time>2020-10-10T09:51:58.000Z</time>
      </trkpt>
      <trkpt lat="43.61758" lon="3.83143">
        <ele>72.863137139065</ele>
        <time>2020-10-10T09:51:59.000Z</time>
      </trkpt>
      <trkpt lat="43.61762" lon="3.83147">
        <ele>73.062937402737</ele>
        <time>2020-10-10T09:52:00.000Z</time>
      </trkpt>
      <trkpt lat="43.61766" lon="3.8315">
        <ele>73.26273766641</ele>
        <time>2020-10-10T09:52:01.000Z</time>
      </trkpt>
      <trkpt lat="43.6177" lon="3.83153">
        <ele>73.462537930082</ele>
        <time>2020-10-10T09:52:02.000Z</time>
      </trkpt>
      <trkpt lat="43.61774" lon="3.83155">
        <ele>73.662338193754</ele>
        <time>2020-10-10T09:52:03.000Z</time>
      </trkpt>
      <trkpt lat="43.61778" lon="3.83158">
        <ele>73.862138457427</ele>
        <time>2020-10-10T09:52:04.000Z</time>
      </trkpt>
      <trkpt lat="43.61783" lon="3.8316">
        <ele>74.03100032</ele>
        <time>2020-10-10T09:52:05.000Z</time>
      </trkpt>
      <trkpt lat="43.61787" lon="3.83163">
        <ele>74.13100032</ele>
        <time>2020-10-10T09:52:06.000Z</time>
      </trkpt>
      <trkpt lat="43.61791" lon="3.83166">
        <ele>74.23100032</ele>
        <time>2020-10-10T09:52:07.000Z</time>
      </trkpt>
      <trkpt lat="43.61794" lon="3.83169">
        <ele>74.33100032</ele>
        <time>2020-10-10T09:52:08.000Z</time>
      </trkpt>
      <trkpt lat="43.61798" lon="3.83171">
        <ele>74.43100032</ele>
        <time>2020-10-10T09:52:09.000Z</time>
      </trkpt>
      <trkpt lat="43.61802" lon="3.83173">
        <ele>74.53100032</ele>
        <time>2020-10-10T09:52:10.000Z</time>
      </trkpt>
      <trkpt lat="43.61806" lon="3.83175">
        <ele>74.63100032</ele>
        <time>2020-10-10T09:52:11.000Z</time>
      </trkpt>
      <trkpt lat="43.61809" lon="3.83177">
        <ele>74.73100032</ele>
        <time>2020-10-10T09:52:12.000Z</time>
      </trkpt>
      <trkpt lat="43.61812" lon="3.83179">
        <ele>74.83100032</ele>
        <time>2020-10-10T09:52:13.000Z</time>
      </trkpt>
      <trkpt lat="43.61815" lon="3.83181">
        <ele>74.93100032</ele>
        <time>2020-10-10T09:52:14.000Z</time>
      </trkpt>
      <trkpt lat="43.61818" lon="3.83183">
        <ele>75.031031341411</ele>
        <time>2020-10-10T09:52:15.000Z</time>
      </trkpt>
      <trkpt lat="43.6182" lon="3.83184">
        <ele>75.131131409447</ele>
        <time>2020-10-10T09:52:16.000Z</time>
      </trkpt>
      <trkpt lat="43.61822" lon="3.83186">
        <ele>75.231231477483</ele>
        <time>2020-10-10T09:52:17.000Z</time>
      </trkpt>
      <trkpt lat="43.61824" lon="3.83188">
        <ele>75.331331545519</ele>
        <time>2020-10-10T09:52:18.000Z</time>
      </trkpt>
      <trkpt lat="43.61826" lon="3.83189">
        <ele>75.431431613555</ele>
        <time>2020-10-10T09:52:19.000Z</time>
      </trkpt>
      <trkpt lat="43.61828" lon="3.8319">
        <ele>75.531531681592</ele>
        <time>2020-10-10T09:52:20.000Z</time>
      </trkpt>
      <trkpt lat="43.6183" lon="3.83192">
        <ele>75.731731817664</ele>
        <time>2020-10-10T09:52:22.000Z</time>
      </trkpt>
      <trkpt lat="43.61832" lon="3.83194">
        <ele>75.931931953735</ele>
        <time>2020-10-10T09:52:24.000Z</time>
      </trkpt>
      <trkpt lat="43.61834" lon="3.83195">
        <ele>76</ele>
        <time>2020-10-10T09:52:26.000Z</time>
      </trkpt>
      <trkpt lat="43.61836" lon="3.83195">
        <ele>76</ele>
        <time>2020-10-10T09:52:28.000Z</time>
      </trkpt>
      <trkpt lat="43.61836" lon="3.83195">
        <ele>76</ele>
        <time>2020-10-10T09:52:32.000Z</time>
      </trkpt>
      <trkpt lat="43.61842" lon="3.832">
        <ele>76</ele>
        <time>2020-10-10T09:52:51.000Z</time>
      </trkpt>
      <trkpt lat="43.61843" lon="3.83202">
        <ele>76</ele>
        <time>2020-10-10T09:52:52.000Z</time>
      </trkpt>
      <trkpt lat="43.61846" lon="3.83204">
        <ele>76</ele>
        <time>2020-10-10T09:52:53.000Z</time>
      </trkpt>
      <trkpt lat="43.61848" lon="3.83206">
        <ele>76</ele>
        <time>2020-10-10T09:52:54.000Z</time>
      </trkpt>
      <trkpt lat="43.6185" lon="3.83207">
        <ele>76</ele>
        <time>2020-10-10T09:52:55.000Z</time>
      </trkpt>
      <trkpt lat="43.61852" lon="3.8321">
        <ele>76</ele>
        <time>2020-10-10T09:52:56.000Z</time>
      </trkpt>
      <trkpt lat="43.61854" lon="3.83213">
        <ele>76</ele>
        <time>2020-10-10T09:52:57.000Z</time>
      </trkpt>
      <trkpt lat="43.61856" lon="3.83216">
        <ele>76</ele>
        <time>2020-10-10T09:52:58.000Z</time>
      </trkpt>
      <trkpt lat="43.61859" lon="3.83218">
        <ele>76</ele>
        <time>2020-10-10T09:52:59.000Z</time>
      </trkpt>
      <trkpt lat="43.61861" lon="3.8322">
        <ele>76</ele>
        <time>2020-10-10T09:53:00.000Z</time>
      </trkpt>
      <trkpt lat="43.61864" lon="3.83222">
        <ele>76</ele>
        <time>2020-10-10T09:53:01.000Z</time>
      </trkpt>
      <trkpt lat="43.61867" lon="3.83223">
        <ele>76</ele>
        <time>2020-10-10T09:53:02.000Z</time>
      </trkpt>
      <trkpt lat="43.61871" lon="3.83225">
        <ele>76</ele>
        <time>2020-10-10T09:53:03.000Z</time>
      </trkpt>
      <trkpt lat="43.61874" lon="3.83227">
        <ele>76</ele>
        <time>2020-10-10T09:53:04.000Z</time>
      </trkpt>
      <trkpt lat="43.61877" lon="3.83229">
        <ele>76</ele>
        <time>2020-10-10T09:53:05.000Z</time>
      </trkpt>
      <trkpt lat="43.6188" lon="3.83231">
        <ele>76</ele>
        <time>2020-10-10T09:53:06.000Z</time>
      </trkpt>
      <trkpt lat="43.61883" lon="3.83232">
        <ele>76</ele>
        <time>2020-10-10T09:53:07.000Z</time>
      </trkpt>
      <trkpt lat="43.61885" lon="3.83233">
        <ele>76</ele>
        <time>2020-10-10T09:53:08.000Z</time>
      </trkpt>
      <trkpt lat="43.61888" lon="3.83235">
        <ele>76</ele>
        <time>2020-10-10T09:53:09.000Z</time>
      </trkpt>
      <trkpt lat="43.61891" lon="3.83236">
        <ele>76</ele>
        <time>2020-10-10T09:53:10.000Z</time>
      </trkpt>
      <trkpt lat="43.61894" lon="3.83237">
        <ele>76</ele>
        <time>2020-10-10T09:53:11.000Z</time>
      </trkpt>
      <trkpt lat="43.61896" lon="3.83239">
        <ele>76</ele>
        <time>2020-10-10T09:53:12.000Z</time>
      </trkpt>
      <trkpt lat="43.61898" lon="3.8324">
        <ele>76</ele>
        <time>2020-10-10T09:53:13.000Z</time>
      </trkpt>
      <trkpt lat="43.61901" lon="3.83242">
        <ele>76</ele>
        <time>2020-10-10T09:53:14.000Z</time>
      </trkpt>
      <trkpt lat="43.61904" lon="3.83243">
        <ele>76</ele>
        <time>2020-10-10T09:53:15.000Z</time>
      </trkpt>
      <trkpt lat="43.61907" lon="3.83245">
        <ele>76</ele>
        <time>2020-10-10T09:53:16.000Z</time>
      </trkpt>
      <trkpt lat="43.6191" lon="3.83246">
        <ele>76</ele>
        <time>2020-10-10T09:53:17.000Z</time>
      </trkpt>
      <trkpt lat="43.61913" lon="3.83248">
        <ele>76</ele>
        <time>2020-10-10T09:53:18.000Z</time>
      </trkpt>
      <trkpt lat="43.61916" lon="3.83249">
        <ele>76</ele>
        <time>2020-10-10T09:53:19.000Z</time>
      </trkpt>
      <trkpt lat="43.61919" lon="3.83251">
        <ele>76</ele>
        <time>2020-10-10T09:53:20.000Z</time>
      </trkpt>
      <trkpt lat="43.61922" lon="3.83252">
        <ele>76.030214717995</ele>
        <time>2020-10-10T09:53:21.000Z</time>
      </trkpt>
      <trkpt lat="43.61925" lon="3.83253">
        <ele>76.127680544137</ele>
        <time>2020-10-10T09:53:22.000Z</time>
      </trkpt>
      <trkpt lat="43.61927" lon="3.83254">
        <ele>76.225146370279</ele>
        <time>2020-10-10T09:53:23.000Z</time>
      </trkpt>
      <trkpt lat="43.6193" lon="3.83255">
        <ele>76.322612196421</ele>
        <time>2020-10-10T09:53:24.000Z</time>
      </trkpt>
      <trkpt lat="43.61933" lon="3.83257">
        <ele>76.420078022563</ele>
        <time>2020-10-10T09:53:25.000Z</time>
      </trkpt>
      <trkpt lat="43.61936" lon="3.83258">
        <ele>76.517543848706</ele>
        <time>2020-10-10T09:53:26.000Z</time>
      </trkpt>
      <trkpt lat="43.61938" lon="3.83259">
        <ele>76.615009674848</ele>
        <time>2020-10-10T09:53:27.000Z</time>
      </trkpt>
      <trkpt lat="43.61941" lon="3.8326">
        <ele>76.71247550099</ele>
        <time>2020-10-10T09:53:28.000Z</time>
      </trkpt>
      <trkpt lat="43.61944" lon="3.83261">
        <ele>76.809941327132</ele>
        <time>2020-10-10T09:53:29.000Z</time>
      </trkpt>
      <trkpt lat="43.61947" lon="3.83263">
        <ele>76.907407153274</ele>
        <time>2020-10-10T09:53:30.000Z</time>
      </trkpt>
      <trkpt lat="43.61949" lon="3.83264">
        <ele>77.005133145057</ele>
        <time>2020-10-10T09:53:31.000Z</time>
      </trkpt>
      <trkpt lat="43.61952" lon="3.83265">
        <ele>77.107802617037</ele>
        <time>2020-10-10T09:53:32.000Z</time>
      </trkpt>
      <trkpt lat="43.61954" lon="3.83266">
        <ele>77.210472089017</ele>
        <time>2020-10-10T09:53:33.000Z</time>
      </trkpt>
      <trkpt lat="43.61957" lon="3.83267">
        <ele>77.313141560996</ele>
        <time>2020-10-10T09:53:34.000Z</time>
      </trkpt>
      <trkpt lat="43.61959" lon="3.83268">
        <ele>77.415811032976</ele>
        <time>2020-10-10T09:53:35.000Z</time>
      </trkpt>
      <trkpt lat="43.61962" lon="3.83269">
        <ele>77.518480504956</ele>
        <time>2020-10-10T09:53:36.000Z</time>
      </trkpt>
      <trkpt lat="43.61964" lon="3.8327">
        <ele>77.621149976936</ele>
        <time>2020-10-10T09:53:37.000Z</time>
      </trkpt>
      <trkpt lat="43.61966" lon="3.83271">
        <ele>77.723819448916</ele>
        <time>2020-10-10T09:53:38.000Z</time>
      </trkpt>
      <trkpt lat="43.61968" lon="3.83271">
        <ele>77.826488920896</ele>
        <time>2020-10-10T09:53:39.000Z</time>
      </trkpt>
      <trkpt lat="43.61971" lon="3.83273">
        <ele>77.929158392876</ele>
        <time>2020-10-10T09:53:40.000Z</time>
      </trkpt>
      <trkpt lat="43.61973" lon="3.83275">
        <ele>78.03100032</ele>
        <time>2020-10-10T09:53:41.000Z</time>
      </trkpt>
      <trkpt lat="43.61975" lon="3.83278">
        <ele>78.13100032</ele>
        <time>2020-10-10T09:53:42.000Z</time>
      </trkpt>
      <trkpt lat="43.61976" lon="3.83281">
        <ele>78.23100032</ele>
        <time>2020-10-10T09:53:43.000Z</time>
      </trkpt>
      <trkpt lat="43.61977" lon="3.83283">
        <ele>78.33100032</ele>
        <time>2020-10-10T09:53:44.000Z</time>
      </trkpt>
      <trkpt lat="43.61978" lon="3.83286">
        <ele>78.43100032</ele>
        <time>2020-10-10T09:53:45.000Z</time>
      </trkpt>
      <trkpt lat="43.6198" lon="3.83289">
        <ele>78.53100032</ele>
        <time>2020-10-10T09:53:46.000Z</time>
      </trkpt>
      <trkpt lat="43.61983" lon="3.8329">
        <ele>78.63100032</ele>
        <time>2020-10-10T09:53:47.000Z</time>
      </trkpt>
      <trkpt lat="43.61986" lon="3.8329">
        <ele>78.73100032</ele>
        <time>2020-10-10T09:53:48.000Z</time>
      </trkpt>
      <trkpt lat="43.61989" lon="3.83288">
        <ele>78.83100032</ele>
        <time>2020-10-10T09:53:49.000Z</time>
      </trkpt>
      <trkpt lat="43.61992" lon="3.83286">
        <ele>78.93100032</ele>
        <time>2020-10-10T09:53:50.000Z</time>
      </trkpt>
      <trkpt lat="43.61995" lon="3.83285">
        <ele>78.939805241286</ele>
        <time>2020-10-10T09:53:51.000Z</time>
      </trkpt>
      <trkpt lat="43.61999" lon="3.83285">
        <ele>78.745630604657</ele>
        <time>2020-10-10T09:53:52.000Z</time>
      </trkpt>
      <trkpt lat="43.62002" lon="3.83284">
        <ele>78.551455968027</ele>
        <time>2020-10-10T09:53:53.000Z</time>
      </trkpt>
      <trkpt lat="43.62005" lon="3.83281">
        <ele>78.357281331398</ele>
        <time>2020-10-10T09:53:54.000Z</time>
      </trkpt>
      <trkpt lat="43.62007" lon="3.83277">
        <ele>78.163106694769</ele>
        <time>2020-10-10T09:53:55.000Z</time>
      </trkpt>
      <trkpt lat="43.62011" lon="3.83275">
        <ele>77.968932058139</ele>
        <time>2020-10-10T09:53:56.000Z</time>
      </trkpt>
      <trkpt lat="43.62014" lon="3.83274">
        <ele>77.77475742151</ele>
        <time>2020-10-10T09:53:57.000Z</time>
      </trkpt>
      <trkpt lat="43.62018" lon="3.83277">
        <ele>77.580582784881</ele>
        <time>2020-10-10T09:53:58.000Z</time>
      </trkpt>
      <trkpt lat="43.6202" lon="3.8328">
        <ele>77.386408148251</ele>
        <time>2020-10-10T09:53:59.000Z</time>
      </trkpt>
      <trkpt lat="43.62022" lon="3.83283">
        <ele>77.192233511622</ele>
        <time>2020-10-10T09:54:00.000Z</time>
      </trkpt>
      <trkpt lat="43.62025" lon="3.83286">
        <ele>76.998969401382</ele>
        <time>2020-10-10T09:54:01.000Z</time>
      </trkpt>
      <trkpt lat="43.62027" lon="3.83289">
        <ele>76.895876549857</ele>
        <time>2020-10-10T09:54:02.000Z</time>
      </trkpt>
      <trkpt lat="43.62029" lon="3.83293">
        <ele>76.792783698332</ele>
        <time>2020-10-10T09:54:03.000Z</time>
      </trkpt>
      <trkpt lat="43.62032" lon="3.83296">
        <ele>76.689690846806</ele>
        <time>2020-10-10T09:54:04.000Z</time>
      </trkpt>
      <trkpt lat="43.62034" lon="3.83299">
        <ele>76.586597995281</ele>
        <time>2020-10-10T09:54:05.000Z</time>
      </trkpt>
      <trkpt lat="43.62036" lon="3.83302">
        <ele>76.483505143756</ele>
        <time>2020-10-10T09:54:06.000Z</time>
      </trkpt>
      <trkpt lat="43.62039" lon="3.83305">
        <ele>76.380412292231</ele>
        <time>2020-10-10T09:54:07.000Z</time>
      </trkpt>
      <trkpt lat="43.62041" lon="3.83308">
        <ele>76.277319440706</ele>
        <time>2020-10-10T09:54:08.000Z</time>
      </trkpt>
      <trkpt lat="43.62044" lon="3.8331">
        <ele>76.17422658918</ele>
        <time>2020-10-10T09:54:09.000Z</time>
      </trkpt>
      <trkpt lat="43.62046" lon="3.83313">
        <ele>76.071133737655</ele>
        <time>2020-10-10T09:54:10.000Z</time>
      </trkpt>
      <trkpt lat="43.62049" lon="3.83317">
        <ele>76.03100032</ele>
        <time>2020-10-10T09:54:11.000Z</time>
      </trkpt>
      <trkpt lat="43.62051" lon="3.8332">
        <ele>76.13100032</ele>
        <time>2020-10-10T09:54:12.000Z</time>
      </trkpt>
      <trkpt lat="43.62054" lon="3.83323">
        <ele>76.23100032</ele>
        <time>2020-10-10T09:54:13.000Z</time>
      </trkpt>
      <trkpt lat="43.62056" lon="3.83326">
        <ele>76.33100032</ele>
        <time>2020-10-10T09:54:14.000Z</time>
      </trkpt>
      <trkpt lat="43.62058" lon="3.83329">
        <ele>76.43100032</ele>
        <time>2020-10-10T09:54:15.000Z</time>
      </trkpt>
      <trkpt lat="43.62061" lon="3.83331">
        <ele>76.53100032</ele>
        <time>2020-10-10T09:54:16.000Z</time>
      </trkpt>
      <trkpt lat="43.62063" lon="3.83334">
        <ele>76.63100032</ele>
        <time>2020-10-10T09:54:17.000Z</time>
      </trkpt>
      <trkpt lat="43.62065" lon="3.83336">
        <ele>76.73100032</ele>
        <time>2020-10-10T09:54:18.000Z</time>
      </trkpt>
      <trkpt lat="43.62067" lon="3.83339">
        <ele>76.83100032</ele>
        <time>2020-10-10T09:54:19.000Z</time>
      </trkpt>
      <trkpt lat="43.6207" lon="3.83342">
        <ele>76.93100032</ele>
        <time>2020-10-10T09:54:20.000Z</time>
      </trkpt>
      <trkpt lat="43.62073" lon="3.83346">
        <ele>77</ele>
        <time>2020-10-10T09:54:21.000Z</time>
      </trkpt>
      <trkpt lat="43.62075" lon="3.83349">
        <ele>77</ele>
        <time>2020-10-10T09:54:22.000Z</time>
      </trkpt>
      <trkpt lat="43.62078" lon="3.83352">
        <ele>77</ele>
        <time>2020-10-10T09:54:23.000Z</time>
      </trkpt>
      <trkpt lat="43.6208" lon="3.83356">
        <ele>77</ele>
        <time>2020-10-10T09:54:24.000Z</time>
      </trkpt>
      <trkpt lat="43.62083" lon="3.83359">
        <ele>77</ele>
        <time>2020-10-10T09:54:25.000Z</time>
      </trkpt>
      <trkpt lat="43.62085" lon="3.83362">
        <ele>77</ele>
        <time>2020-10-10T09:54:26.000Z</time>
      </trkpt>
      <trkpt lat="43.62088" lon="3.83365">
        <ele>77</ele>
        <time>2020-10-10T09:54:27.000Z</time>
      </trkpt>
      <trkpt lat="43.62091" lon="3.83368">
        <ele>77</ele>
        <time>2020-10-10T09:54:28.000Z</time>
      </trkpt>
      <trkpt lat="43.62093" lon="3.83372">
        <ele>77</ele>
        <time>2020-10-10T09:54:29.000Z</time>
      </trkpt>
      <trkpt lat="43.62096" lon="3.83375">
        <ele>77</ele>
        <time>2020-10-10T09:54:30.000Z</time>
      </trkpt>
      <trkpt lat="43.62099" lon="3.83378">
        <ele>77</ele>
        <time>2020-10-10T09:54:31.000Z</time>
      </trkpt>
      <trkpt lat="43.62101" lon="3.83381">
        <ele>77</ele>
        <time>2020-10-10T09:54:32.000Z</time>
      </trkpt>
      <trkpt lat="43.62104" lon="3.83384">
        <ele>77</ele>
        <time>2020-10-10T09:54:33.000Z</time>
      </trkpt>
      <trkpt lat="43.62107" lon="3.83388">
        <ele>77</ele>
        <time>2020-10-10T09:54:34.000Z</time>
      </trkpt>
      <trkpt lat="43.62109" lon="3.83391">
        <ele>77</ele>
        <time>2020-10-10T09:54:35.000Z</time>
      </trkpt>
      <trkpt lat="43.62112" lon="3.83394">
        <ele>77</ele>
        <time>2020-10-10T09:54:36.000Z</time>
      </trkpt>
      <trkpt lat="43.62115" lon="3.83398">
        <ele>77</ele>
        <time>2020-10-10T09:54:37.000Z</time>
      </trkpt>
      <trkpt lat="43.62117" lon="3.83401">
        <ele>77</ele>
        <time>2020-10-10T09:54:38.000Z</time>
      </trkpt>
      <trkpt lat="43.6212" lon="3.83404">
        <ele>77</ele>
        <time>2020-10-10T09:54:39.000Z</time>
      </trkpt>
      <trkpt lat="43.62123" lon="3.83407">
        <ele>77</ele>
        <time>2020-10-10T09:54:40.000Z</time>
      </trkpt>
      <trkpt lat="43.62126" lon="3.83411">
        <ele>77</ele>
        <time>2020-10-10T09:54:41.000Z</time>
      </trkpt>
      <trkpt lat="43.62129" lon="3.83414">
        <ele>77</ele>
        <time>2020-10-10T09:54:42.000Z</time>
      </trkpt>
      <trkpt lat="43.62132" lon="3.83417">
        <ele>77</ele>
        <time>2020-10-10T09:54:43.000Z</time>
      </trkpt>
      <trkpt lat="43.62135" lon="3.8342">
        <ele>77</ele>
        <time>2020-10-10T09:54:44.000Z</time>
      </trkpt>
      <trkpt lat="43.62138" lon="3.83423">
        <ele>77</ele>
        <time>2020-10-10T09:54:45.000Z</time>
      </trkpt>
      <trkpt lat="43.62141" lon="3.83425">
        <ele>77</ele>
        <time>2020-10-10T09:54:46.000Z</time>
      </trkpt>
      <trkpt lat="43.62144" lon="3.83428">
        <ele>77</ele>
        <time>2020-10-10T09:54:47.000Z</time>
      </trkpt>
      <trkpt lat="43.62147" lon="3.8343">
        <ele>77</ele>
        <time>2020-10-10T09:54:48.000Z</time>
      </trkpt>
      <trkpt lat="43.6215" lon="3.83433">
        <ele>77</ele>
        <time>2020-10-10T09:54:49.000Z</time>
      </trkpt>
      <trkpt lat="43.62154" lon="3.83435">
        <ele>77</ele>
        <time>2020-10-10T09:54:50.000Z</time>
      </trkpt>
      <trkpt lat="43.62157" lon="3.83437">
        <ele>77</ele>
        <time>2020-10-10T09:54:51.000Z</time>
      </trkpt>
      <trkpt lat="43.62161" lon="3.83439">
        <ele>77</ele>
        <time>2020-10-10T09:54:52.000Z</time>
      </trkpt>
      <trkpt lat="43.62165" lon="3.83441">
        <ele>77</ele>
        <time>2020-10-10T09:54:53.000Z</time>
      </trkpt>
      <trkpt lat="43.62168" lon="3.83443">
        <ele>77</ele>
        <time>2020-10-10T09:54:54.000Z</time>
      </trkpt>
      <trkpt lat="43.62172" lon="3.83446">
        <ele>77</ele>
        <time>2020-10-10T09:54:55.000Z</time>
      </trkpt>
      <trkpt lat="43.62176" lon="3.83448">
        <ele>77</ele>
        <time>2020-10-10T09:54:56.000Z</time>
      </trkpt>
      <trkpt lat="43.62179" lon="3.83451">
        <ele>77</ele>
        <time>2020-10-10T09:54:57.000Z</time>
      </trkpt>
      <trkpt lat="43.62183" lon="3.83454">
        <ele>77</ele>
        <time>2020-10-10T09:54:58.000Z</time>
      </trkpt>
      <trkpt lat="43.62186" lon="3.83457">
        <ele>77</ele>
        <time>2020-10-10T09:54:59.000Z</time>
      </trkpt>
      <trkpt lat="43.62189" lon="3.83461">
        <ele>77</ele>
        <time>2020-10-10T09:55:00.000Z</time>
      </trkpt>
      <trkpt lat="43.62192" lon="3.83465">
        <ele>77.060311906615</ele>
        <time>2020-10-10T09:55:01.000Z</time>
      </trkpt>
      <trkpt lat="43.62195" lon="3.83469">
        <ele>77.254864435798</ele>
        <time>2020-10-10T09:55:02.000Z</time>
      </trkpt>
      <trkpt lat="43.62198" lon="3.83472">
        <ele>77.449416964981</ele>
        <time>2020-10-10T09:55:03.000Z</time>
      </trkpt>
      <trkpt lat="43.62201" lon="3.83476">
        <ele>77.643969494163</ele>
        <time>2020-10-10T09:55:04.000Z</time>
      </trkpt>
      <trkpt lat="43.62204" lon="3.8348">
        <ele>77.838522023346</ele>
        <time>2020-10-10T09:55:05.000Z</time>
      </trkpt>
      <trkpt lat="43.62207" lon="3.83484">
        <ele>78.033074552529</ele>
        <time>2020-10-10T09:55:06.000Z</time>
      </trkpt>
      <trkpt lat="43.6221" lon="3.83489">
        <ele>78.227627081712</ele>
        <time>2020-10-10T09:55:07.000Z</time>
      </trkpt>
      <trkpt lat="43.62213" lon="3.83493">
        <ele>78.422179610895</ele>
        <time>2020-10-10T09:55:08.000Z</time>
      </trkpt>
      <trkpt lat="43.62216" lon="3.83497">
        <ele>78.616732140078</ele>
        <time>2020-10-10T09:55:09.000Z</time>
      </trkpt>
      <trkpt lat="43.62219" lon="3.83501">
        <ele>78.811284669261</ele>
        <time>2020-10-10T09:55:10.000Z</time>
      </trkpt>
      <trkpt lat="43.62223" lon="3.83503">
        <ele>78.996913251029</ele>
        <time>2020-10-10T09:55:11.000Z</time>
      </trkpt>
      <trkpt lat="43.62226" lon="3.83505">
        <ele>78.894032592593</ele>
        <time>2020-10-10T09:55:12.000Z</time>
      </trkpt>
      <trkpt lat="43.62229" lon="3.83508">
        <ele>78.791151934156</ele>
        <time>2020-10-10T09:55:13.000Z</time>
      </trkpt>
      <trkpt lat="43.62232" lon="3.83511">
        <ele>78.68827127572</ele>
        <time>2020-10-10T09:55:14.000Z</time>
      </trkpt>
      <trkpt lat="43.62234" lon="3.83513">
        <ele>78.585390617284</ele>
        <time>2020-10-10T09:55:15.000Z</time>
      </trkpt>
      <trkpt lat="43.62236" lon="3.83514">
        <ele>78.482509958848</ele>
        <time>2020-10-10T09:55:16.000Z</time>
      </trkpt>
      <trkpt lat="43.62239" lon="3.83514">
        <ele>78.276748641975</ele>
        <time>2020-10-10T09:55:18.000Z</time>
      </trkpt>
      <trkpt lat="43.62241" lon="3.83513">
        <ele>78.070987325103</ele>
        <time>2020-10-10T09:55:20.000Z</time>
      </trkpt>
      <trkpt lat="43.62243" lon="3.83511">
        <ele>78</ele>
        <time>2020-10-10T09:55:22.000Z</time>
      </trkpt>
      <trkpt lat="43.62244" lon="3.83508">
        <ele>78</ele>
        <time>2020-10-10T09:55:24.000Z</time>
      </trkpt>
      <trkpt lat="43.62246" lon="3.83508">
        <ele>78</ele>
        <time>2020-10-10T09:55:26.000Z</time>
      </trkpt>
      <trkpt lat="43.62248" lon="3.8351">
        <ele>78</ele>
        <time>2020-10-10T09:55:32.000Z</time>
      </trkpt>
      <trkpt lat="43.62252" lon="3.83514">
        <ele>78</ele>
        <time>2020-10-10T09:55:35.000Z</time>
      </trkpt>
      <trkpt lat="43.62254" lon="3.83516">
        <ele>78</ele>
        <time>2020-10-10T09:55:36.000Z</time>
      </trkpt>
      <trkpt lat="43.62256" lon="3.83518">
        <ele>78</ele>
        <time>2020-10-10T09:55:38.000Z</time>
      </trkpt>
      <trkpt lat="43.62258" lon="3.8352">
        <ele>78</ele>
        <time>2020-10-10T09:55:39.000Z</time>
      </trkpt>
      <trkpt lat="43.6226" lon="3.83521">
        <ele>78</ele>
        <time>2020-10-10T09:55:40.000Z</time>
      </trkpt>
      <trkpt lat="43.62263" lon="3.83523">
        <ele>78</ele>
        <time>2020-10-10T09:55:41.000Z</time>
      </trkpt>
      <trkpt lat="43.62265" lon="3.83524">
        <ele>78</ele>
        <time>2020-10-10T09:55:42.000Z</time>
      </trkpt>
      <trkpt lat="43.62268" lon="3.83526">
        <ele>78</ele>
        <time>2020-10-10T09:55:43.000Z</time>
      </trkpt>
      <trkpt lat="43.6227" lon="3.83526">
        <ele>78</ele>
        <time>2020-10-10T09:55:44.000Z</time>
      </trkpt>
      <trkpt lat="43.62271" lon="3.83525">
        <ele>78</ele>
        <time>2020-10-10T09:55:45.000Z</time>
      </trkpt>
      <trkpt lat="43.62273" lon="3.83523">
        <ele>78</ele>
        <time>2020-10-10T09:55:46.000Z</time>
      </trkpt>
      <trkpt lat="43.62275" lon="3.83522">
        <ele>78</ele>
        <time>2020-10-10T09:55:47.000Z</time>
      </trkpt>
      <trkpt lat="43.62276" lon="3.8352">
        <ele>78</ele>
        <time>2020-10-10T09:55:48.000Z</time>
      </trkpt>
      <trkpt lat="43.62278" lon="3.83517">
        <ele>78</ele>
        <time>2020-10-10T09:55:49.000Z</time>
      </trkpt>
      <trkpt lat="43.6228" lon="3.83515">
        <ele>78</ele>
        <time>2020-10-10T09:55:50.000Z</time>
      </trkpt>
      <trkpt lat="43.62282" lon="3.83512">
        <ele>78</ele>
        <time>2020-10-10T09:55:51.000Z</time>
      </trkpt>
      <trkpt lat="43.62284" lon="3.83509">
        <ele>78</ele>
        <time>2020-10-10T09:55:52.000Z</time>
      </trkpt>
      <trkpt lat="43.62286" lon="3.83506">
        <ele>78</ele>
        <time>2020-10-10T09:55:53.000Z</time>
      </trkpt>
      <trkpt lat="43.62287" lon="3.83502">
        <ele>78</ele>
        <time>2020-10-10T09:55:54.000Z</time>
      </trkpt>
      <trkpt lat="43.62288" lon="3.83498">
        <ele>78</ele>
        <time>2020-10-10T09:55:55.000Z</time>
      </trkpt>
      <trkpt lat="43.62289" lon="3.83494">
        <ele>78</ele>
        <time>2020-10-10T09:55:56.000Z</time>
      </trkpt>
      <trkpt lat="43.62291" lon="3.8349">
        <ele>78</ele>
        <time>2020-10-10T09:55:57.000Z</time>
      </trkpt>
      <trkpt lat="43.62293" lon="3.83486">
        <ele>78</ele>
        <time>2020-10-10T09:55:58.000Z</time>
      </trkpt>
      <trkpt lat="43.62295" lon="3.83482">
        <ele>78</ele>
        <time>2020-10-10T09:55:59.000Z</time>
      </trkpt>
      <trkpt lat="43.62297" lon="3.83478">
        <ele>78</ele>
        <time>2020-10-10T09:56:00.000Z</time>
      </trkpt>
      <trkpt lat="43.62299" lon="3.83474">
        <ele>78</ele>
        <time>2020-10-10T09:56:01.000Z</time>
      </trkpt>
      <trkpt lat="43.62301" lon="3.8347">
        <ele>78</ele>
        <time>2020-10-10T09:56:02.000Z</time>
      </trkpt>
      <trkpt lat="43.62303" lon="3.83467">
        <ele>78</ele>
        <time>2020-10-10T09:56:03.000Z</time>
      </trkpt>
      <trkpt lat="43.62305" lon="3.83464">
        <ele>78</ele>
        <time>2020-10-10T09:56:04.000Z</time>
      </trkpt>
      <trkpt lat="43.62308" lon="3.8346">
        <ele>78</ele>
        <time>2020-10-10T09:56:05.000Z</time>
      </trkpt>
      <trkpt lat="43.6231" lon="3.83457">
        <ele>78</ele>
        <time>2020-10-10T09:56:06.000Z</time>
      </trkpt>
      <trkpt lat="43.62313" lon="3.83455">
        <ele>78</ele>
        <time>2020-10-10T09:56:07.000Z</time>
      </trkpt>
      <trkpt lat="43.62316" lon="3.83452">
        <ele>78</ele>
        <time>2020-10-10T09:56:08.000Z</time>
      </trkpt>
      <trkpt lat="43.62319" lon="3.83449">
        <ele>78</ele>
        <time>2020-10-10T09:56:09.000Z</time>
      </trkpt>
      <trkpt lat="43.62322" lon="3.83447">
        <ele>78</ele>
        <time>2020-10-10T09:56:10.000Z</time>
      </trkpt>
      <trkpt lat="43.62325" lon="3.83445">
        <ele>78</ele>
        <time>2020-10-10T09:56:11.000Z</time>
      </trkpt>
      <trkpt lat="43.62328" lon="3.83443">
        <ele>78</ele>
        <time>2020-10-10T09:56:12.000Z</time>
      </trkpt>
      <trkpt lat="43.62331" lon="3.83441">
        <ele>78</ele>
        <time>2020-10-10T09:56:13.000Z</time>
      </trkpt>
      <trkpt lat="43.62335" lon="3.8344">
        <ele>78</ele>
        <time>2020-10-10T09:56:14.000Z</time>
      </trkpt>
      <trkpt lat="43.62338" lon="3.83439">
        <ele>78</ele>
        <time>2020-10-10T09:56:15.000Z</time>
      </trkpt>
      <trkpt lat="43.62342" lon="3.83438">
        <ele>78</ele>
        <time>2020-10-10T09:56:16.000Z</time>
      </trkpt>
      <trkpt lat="43.62345" lon="3.83437">
        <ele>78</ele>
        <time>2020-10-10T09:56:17.000Z</time>
      </trkpt>
      <trkpt lat="43.62349" lon="3.83436">
        <ele>78</ele>
        <time>2020-10-10T09:56:18.000Z</time>
      </trkpt>
      <trkpt lat="43.62352" lon="3.83436">
        <ele>78</ele>
        <time>2020-10-10T09:56:19.000Z</time>
      </trkpt>
      <trkpt lat="43.62356" lon="3.83436">
        <ele>78</ele>
        <time>2020-10-10T09:56:20.000Z</time>
      </trkpt>
      <trkpt lat="43.6236" lon="3.83436">
        <ele>78</ele>
        <time>2020-10-10T09:56:21.000Z</time>
      </trkpt>
      <trkpt lat="43.62364" lon="3.83436">
        <ele>78</ele>
        <time>2020-10-10T09:56:22.000Z</time>
      </trkpt>
      <trkpt lat="43.62368" lon="3.83437">
        <ele>78</ele>
        <time>2020-10-10T09:56:23.000Z</time>
      </trkpt>
      <trkpt lat="43.62371" lon="3.83438">
        <ele>78</ele>
        <time>2020-10-10T09:56:24.000Z</time>
      </trkpt>
      <trkpt lat="43.62375" lon="3.8344">
        <ele>78</ele>
        <time>2020-10-10T09:56:25.000Z</time>
      </trkpt>
      <trkpt lat="43.62379" lon="3.83441">
        <ele>78</ele>
        <time>2020-10-10T09:56:26.000Z</time>
      </trkpt>
      <trkpt lat="43.62382" lon="3.83442">
        <ele>78</ele>
        <time>2020-10-10T09:56:27.000Z</time>
      </trkpt>
      <trkpt lat="43.62386" lon="3.83444">
        <ele>78</ele>
        <time>2020-10-10T09:56:28.000Z</time>
      </trkpt>
      <trkpt lat="43.62389" lon="3.83445">
        <ele>78</ele>
        <time>2020-10-10T09:56:29.000Z</time>
      </trkpt>
      <trkpt lat="43.62392" lon="3.83446">
        <ele>78</ele>
        <time>2020-10-10T09:56:30.000Z</time>
      </trkpt>
      <trkpt lat="43.62395" lon="3.83447">
        <ele>78</ele>
        <time>2020-10-10T09:56:31.000Z</time>
      </trkpt>
      <trkpt lat="43.62399" lon="3.83448">
        <ele>78</ele>
        <time>2020-10-10T09:56:32.000Z</time>
      </trkpt>
      <trkpt lat="43.62402" lon="3.8345">
        <ele>78</ele>
        <time>2020-10-10T09:56:33.000Z</time>
      </trkpt>
      <trkpt lat="43.62405" lon="3.83452">
        <ele>78</ele>
        <time>2020-10-10T09:56:34.000Z</time>
      </trkpt>
      <trkpt lat="43.62408" lon="3.83454">
        <ele>78</ele>
        <time>2020-10-10T09:56:35.000Z</time>
      </trkpt>
      <trkpt lat="43.62412" lon="3.83456">
        <ele>78</ele>
        <time>2020-10-10T09:56:36.000Z</time>
      </trkpt>
      <trkpt lat="43.62415" lon="3.83457">
        <ele>78</ele>
        <time>2020-10-10T09:56:37.000Z</time>
      </trkpt>
      <trkpt lat="43.62419" lon="3.83457">
        <ele>78</ele>
        <time>2020-10-10T09:56:38.000Z</time>
      </trkpt>
      <trkpt lat="43.62422" lon="3.83454">
        <ele>78</ele>
        <time>2020-10-10T09:56:39.000Z</time>
      </trkpt>
      <trkpt lat="43.62425" lon="3.8345">
        <ele>78</ele>
        <time>2020-10-10T09:56:40.000Z</time>
      </trkpt>
      <trkpt lat="43.62428" lon="3.83446">
        <ele>78</ele>
        <time>2020-10-10T09:56:41.000Z</time>
      </trkpt>
      <trkpt lat="43.62431" lon="3.83441">
        <ele>78</ele>
        <time>2020-10-10T09:56:42.000Z</time>
      </trkpt>
      <trkpt lat="43.62434" lon="3.83437">
        <ele>78</ele>
        <time>2020-10-10T09:56:43.000Z</time>
      </trkpt>
      <trkpt lat="43.62437" lon="3.83433">
        <ele>78</ele>
        <time>2020-10-10T09:56:44.000Z</time>
      </trkpt>
      <trkpt lat="43.6244" lon="3.83428">
        <ele>77.969844046693</ele>
        <time>2020-10-10T09:56:45.000Z</time>
      </trkpt>
      <trkpt lat="43.62442" lon="3.83424">
        <ele>77.872567782101</ele>
        <time>2020-10-10T09:56:46.000Z</time>
      </trkpt>
      <trkpt lat="43.62445" lon="3.83419">
        <ele>77.77529151751</ele>
        <time>2020-10-10T09:56:47.000Z</time>
      </trkpt>
      <trkpt lat="43.62449" lon="3.83416">
        <ele>77.678015252918</ele>
        <time>2020-10-10T09:56:48.000Z</time>
      </trkpt>
      <trkpt lat="43.62453" lon="3.83414">
        <ele>77.580738988327</ele>
        <time>2020-10-10T09:56:49.000Z</time>
      </trkpt>
      <trkpt lat="43.62457" lon="3.83416">
        <ele>77.483462723735</ele>
        <time>2020-10-10T09:56:50.000Z</time>
      </trkpt>
      <trkpt lat="43.62461" lon="3.83418">
        <ele>77.386186459144</ele>
        <time>2020-10-10T09:56:51.000Z</time>
      </trkpt>
      <trkpt lat="43.62465" lon="3.8342">
        <ele>77.288910194552</ele>
        <time>2020-10-10T09:56:52.000Z</time>
      </trkpt>
      <trkpt lat="43.6247" lon="3.83422">
        <ele>77.191633929961</ele>
        <time>2020-10-10T09:56:53.000Z</time>
      </trkpt>
      <trkpt lat="43.62474" lon="3.83425">
        <ele>77.09435766537</ele>
        <time>2020-10-10T09:56:54.000Z</time>
      </trkpt>
      <trkpt lat="43.62479" lon="3.83428">
        <ele>76.996913251029</ele>
        <time>2020-10-10T09:56:55.000Z</time>
      </trkpt>
      <trkpt lat="43.62484" lon="3.83429">
        <ele>76.894032592593</ele>
        <time>2020-10-10T09:56:56.000Z</time>
      </trkpt>
      <trkpt lat="43.62489" lon="3.83429">
        <ele>76.791151934156</ele>
        <time>2020-10-10T09:56:57.000Z</time>
      </trkpt>
      <trkpt lat="43.62493" lon="3.83426">
        <ele>76.68827127572</ele>
        <time>2020-10-10T09:56:58.000Z</time>
      </trkpt>
      <trkpt lat="43.62495" lon="3.83422">
        <ele>76.585390617284</ele>
        <time>2020-10-10T09:56:59.000Z</time>
      </trkpt>
      <trkpt lat="43.62497" lon="3.83418">
        <ele>76.482509958848</ele>
        <time>2020-10-10T09:57:00.000Z</time>
      </trkpt>
      <trkpt lat="43.62498" lon="3.83413">
        <ele>76.379629300411</ele>
        <time>2020-10-10T09:57:01.000Z</time>
      </trkpt>
      <trkpt lat="43.62499" lon="3.83409">
        <ele>76.276748641975</ele>
        <time>2020-10-10T09:57:02.000Z</time>
      </trkpt>
      <trkpt lat="43.625" lon="3.83406">
        <ele>76.173867983539</ele>
        <time>2020-10-10T09:57:03.000Z</time>
      </trkpt>
      <trkpt lat="43.62501" lon="3.83402">
        <ele>76.070987325103</ele>
        <time>2020-10-10T09:57:04.000Z</time>
      </trkpt>
      <trkpt lat="43.62502" lon="3.83398">
        <ele>76.031031341411</ele>
        <time>2020-10-10T09:57:05.000Z</time>
      </trkpt>
      <trkpt lat="43.62503" lon="3.83395">
        <ele>76.131131409447</ele>
        <time>2020-10-10T09:57:06.000Z</time>
      </trkpt>
      <trkpt lat="43.62504" lon="3.83392">
        <ele>76.231231477483</ele>
        <time>2020-10-10T09:57:07.000Z</time>
      </trkpt>
      <trkpt lat="43.62504" lon="3.83389">
        <ele>76.331331545519</ele>
        <time>2020-10-10T09:57:08.000Z</time>
      </trkpt>
      <trkpt lat="43.62505" lon="3.83387">
        <ele>76.431431613555</ele>
        <time>2020-10-10T09:57:09.000Z</time>
      </trkpt>
      <trkpt lat="43.62506" lon="3.83384">
        <ele>76.531531681592</ele>
        <time>2020-10-10T09:57:10.000Z</time>
      </trkpt>
      <trkpt lat="43.62507" lon="3.83382">
        <ele>76.631631749628</ele>
        <time>2020-10-10T09:57:11.000Z</time>
      </trkpt>
      <trkpt lat="43.62509" lon="3.83379">
        <ele>76.8318318857</ele>
        <time>2020-10-10T09:57:13.000Z</time>
      </trkpt>
      <trkpt lat="43.62511" lon="3.83382">
        <ele>76.968031957812</ele>
        <time>2020-10-10T09:57:15.000Z</time>
      </trkpt>
      <trkpt lat="43.6251" lon="3.83385">
        <ele>76.868131825976</ele>
        <time>2020-10-10T09:57:16.000Z</time>
      </trkpt>
      <trkpt lat="43.62509" lon="3.83388">
        <ele>76.76823169414</ele>
        <time>2020-10-10T09:57:17.000Z</time>
      </trkpt>
      <trkpt lat="43.62509" lon="3.83391">
        <ele>76.668331562304</ele>
        <time>2020-10-10T09:57:18.000Z</time>
      </trkpt>
      <trkpt lat="43.62508" lon="3.83395">
        <ele>76.568431430468</ele>
        <time>2020-10-10T09:57:19.000Z</time>
      </trkpt>
      <trkpt lat="43.62507" lon="3.83399">
        <ele>76.468531298631</ele>
        <time>2020-10-10T09:57:20.000Z</time>
      </trkpt>
      <trkpt lat="43.62505" lon="3.83403">
        <ele>76.368631166795</ele>
        <time>2020-10-10T09:57:21.000Z</time>
      </trkpt>
      <trkpt lat="43.62505" lon="3.83408">
        <ele>76.268731034959</ele>
        <time>2020-10-10T09:57:22.000Z</time>
      </trkpt>
      <trkpt lat="43.62507" lon="3.83411">
        <ele>76.168830903123</ele>
        <time>2020-10-10T09:57:23.000Z</time>
      </trkpt>
      <trkpt lat="43.6251" lon="3.83411">
        <ele>76.068930771287</ele>
        <time>2020-10-10T09:57:24.000Z</time>
      </trkpt>
      <trkpt lat="43.62512" lon="3.83409">
        <ele>76</ele>
        <time>2020-10-10T09:57:25.000Z</time>
      </trkpt>
      <trkpt lat="43.62514" lon="3.83409">
        <ele>76</ele>
        <time>2020-10-10T09:57:26.000Z</time>
      </trkpt>
      <trkpt lat="43.62516" lon="3.83411">
        <ele>76</ele>
        <time>2020-10-10T09:57:27.000Z</time>
      </trkpt>
      <trkpt lat="43.62517" lon="3.83414">
        <ele>76</ele>
        <time>2020-10-10T09:57:28.000Z</time>
      </trkpt>
      <trkpt lat="43.62517" lon="3.83418">
        <ele>76</ele>
        <time>2020-10-10T09:57:29.000Z</time>
      </trkpt>
      <trkpt lat="43.62516" lon="3.83422">
        <ele>76</ele>
        <time>2020-10-10T09:57:30.000Z</time>
      </trkpt>
      <trkpt lat="43.62515" lon="3.83426">
        <ele>76</ele>
        <time>2020-10-10T09:57:31.000Z</time>
      </trkpt>
      <trkpt lat="43.62513" lon="3.83431">
        <ele>76</ele>
        <time>2020-10-10T09:57:32.000Z</time>
      </trkpt>
      <trkpt lat="43.62512" lon="3.83436">
        <ele>76</ele>
        <time>2020-10-10T09:57:33.000Z</time>
      </trkpt>
      <trkpt lat="43.6251" lon="3.83441">
        <ele>76</ele>
        <time>2020-10-10T09:57:34.000Z</time>
      </trkpt>
      <trkpt lat="43.62508" lon="3.83446">
        <ele>76.029356363636</ele>
        <time>2020-10-10T09:57:35.000Z</time>
      </trkpt>
      <trkpt lat="43.62507" lon="3.83451">
        <ele>76.124053333333</ele>
        <time>2020-10-10T09:57:36.000Z</time>
      </trkpt>
      <trkpt lat="43.62505" lon="3.83456">
        <ele>76.21875030303</ele>
        <time>2020-10-10T09:57:37.000Z</time>
      </trkpt>
      <trkpt lat="43.62504" lon="3.83462">
        <ele>76.313447272727</ele>
        <time>2020-10-10T09:57:38.000Z</time>
      </trkpt>
      <trkpt lat="43.62505" lon="3.83466">
        <ele>76.408144242424</ele>
        <time>2020-10-10T09:57:39.000Z</time>
      </trkpt>
      <trkpt lat="43.62506" lon="3.8347">
        <ele>76.502841212121</ele>
        <time>2020-10-10T09:57:40.000Z</time>
      </trkpt>
      <trkpt lat="43.62509" lon="3.83472">
        <ele>76.597538181818</ele>
        <time>2020-10-10T09:57:41.000Z</time>
      </trkpt>
      <trkpt lat="43.62511" lon="3.83472">
        <ele>76.692235151515</ele>
        <time>2020-10-10T09:57:42.000Z</time>
      </trkpt>
      <trkpt lat="43.62514" lon="3.83471">
        <ele>76.786932121212</ele>
        <time>2020-10-10T09:57:43.000Z</time>
      </trkpt>
      <trkpt lat="43.62517" lon="3.8347">
        <ele>76.881629090909</ele>
        <time>2020-10-10T09:57:44.000Z</time>
      </trkpt>
      <trkpt lat="43.6252" lon="3.83469">
        <ele>76.976326060606</ele>
        <time>2020-10-10T09:57:45.000Z</time>
      </trkpt>
      <trkpt lat="43.62523" lon="3.83468">
        <ele>77</ele>
        <time>2020-10-10T09:57:46.000Z</time>
      </trkpt>
      <trkpt lat="43.62526" lon="3.83468">
        <ele>77</ele>
        <time>2020-10-10T09:57:47.000Z</time>
      </trkpt>
      <trkpt lat="43.62529" lon="3.83467">
        <ele>77</ele>
        <time>2020-10-10T09:57:48.000Z</time>
      </trkpt>
      <trkpt lat="43.62532" lon="3.83467">
        <ele>77</ele>
        <time>2020-10-10T09:57:49.000Z</time>
      </trkpt>
      <trkpt lat="43.62535" lon="3.83467">
        <ele>77</ele>
        <time>2020-10-10T09:57:50.000Z</time>
      </trkpt>
      <trkpt lat="43.62538" lon="3.83467">
        <ele>77</ele>
        <time>2020-10-10T09:57:51.000Z</time>
      </trkpt>
      <trkpt lat="43.62541" lon="3.83467">
        <ele>77</ele>
        <time>2020-10-10T09:57:52.000Z</time>
      </trkpt>
      <trkpt lat="43.62544" lon="3.83467">
        <ele>77</ele>
        <time>2020-10-10T09:57:53.000Z</time>
      </trkpt>
      <trkpt lat="43.62547" lon="3.83467">
        <ele>77</ele>
        <time>2020-10-10T09:57:54.000Z</time>
      </trkpt>
      <trkpt lat="43.6255" lon="3.83467">
        <ele>77</ele>
        <time>2020-10-10T09:57:55.000Z</time>
      </trkpt>
      <trkpt lat="43.62552" lon="3.83466">
        <ele>77</ele>
        <time>2020-10-10T09:57:57.000Z</time>
      </trkpt>
      <trkpt lat="43.62553" lon="3.83466">
        <ele>77.005239029681</ele>
        <time>2020-10-10T09:58:02.000Z</time>
      </trkpt>
      <trkpt lat="43.62554" lon="3.83465">
        <ele>77.987557094946</ele>
        <time>2020-10-10T09:58:17.000Z</time>
      </trkpt>
      <trkpt lat="43.62554" lon="3.83465">
        <ele>78</ele>
        <time>2020-10-10T09:58:21.000Z</time>
      </trkpt>
      <trkpt lat="43.62548" lon="3.83463">
        <ele>78.999131114756</ele>
        <time>2020-10-10T10:02:11.000Z</time>
      </trkpt>
      <trkpt lat="43.62549" lon="3.83463">
        <ele>78.010204538585</ele>
        <time>2020-10-10T10:02:18.000Z</time>
      </trkpt>
      <trkpt lat="43.62542" lon="3.8346">
        <ele>78.985655081967</ele>
        <time>2020-10-10T10:04:31.000Z</time>
      </trkpt>
      <trkpt lat="43.6254" lon="3.83459">
        <ele>78.78073704918</ele>
        <time>2020-10-10T10:04:32.000Z</time>
      </trkpt>
      <trkpt lat="43.62538" lon="3.8346">
        <ele>78.575819016393</ele>
        <time>2020-10-10T10:04:33.000Z</time>
      </trkpt>
      <trkpt lat="43.62534" lon="3.83461">
        <ele>78.370900983607</ele>
        <time>2020-10-10T10:04:34.000Z</time>
      </trkpt>
      <trkpt lat="43.62531" lon="3.83461">
        <ele>78.16598295082</ele>
        <time>2020-10-10T10:04:35.000Z</time>
      </trkpt>
      <trkpt lat="43.62527" lon="3.83461">
        <ele>77.961064918033</ele>
        <time>2020-10-10T10:04:36.000Z</time>
      </trkpt>
      <trkpt lat="43.62524" lon="3.83462">
        <ele>77.756146885246</ele>
        <time>2020-10-10T10:04:37.000Z</time>
      </trkpt>
      <trkpt lat="43.62521" lon="3.83464">
        <ele>77.551228852459</ele>
        <time>2020-10-10T10:04:38.000Z</time>
      </trkpt>
      <trkpt lat="43.62518" lon="3.83465">
        <ele>77.346310819672</ele>
        <time>2020-10-10T10:04:39.000Z</time>
      </trkpt>
      <trkpt lat="43.62515" lon="3.83466">
        <ele>77.141392786885</ele>
        <time>2020-10-10T10:04:40.000Z</time>
      </trkpt>
      <trkpt lat="43.62513" lon="3.83467">
        <ele>76.970726807712</ele>
        <time>2020-10-10T10:04:41.000Z</time>
      </trkpt>
      <trkpt lat="43.6251" lon="3.83468">
        <ele>76.876298129919</ele>
        <time>2020-10-10T10:04:42.000Z</time>
      </trkpt>
      <trkpt lat="43.62507" lon="3.83467">
        <ele>76.781869452126</ele>
        <time>2020-10-10T10:04:43.000Z</time>
      </trkpt>
      <trkpt lat="43.62505" lon="3.83463">
        <ele>76.687440774333</ele>
        <time>2020-10-10T10:04:44.000Z</time>
      </trkpt>
      <trkpt lat="43.62504" lon="3.83458">
        <ele>76.59301209654</ele>
        <time>2020-10-10T10:04:45.000Z</time>
      </trkpt>
      <trkpt lat="43.62505" lon="3.83453">
        <ele>76.498583418747</ele>
        <time>2020-10-10T10:04:46.000Z</time>
      </trkpt>
      <trkpt lat="43.62506" lon="3.83448">
        <ele>76.404154740954</ele>
        <time>2020-10-10T10:04:47.000Z</time>
      </trkpt>
      <trkpt lat="43.62508" lon="3.83444">
        <ele>76.309726063161</ele>
        <time>2020-10-10T10:04:48.000Z</time>
      </trkpt>
      <trkpt lat="43.62509" lon="3.83439">
        <ele>76.215297385368</ele>
        <time>2020-10-10T10:04:49.000Z</time>
      </trkpt>
      <trkpt lat="43.6251" lon="3.83435">
        <ele>76.120868707575</ele>
        <time>2020-10-10T10:04:50.000Z</time>
      </trkpt>
      <trkpt lat="43.62512" lon="3.83431">
        <ele>76.026440029782</ele>
        <time>2020-10-10T10:04:51.000Z</time>
      </trkpt>
      <trkpt lat="43.62513" lon="3.83427">
        <ele>75.923404255319</ele>
        <time>2020-10-10T10:04:52.000Z</time>
      </trkpt>
      <trkpt lat="43.62514" lon="3.83423">
        <ele>75.817021276596</ele>
        <time>2020-10-10T10:04:53.000Z</time>
      </trkpt>
      <trkpt lat="43.62515" lon="3.83419">
        <ele>75.710638297872</ele>
        <time>2020-10-10T10:04:54.000Z</time>
      </trkpt>
      <trkpt lat="43.62516" lon="3.83415">
        <ele>75.604255319149</ele>
        <time>2020-10-10T10:04:55.000Z</time>
      </trkpt>
      <trkpt lat="43.62515" lon="3.83412">
        <ele>75.497872340426</ele>
        <time>2020-10-10T10:04:56.000Z</time>
      </trkpt>
      <trkpt lat="43.62512" lon="3.83409">
        <ele>75.391489361702</ele>
        <time>2020-10-10T10:04:57.000Z</time>
      </trkpt>
      <trkpt lat="43.62508" lon="3.83409">
        <ele>75.285106382979</ele>
        <time>2020-10-10T10:04:58.000Z</time>
      </trkpt>
      <trkpt lat="43.62505" lon="3.83411">
        <ele>75.178723404255</ele>
        <time>2020-10-10T10:04:59.000Z</time>
      </trkpt>
      <trkpt lat="43.62502" lon="3.83413">
        <ele>75.072340425532</ele>
        <time>2020-10-10T10:05:00.000Z</time>
      </trkpt>
      <trkpt lat="43.62499" lon="3.83417">
        <ele>75</ele>
        <time>2020-10-10T10:05:01.000Z</time>
      </trkpt>
      <trkpt lat="43.62496" lon="3.8342">
        <ele>75</ele>
        <time>2020-10-10T10:05:02.000Z</time>
      </trkpt>
      <trkpt lat="43.62493" lon="3.83423">
        <ele>75</ele>
        <time>2020-10-10T10:05:03.000Z</time>
      </trkpt>
      <trkpt lat="43.6249" lon="3.83426">
        <ele>75</ele>
        <time>2020-10-10T10:05:04.000Z</time>
      </trkpt>
      <trkpt lat="43.62486" lon="3.83427">
        <ele>75</ele>
        <time>2020-10-10T10:05:05.000Z</time>
      </trkpt>
      <trkpt lat="43.62482" lon="3.83427">
        <ele>75</ele>
        <time>2020-10-10T10:05:06.000Z</time>
      </trkpt>
      <trkpt lat="43.62478" lon="3.83425">
        <ele>75</ele>
        <time>2020-10-10T10:05:07.000Z</time>
      </trkpt>
      <trkpt lat="43.62475" lon="3.83424">
        <ele>75</ele>
        <time>2020-10-10T10:05:08.000Z</time>
      </trkpt>
      <trkpt lat="43.62471" lon="3.83423">
        <ele>75</ele>
        <time>2020-10-10T10:05:09.000Z</time>
      </trkpt>
      <trkpt lat="43.62467" lon="3.83421">
        <ele>75</ele>
        <time>2020-10-10T10:05:10.000Z</time>
      </trkpt>
      <trkpt lat="43.62463" lon="3.8342">
        <ele>75</ele>
        <time>2020-10-10T10:05:11.000Z</time>
      </trkpt>
      <trkpt lat="43.6246" lon="3.83418">
        <ele>75</ele>
        <time>2020-10-10T10:05:12.000Z</time>
      </trkpt>
      <trkpt lat="43.62456" lon="3.83416">
        <ele>75</ele>
        <time>2020-10-10T10:05:13.000Z</time>
      </trkpt>
      <trkpt lat="43.62452" lon="3.83415">
        <ele>75</ele>
        <time>2020-10-10T10:05:14.000Z</time>
      </trkpt>
      <trkpt lat="43.62449" lon="3.83415">
        <ele>75</ele>
        <time>2020-10-10T10:05:15.000Z</time>
      </trkpt>
      <trkpt lat="43.62445" lon="3.83417">
        <ele>75</ele>
        <time>2020-10-10T10:05:16.000Z</time>
      </trkpt>
      <trkpt lat="43.62442" lon="3.8342">
        <ele>75</ele>
        <time>2020-10-10T10:05:17.000Z</time>
      </trkpt>
      <trkpt lat="43.62439" lon="3.83424">
        <ele>75</ele>
        <time>2020-10-10T10:05:18.000Z</time>
      </trkpt>
      <trkpt lat="43.62436" lon="3.83429">
        <ele>75</ele>
        <time>2020-10-10T10:05:19.000Z</time>
      </trkpt>
      <trkpt lat="43.62433" lon="3.83434">
        <ele>75</ele>
        <time>2020-10-10T10:05:20.000Z</time>
      </trkpt>
      <trkpt lat="43.62431" lon="3.83438">
        <ele>75</ele>
        <time>2020-10-10T10:05:21.000Z</time>
      </trkpt>
      <trkpt lat="43.62428" lon="3.83443">
        <ele>75</ele>
        <time>2020-10-10T10:05:22.000Z</time>
      </trkpt>
      <trkpt lat="43.62425" lon="3.83448">
        <ele>75</ele>
        <time>2020-10-10T10:05:23.000Z</time>
      </trkpt>
      <trkpt lat="43.62421" lon="3.83452">
        <ele>75</ele>
        <time>2020-10-10T10:05:24.000Z</time>
      </trkpt>
      <trkpt lat="43.62417" lon="3.83455">
        <ele>75</ele>
        <time>2020-10-10T10:05:25.000Z</time>
      </trkpt>
      <trkpt lat="43.62412" lon="3.83456">
        <ele>75</ele>
        <time>2020-10-10T10:05:26.000Z</time>
      </trkpt>
      <trkpt lat="43.62408" lon="3.83455">
        <ele>75</ele>
        <time>2020-10-10T10:05:27.000Z</time>
      </trkpt>
      <trkpt lat="43.62403" lon="3.83453">
        <ele>75</ele>
        <time>2020-10-10T10:05:28.000Z</time>
      </trkpt>
      <trkpt lat="43.62399" lon="3.83451">
        <ele>75</ele>
        <time>2020-10-10T10:05:29.000Z</time>
      </trkpt>
      <trkpt lat="43.62394" lon="3.83449">
        <ele>75</ele>
        <time>2020-10-10T10:05:30.000Z</time>
      </trkpt>
      <trkpt lat="43.62389" lon="3.83447">
        <ele>75</ele>
        <time>2020-10-10T10:05:31.000Z</time>
      </trkpt>
      <trkpt lat="43.62384" lon="3.83446">
        <ele>75</ele>
        <time>2020-10-10T10:05:32.000Z</time>
      </trkpt>
      <trkpt lat="43.62379" lon="3.83445">
        <ele>75</ele>
        <time>2020-10-10T10:05:33.000Z</time>
      </trkpt>
      <trkpt lat="43.62374" lon="3.83444">
        <ele>75</ele>
        <time>2020-10-10T10:05:34.000Z</time>
      </trkpt>
      <trkpt lat="43.6237" lon="3.83443">
        <ele>75</ele>
        <time>2020-10-10T10:05:35.000Z</time>
      </trkpt>
      <trkpt lat="43.62365" lon="3.83442">
        <ele>75</ele>
        <time>2020-10-10T10:05:36.000Z</time>
      </trkpt>
      <trkpt lat="43.6236" lon="3.83441">
        <ele>75</ele>
        <time>2020-10-10T10:05:37.000Z</time>
      </trkpt>
      <trkpt lat="43.62356" lon="3.83441">
        <ele>75</ele>
        <time>2020-10-10T10:05:38.000Z</time>
      </trkpt>
      <trkpt lat="43.62351" lon="3.83441">
        <ele>75</ele>
        <time>2020-10-10T10:05:39.000Z</time>
      </trkpt>
      <trkpt lat="43.62346" lon="3.83441">
        <ele>75</ele>
        <time>2020-10-10T10:05:40.000Z</time>
      </trkpt>
      <trkpt lat="43.62342" lon="3.83442">
        <ele>75.031031341411</ele>
        <time>2020-10-10T10:05:41.000Z</time>
      </trkpt>
      <trkpt lat="43.62337" lon="3.83444">
        <ele>75.131131409447</ele>
        <time>2020-10-10T10:05:42.000Z</time>
      </trkpt>
      <trkpt lat="43.62332" lon="3.83446">
        <ele>75.231231477483</ele>
        <time>2020-10-10T10:05:43.000Z</time>
      </trkpt>
      <trkpt lat="43.62328" lon="3.83448">
        <ele>75.331331545519</ele>
        <time>2020-10-10T10:05:44.000Z</time>
      </trkpt>
      <trkpt lat="43.62323" lon="3.83451">
        <ele>75.431431613555</ele>
        <time>2020-10-10T10:05:45.000Z</time>
      </trkpt>
      <trkpt lat="43.62319" lon="3.83454">
        <ele>75.531531681592</ele>
        <time>2020-10-10T10:05:46.000Z</time>
      </trkpt>
      <trkpt lat="43.62315" lon="3.83458">
        <ele>75.631631749628</ele>
        <time>2020-10-10T10:05:47.000Z</time>
      </trkpt>
      <trkpt lat="43.62311" lon="3.83462">
        <ele>75.731731817664</ele>
        <time>2020-10-10T10:05:48.000Z</time>
      </trkpt>
      <trkpt lat="43.62307" lon="3.83466">
        <ele>75.8318318857</ele>
        <time>2020-10-10T10:05:49.000Z</time>
      </trkpt>
      <trkpt lat="43.62304" lon="3.83471">
        <ele>75.931931953735</ele>
        <time>2020-10-10T10:05:50.000Z</time>
      </trkpt>
      <trkpt lat="43.623" lon="3.83476">
        <ele>76</ele>
        <time>2020-10-10T10:05:51.000Z</time>
      </trkpt>
      <trkpt lat="43.62297" lon="3.83481">
        <ele>76</ele>
        <time>2020-10-10T10:05:52.000Z</time>
      </trkpt>
      <trkpt lat="43.62294" lon="3.83487">
        <ele>76</ele>
        <time>2020-10-10T10:05:53.000Z</time>
      </trkpt>
      <trkpt lat="43.62292" lon="3.83492">
        <ele>76</ele>
        <time>2020-10-10T10:05:54.000Z</time>
      </trkpt>
      <trkpt lat="43.6229" lon="3.83498">
        <ele>76</ele>
        <time>2020-10-10T10:05:55.000Z</time>
      </trkpt>
      <trkpt lat="43.62288" lon="3.83503">
        <ele>76</ele>
        <time>2020-10-10T10:05:56.000Z</time>
      </trkpt>
      <trkpt lat="43.62286" lon="3.83509">
        <ele>76</ele>
        <time>2020-10-10T10:05:57.000Z</time>
      </trkpt>
      <trkpt lat="43.62284" lon="3.83514">
        <ele>76</ele>
        <time>2020-10-10T10:05:58.000Z</time>
      </trkpt>
      <trkpt lat="43.62281" lon="3.83519">
        <ele>76</ele>
        <time>2020-10-10T10:05:59.000Z</time>
      </trkpt>
      <trkpt lat="43.62277" lon="3.83524">
        <ele>76</ele>
        <time>2020-10-10T10:06:00.000Z</time>
      </trkpt>
      <trkpt lat="43.62274" lon="3.83528">
        <ele>76</ele>
        <time>2020-10-10T10:06:01.000Z</time>
      </trkpt>
      <trkpt lat="43.6227" lon="3.83533">
        <ele>76</ele>
        <time>2020-10-10T10:06:02.000Z</time>
      </trkpt>
      <trkpt lat="43.62266" lon="3.83537">
        <ele>76</ele>
        <time>2020-10-10T10:06:03.000Z</time>
      </trkpt>
      <trkpt lat="43.62263" lon="3.83541">
        <ele>76</ele>
        <time>2020-10-10T10:06:04.000Z</time>
      </trkpt>
      <trkpt lat="43.62259" lon="3.83546">
        <ele>76</ele>
        <time>2020-10-10T10:06:05.000Z</time>
      </trkpt>
      <trkpt lat="43.62256" lon="3.8355">
        <ele>76</ele>
        <time>2020-10-10T10:06:06.000Z</time>
      </trkpt>
      <trkpt lat="43.62253" lon="3.83556">
        <ele>76</ele>
        <time>2020-10-10T10:06:07.000Z</time>
      </trkpt>
      <trkpt lat="43.6225" lon="3.83561">
        <ele>76</ele>
        <time>2020-10-10T10:06:08.000Z</time>
      </trkpt>
      <trkpt lat="43.62247" lon="3.83566">
        <ele>76</ele>
        <time>2020-10-10T10:06:09.000Z</time>
      </trkpt>
      <trkpt lat="43.62244" lon="3.83571">
        <ele>76</ele>
        <time>2020-10-10T10:06:10.000Z</time>
      </trkpt>
      <trkpt lat="43.62241" lon="3.83576">
        <ele>76</ele>
        <time>2020-10-10T10:06:11.000Z</time>
      </trkpt>
      <trkpt lat="43.62238" lon="3.83581">
        <ele>76</ele>
        <time>2020-10-10T10:06:12.000Z</time>
      </trkpt>
      <trkpt lat="43.62235" lon="3.83587">
        <ele>76</ele>
        <time>2020-10-10T10:06:13.000Z</time>
      </trkpt>
      <trkpt lat="43.62231" lon="3.83592">
        <ele>76</ele>
        <time>2020-10-10T10:06:14.000Z</time>
      </trkpt>
      <trkpt lat="43.62227" lon="3.83596">
        <ele>76</ele>
        <time>2020-10-10T10:06:15.000Z</time>
      </trkpt>
      <trkpt lat="43.62223" lon="3.836">
        <ele>76</ele>
        <time>2020-10-10T10:06:16.000Z</time>
      </trkpt>
      <trkpt lat="43.62219" lon="3.83604">
        <ele>76</ele>
        <time>2020-10-10T10:06:17.000Z</time>
      </trkpt>
      <trkpt lat="43.62214" lon="3.83607">
        <ele>76</ele>
        <time>2020-10-10T10:06:18.000Z</time>
      </trkpt>
      <trkpt lat="43.62209" lon="3.83611">
        <ele>76</ele>
        <time>2020-10-10T10:06:19.000Z</time>
      </trkpt>
      <trkpt lat="43.62204" lon="3.83615">
        <ele>76</ele>
        <time>2020-10-10T10:06:20.000Z</time>
      </trkpt>
      <trkpt lat="43.62199" lon="3.83619">
        <ele>76</ele>
        <time>2020-10-10T10:06:21.000Z</time>
      </trkpt>
      <trkpt lat="43.62194" lon="3.83622">
        <ele>76.101134563842</ele>
        <time>2020-10-10T10:06:22.000Z</time>
      </trkpt>
      <trkpt lat="43.62189" lon="3.83626">
        <ele>76.204333772329</ele>
        <time>2020-10-10T10:06:23.000Z</time>
      </trkpt>
      <trkpt lat="43.62183" lon="3.8363">
        <ele>76.307532980816</ele>
        <time>2020-10-10T10:06:24.000Z</time>
      </trkpt>
      <trkpt lat="43.62178" lon="3.83634">
        <ele>76.410732189303</ele>
        <time>2020-10-10T10:06:25.000Z</time>
      </trkpt>
      <trkpt lat="43.62173" lon="3.83638">
        <ele>76.51393139779</ele>
        <time>2020-10-10T10:06:26.000Z</time>
      </trkpt>
      <trkpt lat="43.62168" lon="3.83642">
        <ele>76.617130606276</ele>
        <time>2020-10-10T10:06:27.000Z</time>
      </trkpt>
      <trkpt lat="43.62163" lon="3.83645">
        <ele>76.720329814763</ele>
        <time>2020-10-10T10:06:28.000Z</time>
      </trkpt>
      <trkpt lat="43.62158" lon="3.83649">
        <ele>76.82352902325</ele>
        <time>2020-10-10T10:06:29.000Z</time>
      </trkpt>
      <trkpt lat="43.62152" lon="3.83653">
        <ele>76.926728231737</ele>
        <time>2020-10-10T10:06:30.000Z</time>
      </trkpt>
      <trkpt lat="43.62147" lon="3.83656">
        <ele>77.029057814225</ele>
        <time>2020-10-10T10:06:31.000Z</time>
      </trkpt>
      <trkpt lat="43.62142" lon="3.8366">
        <ele>77.129258279284</ele>
        <time>2020-10-10T10:06:32.000Z</time>
      </trkpt>
      <trkpt lat="43.62136" lon="3.83663">
        <ele>77.229458744342</ele>
        <time>2020-10-10T10:06:33.000Z</time>
      </trkpt>
      <trkpt lat="43.62131" lon="3.83667">
        <ele>77.329659209401</ele>
        <time>2020-10-10T10:06:34.000Z</time>
      </trkpt>
      <trkpt lat="43.62126" lon="3.8367">
        <ele>77.429859674459</ele>
        <time>2020-10-10T10:06:35.000Z</time>
      </trkpt>
      <trkpt lat="43.6212" lon="3.83674">
        <ele>77.530060139518</ele>
        <time>2020-10-10T10:06:36.000Z</time>
      </trkpt>
      <trkpt lat="43.62115" lon="3.83678">
        <ele>77.630260604576</ele>
        <time>2020-10-10T10:06:37.000Z</time>
      </trkpt>
      <trkpt lat="43.6211" lon="3.83683">
        <ele>77.730461069634</ele>
        <time>2020-10-10T10:06:38.000Z</time>
      </trkpt>
      <trkpt lat="43.62104" lon="3.83687">
        <ele>77.830661534693</ele>
        <time>2020-10-10T10:06:39.000Z</time>
      </trkpt>
      <trkpt lat="43.62099" lon="3.83692">
        <ele>77.930861999751</ele>
        <time>2020-10-10T10:06:40.000Z</time>
      </trkpt>
      <trkpt lat="43.62094" lon="3.83696">
        <ele>78.03100032</ele>
        <time>2020-10-10T10:06:41.000Z</time>
      </trkpt>
      <trkpt lat="43.62089" lon="3.83701">
        <ele>78.13100032</ele>
        <time>2020-10-10T10:06:42.000Z</time>
      </trkpt>
      <trkpt lat="43.62083" lon="3.83705">
        <ele>78.23100032</ele>
        <time>2020-10-10T10:06:43.000Z</time>
      </trkpt>
      <trkpt lat="43.62078" lon="3.8371">
        <ele>78.33100032</ele>
        <time>2020-10-10T10:06:44.000Z</time>
      </trkpt>
      <trkpt lat="43.62072" lon="3.83715">
        <ele>78.43100032</ele>
        <time>2020-10-10T10:06:45.000Z</time>
      </trkpt>
      <trkpt lat="43.62067" lon="3.83719">
        <ele>78.53100032</ele>
        <time>2020-10-10T10:06:46.000Z</time>
      </trkpt>
      <trkpt lat="43.62061" lon="3.83724">
        <ele>78.63100032</ele>
        <time>2020-10-10T10:06:47.000Z</time>
      </trkpt>
      <trkpt lat="43.62056" lon="3.83729">
        <ele>78.73100032</ele>
        <time>2020-10-10T10:06:48.000Z</time>
      </trkpt>
      <trkpt lat="43.6205" lon="3.83734">
        <ele>78.83100032</ele>
        <time>2020-10-10T10:06:49.000Z</time>
      </trkpt>
      <trkpt lat="43.62044" lon="3.83738">
        <ele>78.93100032</ele>
        <time>2020-10-10T10:06:50.000Z</time>
      </trkpt>
      <trkpt lat="43.62039" lon="3.83743">
        <ele>79</ele>
        <time>2020-10-10T10:06:51.000Z</time>
      </trkpt>
      <trkpt lat="43.62033" lon="3.83748">
        <ele>79</ele>
        <time>2020-10-10T10:06:52.000Z</time>
      </trkpt>
      <trkpt lat="43.62027" lon="3.83753">
        <ele>79</ele>
        <time>2020-10-10T10:06:53.000Z</time>
      </trkpt>
      <trkpt lat="43.62022" lon="3.83758">
        <ele>79</ele>
        <time>2020-10-10T10:06:54.000Z</time>
      </trkpt>
      <trkpt lat="43.62016" lon="3.83763">
        <ele>79</ele>
        <time>2020-10-10T10:06:55.000Z</time>
      </trkpt>
      <trkpt lat="43.6201" lon="3.83768">
        <ele>79</ele>
        <time>2020-10-10T10:06:56.000Z</time>
      </trkpt>
      <trkpt lat="43.62005" lon="3.83773">
        <ele>79</ele>
        <time>2020-10-10T10:06:57.000Z</time>
      </trkpt>
      <trkpt lat="43.61999" lon="3.83779">
        <ele>79</ele>
        <time>2020-10-10T10:06:58.000Z</time>
      </trkpt>
      <trkpt lat="43.61994" lon="3.83784">
        <ele>79</ele>
        <time>2020-10-10T10:06:59.000Z</time>
      </trkpt>
      <trkpt lat="43.6199" lon="3.8379">
        <ele>79</ele>
        <time>2020-10-10T10:07:00.000Z</time>
      </trkpt>
      <trkpt lat="43.61985" lon="3.83795">
        <ele>79</ele>
        <time>2020-10-10T10:07:01.000Z</time>
      </trkpt>
      <trkpt lat="43.6198" lon="3.838">
        <ele>79</ele>
        <time>2020-10-10T10:07:02.000Z</time>
      </trkpt>
      <trkpt lat="43.61976" lon="3.83805">
        <ele>79</ele>
        <time>2020-10-10T10:07:03.000Z</time>
      </trkpt>
      <trkpt lat="43.61971" lon="3.8381">
        <ele>79</ele>
        <time>2020-10-10T10:07:04.000Z</time>
      </trkpt>
      <trkpt lat="43.61966" lon="3.83814">
        <ele>79</ele>
        <time>2020-10-10T10:07:05.000Z</time>
      </trkpt>
      <trkpt lat="43.6196" lon="3.83818">
        <ele>79</ele>
        <time>2020-10-10T10:07:06.000Z</time>
      </trkpt>
      <trkpt lat="43.61954" lon="3.83821">
        <ele>79</ele>
        <time>2020-10-10T10:07:07.000Z</time>
      </trkpt>
      <trkpt lat="43.61949" lon="3.83824">
        <ele>79</ele>
        <time>2020-10-10T10:07:08.000Z</time>
      </trkpt>
      <trkpt lat="43.61943" lon="3.83828">
        <ele>79</ele>
        <time>2020-10-10T10:07:09.000Z</time>
      </trkpt>
      <trkpt lat="43.61938" lon="3.83831">
        <ele>79</ele>
        <time>2020-10-10T10:07:10.000Z</time>
      </trkpt>
      <trkpt lat="43.61932" lon="3.83835">
        <ele>79</ele>
        <time>2020-10-10T10:07:11.000Z</time>
      </trkpt>
      <trkpt lat="43.61927" lon="3.83839">
        <ele>79</ele>
        <time>2020-10-10T10:07:12.000Z</time>
      </trkpt>
      <trkpt lat="43.61921" lon="3.83844">
        <ele>79</ele>
        <time>2020-10-10T10:07:13.000Z</time>
      </trkpt>
      <trkpt lat="43.61916" lon="3.83848">
        <ele>79</ele>
        <time>2020-10-10T10:07:14.000Z</time>
      </trkpt>
      <trkpt lat="43.6191" lon="3.83853">
        <ele>79</ele>
        <time>2020-10-10T10:07:15.000Z</time>
      </trkpt>
      <trkpt lat="43.61905" lon="3.83857">
        <ele>79</ele>
        <time>2020-10-10T10:07:16.000Z</time>
      </trkpt>
      <trkpt lat="43.61899" lon="3.83862">
        <ele>79</ele>
        <time>2020-10-10T10:07:17.000Z</time>
      </trkpt>
      <trkpt lat="43.61894" lon="3.83866">
        <ele>79</ele>
        <time>2020-10-10T10:07:18.000Z</time>
      </trkpt>
      <trkpt lat="43.61888" lon="3.83871">
        <ele>79</ele>
        <time>2020-10-10T10:07:19.000Z</time>
      </trkpt>
      <trkpt lat="43.61883" lon="3.83875">
        <ele>79</ele>
        <time>2020-10-10T10:07:20.000Z</time>
      </trkpt>
      <trkpt lat="43.61878" lon="3.8388">
        <ele>79.030068196293</ele>
        <time>2020-10-10T10:07:21.000Z</time>
      </trkpt>
      <trkpt lat="43.61873" lon="3.83884">
        <ele>79.127061376664</ele>
        <time>2020-10-10T10:07:22.000Z</time>
      </trkpt>
      <trkpt lat="43.61868" lon="3.83889">
        <ele>79.224054557035</ele>
        <time>2020-10-10T10:07:23.000Z</time>
      </trkpt>
      <trkpt lat="43.61863" lon="3.83893">
        <ele>79.321047737405</ele>
        <time>2020-10-10T10:07:24.000Z</time>
      </trkpt>
      <trkpt lat="43.61859" lon="3.83898">
        <ele>79.418040917776</ele>
        <time>2020-10-10T10:07:25.000Z</time>
      </trkpt>
      <trkpt lat="43.61857" lon="3.839">
        <ele>79.515034098147</ele>
        <time>2020-10-10T10:07:26.000Z</time>
      </trkpt>
      <trkpt lat="43.61855" lon="3.83902">
        <ele>79.709020458888</ele>
        <time>2020-10-10T10:07:28.000Z</time>
      </trkpt>
      <trkpt lat="43.61852" lon="3.83905">
        <ele>79.903006819629</ele>
        <time>2020-10-10T10:07:30.000Z</time>
      </trkpt>
      <trkpt lat="43.6185" lon="3.83906">
        <ele>80</ele>
        <time>2020-10-10T10:07:31.000Z</time>
      </trkpt>
      <trkpt lat="43.61848" lon="3.83908">
        <ele>79.896800791513</ele>
        <time>2020-10-10T10:07:32.000Z</time>
      </trkpt>
      <trkpt lat="43.61845" lon="3.83911">
        <ele>79.793601583026</ele>
        <time>2020-10-10T10:07:33.000Z</time>
      </trkpt>
      <trkpt lat="43.61842" lon="3.83913">
        <ele>79.69040237454</ele>
        <time>2020-10-10T10:07:34.000Z</time>
      </trkpt>
      <trkpt lat="43.61839" lon="3.83916">
        <ele>79.587203166053</ele>
        <time>2020-10-10T10:07:35.000Z</time>
      </trkpt>
      <trkpt lat="43.61836" lon="3.83918">
        <ele>79.484003957566</ele>
        <time>2020-10-10T10:07:36.000Z</time>
      </trkpt>
      <trkpt lat="43.61833" lon="3.83921">
        <ele>79.380804749079</ele>
        <time>2020-10-10T10:07:37.000Z</time>
      </trkpt>
      <trkpt lat="43.61829" lon="3.83924">
        <ele>79.277605540592</ele>
        <time>2020-10-10T10:07:38.000Z</time>
      </trkpt>
      <trkpt lat="43.61826" lon="3.83927">
        <ele>79.174406332105</ele>
        <time>2020-10-10T10:07:39.000Z</time>
      </trkpt>
      <trkpt lat="43.61822" lon="3.8393">
        <ele>79.071207123618</ele>
        <time>2020-10-10T10:07:40.000Z</time>
      </trkpt>
      <trkpt lat="43.61819" lon="3.83932">
        <ele>79.03100032</ele>
        <time>2020-10-10T10:07:41.000Z</time>
      </trkpt>
      <trkpt lat="43.61815" lon="3.83935">
        <ele>79.13100032</ele>
        <time>2020-10-10T10:07:42.000Z</time>
      </trkpt>
      <trkpt lat="43.61812" lon="3.83937">
        <ele>79.23100032</ele>
        <time>2020-10-10T10:07:43.000Z</time>
      </trkpt>
      <trkpt lat="43.61809" lon="3.8394">
        <ele>79.33100032</ele>
        <time>2020-10-10T10:07:44.000Z</time>
      </trkpt>
      <trkpt lat="43.61807" lon="3.83942">
        <ele>79.43100032</ele>
        <time>2020-10-10T10:07:45.000Z</time>
      </trkpt>
      <trkpt lat="43.61804" lon="3.83944">
        <ele>79.53100032</ele>
        <time>2020-10-10T10:07:46.000Z</time>
      </trkpt>
      <trkpt lat="43.61802" lon="3.83946">
        <ele>79.63100032</ele>
        <time>2020-10-10T10:07:47.000Z</time>
      </trkpt>
      <trkpt lat="43.618" lon="3.83948">
        <ele>79.73100032</ele>
        <time>2020-10-10T10:07:48.000Z</time>
      </trkpt>
      <trkpt lat="43.61798" lon="3.8395">
        <ele>79.83100032</ele>
        <time>2020-10-10T10:07:49.000Z</time>
      </trkpt>
      <trkpt lat="43.61798" lon="3.83952">
        <ele>80</ele>
        <time>2020-10-10T10:07:51.000Z</time>
      </trkpt>
      <trkpt lat="43.61798" lon="3.83956">
        <ele>80</ele>
        <time>2020-10-10T10:07:54.000Z</time>
      </trkpt>
      <trkpt lat="43.61797" lon="3.83957">
        <ele>80</ele>
        <time>2020-10-10T10:08:00.000Z</time>
      </trkpt>
      <trkpt lat="43.61794" lon="3.8396">
        <ele>80.007179813028</ele>
        <time>2020-10-10T10:08:11.000Z</time>
      </trkpt>
      <trkpt lat="43.6179" lon="3.8396">
        <ele>80.212307950832</ele>
        <time>2020-10-10T10:08:13.000Z</time>
      </trkpt>
      <trkpt lat="43.61788" lon="3.83961">
        <ele>80.314872019734</ele>
        <time>2020-10-10T10:08:14.000Z</time>
      </trkpt>
      <trkpt lat="43.61785" lon="3.83963">
        <ele>80.417436088636</ele>
        <time>2020-10-10T10:08:15.000Z</time>
      </trkpt>
      <trkpt lat="43.61782" lon="3.83965">
        <ele>80.520000157538</ele>
        <time>2020-10-10T10:08:16.000Z</time>
      </trkpt>
      <trkpt lat="43.61779" lon="3.83968">
        <ele>80.622564226441</ele>
        <time>2020-10-10T10:08:17.000Z</time>
      </trkpt>
      <trkpt lat="43.61775" lon="3.8397">
        <ele>80.725128295343</ele>
        <time>2020-10-10T10:08:18.000Z</time>
      </trkpt>
      <trkpt lat="43.61772" lon="3.83971">
        <ele>80.827692364245</ele>
        <time>2020-10-10T10:08:19.000Z</time>
      </trkpt>
      <trkpt lat="43.61768" lon="3.83973">
        <ele>80.930256433147</ele>
        <time>2020-10-10T10:08:20.000Z</time>
      </trkpt>
      <trkpt lat="43.61765" lon="3.83974">
        <ele>81</ele>
        <time>2020-10-10T10:08:21.000Z</time>
      </trkpt>
      <trkpt lat="43.61762" lon="3.83977">
        <ele>81</ele>
        <time>2020-10-10T10:08:22.000Z</time>
      </trkpt>
      <trkpt lat="43.61758" lon="3.83979">
        <ele>81</ele>
        <time>2020-10-10T10:08:23.000Z</time>
      </trkpt>
      <trkpt lat="43.61755" lon="3.83982">
        <ele>81</ele>
        <time>2020-10-10T10:08:24.000Z</time>
      </trkpt>
      <trkpt lat="43.61751" lon="3.83985">
        <ele>81</ele>
        <time>2020-10-10T10:08:25.000Z</time>
      </trkpt>
      <trkpt lat="43.61747" lon="3.83988">
        <ele>81</ele>
        <time>2020-10-10T10:08:26.000Z</time>
      </trkpt>
      <trkpt lat="43.61744" lon="3.8399">
        <ele>81</ele>
        <time>2020-10-10T10:08:27.000Z</time>
      </trkpt>
      <trkpt lat="43.6174" lon="3.83993">
        <ele>81</ele>
        <time>2020-10-10T10:08:28.000Z</time>
      </trkpt>
      <trkpt lat="43.61736" lon="3.83996">
        <ele>81</ele>
        <time>2020-10-10T10:08:29.000Z</time>
      </trkpt>
      <trkpt lat="43.61733" lon="3.83999">
        <ele>81</ele>
        <time>2020-10-10T10:08:30.000Z</time>
      </trkpt>
      <trkpt lat="43.61729" lon="3.84002">
        <ele>81</ele>
        <time>2020-10-10T10:08:31.000Z</time>
      </trkpt>
      <trkpt lat="43.61725" lon="3.84005">
        <ele>81.075532255319</ele>
        <time>2020-10-10T10:08:32.000Z</time>
      </trkpt>
      <trkpt lat="43.61721" lon="3.84007">
        <ele>81.181915234043</ele>
        <time>2020-10-10T10:08:33.000Z</time>
      </trkpt>
      <trkpt lat="43.61718" lon="3.8401">
        <ele>81.288298212766</ele>
        <time>2020-10-10T10:08:34.000Z</time>
      </trkpt>
      <trkpt lat="43.61714" lon="3.84013">
        <ele>81.394681191489</ele>
        <time>2020-10-10T10:08:35.000Z</time>
      </trkpt>
      <trkpt lat="43.6171" lon="3.84016">
        <ele>81.501064170213</ele>
        <time>2020-10-10T10:08:36.000Z</time>
      </trkpt>
      <trkpt lat="43.61707" lon="3.84019">
        <ele>81.607447148936</ele>
        <time>2020-10-10T10:08:37.000Z</time>
      </trkpt>
      <trkpt lat="43.61703" lon="3.84023">
        <ele>81.71383012766</ele>
        <time>2020-10-10T10:08:38.000Z</time>
      </trkpt>
      <trkpt lat="43.61699" lon="3.84026">
        <ele>81.820213106383</ele>
        <time>2020-10-10T10:08:39.000Z</time>
      </trkpt>
      <trkpt lat="43.61695" lon="3.84029">
        <ele>81.926596085106</ele>
        <time>2020-10-10T10:08:40.000Z</time>
      </trkpt>
      <trkpt lat="43.61692" lon="3.84033">
        <ele>82.030572288396</ele>
        <time>2020-10-10T10:08:41.000Z</time>
      </trkpt>
      <trkpt lat="43.61688" lon="3.84036">
        <ele>82.12919155554</ele>
        <time>2020-10-10T10:08:42.000Z</time>
      </trkpt>
      <trkpt lat="43.61685" lon="3.84039">
        <ele>82.227810822683</ele>
        <time>2020-10-10T10:08:43.000Z</time>
      </trkpt>
      <trkpt lat="43.61681" lon="3.84043">
        <ele>82.326430089827</ele>
        <time>2020-10-10T10:08:44.000Z</time>
      </trkpt>
      <trkpt lat="43.61678" lon="3.84047">
        <ele>82.425049356971</ele>
        <time>2020-10-10T10:08:45.000Z</time>
      </trkpt>
      <trkpt lat="43.61675" lon="3.8405">
        <ele>82.523668624115</ele>
        <time>2020-10-10T10:08:46.000Z</time>
      </trkpt>
      <trkpt lat="43.61671" lon="3.84054">
        <ele>82.622287891258</ele>
        <time>2020-10-10T10:08:47.000Z</time>
      </trkpt>
      <trkpt lat="43.61668" lon="3.84058">
        <ele>82.720907158402</ele>
        <time>2020-10-10T10:08:48.000Z</time>
      </trkpt>
      <trkpt lat="43.61665" lon="3.84061">
        <ele>82.819526425545</ele>
        <time>2020-10-10T10:08:49.000Z</time>
      </trkpt>
      <trkpt lat="43.61662" lon="3.84065">
        <ele>82.918145692689</ele>
        <time>2020-10-10T10:08:50.000Z</time>
      </trkpt>
      <trkpt lat="43.61659" lon="3.84069">
        <ele>83.017241065958</ele>
        <time>2020-10-10T10:08:51.000Z</time>
      </trkpt>
      <trkpt lat="43.61655" lon="3.84072">
        <ele>83.118661010084</ele>
        <time>2020-10-10T10:08:52.000Z</time>
      </trkpt>
      <trkpt lat="43.61652" lon="3.84076">
        <ele>83.220080954211</ele>
        <time>2020-10-10T10:08:53.000Z</time>
      </trkpt>
      <trkpt lat="43.61649" lon="3.8408">
        <ele>83.321500898337</ele>
        <time>2020-10-10T10:08:54.000Z</time>
      </trkpt>
      <trkpt lat="43.61646" lon="3.84083">
        <ele>83.422920842464</ele>
        <time>2020-10-10T10:08:55.000Z</time>
      </trkpt>
      <trkpt lat="43.61643" lon="3.84087">
        <ele>83.52434078659</ele>
        <time>2020-10-10T10:08:56.000Z</time>
      </trkpt>
      <trkpt lat="43.61641" lon="3.8409">
        <ele>83.625760730717</ele>
        <time>2020-10-10T10:08:57.000Z</time>
      </trkpt>
      <trkpt lat="43.61639" lon="3.84093">
        <ele>83.727180674843</ele>
        <time>2020-10-10T10:08:58.000Z</time>
      </trkpt>
      <trkpt lat="43.61638" lon="3.84096">
        <ele>83.82860061897</ele>
        <time>2020-10-10T10:08:59.000Z</time>
      </trkpt>
      <trkpt lat="43.61637" lon="3.84099">
        <ele>83.930020563097</ele>
        <time>2020-10-10T10:09:00.000Z</time>
      </trkpt>
      <trkpt lat="43.61636" lon="3.84102">
        <ele>83.969397502673</ele>
        <time>2020-10-10T10:09:01.000Z</time>
      </trkpt>
      <trkpt lat="43.61635" lon="3.84105">
        <ele>83.870680788369</ele>
        <time>2020-10-10T10:09:02.000Z</time>
      </trkpt>
      <trkpt lat="43.61636" lon="3.84108">
        <ele>83.771964074066</ele>
        <time>2020-10-10T10:09:03.000Z</time>
      </trkpt>
      <trkpt lat="43.61636" lon="3.84112">
        <ele>83.574530645459</ele>
        <time>2020-10-10T10:09:05.000Z</time>
      </trkpt>
      <trkpt lat="43.61636" lon="3.84115">
        <ele>83.377097216852</ele>
        <time>2020-10-10T10:09:07.000Z</time>
      </trkpt>
      <trkpt lat="43.61633" lon="3.84118">
        <ele>83.179663788245</ele>
        <time>2020-10-10T10:09:09.000Z</time>
      </trkpt>
      <trkpt lat="43.61631" lon="3.84121">
        <ele>83</ele>
        <time>2020-10-10T10:09:11.000Z</time>
      </trkpt>
      <trkpt lat="43.61629" lon="3.84123">
        <ele>83</ele>
        <time>2020-10-10T10:09:15.000Z</time>
      </trkpt>
      <trkpt lat="43.61628" lon="3.84126">
        <ele>83</ele>
        <time>2020-10-10T10:09:16.000Z</time>
      </trkpt>
      <trkpt lat="43.61625" lon="3.84129">
        <ele>83</ele>
        <time>2020-10-10T10:09:17.000Z</time>
      </trkpt>
      <trkpt lat="43.61623" lon="3.84131">
        <ele>83</ele>
        <time>2020-10-10T10:09:18.000Z</time>
      </trkpt>
      <trkpt lat="43.61619" lon="3.84132">
        <ele>83</ele>
        <time>2020-10-10T10:09:19.000Z</time>
      </trkpt>
      <trkpt lat="43.61617" lon="3.84134">
        <ele>83</ele>
        <time>2020-10-10T10:09:20.000Z</time>
      </trkpt>
      <trkpt lat="43.61614" lon="3.84138">
        <ele>83.031031341411</ele>
        <time>2020-10-10T10:09:21.000Z</time>
      </trkpt>
      <trkpt lat="43.61612" lon="3.84141">
        <ele>83.131131409447</ele>
        <time>2020-10-10T10:09:22.000Z</time>
      </trkpt>
      <trkpt lat="43.6161" lon="3.84146">
        <ele>83.231231477483</ele>
        <time>2020-10-10T10:09:23.000Z</time>
      </trkpt>
      <trkpt lat="43.61608" lon="3.8415">
        <ele>83.331331545519</ele>
        <time>2020-10-10T10:09:24.000Z</time>
      </trkpt>
      <trkpt lat="43.61605" lon="3.84155">
        <ele>83.431431613555</ele>
        <time>2020-10-10T10:09:25.000Z</time>
      </trkpt>
      <trkpt lat="43.61602" lon="3.84159">
        <ele>83.531531681592</ele>
        <time>2020-10-10T10:09:26.000Z</time>
      </trkpt>
      <trkpt lat="43.616" lon="3.84162">
        <ele>83.631631749628</ele>
        <time>2020-10-10T10:09:27.000Z</time>
      </trkpt>
      <trkpt lat="43.61597" lon="3.84166">
        <ele>83.731731817664</ele>
        <time>2020-10-10T10:09:28.000Z</time>
      </trkpt>
      <trkpt lat="43.61595" lon="3.8417">
        <ele>83.8318318857</ele>
        <time>2020-10-10T10:09:29.000Z</time>
      </trkpt>
      <trkpt lat="43.61593" lon="3.84173">
        <ele>83.931931953735</ele>
        <time>2020-10-10T10:09:30.000Z</time>
      </trkpt>
      <trkpt lat="43.61591" lon="3.84177">
        <ele>84</ele>
        <time>2020-10-10T10:09:31.000Z</time>
      </trkpt>
      <trkpt lat="43.61588" lon="3.84181">
        <ele>84</ele>
        <time>2020-10-10T10:09:32.000Z</time>
      </trkpt>
      <trkpt lat="43.61586" lon="3.84185">
        <ele>84</ele>
        <time>2020-10-10T10:09:33.000Z</time>
      </trkpt>
      <trkpt lat="43.61584" lon="3.84189">
        <ele>84</ele>
        <time>2020-10-10T10:09:34.000Z</time>
      </trkpt>
      <trkpt lat="43.61581" lon="3.84193">
        <ele>84</ele>
        <time>2020-10-10T10:09:35.000Z</time>
      </trkpt>
      <trkpt lat="43.61579" lon="3.84198">
        <ele>84</ele>
        <time>2020-10-10T10:09:36.000Z</time>
      </trkpt>
      <trkpt lat="43.61576" lon="3.84202">
        <ele>84</ele>
        <time>2020-10-10T10:09:37.000Z</time>
      </trkpt>
      <trkpt lat="43.61574" lon="3.84207">
        <ele>84</ele>
        <time>2020-10-10T10:09:38.000Z</time>
      </trkpt>
      <trkpt lat="43.61571" lon="3.84211">
        <ele>84</ele>
        <time>2020-10-10T10:09:39.000Z</time>
      </trkpt>
      <trkpt lat="43.61568" lon="3.84216">
        <ele>84</ele>
        <time>2020-10-10T10:09:40.000Z</time>
      </trkpt>
      <trkpt lat="43.61565" lon="3.8422">
        <ele>84</ele>
        <time>2020-10-10T10:09:41.000Z</time>
      </trkpt>
      <trkpt lat="43.61562" lon="3.84224">
        <ele>84</ele>
        <time>2020-10-10T10:09:42.000Z</time>
      </trkpt>
      <trkpt lat="43.61559" lon="3.84229">
        <ele>84</ele>
        <time>2020-10-10T10:09:43.000Z</time>
      </trkpt>
      <trkpt lat="43.61556" lon="3.84233">
        <ele>84</ele>
        <time>2020-10-10T10:09:44.000Z</time>
      </trkpt>
      <trkpt lat="43.61553" lon="3.84238">
        <ele>84</ele>
        <time>2020-10-10T10:09:45.000Z</time>
      </trkpt>
      <trkpt lat="43.6155" lon="3.84243">
        <ele>84</ele>
        <time>2020-10-10T10:09:46.000Z</time>
      </trkpt>
      <trkpt lat="43.61546" lon="3.84248">
        <ele>84</ele>
        <time>2020-10-10T10:09:47.000Z</time>
      </trkpt>
      <trkpt lat="43.61543" lon="3.84254">
        <ele>84</ele>
        <time>2020-10-10T10:09:48.000Z</time>
      </trkpt>
      <trkpt lat="43.61539" lon="3.84259">
        <ele>84</ele>
        <time>2020-10-10T10:09:49.000Z</time>
      </trkpt>
      <trkpt lat="43.61535" lon="3.84265">
        <ele>84</ele>
        <time>2020-10-10T10:09:50.000Z</time>
      </trkpt>
      <trkpt lat="43.61531" lon="3.8427">
        <ele>83.96899968</ele>
        <time>2020-10-10T10:09:51.000Z</time>
      </trkpt>
      <trkpt lat="43.61526" lon="3.84275">
        <ele>83.86899968</ele>
        <time>2020-10-10T10:09:52.000Z</time>
      </trkpt>
      <trkpt lat="43.61522" lon="3.84281">
        <ele>83.76899968</ele>
        <time>2020-10-10T10:09:53.000Z</time>
      </trkpt>
      <trkpt lat="43.61517" lon="3.84287">
        <ele>83.66899968</ele>
        <time>2020-10-10T10:09:54.000Z</time>
      </trkpt>
      <trkpt lat="43.61512" lon="3.84294">
        <ele>83.56899968</ele>
        <time>2020-10-10T10:09:55.000Z</time>
      </trkpt>
      <trkpt lat="43.61507" lon="3.843">
        <ele>83.46899968</ele>
        <time>2020-10-10T10:09:56.000Z</time>
      </trkpt>
      <trkpt lat="43.61502" lon="3.84306">
        <ele>83.36899968</ele>
        <time>2020-10-10T10:09:57.000Z</time>
      </trkpt>
      <trkpt lat="43.61497" lon="3.84312">
        <ele>83.26899968</ele>
        <time>2020-10-10T10:09:58.000Z</time>
      </trkpt>
      <trkpt lat="43.61493" lon="3.84317">
        <ele>83.16899968</ele>
        <time>2020-10-10T10:09:59.000Z</time>
      </trkpt>
      <trkpt lat="43.61489" lon="3.84323">
        <ele>83.06899968</ele>
        <time>2020-10-10T10:10:00.000Z</time>
      </trkpt>
      <trkpt lat="43.61483" lon="3.84328">
        <ele>82.90855371464</ele>
        <time>2020-10-10T10:10:01.000Z</time>
      </trkpt>
      <trkpt lat="43.61477" lon="3.84331">
        <ele>82.613568742354</ele>
        <time>2020-10-10T10:10:02.000Z</time>
      </trkpt>
      <trkpt lat="43.61471" lon="3.84335">
        <ele>82.318583770068</ele>
        <time>2020-10-10T10:10:03.000Z</time>
      </trkpt>
      <trkpt lat="43.61465" lon="3.8434">
        <ele>82.023598797783</ele>
        <time>2020-10-10T10:10:04.000Z</time>
      </trkpt>
      <trkpt lat="43.61459" lon="3.84344">
        <ele>81.728613825497</ele>
        <time>2020-10-10T10:10:05.000Z</time>
      </trkpt>
      <trkpt lat="43.61454" lon="3.84347">
        <ele>81.433628853212</ele>
        <time>2020-10-10T10:10:06.000Z</time>
      </trkpt>
      <trkpt lat="43.61449" lon="3.8435">
        <ele>81.138643880926</ele>
        <time>2020-10-10T10:10:07.000Z</time>
      </trkpt>
      <trkpt lat="43.61444" lon="3.84353">
        <ele>80.843658908641</ele>
        <time>2020-10-10T10:10:08.000Z</time>
      </trkpt>
      <trkpt lat="43.6144" lon="3.84356">
        <ele>80.548673936355</ele>
        <time>2020-10-10T10:10:09.000Z</time>
      </trkpt>
      <trkpt lat="43.61435" lon="3.84358">
        <ele>80.253688964069</ele>
        <time>2020-10-10T10:10:10.000Z</time>
      </trkpt>
      <trkpt lat="43.6143" lon="3.84361">
        <ele>79.971517042377</ele>
        <time>2020-10-10T10:10:11.000Z</time>
      </trkpt>
      <trkpt lat="43.61426" lon="3.84364">
        <ele>79.768058044085</ele>
        <time>2020-10-10T10:10:12.000Z</time>
      </trkpt>
      <trkpt lat="43.61421" lon="3.84366">
        <ele>79.564599045794</ele>
        <time>2020-10-10T10:10:13.000Z</time>
      </trkpt>
      <trkpt lat="43.61417" lon="3.84369">
        <ele>79.361140047502</ele>
        <time>2020-10-10T10:10:14.000Z</time>
      </trkpt>
      <trkpt lat="43.61413" lon="3.84372">
        <ele>79.15768104921</ele>
        <time>2020-10-10T10:10:15.000Z</time>
      </trkpt>
      <trkpt lat="43.61409" lon="3.84376">
        <ele>78.954222050919</ele>
        <time>2020-10-10T10:10:16.000Z</time>
      </trkpt>
      <trkpt lat="43.61404" lon="3.84379">
        <ele>78.750763052627</ele>
        <time>2020-10-10T10:10:17.000Z</time>
      </trkpt>
      <trkpt lat="43.614" lon="3.84382">
        <ele>78.547304054336</ele>
        <time>2020-10-10T10:10:18.000Z</time>
      </trkpt>
      <trkpt lat="43.61395" lon="3.84385">
        <ele>78.343845056044</ele>
        <time>2020-10-10T10:10:19.000Z</time>
      </trkpt>
      <trkpt lat="43.61391" lon="3.84388">
        <ele>78.140386057752</ele>
        <time>2020-10-10T10:10:20.000Z</time>
      </trkpt>
      <trkpt lat="43.61386" lon="3.84391">
        <ele>77.96899968</ele>
        <time>2020-10-10T10:10:21.000Z</time>
      </trkpt>
      <trkpt lat="43.61381" lon="3.84394">
        <ele>77.86899968</ele>
        <time>2020-10-10T10:10:22.000Z</time>
      </trkpt>
      <trkpt lat="43.61377" lon="3.84398">
        <ele>77.76899968</ele>
        <time>2020-10-10T10:10:23.000Z</time>
      </trkpt>
      <trkpt lat="43.61373" lon="3.84401">
        <ele>77.66899968</ele>
        <time>2020-10-10T10:10:24.000Z</time>
      </trkpt>
      <trkpt lat="43.61368" lon="3.84405">
        <ele>77.56899968</ele>
        <time>2020-10-10T10:10:25.000Z</time>
      </trkpt>
      <trkpt lat="43.61364" lon="3.84408">
        <ele>77.46899968</ele>
        <time>2020-10-10T10:10:26.000Z</time>
      </trkpt>
      <trkpt lat="43.6136" lon="3.84411">
        <ele>77.36899968</ele>
        <time>2020-10-10T10:10:27.000Z</time>
      </trkpt>
      <trkpt lat="43.61356" lon="3.84413">
        <ele>77.26899968</ele>
        <time>2020-10-10T10:10:28.000Z</time>
      </trkpt>
      <trkpt lat="43.61353" lon="3.84415">
        <ele>77.16899968</ele>
        <time>2020-10-10T10:10:29.000Z</time>
      </trkpt>
      <trkpt lat="43.61351" lon="3.84416">
        <ele>77.06899968</ele>
        <time>2020-10-10T10:10:30.000Z</time>
      </trkpt>
      <trkpt lat="43.61349" lon="3.84417">
        <ele>77</ele>
        <time>2020-10-10T10:10:31.000Z</time>
      </trkpt>
      <trkpt lat="43.61346" lon="3.84419">
        <ele>77</ele>
        <time>2020-10-10T10:10:32.000Z</time>
      </trkpt>
      <trkpt lat="43.61343" lon="3.8442">
        <ele>77</ele>
        <time>2020-10-10T10:10:33.000Z</time>
      </trkpt>
      <trkpt lat="43.6134" lon="3.84422">
        <ele>77</ele>
        <time>2020-10-10T10:10:34.000Z</time>
      </trkpt>
      <trkpt lat="43.61336" lon="3.84424">
        <ele>77</ele>
        <time>2020-10-10T10:10:35.000Z</time>
      </trkpt>
      <trkpt lat="43.61333" lon="3.84426">
        <ele>77</ele>
        <time>2020-10-10T10:10:36.000Z</time>
      </trkpt>
      <trkpt lat="43.61329" lon="3.84428">
        <ele>77</ele>
        <time>2020-10-10T10:10:37.000Z</time>
      </trkpt>
      <trkpt lat="43.61325" lon="3.8443">
        <ele>77</ele>
        <time>2020-10-10T10:10:38.000Z</time>
      </trkpt>
      <trkpt lat="43.61321" lon="3.84432">
        <ele>77</ele>
        <time>2020-10-10T10:10:39.000Z</time>
      </trkpt>
      <trkpt lat="43.61317" lon="3.84436">
        <ele>77</ele>
        <time>2020-10-10T10:10:40.000Z</time>
      </trkpt>
      <trkpt lat="43.61313" lon="3.84439">
        <ele>76.969873343401</ele>
        <time>2020-10-10T10:10:41.000Z</time>
      </trkpt>
      <trkpt lat="43.6131" lon="3.84443">
        <ele>76.872691583344</ele>
        <time>2020-10-10T10:10:42.000Z</time>
      </trkpt>
      <trkpt lat="43.61306" lon="3.84447">
        <ele>76.775509823288</ele>
        <time>2020-10-10T10:10:43.000Z</time>
      </trkpt>
      <trkpt lat="43.61302" lon="3.8445">
        <ele>76.678328063231</ele>
        <time>2020-10-10T10:10:44.000Z</time>
      </trkpt>
      <trkpt lat="43.61299" lon="3.84454">
        <ele>76.581146303175</ele>
        <time>2020-10-10T10:10:45.000Z</time>
      </trkpt>
      <trkpt lat="43.61295" lon="3.84458">
        <ele>76.483964543118</ele>
        <time>2020-10-10T10:10:46.000Z</time>
      </trkpt>
      <trkpt lat="43.61291" lon="3.84462">
        <ele>76.386782783062</ele>
        <time>2020-10-10T10:10:47.000Z</time>
      </trkpt>
      <trkpt lat="43.61286" lon="3.84466">
        <ele>76.289601023005</ele>
        <time>2020-10-10T10:10:48.000Z</time>
      </trkpt>
      <trkpt lat="43.61282" lon="3.8447">
        <ele>76.192419262949</ele>
        <time>2020-10-10T10:10:49.000Z</time>
      </trkpt>
      <trkpt lat="43.61278" lon="3.84474">
        <ele>76.095237502892</ele>
        <time>2020-10-10T10:10:50.000Z</time>
      </trkpt>
      <trkpt lat="43.61274" lon="3.84479">
        <ele>75.99793960933</ele>
        <time>2020-10-10T10:10:51.000Z</time>
      </trkpt>
      <trkpt lat="43.6127" lon="3.84483">
        <ele>75.894953031529</ele>
        <time>2020-10-10T10:10:52.000Z</time>
      </trkpt>
      <trkpt lat="43.61266" lon="3.84487">
        <ele>75.791966453729</ele>
        <time>2020-10-10T10:10:53.000Z</time>
      </trkpt>
      <trkpt lat="43.61262" lon="3.84492">
        <ele>75.688979875928</ele>
        <time>2020-10-10T10:10:54.000Z</time>
      </trkpt>
      <trkpt lat="43.61259" lon="3.84498">
        <ele>75.585993298128</ele>
        <time>2020-10-10T10:10:55.000Z</time>
      </trkpt>
      <trkpt lat="43.61256" lon="3.84503">
        <ele>75.483006720327</ele>
        <time>2020-10-10T10:10:56.000Z</time>
      </trkpt>
      <trkpt lat="43.61254" lon="3.84509">
        <ele>75.380020142527</ele>
        <time>2020-10-10T10:10:57.000Z</time>
      </trkpt>
      <trkpt lat="43.61252" lon="3.84514">
        <ele>75.277033564726</ele>
        <time>2020-10-10T10:10:58.000Z</time>
      </trkpt>
      <trkpt lat="43.6125" lon="3.84518">
        <ele>75.174046986926</ele>
        <time>2020-10-10T10:10:59.000Z</time>
      </trkpt>
      <trkpt lat="43.61247" lon="3.84522">
        <ele>75.071060409125</ele>
        <time>2020-10-10T10:11:00.000Z</time>
      </trkpt>
      <trkpt lat="43.61245" lon="3.84527">
        <ele>74.96899968</ele>
        <time>2020-10-10T10:11:01.000Z</time>
      </trkpt>
      <trkpt lat="43.61243" lon="3.84533">
        <ele>74.86899968</ele>
        <time>2020-10-10T10:11:02.000Z</time>
      </trkpt>
      <trkpt lat="43.6124" lon="3.84539">
        <ele>74.76899968</ele>
        <time>2020-10-10T10:11:03.000Z</time>
      </trkpt>
      <trkpt lat="43.61239" lon="3.84545">
        <ele>74.66899968</ele>
        <time>2020-10-10T10:11:04.000Z</time>
      </trkpt>
      <trkpt lat="43.61237" lon="3.84552">
        <ele>74.56899968</ele>
        <time>2020-10-10T10:11:05.000Z</time>
      </trkpt>
      <trkpt lat="43.61237" lon="3.84557">
        <ele>74.46899968</ele>
        <time>2020-10-10T10:11:06.000Z</time>
      </trkpt>
      <trkpt lat="43.61236" lon="3.84561">
        <ele>74.36899968</ele>
        <time>2020-10-10T10:11:07.000Z</time>
      </trkpt>
      <trkpt lat="43.61235" lon="3.84564">
        <ele>74.16899968</ele>
        <time>2020-10-10T10:11:09.000Z</time>
      </trkpt>
      <trkpt lat="43.61234" lon="3.84567">
        <ele>73.86899968</ele>
        <time>2020-10-10T10:11:12.000Z</time>
      </trkpt>
      <trkpt lat="43.61233" lon="3.8457">
        <ele>73.66899968</ele>
        <time>2020-10-10T10:11:14.000Z</time>
      </trkpt>
      <trkpt lat="43.61231" lon="3.84573">
        <ele>73.56899968</ele>
        <time>2020-10-10T10:11:15.000Z</time>
      </trkpt>
      <trkpt lat="43.61228" lon="3.84577">
        <ele>73.46899968</ele>
        <time>2020-10-10T10:11:16.000Z</time>
      </trkpt>
      <trkpt lat="43.61226" lon="3.84581">
        <ele>73.36899968</ele>
        <time>2020-10-10T10:11:17.000Z</time>
      </trkpt>
      <trkpt lat="43.61223" lon="3.84586">
        <ele>73.26899968</ele>
        <time>2020-10-10T10:11:18.000Z</time>
      </trkpt>
      <trkpt lat="43.6122" lon="3.8459">
        <ele>73.16899968</ele>
        <time>2020-10-10T10:11:19.000Z</time>
      </trkpt>
      <trkpt lat="43.61216" lon="3.84593">
        <ele>73.06899968</ele>
        <time>2020-10-10T10:11:20.000Z</time>
      </trkpt>
      <trkpt lat="43.61212" lon="3.84596">
        <ele>72.969667024866</ele>
        <time>2020-10-10T10:11:21.000Z</time>
      </trkpt>
      <trkpt lat="43.61208" lon="3.84599">
        <ele>72.871819728019</ele>
        <time>2020-10-10T10:11:22.000Z</time>
      </trkpt>
      <trkpt lat="43.61205" lon="3.84603">
        <ele>72.773972431172</ele>
        <time>2020-10-10T10:11:23.000Z</time>
      </trkpt>
      <trkpt lat="43.61202" lon="3.84606">
        <ele>72.676125134325</ele>
        <time>2020-10-10T10:11:24.000Z</time>
      </trkpt>
      <trkpt lat="43.612" lon="3.84608">
        <ele>72.578277837478</ele>
        <time>2020-10-10T10:11:25.000Z</time>
      </trkpt>
      <trkpt lat="43.61197" lon="3.84611">
        <ele>72.480430540631</ele>
        <time>2020-10-10T10:11:26.000Z</time>
      </trkpt>
      <trkpt lat="43.61194" lon="3.84614">
        <ele>72.382583243784</ele>
        <time>2020-10-10T10:11:27.000Z</time>
      </trkpt>
      <trkpt lat="43.61191" lon="3.84618">
        <ele>72.284735946936</ele>
        <time>2020-10-10T10:11:28.000Z</time>
      </trkpt>
      <trkpt lat="43.61188" lon="3.84622">
        <ele>72.186888650089</ele>
        <time>2020-10-10T10:11:29.000Z</time>
      </trkpt>
      <trkpt lat="43.61185" lon="3.84626">
        <ele>72.089041353242</ele>
        <time>2020-10-10T10:11:30.000Z</time>
      </trkpt>
      <trkpt lat="43.61182" lon="3.8463">
        <ele>71.991053990333</ele>
        <time>2020-10-10T10:11:31.000Z</time>
      </trkpt>
      <trkpt lat="43.61178" lon="3.84633">
        <ele>71.891650348565</ele>
        <time>2020-10-10T10:11:32.000Z</time>
      </trkpt>
      <trkpt lat="43.61173" lon="3.84635">
        <ele>71.792246706797</ele>
        <time>2020-10-10T10:11:33.000Z</time>
      </trkpt>
      <trkpt lat="43.61168" lon="3.84635">
        <ele>71.692843065029</ele>
        <time>2020-10-10T10:11:34.000Z</time>
      </trkpt>
      <trkpt lat="43.61163" lon="3.84635">
        <ele>71.593439423262</ele>
        <time>2020-10-10T10:11:35.000Z</time>
      </trkpt>
      <trkpt lat="43.61158" lon="3.84634">
        <ele>71.494035781494</ele>
        <time>2020-10-10T10:11:36.000Z</time>
      </trkpt>
      <trkpt lat="43.61153" lon="3.84634">
        <ele>71.394632139726</ele>
        <time>2020-10-10T10:11:37.000Z</time>
      </trkpt>
      <trkpt lat="43.6115" lon="3.84638">
        <ele>71.295228497959</ele>
        <time>2020-10-10T10:11:38.000Z</time>
      </trkpt>
      <trkpt lat="43.61147" lon="3.84643">
        <ele>71.195824856191</ele>
        <time>2020-10-10T10:11:39.000Z</time>
      </trkpt>
      <trkpt lat="43.61144" lon="3.84648">
        <ele>71.096421214423</ele>
        <time>2020-10-10T10:11:40.000Z</time>
      </trkpt>
      <trkpt lat="43.61141" lon="3.84654">
        <ele>71</ele>
        <time>2020-10-10T10:11:41.000Z</time>
      </trkpt>
      <trkpt lat="43.61138" lon="3.84659">
        <ele>71</ele>
        <time>2020-10-10T10:11:42.000Z</time>
      </trkpt>
      <trkpt lat="43.61134" lon="3.84665">
        <ele>71</ele>
        <time>2020-10-10T10:11:43.000Z</time>
      </trkpt>
      <trkpt lat="43.61131" lon="3.84671">
        <ele>71</ele>
        <time>2020-10-10T10:11:44.000Z</time>
      </trkpt>
      <trkpt lat="43.61127" lon="3.84677">
        <ele>71</ele>
        <time>2020-10-10T10:11:45.000Z</time>
      </trkpt>
      <trkpt lat="43.61124" lon="3.84684">
        <ele>71</ele>
        <time>2020-10-10T10:11:46.000Z</time>
      </trkpt>
      <trkpt lat="43.6112" lon="3.84691">
        <ele>71</ele>
        <time>2020-10-10T10:11:47.000Z</time>
      </trkpt>
      <trkpt lat="43.61117" lon="3.84698">
        <ele>71</ele>
        <time>2020-10-10T10:11:48.000Z</time>
      </trkpt>
      <trkpt lat="43.61114" lon="3.84705">
        <ele>71</ele>
        <time>2020-10-10T10:11:49.000Z</time>
      </trkpt>
      <trkpt lat="43.61111" lon="3.84712">
        <ele>71</ele>
        <time>2020-10-10T10:11:50.000Z</time>
      </trkpt>
      <trkpt lat="43.61108" lon="3.8472">
        <ele>70.970019051439</ele>
        <time>2020-10-10T10:11:51.000Z</time>
      </trkpt>
      <trkpt lat="43.61105" lon="3.84728">
        <ele>70.87330731246</ele>
        <time>2020-10-10T10:11:52.000Z</time>
      </trkpt>
      <trkpt lat="43.61103" lon="3.84736">
        <ele>70.776595573481</ele>
        <time>2020-10-10T10:11:53.000Z</time>
      </trkpt>
      <trkpt lat="43.61101" lon="3.84745">
        <ele>70.679883834501</ele>
        <time>2020-10-10T10:11:54.000Z</time>
      </trkpt>
      <trkpt lat="43.61099" lon="3.84753">
        <ele>70.583172095522</ele>
        <time>2020-10-10T10:11:55.000Z</time>
      </trkpt>
      <trkpt lat="43.61097" lon="3.84762">
        <ele>70.486460356543</ele>
        <time>2020-10-10T10:11:56.000Z</time>
      </trkpt>
      <trkpt lat="43.61095" lon="3.84771">
        <ele>70.389748617564</ele>
        <time>2020-10-10T10:11:57.000Z</time>
      </trkpt>
      <trkpt lat="43.61093" lon="3.8478">
        <ele>70.293036878585</ele>
        <time>2020-10-10T10:11:58.000Z</time>
      </trkpt>
      <trkpt lat="43.61091" lon="3.84789">
        <ele>70.196325139605</ele>
        <time>2020-10-10T10:11:59.000Z</time>
      </trkpt>
      <trkpt lat="43.6109" lon="3.84798">
        <ele>70.099613400626</ele>
        <time>2020-10-10T10:12:00.000Z</time>
      </trkpt>
      <trkpt lat="43.61088" lon="3.84807">
        <ele>70.002901661647</ele>
        <time>2020-10-10T10:12:01.000Z</time>
      </trkpt>
      <trkpt lat="43.61086" lon="3.84816">
        <ele>69.899586186061</ele>
        <time>2020-10-10T10:12:02.000Z</time>
      </trkpt>
      <trkpt lat="43.61084" lon="3.84826">
        <ele>69.79606644874</ele>
        <time>2020-10-10T10:12:03.000Z</time>
      </trkpt>
      <trkpt lat="43.61082" lon="3.84835">
        <ele>69.692546711418</ele>
        <time>2020-10-10T10:12:04.000Z</time>
      </trkpt>
      <trkpt lat="43.61079" lon="3.84845">
        <ele>69.589026974096</ele>
        <time>2020-10-10T10:12:05.000Z</time>
      </trkpt>
      <trkpt lat="43.61077" lon="3.84854">
        <ele>69.485507236775</ele>
        <time>2020-10-10T10:12:06.000Z</time>
      </trkpt>
      <trkpt lat="43.61075" lon="3.84864">
        <ele>69.381987499453</ele>
        <time>2020-10-10T10:12:07.000Z</time>
      </trkpt>
      <trkpt lat="43.61073" lon="3.84873">
        <ele>69.278467762132</ele>
        <time>2020-10-10T10:12:08.000Z</time>
      </trkpt>
      <trkpt lat="43.6107" lon="3.84883">
        <ele>69.17494802481</ele>
        <time>2020-10-10T10:12:09.000Z</time>
      </trkpt>
      <trkpt lat="43.61068" lon="3.84892">
        <ele>69.071428287489</ele>
        <time>2020-10-10T10:12:10.000Z</time>
      </trkpt>
      <trkpt lat="43.61066" lon="3.84901">
        <ele>69</ele>
        <time>2020-10-10T10:12:11.000Z</time>
      </trkpt>
      <trkpt lat="43.61063" lon="3.8491">
        <ele>69</ele>
        <time>2020-10-10T10:12:12.000Z</time>
      </trkpt>
      <trkpt lat="43.6106" lon="3.84919">
        <ele>69</ele>
        <time>2020-10-10T10:12:13.000Z</time>
      </trkpt>
      <trkpt lat="43.61058" lon="3.84928">
        <ele>69</ele>
        <time>2020-10-10T10:12:14.000Z</time>
      </trkpt>
      <trkpt lat="43.61055" lon="3.84937">
        <ele>69</ele>
        <time>2020-10-10T10:12:15.000Z</time>
      </trkpt>
      <trkpt lat="43.61053" lon="3.84946">
        <ele>69</ele>
        <time>2020-10-10T10:12:16.000Z</time>
      </trkpt>
      <trkpt lat="43.61051" lon="3.84955">
        <ele>69</ele>
        <time>2020-10-10T10:12:17.000Z</time>
      </trkpt>
      <trkpt lat="43.61049" lon="3.84964">
        <ele>69</ele>
        <time>2020-10-10T10:12:18.000Z</time>
      </trkpt>
      <trkpt lat="43.61046" lon="3.84973">
        <ele>69</ele>
        <time>2020-10-10T10:12:19.000Z</time>
      </trkpt>
      <trkpt lat="43.61044" lon="3.84982">
        <ele>69</ele>
        <time>2020-10-10T10:12:20.000Z</time>
      </trkpt>
      <trkpt lat="43.61042" lon="3.84991">
        <ele>68.96899968</ele>
        <time>2020-10-10T10:12:21.000Z</time>
      </trkpt>
      <trkpt lat="43.6104" lon="3.85001">
        <ele>68.86899968</ele>
        <time>2020-10-10T10:12:22.000Z</time>
      </trkpt>
      <trkpt lat="43.61038" lon="3.85011">
        <ele>68.76899968</ele>
        <time>2020-10-10T10:12:23.000Z</time>
      </trkpt>
      <trkpt lat="43.61036" lon="3.8502">
        <ele>68.66899968</ele>
        <time>2020-10-10T10:12:24.000Z</time>
      </trkpt>
      <trkpt lat="43.61034" lon="3.8503">
        <ele>68.56899968</ele>
        <time>2020-10-10T10:12:25.000Z</time>
      </trkpt>
      <trkpt lat="43.61033" lon="3.8504">
        <ele>68.46899968</ele>
        <time>2020-10-10T10:12:26.000Z</time>
      </trkpt>
      <trkpt lat="43.61033" lon="3.8505">
        <ele>68.36899968</ele>
        <time>2020-10-10T10:12:27.000Z</time>
      </trkpt>
      <trkpt lat="43.61032" lon="3.85059">
        <ele>68.26899968</ele>
        <time>2020-10-10T10:12:28.000Z</time>
      </trkpt>
      <trkpt lat="43.61031" lon="3.85068">
        <ele>68.16899968</ele>
        <time>2020-10-10T10:12:29.000Z</time>
      </trkpt>
      <trkpt lat="43.61029" lon="3.85077">
        <ele>68.06899968</ele>
        <time>2020-10-10T10:12:30.000Z</time>
      </trkpt>
      <trkpt lat="43.61027" lon="3.85085">
        <ele>68</ele>
        <time>2020-10-10T10:12:31.000Z</time>
      </trkpt>
      <trkpt lat="43.61026" lon="3.85092">
        <ele>68</ele>
        <time>2020-10-10T10:12:32.000Z</time>
      </trkpt>
      <trkpt lat="43.61025" lon="3.85098">
        <ele>68</ele>
        <time>2020-10-10T10:12:33.000Z</time>
      </trkpt>
      <trkpt lat="43.61024" lon="3.85101">
        <ele>68</ele>
        <time>2020-10-10T10:12:34.000Z</time>
      </trkpt>
      <trkpt lat="43.61024" lon="3.85104">
        <ele>68</ele>
        <time>2020-10-10T10:12:35.000Z</time>
      </trkpt>
      <trkpt lat="43.61024" lon="3.85107">
        <ele>68</ele>
        <time>2020-10-10T10:12:36.000Z</time>
      </trkpt>
      <trkpt lat="43.61023" lon="3.85111">
        <ele>68</ele>
        <time>2020-10-10T10:12:37.000Z</time>
      </trkpt>
      <trkpt lat="43.61022" lon="3.85116">
        <ele>68</ele>
        <time>2020-10-10T10:12:38.000Z</time>
      </trkpt>
      <trkpt lat="43.61021" lon="3.85122">
        <ele>68</ele>
        <time>2020-10-10T10:12:39.000Z</time>
      </trkpt>
      <trkpt lat="43.61021" lon="3.85128">
        <ele>68</ele>
        <time>2020-10-10T10:12:40.000Z</time>
      </trkpt>
      <trkpt lat="43.6102" lon="3.85135">
        <ele>68</ele>
        <time>2020-10-10T10:12:41.000Z</time>
      </trkpt>
      <trkpt lat="43.61019" lon="3.85142">
        <ele>68</ele>
        <time>2020-10-10T10:12:42.000Z</time>
      </trkpt>
      <trkpt lat="43.61019" lon="3.85149">
        <ele>68</ele>
        <time>2020-10-10T10:12:43.000Z</time>
      </trkpt>
      <trkpt lat="43.61019" lon="3.85156">
        <ele>68</ele>
        <time>2020-10-10T10:12:44.000Z</time>
      </trkpt>
      <trkpt lat="43.61018" lon="3.85164">
        <ele>68</ele>
        <time>2020-10-10T10:12:45.000Z</time>
      </trkpt>
      <trkpt lat="43.61017" lon="3.85171">
        <ele>68</ele>
        <time>2020-10-10T10:12:46.000Z</time>
      </trkpt>
      <trkpt lat="43.61017" lon="3.85179">
        <ele>68</ele>
        <time>2020-10-10T10:12:47.000Z</time>
      </trkpt>
      <trkpt lat="43.61016" lon="3.85187">
        <ele>68</ele>
        <time>2020-10-10T10:12:48.000Z</time>
      </trkpt>
      <trkpt lat="43.61016" lon="3.85194">
        <ele>68</ele>
        <time>2020-10-10T10:12:49.000Z</time>
      </trkpt>
      <trkpt lat="43.61015" lon="3.85202">
        <ele>68</ele>
        <time>2020-10-10T10:12:50.000Z</time>
      </trkpt>
      <trkpt lat="43.61015" lon="3.85209">
        <ele>67.96899968</ele>
        <time>2020-10-10T10:12:51.000Z</time>
      </trkpt>
      <trkpt lat="43.61014" lon="3.85216">
        <ele>67.86899968</ele>
        <time>2020-10-10T10:12:52.000Z</time>
      </trkpt>
      <trkpt lat="43.61015" lon="3.85224">
        <ele>67.76899968</ele>
        <time>2020-10-10T10:12:53.000Z</time>
      </trkpt>
      <trkpt lat="43.61015" lon="3.85231">
        <ele>67.66899968</ele>
        <time>2020-10-10T10:12:54.000Z</time>
      </trkpt>
      <trkpt lat="43.61014" lon="3.85238">
        <ele>67.56899968</ele>
        <time>2020-10-10T10:12:55.000Z</time>
      </trkpt>
      <trkpt lat="43.61014" lon="3.85246">
        <ele>67.46899968</ele>
        <time>2020-10-10T10:12:56.000Z</time>
      </trkpt>
      <trkpt lat="43.61013" lon="3.85254">
        <ele>67.36899968</ele>
        <time>2020-10-10T10:12:57.000Z</time>
      </trkpt>
      <trkpt lat="43.61013" lon="3.85262">
        <ele>67.26899968</ele>
        <time>2020-10-10T10:12:58.000Z</time>
      </trkpt>
      <trkpt lat="43.61013" lon="3.8527">
        <ele>67.16899968</ele>
        <time>2020-10-10T10:12:59.000Z</time>
      </trkpt>
      <trkpt lat="43.61013" lon="3.85278">
        <ele>67.06899968</ele>
        <time>2020-10-10T10:13:00.000Z</time>
      </trkpt>
      <trkpt lat="43.61013" lon="3.85285">
        <ele>66.93799936</ele>
        <time>2020-10-10T10:13:01.000Z</time>
      </trkpt>
      <trkpt lat="43.61013" lon="3.85293">
        <ele>66.73799936</ele>
        <time>2020-10-10T10:13:02.000Z</time>
      </trkpt>
      <trkpt lat="43.61013" lon="3.85301">
        <ele>66.53799936</ele>
        <time>2020-10-10T10:13:03.000Z</time>
      </trkpt>
      <trkpt lat="43.61012" lon="3.85309">
        <ele>66.33799936</ele>
        <time>2020-10-10T10:13:04.000Z</time>
      </trkpt>
      <trkpt lat="43.61012" lon="3.85317">
        <ele>66.13799936</ele>
        <time>2020-10-10T10:13:05.000Z</time>
      </trkpt>
      <trkpt lat="43.61012" lon="3.85325">
        <ele>65.93799936</ele>
        <time>2020-10-10T10:13:06.000Z</time>
      </trkpt>
      <trkpt lat="43.61012" lon="3.85333">
        <ele>65.73799936</ele>
        <time>2020-10-10T10:13:07.000Z</time>
      </trkpt>
      <trkpt lat="43.61011" lon="3.85342">
        <ele>65.53799936</ele>
        <time>2020-10-10T10:13:08.000Z</time>
      </trkpt>
      <trkpt lat="43.61011" lon="3.8535">
        <ele>65.33799936</ele>
        <time>2020-10-10T10:13:09.000Z</time>
      </trkpt>
      <trkpt lat="43.6101" lon="3.85359">
        <ele>65.13799936</ele>
        <time>2020-10-10T10:13:10.000Z</time>
      </trkpt>
      <trkpt lat="43.61011" lon="3.85368">
        <ele>64.96899968</ele>
        <time>2020-10-10T10:13:11.000Z</time>
      </trkpt>
      <trkpt lat="43.61011" lon="3.85378">
        <ele>64.86899968</ele>
        <time>2020-10-10T10:13:12.000Z</time>
      </trkpt>
      <trkpt lat="43.61011" lon="3.85387">
        <ele>64.76899968</ele>
        <time>2020-10-10T10:13:13.000Z</time>
      </trkpt>
      <trkpt lat="43.61011" lon="3.85396">
        <ele>64.66899968</ele>
        <time>2020-10-10T10:13:14.000Z</time>
      </trkpt>
      <trkpt lat="43.61011" lon="3.85406">
        <ele>64.56899968</ele>
        <time>2020-10-10T10:13:15.000Z</time>
      </trkpt>
      <trkpt lat="43.61012" lon="3.85415">
        <ele>64.46899968</ele>
        <time>2020-10-10T10:13:16.000Z</time>
      </trkpt>
      <trkpt lat="43.61012" lon="3.85425">
        <ele>64.36899968</ele>
        <time>2020-10-10T10:13:17.000Z</time>
      </trkpt>
      <trkpt lat="43.61013" lon="3.85435">
        <ele>64.26899968</ele>
        <time>2020-10-10T10:13:18.000Z</time>
      </trkpt>
      <trkpt lat="43.61014" lon="3.85444">
        <ele>64.16899968</ele>
        <time>2020-10-10T10:13:19.000Z</time>
      </trkpt>
      <trkpt lat="43.61016" lon="3.85454">
        <ele>64.06899968</ele>
        <time>2020-10-10T10:13:20.000Z</time>
      </trkpt>
      <trkpt lat="43.61017" lon="3.85463">
        <ele>63.969577713185</ele>
        <time>2020-10-10T10:13:21.000Z</time>
      </trkpt>
      <trkpt lat="43.61018" lon="3.85473">
        <ele>63.871442317113</ele>
        <time>2020-10-10T10:13:22.000Z</time>
      </trkpt>
      <trkpt lat="43.61019" lon="3.85482">
        <ele>63.773306921042</ele>
        <time>2020-10-10T10:13:23.000Z</time>
      </trkpt>
      <trkpt lat="43.6102" lon="3.85491">
        <ele>63.675171524971</ele>
        <time>2020-10-10T10:13:24.000Z</time>
      </trkpt>
      <trkpt lat="43.6102" lon="3.85501">
        <ele>63.577036128899</ele>
        <time>2020-10-10T10:13:25.000Z</time>
      </trkpt>
      <trkpt lat="43.61021" lon="3.8551">
        <ele>63.478900732828</ele>
        <time>2020-10-10T10:13:26.000Z</time>
      </trkpt>
      <trkpt lat="43.61022" lon="3.85519">
        <ele>63.380765336757</ele>
        <time>2020-10-10T10:13:27.000Z</time>
      </trkpt>
      <trkpt lat="43.61023" lon="3.85528">
        <ele>63.282629940685</ele>
        <time>2020-10-10T10:13:28.000Z</time>
      </trkpt>
      <trkpt lat="43.61024" lon="3.85538">
        <ele>63.184494544614</ele>
        <time>2020-10-10T10:13:29.000Z</time>
      </trkpt>
      <trkpt lat="43.61026" lon="3.85547">
        <ele>63.086359148543</ele>
        <time>2020-10-10T10:13:30.000Z</time>
      </trkpt>
      <trkpt lat="43.61027" lon="3.85556">
        <ele>62.987891023083</ele>
        <time>2020-10-10T10:13:31.000Z</time>
      </trkpt>
      <trkpt lat="43.61028" lon="3.85566">
        <ele>62.886982882104</ele>
        <time>2020-10-10T10:13:32.000Z</time>
      </trkpt>
      <trkpt lat="43.61029" lon="3.85575">
        <ele>62.786074741126</ele>
        <time>2020-10-10T10:13:33.000Z</time>
      </trkpt>
      <trkpt lat="43.6103" lon="3.85584">
        <ele>62.685166600148</ele>
        <time>2020-10-10T10:13:34.000Z</time>
      </trkpt>
      <trkpt lat="43.61031" lon="3.85593">
        <ele>62.58425845917</ele>
        <time>2020-10-10T10:13:35.000Z</time>
      </trkpt>
      <trkpt lat="43.61033" lon="3.85602">
        <ele>62.483350318192</ele>
        <time>2020-10-10T10:13:36.000Z</time>
      </trkpt>
      <trkpt lat="43.61035" lon="3.8561">
        <ele>62.382442177213</ele>
        <time>2020-10-10T10:13:37.000Z</time>
      </trkpt>
      <trkpt lat="43.61037" lon="3.85619">
        <ele>62.281534036235</ele>
        <time>2020-10-10T10:13:38.000Z</time>
      </trkpt>
      <trkpt lat="43.6104" lon="3.85627">
        <ele>62.180625895257</ele>
        <time>2020-10-10T10:13:39.000Z</time>
      </trkpt>
      <trkpt lat="43.61044" lon="3.85634">
        <ele>62.079717754279</ele>
        <time>2020-10-10T10:13:40.000Z</time>
      </trkpt>
      <trkpt lat="43.61048" lon="3.85641">
        <ele>61.9794925</ele>
        <time>2020-10-10T10:13:41.000Z</time>
      </trkpt>
      <trkpt lat="43.61052" lon="3.85648">
        <ele>61.88183625</ele>
        <time>2020-10-10T10:13:42.000Z</time>
      </trkpt>
      <trkpt lat="43.61056" lon="3.85656">
        <ele>61.78418</ele>
        <time>2020-10-10T10:13:43.000Z</time>
      </trkpt>
      <trkpt lat="43.61061" lon="3.85663">
        <ele>61.68652375</ele>
        <time>2020-10-10T10:13:44.000Z</time>
      </trkpt>
      <trkpt lat="43.61067" lon="3.8567">
        <ele>61.5888675</ele>
        <time>2020-10-10T10:13:45.000Z</time>
      </trkpt>
      <trkpt lat="43.61072" lon="3.85677">
        <ele>61.49121125</ele>
        <time>2020-10-10T10:13:46.000Z</time>
      </trkpt>
      <trkpt lat="43.61078" lon="3.85685">
        <ele>61.393555</ele>
        <time>2020-10-10T10:13:47.000Z</time>
      </trkpt>
      <trkpt lat="43.61083" lon="3.85693">
        <ele>61.29589875</ele>
        <time>2020-10-10T10:13:48.000Z</time>
      </trkpt>
      <trkpt lat="43.61089" lon="3.85701">
        <ele>61.1982425</ele>
        <time>2020-10-10T10:13:49.000Z</time>
      </trkpt>
      <trkpt lat="43.61095" lon="3.85709">
        <ele>61.10058625</ele>
        <time>2020-10-10T10:13:50.000Z</time>
      </trkpt>
      <trkpt lat="43.61101" lon="3.85718">
        <ele>61.00293</ele>
        <time>2020-10-10T10:13:51.000Z</time>
      </trkpt>
      <trkpt lat="43.61107" lon="3.85727">
        <ele>60.698758558184</ele>
        <time>2020-10-10T10:13:52.000Z</time>
      </trkpt>
      <trkpt lat="43.61112" lon="3.85737">
        <ele>60.388199346219</ele>
        <time>2020-10-10T10:13:53.000Z</time>
      </trkpt>
      <trkpt lat="43.61118" lon="3.85747">
        <ele>60.077640134254</ele>
        <time>2020-10-10T10:13:54.000Z</time>
      </trkpt>
      <trkpt lat="43.61122" lon="3.85759">
        <ele>59.76708092229</ele>
        <time>2020-10-10T10:13:55.000Z</time>
      </trkpt>
      <trkpt lat="43.61125" lon="3.85771">
        <ele>59.456521710325</ele>
        <time>2020-10-10T10:13:56.000Z</time>
      </trkpt>
      <trkpt lat="43.61128" lon="3.85783">
        <ele>59.14596249836</ele>
        <time>2020-10-10T10:13:57.000Z</time>
      </trkpt>
      <trkpt lat="43.6113" lon="3.85796">
        <ele>58.835403286396</ele>
        <time>2020-10-10T10:13:58.000Z</time>
      </trkpt>
      <trkpt lat="43.61132" lon="3.85808">
        <ele>58.524844074431</ele>
        <time>2020-10-10T10:13:59.000Z</time>
      </trkpt>
      <trkpt lat="43.61134" lon="3.8582">
        <ele>58.214284862466</ele>
        <time>2020-10-10T10:14:00.000Z</time>
      </trkpt>
      <trkpt lat="43.61136" lon="3.85832">
        <ele>57.816927244095</ele>
        <time>2020-10-10T10:14:01.000Z</time>
      </trkpt>
      <trkpt lat="43.61138" lon="3.85845">
        <ele>57.226376062992</ele>
        <time>2020-10-10T10:14:02.000Z</time>
      </trkpt>
      <trkpt lat="43.61139" lon="3.85857">
        <ele>56.63582488189</ele>
        <time>2020-10-10T10:14:03.000Z</time>
      </trkpt>
      <trkpt lat="43.61141" lon="3.8587">
        <ele>56.045273700787</ele>
        <time>2020-10-10T10:14:04.000Z</time>
      </trkpt>
      <trkpt lat="43.61143" lon="3.85883">
        <ele>55.454722519685</ele>
        <time>2020-10-10T10:14:05.000Z</time>
      </trkpt>
      <trkpt lat="43.61145" lon="3.85896">
        <ele>54.864171338583</ele>
        <time>2020-10-10T10:14:06.000Z</time>
      </trkpt>
      <trkpt lat="43.61147" lon="3.85909">
        <ele>54.27362015748</ele>
        <time>2020-10-10T10:14:07.000Z</time>
      </trkpt>
      <trkpt lat="43.61148" lon="3.85922">
        <ele>53.683068976378</ele>
        <time>2020-10-10T10:14:08.000Z</time>
      </trkpt>
      <trkpt lat="43.6115" lon="3.85935">
        <ele>53.092517795276</ele>
        <time>2020-10-10T10:14:09.000Z</time>
      </trkpt>
      <trkpt lat="43.61152" lon="3.85948">
        <ele>52.501966614173</ele>
        <time>2020-10-10T10:14:10.000Z</time>
      </trkpt>
      <trkpt lat="43.61154" lon="3.85961">
        <ele>51.923778861789</ele>
        <time>2020-10-10T10:14:11.000Z</time>
      </trkpt>
      <trkpt lat="43.61156" lon="3.85973">
        <ele>51.415648780488</ele>
        <time>2020-10-10T10:14:12.000Z</time>
      </trkpt>
      <trkpt lat="43.61158" lon="3.85986">
        <ele>50.907518699187</ele>
        <time>2020-10-10T10:14:13.000Z</time>
      </trkpt>
      <trkpt lat="43.61159" lon="3.85998">
        <ele>50.399388617886</ele>
        <time>2020-10-10T10:14:14.000Z</time>
      </trkpt>
      <trkpt lat="43.61161" lon="3.86011">
        <ele>49.891258536585</ele>
        <time>2020-10-10T10:14:15.000Z</time>
      </trkpt>
      <trkpt lat="43.61162" lon="3.86023">
        <ele>49.383128455285</ele>
        <time>2020-10-10T10:14:16.000Z</time>
      </trkpt>
      <trkpt lat="43.61163" lon="3.86036">
        <ele>48.874998373984</ele>
        <time>2020-10-10T10:14:17.000Z</time>
      </trkpt>
      <trkpt lat="43.61165" lon="3.86048">
        <ele>48.366868292683</ele>
        <time>2020-10-10T10:14:18.000Z</time>
      </trkpt>
      <trkpt lat="43.61166" lon="3.86061">
        <ele>47.858738211382</ele>
        <time>2020-10-10T10:14:19.000Z</time>
      </trkpt>
      <trkpt lat="43.61168" lon="3.86073">
        <ele>47.350608130081</ele>
        <time>2020-10-10T10:14:20.000Z</time>
      </trkpt>
      <trkpt lat="43.61169" lon="3.86084">
        <ele>47.03100032</ele>
        <time>2020-10-10T10:14:21.000Z</time>
      </trkpt>
      <trkpt lat="43.61169" lon="3.86093">
        <ele>47.13100032</ele>
        <time>2020-10-10T10:14:22.000Z</time>
      </trkpt>
      <trkpt lat="43.61167" lon="3.86102">
        <ele>47.23100032</ele>
        <time>2020-10-10T10:14:23.000Z</time>
      </trkpt>
      <trkpt lat="43.61163" lon="3.86108">
        <ele>47.33100032</ele>
        <time>2020-10-10T10:14:24.000Z</time>
      </trkpt>
      <trkpt lat="43.61158" lon="3.86114">
        <ele>47.43100032</ele>
        <time>2020-10-10T10:14:25.000Z</time>
      </trkpt>
      <trkpt lat="43.61155" lon="3.8612">
        <ele>47.53100032</ele>
        <time>2020-10-10T10:14:26.000Z</time>
      </trkpt>
      <trkpt lat="43.61153" lon="3.86127">
        <ele>47.63100032</ele>
        <time>2020-10-10T10:14:27.000Z</time>
      </trkpt>
      <trkpt lat="43.61154" lon="3.86134">
        <ele>47.73100032</ele>
        <time>2020-10-10T10:14:28.000Z</time>
      </trkpt>
      <trkpt lat="43.61154" lon="3.86142">
        <ele>47.83100032</ele>
        <time>2020-10-10T10:14:29.000Z</time>
      </trkpt>
      <trkpt lat="43.61156" lon="3.86149">
        <ele>47.93100032</ele>
        <time>2020-10-10T10:14:30.000Z</time>
      </trkpt>
      <trkpt lat="43.61158" lon="3.86157">
        <ele>47.96899968</ele>
        <time>2020-10-10T10:14:31.000Z</time>
      </trkpt>
      <trkpt lat="43.6116" lon="3.86163">
        <ele>47.86899968</ele>
        <time>2020-10-10T10:14:32.000Z</time>
      </trkpt>
      <trkpt lat="43.61162" lon="3.8617">
        <ele>47.76899968</ele>
        <time>2020-10-10T10:14:33.000Z</time>
      </trkpt>
      <trkpt lat="43.61163" lon="3.86176">
        <ele>47.66899968</ele>
        <time>2020-10-10T10:14:34.000Z</time>
      </trkpt>
      <trkpt lat="43.61165" lon="3.86181">
        <ele>47.56899968</ele>
        <time>2020-10-10T10:14:35.000Z</time>
      </trkpt>
      <trkpt lat="43.61166" lon="3.86185">
        <ele>47.46899968</ele>
        <time>2020-10-10T10:14:36.000Z</time>
      </trkpt>
      <trkpt lat="43.61167" lon="3.8619">
        <ele>47.36899968</ele>
        <time>2020-10-10T10:14:37.000Z</time>
      </trkpt>
      <trkpt lat="43.61169" lon="3.86194">
        <ele>47.26899968</ele>
        <time>2020-10-10T10:14:38.000Z</time>
      </trkpt>
      <trkpt lat="43.61171" lon="3.86199">
        <ele>47.16899968</ele>
        <time>2020-10-10T10:14:39.000Z</time>
      </trkpt>
      <trkpt lat="43.61172" lon="3.86203">
        <ele>47.06899968</ele>
        <time>2020-10-10T10:14:40.000Z</time>
      </trkpt>
      <trkpt lat="43.61174" lon="3.86205">
        <ele>47.029779338532</ele>
        <time>2020-10-10T10:14:41.000Z</time>
      </trkpt>
      <trkpt lat="43.61175" lon="3.86208">
        <ele>47.125840729292</ele>
        <time>2020-10-10T10:14:42.000Z</time>
      </trkpt>
      <trkpt lat="43.61176" lon="3.86211">
        <ele>47.221902120052</ele>
        <time>2020-10-10T10:14:43.000Z</time>
      </trkpt>
      <trkpt lat="43.61176" lon="3.86214">
        <ele>47.317963510812</ele>
        <time>2020-10-10T10:14:44.000Z</time>
      </trkpt>
      <trkpt lat="43.61177" lon="3.86217">
        <ele>47.414024901572</ele>
        <time>2020-10-10T10:14:45.000Z</time>
      </trkpt>
      <trkpt lat="43.61177" lon="3.86221">
        <ele>47.510086292332</ele>
        <time>2020-10-10T10:14:46.000Z</time>
      </trkpt>
      <trkpt lat="43.61178" lon="3.86225">
        <ele>47.606147683091</ele>
        <time>2020-10-10T10:14:47.000Z</time>
      </trkpt>
      <trkpt lat="43.61178" lon="3.86228">
        <ele>47.702209073851</ele>
        <time>2020-10-10T10:14:48.000Z</time>
      </trkpt>
      <trkpt lat="43.61177" lon="3.86232">
        <ele>47.798270464611</ele>
        <time>2020-10-10T10:14:49.000Z</time>
      </trkpt>
      <trkpt lat="43.61177" lon="3.86235">
        <ele>47.894331855371</ele>
        <time>2020-10-10T10:14:50.000Z</time>
      </trkpt>
      <trkpt lat="43.61177" lon="3.86238">
        <ele>47.990393246131</ele>
        <time>2020-10-10T10:14:51.000Z</time>
      </trkpt>
      <trkpt lat="43.61176" lon="3.86242">
        <ele>48</ele>
        <time>2020-10-10T10:14:52.000Z</time>
      </trkpt>
      <trkpt lat="43.61176" lon="3.86245">
        <ele>48</ele>
        <time>2020-10-10T10:14:53.000Z</time>
      </trkpt>
      <trkpt lat="43.61176" lon="3.86248">
        <ele>48</ele>
        <time>2020-10-10T10:14:54.000Z</time>
      </trkpt>
      <trkpt lat="43.61175" lon="3.86252">
        <ele>48</ele>
        <time>2020-10-10T10:14:56.000Z</time>
      </trkpt>
      <trkpt lat="43.61175" lon="3.86254">
        <ele>48</ele>
        <time>2020-10-10T10:15:01.000Z</time>
      </trkpt>
      <trkpt lat="43.61175" lon="3.86254">
        <ele>48</ele>
        <time>2020-10-10T10:15:03.000Z</time>
      </trkpt>
      <trkpt lat="43.61174" lon="3.86264">
        <ele>47.992827540984</ele>
        <time>2020-10-10T10:15:10.000Z</time>
      </trkpt>
      <trkpt lat="43.61174" lon="3.86267">
        <ele>47.89036852459</ele>
        <time>2020-10-10T10:15:11.000Z</time>
      </trkpt>
      <trkpt lat="43.61173" lon="3.86271">
        <ele>47.787909508197</ele>
        <time>2020-10-10T10:15:12.000Z</time>
      </trkpt>
      <trkpt lat="43.61172" lon="3.86275">
        <ele>47.685450491803</ele>
        <time>2020-10-10T10:15:13.000Z</time>
      </trkpt>
      <trkpt lat="43.61172" lon="3.86279">
        <ele>47.58299147541</ele>
        <time>2020-10-10T10:15:14.000Z</time>
      </trkpt>
      <trkpt lat="43.61171" lon="3.86284">
        <ele>47.480532459016</ele>
        <time>2020-10-10T10:15:15.000Z</time>
      </trkpt>
      <trkpt lat="43.6117" lon="3.86289">
        <ele>47.378073442623</ele>
        <time>2020-10-10T10:15:16.000Z</time>
      </trkpt>
      <trkpt lat="43.61169" lon="3.86294">
        <ele>47.27561442623</ele>
        <time>2020-10-10T10:15:17.000Z</time>
      </trkpt>
      <trkpt lat="43.61169" lon="3.863">
        <ele>47.173155409836</ele>
        <time>2020-10-10T10:15:18.000Z</time>
      </trkpt>
      <trkpt lat="43.61168" lon="3.86305">
        <ele>47.070696393443</ele>
        <time>2020-10-10T10:15:19.000Z</time>
      </trkpt>
      <trkpt lat="43.61167" lon="3.86311">
        <ele>47</ele>
        <time>2020-10-10T10:15:20.000Z</time>
      </trkpt>
      <trkpt lat="43.61166" lon="3.86317">
        <ele>47</ele>
        <time>2020-10-10T10:15:21.000Z</time>
      </trkpt>
      <trkpt lat="43.61166" lon="3.86323">
        <ele>47</ele>
        <time>2020-10-10T10:15:22.000Z</time>
      </trkpt>
      <trkpt lat="43.61166" lon="3.86329">
        <ele>47</ele>
        <time>2020-10-10T10:15:23.000Z</time>
      </trkpt>
      <trkpt lat="43.61166" lon="3.86335">
        <ele>47</ele>
        <time>2020-10-10T10:15:24.000Z</time>
      </trkpt>
      <trkpt lat="43.61165" lon="3.86341">
        <ele>47</ele>
        <time>2020-10-10T10:15:25.000Z</time>
      </trkpt>
      <trkpt lat="43.61164" lon="3.86347">
        <ele>47</ele>
        <time>2020-10-10T10:15:26.000Z</time>
      </trkpt>
      <trkpt lat="43.61164" lon="3.86352">
        <ele>47</ele>
        <time>2020-10-10T10:15:27.000Z</time>
      </trkpt>
      <trkpt lat="43.61163" lon="3.86358">
        <ele>47</ele>
        <time>2020-10-10T10:15:28.000Z</time>
      </trkpt>
      <trkpt lat="43.61163" lon="3.86365">
        <ele>47</ele>
        <time>2020-10-10T10:15:29.000Z</time>
      </trkpt>
      <trkpt lat="43.61163" lon="3.86371">
        <ele>47.003086748971</ele>
        <time>2020-10-10T10:15:30.000Z</time>
      </trkpt>
      <trkpt lat="43.61162" lon="3.86377">
        <ele>47.105967407407</ele>
        <time>2020-10-10T10:15:31.000Z</time>
      </trkpt>
      <trkpt lat="43.61162" lon="3.86383">
        <ele>47.208848065844</ele>
        <time>2020-10-10T10:15:32.000Z</time>
      </trkpt>
      <trkpt lat="43.61161" lon="3.86389">
        <ele>47.31172872428</ele>
        <time>2020-10-10T10:15:33.000Z</time>
      </trkpt>
      <trkpt lat="43.61161" lon="3.86396">
        <ele>47.414609382716</ele>
        <time>2020-10-10T10:15:34.000Z</time>
      </trkpt>
      <trkpt lat="43.6116" lon="3.86402">
        <ele>47.517490041152</ele>
        <time>2020-10-10T10:15:35.000Z</time>
      </trkpt>
      <trkpt lat="43.6116" lon="3.86408">
        <ele>47.620370699588</ele>
        <time>2020-10-10T10:15:36.000Z</time>
      </trkpt>
      <trkpt lat="43.6116" lon="3.86414">
        <ele>47.723251358025</ele>
        <time>2020-10-10T10:15:37.000Z</time>
      </trkpt>
      <trkpt lat="43.6116" lon="3.8642">
        <ele>47.826132016461</ele>
        <time>2020-10-10T10:15:38.000Z</time>
      </trkpt>
      <trkpt lat="43.6116" lon="3.86425">
        <ele>47.929012674897</ele>
        <time>2020-10-10T10:15:39.000Z</time>
      </trkpt>
      <trkpt lat="43.6116" lon="3.86428">
        <ele>47.94032664013</ele>
        <time>2020-10-10T10:15:40.000Z</time>
      </trkpt>
      <trkpt lat="43.6116" lon="3.8643">
        <ele>47.55534119566</ele>
        <time>2020-10-10T10:15:42.000Z</time>
      </trkpt>
      <trkpt lat="43.61159" lon="3.86435">
        <ele>46.977863028955</ele>
        <time>2020-10-10T10:15:45.000Z</time>
      </trkpt>
      <trkpt lat="43.61159" lon="3.86438">
        <ele>46.785370306719</ele>
        <time>2020-10-10T10:15:46.000Z</time>
      </trkpt>
      <trkpt lat="43.61158" lon="3.86442">
        <ele>46.592877584484</ele>
        <time>2020-10-10T10:15:47.000Z</time>
      </trkpt>
      <trkpt lat="43.61158" lon="3.86446">
        <ele>46.400384862249</ele>
        <time>2020-10-10T10:15:48.000Z</time>
      </trkpt>
      <trkpt lat="43.61158" lon="3.8645">
        <ele>46.207892140014</ele>
        <time>2020-10-10T10:15:49.000Z</time>
      </trkpt>
      <trkpt lat="43.61157" lon="3.86455">
        <ele>46.015399417779</ele>
        <time>2020-10-10T10:15:50.000Z</time>
      </trkpt>
      <trkpt lat="43.61157" lon="3.86459">
        <ele>46</ele>
        <time>2020-10-10T10:15:51.000Z</time>
      </trkpt>
      <trkpt lat="43.61156" lon="3.86464">
        <ele>46</ele>
        <time>2020-10-10T10:15:52.000Z</time>
      </trkpt>
      <trkpt lat="43.61156" lon="3.8647">
        <ele>46</ele>
        <time>2020-10-10T10:15:53.000Z</time>
      </trkpt>
      <trkpt lat="43.61155" lon="3.86475">
        <ele>46</ele>
        <time>2020-10-10T10:15:54.000Z</time>
      </trkpt>
      <trkpt lat="43.61154" lon="3.8648">
        <ele>46</ele>
        <time>2020-10-10T10:15:55.000Z</time>
      </trkpt>
      <trkpt lat="43.61154" lon="3.86486">
        <ele>46</ele>
        <time>2020-10-10T10:15:56.000Z</time>
      </trkpt>
      <trkpt lat="43.61154" lon="3.86491">
        <ele>46</ele>
        <time>2020-10-10T10:15:57.000Z</time>
      </trkpt>
      <trkpt lat="43.61154" lon="3.86497">
        <ele>46</ele>
        <time>2020-10-10T10:15:58.000Z</time>
      </trkpt>
      <trkpt lat="43.61154" lon="3.86502">
        <ele>46</ele>
        <time>2020-10-10T10:15:59.000Z</time>
      </trkpt>
      <trkpt lat="43.61153" lon="3.86508">
        <ele>45.96899968</ele>
        <time>2020-10-10T10:16:00.000Z</time>
      </trkpt>
      <trkpt lat="43.61152" lon="3.86513">
        <ele>45.86899968</ele>
        <time>2020-10-10T10:16:01.000Z</time>
      </trkpt>
      <trkpt lat="43.61151" lon="3.86518">
        <ele>45.76899968</ele>
        <time>2020-10-10T10:16:02.000Z</time>
      </trkpt>
      <trkpt lat="43.61151" lon="3.86523">
        <ele>45.66899968</ele>
        <time>2020-10-10T10:16:03.000Z</time>
      </trkpt>
      <trkpt lat="43.61151" lon="3.86529">
        <ele>45.56899968</ele>
        <time>2020-10-10T10:16:04.000Z</time>
      </trkpt>
      <trkpt lat="43.61152" lon="3.86534">
        <ele>45.46899968</ele>
        <time>2020-10-10T10:16:05.000Z</time>
      </trkpt>
      <trkpt lat="43.61152" lon="3.8654">
        <ele>45.36899968</ele>
        <time>2020-10-10T10:16:06.000Z</time>
      </trkpt>
      <trkpt lat="43.61152" lon="3.86546">
        <ele>45.26899968</ele>
        <time>2020-10-10T10:16:07.000Z</time>
      </trkpt>
      <trkpt lat="43.61152" lon="3.86551">
        <ele>45.16899968</ele>
        <time>2020-10-10T10:16:08.000Z</time>
      </trkpt>
      <trkpt lat="43.61152" lon="3.86557">
        <ele>45.06899968</ele>
        <time>2020-10-10T10:16:09.000Z</time>
      </trkpt>
      <trkpt lat="43.61152" lon="3.86563">
        <ele>45</ele>
        <time>2020-10-10T10:16:10.000Z</time>
      </trkpt>
      <trkpt lat="43.61152" lon="3.86567">
        <ele>45</ele>
        <time>2020-10-10T10:16:11.000Z</time>
      </trkpt>
      <trkpt lat="43.61151" lon="3.86572">
        <ele>45</ele>
        <time>2020-10-10T10:16:12.000Z</time>
      </trkpt>
      <trkpt lat="43.6115" lon="3.86576">
        <ele>45</ele>
        <time>2020-10-10T10:16:13.000Z</time>
      </trkpt>
      <trkpt lat="43.61148" lon="3.8658">
        <ele>45</ele>
        <time>2020-10-10T10:16:14.000Z</time>
      </trkpt>
      <trkpt lat="43.61145" lon="3.86581">
        <ele>45</ele>
        <time>2020-10-10T10:16:15.000Z</time>
      </trkpt>
      <trkpt lat="43.61145" lon="3.86585">
        <ele>45</ele>
        <time>2020-10-10T10:16:16.000Z</time>
      </trkpt>
      <trkpt lat="43.61145" lon="3.8659">
        <ele>45</ele>
        <time>2020-10-10T10:16:17.000Z</time>
      </trkpt>
      <trkpt lat="43.61145" lon="3.86594">
        <ele>45</ele>
        <time>2020-10-10T10:16:18.000Z</time>
      </trkpt>
      <trkpt lat="43.61145" lon="3.866">
        <ele>45</ele>
        <time>2020-10-10T10:16:19.000Z</time>
      </trkpt>
      <trkpt lat="43.61146" lon="3.86605">
        <ele>45.030097379357</ele>
        <time>2020-10-10T10:16:20.000Z</time>
      </trkpt>
      <trkpt lat="43.61146" lon="3.8661">
        <ele>45.127184697672</ele>
        <time>2020-10-10T10:16:21.000Z</time>
      </trkpt>
      <trkpt lat="43.61146" lon="3.86615">
        <ele>45.224272015986</ele>
        <time>2020-10-10T10:16:22.000Z</time>
      </trkpt>
      <trkpt lat="43.61146" lon="3.8662">
        <ele>45.321359334301</ele>
        <time>2020-10-10T10:16:23.000Z</time>
      </trkpt>
      <trkpt lat="43.61146" lon="3.86624">
        <ele>45.418446652616</ele>
        <time>2020-10-10T10:16:24.000Z</time>
      </trkpt>
      <trkpt lat="43.61145" lon="3.86627">
        <ele>45.51553397093</ele>
        <time>2020-10-10T10:16:25.000Z</time>
      </trkpt>
      <trkpt lat="43.61146" lon="3.86629">
        <ele>45.70970860756</ele>
        <time>2020-10-10T10:16:27.000Z</time>
      </trkpt>
      <trkpt lat="43.61147" lon="3.86628">
        <ele>45.903883244189</ele>
        <time>2020-10-10T10:16:29.000Z</time>
      </trkpt>
      <trkpt lat="43.61147" lon="3.86633">
        <ele>45.69001032174</ele>
        <time>2020-10-10T10:16:33.000Z</time>
      </trkpt>
      <trkpt lat="43.61146" lon="3.86637">
        <ele>45.58702360818</ele>
        <time>2020-10-10T10:16:34.000Z</time>
      </trkpt>
      <trkpt lat="43.61145" lon="3.86641">
        <ele>45.484036894619</ele>
        <time>2020-10-10T10:16:35.000Z</time>
      </trkpt>
      <trkpt lat="43.61145" lon="3.86646">
        <ele>45.381050181059</ele>
        <time>2020-10-10T10:16:36.000Z</time>
      </trkpt>
      <trkpt lat="43.61144" lon="3.86651">
        <ele>45.278063467498</ele>
        <time>2020-10-10T10:16:37.000Z</time>
      </trkpt>
      <trkpt lat="43.61144" lon="3.86655">
        <ele>45.175076753938</ele>
        <time>2020-10-10T10:16:38.000Z</time>
      </trkpt>
      <trkpt lat="43.61143" lon="3.86658">
        <ele>45.072090040377</ele>
        <time>2020-10-10T10:16:39.000Z</time>
      </trkpt>
      <trkpt lat="43.61143" lon="3.86662">
        <ele>44.969969338949</ele>
        <time>2020-10-10T10:16:40.000Z</time>
      </trkpt>
      <trkpt lat="43.61144" lon="3.86665">
        <ele>44.869869270913</ele>
        <time>2020-10-10T10:16:41.000Z</time>
      </trkpt>
      <trkpt lat="43.61146" lon="3.86667">
        <ele>44.769769202877</ele>
        <time>2020-10-10T10:16:42.000Z</time>
      </trkpt>
      <trkpt lat="43.61149" lon="3.86669">
        <ele>44.669669134841</ele>
        <time>2020-10-10T10:16:43.000Z</time>
      </trkpt>
      <trkpt lat="43.61152" lon="3.8667">
        <ele>44.569569066805</ele>
        <time>2020-10-10T10:16:44.000Z</time>
      </trkpt>
      <trkpt lat="43.61156" lon="3.86671">
        <ele>44.469468998769</ele>
        <time>2020-10-10T10:16:45.000Z</time>
      </trkpt>
      <trkpt lat="43.61159" lon="3.86673">
        <ele>44.369368930733</ele>
        <time>2020-10-10T10:16:46.000Z</time>
      </trkpt>
      <trkpt lat="43.61163" lon="3.86674">
        <ele>44.269268862697</ele>
        <time>2020-10-10T10:16:47.000Z</time>
      </trkpt>
      <trkpt lat="43.61167" lon="3.86673">
        <ele>44.169168794661</ele>
        <time>2020-10-10T10:16:48.000Z</time>
      </trkpt>
      <trkpt lat="43.6117" lon="3.86673">
        <ele>44.069068726625</ele>
        <time>2020-10-10T10:16:49.000Z</time>
      </trkpt>
      <trkpt lat="43.61173" lon="3.86674">
        <ele>43.969306633311</ele>
        <time>2020-10-10T10:16:50.000Z</time>
      </trkpt>
      <trkpt lat="43.61175" lon="3.86674">
        <ele>43.87029679506</ele>
        <time>2020-10-10T10:16:51.000Z</time>
      </trkpt>
      <trkpt lat="43.61178" lon="3.86673">
        <ele>43.771286956808</ele>
        <time>2020-10-10T10:16:52.000Z</time>
      </trkpt>
      <trkpt lat="43.61182" lon="3.86673">
        <ele>43.672277118557</ele>
        <time>2020-10-10T10:16:53.000Z</time>
      </trkpt>
      <trkpt lat="43.61186" lon="3.86673">
        <ele>43.573267280306</ele>
        <time>2020-10-10T10:16:54.000Z</time>
      </trkpt>
      <trkpt lat="43.6119" lon="3.86673">
        <ele>43.474257442055</ele>
        <time>2020-10-10T10:16:55.000Z</time>
      </trkpt>
      <trkpt lat="43.61194" lon="3.86675">
        <ele>43.375247603804</ele>
        <time>2020-10-10T10:16:56.000Z</time>
      </trkpt>
      <trkpt lat="43.61197" lon="3.86678">
        <ele>43.276237765552</ele>
        <time>2020-10-10T10:16:57.000Z</time>
      </trkpt>
      <trkpt lat="43.61201" lon="3.86681">
        <ele>43.177227927301</ele>
        <time>2020-10-10T10:16:58.000Z</time>
      </trkpt>
      <trkpt lat="43.61204" lon="3.86683">
        <ele>43.07821808905</ele>
        <time>2020-10-10T10:16:59.000Z</time>
      </trkpt>
      <trkpt lat="43.61206" lon="3.86687">
        <ele>43</ele>
        <time>2020-10-10T10:17:00.000Z</time>
      </trkpt>
      <trkpt lat="43.61206" lon="3.86692">
        <ele>43</ele>
        <time>2020-10-10T10:17:01.000Z</time>
      </trkpt>
      <trkpt lat="43.61206" lon="3.86697">
        <ele>43</ele>
        <time>2020-10-10T10:17:02.000Z</time>
      </trkpt>
      <trkpt lat="43.61206" lon="3.86702">
        <ele>43</ele>
        <time>2020-10-10T10:17:03.000Z</time>
      </trkpt>
      <trkpt lat="43.61205" lon="3.86707">
        <ele>43</ele>
        <time>2020-10-10T10:17:04.000Z</time>
      </trkpt>
      <trkpt lat="43.61205" lon="3.86713">
        <ele>43</ele>
        <time>2020-10-10T10:17:05.000Z</time>
      </trkpt>
      <trkpt lat="43.61205" lon="3.86718">
        <ele>43</ele>
        <time>2020-10-10T10:17:06.000Z</time>
      </trkpt>
      <trkpt lat="43.61205" lon="3.86724">
        <ele>43</ele>
        <time>2020-10-10T10:17:07.000Z</time>
      </trkpt>
      <trkpt lat="43.61205" lon="3.8673">
        <ele>43</ele>
        <time>2020-10-10T10:17:08.000Z</time>
      </trkpt>
      <trkpt lat="43.61205" lon="3.86735">
        <ele>43</ele>
        <time>2020-10-10T10:17:09.000Z</time>
      </trkpt>
      <trkpt lat="43.61205" lon="3.8674">
        <ele>43</ele>
        <time>2020-10-10T10:17:10.000Z</time>
      </trkpt>
      <trkpt lat="43.61205" lon="3.86745">
        <ele>43</ele>
        <time>2020-10-10T10:17:11.000Z</time>
      </trkpt>
      <trkpt lat="43.61205" lon="3.8675">
        <ele>43</ele>
        <time>2020-10-10T10:17:12.000Z</time>
      </trkpt>
      <trkpt lat="43.61205" lon="3.86756">
        <ele>43</ele>
        <time>2020-10-10T10:17:13.000Z</time>
      </trkpt>
      <trkpt lat="43.61205" lon="3.86761">
        <ele>43</ele>
        <time>2020-10-10T10:17:14.000Z</time>
      </trkpt>
      <trkpt lat="43.61205" lon="3.86766">
        <ele>43</ele>
        <time>2020-10-10T10:17:15.000Z</time>
      </trkpt>
      <trkpt lat="43.61205" lon="3.86771">
        <ele>43</ele>
        <time>2020-10-10T10:17:16.000Z</time>
      </trkpt>
      <trkpt lat="43.61206" lon="3.86776">
        <ele>43</ele>
        <time>2020-10-10T10:17:17.000Z</time>
      </trkpt>
      <trkpt lat="43.61206" lon="3.86781">
        <ele>43</ele>
        <time>2020-10-10T10:17:18.000Z</time>
      </trkpt>
      <trkpt lat="43.61207" lon="3.86786">
        <ele>43</ele>
        <time>2020-10-10T10:17:19.000Z</time>
      </trkpt>
      <trkpt lat="43.61208" lon="3.86792">
        <ele>43.03100032</ele>
        <time>2020-10-10T10:17:20.000Z</time>
      </trkpt>
      <trkpt lat="43.61209" lon="3.86797">
        <ele>43.13100032</ele>
        <time>2020-10-10T10:17:21.000Z</time>
      </trkpt>
      <trkpt lat="43.6121" lon="3.86802">
        <ele>43.23100032</ele>
        <time>2020-10-10T10:17:22.000Z</time>
      </trkpt>
      <trkpt lat="43.61212" lon="3.86807">
        <ele>43.33100032</ele>
        <time>2020-10-10T10:17:23.000Z</time>
      </trkpt>
      <trkpt lat="43.61213" lon="3.86811">
        <ele>43.43100032</ele>
        <time>2020-10-10T10:17:24.000Z</time>
      </trkpt>
      <trkpt lat="43.61215" lon="3.86816">
        <ele>43.53100032</ele>
        <time>2020-10-10T10:17:25.000Z</time>
      </trkpt>
      <trkpt lat="43.61217" lon="3.86821">
        <ele>43.63100032</ele>
        <time>2020-10-10T10:17:26.000Z</time>
      </trkpt>
      <trkpt lat="43.61218" lon="3.86826">
        <ele>43.73100032</ele>
        <time>2020-10-10T10:17:27.000Z</time>
      </trkpt>
      <trkpt lat="43.61219" lon="3.86831">
        <ele>43.83100032</ele>
        <time>2020-10-10T10:17:28.000Z</time>
      </trkpt>
      <trkpt lat="43.61219" lon="3.86836">
        <ele>43.93100032</ele>
        <time>2020-10-10T10:17:29.000Z</time>
      </trkpt>
      <trkpt lat="43.61219" lon="3.86841">
        <ele>44.03100032</ele>
        <time>2020-10-10T10:17:30.000Z</time>
      </trkpt>
      <trkpt lat="43.61219" lon="3.86846">
        <ele>44.13100032</ele>
        <time>2020-10-10T10:17:31.000Z</time>
      </trkpt>
      <trkpt lat="43.61219" lon="3.86851">
        <ele>44.23100032</ele>
        <time>2020-10-10T10:17:32.000Z</time>
      </trkpt>
      <trkpt lat="43.61218" lon="3.86856">
        <ele>44.33100032</ele>
        <time>2020-10-10T10:17:33.000Z</time>
      </trkpt>
      <trkpt lat="43.61218" lon="3.8686">
        <ele>44.43100032</ele>
        <time>2020-10-10T10:17:34.000Z</time>
      </trkpt>
      <trkpt lat="43.61218" lon="3.86864">
        <ele>44.53100032</ele>
        <time>2020-10-10T10:17:35.000Z</time>
      </trkpt>
      <trkpt lat="43.61218" lon="3.86867">
        <ele>44.63100032</ele>
        <time>2020-10-10T10:17:36.000Z</time>
      </trkpt>
      <trkpt lat="43.61219" lon="3.8687">
        <ele>44.73100032</ele>
        <time>2020-10-10T10:17:37.000Z</time>
      </trkpt>
      <trkpt lat="43.61219" lon="3.86873">
        <ele>44.83100032</ele>
        <time>2020-10-10T10:17:38.000Z</time>
      </trkpt>
      <trkpt lat="43.61219" lon="3.86876">
        <ele>44.93100032</ele>
        <time>2020-10-10T10:17:39.000Z</time>
      </trkpt>
      <trkpt lat="43.61219" lon="3.86879">
        <ele>45.06200064</ele>
        <time>2020-10-10T10:17:40.000Z</time>
      </trkpt>
      <trkpt lat="43.61219" lon="3.86883">
        <ele>45.26200064</ele>
        <time>2020-10-10T10:17:41.000Z</time>
      </trkpt>
      <trkpt lat="43.6122" lon="3.86887">
        <ele>45.46200064</ele>
        <time>2020-10-10T10:17:42.000Z</time>
      </trkpt>
      <trkpt lat="43.6122" lon="3.86891">
        <ele>45.66200064</ele>
        <time>2020-10-10T10:17:43.000Z</time>
      </trkpt>
      <trkpt lat="43.61219" lon="3.86897">
        <ele>45.86200064</ele>
        <time>2020-10-10T10:17:44.000Z</time>
      </trkpt>
      <trkpt lat="43.61219" lon="3.86902">
        <ele>46.06200064</ele>
        <time>2020-10-10T10:17:45.000Z</time>
      </trkpt>
      <trkpt lat="43.61218" lon="3.86907">
        <ele>46.26200064</ele>
        <time>2020-10-10T10:17:46.000Z</time>
      </trkpt>
      <trkpt lat="43.61217" lon="3.86913">
        <ele>46.46200064</ele>
        <time>2020-10-10T10:17:47.000Z</time>
      </trkpt>
      <trkpt lat="43.61217" lon="3.86918">
        <ele>46.66200064</ele>
        <time>2020-10-10T10:17:48.000Z</time>
      </trkpt>
      <trkpt lat="43.61216" lon="3.86924">
        <ele>46.86200064</ele>
        <time>2020-10-10T10:17:49.000Z</time>
      </trkpt>
      <trkpt lat="43.61216" lon="3.8693">
        <ele>47</ele>
        <time>2020-10-10T10:17:50.000Z</time>
      </trkpt>
      <trkpt lat="43.61215" lon="3.86936">
        <ele>47</ele>
        <time>2020-10-10T10:17:51.000Z</time>
      </trkpt>
      <trkpt lat="43.61215" lon="3.86943">
        <ele>47</ele>
        <time>2020-10-10T10:17:52.000Z</time>
      </trkpt>
      <trkpt lat="43.61215" lon="3.86949">
        <ele>47</ele>
        <time>2020-10-10T10:17:53.000Z</time>
      </trkpt>
      <trkpt lat="43.61215" lon="3.86955">
        <ele>47</ele>
        <time>2020-10-10T10:17:54.000Z</time>
      </trkpt>
      <trkpt lat="43.61214" lon="3.86962">
        <ele>47</ele>
        <time>2020-10-10T10:17:55.000Z</time>
      </trkpt>
      <trkpt lat="43.61214" lon="3.86969">
        <ele>47</ele>
        <time>2020-10-10T10:17:56.000Z</time>
      </trkpt>
      <trkpt lat="43.61213" lon="3.86975">
        <ele>47</ele>
        <time>2020-10-10T10:17:57.000Z</time>
      </trkpt>
      <trkpt lat="43.61213" lon="3.86982">
        <ele>47</ele>
        <time>2020-10-10T10:17:58.000Z</time>
      </trkpt>
      <trkpt lat="43.61212" lon="3.86988">
        <ele>47</ele>
        <time>2020-10-10T10:17:59.000Z</time>
      </trkpt>
      <trkpt lat="43.61212" lon="3.86994">
        <ele>47.001030598618</ele>
        <time>2020-10-10T10:18:00.000Z</time>
      </trkpt>
      <trkpt lat="43.61211" lon="3.87001">
        <ele>47.104123450143</ele>
        <time>2020-10-10T10:18:01.000Z</time>
      </trkpt>
      <trkpt lat="43.61211" lon="3.87007">
        <ele>47.207216301669</ele>
        <time>2020-10-10T10:18:02.000Z</time>
      </trkpt>
      <trkpt lat="43.6121" lon="3.87012">
        <ele>47.310309153194</ele>
        <time>2020-10-10T10:18:03.000Z</time>
      </trkpt>
      <trkpt lat="43.6121" lon="3.87018">
        <ele>47.413402004719</ele>
        <time>2020-10-10T10:18:04.000Z</time>
      </trkpt>
      <trkpt lat="43.6121" lon="3.87023">
        <ele>47.516494856244</ele>
        <time>2020-10-10T10:18:05.000Z</time>
      </trkpt>
      <trkpt lat="43.6121" lon="3.87026">
        <ele>47.619587707769</ele>
        <time>2020-10-10T10:18:06.000Z</time>
      </trkpt>
      <trkpt lat="43.61209" lon="3.8703">
        <ele>47.722680559294</ele>
        <time>2020-10-10T10:18:07.000Z</time>
      </trkpt>
      <trkpt lat="43.61209" lon="3.87035">
        <ele>47.82577341082</ele>
        <time>2020-10-10T10:18:08.000Z</time>
      </trkpt>
      <trkpt lat="43.61208" lon="3.87041">
        <ele>47.928866262345</ele>
        <time>2020-10-10T10:18:09.000Z</time>
      </trkpt>
      <trkpt lat="43.61208" lon="3.87047">
        <ele>48.030097379357</ele>
        <time>2020-10-10T10:18:10.000Z</time>
      </trkpt>
      <trkpt lat="43.61207" lon="3.87053">
        <ele>48.127184697672</ele>
        <time>2020-10-10T10:18:11.000Z</time>
      </trkpt>
      <trkpt lat="43.61207" lon="3.8706">
        <ele>48.224272015986</ele>
        <time>2020-10-10T10:18:12.000Z</time>
      </trkpt>
      <trkpt lat="43.61207" lon="3.87066">
        <ele>48.321359334301</ele>
        <time>2020-10-10T10:18:13.000Z</time>
      </trkpt>
      <trkpt lat="43.61206" lon="3.87073">
        <ele>48.418446652616</ele>
        <time>2020-10-10T10:18:14.000Z</time>
      </trkpt>
      <trkpt lat="43.61206" lon="3.8708">
        <ele>48.51553397093</ele>
        <time>2020-10-10T10:18:15.000Z</time>
      </trkpt>
      <trkpt lat="43.61205" lon="3.87087">
        <ele>48.612621289245</ele>
        <time>2020-10-10T10:18:16.000Z</time>
      </trkpt>
      <trkpt lat="43.61205" lon="3.87094">
        <ele>48.70970860756</ele>
        <time>2020-10-10T10:18:17.000Z</time>
      </trkpt>
      <trkpt lat="43.61204" lon="3.87101">
        <ele>48.806795925874</ele>
        <time>2020-10-10T10:18:18.000Z</time>
      </trkpt>
      <trkpt lat="43.61203" lon="3.87107">
        <ele>48.903883244189</ele>
        <time>2020-10-10T10:18:19.000Z</time>
      </trkpt>
      <trkpt lat="43.61202" lon="3.87114">
        <ele>49.001030598618</ele>
        <time>2020-10-10T10:18:20.000Z</time>
      </trkpt>
      <trkpt lat="43.61201" lon="3.8712">
        <ele>49.104123450143</ele>
        <time>2020-10-10T10:18:21.000Z</time>
      </trkpt>
      <trkpt lat="43.61201" lon="3.87126">
        <ele>49.207216301669</ele>
        <time>2020-10-10T10:18:22.000Z</time>
      </trkpt>
      <trkpt lat="43.612" lon="3.87132">
        <ele>49.310309153194</ele>
        <time>2020-10-10T10:18:23.000Z</time>
      </trkpt>
      <trkpt lat="43.612" lon="3.87138">
        <ele>49.413402004719</ele>
        <time>2020-10-10T10:18:24.000Z</time>
      </trkpt>
      <trkpt lat="43.612" lon="3.87144">
        <ele>49.516494856244</ele>
        <time>2020-10-10T10:18:25.000Z</time>
      </trkpt>
      <trkpt lat="43.612" lon="3.87151">
        <ele>49.619587707769</ele>
        <time>2020-10-10T10:18:26.000Z</time>
      </trkpt>
      <trkpt lat="43.612" lon="3.87158">
        <ele>49.722680559294</ele>
        <time>2020-10-10T10:18:27.000Z</time>
      </trkpt>
      <trkpt lat="43.61199" lon="3.87165">
        <ele>49.82577341082</ele>
        <time>2020-10-10T10:18:28.000Z</time>
      </trkpt>
      <trkpt lat="43.61199" lon="3.87171">
        <ele>49.928866262345</ele>
        <time>2020-10-10T10:18:29.000Z</time>
      </trkpt>
      <trkpt lat="43.61199" lon="3.87178">
        <ele>50</ele>
        <time>2020-10-10T10:18:30.000Z</time>
      </trkpt>
      <trkpt lat="43.61199" lon="3.87185">
        <ele>50</ele>
        <time>2020-10-10T10:18:31.000Z</time>
      </trkpt>
      <trkpt lat="43.61197" lon="3.8719">
        <ele>50</ele>
        <time>2020-10-10T10:18:32.000Z</time>
      </trkpt>
      <trkpt lat="43.61195" lon="3.87194">
        <ele>50</ele>
        <time>2020-10-10T10:18:33.000Z</time>
      </trkpt>
      <trkpt lat="43.61191" lon="3.87196">
        <ele>50</ele>
        <time>2020-10-10T10:18:34.000Z</time>
      </trkpt>
      <trkpt lat="43.61189" lon="3.87198">
        <ele>50</ele>
        <time>2020-10-10T10:18:35.000Z</time>
      </trkpt>
      <trkpt lat="43.61186" lon="3.87198">
        <ele>50</ele>
        <time>2020-10-10T10:18:36.000Z</time>
      </trkpt>
      <trkpt lat="43.61183" lon="3.87198">
        <ele>50</ele>
        <time>2020-10-10T10:18:37.000Z</time>
      </trkpt>
      <trkpt lat="43.61179" lon="3.87199">
        <ele>50</ele>
        <time>2020-10-10T10:18:38.000Z</time>
      </trkpt>
      <trkpt lat="43.61176" lon="3.87199">
        <ele>50</ele>
        <time>2020-10-10T10:18:39.000Z</time>
      </trkpt>
      <trkpt lat="43.61173" lon="3.872">
        <ele>50.002025695993</ele>
        <time>2020-10-10T10:18:40.000Z</time>
      </trkpt>
      <trkpt lat="43.6117" lon="3.87201">
        <ele>50.204660138271</ele>
        <time>2020-10-10T10:18:41.000Z</time>
      </trkpt>
      <trkpt lat="43.61167" lon="3.87201">
        <ele>50.40729458055</ele>
        <time>2020-10-10T10:18:42.000Z</time>
      </trkpt>
      <trkpt lat="43.61163" lon="3.87202">
        <ele>50.609929022829</ele>
        <time>2020-10-10T10:18:43.000Z</time>
      </trkpt>
      <trkpt lat="43.6116" lon="3.87202">
        <ele>50.812563465107</ele>
        <time>2020-10-10T10:18:44.000Z</time>
      </trkpt>
      <trkpt lat="43.61157" lon="3.87202">
        <ele>51.015197907386</ele>
        <time>2020-10-10T10:18:45.000Z</time>
      </trkpt>
      <trkpt lat="43.61154" lon="3.87201">
        <ele>51.217832349665</ele>
        <time>2020-10-10T10:18:46.000Z</time>
      </trkpt>
      <trkpt lat="43.6115" lon="3.87201">
        <ele>51.420466791943</ele>
        <time>2020-10-10T10:18:47.000Z</time>
      </trkpt>
      <trkpt lat="43.61147" lon="3.87201">
        <ele>51.623101234222</ele>
        <time>2020-10-10T10:18:48.000Z</time>
      </trkpt>
      <trkpt lat="43.61144" lon="3.872">
        <ele>51.825735676501</ele>
        <time>2020-10-10T10:18:49.000Z</time>
      </trkpt>
      <trkpt lat="43.61141" lon="3.87199">
        <ele>52</ele>
        <time>2020-10-10T10:18:50.000Z</time>
      </trkpt>
      <trkpt lat="43.61138" lon="3.87198">
        <ele>52</ele>
        <time>2020-10-10T10:18:51.000Z</time>
      </trkpt>
      <trkpt lat="43.61135" lon="3.87197">
        <ele>52</ele>
        <time>2020-10-10T10:18:52.000Z</time>
      </trkpt>
      <trkpt lat="43.61132" lon="3.87195">
        <ele>52</ele>
        <time>2020-10-10T10:18:53.000Z</time>
      </trkpt>
      <trkpt lat="43.61129" lon="3.87195">
        <ele>52</ele>
        <time>2020-10-10T10:18:54.000Z</time>
      </trkpt>
      <trkpt lat="43.61127" lon="3.87194">
        <ele>52</ele>
        <time>2020-10-10T10:18:55.000Z</time>
      </trkpt>
      <trkpt lat="43.61125" lon="3.87194">
        <ele>52</ele>
        <time>2020-10-10T10:18:56.000Z</time>
      </trkpt>
      <trkpt lat="43.61123" lon="3.87195">
        <ele>52</ele>
        <time>2020-10-10T10:18:57.000Z</time>
      </trkpt>
      <trkpt lat="43.6112" lon="3.87197">
        <ele>52</ele>
        <time>2020-10-10T10:18:58.000Z</time>
      </trkpt>
      <trkpt lat="43.61118" lon="3.87199">
        <ele>52</ele>
        <time>2020-10-10T10:18:59.000Z</time>
      </trkpt>
      <trkpt lat="43.61116" lon="3.87203">
        <ele>52.020222453459</ele>
        <time>2020-10-10T10:19:00.000Z</time>
      </trkpt>
      <trkpt lat="43.61115" lon="3.87207">
        <ele>52.121334720755</ele>
        <time>2020-10-10T10:19:01.000Z</time>
      </trkpt>
      <trkpt lat="43.61114" lon="3.87212">
        <ele>52.222446988052</ele>
        <time>2020-10-10T10:19:02.000Z</time>
      </trkpt>
      <trkpt lat="43.61114" lon="3.87217">
        <ele>52.323559255348</ele>
        <time>2020-10-10T10:19:03.000Z</time>
      </trkpt>
      <trkpt lat="43.61113" lon="3.87223">
        <ele>52.424671522644</ele>
        <time>2020-10-10T10:19:04.000Z</time>
      </trkpt>
      <trkpt lat="43.61113" lon="3.87228">
        <ele>52.52578378994</ele>
        <time>2020-10-10T10:19:05.000Z</time>
      </trkpt>
      <trkpt lat="43.61113" lon="3.87234">
        <ele>52.626896057236</ele>
        <time>2020-10-10T10:19:06.000Z</time>
      </trkpt>
      <trkpt lat="43.61112" lon="3.8724">
        <ele>52.728008324533</ele>
        <time>2020-10-10T10:19:07.000Z</time>
      </trkpt>
      <trkpt lat="43.61112" lon="3.87246">
        <ele>52.829120591829</ele>
        <time>2020-10-10T10:19:08.000Z</time>
      </trkpt>
      <trkpt lat="43.61111" lon="3.87252">
        <ele>52.930232859125</ele>
        <time>2020-10-10T10:19:09.000Z</time>
      </trkpt>
      <trkpt lat="43.6111" lon="3.87259">
        <ele>53</ele>
        <time>2020-10-10T10:19:10.000Z</time>
      </trkpt>
      <trkpt lat="43.6111" lon="3.87265">
        <ele>53</ele>
        <time>2020-10-10T10:19:11.000Z</time>
      </trkpt>
      <trkpt lat="43.61109" lon="3.87272">
        <ele>53</ele>
        <time>2020-10-10T10:19:12.000Z</time>
      </trkpt>
      <trkpt lat="43.61109" lon="3.87278">
        <ele>53</ele>
        <time>2020-10-10T10:19:13.000Z</time>
      </trkpt>
      <trkpt lat="43.61108" lon="3.87285">
        <ele>53</ele>
        <time>2020-10-10T10:19:14.000Z</time>
      </trkpt>
      <trkpt lat="43.61108" lon="3.87292">
        <ele>53</ele>
        <time>2020-10-10T10:19:15.000Z</time>
      </trkpt>
      <trkpt lat="43.61107" lon="3.87299">
        <ele>53</ele>
        <time>2020-10-10T10:19:16.000Z</time>
      </trkpt>
      <trkpt lat="43.61106" lon="3.87307">
        <ele>53</ele>
        <time>2020-10-10T10:19:17.000Z</time>
      </trkpt>
      <trkpt lat="43.61106" lon="3.87314">
        <ele>53</ele>
        <time>2020-10-10T10:19:18.000Z</time>
      </trkpt>
      <trkpt lat="43.61106" lon="3.87322">
        <ele>53</ele>
        <time>2020-10-10T10:19:19.000Z</time>
      </trkpt>
      <trkpt lat="43.61105" lon="3.87329">
        <ele>53.06200064</ele>
        <time>2020-10-10T10:19:20.000Z</time>
      </trkpt>
      <trkpt lat="43.61104" lon="3.87337">
        <ele>53.26200064</ele>
        <time>2020-10-10T10:19:21.000Z</time>
      </trkpt>
      <trkpt lat="43.61104" lon="3.87345">
        <ele>53.46200064</ele>
        <time>2020-10-10T10:19:22.000Z</time>
      </trkpt>
      <trkpt lat="43.61103" lon="3.87353">
        <ele>53.66200064</ele>
        <time>2020-10-10T10:19:23.000Z</time>
      </trkpt>
      <trkpt lat="43.61102" lon="3.87361">
        <ele>53.86200064</ele>
        <time>2020-10-10T10:19:24.000Z</time>
      </trkpt>
      <trkpt lat="43.61101" lon="3.87369">
        <ele>54.06200064</ele>
        <time>2020-10-10T10:19:25.000Z</time>
      </trkpt>
      <trkpt lat="43.611" lon="3.87378">
        <ele>54.26200064</ele>
        <time>2020-10-10T10:19:26.000Z</time>
      </trkpt>
      <trkpt lat="43.611" lon="3.87387">
        <ele>54.46200064</ele>
        <time>2020-10-10T10:19:27.000Z</time>
      </trkpt>
      <trkpt lat="43.611" lon="3.87396">
        <ele>54.66200064</ele>
        <time>2020-10-10T10:19:28.000Z</time>
      </trkpt>
      <trkpt lat="43.611" lon="3.87405">
        <ele>54.86200064</ele>
        <time>2020-10-10T10:19:29.000Z</time>
      </trkpt>
      <trkpt lat="43.611" lon="3.87415">
        <ele>55.09300096</ele>
        <time>2020-10-10T10:19:30.000Z</time>
      </trkpt>
      <trkpt lat="43.611" lon="3.87425">
        <ele>55.39300096</ele>
        <time>2020-10-10T10:19:31.000Z</time>
      </trkpt>
      <trkpt lat="43.61099" lon="3.87434">
        <ele>55.69300096</ele>
        <time>2020-10-10T10:19:32.000Z</time>
      </trkpt>
      <trkpt lat="43.61099" lon="3.87444">
        <ele>55.99300096</ele>
        <time>2020-10-10T10:19:33.000Z</time>
      </trkpt>
      <trkpt lat="43.61098" lon="3.87453">
        <ele>56.29300096</ele>
        <time>2020-10-10T10:19:34.000Z</time>
      </trkpt>
      <trkpt lat="43.61098" lon="3.87463">
        <ele>56.59300096</ele>
        <time>2020-10-10T10:19:35.000Z</time>
      </trkpt>
      <trkpt lat="43.61097" lon="3.87473">
        <ele>56.89300096</ele>
        <time>2020-10-10T10:19:36.000Z</time>
      </trkpt>
      <trkpt lat="43.61096" lon="3.87482">
        <ele>57.19300096</ele>
        <time>2020-10-10T10:19:37.000Z</time>
      </trkpt>
      <trkpt lat="43.61096" lon="3.87492">
        <ele>57.49300096</ele>
        <time>2020-10-10T10:19:38.000Z</time>
      </trkpt>
      <trkpt lat="43.61095" lon="3.87502">
        <ele>57.79300096</ele>
        <time>2020-10-10T10:19:39.000Z</time>
      </trkpt>
      <trkpt lat="43.61095" lon="3.87512">
        <ele>58.03100032</ele>
        <time>2020-10-10T10:19:40.000Z</time>
      </trkpt>
      <trkpt lat="43.61095" lon="3.87521">
        <ele>58.13100032</ele>
        <time>2020-10-10T10:19:41.000Z</time>
      </trkpt>
      <trkpt lat="43.61095" lon="3.87531">
        <ele>58.23100032</ele>
        <time>2020-10-10T10:19:42.000Z</time>
      </trkpt>
      <trkpt lat="43.61094" lon="3.87541">
        <ele>58.33100032</ele>
        <time>2020-10-10T10:19:43.000Z</time>
      </trkpt>
      <trkpt lat="43.61094" lon="3.87551">
        <ele>58.43100032</ele>
        <time>2020-10-10T10:19:44.000Z</time>
      </trkpt>
      <trkpt lat="43.61094" lon="3.87561">
        <ele>58.53100032</ele>
        <time>2020-10-10T10:19:45.000Z</time>
      </trkpt>
      <trkpt lat="43.61093" lon="3.87571">
        <ele>58.63100032</ele>
        <time>2020-10-10T10:19:46.000Z</time>
      </trkpt>
      <trkpt lat="43.61093" lon="3.8758">
        <ele>58.73100032</ele>
        <time>2020-10-10T10:19:47.000Z</time>
      </trkpt>
      <trkpt lat="43.61092" lon="3.87589">
        <ele>58.83100032</ele>
        <time>2020-10-10T10:19:48.000Z</time>
      </trkpt>
      <trkpt lat="43.61091" lon="3.87599">
        <ele>58.93100032</ele>
        <time>2020-10-10T10:19:49.000Z</time>
      </trkpt>
      <trkpt lat="43.6109" lon="3.87608">
        <ele>58.93799936</ele>
        <time>2020-10-10T10:19:50.000Z</time>
      </trkpt>
      <trkpt lat="43.61088" lon="3.87616">
        <ele>58.73799936</ele>
        <time>2020-10-10T10:19:51.000Z</time>
      </trkpt>
      <trkpt lat="43.61085" lon="3.87622">
        <ele>58.53799936</ele>
        <time>2020-10-10T10:19:52.000Z</time>
      </trkpt>
      <trkpt lat="43.61082" lon="3.87628">
        <ele>58.33799936</ele>
        <time>2020-10-10T10:19:53.000Z</time>
      </trkpt>
      <trkpt lat="43.6108" lon="3.87633">
        <ele>58.13799936</ele>
        <time>2020-10-10T10:19:54.000Z</time>
      </trkpt>
      <trkpt lat="43.61078" lon="3.87638">
        <ele>57.93799936</ele>
        <time>2020-10-10T10:19:55.000Z</time>
      </trkpt>
      <trkpt lat="43.61077" lon="3.87643">
        <ele>57.73799936</ele>
        <time>2020-10-10T10:19:56.000Z</time>
      </trkpt>
      <trkpt lat="43.61074" lon="3.87648">
        <ele>57.53799936</ele>
        <time>2020-10-10T10:19:57.000Z</time>
      </trkpt>
      <trkpt lat="43.61071" lon="3.87652">
        <ele>57.33799936</ele>
        <time>2020-10-10T10:19:58.000Z</time>
      </trkpt>
      <trkpt lat="43.61068" lon="3.87657">
        <ele>57.13799936</ele>
        <time>2020-10-10T10:19:59.000Z</time>
      </trkpt>
      <trkpt lat="43.61064" lon="3.87661">
        <ele>56.93799936</ele>
        <time>2020-10-10T10:20:00.000Z</time>
      </trkpt>
      <trkpt lat="43.6106" lon="3.87664">
        <ele>56.73799936</ele>
        <time>2020-10-10T10:20:01.000Z</time>
      </trkpt>
      <trkpt lat="43.61056" lon="3.87666">
        <ele>56.53799936</ele>
        <time>2020-10-10T10:20:02.000Z</time>
      </trkpt>
      <trkpt lat="43.61051" lon="3.87669">
        <ele>56.33799936</ele>
        <time>2020-10-10T10:20:03.000Z</time>
      </trkpt>
      <trkpt lat="43.61047" lon="3.87673">
        <ele>56.13799936</ele>
        <time>2020-10-10T10:20:04.000Z</time>
      </trkpt>
      <trkpt lat="43.61044" lon="3.87677">
        <ele>55.93799936</ele>
        <time>2020-10-10T10:20:05.000Z</time>
      </trkpt>
      <trkpt lat="43.6104" lon="3.87681">
        <ele>55.73799936</ele>
        <time>2020-10-10T10:20:06.000Z</time>
      </trkpt>
      <trkpt lat="43.61037" lon="3.87686">
        <ele>55.53799936</ele>
        <time>2020-10-10T10:20:07.000Z</time>
      </trkpt>
      <trkpt lat="43.61034" lon="3.8769">
        <ele>55.33799936</ele>
        <time>2020-10-10T10:20:08.000Z</time>
      </trkpt>
      <trkpt lat="43.61032" lon="3.87692">
        <ele>55.13799936</ele>
        <time>2020-10-10T10:20:09.000Z</time>
      </trkpt>
      <trkpt lat="43.6103" lon="3.87696">
        <ele>54.73799936</ele>
        <time>2020-10-10T10:20:11.000Z</time>
      </trkpt>
      <trkpt lat="43.61029" lon="3.87698">
        <ele>54.53799936</ele>
        <time>2020-10-10T10:20:12.000Z</time>
      </trkpt>
      <trkpt lat="43.61028" lon="3.87701">
        <ele>54.33799936</ele>
        <time>2020-10-10T10:20:13.000Z</time>
      </trkpt>
      <trkpt lat="43.61026" lon="3.87704">
        <ele>54.13799936</ele>
        <time>2020-10-10T10:20:14.000Z</time>
      </trkpt>
      <trkpt lat="43.61025" lon="3.87707">
        <ele>53.93799936</ele>
        <time>2020-10-10T10:20:15.000Z</time>
      </trkpt>
      <trkpt lat="43.61022" lon="3.8771">
        <ele>53.73799936</ele>
        <time>2020-10-10T10:20:16.000Z</time>
      </trkpt>
      <trkpt lat="43.6102" lon="3.87713">
        <ele>53.53799936</ele>
        <time>2020-10-10T10:20:17.000Z</time>
      </trkpt>
      <trkpt lat="43.61018" lon="3.87716">
        <ele>53.33799936</ele>
        <time>2020-10-10T10:20:18.000Z</time>
      </trkpt>
      <trkpt lat="43.61016" lon="3.87719">
        <ele>53.13799936</ele>
        <time>2020-10-10T10:20:19.000Z</time>
      </trkpt>
      <trkpt lat="43.61014" lon="3.87722">
        <ele>53.03100032</ele>
        <time>2020-10-10T10:20:20.000Z</time>
      </trkpt>
      <trkpt lat="43.61014" lon="3.87725">
        <ele>53.13100032</ele>
        <time>2020-10-10T10:20:21.000Z</time>
      </trkpt>
      <trkpt lat="43.61014" lon="3.87728">
        <ele>53.23100032</ele>
        <time>2020-10-10T10:20:22.000Z</time>
      </trkpt>
      <trkpt lat="43.61013" lon="3.8773">
        <ele>53.33100032</ele>
        <time>2020-10-10T10:20:23.000Z</time>
      </trkpt>
      <trkpt lat="43.61013" lon="3.87733">
        <ele>53.43100032</ele>
        <time>2020-10-10T10:20:24.000Z</time>
      </trkpt>
      <trkpt lat="43.61012" lon="3.87736">
        <ele>53.53100032</ele>
        <time>2020-10-10T10:20:25.000Z</time>
      </trkpt>
      <trkpt lat="43.61015" lon="3.8774">
        <ele>53.73100032</ele>
        <time>2020-10-10T10:20:27.000Z</time>
      </trkpt>
      <trkpt lat="43.61017" lon="3.87742">
        <ele>53.83100032</ele>
        <time>2020-10-10T10:20:28.000Z</time>
      </trkpt>
      <trkpt lat="43.61019" lon="3.87745">
        <ele>53.93100032</ele>
        <time>2020-10-10T10:20:29.000Z</time>
      </trkpt>
      <trkpt lat="43.61021" lon="3.87747">
        <ele>54.03100032</ele>
        <time>2020-10-10T10:20:30.000Z</time>
      </trkpt>
      <trkpt lat="43.61023" lon="3.87749">
        <ele>54.13100032</ele>
        <time>2020-10-10T10:20:31.000Z</time>
      </trkpt>
      <trkpt lat="43.61025" lon="3.87751">
        <ele>54.23100032</ele>
        <time>2020-10-10T10:20:32.000Z</time>
      </trkpt>
      <trkpt lat="43.61027" lon="3.87753">
        <ele>54.33100032</ele>
        <time>2020-10-10T10:20:33.000Z</time>
      </trkpt>
      <trkpt lat="43.61028" lon="3.87754">
        <ele>54.43100032</ele>
        <time>2020-10-10T10:20:34.000Z</time>
      </trkpt>
      <trkpt lat="43.61031" lon="3.87755">
        <ele>54.63100032</ele>
        <time>2020-10-10T10:20:36.000Z</time>
      </trkpt>
      <trkpt lat="43.61033" lon="3.87757">
        <ele>54.73100032</ele>
        <time>2020-10-10T10:20:37.000Z</time>
      </trkpt>
      <trkpt lat="43.61034" lon="3.87758">
        <ele>54.83100032</ele>
        <time>2020-10-10T10:20:38.000Z</time>
      </trkpt>
      <trkpt lat="43.61036" lon="3.8776">
        <ele>54.93100032</ele>
        <time>2020-10-10T10:20:39.000Z</time>
      </trkpt>
      <trkpt lat="43.61038" lon="3.87761">
        <ele>55</ele>
        <time>2020-10-10T10:20:40.000Z</time>
      </trkpt>
      <trkpt lat="43.6104" lon="3.87763">
        <ele>55</ele>
        <time>2020-10-10T10:20:41.000Z</time>
      </trkpt>
      <trkpt lat="43.61042" lon="3.87765">
        <ele>55</ele>
        <time>2020-10-10T10:20:43.000Z</time>
      </trkpt>
      <trkpt lat="43.61046" lon="3.87768">
        <ele>55</ele>
        <time>2020-10-10T10:20:45.000Z</time>
      </trkpt>
      <trkpt lat="43.61047" lon="3.8777">
        <ele>55</ele>
        <time>2020-10-10T10:20:46.000Z</time>
      </trkpt>
      <trkpt lat="43.61049" lon="3.87773">
        <ele>55</ele>
        <time>2020-10-10T10:20:47.000Z</time>
      </trkpt>
      <trkpt lat="43.6105" lon="3.87775">
        <ele>55</ele>
        <time>2020-10-10T10:20:48.000Z</time>
      </trkpt>
      <trkpt lat="43.61052" lon="3.87777">
        <ele>55</ele>
        <time>2020-10-10T10:20:49.000Z</time>
      </trkpt>
      <trkpt lat="43.61054" lon="3.87778">
        <ele>54.869910349184</ele>
        <time>2020-10-10T10:20:51.000Z</time>
      </trkpt>
      <trkpt lat="43.61057" lon="3.8778">
        <ele>54.671300680421</ele>
        <time>2020-10-10T10:20:53.000Z</time>
      </trkpt>
      <trkpt lat="43.61058" lon="3.87782">
        <ele>54.472691011657</ele>
        <time>2020-10-10T10:20:55.000Z</time>
      </trkpt>
      <trkpt lat="43.61058" lon="3.87785">
        <ele>54.174776508512</ele>
        <time>2020-10-10T10:20:58.000Z</time>
      </trkpt>
      <trkpt lat="43.61058" lon="3.87789">
        <ele>54.048241190515</ele>
        <time>2020-10-10T10:21:00.000Z</time>
      </trkpt>
      <trkpt lat="43.61058" lon="3.87792">
        <ele>54.249246150996</ele>
        <time>2020-10-10T10:21:01.000Z</time>
      </trkpt>
      <trkpt lat="43.61059" lon="3.87795">
        <ele>54.450251111477</ele>
        <time>2020-10-10T10:21:02.000Z</time>
      </trkpt>
      <trkpt lat="43.6106" lon="3.87799">
        <ele>54.651256071958</ele>
        <time>2020-10-10T10:21:03.000Z</time>
      </trkpt>
      <trkpt lat="43.61062" lon="3.87802">
        <ele>54.852261032439</ele>
        <time>2020-10-10T10:21:04.000Z</time>
      </trkpt>
      <trkpt lat="43.61063" lon="3.87806">
        <ele>55.053265992919</ele>
        <time>2020-10-10T10:21:05.000Z</time>
      </trkpt>
      <trkpt lat="43.61064" lon="3.87809">
        <ele>55.2542709534</ele>
        <time>2020-10-10T10:21:06.000Z</time>
      </trkpt>
      <trkpt lat="43.61066" lon="3.8781">
        <ele>55.455275913881</ele>
        <time>2020-10-10T10:21:07.000Z</time>
      </trkpt>
      <trkpt lat="43.6107" lon="3.87812">
        <ele>55.857285834843</ele>
        <time>2020-10-10T10:21:09.000Z</time>
      </trkpt>
      <trkpt lat="43.61076" lon="3.87818">
        <ele>56</ele>
        <time>2020-10-10T10:21:11.000Z</time>
      </trkpt>
      <trkpt lat="43.61079" lon="3.87821">
        <ele>56</ele>
        <time>2020-10-10T10:21:12.000Z</time>
      </trkpt>
      <trkpt lat="43.61083" lon="3.87825">
        <ele>56</ele>
        <time>2020-10-10T10:21:13.000Z</time>
      </trkpt>
      <trkpt lat="43.61086" lon="3.87829">
        <ele>56</ele>
        <time>2020-10-10T10:21:14.000Z</time>
      </trkpt>
      <trkpt lat="43.6109" lon="3.87831">
        <ele>56</ele>
        <time>2020-10-10T10:21:15.000Z</time>
      </trkpt>
      <trkpt lat="43.61094" lon="3.87834">
        <ele>56</ele>
        <time>2020-10-10T10:21:16.000Z</time>
      </trkpt>
      <trkpt lat="43.61104" lon="3.8784">
        <ele>56</ele>
        <time>2020-10-10T10:21:19.000Z</time>
      </trkpt>
      <trkpt lat="43.61113" lon="3.8785">
        <ele>56.46200064</ele>
        <time>2020-10-10T10:21:22.000Z</time>
      </trkpt>
      <trkpt lat="43.61121" lon="3.87859">
        <ele>57.06200064</ele>
        <time>2020-10-10T10:21:25.000Z</time>
      </trkpt>
      <trkpt lat="43.61128" lon="3.87867">
        <ele>57.66200064</ele>
        <time>2020-10-10T10:21:28.000Z</time>
      </trkpt>
      <trkpt lat="43.6113" lon="3.87869">
        <ele>57.86200064</ele>
        <time>2020-10-10T10:21:29.000Z</time>
      </trkpt>
      <trkpt lat="43.61132" lon="3.8787">
        <ele>57.93799936</ele>
        <time>2020-10-10T10:21:30.000Z</time>
      </trkpt>
      <trkpt lat="43.61135" lon="3.87873">
        <ele>57.53799936</ele>
        <time>2020-10-10T10:21:32.000Z</time>
      </trkpt>
      <trkpt lat="43.61137" lon="3.87873">
        <ele>57.33799936</ele>
        <time>2020-10-10T10:21:33.000Z</time>
      </trkpt>
      <trkpt lat="43.61141" lon="3.87875">
        <ele>56.93799936</ele>
        <time>2020-10-10T10:21:35.000Z</time>
      </trkpt>
      <trkpt lat="43.61143" lon="3.87875">
        <ele>56.73799936</ele>
        <time>2020-10-10T10:21:36.000Z</time>
      </trkpt>
      <trkpt lat="43.61144" lon="3.87874">
        <ele>56.53799936</ele>
        <time>2020-10-10T10:21:37.000Z</time>
      </trkpt>
      <trkpt lat="43.61146" lon="3.87868">
        <ele>56.33799936</ele>
        <time>2020-10-10T10:21:38.000Z</time>
      </trkpt>
      <trkpt lat="43.61148" lon="3.87864">
        <ele>56.13799936</ele>
        <time>2020-10-10T10:21:39.000Z</time>
      </trkpt>
      <trkpt lat="43.6115" lon="3.8786">
        <ele>56</ele>
        <time>2020-10-10T10:21:40.000Z</time>
      </trkpt>
      <trkpt lat="43.61152" lon="3.87856">
        <ele>56</ele>
        <time>2020-10-10T10:21:41.000Z</time>
      </trkpt>
      <trkpt lat="43.61153" lon="3.87851">
        <ele>56</ele>
        <time>2020-10-10T10:21:42.000Z</time>
      </trkpt>
      <trkpt lat="43.61154" lon="3.87847">
        <ele>56</ele>
        <time>2020-10-10T10:21:43.000Z</time>
      </trkpt>
      <trkpt lat="43.61155" lon="3.87842">
        <ele>56</ele>
        <time>2020-10-10T10:21:44.000Z</time>
      </trkpt>
      <trkpt lat="43.61158" lon="3.87834">
        <ele>56</ele>
        <time>2020-10-10T10:21:46.000Z</time>
      </trkpt>
      <trkpt lat="43.6116" lon="3.8783">
        <ele>56</ele>
        <time>2020-10-10T10:21:47.000Z</time>
      </trkpt>
      <trkpt lat="43.61166" lon="3.8782">
        <ele>56</ele>
        <time>2020-10-10T10:21:52.000Z</time>
      </trkpt>
      <trkpt lat="43.61174" lon="3.87812">
        <ele>56</ele>
        <time>2020-10-10T10:21:59.000Z</time>
      </trkpt>
      <trkpt lat="43.61178" lon="3.87807">
        <ele>55.76899968</ele>
        <time>2020-10-10T10:22:02.000Z</time>
      </trkpt>
      <trkpt lat="43.61176" lon="3.87801">
        <ele>55.56899968</ele>
        <time>2020-10-10T10:22:04.000Z</time>
      </trkpt>
      <trkpt lat="43.61174" lon="3.87799">
        <ele>55.46899968</ele>
        <time>2020-10-10T10:22:05.000Z</time>
      </trkpt>
      <trkpt lat="43.61167" lon="3.87791">
        <ele>55.06899968</ele>
        <time>2020-10-10T10:22:09.000Z</time>
      </trkpt>
      <trkpt lat="43.61159" lon="3.8778">
        <ele>55.86200064</ele>
        <time>2020-10-10T10:22:14.000Z</time>
      </trkpt>
      <trkpt lat="43.61158" lon="3.87766">
        <ele>56.66200064</ele>
        <time>2020-10-10T10:22:18.000Z</time>
      </trkpt>
      <trkpt lat="43.61158" lon="3.87763">
        <ele>57.059846103665</ele>
        <time>2020-10-10T10:22:20.000Z</time>
      </trkpt>
      <trkpt lat="43.61157" lon="3.87764">
        <ele>58.009493670886</ele>
        <time>2020-10-10T10:22:25.000Z</time>
      </trkpt>
      <trkpt lat="43.61154" lon="3.87764">
        <ele>60.976265822785</ele>
        <time>2020-10-10T10:22:50.000Z</time>
      </trkpt>
      <trkpt lat="43.61154" lon="3.87764">
        <ele>62</ele>
        <time>2020-10-10T10:22:54.000Z</time>
      </trkpt>
      <trkpt lat="43.61156" lon="3.87764">
        <ele>62</ele>
        <time>2020-10-10T10:23:02.000Z</time>
      </trkpt>
      <trkpt lat="43.61156" lon="3.87762">
        <ele>62.267173920933</ele>
        <time>2020-10-10T10:23:03.000Z</time>
      </trkpt>
      <trkpt lat="43.61157" lon="3.87758">
        <ele>63.357686842377</ele>
        <time>2020-10-10T10:23:05.000Z</time>
      </trkpt>
      <trkpt lat="43.61158" lon="3.87755">
        <ele>63.902943303099</ele>
        <time>2020-10-10T10:23:06.000Z</time>
      </trkpt>
      <trkpt lat="43.61158" lon="3.87749">
        <ele>64.448199763821</ele>
        <time>2020-10-10T10:23:07.000Z</time>
      </trkpt>
      <trkpt lat="43.61158" lon="3.87747">
        <ele>65.538712685265</ele>
        <time>2020-10-10T10:23:09.000Z</time>
      </trkpt>
      <trkpt lat="43.61157" lon="3.87745">
        <ele>67.143634335187</ele>
        <time>2020-10-10T10:23:13.000Z</time>
      </trkpt>
      <trkpt lat="43.61155" lon="3.87743">
        <ele>67.57888989636</ele>
        <time>2020-10-10T10:23:17.000Z</time>
      </trkpt>
      <trkpt lat="43.61154" lon="3.87744">
        <ele>68</ele>
        <time>2020-10-10T10:23:21.000Z</time>
      </trkpt>
      <trkpt lat="43.61149" lon="3.8774">
        <ele>70.977190495118</ele>
        <time>2020-10-10T10:23:46.000Z</time>
      </trkpt>
      <trkpt lat="43.61148" lon="3.87738">
        <ele>71</ele>
        <time>2020-10-10T10:23:49.000Z</time>
      </trkpt>
      <trkpt lat="43.61147" lon="3.87739">
        <ele>71</ele>
        <time>2020-10-10T10:23:55.000Z</time>
      </trkpt>
    </trkseg>
  </trk>
</gpx>